<?xml version="1.0" encoding="UTF-8" standalone="no" ?>
<gpx xmlns="http://www.topografix.com/GPX/1/1" xmlns:xsi="http://www.w3.org/2001/XMLSchema-instance" xsi:schemaLocation="http://www.topografix.com/GPX/1/1 http://www.topografix.com/GPX/1/1/gpx.xsd" version="1.1" creator="VisuGPX - https://www.visugpx.com">
  <metadata>
    <name>GTHL 2021 - etape 4</name>
  </metadata>
  <trk>
    <name><![CDATA[GTHL 2021]]></name>
    <extensions>
      <line xmlns="http://www.topografix.com/GPX/gpx_style/0/2">
        <color>FF0000</color>
        <width>4</width>
      </line>
    </extensions>
    <trkseg>
      <trkpt lat="45.01571" lon="4.06548">
        <ele>994</ele>
        <time>2021-04-28T12:15:04Z</time>
      </trkpt>
      <trkpt lat="45.01568" lon="4.06547">
        <ele>994</ele>
        <time>2021-04-28T12:15:05Z</time>
      </trkpt>
      <trkpt lat="45.01565" lon="4.06545">
        <ele>994</ele>
        <time>2021-04-28T12:15:06Z</time>
      </trkpt>
      <trkpt lat="45.01562" lon="4.06544">
        <ele>995</ele>
        <time>2021-04-28T12:15:07Z</time>
      </trkpt>
      <trkpt lat="45.01555" lon="4.06542">
        <ele>995</ele>
        <time>2021-04-28T12:15:08Z</time>
      </trkpt>
      <trkpt lat="45.01551" lon="4.0654">
        <ele>995</ele>
        <time>2021-04-28T12:15:10Z</time>
      </trkpt>
      <trkpt lat="45.01547" lon="4.06539">
        <ele>995</ele>
        <time>2021-04-28T12:15:11Z</time>
      </trkpt>
      <trkpt lat="45.01542" lon="4.06539">
        <ele>996</ele>
        <time>2021-04-28T12:15:12Z</time>
      </trkpt>
      <trkpt lat="45.01538" lon="4.06538">
        <ele>996</ele>
        <time>2021-04-28T12:15:13Z</time>
      </trkpt>
      <trkpt lat="45.01534" lon="4.06537">
        <ele>996</ele>
        <time>2021-04-28T12:15:14Z</time>
      </trkpt>
      <trkpt lat="45.0153" lon="4.06537">
        <ele>996</ele>
        <time>2021-04-28T12:15:15Z</time>
      </trkpt>
      <trkpt lat="45.01525" lon="4.06537">
        <ele>996</ele>
        <time>2021-04-28T12:15:16Z</time>
      </trkpt>
      <trkpt lat="45.01521" lon="4.06537">
        <ele>996</ele>
        <time>2021-04-28T12:15:17Z</time>
      </trkpt>
      <trkpt lat="45.01517" lon="4.06537">
        <ele>996</ele>
        <time>2021-04-28T12:15:18Z</time>
      </trkpt>
      <trkpt lat="45.01512" lon="4.06537">
        <ele>996</ele>
        <time>2021-04-28T12:15:19Z</time>
      </trkpt>
      <trkpt lat="45.01508" lon="4.06537">
        <ele>996</ele>
        <time>2021-04-28T12:15:20Z</time>
      </trkpt>
      <trkpt lat="45.015" lon="4.06537">
        <ele>996</ele>
        <time>2021-04-28T12:15:21Z</time>
      </trkpt>
      <trkpt lat="45.01495" lon="4.06537">
        <ele>996</ele>
        <time>2021-04-28T12:15:23Z</time>
      </trkpt>
      <trkpt lat="45.01491" lon="4.06537">
        <ele>996</ele>
        <time>2021-04-28T12:15:24Z</time>
      </trkpt>
      <trkpt lat="45.01486" lon="4.06536">
        <ele>996</ele>
        <time>2021-04-28T12:15:25Z</time>
      </trkpt>
      <trkpt lat="45.01481" lon="4.06535">
        <ele>996</ele>
        <time>2021-04-28T12:15:26Z</time>
      </trkpt>
      <trkpt lat="45.01472" lon="4.06532">
        <ele>996</ele>
        <time>2021-04-28T12:15:27Z</time>
      </trkpt>
      <trkpt lat="45.01468" lon="4.06531">
        <ele>997</ele>
        <time>2021-04-28T12:15:29Z</time>
      </trkpt>
      <trkpt lat="45.01463" lon="4.06529">
        <ele>997</ele>
        <time>2021-04-28T12:15:30Z</time>
      </trkpt>
      <trkpt lat="45.01458" lon="4.06528">
        <ele>997</ele>
        <time>2021-04-28T12:15:31Z</time>
      </trkpt>
      <trkpt lat="45.01454" lon="4.06526">
        <ele>997</ele>
        <time>2021-04-28T12:15:32Z</time>
      </trkpt>
      <trkpt lat="45.0145" lon="4.06525">
        <ele>997</ele>
        <time>2021-04-28T12:15:33Z</time>
      </trkpt>
      <trkpt lat="45.01445" lon="4.06524">
        <ele>997</ele>
        <time>2021-04-28T12:15:34Z</time>
      </trkpt>
      <trkpt lat="45.01441" lon="4.06523">
        <ele>997</ele>
        <time>2021-04-28T12:15:35Z</time>
      </trkpt>
      <trkpt lat="45.01436" lon="4.06522">
        <ele>997</ele>
        <time>2021-04-28T12:15:36Z</time>
      </trkpt>
      <trkpt lat="45.01432" lon="4.06518">
        <ele>997</ele>
        <time>2021-04-28T12:15:37Z</time>
      </trkpt>
      <trkpt lat="45.01429" lon="4.06514">
        <ele>997</ele>
        <time>2021-04-28T12:15:38Z</time>
      </trkpt>
      <trkpt lat="45.01426" lon="4.06511">
        <ele>997</ele>
        <time>2021-04-28T12:15:39Z</time>
      </trkpt>
      <trkpt lat="45.01423" lon="4.06511">
        <ele>997</ele>
        <time>2021-04-28T12:15:40Z</time>
      </trkpt>
      <trkpt lat="45.01419" lon="4.06511">
        <ele>997</ele>
        <time>2021-04-28T12:15:41Z</time>
      </trkpt>
      <trkpt lat="45.01416" lon="4.06512">
        <ele>997</ele>
        <time>2021-04-28T12:15:42Z</time>
      </trkpt>
      <trkpt lat="45.01413" lon="4.06512">
        <ele>996</ele>
        <time>2021-04-28T12:15:43Z</time>
      </trkpt>
      <trkpt lat="45.0141" lon="4.06513">
        <ele>996</ele>
        <time>2021-04-28T12:15:44Z</time>
      </trkpt>
      <trkpt lat="45.01406" lon="4.06514">
        <ele>996</ele>
        <time>2021-04-28T12:15:45Z</time>
      </trkpt>
      <trkpt lat="45.014" lon="4.06516">
        <ele>996</ele>
        <time>2021-04-28T12:15:46Z</time>
      </trkpt>
      <trkpt lat="45.01396" lon="4.06518">
        <ele>996</ele>
        <time>2021-04-28T12:15:48Z</time>
      </trkpt>
      <trkpt lat="45.01392" lon="4.06519">
        <ele>996</ele>
        <time>2021-04-28T12:15:49Z</time>
      </trkpt>
      <trkpt lat="45.01388" lon="4.06521">
        <ele>997</ele>
        <time>2021-04-28T12:15:50Z</time>
      </trkpt>
      <trkpt lat="45.0138" lon="4.06525">
        <ele>997</ele>
        <time>2021-04-28T12:15:51Z</time>
      </trkpt>
      <trkpt lat="45.01377" lon="4.06527">
        <ele>997</ele>
        <time>2021-04-28T12:15:53Z</time>
      </trkpt>
      <trkpt lat="45.01373" lon="4.0653">
        <ele>997</ele>
        <time>2021-04-28T12:15:54Z</time>
      </trkpt>
      <trkpt lat="45.0137" lon="4.06533">
        <ele>997</ele>
        <time>2021-04-28T12:15:55Z</time>
      </trkpt>
      <trkpt lat="45.01367" lon="4.06537">
        <ele>997</ele>
        <time>2021-04-28T12:15:56Z</time>
      </trkpt>
      <trkpt lat="45.01363" lon="4.06541">
        <ele>997</ele>
        <time>2021-04-28T12:15:57Z</time>
      </trkpt>
      <trkpt lat="45.0136" lon="4.06545">
        <ele>997</ele>
        <time>2021-04-28T12:15:58Z</time>
      </trkpt>
      <trkpt lat="45.01357" lon="4.0655">
        <ele>997</ele>
        <time>2021-04-28T12:15:59Z</time>
      </trkpt>
      <trkpt lat="45.01354" lon="4.06555">
        <ele>997</ele>
        <time>2021-04-28T12:16:00Z</time>
      </trkpt>
      <trkpt lat="45.01351" lon="4.0656">
        <ele>997</ele>
        <time>2021-04-28T12:16:01Z</time>
      </trkpt>
      <trkpt lat="45.01348" lon="4.06565">
        <ele>998</ele>
        <time>2021-04-28T12:16:02Z</time>
      </trkpt>
      <trkpt lat="45.01346" lon="4.0657">
        <ele>998</ele>
        <time>2021-04-28T12:16:03Z</time>
      </trkpt>
      <trkpt lat="45.01343" lon="4.06576">
        <ele>998</ele>
        <time>2021-04-28T12:16:04Z</time>
      </trkpt>
      <trkpt lat="45.01341" lon="4.0658">
        <ele>998</ele>
        <time>2021-04-28T12:16:05Z</time>
      </trkpt>
      <trkpt lat="45.01338" lon="4.06586">
        <ele>998</ele>
        <time>2021-04-28T12:16:06Z</time>
      </trkpt>
      <trkpt lat="45.01336" lon="4.06591">
        <ele>998</ele>
        <time>2021-04-28T12:16:07Z</time>
      </trkpt>
      <trkpt lat="45.01334" lon="4.06596">
        <ele>999</ele>
        <time>2021-04-28T12:16:08Z</time>
      </trkpt>
      <trkpt lat="45.01332" lon="4.06601">
        <ele>999</ele>
        <time>2021-04-28T12:16:09Z</time>
      </trkpt>
      <trkpt lat="45.0133" lon="4.06606">
        <ele>999</ele>
        <time>2021-04-28T12:16:10Z</time>
      </trkpt>
      <trkpt lat="45.01328" lon="4.06611">
        <ele>1000</ele>
        <time>2021-04-28T12:16:11Z</time>
      </trkpt>
      <trkpt lat="45.01326" lon="4.06616">
        <ele>1000</ele>
        <time>2021-04-28T12:16:12Z</time>
      </trkpt>
      <trkpt lat="45.01324" lon="4.06622">
        <ele>1000</ele>
        <time>2021-04-28T12:16:13Z</time>
      </trkpt>
      <trkpt lat="45.01322" lon="4.06627">
        <ele>1001</ele>
        <time>2021-04-28T12:16:14Z</time>
      </trkpt>
      <trkpt lat="45.0132" lon="4.06632">
        <ele>1001</ele>
        <time>2021-04-28T12:16:15Z</time>
      </trkpt>
      <trkpt lat="45.01318" lon="4.06637">
        <ele>1001</ele>
        <time>2021-04-28T12:16:16Z</time>
      </trkpt>
      <trkpt lat="45.01316" lon="4.06642">
        <ele>1001</ele>
        <time>2021-04-28T12:16:17Z</time>
      </trkpt>
      <trkpt lat="45.01314" lon="4.06647">
        <ele>1001</ele>
        <time>2021-04-28T12:16:18Z</time>
      </trkpt>
      <trkpt lat="45.01312" lon="4.06652">
        <ele>1001</ele>
        <time>2021-04-28T12:16:19Z</time>
      </trkpt>
      <trkpt lat="45.0131" lon="4.06657">
        <ele>1001</ele>
        <time>2021-04-28T12:16:20Z</time>
      </trkpt>
      <trkpt lat="45.01308" lon="4.06662">
        <ele>1001</ele>
        <time>2021-04-28T12:16:21Z</time>
      </trkpt>
      <trkpt lat="45.01306" lon="4.06667">
        <ele>1002</ele>
        <time>2021-04-28T12:16:22Z</time>
      </trkpt>
      <trkpt lat="45.01304" lon="4.06672">
        <ele>1002</ele>
        <time>2021-04-28T12:16:23Z</time>
      </trkpt>
      <trkpt lat="45.013" lon="4.06682">
        <ele>1002</ele>
        <time>2021-04-28T12:16:24Z</time>
      </trkpt>
      <trkpt lat="45.01298" lon="4.06688">
        <ele>1002</ele>
        <time>2021-04-28T12:16:26Z</time>
      </trkpt>
      <trkpt lat="45.01296" lon="4.06693">
        <ele>1003</ele>
        <time>2021-04-28T12:16:27Z</time>
      </trkpt>
      <trkpt lat="45.01294" lon="4.06698">
        <ele>1003</ele>
        <time>2021-04-28T12:16:28Z</time>
      </trkpt>
      <trkpt lat="45.01292" lon="4.06703">
        <ele>1003</ele>
        <time>2021-04-28T12:16:29Z</time>
      </trkpt>
      <trkpt lat="45.0129" lon="4.06708">
        <ele>1003</ele>
        <time>2021-04-28T12:16:30Z</time>
      </trkpt>
      <trkpt lat="45.01288" lon="4.06713">
        <ele>1004</ele>
        <time>2021-04-28T12:16:31Z</time>
      </trkpt>
      <trkpt lat="45.01286" lon="4.06718">
        <ele>1004</ele>
        <time>2021-04-28T12:16:32Z</time>
      </trkpt>
      <trkpt lat="45.01284" lon="4.06723">
        <ele>1004</ele>
        <time>2021-04-28T12:16:33Z</time>
      </trkpt>
      <trkpt lat="45.01282" lon="4.06728">
        <ele>1004</ele>
        <time>2021-04-28T12:16:34Z</time>
      </trkpt>
      <trkpt lat="45.0128" lon="4.06734">
        <ele>1004</ele>
        <time>2021-04-28T12:16:35Z</time>
      </trkpt>
      <trkpt lat="45.01278" lon="4.06739">
        <ele>1004</ele>
        <time>2021-04-28T12:16:36Z</time>
      </trkpt>
      <trkpt lat="45.01276" lon="4.06744">
        <ele>1004</ele>
        <time>2021-04-28T12:16:37Z</time>
      </trkpt>
      <trkpt lat="45.01274" lon="4.06748">
        <ele>1005</ele>
        <time>2021-04-28T12:16:38Z</time>
      </trkpt>
      <trkpt lat="45.01272" lon="4.06753">
        <ele>1005</ele>
        <time>2021-04-28T12:16:39Z</time>
      </trkpt>
      <trkpt lat="45.01271" lon="4.06758">
        <ele>1005</ele>
        <time>2021-04-28T12:16:40Z</time>
      </trkpt>
      <trkpt lat="45.01269" lon="4.06763">
        <ele>1005</ele>
        <time>2021-04-28T12:16:41Z</time>
      </trkpt>
      <trkpt lat="45.01267" lon="4.06768">
        <ele>1005</ele>
        <time>2021-04-28T12:16:42Z</time>
      </trkpt>
      <trkpt lat="45.01263" lon="4.06779">
        <ele>1006</ele>
        <time>2021-04-28T12:16:43Z</time>
      </trkpt>
      <trkpt lat="45.01261" lon="4.06784">
        <ele>1006</ele>
        <time>2021-04-28T12:16:45Z</time>
      </trkpt>
      <trkpt lat="45.01259" lon="4.0679">
        <ele>1006</ele>
        <time>2021-04-28T12:16:46Z</time>
      </trkpt>
      <trkpt lat="45.01258" lon="4.06795">
        <ele>1007</ele>
        <time>2021-04-28T12:16:47Z</time>
      </trkpt>
      <trkpt lat="45.01256" lon="4.068">
        <ele>1007</ele>
        <time>2021-04-28T12:16:48Z</time>
      </trkpt>
      <trkpt lat="45.01255" lon="4.06806">
        <ele>1007</ele>
        <time>2021-04-28T12:16:49Z</time>
      </trkpt>
      <trkpt lat="45.01253" lon="4.06811">
        <ele>1007</ele>
        <time>2021-04-28T12:16:50Z</time>
      </trkpt>
      <trkpt lat="45.01252" lon="4.06816">
        <ele>1007</ele>
        <time>2021-04-28T12:16:51Z</time>
      </trkpt>
      <trkpt lat="45.0125" lon="4.06821">
        <ele>1008</ele>
        <time>2021-04-28T12:16:52Z</time>
      </trkpt>
      <trkpt lat="45.01249" lon="4.06827">
        <ele>1008</ele>
        <time>2021-04-28T12:16:53Z</time>
      </trkpt>
      <trkpt lat="45.01248" lon="4.06832">
        <ele>1008</ele>
        <time>2021-04-28T12:16:54Z</time>
      </trkpt>
      <trkpt lat="45.01246" lon="4.06837">
        <ele>1008</ele>
        <time>2021-04-28T12:16:55Z</time>
      </trkpt>
      <trkpt lat="45.01242" lon="4.06848">
        <ele>1008</ele>
        <time>2021-04-28T12:16:56Z</time>
      </trkpt>
      <trkpt lat="45.01239" lon="4.06853">
        <ele>1008</ele>
        <time>2021-04-28T12:16:58Z</time>
      </trkpt>
      <trkpt lat="45.01236" lon="4.06856">
        <ele>1008</ele>
        <time>2021-04-28T12:16:59Z</time>
      </trkpt>
      <trkpt lat="45.01233" lon="4.06859">
        <ele>1009</ele>
        <time>2021-04-28T12:17:00Z</time>
      </trkpt>
      <trkpt lat="45.01231" lon="4.06863">
        <ele>1009</ele>
        <time>2021-04-28T12:17:01Z</time>
      </trkpt>
      <trkpt lat="45.01226" lon="4.06871">
        <ele>1009</ele>
        <time>2021-04-28T12:17:02Z</time>
      </trkpt>
      <trkpt lat="45.01224" lon="4.06875">
        <ele>1009</ele>
        <time>2021-04-28T12:17:04Z</time>
      </trkpt>
      <trkpt lat="45.01222" lon="4.0688">
        <ele>1009</ele>
        <time>2021-04-28T12:17:05Z</time>
      </trkpt>
      <trkpt lat="45.0122" lon="4.06886">
        <ele>1009</ele>
        <time>2021-04-28T12:17:06Z</time>
      </trkpt>
      <trkpt lat="45.01218" lon="4.06891">
        <ele>1009</ele>
        <time>2021-04-28T12:17:07Z</time>
      </trkpt>
      <trkpt lat="45.01217" lon="4.06897">
        <ele>1009</ele>
        <time>2021-04-28T12:17:08Z</time>
      </trkpt>
      <trkpt lat="45.01216" lon="4.06903">
        <ele>1009</ele>
        <time>2021-04-28T12:17:09Z</time>
      </trkpt>
      <trkpt lat="45.01215" lon="4.06908">
        <ele>1009</ele>
        <time>2021-04-28T12:17:10Z</time>
      </trkpt>
      <trkpt lat="45.01214" lon="4.06913">
        <ele>1010</ele>
        <time>2021-04-28T12:17:11Z</time>
      </trkpt>
      <trkpt lat="45.01213" lon="4.06917">
        <ele>1010</ele>
        <time>2021-04-28T12:17:12Z</time>
      </trkpt>
      <trkpt lat="45.01211" lon="4.06922">
        <ele>1010</ele>
        <time>2021-04-28T12:17:13Z</time>
      </trkpt>
      <trkpt lat="45.0121" lon="4.06927">
        <ele>1010</ele>
        <time>2021-04-28T12:17:14Z</time>
      </trkpt>
      <trkpt lat="45.01209" lon="4.06932">
        <ele>1010</ele>
        <time>2021-04-28T12:17:15Z</time>
      </trkpt>
      <trkpt lat="45.01208" lon="4.06937">
        <ele>1010</ele>
        <time>2021-04-28T12:17:16Z</time>
      </trkpt>
      <trkpt lat="45.01207" lon="4.06942">
        <ele>1010</ele>
        <time>2021-04-28T12:17:17Z</time>
      </trkpt>
      <trkpt lat="45.01206" lon="4.06947">
        <ele>1010</ele>
        <time>2021-04-28T12:17:18Z</time>
      </trkpt>
      <trkpt lat="45.01204" lon="4.06952">
        <ele>1011</ele>
        <time>2021-04-28T12:17:19Z</time>
      </trkpt>
      <trkpt lat="45.01203" lon="4.06957">
        <ele>1011</ele>
        <time>2021-04-28T12:17:20Z</time>
      </trkpt>
      <trkpt lat="45.012" lon="4.06961">
        <ele>1011</ele>
        <time>2021-04-28T12:17:21Z</time>
      </trkpt>
      <trkpt lat="45.01197" lon="4.06964">
        <ele>1011</ele>
        <time>2021-04-28T12:17:24Z</time>
      </trkpt>
      <trkpt lat="45.01195" lon="4.06965">
        <ele>1011</ele>
        <time>2021-04-28T12:17:26Z</time>
      </trkpt>
      <trkpt lat="45.01194" lon="4.06965">
        <ele>1011</ele>
        <time>2021-04-28T12:17:31Z</time>
      </trkpt>
      <trkpt lat="45.01191" lon="4.06963">
        <ele>1011</ele>
        <time>2021-04-28T12:17:53Z</time>
      </trkpt>
      <trkpt lat="45.0119" lon="4.06963">
        <ele>1011</ele>
        <time>2021-04-28T12:17:57Z</time>
      </trkpt>
      <trkpt lat="45.01183" lon="4.06962">
        <ele>1012</ele>
        <time>2021-04-28T12:18:19Z</time>
      </trkpt>
      <trkpt lat="45.0118" lon="4.06961">
        <ele>1012</ele>
        <time>2021-04-28T12:18:20Z</time>
      </trkpt>
      <trkpt lat="45.01177" lon="4.06961">
        <ele>1012</ele>
        <time>2021-04-28T12:18:21Z</time>
      </trkpt>
      <trkpt lat="45.01174" lon="4.0696">
        <ele>1012</ele>
        <time>2021-04-28T12:18:22Z</time>
      </trkpt>
      <trkpt lat="45.0117" lon="4.0696">
        <ele>1012</ele>
        <time>2021-04-28T12:18:23Z</time>
      </trkpt>
      <trkpt lat="45.01167" lon="4.06959">
        <ele>1012</ele>
        <time>2021-04-28T12:18:24Z</time>
      </trkpt>
      <trkpt lat="45.01163" lon="4.06959">
        <ele>1012</ele>
        <time>2021-04-28T12:18:25Z</time>
      </trkpt>
      <trkpt lat="45.0116" lon="4.06959">
        <ele>1012</ele>
        <time>2021-04-28T12:18:26Z</time>
      </trkpt>
      <trkpt lat="45.01156" lon="4.06959">
        <ele>1012</ele>
        <time>2021-04-28T12:18:27Z</time>
      </trkpt>
      <trkpt lat="45.01152" lon="4.06958">
        <ele>1012</ele>
        <time>2021-04-28T12:18:28Z</time>
      </trkpt>
      <trkpt lat="45.01148" lon="4.06958">
        <ele>1012</ele>
        <time>2021-04-28T12:18:29Z</time>
      </trkpt>
      <trkpt lat="45.01144" lon="4.06957">
        <ele>1013</ele>
        <time>2021-04-28T12:18:30Z</time>
      </trkpt>
      <trkpt lat="45.01141" lon="4.06957">
        <ele>1013</ele>
        <time>2021-04-28T12:18:31Z</time>
      </trkpt>
      <trkpt lat="45.01136" lon="4.06956">
        <ele>1013</ele>
        <time>2021-04-28T12:18:32Z</time>
      </trkpt>
      <trkpt lat="45.01132" lon="4.06955">
        <ele>1013</ele>
        <time>2021-04-28T12:18:33Z</time>
      </trkpt>
      <trkpt lat="45.01127" lon="4.06954">
        <ele>1013</ele>
        <time>2021-04-28T12:18:34Z</time>
      </trkpt>
      <trkpt lat="45.01122" lon="4.06953">
        <ele>1013</ele>
        <time>2021-04-28T12:18:35Z</time>
      </trkpt>
      <trkpt lat="45.01118" lon="4.06951">
        <ele>1014</ele>
        <time>2021-04-28T12:18:36Z</time>
      </trkpt>
      <trkpt lat="45.01114" lon="4.0695">
        <ele>1014</ele>
        <time>2021-04-28T12:18:37Z</time>
      </trkpt>
      <trkpt lat="45.01106" lon="4.06943">
        <ele>1014</ele>
        <time>2021-04-28T12:18:38Z</time>
      </trkpt>
      <trkpt lat="45.01104" lon="4.06939">
        <ele>1014</ele>
        <time>2021-04-28T12:18:40Z</time>
      </trkpt>
      <trkpt lat="45.01102" lon="4.06934">
        <ele>1014</ele>
        <time>2021-04-28T12:18:41Z</time>
      </trkpt>
      <trkpt lat="45.011" lon="4.06928">
        <ele>1014</ele>
        <time>2021-04-28T12:18:42Z</time>
      </trkpt>
      <trkpt lat="45.01098" lon="4.06924">
        <ele>1014</ele>
        <time>2021-04-28T12:18:43Z</time>
      </trkpt>
      <trkpt lat="45.01096" lon="4.06919">
        <ele>1014</ele>
        <time>2021-04-28T12:18:44Z</time>
      </trkpt>
      <trkpt lat="45.01093" lon="4.06914">
        <ele>1014</ele>
        <time>2021-04-28T12:18:45Z</time>
      </trkpt>
      <trkpt lat="45.0109" lon="4.0691">
        <ele>1015</ele>
        <time>2021-04-28T12:18:46Z</time>
      </trkpt>
      <trkpt lat="45.01087" lon="4.06905">
        <ele>1015</ele>
        <time>2021-04-28T12:18:47Z</time>
      </trkpt>
      <trkpt lat="45.01084" lon="4.06902">
        <ele>1015</ele>
        <time>2021-04-28T12:18:48Z</time>
      </trkpt>
      <trkpt lat="45.0108" lon="4.06898">
        <ele>1015</ele>
        <time>2021-04-28T12:18:49Z</time>
      </trkpt>
      <trkpt lat="45.01077" lon="4.06895">
        <ele>1015</ele>
        <time>2021-04-28T12:18:50Z</time>
      </trkpt>
      <trkpt lat="45.0107" lon="4.06889">
        <ele>1015</ele>
        <time>2021-04-28T12:18:51Z</time>
      </trkpt>
      <trkpt lat="45.01067" lon="4.06886">
        <ele>1016</ele>
        <time>2021-04-28T12:18:53Z</time>
      </trkpt>
      <trkpt lat="45.01064" lon="4.06883">
        <ele>1016</ele>
        <time>2021-04-28T12:18:54Z</time>
      </trkpt>
      <trkpt lat="45.0106" lon="4.0688">
        <ele>1016</ele>
        <time>2021-04-28T12:18:55Z</time>
      </trkpt>
      <trkpt lat="45.01057" lon="4.06877">
        <ele>1016</ele>
        <time>2021-04-28T12:18:56Z</time>
      </trkpt>
      <trkpt lat="45.0105" lon="4.06871">
        <ele>1016</ele>
        <time>2021-04-28T12:18:58Z</time>
      </trkpt>
      <trkpt lat="45.01046" lon="4.06869">
        <ele>1016</ele>
        <time>2021-04-28T12:18:59Z</time>
      </trkpt>
      <trkpt lat="45.01042" lon="4.06866">
        <ele>1016</ele>
        <time>2021-04-28T12:19:00Z</time>
      </trkpt>
      <trkpt lat="45.01038" lon="4.06864">
        <ele>1016</ele>
        <time>2021-04-28T12:19:01Z</time>
      </trkpt>
      <trkpt lat="45.01034" lon="4.06861">
        <ele>1016</ele>
        <time>2021-04-28T12:19:02Z</time>
      </trkpt>
      <trkpt lat="45.0103" lon="4.06859">
        <ele>1016</ele>
        <time>2021-04-28T12:19:03Z</time>
      </trkpt>
      <trkpt lat="45.01026" lon="4.06856">
        <ele>1016</ele>
        <time>2021-04-28T12:19:04Z</time>
      </trkpt>
      <trkpt lat="45.01021" lon="4.06854">
        <ele>1016</ele>
        <time>2021-04-28T12:19:05Z</time>
      </trkpt>
      <trkpt lat="45.01017" lon="4.06851">
        <ele>1016</ele>
        <time>2021-04-28T12:19:06Z</time>
      </trkpt>
      <trkpt lat="45.01012" lon="4.06849">
        <ele>1017</ele>
        <time>2021-04-28T12:19:07Z</time>
      </trkpt>
      <trkpt lat="45.01008" lon="4.06847">
        <ele>1017</ele>
        <time>2021-04-28T12:19:08Z</time>
      </trkpt>
      <trkpt lat="45.01004" lon="4.06845">
        <ele>1017</ele>
        <time>2021-04-28T12:19:09Z</time>
      </trkpt>
      <trkpt lat="45.00999" lon="4.06842">
        <ele>1017</ele>
        <time>2021-04-28T12:19:10Z</time>
      </trkpt>
      <trkpt lat="45.00991" lon="4.06838">
        <ele>1017</ele>
        <time>2021-04-28T12:19:11Z</time>
      </trkpt>
      <trkpt lat="45.00987" lon="4.06835">
        <ele>1017</ele>
        <time>2021-04-28T12:19:12Z</time>
      </trkpt>
      <trkpt lat="45.00983" lon="4.06832">
        <ele>1017</ele>
        <time>2021-04-28T12:19:14Z</time>
      </trkpt>
      <trkpt lat="45.0098" lon="4.0683">
        <ele>1017</ele>
        <time>2021-04-28T12:19:15Z</time>
      </trkpt>
      <trkpt lat="45.00976" lon="4.06827">
        <ele>1017</ele>
        <time>2021-04-28T12:19:16Z</time>
      </trkpt>
      <trkpt lat="45.00972" lon="4.06825">
        <ele>1018</ele>
        <time>2021-04-28T12:19:17Z</time>
      </trkpt>
      <trkpt lat="45.00969" lon="4.06823">
        <ele>1018</ele>
        <time>2021-04-28T12:19:18Z</time>
      </trkpt>
      <trkpt lat="45.00966" lon="4.0682">
        <ele>1018</ele>
        <time>2021-04-28T12:19:19Z</time>
      </trkpt>
      <trkpt lat="45.00962" lon="4.06818">
        <ele>1018</ele>
        <time>2021-04-28T12:19:20Z</time>
      </trkpt>
      <trkpt lat="45.00959" lon="4.06816">
        <ele>1019</ele>
        <time>2021-04-28T12:19:21Z</time>
      </trkpt>
      <trkpt lat="45.00956" lon="4.06814">
        <ele>1019</ele>
        <time>2021-04-28T12:19:22Z</time>
      </trkpt>
      <trkpt lat="45.00952" lon="4.06813">
        <ele>1019</ele>
        <time>2021-04-28T12:19:23Z</time>
      </trkpt>
      <trkpt lat="45.00948" lon="4.06812">
        <ele>1020</ele>
        <time>2021-04-28T12:19:24Z</time>
      </trkpt>
      <trkpt lat="45.00944" lon="4.06811">
        <ele>1020</ele>
        <time>2021-04-28T12:19:25Z</time>
      </trkpt>
      <trkpt lat="45.00941" lon="4.0681">
        <ele>1021</ele>
        <time>2021-04-28T12:19:26Z</time>
      </trkpt>
      <trkpt lat="45.00938" lon="4.06809">
        <ele>1021</ele>
        <time>2021-04-28T12:19:27Z</time>
      </trkpt>
      <trkpt lat="45.00934" lon="4.06808">
        <ele>1022</ele>
        <time>2021-04-28T12:19:28Z</time>
      </trkpt>
      <trkpt lat="45.0093" lon="4.06807">
        <ele>1022</ele>
        <time>2021-04-28T12:19:29Z</time>
      </trkpt>
      <trkpt lat="45.00926" lon="4.06806">
        <ele>1022</ele>
        <time>2021-04-28T12:19:30Z</time>
      </trkpt>
      <trkpt lat="45.00922" lon="4.06805">
        <ele>1022</ele>
        <time>2021-04-28T12:19:31Z</time>
      </trkpt>
      <trkpt lat="45.00919" lon="4.06804">
        <ele>1022</ele>
        <time>2021-04-28T12:19:32Z</time>
      </trkpt>
      <trkpt lat="45.00915" lon="4.06803">
        <ele>1023</ele>
        <time>2021-04-28T12:19:33Z</time>
      </trkpt>
      <trkpt lat="45.00912" lon="4.06802">
        <ele>1023</ele>
        <time>2021-04-28T12:19:34Z</time>
      </trkpt>
      <trkpt lat="45.00905" lon="4.06799">
        <ele>1023</ele>
        <time>2021-04-28T12:19:35Z</time>
      </trkpt>
      <trkpt lat="45.00902" lon="4.06798">
        <ele>1024</ele>
        <time>2021-04-28T12:19:37Z</time>
      </trkpt>
      <trkpt lat="45.00899" lon="4.06796">
        <ele>1024</ele>
        <time>2021-04-28T12:19:38Z</time>
      </trkpt>
      <trkpt lat="45.00895" lon="4.06795">
        <ele>1024</ele>
        <time>2021-04-28T12:19:39Z</time>
      </trkpt>
      <trkpt lat="45.00891" lon="4.06793">
        <ele>1024</ele>
        <time>2021-04-28T12:19:40Z</time>
      </trkpt>
      <trkpt lat="45.00888" lon="4.06792">
        <ele>1024</ele>
        <time>2021-04-28T12:19:41Z</time>
      </trkpt>
      <trkpt lat="45.00884" lon="4.06791">
        <ele>1025</ele>
        <time>2021-04-28T12:19:42Z</time>
      </trkpt>
      <trkpt lat="45.00881" lon="4.0679">
        <ele>1025</ele>
        <time>2021-04-28T12:19:43Z</time>
      </trkpt>
      <trkpt lat="45.0087" lon="4.06784">
        <ele>1025</ele>
        <time>2021-04-28T12:19:46Z</time>
      </trkpt>
      <trkpt lat="45.00861" lon="4.0678">
        <ele>1025</ele>
        <time>2021-04-28T12:19:48Z</time>
      </trkpt>
      <trkpt lat="45.00856" lon="4.06778">
        <ele>1026</ele>
        <time>2021-04-28T12:19:49Z</time>
      </trkpt>
      <trkpt lat="45.00851" lon="4.06776">
        <ele>1026</ele>
        <time>2021-04-28T12:19:50Z</time>
      </trkpt>
      <trkpt lat="45.00848" lon="4.06774">
        <ele>1026</ele>
        <time>2021-04-28T12:19:51Z</time>
      </trkpt>
      <trkpt lat="45.0084" lon="4.06767">
        <ele>1027</ele>
        <time>2021-04-28T12:19:53Z</time>
      </trkpt>
      <trkpt lat="45.00832" lon="4.06758">
        <ele>1028</ele>
        <time>2021-04-28T12:19:56Z</time>
      </trkpt>
      <trkpt lat="45.0083" lon="4.06754">
        <ele>1028</ele>
        <time>2021-04-28T12:19:57Z</time>
      </trkpt>
      <trkpt lat="45.00827" lon="4.0675">
        <ele>1028</ele>
        <time>2021-04-28T12:19:58Z</time>
      </trkpt>
      <trkpt lat="45.00824" lon="4.06747">
        <ele>1029</ele>
        <time>2021-04-28T12:19:59Z</time>
      </trkpt>
      <trkpt lat="45.00821" lon="4.06743">
        <ele>1029</ele>
        <time>2021-04-28T12:20:00Z</time>
      </trkpt>
      <trkpt lat="45.00818" lon="4.0674">
        <ele>1030</ele>
        <time>2021-04-28T12:20:01Z</time>
      </trkpt>
      <trkpt lat="45.00815" lon="4.06736">
        <ele>1030</ele>
        <time>2021-04-28T12:20:02Z</time>
      </trkpt>
      <trkpt lat="45.00813" lon="4.06732">
        <ele>1031</ele>
        <time>2021-04-28T12:20:03Z</time>
      </trkpt>
      <trkpt lat="45.0081" lon="4.06727">
        <ele>1031</ele>
        <time>2021-04-28T12:20:04Z</time>
      </trkpt>
      <trkpt lat="45.00807" lon="4.06723">
        <ele>1032</ele>
        <time>2021-04-28T12:20:05Z</time>
      </trkpt>
      <trkpt lat="45.00804" lon="4.06719">
        <ele>1032</ele>
        <time>2021-04-28T12:20:06Z</time>
      </trkpt>
      <trkpt lat="45.00801" lon="4.06714">
        <ele>1032</ele>
        <time>2021-04-28T12:20:07Z</time>
      </trkpt>
      <trkpt lat="45.00798" lon="4.06711">
        <ele>1033</ele>
        <time>2021-04-28T12:20:08Z</time>
      </trkpt>
      <trkpt lat="45.00796" lon="4.06708">
        <ele>1034</ele>
        <time>2021-04-28T12:20:09Z</time>
      </trkpt>
      <trkpt lat="45.00794" lon="4.06705">
        <ele>1034</ele>
        <time>2021-04-28T12:20:10Z</time>
      </trkpt>
      <trkpt lat="45.00792" lon="4.06702">
        <ele>1034</ele>
        <time>2021-04-28T12:20:11Z</time>
      </trkpt>
      <trkpt lat="45.00789" lon="4.06699">
        <ele>1035</ele>
        <time>2021-04-28T12:20:12Z</time>
      </trkpt>
      <trkpt lat="45.00783" lon="4.06695">
        <ele>1035</ele>
        <time>2021-04-28T12:20:13Z</time>
      </trkpt>
      <trkpt lat="45.00779" lon="4.06693">
        <ele>1036</ele>
        <time>2021-04-28T12:20:15Z</time>
      </trkpt>
      <trkpt lat="45.00775" lon="4.06691">
        <ele>1037</ele>
        <time>2021-04-28T12:20:16Z</time>
      </trkpt>
      <trkpt lat="45.00771" lon="4.0669">
        <ele>1037</ele>
        <time>2021-04-28T12:20:17Z</time>
      </trkpt>
      <trkpt lat="45.00768" lon="4.06688">
        <ele>1038</ele>
        <time>2021-04-28T12:20:18Z</time>
      </trkpt>
      <trkpt lat="45.00765" lon="4.06686">
        <ele>1038</ele>
        <time>2021-04-28T12:20:19Z</time>
      </trkpt>
      <trkpt lat="45.00763" lon="4.06684">
        <ele>1039</ele>
        <time>2021-04-28T12:20:20Z</time>
      </trkpt>
      <trkpt lat="45.0076" lon="4.06684">
        <ele>1039</ele>
        <time>2021-04-28T12:20:21Z</time>
      </trkpt>
      <trkpt lat="45.00757" lon="4.06683">
        <ele>1039</ele>
        <time>2021-04-28T12:20:22Z</time>
      </trkpt>
      <trkpt lat="45.00752" lon="4.06682">
        <ele>1040</ele>
        <time>2021-04-28T12:20:23Z</time>
      </trkpt>
      <trkpt lat="45.00749" lon="4.06682">
        <ele>1040</ele>
        <time>2021-04-28T12:20:25Z</time>
      </trkpt>
      <trkpt lat="45.00747" lon="4.06681">
        <ele>1040</ele>
        <time>2021-04-28T12:20:26Z</time>
      </trkpt>
      <trkpt lat="45.00744" lon="4.0668">
        <ele>1041</ele>
        <time>2021-04-28T12:20:27Z</time>
      </trkpt>
      <trkpt lat="45.00742" lon="4.06679">
        <ele>1041</ele>
        <time>2021-04-28T12:20:28Z</time>
      </trkpt>
      <trkpt lat="45.0074" lon="4.06678">
        <ele>1041</ele>
        <time>2021-04-28T12:20:29Z</time>
      </trkpt>
      <trkpt lat="45.00738" lon="4.06679">
        <ele>1041</ele>
        <time>2021-04-28T12:20:30Z</time>
      </trkpt>
      <trkpt lat="45.00735" lon="4.0668">
        <ele>1041</ele>
        <time>2021-04-28T12:20:31Z</time>
      </trkpt>
      <trkpt lat="45.00732" lon="4.06683">
        <ele>1041</ele>
        <time>2021-04-28T12:20:32Z</time>
      </trkpt>
      <trkpt lat="45.00729" lon="4.06686">
        <ele>1042</ele>
        <time>2021-04-28T12:20:34Z</time>
      </trkpt>
      <trkpt lat="45.00726" lon="4.06689">
        <ele>1042</ele>
        <time>2021-04-28T12:20:35Z</time>
      </trkpt>
      <trkpt lat="45.00723" lon="4.06692">
        <ele>1042</ele>
        <time>2021-04-28T12:20:36Z</time>
      </trkpt>
      <trkpt lat="45.0072" lon="4.06694">
        <ele>1042</ele>
        <time>2021-04-28T12:20:37Z</time>
      </trkpt>
      <trkpt lat="45.00718" lon="4.06697">
        <ele>1042</ele>
        <time>2021-04-28T12:20:38Z</time>
      </trkpt>
      <trkpt lat="45.00716" lon="4.06699">
        <ele>1043</ele>
        <time>2021-04-28T12:20:39Z</time>
      </trkpt>
      <trkpt lat="45.00713" lon="4.06701">
        <ele>1043</ele>
        <time>2021-04-28T12:20:40Z</time>
      </trkpt>
      <trkpt lat="45.00709" lon="4.06703">
        <ele>1043</ele>
        <time>2021-04-28T12:20:41Z</time>
      </trkpt>
      <trkpt lat="45.00706" lon="4.06705">
        <ele>1043</ele>
        <time>2021-04-28T12:20:42Z</time>
      </trkpt>
      <trkpt lat="45.00703" lon="4.06706">
        <ele>1043</ele>
        <time>2021-04-28T12:20:43Z</time>
      </trkpt>
      <trkpt lat="45.007" lon="4.06708">
        <ele>1043</ele>
        <time>2021-04-28T12:20:44Z</time>
      </trkpt>
      <trkpt lat="45.00697" lon="4.06709">
        <ele>1043</ele>
        <time>2021-04-28T12:20:45Z</time>
      </trkpt>
      <trkpt lat="45.00693" lon="4.0671">
        <ele>1044</ele>
        <time>2021-04-28T12:20:46Z</time>
      </trkpt>
      <trkpt lat="45.00689" lon="4.06711">
        <ele>1044</ele>
        <time>2021-04-28T12:20:47Z</time>
      </trkpt>
      <trkpt lat="45.00686" lon="4.06712">
        <ele>1044</ele>
        <time>2021-04-28T12:20:48Z</time>
      </trkpt>
      <trkpt lat="45.00683" lon="4.06713">
        <ele>1044</ele>
        <time>2021-04-28T12:20:49Z</time>
      </trkpt>
      <trkpt lat="45.00679" lon="4.06714">
        <ele>1044</ele>
        <time>2021-04-28T12:20:50Z</time>
      </trkpt>
      <trkpt lat="45.00672" lon="4.06716">
        <ele>1044</ele>
        <time>2021-04-28T12:20:51Z</time>
      </trkpt>
      <trkpt lat="45.00669" lon="4.06717">
        <ele>1045</ele>
        <time>2021-04-28T12:20:53Z</time>
      </trkpt>
      <trkpt lat="45.00665" lon="4.06718">
        <ele>1045</ele>
        <time>2021-04-28T12:20:54Z</time>
      </trkpt>
      <trkpt lat="45.00662" lon="4.06721">
        <ele>1046</ele>
        <time>2021-04-28T12:20:55Z</time>
      </trkpt>
      <trkpt lat="45.00659" lon="4.06723">
        <ele>1046</ele>
        <time>2021-04-28T12:20:56Z</time>
      </trkpt>
      <trkpt lat="45.00655" lon="4.06725">
        <ele>1046</ele>
        <time>2021-04-28T12:20:57Z</time>
      </trkpt>
      <trkpt lat="45.00652" lon="4.06728">
        <ele>1046</ele>
        <time>2021-04-28T12:20:58Z</time>
      </trkpt>
      <trkpt lat="45.00649" lon="4.0673">
        <ele>1047</ele>
        <time>2021-04-28T12:20:59Z</time>
      </trkpt>
      <trkpt lat="45.00647" lon="4.06732">
        <ele>1047</ele>
        <time>2021-04-28T12:21:00Z</time>
      </trkpt>
      <trkpt lat="45.00645" lon="4.06734">
        <ele>1047</ele>
        <time>2021-04-28T12:21:01Z</time>
      </trkpt>
      <trkpt lat="45.00642" lon="4.06736">
        <ele>1048</ele>
        <time>2021-04-28T12:21:02Z</time>
      </trkpt>
      <trkpt lat="45.00639" lon="4.06737">
        <ele>1048</ele>
        <time>2021-04-28T12:21:03Z</time>
      </trkpt>
      <trkpt lat="45.00635" lon="4.06739">
        <ele>1048</ele>
        <time>2021-04-28T12:21:04Z</time>
      </trkpt>
      <trkpt lat="45.0063" lon="4.06741">
        <ele>1048</ele>
        <time>2021-04-28T12:21:05Z</time>
      </trkpt>
      <trkpt lat="45.00627" lon="4.06744">
        <ele>1048</ele>
        <time>2021-04-28T12:21:06Z</time>
      </trkpt>
      <trkpt lat="45.00623" lon="4.06747">
        <ele>1048</ele>
        <time>2021-04-28T12:21:07Z</time>
      </trkpt>
      <trkpt lat="45.00619" lon="4.06749">
        <ele>1048</ele>
        <time>2021-04-28T12:21:08Z</time>
      </trkpt>
      <trkpt lat="45.00616" lon="4.06752">
        <ele>1049</ele>
        <time>2021-04-28T12:21:09Z</time>
      </trkpt>
      <trkpt lat="45.00611" lon="4.06755">
        <ele>1049</ele>
        <time>2021-04-28T12:21:10Z</time>
      </trkpt>
      <trkpt lat="45.00609" lon="4.06757">
        <ele>1049</ele>
        <time>2021-04-28T12:21:12Z</time>
      </trkpt>
      <trkpt lat="45.00606" lon="4.06759">
        <ele>1050</ele>
        <time>2021-04-28T12:21:13Z</time>
      </trkpt>
      <trkpt lat="45.00604" lon="4.06761">
        <ele>1050</ele>
        <time>2021-04-28T12:21:14Z</time>
      </trkpt>
      <trkpt lat="45.00601" lon="4.06763">
        <ele>1050</ele>
        <time>2021-04-28T12:21:15Z</time>
      </trkpt>
      <trkpt lat="45.00598" lon="4.06765">
        <ele>1050</ele>
        <time>2021-04-28T12:21:16Z</time>
      </trkpt>
      <trkpt lat="45.00595" lon="4.06767">
        <ele>1050</ele>
        <time>2021-04-28T12:21:17Z</time>
      </trkpt>
      <trkpt lat="45.00593" lon="4.0677">
        <ele>1051</ele>
        <time>2021-04-28T12:21:18Z</time>
      </trkpt>
      <trkpt lat="45.00591" lon="4.06772">
        <ele>1051</ele>
        <time>2021-04-28T12:21:19Z</time>
      </trkpt>
      <trkpt lat="45.00588" lon="4.06774">
        <ele>1051</ele>
        <time>2021-04-28T12:21:20Z</time>
      </trkpt>
      <trkpt lat="45.00586" lon="4.06776">
        <ele>1051</ele>
        <time>2021-04-28T12:21:21Z</time>
      </trkpt>
      <trkpt lat="45.00583" lon="4.06779">
        <ele>1052</ele>
        <time>2021-04-28T12:21:22Z</time>
      </trkpt>
      <trkpt lat="45.00578" lon="4.06782">
        <ele>1052</ele>
        <time>2021-04-28T12:21:23Z</time>
      </trkpt>
      <trkpt lat="45.00574" lon="4.06787">
        <ele>1052</ele>
        <time>2021-04-28T12:21:24Z</time>
      </trkpt>
      <trkpt lat="45.0057" lon="4.06791">
        <ele>1052</ele>
        <time>2021-04-28T12:21:25Z</time>
      </trkpt>
      <trkpt lat="45.00567" lon="4.06795">
        <ele>1052</ele>
        <time>2021-04-28T12:21:26Z</time>
      </trkpt>
      <trkpt lat="45.00564" lon="4.06799">
        <ele>1052</ele>
        <time>2021-04-28T12:21:27Z</time>
      </trkpt>
      <trkpt lat="45.00561" lon="4.06803">
        <ele>1052</ele>
        <time>2021-04-28T12:21:28Z</time>
      </trkpt>
      <trkpt lat="45.00556" lon="4.0681">
        <ele>1052</ele>
        <time>2021-04-28T12:21:29Z</time>
      </trkpt>
      <trkpt lat="45.00554" lon="4.06813">
        <ele>1053</ele>
        <time>2021-04-28T12:21:31Z</time>
      </trkpt>
      <trkpt lat="45.00551" lon="4.06816">
        <ele>1053</ele>
        <time>2021-04-28T12:21:32Z</time>
      </trkpt>
      <trkpt lat="45.0055" lon="4.06818">
        <ele>1053</ele>
        <time>2021-04-28T12:21:33Z</time>
      </trkpt>
      <trkpt lat="45.00549" lon="4.06821">
        <ele>1053</ele>
        <time>2021-04-28T12:21:34Z</time>
      </trkpt>
      <trkpt lat="45.00546" lon="4.06824">
        <ele>1053</ele>
        <time>2021-04-28T12:21:35Z</time>
      </trkpt>
      <trkpt lat="45.00543" lon="4.06827">
        <ele>1053</ele>
        <time>2021-04-28T12:21:36Z</time>
      </trkpt>
      <trkpt lat="45.0054" lon="4.0683">
        <ele>1053</ele>
        <time>2021-04-28T12:21:37Z</time>
      </trkpt>
      <trkpt lat="45.00537" lon="4.06834">
        <ele>1053</ele>
        <time>2021-04-28T12:21:38Z</time>
      </trkpt>
      <trkpt lat="45.00533" lon="4.06838">
        <ele>1053</ele>
        <time>2021-04-28T12:21:39Z</time>
      </trkpt>
      <trkpt lat="45.00529" lon="4.06841">
        <ele>1053</ele>
        <time>2021-04-28T12:21:40Z</time>
      </trkpt>
      <trkpt lat="45.00526" lon="4.06844">
        <ele>1053</ele>
        <time>2021-04-28T12:21:41Z</time>
      </trkpt>
      <trkpt lat="45.00522" lon="4.06845">
        <ele>1053</ele>
        <time>2021-04-28T12:21:42Z</time>
      </trkpt>
      <trkpt lat="45.00518" lon="4.06847">
        <ele>1053</ele>
        <time>2021-04-28T12:21:43Z</time>
      </trkpt>
      <trkpt lat="45.00514" lon="4.06849">
        <ele>1053</ele>
        <time>2021-04-28T12:21:44Z</time>
      </trkpt>
      <trkpt lat="45.00511" lon="4.0685">
        <ele>1053</ele>
        <time>2021-04-28T12:21:45Z</time>
      </trkpt>
      <trkpt lat="45.00508" lon="4.06853">
        <ele>1053</ele>
        <time>2021-04-28T12:21:46Z</time>
      </trkpt>
      <trkpt lat="45.00505" lon="4.06854">
        <ele>1053</ele>
        <time>2021-04-28T12:21:47Z</time>
      </trkpt>
      <trkpt lat="45.00499" lon="4.06858">
        <ele>1053</ele>
        <time>2021-04-28T12:21:48Z</time>
      </trkpt>
      <trkpt lat="45.00495" lon="4.06863">
        <ele>1053</ele>
        <time>2021-04-28T12:21:51Z</time>
      </trkpt>
      <trkpt lat="45.00488" lon="4.06875">
        <ele>1053</ele>
        <time>2021-04-28T12:21:54Z</time>
      </trkpt>
      <trkpt lat="45.0048" lon="4.06887">
        <ele>1053</ele>
        <time>2021-04-28T12:21:57Z</time>
      </trkpt>
      <trkpt lat="45.00474" lon="4.06901">
        <ele>1054</ele>
        <time>2021-04-28T12:22:00Z</time>
      </trkpt>
      <trkpt lat="45.0047" lon="4.06912">
        <ele>1054</ele>
        <time>2021-04-28T12:22:02Z</time>
      </trkpt>
      <trkpt lat="45.00467" lon="4.06918">
        <ele>1054</ele>
        <time>2021-04-28T12:22:03Z</time>
      </trkpt>
      <trkpt lat="45.0046" lon="4.06928">
        <ele>1055</ele>
        <time>2021-04-28T12:22:05Z</time>
      </trkpt>
      <trkpt lat="45.00454" lon="4.06939">
        <ele>1055</ele>
        <time>2021-04-28T12:22:07Z</time>
      </trkpt>
      <trkpt lat="45.00445" lon="4.06952">
        <ele>1056</ele>
        <time>2021-04-28T12:22:10Z</time>
      </trkpt>
      <trkpt lat="45.00438" lon="4.0696">
        <ele>1056</ele>
        <time>2021-04-28T12:22:12Z</time>
      </trkpt>
      <trkpt lat="45.00434" lon="4.06964">
        <ele>1056</ele>
        <time>2021-04-28T12:22:13Z</time>
      </trkpt>
      <trkpt lat="45.00425" lon="4.06976">
        <ele>1057</ele>
        <time>2021-04-28T12:22:16Z</time>
      </trkpt>
      <trkpt lat="45.00422" lon="4.06979">
        <ele>1057</ele>
        <time>2021-04-28T12:22:17Z</time>
      </trkpt>
      <trkpt lat="45.00419" lon="4.06982">
        <ele>1058</ele>
        <time>2021-04-28T12:22:18Z</time>
      </trkpt>
      <trkpt lat="45.00417" lon="4.06986">
        <ele>1058</ele>
        <time>2021-04-28T12:22:19Z</time>
      </trkpt>
      <trkpt lat="45.00414" lon="4.06989">
        <ele>1058</ele>
        <time>2021-04-28T12:22:20Z</time>
      </trkpt>
      <trkpt lat="45.00411" lon="4.06993">
        <ele>1059</ele>
        <time>2021-04-28T12:22:21Z</time>
      </trkpt>
      <trkpt lat="45.00408" lon="4.06996">
        <ele>1059</ele>
        <time>2021-04-28T12:22:22Z</time>
      </trkpt>
      <trkpt lat="45.00406" lon="4.06999">
        <ele>1059</ele>
        <time>2021-04-28T12:22:23Z</time>
      </trkpt>
      <trkpt lat="45.00402" lon="4.07001">
        <ele>1060</ele>
        <time>2021-04-28T12:22:24Z</time>
      </trkpt>
      <trkpt lat="45.00398" lon="4.07003">
        <ele>1060</ele>
        <time>2021-04-28T12:22:25Z</time>
      </trkpt>
      <trkpt lat="45.00388" lon="4.07009">
        <ele>1060</ele>
        <time>2021-04-28T12:22:26Z</time>
      </trkpt>
      <trkpt lat="45.00384" lon="4.07012">
        <ele>1060</ele>
        <time>2021-04-28T12:22:28Z</time>
      </trkpt>
      <trkpt lat="45.00376" lon="4.07017">
        <ele>1061</ele>
        <time>2021-04-28T12:22:29Z</time>
      </trkpt>
      <trkpt lat="45.00365" lon="4.07024">
        <ele>1062</ele>
        <time>2021-04-28T12:22:33Z</time>
      </trkpt>
      <trkpt lat="45.00361" lon="4.07027">
        <ele>1062</ele>
        <time>2021-04-28T12:22:34Z</time>
      </trkpt>
      <trkpt lat="45.00357" lon="4.07029">
        <ele>1062</ele>
        <time>2021-04-28T12:22:35Z</time>
      </trkpt>
      <trkpt lat="45.00353" lon="4.07032">
        <ele>1063</ele>
        <time>2021-04-28T12:22:36Z</time>
      </trkpt>
      <trkpt lat="45.00349" lon="4.07034">
        <ele>1063</ele>
        <time>2021-04-28T12:22:37Z</time>
      </trkpt>
      <trkpt lat="45.00346" lon="4.07035">
        <ele>1063</ele>
        <time>2021-04-28T12:22:38Z</time>
      </trkpt>
      <trkpt lat="45.00342" lon="4.07036">
        <ele>1063</ele>
        <time>2021-04-28T12:22:39Z</time>
      </trkpt>
      <trkpt lat="45.00331" lon="4.07037">
        <ele>1064</ele>
        <time>2021-04-28T12:22:42Z</time>
      </trkpt>
      <trkpt lat="45.00327" lon="4.07037">
        <ele>1064</ele>
        <time>2021-04-28T12:22:43Z</time>
      </trkpt>
      <trkpt lat="45.00307" lon="4.07036">
        <ele>1064</ele>
        <time>2021-04-28T12:22:45Z</time>
      </trkpt>
      <trkpt lat="45.00302" lon="4.07038">
        <ele>1064</ele>
        <time>2021-04-28T12:22:47Z</time>
      </trkpt>
      <trkpt lat="45.00297" lon="4.07041">
        <ele>1064</ele>
        <time>2021-04-28T12:22:48Z</time>
      </trkpt>
      <trkpt lat="45.00292" lon="4.07045">
        <ele>1064</ele>
        <time>2021-04-28T12:22:49Z</time>
      </trkpt>
      <trkpt lat="45.00287" lon="4.07048">
        <ele>1065</ele>
        <time>2021-04-28T12:22:50Z</time>
      </trkpt>
      <trkpt lat="45.00283" lon="4.07051">
        <ele>1065</ele>
        <time>2021-04-28T12:22:51Z</time>
      </trkpt>
      <trkpt lat="45.00279" lon="4.07054">
        <ele>1065</ele>
        <time>2021-04-28T12:22:52Z</time>
      </trkpt>
      <trkpt lat="45.00275" lon="4.07058">
        <ele>1065</ele>
        <time>2021-04-28T12:22:53Z</time>
      </trkpt>
      <trkpt lat="45.00271" lon="4.0706">
        <ele>1065</ele>
        <time>2021-04-28T12:22:54Z</time>
      </trkpt>
      <trkpt lat="45.00267" lon="4.07065">
        <ele>1065</ele>
        <time>2021-04-28T12:22:55Z</time>
      </trkpt>
      <trkpt lat="45.00263" lon="4.0707">
        <ele>1066</ele>
        <time>2021-04-28T12:22:56Z</time>
      </trkpt>
      <trkpt lat="45.00259" lon="4.07074">
        <ele>1066</ele>
        <time>2021-04-28T12:22:57Z</time>
      </trkpt>
      <trkpt lat="45.00255" lon="4.07078">
        <ele>1066</ele>
        <time>2021-04-28T12:22:58Z</time>
      </trkpt>
      <trkpt lat="45.00251" lon="4.07082">
        <ele>1066</ele>
        <time>2021-04-28T12:22:59Z</time>
      </trkpt>
      <trkpt lat="45.00246" lon="4.07086">
        <ele>1067</ele>
        <time>2021-04-28T12:23:00Z</time>
      </trkpt>
      <trkpt lat="45.00243" lon="4.07091">
        <ele>1067</ele>
        <time>2021-04-28T12:23:01Z</time>
      </trkpt>
      <trkpt lat="45.00239" lon="4.07096">
        <ele>1067</ele>
        <time>2021-04-28T12:23:02Z</time>
      </trkpt>
      <trkpt lat="45.00235" lon="4.07101">
        <ele>1067</ele>
        <time>2021-04-28T12:23:03Z</time>
      </trkpt>
      <trkpt lat="45.00229" lon="4.07112">
        <ele>1067</ele>
        <time>2021-04-28T12:23:04Z</time>
      </trkpt>
      <trkpt lat="45.00225" lon="4.07117">
        <ele>1068</ele>
        <time>2021-04-28T12:23:06Z</time>
      </trkpt>
      <trkpt lat="45.00222" lon="4.07122">
        <ele>1068</ele>
        <time>2021-04-28T12:23:07Z</time>
      </trkpt>
      <trkpt lat="45.00219" lon="4.07126">
        <ele>1068</ele>
        <time>2021-04-28T12:23:08Z</time>
      </trkpt>
      <trkpt lat="45.00217" lon="4.07131">
        <ele>1068</ele>
        <time>2021-04-28T12:23:09Z</time>
      </trkpt>
      <trkpt lat="45.00214" lon="4.07135">
        <ele>1069</ele>
        <time>2021-04-28T12:23:10Z</time>
      </trkpt>
      <trkpt lat="45.0021" lon="4.0714">
        <ele>1069</ele>
        <time>2021-04-28T12:23:11Z</time>
      </trkpt>
      <trkpt lat="45.00206" lon="4.07144">
        <ele>1069</ele>
        <time>2021-04-28T12:23:12Z</time>
      </trkpt>
      <trkpt lat="45.00203" lon="4.07149">
        <ele>1069</ele>
        <time>2021-04-28T12:23:13Z</time>
      </trkpt>
      <trkpt lat="45.002" lon="4.07154">
        <ele>1069</ele>
        <time>2021-04-28T12:23:14Z</time>
      </trkpt>
      <trkpt lat="45.00198" lon="4.07158">
        <ele>1069</ele>
        <time>2021-04-28T12:23:15Z</time>
      </trkpt>
      <trkpt lat="45.00196" lon="4.07162">
        <ele>1069</ele>
        <time>2021-04-28T12:23:16Z</time>
      </trkpt>
      <trkpt lat="45.00194" lon="4.07166">
        <ele>1069</ele>
        <time>2021-04-28T12:23:17Z</time>
      </trkpt>
      <trkpt lat="45.00191" lon="4.0717">
        <ele>1069</ele>
        <time>2021-04-28T12:23:18Z</time>
      </trkpt>
      <trkpt lat="45.00187" lon="4.07175">
        <ele>1070</ele>
        <time>2021-04-28T12:23:19Z</time>
      </trkpt>
      <trkpt lat="45.00184" lon="4.07179">
        <ele>1070</ele>
        <time>2021-04-28T12:23:20Z</time>
      </trkpt>
      <trkpt lat="45.00181" lon="4.07184">
        <ele>1070</ele>
        <time>2021-04-28T12:23:21Z</time>
      </trkpt>
      <trkpt lat="45.00178" lon="4.07189">
        <ele>1070</ele>
        <time>2021-04-28T12:23:22Z</time>
      </trkpt>
      <trkpt lat="45.00171" lon="4.07197">
        <ele>1071</ele>
        <time>2021-04-28T12:23:23Z</time>
      </trkpt>
      <trkpt lat="45.00167" lon="4.07201">
        <ele>1071</ele>
        <time>2021-04-28T12:23:25Z</time>
      </trkpt>
      <trkpt lat="45.00163" lon="4.07206">
        <ele>1071</ele>
        <time>2021-04-28T12:23:26Z</time>
      </trkpt>
      <trkpt lat="45.0016" lon="4.07211">
        <ele>1071</ele>
        <time>2021-04-28T12:23:27Z</time>
      </trkpt>
      <trkpt lat="45.00153" lon="4.07226">
        <ele>1072</ele>
        <time>2021-04-28T12:23:30Z</time>
      </trkpt>
      <trkpt lat="45.0015" lon="4.07232">
        <ele>1072</ele>
        <time>2021-04-28T12:23:31Z</time>
      </trkpt>
      <trkpt lat="45.00148" lon="4.07238">
        <ele>1072</ele>
        <time>2021-04-28T12:23:32Z</time>
      </trkpt>
      <trkpt lat="45.00148" lon="4.07253">
        <ele>1072</ele>
        <time>2021-04-28T12:23:35Z</time>
      </trkpt>
      <trkpt lat="45.00149" lon="4.0727">
        <ele>1073</ele>
        <time>2021-04-28T12:23:38Z</time>
      </trkpt>
      <trkpt lat="45.00152" lon="4.07287">
        <ele>1074</ele>
        <time>2021-04-28T12:23:41Z</time>
      </trkpt>
      <trkpt lat="45.00153" lon="4.07305">
        <ele>1074</ele>
        <time>2021-04-28T12:23:44Z</time>
      </trkpt>
      <trkpt lat="45.00157" lon="4.07317">
        <ele>1074</ele>
        <time>2021-04-28T12:23:46Z</time>
      </trkpt>
      <trkpt lat="45.00157" lon="4.07332">
        <ele>1075</ele>
        <time>2021-04-28T12:23:49Z</time>
      </trkpt>
      <trkpt lat="45.00162" lon="4.07347">
        <ele>1075</ele>
        <time>2021-04-28T12:23:52Z</time>
      </trkpt>
      <trkpt lat="45.00164" lon="4.07352">
        <ele>1076</ele>
        <time>2021-04-28T12:23:53Z</time>
      </trkpt>
      <trkpt lat="45.00169" lon="4.07361">
        <ele>1076</ele>
        <time>2021-04-28T12:23:55Z</time>
      </trkpt>
      <trkpt lat="45.0017" lon="4.07366">
        <ele>1076</ele>
        <time>2021-04-28T12:23:56Z</time>
      </trkpt>
      <trkpt lat="45.00173" lon="4.07369">
        <ele>1076</ele>
        <time>2021-04-28T12:23:57Z</time>
      </trkpt>
      <trkpt lat="45.00176" lon="4.07373">
        <ele>1076</ele>
        <time>2021-04-28T12:23:58Z</time>
      </trkpt>
      <trkpt lat="45.00179" lon="4.07377">
        <ele>1076</ele>
        <time>2021-04-28T12:23:59Z</time>
      </trkpt>
      <trkpt lat="45.00183" lon="4.07381">
        <ele>1076</ele>
        <time>2021-04-28T12:24:00Z</time>
      </trkpt>
      <trkpt lat="45.00189" lon="4.07387">
        <ele>1076</ele>
        <time>2021-04-28T12:24:01Z</time>
      </trkpt>
      <trkpt lat="45.00193" lon="4.0739">
        <ele>1077</ele>
        <time>2021-04-28T12:24:03Z</time>
      </trkpt>
      <trkpt lat="45.00202" lon="4.07401">
        <ele>1077</ele>
        <time>2021-04-28T12:24:06Z</time>
      </trkpt>
      <trkpt lat="45.00211" lon="4.07413">
        <ele>1077</ele>
        <time>2021-04-28T12:24:09Z</time>
      </trkpt>
      <trkpt lat="45.00215" lon="4.07418">
        <ele>1078</ele>
        <time>2021-04-28T12:24:10Z</time>
      </trkpt>
      <trkpt lat="45.00217" lon="4.07423">
        <ele>1078</ele>
        <time>2021-04-28T12:24:11Z</time>
      </trkpt>
      <trkpt lat="45.00219" lon="4.07428">
        <ele>1078</ele>
        <time>2021-04-28T12:24:12Z</time>
      </trkpt>
      <trkpt lat="45.00225" lon="4.07443">
        <ele>1078</ele>
        <time>2021-04-28T12:24:15Z</time>
      </trkpt>
      <trkpt lat="45.0023" lon="4.07458">
        <ele>1079</ele>
        <time>2021-04-28T12:24:18Z</time>
      </trkpt>
      <trkpt lat="45.00232" lon="4.07475">
        <ele>1079</ele>
        <time>2021-04-28T12:24:20Z</time>
      </trkpt>
      <trkpt lat="45.00236" lon="4.07488">
        <ele>1079</ele>
        <time>2021-04-28T12:24:23Z</time>
      </trkpt>
      <trkpt lat="45.00238" lon="4.07495">
        <ele>1080</ele>
        <time>2021-04-28T12:24:24Z</time>
      </trkpt>
      <trkpt lat="45.00241" lon="4.07501">
        <ele>1080</ele>
        <time>2021-04-28T12:24:25Z</time>
      </trkpt>
      <trkpt lat="45.00245" lon="4.07507">
        <ele>1080</ele>
        <time>2021-04-28T12:24:26Z</time>
      </trkpt>
      <trkpt lat="45.00251" lon="4.07519">
        <ele>1080</ele>
        <time>2021-04-28T12:24:28Z</time>
      </trkpt>
      <trkpt lat="45.00256" lon="4.07531">
        <ele>1080</ele>
        <time>2021-04-28T12:24:30Z</time>
      </trkpt>
      <trkpt lat="45.00261" lon="4.07542">
        <ele>1081</ele>
        <time>2021-04-28T12:24:32Z</time>
      </trkpt>
      <trkpt lat="45.00266" lon="4.07553">
        <ele>1081</ele>
        <time>2021-04-28T12:24:34Z</time>
      </trkpt>
      <trkpt lat="45.00271" lon="4.07565">
        <ele>1081</ele>
        <time>2021-04-28T12:24:36Z</time>
      </trkpt>
      <trkpt lat="45.00276" lon="4.0758">
        <ele>1082</ele>
        <time>2021-04-28T12:24:39Z</time>
      </trkpt>
      <trkpt lat="45.00283" lon="4.07592">
        <ele>1083</ele>
        <time>2021-04-28T12:24:41Z</time>
      </trkpt>
      <trkpt lat="45.00289" lon="4.07603">
        <ele>1083</ele>
        <time>2021-04-28T12:24:43Z</time>
      </trkpt>
      <trkpt lat="45.00292" lon="4.07608">
        <ele>1083</ele>
        <time>2021-04-28T12:24:44Z</time>
      </trkpt>
      <trkpt lat="45.00295" lon="4.0762">
        <ele>1084</ele>
        <time>2021-04-28T12:24:46Z</time>
      </trkpt>
      <trkpt lat="45.00297" lon="4.07626">
        <ele>1084</ele>
        <time>2021-04-28T12:24:47Z</time>
      </trkpt>
      <trkpt lat="45.00298" lon="4.07631">
        <ele>1085</ele>
        <time>2021-04-28T12:24:48Z</time>
      </trkpt>
      <trkpt lat="45.00298" lon="4.07636">
        <ele>1085</ele>
        <time>2021-04-28T12:24:49Z</time>
      </trkpt>
      <trkpt lat="45.003" lon="4.07642">
        <ele>1085</ele>
        <time>2021-04-28T12:24:50Z</time>
      </trkpt>
      <trkpt lat="45.00304" lon="4.07656">
        <ele>1086</ele>
        <time>2021-04-28T12:24:52Z</time>
      </trkpt>
      <trkpt lat="45.00305" lon="4.07663">
        <ele>1086</ele>
        <time>2021-04-28T12:24:53Z</time>
      </trkpt>
      <trkpt lat="45.00304" lon="4.07671">
        <ele>1086</ele>
        <time>2021-04-28T12:24:54Z</time>
      </trkpt>
      <trkpt lat="45.00304" lon="4.07679">
        <ele>1086</ele>
        <time>2021-04-28T12:24:55Z</time>
      </trkpt>
      <trkpt lat="45.00305" lon="4.07687">
        <ele>1086</ele>
        <time>2021-04-28T12:24:56Z</time>
      </trkpt>
      <trkpt lat="45.00304" lon="4.07695">
        <ele>1087</ele>
        <time>2021-04-28T12:24:57Z</time>
      </trkpt>
      <trkpt lat="45.00305" lon="4.07709">
        <ele>1087</ele>
        <time>2021-04-28T12:24:58Z</time>
      </trkpt>
      <trkpt lat="45.00307" lon="4.07724">
        <ele>1087</ele>
        <time>2021-04-28T12:25:01Z</time>
      </trkpt>
      <trkpt lat="45.00306" lon="4.07738">
        <ele>1087</ele>
        <time>2021-04-28T12:25:03Z</time>
      </trkpt>
      <trkpt lat="45.00304" lon="4.07754">
        <ele>1088</ele>
        <time>2021-04-28T12:25:06Z</time>
      </trkpt>
      <trkpt lat="45.00304" lon="4.07771">
        <ele>1088</ele>
        <time>2021-04-28T12:25:09Z</time>
      </trkpt>
      <trkpt lat="45.00304" lon="4.07777">
        <ele>1089</ele>
        <time>2021-04-28T12:25:10Z</time>
      </trkpt>
      <trkpt lat="45.00305" lon="4.07784">
        <ele>1089</ele>
        <time>2021-04-28T12:25:11Z</time>
      </trkpt>
      <trkpt lat="45.00306" lon="4.07789">
        <ele>1089</ele>
        <time>2021-04-28T12:25:12Z</time>
      </trkpt>
      <trkpt lat="45.00307" lon="4.07794">
        <ele>1090</ele>
        <time>2021-04-28T12:25:13Z</time>
      </trkpt>
      <trkpt lat="45.00307" lon="4.07797">
        <ele>1090</ele>
        <time>2021-04-28T12:25:14Z</time>
      </trkpt>
      <trkpt lat="45.00307" lon="4.07802">
        <ele>1090</ele>
        <time>2021-04-28T12:25:15Z</time>
      </trkpt>
      <trkpt lat="45.00307" lon="4.07806">
        <ele>1090</ele>
        <time>2021-04-28T12:25:16Z</time>
      </trkpt>
      <trkpt lat="45.00305" lon="4.07819">
        <ele>1091</ele>
        <time>2021-04-28T12:25:19Z</time>
      </trkpt>
      <trkpt lat="45.00305" lon="4.07833">
        <ele>1091</ele>
        <time>2021-04-28T12:25:22Z</time>
      </trkpt>
      <trkpt lat="45.00307" lon="4.07837">
        <ele>1092</ele>
        <time>2021-04-28T12:25:23Z</time>
      </trkpt>
      <trkpt lat="45.00308" lon="4.07842">
        <ele>1093</ele>
        <time>2021-04-28T12:25:24Z</time>
      </trkpt>
      <trkpt lat="45.00311" lon="4.07845">
        <ele>1093</ele>
        <time>2021-04-28T12:25:25Z</time>
      </trkpt>
      <trkpt lat="45.00313" lon="4.07846">
        <ele>1093</ele>
        <time>2021-04-28T12:25:26Z</time>
      </trkpt>
      <trkpt lat="45.00315" lon="4.07847">
        <ele>1094</ele>
        <time>2021-04-28T12:25:27Z</time>
      </trkpt>
      <trkpt lat="45.00317" lon="4.07847">
        <ele>1094</ele>
        <time>2021-04-28T12:25:28Z</time>
      </trkpt>
      <trkpt lat="45.00319" lon="4.07846">
        <ele>1094</ele>
        <time>2021-04-28T12:25:31Z</time>
      </trkpt>
      <trkpt lat="45.0032" lon="4.07843">
        <ele>1095</ele>
        <time>2021-04-28T12:25:33Z</time>
      </trkpt>
      <trkpt lat="45.00322" lon="4.07841">
        <ele>1095</ele>
        <time>2021-04-28T12:25:34Z</time>
      </trkpt>
      <trkpt lat="45.00324" lon="4.07838">
        <ele>1096</ele>
        <time>2021-04-28T12:25:35Z</time>
      </trkpt>
      <trkpt lat="45.00329" lon="4.07833">
        <ele>1096</ele>
        <time>2021-04-28T12:25:36Z</time>
      </trkpt>
      <trkpt lat="45.00331" lon="4.0783">
        <ele>1096</ele>
        <time>2021-04-28T12:25:38Z</time>
      </trkpt>
      <trkpt lat="45.00333" lon="4.07828">
        <ele>1097</ele>
        <time>2021-04-28T12:25:39Z</time>
      </trkpt>
      <trkpt lat="45.00335" lon="4.07826">
        <ele>1097</ele>
        <time>2021-04-28T12:25:40Z</time>
      </trkpt>
      <trkpt lat="45.00338" lon="4.07822">
        <ele>1097</ele>
        <time>2021-04-28T12:25:42Z</time>
      </trkpt>
      <trkpt lat="45.0034" lon="4.07819">
        <ele>1097</ele>
        <time>2021-04-28T12:25:43Z</time>
      </trkpt>
      <trkpt lat="45.00342" lon="4.07817">
        <ele>1097</ele>
        <time>2021-04-28T12:25:44Z</time>
      </trkpt>
      <trkpt lat="45.00344" lon="4.07815">
        <ele>1098</ele>
        <time>2021-04-28T12:25:45Z</time>
      </trkpt>
      <trkpt lat="45.00347" lon="4.07812">
        <ele>1098</ele>
        <time>2021-04-28T12:25:46Z</time>
      </trkpt>
      <trkpt lat="45.00351" lon="4.07808">
        <ele>1099</ele>
        <time>2021-04-28T12:25:49Z</time>
      </trkpt>
      <trkpt lat="45.00356" lon="4.07799">
        <ele>1099</ele>
        <time>2021-04-28T12:25:51Z</time>
      </trkpt>
      <trkpt lat="45.00358" lon="4.07795">
        <ele>1100</ele>
        <time>2021-04-28T12:25:52Z</time>
      </trkpt>
      <trkpt lat="45.00365" lon="4.07792">
        <ele>1100</ele>
        <time>2021-04-28T12:25:54Z</time>
      </trkpt>
      <trkpt lat="45.00372" lon="4.07795">
        <ele>1100</ele>
        <time>2021-04-28T12:25:55Z</time>
      </trkpt>
      <trkpt lat="45.00374" lon="4.07799">
        <ele>1100</ele>
        <time>2021-04-28T12:25:57Z</time>
      </trkpt>
      <trkpt lat="45.00377" lon="4.07805">
        <ele>1100</ele>
        <time>2021-04-28T12:25:58Z</time>
      </trkpt>
      <trkpt lat="45.00379" lon="4.07811">
        <ele>1100</ele>
        <time>2021-04-28T12:25:59Z</time>
      </trkpt>
      <trkpt lat="45.00382" lon="4.07817">
        <ele>1100</ele>
        <time>2021-04-28T12:26:00Z</time>
      </trkpt>
      <trkpt lat="45.00385" lon="4.07824">
        <ele>1100</ele>
        <time>2021-04-28T12:26:01Z</time>
      </trkpt>
      <trkpt lat="45.00388" lon="4.07831">
        <ele>1100</ele>
        <time>2021-04-28T12:26:02Z</time>
      </trkpt>
      <trkpt lat="45.0039" lon="4.07838">
        <ele>1099</ele>
        <time>2021-04-28T12:26:03Z</time>
      </trkpt>
      <trkpt lat="45.00393" lon="4.07847">
        <ele>1099</ele>
        <time>2021-04-28T12:26:04Z</time>
      </trkpt>
      <trkpt lat="45.00396" lon="4.07855">
        <ele>1099</ele>
        <time>2021-04-28T12:26:05Z</time>
      </trkpt>
      <trkpt lat="45.004" lon="4.07864">
        <ele>1098</ele>
        <time>2021-04-28T12:26:06Z</time>
      </trkpt>
      <trkpt lat="45.00404" lon="4.07873">
        <ele>1098</ele>
        <time>2021-04-28T12:26:07Z</time>
      </trkpt>
      <trkpt lat="45.00408" lon="4.07881">
        <ele>1098</ele>
        <time>2021-04-28T12:26:08Z</time>
      </trkpt>
      <trkpt lat="45.00413" lon="4.0789">
        <ele>1097</ele>
        <time>2021-04-28T12:26:09Z</time>
      </trkpt>
      <trkpt lat="45.00418" lon="4.07899">
        <ele>1096</ele>
        <time>2021-04-28T12:26:10Z</time>
      </trkpt>
      <trkpt lat="45.00423" lon="4.07909">
        <ele>1096</ele>
        <time>2021-04-28T12:26:11Z</time>
      </trkpt>
      <trkpt lat="45.00428" lon="4.07919">
        <ele>1095</ele>
        <time>2021-04-28T12:26:12Z</time>
      </trkpt>
      <trkpt lat="45.00433" lon="4.0793">
        <ele>1094</ele>
        <time>2021-04-28T12:26:13Z</time>
      </trkpt>
      <trkpt lat="45.00444" lon="4.07952">
        <ele>1093</ele>
        <time>2021-04-28T12:26:14Z</time>
      </trkpt>
      <trkpt lat="45.0045" lon="4.07963">
        <ele>1092</ele>
        <time>2021-04-28T12:26:16Z</time>
      </trkpt>
      <trkpt lat="45.00454" lon="4.07974">
        <ele>1092</ele>
        <time>2021-04-28T12:26:17Z</time>
      </trkpt>
      <trkpt lat="45.00459" lon="4.07984">
        <ele>1092</ele>
        <time>2021-04-28T12:26:18Z</time>
      </trkpt>
      <trkpt lat="45.00463" lon="4.07993">
        <ele>1091</ele>
        <time>2021-04-28T12:26:19Z</time>
      </trkpt>
      <trkpt lat="45.00467" lon="4.08002">
        <ele>1091</ele>
        <time>2021-04-28T12:26:20Z</time>
      </trkpt>
      <trkpt lat="45.0047" lon="4.0801">
        <ele>1091</ele>
        <time>2021-04-28T12:26:21Z</time>
      </trkpt>
      <trkpt lat="45.00474" lon="4.08018">
        <ele>1091</ele>
        <time>2021-04-28T12:26:22Z</time>
      </trkpt>
      <trkpt lat="45.00477" lon="4.08025">
        <ele>1090</ele>
        <time>2021-04-28T12:26:23Z</time>
      </trkpt>
      <trkpt lat="45.0048" lon="4.08032">
        <ele>1090</ele>
        <time>2021-04-28T12:26:24Z</time>
      </trkpt>
      <trkpt lat="45.00482" lon="4.08038">
        <ele>1090</ele>
        <time>2021-04-28T12:26:25Z</time>
      </trkpt>
      <trkpt lat="45.00485" lon="4.08042">
        <ele>1090</ele>
        <time>2021-04-28T12:26:26Z</time>
      </trkpt>
      <trkpt lat="45.00486" lon="4.08046">
        <ele>1090</ele>
        <time>2021-04-28T12:26:27Z</time>
      </trkpt>
      <trkpt lat="45.00488" lon="4.0805">
        <ele>1090</ele>
        <time>2021-04-28T12:26:28Z</time>
      </trkpt>
      <trkpt lat="45.0049" lon="4.08055">
        <ele>1090</ele>
        <time>2021-04-28T12:26:29Z</time>
      </trkpt>
      <trkpt lat="45.00492" lon="4.08061">
        <ele>1090</ele>
        <time>2021-04-28T12:26:30Z</time>
      </trkpt>
      <trkpt lat="45.00494" lon="4.08067">
        <ele>1089</ele>
        <time>2021-04-28T12:26:31Z</time>
      </trkpt>
      <trkpt lat="45.00497" lon="4.08074">
        <ele>1089</ele>
        <time>2021-04-28T12:26:32Z</time>
      </trkpt>
      <trkpt lat="45.00501" lon="4.08081">
        <ele>1089</ele>
        <time>2021-04-28T12:26:33Z</time>
      </trkpt>
      <trkpt lat="45.00505" lon="4.08087">
        <ele>1089</ele>
        <time>2021-04-28T12:26:34Z</time>
      </trkpt>
      <trkpt lat="45.00509" lon="4.08094">
        <ele>1089</ele>
        <time>2021-04-28T12:26:35Z</time>
      </trkpt>
      <trkpt lat="45.00513" lon="4.081">
        <ele>1088</ele>
        <time>2021-04-28T12:26:36Z</time>
      </trkpt>
      <trkpt lat="45.00518" lon="4.08105">
        <ele>1088</ele>
        <time>2021-04-28T12:26:37Z</time>
      </trkpt>
      <trkpt lat="45.00522" lon="4.0811">
        <ele>1088</ele>
        <time>2021-04-28T12:26:38Z</time>
      </trkpt>
      <trkpt lat="45.00527" lon="4.08116">
        <ele>1088</ele>
        <time>2021-04-28T12:26:39Z</time>
      </trkpt>
      <trkpt lat="45.00532" lon="4.08123">
        <ele>1087</ele>
        <time>2021-04-28T12:26:40Z</time>
      </trkpt>
      <trkpt lat="45.00536" lon="4.08129">
        <ele>1087</ele>
        <time>2021-04-28T12:26:41Z</time>
      </trkpt>
      <trkpt lat="45.00541" lon="4.08136">
        <ele>1087</ele>
        <time>2021-04-28T12:26:42Z</time>
      </trkpt>
      <trkpt lat="45.00545" lon="4.08142">
        <ele>1087</ele>
        <time>2021-04-28T12:26:43Z</time>
      </trkpt>
      <trkpt lat="45.0055" lon="4.08147">
        <ele>1086</ele>
        <time>2021-04-28T12:26:44Z</time>
      </trkpt>
      <trkpt lat="45.00555" lon="4.08153">
        <ele>1086</ele>
        <time>2021-04-28T12:26:45Z</time>
      </trkpt>
      <trkpt lat="45.0056" lon="4.08158">
        <ele>1086</ele>
        <time>2021-04-28T12:26:46Z</time>
      </trkpt>
      <trkpt lat="45.00565" lon="4.08164">
        <ele>1086</ele>
        <time>2021-04-28T12:26:47Z</time>
      </trkpt>
      <trkpt lat="45.0057" lon="4.08169">
        <ele>1085</ele>
        <time>2021-04-28T12:26:48Z</time>
      </trkpt>
      <trkpt lat="45.00575" lon="4.08174">
        <ele>1085</ele>
        <time>2021-04-28T12:26:49Z</time>
      </trkpt>
      <trkpt lat="45.0058" lon="4.08179">
        <ele>1085</ele>
        <time>2021-04-28T12:26:50Z</time>
      </trkpt>
      <trkpt lat="45.00584" lon="4.08183">
        <ele>1085</ele>
        <time>2021-04-28T12:26:51Z</time>
      </trkpt>
      <trkpt lat="45.00592" lon="4.08192">
        <ele>1084</ele>
        <time>2021-04-28T12:26:52Z</time>
      </trkpt>
      <trkpt lat="45.00596" lon="4.08196">
        <ele>1084</ele>
        <time>2021-04-28T12:26:54Z</time>
      </trkpt>
      <trkpt lat="45.006" lon="4.082">
        <ele>1084</ele>
        <time>2021-04-28T12:26:55Z</time>
      </trkpt>
      <trkpt lat="45.00605" lon="4.08205">
        <ele>1084</ele>
        <time>2021-04-28T12:26:56Z</time>
      </trkpt>
      <trkpt lat="45.00609" lon="4.08208">
        <ele>1084</ele>
        <time>2021-04-28T12:26:57Z</time>
      </trkpt>
      <trkpt lat="45.00613" lon="4.08212">
        <ele>1084</ele>
        <time>2021-04-28T12:26:58Z</time>
      </trkpt>
      <trkpt lat="45.00617" lon="4.08216">
        <ele>1084</ele>
        <time>2021-04-28T12:26:59Z</time>
      </trkpt>
      <trkpt lat="45.00621" lon="4.0822">
        <ele>1084</ele>
        <time>2021-04-28T12:27:00Z</time>
      </trkpt>
      <trkpt lat="45.00625" lon="4.08223">
        <ele>1083</ele>
        <time>2021-04-28T12:27:01Z</time>
      </trkpt>
      <trkpt lat="45.00629" lon="4.08228">
        <ele>1083</ele>
        <time>2021-04-28T12:27:02Z</time>
      </trkpt>
      <trkpt lat="45.00633" lon="4.08232">
        <ele>1083</ele>
        <time>2021-04-28T12:27:03Z</time>
      </trkpt>
      <trkpt lat="45.00637" lon="4.08236">
        <ele>1083</ele>
        <time>2021-04-28T12:27:04Z</time>
      </trkpt>
      <trkpt lat="45.00642" lon="4.08241">
        <ele>1082</ele>
        <time>2021-04-28T12:27:05Z</time>
      </trkpt>
      <trkpt lat="45.00646" lon="4.08245">
        <ele>1082</ele>
        <time>2021-04-28T12:27:06Z</time>
      </trkpt>
      <trkpt lat="45.00651" lon="4.0825">
        <ele>1082</ele>
        <time>2021-04-28T12:27:07Z</time>
      </trkpt>
      <trkpt lat="45.00655" lon="4.08254">
        <ele>1082</ele>
        <time>2021-04-28T12:27:08Z</time>
      </trkpt>
      <trkpt lat="45.0066" lon="4.08258">
        <ele>1082</ele>
        <time>2021-04-28T12:27:09Z</time>
      </trkpt>
      <trkpt lat="45.00665" lon="4.08263">
        <ele>1082</ele>
        <time>2021-04-28T12:27:10Z</time>
      </trkpt>
      <trkpt lat="45.00674" lon="4.08272">
        <ele>1081</ele>
        <time>2021-04-28T12:27:11Z</time>
      </trkpt>
      <trkpt lat="45.00679" lon="4.08277">
        <ele>1081</ele>
        <time>2021-04-28T12:27:13Z</time>
      </trkpt>
      <trkpt lat="45.00683" lon="4.08281">
        <ele>1081</ele>
        <time>2021-04-28T12:27:14Z</time>
      </trkpt>
      <trkpt lat="45.00688" lon="4.08286">
        <ele>1081</ele>
        <time>2021-04-28T12:27:15Z</time>
      </trkpt>
      <trkpt lat="45.00693" lon="4.08291">
        <ele>1081</ele>
        <time>2021-04-28T12:27:16Z</time>
      </trkpt>
      <trkpt lat="45.00698" lon="4.08296">
        <ele>1080</ele>
        <time>2021-04-28T12:27:17Z</time>
      </trkpt>
      <trkpt lat="45.00703" lon="4.08301">
        <ele>1080</ele>
        <time>2021-04-28T12:27:18Z</time>
      </trkpt>
      <trkpt lat="45.00708" lon="4.08307">
        <ele>1080</ele>
        <time>2021-04-28T12:27:19Z</time>
      </trkpt>
      <trkpt lat="45.00713" lon="4.08312">
        <ele>1080</ele>
        <time>2021-04-28T12:27:20Z</time>
      </trkpt>
      <trkpt lat="45.00717" lon="4.08319">
        <ele>1080</ele>
        <time>2021-04-28T12:27:21Z</time>
      </trkpt>
      <trkpt lat="45.00722" lon="4.08326">
        <ele>1079</ele>
        <time>2021-04-28T12:27:22Z</time>
      </trkpt>
      <trkpt lat="45.00727" lon="4.08332">
        <ele>1079</ele>
        <time>2021-04-28T12:27:23Z</time>
      </trkpt>
      <trkpt lat="45.00732" lon="4.0834">
        <ele>1079</ele>
        <time>2021-04-28T12:27:24Z</time>
      </trkpt>
      <trkpt lat="45.00738" lon="4.08347">
        <ele>1078</ele>
        <time>2021-04-28T12:27:25Z</time>
      </trkpt>
      <trkpt lat="45.00743" lon="4.08354">
        <ele>1078</ele>
        <time>2021-04-28T12:27:26Z</time>
      </trkpt>
      <trkpt lat="45.00748" lon="4.08362">
        <ele>1077</ele>
        <time>2021-04-28T12:27:27Z</time>
      </trkpt>
      <trkpt lat="45.00754" lon="4.08369">
        <ele>1077</ele>
        <time>2021-04-28T12:27:28Z</time>
      </trkpt>
      <trkpt lat="45.0076" lon="4.08377">
        <ele>1076</ele>
        <time>2021-04-28T12:27:29Z</time>
      </trkpt>
      <trkpt lat="45.00771" lon="4.08393">
        <ele>1076</ele>
        <time>2021-04-28T12:27:30Z</time>
      </trkpt>
      <trkpt lat="45.00776" lon="4.08402">
        <ele>1075</ele>
        <time>2021-04-28T12:27:32Z</time>
      </trkpt>
      <trkpt lat="45.0078" lon="4.08411">
        <ele>1075</ele>
        <time>2021-04-28T12:27:33Z</time>
      </trkpt>
      <trkpt lat="45.00784" lon="4.08421">
        <ele>1074</ele>
        <time>2021-04-28T12:27:34Z</time>
      </trkpt>
      <trkpt lat="45.00788" lon="4.08429">
        <ele>1074</ele>
        <time>2021-04-28T12:27:35Z</time>
      </trkpt>
      <trkpt lat="45.00792" lon="4.08436">
        <ele>1074</ele>
        <time>2021-04-28T12:27:36Z</time>
      </trkpt>
      <trkpt lat="45.00795" lon="4.08443">
        <ele>1074</ele>
        <time>2021-04-28T12:27:37Z</time>
      </trkpt>
      <trkpt lat="45.00799" lon="4.08449">
        <ele>1073</ele>
        <time>2021-04-28T12:27:38Z</time>
      </trkpt>
      <trkpt lat="45.00803" lon="4.08456">
        <ele>1073</ele>
        <time>2021-04-28T12:27:39Z</time>
      </trkpt>
      <trkpt lat="45.00806" lon="4.08463">
        <ele>1072</ele>
        <time>2021-04-28T12:27:40Z</time>
      </trkpt>
      <trkpt lat="45.0081" lon="4.0847">
        <ele>1071</ele>
        <time>2021-04-28T12:27:41Z</time>
      </trkpt>
      <trkpt lat="45.00812" lon="4.08477">
        <ele>1071</ele>
        <time>2021-04-28T12:27:42Z</time>
      </trkpt>
      <trkpt lat="45.00813" lon="4.08486">
        <ele>1070</ele>
        <time>2021-04-28T12:27:43Z</time>
      </trkpt>
      <trkpt lat="45.00812" lon="4.08496">
        <ele>1070</ele>
        <time>2021-04-28T12:27:44Z</time>
      </trkpt>
      <trkpt lat="45.00812" lon="4.08505">
        <ele>1069</ele>
        <time>2021-04-28T12:27:45Z</time>
      </trkpt>
      <trkpt lat="45.00812" lon="4.08514">
        <ele>1069</ele>
        <time>2021-04-28T12:27:46Z</time>
      </trkpt>
      <trkpt lat="45.00813" lon="4.08523">
        <ele>1068</ele>
        <time>2021-04-28T12:27:47Z</time>
      </trkpt>
      <trkpt lat="45.00814" lon="4.08531">
        <ele>1068</ele>
        <time>2021-04-28T12:27:48Z</time>
      </trkpt>
      <trkpt lat="45.00819" lon="4.08547">
        <ele>1068</ele>
        <time>2021-04-28T12:27:49Z</time>
      </trkpt>
      <trkpt lat="45.00821" lon="4.08554">
        <ele>1067</ele>
        <time>2021-04-28T12:27:51Z</time>
      </trkpt>
      <trkpt lat="45.00822" lon="4.08561">
        <ele>1067</ele>
        <time>2021-04-28T12:27:52Z</time>
      </trkpt>
      <trkpt lat="45.00824" lon="4.08568">
        <ele>1067</ele>
        <time>2021-04-28T12:27:53Z</time>
      </trkpt>
      <trkpt lat="45.00825" lon="4.08575">
        <ele>1067</ele>
        <time>2021-04-28T12:27:54Z</time>
      </trkpt>
      <trkpt lat="45.00827" lon="4.08583">
        <ele>1067</ele>
        <time>2021-04-28T12:27:55Z</time>
      </trkpt>
      <trkpt lat="45.00828" lon="4.0859">
        <ele>1067</ele>
        <time>2021-04-28T12:27:56Z</time>
      </trkpt>
      <trkpt lat="45.0083" lon="4.08597">
        <ele>1067</ele>
        <time>2021-04-28T12:27:57Z</time>
      </trkpt>
      <trkpt lat="45.00832" lon="4.08605">
        <ele>1067</ele>
        <time>2021-04-28T12:27:58Z</time>
      </trkpt>
      <trkpt lat="45.00834" lon="4.08612">
        <ele>1067</ele>
        <time>2021-04-28T12:27:59Z</time>
      </trkpt>
      <trkpt lat="45.00836" lon="4.08618">
        <ele>1067</ele>
        <time>2021-04-28T12:28:00Z</time>
      </trkpt>
      <trkpt lat="45.00838" lon="4.08625">
        <ele>1066</ele>
        <time>2021-04-28T12:28:01Z</time>
      </trkpt>
      <trkpt lat="45.00839" lon="4.08631">
        <ele>1066</ele>
        <time>2021-04-28T12:28:02Z</time>
      </trkpt>
      <trkpt lat="45.00841" lon="4.08637">
        <ele>1066</ele>
        <time>2021-04-28T12:28:03Z</time>
      </trkpt>
      <trkpt lat="45.00842" lon="4.08642">
        <ele>1066</ele>
        <time>2021-04-28T12:28:04Z</time>
      </trkpt>
      <trkpt lat="45.00844" lon="4.08648">
        <ele>1066</ele>
        <time>2021-04-28T12:28:05Z</time>
      </trkpt>
      <trkpt lat="45.00845" lon="4.08654">
        <ele>1066</ele>
        <time>2021-04-28T12:28:06Z</time>
      </trkpt>
      <trkpt lat="45.00847" lon="4.08659">
        <ele>1066</ele>
        <time>2021-04-28T12:28:07Z</time>
      </trkpt>
      <trkpt lat="45.0085" lon="4.08672">
        <ele>1065</ele>
        <time>2021-04-28T12:28:08Z</time>
      </trkpt>
      <trkpt lat="45.00853" lon="4.0868">
        <ele>1065</ele>
        <time>2021-04-28T12:28:10Z</time>
      </trkpt>
      <trkpt lat="45.00855" lon="4.08688">
        <ele>1065</ele>
        <time>2021-04-28T12:28:11Z</time>
      </trkpt>
      <trkpt lat="45.00857" lon="4.08696">
        <ele>1065</ele>
        <time>2021-04-28T12:28:12Z</time>
      </trkpt>
      <trkpt lat="45.00859" lon="4.08704">
        <ele>1065</ele>
        <time>2021-04-28T12:28:13Z</time>
      </trkpt>
      <trkpt lat="45.00862" lon="4.08712">
        <ele>1065</ele>
        <time>2021-04-28T12:28:14Z</time>
      </trkpt>
      <trkpt lat="45.00864" lon="4.0872">
        <ele>1064</ele>
        <time>2021-04-28T12:28:15Z</time>
      </trkpt>
      <trkpt lat="45.00866" lon="4.08728">
        <ele>1064</ele>
        <time>2021-04-28T12:28:16Z</time>
      </trkpt>
      <trkpt lat="45.00868" lon="4.08736">
        <ele>1064</ele>
        <time>2021-04-28T12:28:17Z</time>
      </trkpt>
      <trkpt lat="45.00869" lon="4.08744">
        <ele>1064</ele>
        <time>2021-04-28T12:28:18Z</time>
      </trkpt>
      <trkpt lat="45.00871" lon="4.08752">
        <ele>1064</ele>
        <time>2021-04-28T12:28:19Z</time>
      </trkpt>
      <trkpt lat="45.00873" lon="4.0876">
        <ele>1064</ele>
        <time>2021-04-28T12:28:20Z</time>
      </trkpt>
      <trkpt lat="45.00874" lon="4.08768">
        <ele>1064</ele>
        <time>2021-04-28T12:28:21Z</time>
      </trkpt>
      <trkpt lat="45.00876" lon="4.08775">
        <ele>1064</ele>
        <time>2021-04-28T12:28:22Z</time>
      </trkpt>
      <trkpt lat="45.00878" lon="4.08782">
        <ele>1064</ele>
        <time>2021-04-28T12:28:23Z</time>
      </trkpt>
      <trkpt lat="45.0088" lon="4.08789">
        <ele>1064</ele>
        <time>2021-04-28T12:28:24Z</time>
      </trkpt>
      <trkpt lat="45.00882" lon="4.08796">
        <ele>1064</ele>
        <time>2021-04-28T12:28:25Z</time>
      </trkpt>
      <trkpt lat="45.00883" lon="4.08804">
        <ele>1064</ele>
        <time>2021-04-28T12:28:26Z</time>
      </trkpt>
      <trkpt lat="45.00887" lon="4.08818">
        <ele>1064</ele>
        <time>2021-04-28T12:28:27Z</time>
      </trkpt>
      <trkpt lat="45.00889" lon="4.08826">
        <ele>1064</ele>
        <time>2021-04-28T12:28:29Z</time>
      </trkpt>
      <trkpt lat="45.00891" lon="4.08833">
        <ele>1064</ele>
        <time>2021-04-28T12:28:30Z</time>
      </trkpt>
      <trkpt lat="45.00893" lon="4.0884">
        <ele>1065</ele>
        <time>2021-04-28T12:28:31Z</time>
      </trkpt>
      <trkpt lat="45.00895" lon="4.08847">
        <ele>1065</ele>
        <time>2021-04-28T12:28:32Z</time>
      </trkpt>
      <trkpt lat="45.00897" lon="4.08854">
        <ele>1065</ele>
        <time>2021-04-28T12:28:33Z</time>
      </trkpt>
      <trkpt lat="45.00899" lon="4.08862">
        <ele>1065</ele>
        <time>2021-04-28T12:28:34Z</time>
      </trkpt>
      <trkpt lat="45.00901" lon="4.08869">
        <ele>1065</ele>
        <time>2021-04-28T12:28:35Z</time>
      </trkpt>
      <trkpt lat="45.00903" lon="4.08876">
        <ele>1066</ele>
        <time>2021-04-28T12:28:36Z</time>
      </trkpt>
      <trkpt lat="45.00905" lon="4.08883">
        <ele>1066</ele>
        <time>2021-04-28T12:28:37Z</time>
      </trkpt>
      <trkpt lat="45.00906" lon="4.0889">
        <ele>1066</ele>
        <time>2021-04-28T12:28:38Z</time>
      </trkpt>
      <trkpt lat="45.00908" lon="4.08897">
        <ele>1066</ele>
        <time>2021-04-28T12:28:39Z</time>
      </trkpt>
      <trkpt lat="45.0091" lon="4.08904">
        <ele>1066</ele>
        <time>2021-04-28T12:28:40Z</time>
      </trkpt>
      <trkpt lat="45.00912" lon="4.08911">
        <ele>1067</ele>
        <time>2021-04-28T12:28:41Z</time>
      </trkpt>
      <trkpt lat="45.00914" lon="4.08919">
        <ele>1067</ele>
        <time>2021-04-28T12:28:42Z</time>
      </trkpt>
      <trkpt lat="45.00916" lon="4.08926">
        <ele>1067</ele>
        <time>2021-04-28T12:28:43Z</time>
      </trkpt>
      <trkpt lat="45.00918" lon="4.08932">
        <ele>1067</ele>
        <time>2021-04-28T12:28:44Z</time>
      </trkpt>
      <trkpt lat="45.0092" lon="4.08939">
        <ele>1067</ele>
        <time>2021-04-28T12:28:45Z</time>
      </trkpt>
      <trkpt lat="45.00924" lon="4.08952">
        <ele>1068</ele>
        <time>2021-04-28T12:28:46Z</time>
      </trkpt>
      <trkpt lat="45.00926" lon="4.08959">
        <ele>1068</ele>
        <time>2021-04-28T12:28:48Z</time>
      </trkpt>
      <trkpt lat="45.00928" lon="4.08965">
        <ele>1068</ele>
        <time>2021-04-28T12:28:49Z</time>
      </trkpt>
      <trkpt lat="45.0093" lon="4.08972">
        <ele>1069</ele>
        <time>2021-04-28T12:28:50Z</time>
      </trkpt>
      <trkpt lat="45.00932" lon="4.0898">
        <ele>1069</ele>
        <time>2021-04-28T12:28:51Z</time>
      </trkpt>
      <trkpt lat="45.00934" lon="4.08987">
        <ele>1069</ele>
        <time>2021-04-28T12:28:52Z</time>
      </trkpt>
      <trkpt lat="45.00936" lon="4.08993">
        <ele>1070</ele>
        <time>2021-04-28T12:28:53Z</time>
      </trkpt>
      <trkpt lat="45.00937" lon="4.09">
        <ele>1070</ele>
        <time>2021-04-28T12:28:54Z</time>
      </trkpt>
      <trkpt lat="45.00939" lon="4.09005">
        <ele>1070</ele>
        <time>2021-04-28T12:28:55Z</time>
      </trkpt>
      <trkpt lat="45.00941" lon="4.09011">
        <ele>1071</ele>
        <time>2021-04-28T12:28:56Z</time>
      </trkpt>
      <trkpt lat="45.00942" lon="4.09017">
        <ele>1071</ele>
        <time>2021-04-28T12:28:57Z</time>
      </trkpt>
      <trkpt lat="45.00944" lon="4.09023">
        <ele>1071</ele>
        <time>2021-04-28T12:28:58Z</time>
      </trkpt>
      <trkpt lat="45.00945" lon="4.09029">
        <ele>1072</ele>
        <time>2021-04-28T12:28:59Z</time>
      </trkpt>
      <trkpt lat="45.00947" lon="4.09034">
        <ele>1072</ele>
        <time>2021-04-28T12:29:00Z</time>
      </trkpt>
      <trkpt lat="45.00948" lon="4.09039">
        <ele>1072</ele>
        <time>2021-04-28T12:29:01Z</time>
      </trkpt>
      <trkpt lat="45.0095" lon="4.09044">
        <ele>1073</ele>
        <time>2021-04-28T12:29:02Z</time>
      </trkpt>
      <trkpt lat="45.00952" lon="4.09048">
        <ele>1073</ele>
        <time>2021-04-28T12:29:03Z</time>
      </trkpt>
      <trkpt lat="45.00953" lon="4.09053">
        <ele>1074</ele>
        <time>2021-04-28T12:29:04Z</time>
      </trkpt>
      <trkpt lat="45.00956" lon="4.09062">
        <ele>1074</ele>
        <time>2021-04-28T12:29:05Z</time>
      </trkpt>
      <trkpt lat="45.00957" lon="4.09067">
        <ele>1074</ele>
        <time>2021-04-28T12:29:07Z</time>
      </trkpt>
      <trkpt lat="45.00959" lon="4.09072">
        <ele>1075</ele>
        <time>2021-04-28T12:29:08Z</time>
      </trkpt>
      <trkpt lat="45.00961" lon="4.09076">
        <ele>1075</ele>
        <time>2021-04-28T12:29:09Z</time>
      </trkpt>
      <trkpt lat="45.00963" lon="4.0908">
        <ele>1075</ele>
        <time>2021-04-28T12:29:10Z</time>
      </trkpt>
      <trkpt lat="45.00966" lon="4.09083">
        <ele>1076</ele>
        <time>2021-04-28T12:29:11Z</time>
      </trkpt>
      <trkpt lat="45.00969" lon="4.09085">
        <ele>1076</ele>
        <time>2021-04-28T12:29:12Z</time>
      </trkpt>
      <trkpt lat="45.00972" lon="4.09085">
        <ele>1076</ele>
        <time>2021-04-28T12:29:13Z</time>
      </trkpt>
      <trkpt lat="45.00975" lon="4.09085">
        <ele>1077</ele>
        <time>2021-04-28T12:29:14Z</time>
      </trkpt>
      <trkpt lat="45.00978" lon="4.09084">
        <ele>1077</ele>
        <time>2021-04-28T12:29:15Z</time>
      </trkpt>
      <trkpt lat="45.00981" lon="4.09083">
        <ele>1077</ele>
        <time>2021-04-28T12:29:16Z</time>
      </trkpt>
      <trkpt lat="45.00984" lon="4.09083">
        <ele>1078</ele>
        <time>2021-04-28T12:29:17Z</time>
      </trkpt>
      <trkpt lat="45.00987" lon="4.09084">
        <ele>1078</ele>
        <time>2021-04-28T12:29:18Z</time>
      </trkpt>
      <trkpt lat="45.0099" lon="4.09084">
        <ele>1078</ele>
        <time>2021-04-28T12:29:19Z</time>
      </trkpt>
      <trkpt lat="45.00993" lon="4.09085">
        <ele>1079</ele>
        <time>2021-04-28T12:29:20Z</time>
      </trkpt>
      <trkpt lat="45.00996" lon="4.09085">
        <ele>1079</ele>
        <time>2021-04-28T12:29:21Z</time>
      </trkpt>
      <trkpt lat="45.00999" lon="4.09086">
        <ele>1079</ele>
        <time>2021-04-28T12:29:22Z</time>
      </trkpt>
      <trkpt lat="45.01002" lon="4.09087">
        <ele>1079</ele>
        <time>2021-04-28T12:29:23Z</time>
      </trkpt>
      <trkpt lat="45.01007" lon="4.09088">
        <ele>1080</ele>
        <time>2021-04-28T12:29:24Z</time>
      </trkpt>
      <trkpt lat="45.0101" lon="4.0909">
        <ele>1080</ele>
        <time>2021-04-28T12:29:26Z</time>
      </trkpt>
      <trkpt lat="45.01012" lon="4.09091">
        <ele>1081</ele>
        <time>2021-04-28T12:29:27Z</time>
      </trkpt>
      <trkpt lat="45.01015" lon="4.09092">
        <ele>1081</ele>
        <time>2021-04-28T12:29:28Z</time>
      </trkpt>
      <trkpt lat="45.01018" lon="4.09094">
        <ele>1082</ele>
        <time>2021-04-28T12:29:29Z</time>
      </trkpt>
      <trkpt lat="45.0102" lon="4.09096">
        <ele>1083</ele>
        <time>2021-04-28T12:29:30Z</time>
      </trkpt>
      <trkpt lat="45.01023" lon="4.09098">
        <ele>1083</ele>
        <time>2021-04-28T12:29:31Z</time>
      </trkpt>
      <trkpt lat="45.01025" lon="4.091">
        <ele>1083</ele>
        <time>2021-04-28T12:29:32Z</time>
      </trkpt>
      <trkpt lat="45.01028" lon="4.09103">
        <ele>1084</ele>
        <time>2021-04-28T12:29:33Z</time>
      </trkpt>
      <trkpt lat="45.0103" lon="4.09106">
        <ele>1084</ele>
        <time>2021-04-28T12:29:34Z</time>
      </trkpt>
      <trkpt lat="45.01033" lon="4.09109">
        <ele>1085</ele>
        <time>2021-04-28T12:29:35Z</time>
      </trkpt>
      <trkpt lat="45.01035" lon="4.09112">
        <ele>1085</ele>
        <time>2021-04-28T12:29:36Z</time>
      </trkpt>
      <trkpt lat="45.01037" lon="4.09116">
        <ele>1086</ele>
        <time>2021-04-28T12:29:37Z</time>
      </trkpt>
      <trkpt lat="45.01038" lon="4.09119">
        <ele>1086</ele>
        <time>2021-04-28T12:29:38Z</time>
      </trkpt>
      <trkpt lat="45.0104" lon="4.09123">
        <ele>1087</ele>
        <time>2021-04-28T12:29:39Z</time>
      </trkpt>
      <trkpt lat="45.01041" lon="4.09127">
        <ele>1087</ele>
        <time>2021-04-28T12:29:40Z</time>
      </trkpt>
      <trkpt lat="45.01043" lon="4.0913">
        <ele>1088</ele>
        <time>2021-04-28T12:29:41Z</time>
      </trkpt>
      <trkpt lat="45.01044" lon="4.09134">
        <ele>1088</ele>
        <time>2021-04-28T12:29:42Z</time>
      </trkpt>
      <trkpt lat="45.01045" lon="4.09141">
        <ele>1089</ele>
        <time>2021-04-28T12:29:43Z</time>
      </trkpt>
      <trkpt lat="45.01046" lon="4.09145">
        <ele>1090</ele>
        <time>2021-04-28T12:29:45Z</time>
      </trkpt>
      <trkpt lat="45.01047" lon="4.09148">
        <ele>1090</ele>
        <time>2021-04-28T12:29:46Z</time>
      </trkpt>
      <trkpt lat="45.01048" lon="4.09151">
        <ele>1091</ele>
        <time>2021-04-28T12:29:47Z</time>
      </trkpt>
      <trkpt lat="45.0105" lon="4.09154">
        <ele>1091</ele>
        <time>2021-04-28T12:29:48Z</time>
      </trkpt>
      <trkpt lat="45.01051" lon="4.09156">
        <ele>1092</ele>
        <time>2021-04-28T12:29:49Z</time>
      </trkpt>
      <trkpt lat="45.01054" lon="4.09158">
        <ele>1092</ele>
        <time>2021-04-28T12:29:50Z</time>
      </trkpt>
      <trkpt lat="45.01056" lon="4.09159">
        <ele>1092</ele>
        <time>2021-04-28T12:29:51Z</time>
      </trkpt>
      <trkpt lat="45.01058" lon="4.0916">
        <ele>1093</ele>
        <time>2021-04-28T12:29:52Z</time>
      </trkpt>
      <trkpt lat="45.01061" lon="4.09161">
        <ele>1093</ele>
        <time>2021-04-28T12:29:53Z</time>
      </trkpt>
      <trkpt lat="45.01064" lon="4.09162">
        <ele>1093</ele>
        <time>2021-04-28T12:29:54Z</time>
      </trkpt>
      <trkpt lat="45.01066" lon="4.09163">
        <ele>1093</ele>
        <time>2021-04-28T12:29:55Z</time>
      </trkpt>
      <trkpt lat="45.01069" lon="4.09164">
        <ele>1094</ele>
        <time>2021-04-28T12:29:56Z</time>
      </trkpt>
      <trkpt lat="45.01071" lon="4.09166">
        <ele>1094</ele>
        <time>2021-04-28T12:29:57Z</time>
      </trkpt>
      <trkpt lat="45.01073" lon="4.09167">
        <ele>1094</ele>
        <time>2021-04-28T12:29:58Z</time>
      </trkpt>
      <trkpt lat="45.01075" lon="4.09167">
        <ele>1094</ele>
        <time>2021-04-28T12:29:59Z</time>
      </trkpt>
      <trkpt lat="45.01077" lon="4.09167">
        <ele>1094</ele>
        <time>2021-04-28T12:30:00Z</time>
      </trkpt>
      <trkpt lat="45.01079" lon="4.09167">
        <ele>1094</ele>
        <time>2021-04-28T12:30:01Z</time>
      </trkpt>
      <trkpt lat="45.01083" lon="4.09167">
        <ele>1095</ele>
        <time>2021-04-28T12:30:02Z</time>
      </trkpt>
      <trkpt lat="45.01086" lon="4.09167">
        <ele>1095</ele>
        <time>2021-04-28T12:30:04Z</time>
      </trkpt>
      <trkpt lat="45.01088" lon="4.09167">
        <ele>1095</ele>
        <time>2021-04-28T12:30:05Z</time>
      </trkpt>
      <trkpt lat="45.0109" lon="4.09167">
        <ele>1096</ele>
        <time>2021-04-28T12:30:06Z</time>
      </trkpt>
      <trkpt lat="45.01092" lon="4.09167">
        <ele>1096</ele>
        <time>2021-04-28T12:30:07Z</time>
      </trkpt>
      <trkpt lat="45.01094" lon="4.09167">
        <ele>1096</ele>
        <time>2021-04-28T12:30:08Z</time>
      </trkpt>
      <trkpt lat="45.01096" lon="4.09167">
        <ele>1096</ele>
        <time>2021-04-28T12:30:09Z</time>
      </trkpt>
      <trkpt lat="45.01099" lon="4.09166">
        <ele>1096</ele>
        <time>2021-04-28T12:30:10Z</time>
      </trkpt>
      <trkpt lat="45.01105" lon="4.09166">
        <ele>1096</ele>
        <time>2021-04-28T12:30:12Z</time>
      </trkpt>
      <trkpt lat="45.01107" lon="4.09166">
        <ele>1097</ele>
        <time>2021-04-28T12:30:13Z</time>
      </trkpt>
      <trkpt lat="45.01112" lon="4.09165">
        <ele>1097</ele>
        <time>2021-04-28T12:30:15Z</time>
      </trkpt>
      <trkpt lat="45.01119" lon="4.09163">
        <ele>1098</ele>
        <time>2021-04-28T12:30:17Z</time>
      </trkpt>
      <trkpt lat="45.01125" lon="4.09161">
        <ele>1098</ele>
        <time>2021-04-28T12:30:19Z</time>
      </trkpt>
      <trkpt lat="45.01129" lon="4.09161">
        <ele>1099</ele>
        <time>2021-04-28T12:30:20Z</time>
      </trkpt>
      <trkpt lat="45.01134" lon="4.09161">
        <ele>1099</ele>
        <time>2021-04-28T12:30:21Z</time>
      </trkpt>
      <trkpt lat="45.01137" lon="4.0916">
        <ele>1099</ele>
        <time>2021-04-28T12:30:23Z</time>
      </trkpt>
      <trkpt lat="45.01139" lon="4.0916">
        <ele>1099</ele>
        <time>2021-04-28T12:30:24Z</time>
      </trkpt>
      <trkpt lat="45.0114" lon="4.09159">
        <ele>1100</ele>
        <time>2021-04-28T12:30:25Z</time>
      </trkpt>
      <trkpt lat="45.01142" lon="4.09158">
        <ele>1100</ele>
        <time>2021-04-28T12:30:26Z</time>
      </trkpt>
      <trkpt lat="45.01145" lon="4.09157">
        <ele>1100</ele>
        <time>2021-04-28T12:30:27Z</time>
      </trkpt>
      <trkpt lat="45.01148" lon="4.09157">
        <ele>1100</ele>
        <time>2021-04-28T12:30:28Z</time>
      </trkpt>
      <trkpt lat="45.0115" lon="4.09155">
        <ele>1100</ele>
        <time>2021-04-28T12:30:29Z</time>
      </trkpt>
      <trkpt lat="45.01154" lon="4.09155">
        <ele>1101</ele>
        <time>2021-04-28T12:30:30Z</time>
      </trkpt>
      <trkpt lat="45.01158" lon="4.09154">
        <ele>1101</ele>
        <time>2021-04-28T12:30:31Z</time>
      </trkpt>
      <trkpt lat="45.01163" lon="4.09152">
        <ele>1101</ele>
        <time>2021-04-28T12:30:32Z</time>
      </trkpt>
      <trkpt lat="45.01167" lon="4.09151">
        <ele>1102</ele>
        <time>2021-04-28T12:30:33Z</time>
      </trkpt>
      <trkpt lat="45.01171" lon="4.0915">
        <ele>1102</ele>
        <time>2021-04-28T12:30:34Z</time>
      </trkpt>
      <trkpt lat="45.01175" lon="4.0915">
        <ele>1102</ele>
        <time>2021-04-28T12:30:35Z</time>
      </trkpt>
      <trkpt lat="45.01186" lon="4.0915">
        <ele>1103</ele>
        <time>2021-04-28T12:30:38Z</time>
      </trkpt>
      <trkpt lat="45.01196" lon="4.09151">
        <ele>1103</ele>
        <time>2021-04-28T12:30:40Z</time>
      </trkpt>
      <trkpt lat="45.01208" lon="4.09151">
        <ele>1104</ele>
        <time>2021-04-28T12:30:44Z</time>
      </trkpt>
      <trkpt lat="45.01217" lon="4.09151">
        <ele>1105</ele>
        <time>2021-04-28T12:30:46Z</time>
      </trkpt>
      <trkpt lat="45.01228" lon="4.09156">
        <ele>1106</ele>
        <time>2021-04-28T12:30:49Z</time>
      </trkpt>
      <trkpt lat="45.01235" lon="4.09163">
        <ele>1107</ele>
        <time>2021-04-28T12:30:51Z</time>
      </trkpt>
      <trkpt lat="45.01238" lon="4.09166">
        <ele>1107</ele>
        <time>2021-04-28T12:30:52Z</time>
      </trkpt>
      <trkpt lat="45.0124" lon="4.09169">
        <ele>1107</ele>
        <time>2021-04-28T12:30:53Z</time>
      </trkpt>
      <trkpt lat="45.01243" lon="4.09173">
        <ele>1107</ele>
        <time>2021-04-28T12:30:54Z</time>
      </trkpt>
      <trkpt lat="45.01246" lon="4.09177">
        <ele>1108</ele>
        <time>2021-04-28T12:30:55Z</time>
      </trkpt>
      <trkpt lat="45.01249" lon="4.09182">
        <ele>1108</ele>
        <time>2021-04-28T12:30:56Z</time>
      </trkpt>
      <trkpt lat="45.01251" lon="4.09186">
        <ele>1108</ele>
        <time>2021-04-28T12:30:57Z</time>
      </trkpt>
      <trkpt lat="45.01255" lon="4.0919">
        <ele>1108</ele>
        <time>2021-04-28T12:30:58Z</time>
      </trkpt>
      <trkpt lat="45.01257" lon="4.09193">
        <ele>1108</ele>
        <time>2021-04-28T12:30:59Z</time>
      </trkpt>
      <trkpt lat="45.01261" lon="4.09196">
        <ele>1109</ele>
        <time>2021-04-28T12:31:00Z</time>
      </trkpt>
      <trkpt lat="45.01264" lon="4.09199">
        <ele>1109</ele>
        <time>2021-04-28T12:31:01Z</time>
      </trkpt>
      <trkpt lat="45.0127" lon="4.09207">
        <ele>1110</ele>
        <time>2021-04-28T12:31:03Z</time>
      </trkpt>
      <trkpt lat="45.01277" lon="4.09218">
        <ele>1110</ele>
        <time>2021-04-28T12:31:06Z</time>
      </trkpt>
      <trkpt lat="45.01284" lon="4.09228">
        <ele>1111</ele>
        <time>2021-04-28T12:31:09Z</time>
      </trkpt>
      <trkpt lat="45.01293" lon="4.09241">
        <ele>1112</ele>
        <time>2021-04-28T12:31:12Z</time>
      </trkpt>
      <trkpt lat="45.01299" lon="4.09255">
        <ele>1113</ele>
        <time>2021-04-28T12:31:15Z</time>
      </trkpt>
      <trkpt lat="45.01305" lon="4.09271">
        <ele>1114</ele>
        <time>2021-04-28T12:31:18Z</time>
      </trkpt>
      <trkpt lat="45.01312" lon="4.09286">
        <ele>1115</ele>
        <time>2021-04-28T12:31:21Z</time>
      </trkpt>
      <trkpt lat="45.01316" lon="4.09298">
        <ele>1116</ele>
        <time>2021-04-28T12:31:23Z</time>
      </trkpt>
      <trkpt lat="45.01322" lon="4.09315">
        <ele>1117</ele>
        <time>2021-04-28T12:31:26Z</time>
      </trkpt>
      <trkpt lat="45.01328" lon="4.09328">
        <ele>1118</ele>
        <time>2021-04-28T12:31:29Z</time>
      </trkpt>
      <trkpt lat="45.01331" lon="4.09333">
        <ele>1118</ele>
        <time>2021-04-28T12:31:30Z</time>
      </trkpt>
      <trkpt lat="45.01334" lon="4.09338">
        <ele>1119</ele>
        <time>2021-04-28T12:31:31Z</time>
      </trkpt>
      <trkpt lat="45.01336" lon="4.09343">
        <ele>1119</ele>
        <time>2021-04-28T12:31:32Z</time>
      </trkpt>
      <trkpt lat="45.01343" lon="4.09355">
        <ele>1120</ele>
        <time>2021-04-28T12:31:35Z</time>
      </trkpt>
      <trkpt lat="45.01349" lon="4.0937">
        <ele>1120</ele>
        <time>2021-04-28T12:31:37Z</time>
      </trkpt>
      <trkpt lat="45.01354" lon="4.09386">
        <ele>1122</ele>
        <time>2021-04-28T12:31:41Z</time>
      </trkpt>
      <trkpt lat="45.01359" lon="4.09403">
        <ele>1123</ele>
        <time>2021-04-28T12:31:44Z</time>
      </trkpt>
      <trkpt lat="45.01365" lon="4.09419">
        <ele>1125</ele>
        <time>2021-04-28T12:31:47Z</time>
      </trkpt>
      <trkpt lat="45.01373" lon="4.09431">
        <ele>1126</ele>
        <time>2021-04-28T12:31:50Z</time>
      </trkpt>
      <trkpt lat="45.01381" lon="4.09442">
        <ele>1127</ele>
        <time>2021-04-28T12:31:53Z</time>
      </trkpt>
      <trkpt lat="45.0139" lon="4.09452">
        <ele>1128</ele>
        <time>2021-04-28T12:31:56Z</time>
      </trkpt>
      <trkpt lat="45.014" lon="4.09463">
        <ele>1128</ele>
        <time>2021-04-28T12:31:59Z</time>
      </trkpt>
      <trkpt lat="45.0141" lon="4.09473">
        <ele>1130</ele>
        <time>2021-04-28T12:32:02Z</time>
      </trkpt>
      <trkpt lat="45.01419" lon="4.09486">
        <ele>1131</ele>
        <time>2021-04-28T12:32:05Z</time>
      </trkpt>
      <trkpt lat="45.01428" lon="4.09501">
        <ele>1131</ele>
        <time>2021-04-28T12:32:08Z</time>
      </trkpt>
      <trkpt lat="45.01436" lon="4.09516">
        <ele>1133</ele>
        <time>2021-04-28T12:32:11Z</time>
      </trkpt>
      <trkpt lat="45.01443" lon="4.09526">
        <ele>1134</ele>
        <time>2021-04-28T12:32:13Z</time>
      </trkpt>
      <trkpt lat="45.01451" lon="4.09544">
        <ele>1135</ele>
        <time>2021-04-28T12:32:15Z</time>
      </trkpt>
      <trkpt lat="45.01454" lon="4.09555">
        <ele>1135</ele>
        <time>2021-04-28T12:32:18Z</time>
      </trkpt>
      <trkpt lat="45.01455" lon="4.09559">
        <ele>1135</ele>
        <time>2021-04-28T12:32:19Z</time>
      </trkpt>
      <trkpt lat="45.01455" lon="4.09564">
        <ele>1136</ele>
        <time>2021-04-28T12:32:20Z</time>
      </trkpt>
      <trkpt lat="45.01457" lon="4.09569">
        <ele>1136</ele>
        <time>2021-04-28T12:32:21Z</time>
      </trkpt>
      <trkpt lat="45.01458" lon="4.09573">
        <ele>1136</ele>
        <time>2021-04-28T12:32:22Z</time>
      </trkpt>
      <trkpt lat="45.01458" lon="4.09577">
        <ele>1137</ele>
        <time>2021-04-28T12:32:23Z</time>
      </trkpt>
      <trkpt lat="45.0146" lon="4.09592">
        <ele>1137</ele>
        <time>2021-04-28T12:32:27Z</time>
      </trkpt>
      <trkpt lat="45.01461" lon="4.09606">
        <ele>1138</ele>
        <time>2021-04-28T12:32:31Z</time>
      </trkpt>
      <trkpt lat="45.01464" lon="4.09619">
        <ele>1140</ele>
        <time>2021-04-28T12:32:36Z</time>
      </trkpt>
      <trkpt lat="45.01468" lon="4.09634">
        <ele>1141</ele>
        <time>2021-04-28T12:32:39Z</time>
      </trkpt>
      <trkpt lat="45.0147" lon="4.09646">
        <ele>1142</ele>
        <time>2021-04-28T12:32:42Z</time>
      </trkpt>
      <trkpt lat="45.0147" lon="4.0965">
        <ele>1143</ele>
        <time>2021-04-28T12:32:43Z</time>
      </trkpt>
      <trkpt lat="45.0147" lon="4.09655">
        <ele>1143</ele>
        <time>2021-04-28T12:32:44Z</time>
      </trkpt>
      <trkpt lat="45.01474" lon="4.09667">
        <ele>1144</ele>
        <time>2021-04-28T12:32:47Z</time>
      </trkpt>
      <trkpt lat="45.01472" lon="4.09683">
        <ele>1146</ele>
        <time>2021-04-28T12:32:52Z</time>
      </trkpt>
      <trkpt lat="45.01473" lon="4.09698">
        <ele>1147</ele>
        <time>2021-04-28T12:32:56Z</time>
      </trkpt>
      <trkpt lat="45.01474" lon="4.09712">
        <ele>1149</ele>
        <time>2021-04-28T12:32:59Z</time>
      </trkpt>
      <trkpt lat="45.01475" lon="4.09716">
        <ele>1149</ele>
        <time>2021-04-28T12:33:00Z</time>
      </trkpt>
      <trkpt lat="45.01476" lon="4.09724">
        <ele>1150</ele>
        <time>2021-04-28T12:33:02Z</time>
      </trkpt>
      <trkpt lat="45.01477" lon="4.09728">
        <ele>1150</ele>
        <time>2021-04-28T12:33:03Z</time>
      </trkpt>
      <trkpt lat="45.0148" lon="4.09743">
        <ele>1151</ele>
        <time>2021-04-28T12:33:07Z</time>
      </trkpt>
      <trkpt lat="45.01482" lon="4.09756">
        <ele>1151</ele>
        <time>2021-04-28T12:33:10Z</time>
      </trkpt>
      <trkpt lat="45.01488" lon="4.09773">
        <ele>1153</ele>
        <time>2021-04-28T12:33:12Z</time>
      </trkpt>
      <trkpt lat="45.01493" lon="4.09786">
        <ele>1155</ele>
        <time>2021-04-28T12:33:15Z</time>
      </trkpt>
      <trkpt lat="45.01497" lon="4.09802">
        <ele>1156</ele>
        <time>2021-04-28T12:33:18Z</time>
      </trkpt>
      <trkpt lat="45.01502" lon="4.09817">
        <ele>1156</ele>
        <time>2021-04-28T12:33:21Z</time>
      </trkpt>
      <trkpt lat="45.01503" lon="4.09832">
        <ele>1156</ele>
        <time>2021-04-28T12:33:24Z</time>
      </trkpt>
      <trkpt lat="45.01509" lon="4.0985">
        <ele>1157</ele>
        <time>2021-04-28T12:33:27Z</time>
      </trkpt>
      <trkpt lat="45.01514" lon="4.09862">
        <ele>1158</ele>
        <time>2021-04-28T12:33:29Z</time>
      </trkpt>
      <trkpt lat="45.01515" lon="4.09874">
        <ele>1158</ele>
        <time>2021-04-28T12:33:31Z</time>
      </trkpt>
      <trkpt lat="45.01517" lon="4.09891">
        <ele>1158</ele>
        <time>2021-04-28T12:33:33Z</time>
      </trkpt>
      <trkpt lat="45.0152" lon="4.09898">
        <ele>1159</ele>
        <time>2021-04-28T12:33:34Z</time>
      </trkpt>
      <trkpt lat="45.01521" lon="4.09905">
        <ele>1159</ele>
        <time>2021-04-28T12:33:35Z</time>
      </trkpt>
      <trkpt lat="45.01523" lon="4.09912">
        <ele>1159</ele>
        <time>2021-04-28T12:33:36Z</time>
      </trkpt>
      <trkpt lat="45.01524" lon="4.09917">
        <ele>1159</ele>
        <time>2021-04-28T12:33:37Z</time>
      </trkpt>
      <trkpt lat="45.01524" lon="4.09923">
        <ele>1159</ele>
        <time>2021-04-28T12:33:38Z</time>
      </trkpt>
      <trkpt lat="45.01523" lon="4.09941">
        <ele>1160</ele>
        <time>2021-04-28T12:33:41Z</time>
      </trkpt>
      <trkpt lat="45.01525" lon="4.09953">
        <ele>1160</ele>
        <time>2021-04-28T12:33:43Z</time>
      </trkpt>
      <trkpt lat="45.01526" lon="4.09971">
        <ele>1161</ele>
        <time>2021-04-28T12:33:46Z</time>
      </trkpt>
      <trkpt lat="45.01529" lon="4.09989">
        <ele>1161</ele>
        <time>2021-04-28T12:33:49Z</time>
      </trkpt>
      <trkpt lat="45.01529" lon="4.10008">
        <ele>1161</ele>
        <time>2021-04-28T12:33:52Z</time>
      </trkpt>
      <trkpt lat="45.01527" lon="4.10027">
        <ele>1159</ele>
        <time>2021-04-28T12:33:54Z</time>
      </trkpt>
      <trkpt lat="45.01521" lon="4.10042">
        <ele>1159</ele>
        <time>2021-04-28T12:33:56Z</time>
      </trkpt>
      <trkpt lat="45.01516" lon="4.10048">
        <ele>1158</ele>
        <time>2021-04-28T12:33:57Z</time>
      </trkpt>
      <trkpt lat="45.01512" lon="4.10054">
        <ele>1158</ele>
        <time>2021-04-28T12:33:58Z</time>
      </trkpt>
      <trkpt lat="45.01508" lon="4.10067">
        <ele>1157</ele>
        <time>2021-04-28T12:34:00Z</time>
      </trkpt>
      <trkpt lat="45.01503" lon="4.10083">
        <ele>1156</ele>
        <time>2021-04-28T12:34:02Z</time>
      </trkpt>
      <trkpt lat="45.01499" lon="4.10101">
        <ele>1156</ele>
        <time>2021-04-28T12:34:04Z</time>
      </trkpt>
      <trkpt lat="45.01504" lon="4.10125">
        <ele>1155</ele>
        <time>2021-04-28T12:34:06Z</time>
      </trkpt>
      <trkpt lat="45.01508" lon="4.10138">
        <ele>1154</ele>
        <time>2021-04-28T12:34:07Z</time>
      </trkpt>
      <trkpt lat="45.01511" lon="4.1015">
        <ele>1154</ele>
        <time>2021-04-28T12:34:08Z</time>
      </trkpt>
      <trkpt lat="45.01518" lon="4.10177">
        <ele>1153</ele>
        <time>2021-04-28T12:34:09Z</time>
      </trkpt>
      <trkpt lat="45.01521" lon="4.10191">
        <ele>1152</ele>
        <time>2021-04-28T12:34:11Z</time>
      </trkpt>
      <trkpt lat="45.01523" lon="4.10204">
        <ele>1152</ele>
        <time>2021-04-28T12:34:12Z</time>
      </trkpt>
      <trkpt lat="45.01524" lon="4.10217">
        <ele>1151</ele>
        <time>2021-04-28T12:34:13Z</time>
      </trkpt>
      <trkpt lat="45.01526" lon="4.1023">
        <ele>1150</ele>
        <time>2021-04-28T12:34:14Z</time>
      </trkpt>
      <trkpt lat="45.01527" lon="4.10243">
        <ele>1149</ele>
        <time>2021-04-28T12:34:15Z</time>
      </trkpt>
      <trkpt lat="45.01528" lon="4.10254">
        <ele>1148</ele>
        <time>2021-04-28T12:34:16Z</time>
      </trkpt>
      <trkpt lat="45.01529" lon="4.10264">
        <ele>1147</ele>
        <time>2021-04-28T12:34:17Z</time>
      </trkpt>
      <trkpt lat="45.01531" lon="4.10271">
        <ele>1146</ele>
        <time>2021-04-28T12:34:18Z</time>
      </trkpt>
      <trkpt lat="45.01533" lon="4.10276">
        <ele>1145</ele>
        <time>2021-04-28T12:34:19Z</time>
      </trkpt>
      <trkpt lat="45.01535" lon="4.10282">
        <ele>1145</ele>
        <time>2021-04-28T12:34:20Z</time>
      </trkpt>
      <trkpt lat="45.01537" lon="4.10287">
        <ele>1144</ele>
        <time>2021-04-28T12:34:21Z</time>
      </trkpt>
      <trkpt lat="45.01539" lon="4.10293">
        <ele>1144</ele>
        <time>2021-04-28T12:34:22Z</time>
      </trkpt>
      <trkpt lat="45.01541" lon="4.10298">
        <ele>1144</ele>
        <time>2021-04-28T12:34:23Z</time>
      </trkpt>
      <trkpt lat="45.01543" lon="4.10302">
        <ele>1144</ele>
        <time>2021-04-28T12:34:24Z</time>
      </trkpt>
      <trkpt lat="45.01545" lon="4.10307">
        <ele>1144</ele>
        <time>2021-04-28T12:34:25Z</time>
      </trkpt>
      <trkpt lat="45.01546" lon="4.10312">
        <ele>1144</ele>
        <time>2021-04-28T12:34:26Z</time>
      </trkpt>
      <trkpt lat="45.01548" lon="4.10317">
        <ele>1144</ele>
        <time>2021-04-28T12:34:27Z</time>
      </trkpt>
      <trkpt lat="45.01551" lon="4.10329">
        <ele>1144</ele>
        <time>2021-04-28T12:34:28Z</time>
      </trkpt>
      <trkpt lat="45.01552" lon="4.10335">
        <ele>1144</ele>
        <time>2021-04-28T12:34:30Z</time>
      </trkpt>
      <trkpt lat="45.01553" lon="4.1034">
        <ele>1144</ele>
        <time>2021-04-28T12:34:31Z</time>
      </trkpt>
      <trkpt lat="45.01554" lon="4.10346">
        <ele>1144</ele>
        <time>2021-04-28T12:34:32Z</time>
      </trkpt>
      <trkpt lat="45.01556" lon="4.10352">
        <ele>1144</ele>
        <time>2021-04-28T12:34:33Z</time>
      </trkpt>
      <trkpt lat="45.01557" lon="4.10358">
        <ele>1143</ele>
        <time>2021-04-28T12:34:34Z</time>
      </trkpt>
      <trkpt lat="45.01558" lon="4.10364">
        <ele>1144</ele>
        <time>2021-04-28T12:34:35Z</time>
      </trkpt>
      <trkpt lat="45.0156" lon="4.10368">
        <ele>1144</ele>
        <time>2021-04-28T12:34:36Z</time>
      </trkpt>
      <trkpt lat="45.01562" lon="4.10374">
        <ele>1144</ele>
        <time>2021-04-28T12:34:37Z</time>
      </trkpt>
      <trkpt lat="45.01564" lon="4.10378">
        <ele>1144</ele>
        <time>2021-04-28T12:34:38Z</time>
      </trkpt>
      <trkpt lat="45.01567" lon="4.10383">
        <ele>1144</ele>
        <time>2021-04-28T12:34:39Z</time>
      </trkpt>
      <trkpt lat="45.01569" lon="4.10387">
        <ele>1144</ele>
        <time>2021-04-28T12:34:40Z</time>
      </trkpt>
      <trkpt lat="45.01572" lon="4.10391">
        <ele>1144</ele>
        <time>2021-04-28T12:34:41Z</time>
      </trkpt>
      <trkpt lat="45.01575" lon="4.10395">
        <ele>1144</ele>
        <time>2021-04-28T12:34:42Z</time>
      </trkpt>
      <trkpt lat="45.01577" lon="4.104">
        <ele>1144</ele>
        <time>2021-04-28T12:34:43Z</time>
      </trkpt>
      <trkpt lat="45.0158" lon="4.10404">
        <ele>1144</ele>
        <time>2021-04-28T12:34:44Z</time>
      </trkpt>
      <trkpt lat="45.01583" lon="4.1041">
        <ele>1144</ele>
        <time>2021-04-28T12:34:45Z</time>
      </trkpt>
      <trkpt lat="45.01584" lon="4.10415">
        <ele>1144</ele>
        <time>2021-04-28T12:34:46Z</time>
      </trkpt>
      <trkpt lat="45.01585" lon="4.10425">
        <ele>1144</ele>
        <time>2021-04-28T12:34:47Z</time>
      </trkpt>
      <trkpt lat="45.01585" lon="4.1043">
        <ele>1144</ele>
        <time>2021-04-28T12:34:49Z</time>
      </trkpt>
      <trkpt lat="45.01587" lon="4.10436">
        <ele>1144</ele>
        <time>2021-04-28T12:34:50Z</time>
      </trkpt>
      <trkpt lat="45.01589" lon="4.10441">
        <ele>1144</ele>
        <time>2021-04-28T12:34:51Z</time>
      </trkpt>
      <trkpt lat="45.01591" lon="4.10447">
        <ele>1144</ele>
        <time>2021-04-28T12:34:52Z</time>
      </trkpt>
      <trkpt lat="45.01593" lon="4.10452">
        <ele>1144</ele>
        <time>2021-04-28T12:34:53Z</time>
      </trkpt>
      <trkpt lat="45.01594" lon="4.10457">
        <ele>1144</ele>
        <time>2021-04-28T12:34:54Z</time>
      </trkpt>
      <trkpt lat="45.01596" lon="4.10462">
        <ele>1144</ele>
        <time>2021-04-28T12:34:55Z</time>
      </trkpt>
      <trkpt lat="45.01598" lon="4.10467">
        <ele>1145</ele>
        <time>2021-04-28T12:34:56Z</time>
      </trkpt>
      <trkpt lat="45.016" lon="4.10472">
        <ele>1145</ele>
        <time>2021-04-28T12:34:57Z</time>
      </trkpt>
      <trkpt lat="45.01602" lon="4.10477">
        <ele>1145</ele>
        <time>2021-04-28T12:34:58Z</time>
      </trkpt>
      <trkpt lat="45.01604" lon="4.10481">
        <ele>1145</ele>
        <time>2021-04-28T12:34:59Z</time>
      </trkpt>
      <trkpt lat="45.01606" lon="4.10484">
        <ele>1145</ele>
        <time>2021-04-28T12:35:00Z</time>
      </trkpt>
      <trkpt lat="45.01608" lon="4.10488">
        <ele>1145</ele>
        <time>2021-04-28T12:35:01Z</time>
      </trkpt>
      <trkpt lat="45.0161" lon="4.10492">
        <ele>1146</ele>
        <time>2021-04-28T12:35:02Z</time>
      </trkpt>
      <trkpt lat="45.01613" lon="4.10496">
        <ele>1146</ele>
        <time>2021-04-28T12:35:03Z</time>
      </trkpt>
      <trkpt lat="45.01615" lon="4.10501">
        <ele>1146</ele>
        <time>2021-04-28T12:35:04Z</time>
      </trkpt>
      <trkpt lat="45.01617" lon="4.10506">
        <ele>1146</ele>
        <time>2021-04-28T12:35:05Z</time>
      </trkpt>
      <trkpt lat="45.01622" lon="4.10515">
        <ele>1147</ele>
        <time>2021-04-28T12:35:06Z</time>
      </trkpt>
      <trkpt lat="45.01625" lon="4.10519">
        <ele>1147</ele>
        <time>2021-04-28T12:35:08Z</time>
      </trkpt>
      <trkpt lat="45.01627" lon="4.10523">
        <ele>1148</ele>
        <time>2021-04-28T12:35:09Z</time>
      </trkpt>
      <trkpt lat="45.0163" lon="4.10527">
        <ele>1148</ele>
        <time>2021-04-28T12:35:10Z</time>
      </trkpt>
      <trkpt lat="45.01633" lon="4.10531">
        <ele>1148</ele>
        <time>2021-04-28T12:35:11Z</time>
      </trkpt>
      <trkpt lat="45.01636" lon="4.10535">
        <ele>1148</ele>
        <time>2021-04-28T12:35:12Z</time>
      </trkpt>
      <trkpt lat="45.01639" lon="4.10538">
        <ele>1149</ele>
        <time>2021-04-28T12:35:13Z</time>
      </trkpt>
      <trkpt lat="45.01642" lon="4.10541">
        <ele>1149</ele>
        <time>2021-04-28T12:35:14Z</time>
      </trkpt>
      <trkpt lat="45.01645" lon="4.10545">
        <ele>1149</ele>
        <time>2021-04-28T12:35:15Z</time>
      </trkpt>
      <trkpt lat="45.01647" lon="4.10549">
        <ele>1149</ele>
        <time>2021-04-28T12:35:16Z</time>
      </trkpt>
      <trkpt lat="45.01648" lon="4.10552">
        <ele>1149</ele>
        <time>2021-04-28T12:35:17Z</time>
      </trkpt>
      <trkpt lat="45.01651" lon="4.10557">
        <ele>1150</ele>
        <time>2021-04-28T12:35:18Z</time>
      </trkpt>
      <trkpt lat="45.01654" lon="4.10562">
        <ele>1150</ele>
        <time>2021-04-28T12:35:19Z</time>
      </trkpt>
      <trkpt lat="45.01657" lon="4.10567">
        <ele>1150</ele>
        <time>2021-04-28T12:35:20Z</time>
      </trkpt>
      <trkpt lat="45.0166" lon="4.10571">
        <ele>1151</ele>
        <time>2021-04-28T12:35:21Z</time>
      </trkpt>
      <trkpt lat="45.01663" lon="4.10575">
        <ele>1151</ele>
        <time>2021-04-28T12:35:22Z</time>
      </trkpt>
      <trkpt lat="45.01665" lon="4.10579">
        <ele>1152</ele>
        <time>2021-04-28T12:35:23Z</time>
      </trkpt>
      <trkpt lat="45.01668" lon="4.10584">
        <ele>1152</ele>
        <time>2021-04-28T12:35:24Z</time>
      </trkpt>
      <trkpt lat="45.01674" lon="4.10592">
        <ele>1152</ele>
        <time>2021-04-28T12:35:25Z</time>
      </trkpt>
      <trkpt lat="45.01676" lon="4.10597">
        <ele>1153</ele>
        <time>2021-04-28T12:35:27Z</time>
      </trkpt>
      <trkpt lat="45.01679" lon="4.10601">
        <ele>1153</ele>
        <time>2021-04-28T12:35:28Z</time>
      </trkpt>
      <trkpt lat="45.01682" lon="4.10605">
        <ele>1153</ele>
        <time>2021-04-28T12:35:29Z</time>
      </trkpt>
      <trkpt lat="45.01683" lon="4.10609">
        <ele>1154</ele>
        <time>2021-04-28T12:35:30Z</time>
      </trkpt>
      <trkpt lat="45.01686" lon="4.10613">
        <ele>1154</ele>
        <time>2021-04-28T12:35:31Z</time>
      </trkpt>
      <trkpt lat="45.01688" lon="4.10617">
        <ele>1154</ele>
        <time>2021-04-28T12:35:32Z</time>
      </trkpt>
      <trkpt lat="45.0169" lon="4.1062">
        <ele>1154</ele>
        <time>2021-04-28T12:35:33Z</time>
      </trkpt>
      <trkpt lat="45.01692" lon="4.10625">
        <ele>1155</ele>
        <time>2021-04-28T12:35:34Z</time>
      </trkpt>
      <trkpt lat="45.01694" lon="4.10629">
        <ele>1155</ele>
        <time>2021-04-28T12:35:35Z</time>
      </trkpt>
      <trkpt lat="45.01695" lon="4.10633">
        <ele>1155</ele>
        <time>2021-04-28T12:35:36Z</time>
      </trkpt>
      <trkpt lat="45.01697" lon="4.10636">
        <ele>1156</ele>
        <time>2021-04-28T12:35:37Z</time>
      </trkpt>
      <trkpt lat="45.01699" lon="4.1064">
        <ele>1156</ele>
        <time>2021-04-28T12:35:38Z</time>
      </trkpt>
      <trkpt lat="45.01701" lon="4.10643">
        <ele>1156</ele>
        <time>2021-04-28T12:35:39Z</time>
      </trkpt>
      <trkpt lat="45.01703" lon="4.10646">
        <ele>1157</ele>
        <time>2021-04-28T12:35:40Z</time>
      </trkpt>
      <trkpt lat="45.01705" lon="4.1065">
        <ele>1157</ele>
        <time>2021-04-28T12:35:41Z</time>
      </trkpt>
      <trkpt lat="45.01708" lon="4.10654">
        <ele>1157</ele>
        <time>2021-04-28T12:35:42Z</time>
      </trkpt>
      <trkpt lat="45.01711" lon="4.10657">
        <ele>1157</ele>
        <time>2021-04-28T12:35:43Z</time>
      </trkpt>
      <trkpt lat="45.01715" lon="4.10664">
        <ele>1157</ele>
        <time>2021-04-28T12:35:44Z</time>
      </trkpt>
      <trkpt lat="45.01717" lon="4.10668">
        <ele>1158</ele>
        <time>2021-04-28T12:35:46Z</time>
      </trkpt>
      <trkpt lat="45.01721" lon="4.10676">
        <ele>1158</ele>
        <time>2021-04-28T12:35:47Z</time>
      </trkpt>
      <trkpt lat="45.01723" lon="4.10678">
        <ele>1158</ele>
        <time>2021-04-28T12:35:49Z</time>
      </trkpt>
      <trkpt lat="45.01725" lon="4.10681">
        <ele>1159</ele>
        <time>2021-04-28T12:35:50Z</time>
      </trkpt>
      <trkpt lat="45.01728" lon="4.10685">
        <ele>1159</ele>
        <time>2021-04-28T12:35:51Z</time>
      </trkpt>
      <trkpt lat="45.0173" lon="4.10688">
        <ele>1159</ele>
        <time>2021-04-28T12:35:52Z</time>
      </trkpt>
      <trkpt lat="45.01733" lon="4.10692">
        <ele>1159</ele>
        <time>2021-04-28T12:35:53Z</time>
      </trkpt>
      <trkpt lat="45.01735" lon="4.10695">
        <ele>1160</ele>
        <time>2021-04-28T12:35:54Z</time>
      </trkpt>
      <trkpt lat="45.01737" lon="4.10698">
        <ele>1160</ele>
        <time>2021-04-28T12:35:55Z</time>
      </trkpt>
      <trkpt lat="45.01746" lon="4.10703">
        <ele>1160</ele>
        <time>2021-04-28T12:35:58Z</time>
      </trkpt>
      <trkpt lat="45.01757" lon="4.10709">
        <ele>1161</ele>
        <time>2021-04-28T12:36:01Z</time>
      </trkpt>
      <trkpt lat="45.01771" lon="4.10714">
        <ele>1162</ele>
        <time>2021-04-28T12:36:03Z</time>
      </trkpt>
      <trkpt lat="45.01782" lon="4.10719">
        <ele>1162</ele>
        <time>2021-04-28T12:36:06Z</time>
      </trkpt>
      <trkpt lat="45.01792" lon="4.10724">
        <ele>1162</ele>
        <time>2021-04-28T12:36:08Z</time>
      </trkpt>
      <trkpt lat="45.01805" lon="4.10729">
        <ele>1163</ele>
        <time>2021-04-28T12:36:11Z</time>
      </trkpt>
      <trkpt lat="45.01814" lon="4.1073">
        <ele>1162</ele>
        <time>2021-04-28T12:36:13Z</time>
      </trkpt>
      <trkpt lat="45.01826" lon="4.10728">
        <ele>1163</ele>
        <time>2021-04-28T12:36:15Z</time>
      </trkpt>
      <trkpt lat="45.01839" lon="4.10724">
        <ele>1162</ele>
        <time>2021-04-28T12:36:17Z</time>
      </trkpt>
      <trkpt lat="45.01845" lon="4.10723">
        <ele>1162</ele>
        <time>2021-04-28T12:36:18Z</time>
      </trkpt>
      <trkpt lat="45.0186" lon="4.10721">
        <ele>1162</ele>
        <time>2021-04-28T12:36:20Z</time>
      </trkpt>
      <trkpt lat="45.01869" lon="4.10719">
        <ele>1162</ele>
        <time>2021-04-28T12:36:21Z</time>
      </trkpt>
      <trkpt lat="45.01886" lon="4.10716">
        <ele>1162</ele>
        <time>2021-04-28T12:36:22Z</time>
      </trkpt>
      <trkpt lat="45.01902" lon="4.10715">
        <ele>1162</ele>
        <time>2021-04-28T12:36:25Z</time>
      </trkpt>
      <trkpt lat="45.01917" lon="4.1072">
        <ele>1162</ele>
        <time>2021-04-28T12:36:27Z</time>
      </trkpt>
      <trkpt lat="45.01932" lon="4.10728">
        <ele>1162</ele>
        <time>2021-04-28T12:36:29Z</time>
      </trkpt>
      <trkpt lat="45.01943" lon="4.10737">
        <ele>1162</ele>
        <time>2021-04-28T12:36:31Z</time>
      </trkpt>
      <trkpt lat="45.01956" lon="4.10744">
        <ele>1162</ele>
        <time>2021-04-28T12:36:33Z</time>
      </trkpt>
      <trkpt lat="45.0197" lon="4.10749">
        <ele>1161</ele>
        <time>2021-04-28T12:36:35Z</time>
      </trkpt>
      <trkpt lat="45.01985" lon="4.10753">
        <ele>1160</ele>
        <time>2021-04-28T12:36:37Z</time>
      </trkpt>
      <trkpt lat="45.02001" lon="4.10757">
        <ele>1160</ele>
        <time>2021-04-28T12:36:39Z</time>
      </trkpt>
      <trkpt lat="45.02009" lon="4.10758">
        <ele>1159</ele>
        <time>2021-04-28T12:36:40Z</time>
      </trkpt>
      <trkpt lat="45.02016" lon="4.1076">
        <ele>1159</ele>
        <time>2021-04-28T12:36:41Z</time>
      </trkpt>
      <trkpt lat="45.02027" lon="4.10761">
        <ele>1159</ele>
        <time>2021-04-28T12:36:43Z</time>
      </trkpt>
      <trkpt lat="45.02037" lon="4.1076">
        <ele>1159</ele>
        <time>2021-04-28T12:36:45Z</time>
      </trkpt>
      <trkpt lat="45.0205" lon="4.10756">
        <ele>1159</ele>
        <time>2021-04-28T12:36:47Z</time>
      </trkpt>
      <trkpt lat="45.02066" lon="4.10753">
        <ele>1158</ele>
        <time>2021-04-28T12:36:49Z</time>
      </trkpt>
      <trkpt lat="45.02079" lon="4.1075">
        <ele>1158</ele>
        <time>2021-04-28T12:36:51Z</time>
      </trkpt>
      <trkpt lat="45.02092" lon="4.10748">
        <ele>1157</ele>
        <time>2021-04-28T12:36:53Z</time>
      </trkpt>
      <trkpt lat="45.02105" lon="4.10746">
        <ele>1157</ele>
        <time>2021-04-28T12:36:55Z</time>
      </trkpt>
      <trkpt lat="45.0212" lon="4.10743">
        <ele>1157</ele>
        <time>2021-04-28T12:36:57Z</time>
      </trkpt>
      <trkpt lat="45.02135" lon="4.10742">
        <ele>1157</ele>
        <time>2021-04-28T12:36:59Z</time>
      </trkpt>
      <trkpt lat="45.02147" lon="4.10742">
        <ele>1157</ele>
        <time>2021-04-28T12:37:00Z</time>
      </trkpt>
      <trkpt lat="45.02157" lon="4.10744">
        <ele>1157</ele>
        <time>2021-04-28T12:37:03Z</time>
      </trkpt>
      <trkpt lat="45.02167" lon="4.1075">
        <ele>1157</ele>
        <time>2021-04-28T12:37:05Z</time>
      </trkpt>
      <trkpt lat="45.02176" lon="4.10756">
        <ele>1157</ele>
        <time>2021-04-28T12:37:07Z</time>
      </trkpt>
      <trkpt lat="45.02185" lon="4.1076">
        <ele>1157</ele>
        <time>2021-04-28T12:37:09Z</time>
      </trkpt>
      <trkpt lat="45.02196" lon="4.10764">
        <ele>1156</ele>
        <time>2021-04-28T12:37:12Z</time>
      </trkpt>
      <trkpt lat="45.02208" lon="4.10768">
        <ele>1156</ele>
        <time>2021-04-28T12:37:15Z</time>
      </trkpt>
      <trkpt lat="45.02219" lon="4.10773">
        <ele>1157</ele>
        <time>2021-04-28T12:37:18Z</time>
      </trkpt>
      <trkpt lat="45.02229" lon="4.10776">
        <ele>1157</ele>
        <time>2021-04-28T12:37:19Z</time>
      </trkpt>
      <trkpt lat="45.02239" lon="4.1078">
        <ele>1157</ele>
        <time>2021-04-28T12:37:22Z</time>
      </trkpt>
      <trkpt lat="45.02249" lon="4.10784">
        <ele>1157</ele>
        <time>2021-04-28T12:37:24Z</time>
      </trkpt>
      <trkpt lat="45.02261" lon="4.10786">
        <ele>1157</ele>
        <time>2021-04-28T12:37:27Z</time>
      </trkpt>
      <trkpt lat="45.02274" lon="4.10782">
        <ele>1157</ele>
        <time>2021-04-28T12:37:30Z</time>
      </trkpt>
      <trkpt lat="45.02284" lon="4.1079">
        <ele>1156</ele>
        <time>2021-04-28T12:37:34Z</time>
      </trkpt>
      <trkpt lat="45.02287" lon="4.10805">
        <ele>1156</ele>
        <time>2021-04-28T12:37:38Z</time>
      </trkpt>
      <trkpt lat="45.02294" lon="4.10813">
        <ele>1156</ele>
        <time>2021-04-28T12:37:42Z</time>
      </trkpt>
      <trkpt lat="45.02302" lon="4.10821">
        <ele>1156</ele>
        <time>2021-04-28T12:37:46Z</time>
      </trkpt>
      <trkpt lat="45.02302" lon="4.10835">
        <ele>1156</ele>
        <time>2021-04-28T12:37:50Z</time>
      </trkpt>
      <trkpt lat="45.02301" lon="4.10851">
        <ele>1156</ele>
        <time>2021-04-28T12:37:53Z</time>
      </trkpt>
      <trkpt lat="45.02296" lon="4.10867">
        <ele>1157</ele>
        <time>2021-04-28T12:37:56Z</time>
      </trkpt>
      <trkpt lat="45.02296" lon="4.10882">
        <ele>1157</ele>
        <time>2021-04-28T12:37:59Z</time>
      </trkpt>
      <trkpt lat="45.02301" lon="4.10894">
        <ele>1158</ele>
        <time>2021-04-28T12:38:04Z</time>
      </trkpt>
      <trkpt lat="45.02304" lon="4.10899">
        <ele>1158</ele>
        <time>2021-04-28T12:38:05Z</time>
      </trkpt>
      <trkpt lat="45.02306" lon="4.10903">
        <ele>1158</ele>
        <time>2021-04-28T12:38:06Z</time>
      </trkpt>
      <trkpt lat="45.02307" lon="4.10906">
        <ele>1159</ele>
        <time>2021-04-28T12:38:07Z</time>
      </trkpt>
      <trkpt lat="45.02308" lon="4.10908">
        <ele>1159</ele>
        <time>2021-04-28T12:38:08Z</time>
      </trkpt>
      <trkpt lat="45.0231" lon="4.10911">
        <ele>1159</ele>
        <time>2021-04-28T12:38:09Z</time>
      </trkpt>
      <trkpt lat="45.02313" lon="4.10926">
        <ele>1160</ele>
        <time>2021-04-28T12:38:16Z</time>
      </trkpt>
      <trkpt lat="45.02317" lon="4.10939">
        <ele>1161</ele>
        <time>2021-04-28T12:38:21Z</time>
      </trkpt>
      <trkpt lat="45.02319" lon="4.10952">
        <ele>1162</ele>
        <time>2021-04-28T12:38:26Z</time>
      </trkpt>
      <trkpt lat="45.02321" lon="4.10964">
        <ele>1163</ele>
        <time>2021-04-28T12:38:30Z</time>
      </trkpt>
      <trkpt lat="45.02322" lon="4.10967">
        <ele>1164</ele>
        <time>2021-04-28T12:38:31Z</time>
      </trkpt>
      <trkpt lat="45.02324" lon="4.1097">
        <ele>1164</ele>
        <time>2021-04-28T12:38:32Z</time>
      </trkpt>
      <trkpt lat="45.0233" lon="4.10981">
        <ele>1165</ele>
        <time>2021-04-28T12:38:38Z</time>
      </trkpt>
      <trkpt lat="45.02338" lon="4.10991">
        <ele>1166</ele>
        <time>2021-04-28T12:38:42Z</time>
      </trkpt>
      <trkpt lat="45.02343" lon="4.10998">
        <ele>1167</ele>
        <time>2021-04-28T12:38:45Z</time>
      </trkpt>
      <trkpt lat="45.02344" lon="4.11">
        <ele>1167</ele>
        <time>2021-04-28T12:38:46Z</time>
      </trkpt>
      <trkpt lat="45.02345" lon="4.11003">
        <ele>1167</ele>
        <time>2021-04-28T12:38:47Z</time>
      </trkpt>
      <trkpt lat="45.02345" lon="4.11006">
        <ele>1167</ele>
        <time>2021-04-28T12:38:48Z</time>
      </trkpt>
      <trkpt lat="45.02348" lon="4.11012">
        <ele>1168</ele>
        <time>2021-04-28T12:38:51Z</time>
      </trkpt>
      <trkpt lat="45.02348" lon="4.11017">
        <ele>1169</ele>
        <time>2021-04-28T12:38:53Z</time>
      </trkpt>
      <trkpt lat="45.0235" lon="4.1102">
        <ele>1169</ele>
        <time>2021-04-28T12:38:54Z</time>
      </trkpt>
      <trkpt lat="45.02355" lon="4.11032">
        <ele>1171</ele>
        <time>2021-04-28T12:39:01Z</time>
      </trkpt>
      <trkpt lat="45.02359" lon="4.11044">
        <ele>1172</ele>
        <time>2021-04-28T12:39:08Z</time>
      </trkpt>
      <trkpt lat="45.02358" lon="4.11048">
        <ele>1173</ele>
        <time>2021-04-28T12:39:13Z</time>
      </trkpt>
      <trkpt lat="45.0236" lon="4.11057">
        <ele>1176</ele>
        <time>2021-04-28T12:39:30Z</time>
      </trkpt>
      <trkpt lat="45.02361" lon="4.11063">
        <ele>1177</ele>
        <time>2021-04-28T12:39:32Z</time>
      </trkpt>
      <trkpt lat="45.02368" lon="4.11072">
        <ele>1178</ele>
        <time>2021-04-28T12:39:37Z</time>
      </trkpt>
      <trkpt lat="45.02376" lon="4.11077">
        <ele>1179</ele>
        <time>2021-04-28T12:39:41Z</time>
      </trkpt>
      <trkpt lat="45.02386" lon="4.11088">
        <ele>1179</ele>
        <time>2021-04-28T12:39:44Z</time>
      </trkpt>
      <trkpt lat="45.02389" lon="4.11091">
        <ele>1180</ele>
        <time>2021-04-28T12:39:45Z</time>
      </trkpt>
      <trkpt lat="45.02401" lon="4.111">
        <ele>1180</ele>
        <time>2021-04-28T12:39:48Z</time>
      </trkpt>
      <trkpt lat="45.02411" lon="4.11108">
        <ele>1180</ele>
        <time>2021-04-28T12:39:49Z</time>
      </trkpt>
      <trkpt lat="45.0242" lon="4.11117">
        <ele>1180</ele>
        <time>2021-04-28T12:39:52Z</time>
      </trkpt>
      <trkpt lat="45.02431" lon="4.11125">
        <ele>1180</ele>
        <time>2021-04-28T12:39:54Z</time>
      </trkpt>
      <trkpt lat="45.02441" lon="4.11135">
        <ele>1181</ele>
        <time>2021-04-28T12:39:56Z</time>
      </trkpt>
      <trkpt lat="45.02453" lon="4.11139">
        <ele>1180</ele>
        <time>2021-04-28T12:39:58Z</time>
      </trkpt>
      <trkpt lat="45.02462" lon="4.11144">
        <ele>1180</ele>
        <time>2021-04-28T12:40:00Z</time>
      </trkpt>
      <trkpt lat="45.02472" lon="4.11153">
        <ele>1181</ele>
        <time>2021-04-28T12:40:02Z</time>
      </trkpt>
      <trkpt lat="45.02481" lon="4.11163">
        <ele>1181</ele>
        <time>2021-04-28T12:40:04Z</time>
      </trkpt>
      <trkpt lat="45.02489" lon="4.11172">
        <ele>1181</ele>
        <time>2021-04-28T12:40:06Z</time>
      </trkpt>
      <trkpt lat="45.02496" lon="4.11182">
        <ele>1181</ele>
        <time>2021-04-28T12:40:08Z</time>
      </trkpt>
      <trkpt lat="45.02501" lon="4.11196">
        <ele>1181</ele>
        <time>2021-04-28T12:40:10Z</time>
      </trkpt>
      <trkpt lat="45.02504" lon="4.11202">
        <ele>1181</ele>
        <time>2021-04-28T12:40:11Z</time>
      </trkpt>
      <trkpt lat="45.02507" lon="4.11208">
        <ele>1181</ele>
        <time>2021-04-28T12:40:12Z</time>
      </trkpt>
      <trkpt lat="45.02513" lon="4.1122">
        <ele>1181</ele>
        <time>2021-04-28T12:40:15Z</time>
      </trkpt>
      <trkpt lat="45.02521" lon="4.11229">
        <ele>1181</ele>
        <time>2021-04-28T12:40:17Z</time>
      </trkpt>
      <trkpt lat="45.02524" lon="4.11234">
        <ele>1181</ele>
        <time>2021-04-28T12:40:18Z</time>
      </trkpt>
      <trkpt lat="45.02526" lon="4.11237">
        <ele>1182</ele>
        <time>2021-04-28T12:40:19Z</time>
      </trkpt>
      <trkpt lat="45.02531" lon="4.11245">
        <ele>1182</ele>
        <time>2021-04-28T12:40:21Z</time>
      </trkpt>
      <trkpt lat="45.02532" lon="4.11248">
        <ele>1182</ele>
        <time>2021-04-28T12:40:22Z</time>
      </trkpt>
      <trkpt lat="45.02535" lon="4.11254">
        <ele>1183</ele>
        <time>2021-04-28T12:40:23Z</time>
      </trkpt>
      <trkpt lat="45.02537" lon="4.1126">
        <ele>1183</ele>
        <time>2021-04-28T12:40:24Z</time>
      </trkpt>
      <trkpt lat="45.02537" lon="4.11264">
        <ele>1183</ele>
        <time>2021-04-28T12:40:25Z</time>
      </trkpt>
      <trkpt lat="45.02539" lon="4.11269">
        <ele>1183</ele>
        <time>2021-04-28T12:40:26Z</time>
      </trkpt>
      <trkpt lat="45.02543" lon="4.11278">
        <ele>1183</ele>
        <time>2021-04-28T12:40:27Z</time>
      </trkpt>
      <trkpt lat="45.02545" lon="4.11283">
        <ele>1183</ele>
        <time>2021-04-28T12:40:29Z</time>
      </trkpt>
      <trkpt lat="45.02547" lon="4.11287">
        <ele>1183</ele>
        <time>2021-04-28T12:40:30Z</time>
      </trkpt>
      <trkpt lat="45.0255" lon="4.11291">
        <ele>1183</ele>
        <time>2021-04-28T12:40:31Z</time>
      </trkpt>
      <trkpt lat="45.02561" lon="4.11303">
        <ele>1183</ele>
        <time>2021-04-28T12:40:34Z</time>
      </trkpt>
      <trkpt lat="45.02569" lon="4.11314">
        <ele>1183</ele>
        <time>2021-04-28T12:40:36Z</time>
      </trkpt>
      <trkpt lat="45.02575" lon="4.11326">
        <ele>1184</ele>
        <time>2021-04-28T12:40:38Z</time>
      </trkpt>
      <trkpt lat="45.0258" lon="4.11339">
        <ele>1184</ele>
        <time>2021-04-28T12:40:40Z</time>
      </trkpt>
      <trkpt lat="45.02587" lon="4.11355">
        <ele>1184</ele>
        <time>2021-04-28T12:40:43Z</time>
      </trkpt>
      <trkpt lat="45.0259" lon="4.11363">
        <ele>1184</ele>
        <time>2021-04-28T12:40:44Z</time>
      </trkpt>
      <trkpt lat="45.02598" lon="4.11384">
        <ele>1184</ele>
        <time>2021-04-28T12:40:46Z</time>
      </trkpt>
      <trkpt lat="45.02601" lon="4.11391">
        <ele>1185</ele>
        <time>2021-04-28T12:40:48Z</time>
      </trkpt>
      <trkpt lat="45.02603" lon="4.11397">
        <ele>1185</ele>
        <time>2021-04-28T12:40:49Z</time>
      </trkpt>
      <trkpt lat="45.02605" lon="4.11403">
        <ele>1185</ele>
        <time>2021-04-28T12:40:50Z</time>
      </trkpt>
      <trkpt lat="45.02607" lon="4.11409">
        <ele>1185</ele>
        <time>2021-04-28T12:40:51Z</time>
      </trkpt>
      <trkpt lat="45.0261" lon="4.11417">
        <ele>1185</ele>
        <time>2021-04-28T12:40:52Z</time>
      </trkpt>
      <trkpt lat="45.02612" lon="4.11424">
        <ele>1185</ele>
        <time>2021-04-28T12:40:53Z</time>
      </trkpt>
      <trkpt lat="45.02614" lon="4.11431">
        <ele>1185</ele>
        <time>2021-04-28T12:40:54Z</time>
      </trkpt>
      <trkpt lat="45.02616" lon="4.11438">
        <ele>1185</ele>
        <time>2021-04-28T12:40:55Z</time>
      </trkpt>
      <trkpt lat="45.02618" lon="4.11445">
        <ele>1185</ele>
        <time>2021-04-28T12:40:56Z</time>
      </trkpt>
      <trkpt lat="45.02619" lon="4.11453">
        <ele>1185</ele>
        <time>2021-04-28T12:40:57Z</time>
      </trkpt>
      <trkpt lat="45.02621" lon="4.1146">
        <ele>1186</ele>
        <time>2021-04-28T12:40:58Z</time>
      </trkpt>
      <trkpt lat="45.02623" lon="4.11467">
        <ele>1186</ele>
        <time>2021-04-28T12:40:59Z</time>
      </trkpt>
      <trkpt lat="45.02627" lon="4.11481">
        <ele>1186</ele>
        <time>2021-04-28T12:41:00Z</time>
      </trkpt>
      <trkpt lat="45.02628" lon="4.11487">
        <ele>1186</ele>
        <time>2021-04-28T12:41:02Z</time>
      </trkpt>
      <trkpt lat="45.02631" lon="4.11494">
        <ele>1186</ele>
        <time>2021-04-28T12:41:03Z</time>
      </trkpt>
      <trkpt lat="45.02633" lon="4.115">
        <ele>1187</ele>
        <time>2021-04-28T12:41:04Z</time>
      </trkpt>
      <trkpt lat="45.02637" lon="4.11513">
        <ele>1187</ele>
        <time>2021-04-28T12:41:05Z</time>
      </trkpt>
      <trkpt lat="45.02638" lon="4.11521">
        <ele>1187</ele>
        <time>2021-04-28T12:41:07Z</time>
      </trkpt>
      <trkpt lat="45.02639" lon="4.11527">
        <ele>1188</ele>
        <time>2021-04-28T12:41:08Z</time>
      </trkpt>
      <trkpt lat="45.0264" lon="4.11534">
        <ele>1188</ele>
        <time>2021-04-28T12:41:09Z</time>
      </trkpt>
      <trkpt lat="45.02641" lon="4.11541">
        <ele>1188</ele>
        <time>2021-04-28T12:41:10Z</time>
      </trkpt>
      <trkpt lat="45.02642" lon="4.11549">
        <ele>1188</ele>
        <time>2021-04-28T12:41:11Z</time>
      </trkpt>
      <trkpt lat="45.02644" lon="4.11556">
        <ele>1188</ele>
        <time>2021-04-28T12:41:12Z</time>
      </trkpt>
      <trkpt lat="45.02645" lon="4.11562">
        <ele>1188</ele>
        <time>2021-04-28T12:41:13Z</time>
      </trkpt>
      <trkpt lat="45.02645" lon="4.11569">
        <ele>1188</ele>
        <time>2021-04-28T12:41:14Z</time>
      </trkpt>
      <trkpt lat="45.02647" lon="4.11576">
        <ele>1188</ele>
        <time>2021-04-28T12:41:15Z</time>
      </trkpt>
      <trkpt lat="45.02648" lon="4.11583">
        <ele>1188</ele>
        <time>2021-04-28T12:41:16Z</time>
      </trkpt>
      <trkpt lat="45.02649" lon="4.1159">
        <ele>1188</ele>
        <time>2021-04-28T12:41:17Z</time>
      </trkpt>
      <trkpt lat="45.02651" lon="4.11597">
        <ele>1188</ele>
        <time>2021-04-28T12:41:18Z</time>
      </trkpt>
      <trkpt lat="45.02653" lon="4.11604">
        <ele>1188</ele>
        <time>2021-04-28T12:41:19Z</time>
      </trkpt>
      <trkpt lat="45.02655" lon="4.1161">
        <ele>1189</ele>
        <time>2021-04-28T12:41:20Z</time>
      </trkpt>
      <trkpt lat="45.02657" lon="4.11616">
        <ele>1189</ele>
        <time>2021-04-28T12:41:21Z</time>
      </trkpt>
      <trkpt lat="45.0266" lon="4.11622">
        <ele>1189</ele>
        <time>2021-04-28T12:41:22Z</time>
      </trkpt>
      <trkpt lat="45.02663" lon="4.11627">
        <ele>1189</ele>
        <time>2021-04-28T12:41:23Z</time>
      </trkpt>
      <trkpt lat="45.0267" lon="4.11634">
        <ele>1190</ele>
        <time>2021-04-28T12:41:24Z</time>
      </trkpt>
      <trkpt lat="45.02674" lon="4.11638">
        <ele>1190</ele>
        <time>2021-04-28T12:41:26Z</time>
      </trkpt>
      <trkpt lat="45.02678" lon="4.11642">
        <ele>1190</ele>
        <time>2021-04-28T12:41:27Z</time>
      </trkpt>
      <trkpt lat="45.02681" lon="4.11645">
        <ele>1190</ele>
        <time>2021-04-28T12:41:28Z</time>
      </trkpt>
      <trkpt lat="45.02685" lon="4.11648">
        <ele>1190</ele>
        <time>2021-04-28T12:41:29Z</time>
      </trkpt>
      <trkpt lat="45.02689" lon="4.11653">
        <ele>1190</ele>
        <time>2021-04-28T12:41:30Z</time>
      </trkpt>
      <trkpt lat="45.02692" lon="4.11658">
        <ele>1190</ele>
        <time>2021-04-28T12:41:31Z</time>
      </trkpt>
      <trkpt lat="45.02695" lon="4.11664">
        <ele>1190</ele>
        <time>2021-04-28T12:41:32Z</time>
      </trkpt>
      <trkpt lat="45.02698" lon="4.11671">
        <ele>1190</ele>
        <time>2021-04-28T12:41:33Z</time>
      </trkpt>
      <trkpt lat="45.027" lon="4.11678">
        <ele>1190</ele>
        <time>2021-04-28T12:41:34Z</time>
      </trkpt>
      <trkpt lat="45.02702" lon="4.11685">
        <ele>1191</ele>
        <time>2021-04-28T12:41:35Z</time>
      </trkpt>
      <trkpt lat="45.02705" lon="4.11691">
        <ele>1191</ele>
        <time>2021-04-28T12:41:36Z</time>
      </trkpt>
      <trkpt lat="45.02707" lon="4.11698">
        <ele>1191</ele>
        <time>2021-04-28T12:41:37Z</time>
      </trkpt>
      <trkpt lat="45.02709" lon="4.11704">
        <ele>1191</ele>
        <time>2021-04-28T12:41:38Z</time>
      </trkpt>
      <trkpt lat="45.02711" lon="4.1171">
        <ele>1191</ele>
        <time>2021-04-28T12:41:39Z</time>
      </trkpt>
      <trkpt lat="45.02713" lon="4.11716">
        <ele>1191</ele>
        <time>2021-04-28T12:41:40Z</time>
      </trkpt>
      <trkpt lat="45.02715" lon="4.11722">
        <ele>1191</ele>
        <time>2021-04-28T12:41:41Z</time>
      </trkpt>
      <trkpt lat="45.02718" lon="4.11727">
        <ele>1191</ele>
        <time>2021-04-28T12:41:42Z</time>
      </trkpt>
      <trkpt lat="45.02721" lon="4.11732">
        <ele>1191</ele>
        <time>2021-04-28T12:41:43Z</time>
      </trkpt>
      <trkpt lat="45.02725" lon="4.11737">
        <ele>1192</ele>
        <time>2021-04-28T12:41:44Z</time>
      </trkpt>
      <trkpt lat="45.02728" lon="4.11741">
        <ele>1192</ele>
        <time>2021-04-28T12:41:45Z</time>
      </trkpt>
      <trkpt lat="45.02731" lon="4.11746">
        <ele>1192</ele>
        <time>2021-04-28T12:41:46Z</time>
      </trkpt>
      <trkpt lat="45.02734" lon="4.1175">
        <ele>1192</ele>
        <time>2021-04-28T12:41:47Z</time>
      </trkpt>
      <trkpt lat="45.02737" lon="4.11755">
        <ele>1192</ele>
        <time>2021-04-28T12:41:48Z</time>
      </trkpt>
      <trkpt lat="45.0274" lon="4.1176">
        <ele>1192</ele>
        <time>2021-04-28T12:41:49Z</time>
      </trkpt>
      <trkpt lat="45.02743" lon="4.11765">
        <ele>1192</ele>
        <time>2021-04-28T12:41:50Z</time>
      </trkpt>
      <trkpt lat="45.02746" lon="4.1177">
        <ele>1192</ele>
        <time>2021-04-28T12:41:51Z</time>
      </trkpt>
      <trkpt lat="45.02749" lon="4.11775">
        <ele>1193</ele>
        <time>2021-04-28T12:41:52Z</time>
      </trkpt>
      <trkpt lat="45.02752" lon="4.11779">
        <ele>1193</ele>
        <time>2021-04-28T12:41:53Z</time>
      </trkpt>
      <trkpt lat="45.02754" lon="4.11783">
        <ele>1193</ele>
        <time>2021-04-28T12:41:54Z</time>
      </trkpt>
      <trkpt lat="45.02756" lon="4.11788">
        <ele>1193</ele>
        <time>2021-04-28T12:41:55Z</time>
      </trkpt>
      <trkpt lat="45.02756" lon="4.11794">
        <ele>1193</ele>
        <time>2021-04-28T12:41:56Z</time>
      </trkpt>
      <trkpt lat="45.02756" lon="4.11799">
        <ele>1193</ele>
        <time>2021-04-28T12:41:57Z</time>
      </trkpt>
      <trkpt lat="45.02756" lon="4.11805">
        <ele>1193</ele>
        <time>2021-04-28T12:41:58Z</time>
      </trkpt>
      <trkpt lat="45.02756" lon="4.1181">
        <ele>1193</ele>
        <time>2021-04-28T12:41:59Z</time>
      </trkpt>
      <trkpt lat="45.02756" lon="4.11816">
        <ele>1193</ele>
        <time>2021-04-28T12:42:00Z</time>
      </trkpt>
      <trkpt lat="45.02756" lon="4.11821">
        <ele>1193</ele>
        <time>2021-04-28T12:42:01Z</time>
      </trkpt>
      <trkpt lat="45.02756" lon="4.11831">
        <ele>1193</ele>
        <time>2021-04-28T12:42:02Z</time>
      </trkpt>
      <trkpt lat="45.02756" lon="4.11836">
        <ele>1193</ele>
        <time>2021-04-28T12:42:04Z</time>
      </trkpt>
      <trkpt lat="45.02756" lon="4.11842">
        <ele>1193</ele>
        <time>2021-04-28T12:42:05Z</time>
      </trkpt>
      <trkpt lat="45.02756" lon="4.11847">
        <ele>1193</ele>
        <time>2021-04-28T12:42:06Z</time>
      </trkpt>
      <trkpt lat="45.02756" lon="4.11852">
        <ele>1193</ele>
        <time>2021-04-28T12:42:07Z</time>
      </trkpt>
      <trkpt lat="45.02756" lon="4.11858">
        <ele>1193</ele>
        <time>2021-04-28T12:42:08Z</time>
      </trkpt>
      <trkpt lat="45.02757" lon="4.11863">
        <ele>1194</ele>
        <time>2021-04-28T12:42:09Z</time>
      </trkpt>
      <trkpt lat="45.02757" lon="4.11868">
        <ele>1194</ele>
        <time>2021-04-28T12:42:10Z</time>
      </trkpt>
      <trkpt lat="45.02757" lon="4.11873">
        <ele>1194</ele>
        <time>2021-04-28T12:42:11Z</time>
      </trkpt>
      <trkpt lat="45.02757" lon="4.11878">
        <ele>1194</ele>
        <time>2021-04-28T12:42:12Z</time>
      </trkpt>
      <trkpt lat="45.02757" lon="4.11884">
        <ele>1194</ele>
        <time>2021-04-28T12:42:13Z</time>
      </trkpt>
      <trkpt lat="45.02757" lon="4.11889">
        <ele>1194</ele>
        <time>2021-04-28T12:42:14Z</time>
      </trkpt>
      <trkpt lat="45.02758" lon="4.11894">
        <ele>1194</ele>
        <time>2021-04-28T12:42:15Z</time>
      </trkpt>
      <trkpt lat="45.02758" lon="4.119">
        <ele>1195</ele>
        <time>2021-04-28T12:42:16Z</time>
      </trkpt>
      <trkpt lat="45.02758" lon="4.11905">
        <ele>1195</ele>
        <time>2021-04-28T12:42:17Z</time>
      </trkpt>
      <trkpt lat="45.02758" lon="4.11911">
        <ele>1195</ele>
        <time>2021-04-28T12:42:18Z</time>
      </trkpt>
      <trkpt lat="45.02758" lon="4.11916">
        <ele>1195</ele>
        <time>2021-04-28T12:42:19Z</time>
      </trkpt>
      <trkpt lat="45.02758" lon="4.11922">
        <ele>1195</ele>
        <time>2021-04-28T12:42:20Z</time>
      </trkpt>
      <trkpt lat="45.02758" lon="4.11927">
        <ele>1195</ele>
        <time>2021-04-28T12:42:21Z</time>
      </trkpt>
      <trkpt lat="45.02758" lon="4.11932">
        <ele>1195</ele>
        <time>2021-04-28T12:42:22Z</time>
      </trkpt>
      <trkpt lat="45.02758" lon="4.11938">
        <ele>1195</ele>
        <time>2021-04-28T12:42:23Z</time>
      </trkpt>
      <trkpt lat="45.02758" lon="4.11944">
        <ele>1196</ele>
        <time>2021-04-28T12:42:24Z</time>
      </trkpt>
      <trkpt lat="45.02758" lon="4.11949">
        <ele>1196</ele>
        <time>2021-04-28T12:42:25Z</time>
      </trkpt>
      <trkpt lat="45.02758" lon="4.11955">
        <ele>1196</ele>
        <time>2021-04-28T12:42:26Z</time>
      </trkpt>
      <trkpt lat="45.02758" lon="4.11961">
        <ele>1196</ele>
        <time>2021-04-28T12:42:27Z</time>
      </trkpt>
      <trkpt lat="45.02758" lon="4.11966">
        <ele>1196</ele>
        <time>2021-04-28T12:42:28Z</time>
      </trkpt>
      <trkpt lat="45.02758" lon="4.11972">
        <ele>1196</ele>
        <time>2021-04-28T12:42:29Z</time>
      </trkpt>
      <trkpt lat="45.02758" lon="4.11977">
        <ele>1196</ele>
        <time>2021-04-28T12:42:30Z</time>
      </trkpt>
      <trkpt lat="45.02758" lon="4.11983">
        <ele>1196</ele>
        <time>2021-04-28T12:42:31Z</time>
      </trkpt>
      <trkpt lat="45.02758" lon="4.11988">
        <ele>1197</ele>
        <time>2021-04-28T12:42:32Z</time>
      </trkpt>
      <trkpt lat="45.02758" lon="4.11994">
        <ele>1197</ele>
        <time>2021-04-28T12:42:33Z</time>
      </trkpt>
      <trkpt lat="45.02758" lon="4.11999">
        <ele>1197</ele>
        <time>2021-04-28T12:42:34Z</time>
      </trkpt>
      <trkpt lat="45.02758" lon="4.12005">
        <ele>1197</ele>
        <time>2021-04-28T12:42:35Z</time>
      </trkpt>
      <trkpt lat="45.02757" lon="4.1201">
        <ele>1197</ele>
        <time>2021-04-28T12:42:36Z</time>
      </trkpt>
      <trkpt lat="45.02757" lon="4.12016">
        <ele>1197</ele>
        <time>2021-04-28T12:42:37Z</time>
      </trkpt>
      <trkpt lat="45.02757" lon="4.12022">
        <ele>1197</ele>
        <time>2021-04-28T12:42:38Z</time>
      </trkpt>
      <trkpt lat="45.02757" lon="4.12027">
        <ele>1197</ele>
        <time>2021-04-28T12:42:39Z</time>
      </trkpt>
      <trkpt lat="45.02756" lon="4.12038">
        <ele>1197</ele>
        <time>2021-04-28T12:42:40Z</time>
      </trkpt>
      <trkpt lat="45.02756" lon="4.12043">
        <ele>1198</ele>
        <time>2021-04-28T12:42:42Z</time>
      </trkpt>
      <trkpt lat="45.02755" lon="4.12049">
        <ele>1198</ele>
        <time>2021-04-28T12:42:43Z</time>
      </trkpt>
      <trkpt lat="45.02755" lon="4.12055">
        <ele>1198</ele>
        <time>2021-04-28T12:42:44Z</time>
      </trkpt>
      <trkpt lat="45.02754" lon="4.1206">
        <ele>1198</ele>
        <time>2021-04-28T12:42:45Z</time>
      </trkpt>
      <trkpt lat="45.02754" lon="4.12066">
        <ele>1199</ele>
        <time>2021-04-28T12:42:46Z</time>
      </trkpt>
      <trkpt lat="45.02754" lon="4.12071">
        <ele>1199</ele>
        <time>2021-04-28T12:42:47Z</time>
      </trkpt>
      <trkpt lat="45.02753" lon="4.12077">
        <ele>1199</ele>
        <time>2021-04-28T12:42:48Z</time>
      </trkpt>
      <trkpt lat="45.02753" lon="4.12082">
        <ele>1199</ele>
        <time>2021-04-28T12:42:49Z</time>
      </trkpt>
      <trkpt lat="45.02753" lon="4.12088">
        <ele>1200</ele>
        <time>2021-04-28T12:42:50Z</time>
      </trkpt>
      <trkpt lat="45.02752" lon="4.12094">
        <ele>1200</ele>
        <time>2021-04-28T12:42:51Z</time>
      </trkpt>
      <trkpt lat="45.02752" lon="4.12099">
        <ele>1200</ele>
        <time>2021-04-28T12:42:52Z</time>
      </trkpt>
      <trkpt lat="45.02751" lon="4.12105">
        <ele>1200</ele>
        <time>2021-04-28T12:42:53Z</time>
      </trkpt>
      <trkpt lat="45.02751" lon="4.12111">
        <ele>1200</ele>
        <time>2021-04-28T12:42:54Z</time>
      </trkpt>
      <trkpt lat="45.02751" lon="4.12117">
        <ele>1201</ele>
        <time>2021-04-28T12:42:55Z</time>
      </trkpt>
      <trkpt lat="45.02751" lon="4.12124">
        <ele>1201</ele>
        <time>2021-04-28T12:42:56Z</time>
      </trkpt>
      <trkpt lat="45.02751" lon="4.1213">
        <ele>1201</ele>
        <time>2021-04-28T12:42:57Z</time>
      </trkpt>
      <trkpt lat="45.0275" lon="4.12136">
        <ele>1201</ele>
        <time>2021-04-28T12:42:58Z</time>
      </trkpt>
      <trkpt lat="45.0275" lon="4.12142">
        <ele>1201</ele>
        <time>2021-04-28T12:42:59Z</time>
      </trkpt>
      <trkpt lat="45.0275" lon="4.12148">
        <ele>1201</ele>
        <time>2021-04-28T12:43:00Z</time>
      </trkpt>
      <trkpt lat="45.0275" lon="4.12153">
        <ele>1201</ele>
        <time>2021-04-28T12:43:01Z</time>
      </trkpt>
      <trkpt lat="45.02751" lon="4.12159">
        <ele>1202</ele>
        <time>2021-04-28T12:43:02Z</time>
      </trkpt>
      <trkpt lat="45.02751" lon="4.12164">
        <ele>1202</ele>
        <time>2021-04-28T12:43:03Z</time>
      </trkpt>
      <trkpt lat="45.02752" lon="4.1217">
        <ele>1202</ele>
        <time>2021-04-28T12:43:04Z</time>
      </trkpt>
      <trkpt lat="45.02753" lon="4.12175">
        <ele>1202</ele>
        <time>2021-04-28T12:43:05Z</time>
      </trkpt>
      <trkpt lat="45.02755" lon="4.1218">
        <ele>1202</ele>
        <time>2021-04-28T12:43:06Z</time>
      </trkpt>
      <trkpt lat="45.02756" lon="4.12186">
        <ele>1202</ele>
        <time>2021-04-28T12:43:07Z</time>
      </trkpt>
      <trkpt lat="45.02759" lon="4.12192">
        <ele>1202</ele>
        <time>2021-04-28T12:43:08Z</time>
      </trkpt>
      <trkpt lat="45.02762" lon="4.12197">
        <ele>1203</ele>
        <time>2021-04-28T12:43:09Z</time>
      </trkpt>
      <trkpt lat="45.02765" lon="4.12203">
        <ele>1203</ele>
        <time>2021-04-28T12:43:10Z</time>
      </trkpt>
      <trkpt lat="45.02768" lon="4.12208">
        <ele>1203</ele>
        <time>2021-04-28T12:43:11Z</time>
      </trkpt>
      <trkpt lat="45.02772" lon="4.12212">
        <ele>1203</ele>
        <time>2021-04-28T12:43:12Z</time>
      </trkpt>
      <trkpt lat="45.02775" lon="4.12217">
        <ele>1204</ele>
        <time>2021-04-28T12:43:13Z</time>
      </trkpt>
      <trkpt lat="45.02779" lon="4.12221">
        <ele>1204</ele>
        <time>2021-04-28T12:43:14Z</time>
      </trkpt>
      <trkpt lat="45.02782" lon="4.12224">
        <ele>1204</ele>
        <time>2021-04-28T12:43:15Z</time>
      </trkpt>
      <trkpt lat="45.02786" lon="4.12227">
        <ele>1204</ele>
        <time>2021-04-28T12:43:16Z</time>
      </trkpt>
      <trkpt lat="45.0279" lon="4.12229">
        <ele>1205</ele>
        <time>2021-04-28T12:43:17Z</time>
      </trkpt>
      <trkpt lat="45.02798" lon="4.12233">
        <ele>1205</ele>
        <time>2021-04-28T12:43:18Z</time>
      </trkpt>
      <trkpt lat="45.02802" lon="4.12235">
        <ele>1206</ele>
        <time>2021-04-28T12:43:20Z</time>
      </trkpt>
      <trkpt lat="45.02806" lon="4.12237">
        <ele>1206</ele>
        <time>2021-04-28T12:43:21Z</time>
      </trkpt>
      <trkpt lat="45.0281" lon="4.12238">
        <ele>1206</ele>
        <time>2021-04-28T12:43:22Z</time>
      </trkpt>
      <trkpt lat="45.02814" lon="4.12239">
        <ele>1207</ele>
        <time>2021-04-28T12:43:23Z</time>
      </trkpt>
      <trkpt lat="45.02818" lon="4.1224">
        <ele>1207</ele>
        <time>2021-04-28T12:43:24Z</time>
      </trkpt>
      <trkpt lat="45.02822" lon="4.12239">
        <ele>1207</ele>
        <time>2021-04-28T12:43:25Z</time>
      </trkpt>
      <trkpt lat="45.02826" lon="4.12238">
        <ele>1207</ele>
        <time>2021-04-28T12:43:26Z</time>
      </trkpt>
      <trkpt lat="45.02829" lon="4.12236">
        <ele>1207</ele>
        <time>2021-04-28T12:43:27Z</time>
      </trkpt>
      <trkpt lat="45.02832" lon="4.12234">
        <ele>1207</ele>
        <time>2021-04-28T12:43:28Z</time>
      </trkpt>
      <trkpt lat="45.02835" lon="4.12232">
        <ele>1208</ele>
        <time>2021-04-28T12:43:29Z</time>
      </trkpt>
      <trkpt lat="45.02838" lon="4.1223">
        <ele>1208</ele>
        <time>2021-04-28T12:43:30Z</time>
      </trkpt>
      <trkpt lat="45.02842" lon="4.12228">
        <ele>1208</ele>
        <time>2021-04-28T12:43:31Z</time>
      </trkpt>
      <trkpt lat="45.02845" lon="4.12226">
        <ele>1208</ele>
        <time>2021-04-28T12:43:32Z</time>
      </trkpt>
      <trkpt lat="45.02849" lon="4.12225">
        <ele>1209</ele>
        <time>2021-04-28T12:43:33Z</time>
      </trkpt>
      <trkpt lat="45.02853" lon="4.12222">
        <ele>1209</ele>
        <time>2021-04-28T12:43:34Z</time>
      </trkpt>
      <trkpt lat="45.02857" lon="4.1222">
        <ele>1209</ele>
        <time>2021-04-28T12:43:35Z</time>
      </trkpt>
      <trkpt lat="45.02861" lon="4.12218">
        <ele>1210</ele>
        <time>2021-04-28T12:43:36Z</time>
      </trkpt>
      <trkpt lat="45.02869" lon="4.12213">
        <ele>1210</ele>
        <time>2021-04-28T12:43:37Z</time>
      </trkpt>
      <trkpt lat="45.02873" lon="4.12211">
        <ele>1211</ele>
        <time>2021-04-28T12:43:39Z</time>
      </trkpt>
      <trkpt lat="45.02877" lon="4.12208">
        <ele>1211</ele>
        <time>2021-04-28T12:43:40Z</time>
      </trkpt>
      <trkpt lat="45.0288" lon="4.12206">
        <ele>1211</ele>
        <time>2021-04-28T12:43:41Z</time>
      </trkpt>
      <trkpt lat="45.02885" lon="4.12204">
        <ele>1212</ele>
        <time>2021-04-28T12:43:42Z</time>
      </trkpt>
      <trkpt lat="45.02889" lon="4.12201">
        <ele>1212</ele>
        <time>2021-04-28T12:43:43Z</time>
      </trkpt>
      <trkpt lat="45.02894" lon="4.12198">
        <ele>1212</ele>
        <time>2021-04-28T12:43:44Z</time>
      </trkpt>
      <trkpt lat="45.02898" lon="4.12195">
        <ele>1213</ele>
        <time>2021-04-28T12:43:45Z</time>
      </trkpt>
      <trkpt lat="45.02903" lon="4.12193">
        <ele>1213</ele>
        <time>2021-04-28T12:43:46Z</time>
      </trkpt>
      <trkpt lat="45.02907" lon="4.1219">
        <ele>1213</ele>
        <time>2021-04-28T12:43:47Z</time>
      </trkpt>
      <trkpt lat="45.02911" lon="4.12187">
        <ele>1213</ele>
        <time>2021-04-28T12:43:48Z</time>
      </trkpt>
      <trkpt lat="45.02916" lon="4.12184">
        <ele>1213</ele>
        <time>2021-04-28T12:43:49Z</time>
      </trkpt>
      <trkpt lat="45.02919" lon="4.12182">
        <ele>1213</ele>
        <time>2021-04-28T12:43:50Z</time>
      </trkpt>
      <trkpt lat="45.02923" lon="4.1218">
        <ele>1213</ele>
        <time>2021-04-28T12:43:51Z</time>
      </trkpt>
      <trkpt lat="45.02927" lon="4.12179">
        <ele>1213</ele>
        <time>2021-04-28T12:43:52Z</time>
      </trkpt>
      <trkpt lat="45.02931" lon="4.12176">
        <ele>1213</ele>
        <time>2021-04-28T12:43:53Z</time>
      </trkpt>
      <trkpt lat="45.02936" lon="4.12173">
        <ele>1213</ele>
        <time>2021-04-28T12:43:54Z</time>
      </trkpt>
      <trkpt lat="45.0294" lon="4.1217">
        <ele>1213</ele>
        <time>2021-04-28T12:43:55Z</time>
      </trkpt>
      <trkpt lat="45.02948" lon="4.12166">
        <ele>1213</ele>
        <time>2021-04-28T12:43:56Z</time>
      </trkpt>
      <trkpt lat="45.02952" lon="4.12165">
        <ele>1213</ele>
        <time>2021-04-28T12:43:58Z</time>
      </trkpt>
      <trkpt lat="45.02957" lon="4.12164">
        <ele>1213</ele>
        <time>2021-04-28T12:43:59Z</time>
      </trkpt>
      <trkpt lat="45.02962" lon="4.12164">
        <ele>1213</ele>
        <time>2021-04-28T12:44:00Z</time>
      </trkpt>
      <trkpt lat="45.02967" lon="4.12164">
        <ele>1213</ele>
        <time>2021-04-28T12:44:01Z</time>
      </trkpt>
      <trkpt lat="45.02972" lon="4.12164">
        <ele>1213</ele>
        <time>2021-04-28T12:44:02Z</time>
      </trkpt>
      <trkpt lat="45.02977" lon="4.12165">
        <ele>1213</ele>
        <time>2021-04-28T12:44:03Z</time>
      </trkpt>
      <trkpt lat="45.02982" lon="4.12166">
        <ele>1212</ele>
        <time>2021-04-28T12:44:04Z</time>
      </trkpt>
      <trkpt lat="45.02987" lon="4.12167">
        <ele>1212</ele>
        <time>2021-04-28T12:44:05Z</time>
      </trkpt>
      <trkpt lat="45.02992" lon="4.12168">
        <ele>1212</ele>
        <time>2021-04-28T12:44:06Z</time>
      </trkpt>
      <trkpt lat="45.02997" lon="4.12169">
        <ele>1212</ele>
        <time>2021-04-28T12:44:07Z</time>
      </trkpt>
      <trkpt lat="45.03001" lon="4.12171">
        <ele>1212</ele>
        <time>2021-04-28T12:44:08Z</time>
      </trkpt>
      <trkpt lat="45.03006" lon="4.12172">
        <ele>1212</ele>
        <time>2021-04-28T12:44:09Z</time>
      </trkpt>
      <trkpt lat="45.0301" lon="4.12173">
        <ele>1212</ele>
        <time>2021-04-28T12:44:10Z</time>
      </trkpt>
      <trkpt lat="45.03015" lon="4.12174">
        <ele>1212</ele>
        <time>2021-04-28T12:44:11Z</time>
      </trkpt>
      <trkpt lat="45.0302" lon="4.12175">
        <ele>1212</ele>
        <time>2021-04-28T12:44:12Z</time>
      </trkpt>
      <trkpt lat="45.03024" lon="4.12176">
        <ele>1212</ele>
        <time>2021-04-28T12:44:13Z</time>
      </trkpt>
      <trkpt lat="45.03028" lon="4.12176">
        <ele>1212</ele>
        <time>2021-04-28T12:44:14Z</time>
      </trkpt>
      <trkpt lat="45.03037" lon="4.12177">
        <ele>1212</ele>
        <time>2021-04-28T12:44:15Z</time>
      </trkpt>
      <trkpt lat="45.03042" lon="4.12177">
        <ele>1213</ele>
        <time>2021-04-28T12:44:17Z</time>
      </trkpt>
      <trkpt lat="45.03046" lon="4.12178">
        <ele>1213</ele>
        <time>2021-04-28T12:44:18Z</time>
      </trkpt>
      <trkpt lat="45.03051" lon="4.12178">
        <ele>1213</ele>
        <time>2021-04-28T12:44:19Z</time>
      </trkpt>
      <trkpt lat="45.03055" lon="4.1218">
        <ele>1213</ele>
        <time>2021-04-28T12:44:20Z</time>
      </trkpt>
      <trkpt lat="45.0306" lon="4.12182">
        <ele>1213</ele>
        <time>2021-04-28T12:44:21Z</time>
      </trkpt>
      <trkpt lat="45.03064" lon="4.12184">
        <ele>1213</ele>
        <time>2021-04-28T12:44:22Z</time>
      </trkpt>
      <trkpt lat="45.03068" lon="4.12187">
        <ele>1213</ele>
        <time>2021-04-28T12:44:23Z</time>
      </trkpt>
      <trkpt lat="45.03072" lon="4.1219">
        <ele>1213</ele>
        <time>2021-04-28T12:44:24Z</time>
      </trkpt>
      <trkpt lat="45.03075" lon="4.12193">
        <ele>1214</ele>
        <time>2021-04-28T12:44:25Z</time>
      </trkpt>
      <trkpt lat="45.03079" lon="4.12197">
        <ele>1214</ele>
        <time>2021-04-28T12:44:26Z</time>
      </trkpt>
      <trkpt lat="45.03083" lon="4.12202">
        <ele>1213</ele>
        <time>2021-04-28T12:44:27Z</time>
      </trkpt>
      <trkpt lat="45.03087" lon="4.12206">
        <ele>1214</ele>
        <time>2021-04-28T12:44:28Z</time>
      </trkpt>
      <trkpt lat="45.03091" lon="4.1221">
        <ele>1214</ele>
        <time>2021-04-28T12:44:29Z</time>
      </trkpt>
      <trkpt lat="45.03095" lon="4.12213">
        <ele>1214</ele>
        <time>2021-04-28T12:44:30Z</time>
      </trkpt>
      <trkpt lat="45.03099" lon="4.12214">
        <ele>1214</ele>
        <time>2021-04-28T12:44:31Z</time>
      </trkpt>
      <trkpt lat="45.03104" lon="4.12216">
        <ele>1214</ele>
        <time>2021-04-28T12:44:32Z</time>
      </trkpt>
      <trkpt lat="45.03109" lon="4.12216">
        <ele>1214</ele>
        <time>2021-04-28T12:44:33Z</time>
      </trkpt>
      <trkpt lat="45.03118" lon="4.12216">
        <ele>1214</ele>
        <time>2021-04-28T12:44:34Z</time>
      </trkpt>
      <trkpt lat="45.03122" lon="4.12216">
        <ele>1214</ele>
        <time>2021-04-28T12:44:36Z</time>
      </trkpt>
      <trkpt lat="45.03127" lon="4.12216">
        <ele>1214</ele>
        <time>2021-04-28T12:44:37Z</time>
      </trkpt>
      <trkpt lat="45.03132" lon="4.12216">
        <ele>1214</ele>
        <time>2021-04-28T12:44:38Z</time>
      </trkpt>
      <trkpt lat="45.03136" lon="4.12216">
        <ele>1214</ele>
        <time>2021-04-28T12:44:39Z</time>
      </trkpt>
      <trkpt lat="45.03141" lon="4.12216">
        <ele>1214</ele>
        <time>2021-04-28T12:44:40Z</time>
      </trkpt>
      <trkpt lat="45.03146" lon="4.12215">
        <ele>1214</ele>
        <time>2021-04-28T12:44:41Z</time>
      </trkpt>
      <trkpt lat="45.0315" lon="4.12212">
        <ele>1214</ele>
        <time>2021-04-28T12:44:42Z</time>
      </trkpt>
      <trkpt lat="45.03155" lon="4.1221">
        <ele>1215</ele>
        <time>2021-04-28T12:44:43Z</time>
      </trkpt>
      <trkpt lat="45.03159" lon="4.12208">
        <ele>1215</ele>
        <time>2021-04-28T12:44:44Z</time>
      </trkpt>
      <trkpt lat="45.03163" lon="4.12205">
        <ele>1215</ele>
        <time>2021-04-28T12:44:45Z</time>
      </trkpt>
      <trkpt lat="45.03167" lon="4.12202">
        <ele>1215</ele>
        <time>2021-04-28T12:44:46Z</time>
      </trkpt>
      <trkpt lat="45.03171" lon="4.122">
        <ele>1215</ele>
        <time>2021-04-28T12:44:47Z</time>
      </trkpt>
      <trkpt lat="45.03174" lon="4.12198">
        <ele>1215</ele>
        <time>2021-04-28T12:44:48Z</time>
      </trkpt>
      <trkpt lat="45.03178" lon="4.12197">
        <ele>1215</ele>
        <time>2021-04-28T12:44:49Z</time>
      </trkpt>
      <trkpt lat="45.03182" lon="4.12195">
        <ele>1215</ele>
        <time>2021-04-28T12:44:50Z</time>
      </trkpt>
      <trkpt lat="45.03185" lon="4.12193">
        <ele>1215</ele>
        <time>2021-04-28T12:44:51Z</time>
      </trkpt>
      <trkpt lat="45.03188" lon="4.12192">
        <ele>1215</ele>
        <time>2021-04-28T12:44:52Z</time>
      </trkpt>
      <trkpt lat="45.03194" lon="4.12188">
        <ele>1215</ele>
        <time>2021-04-28T12:44:53Z</time>
      </trkpt>
      <trkpt lat="45.03197" lon="4.12186">
        <ele>1216</ele>
        <time>2021-04-28T12:44:55Z</time>
      </trkpt>
      <trkpt lat="45.03201" lon="4.12183">
        <ele>1216</ele>
        <time>2021-04-28T12:44:56Z</time>
      </trkpt>
      <trkpt lat="45.03204" lon="4.12181">
        <ele>1216</ele>
        <time>2021-04-28T12:44:57Z</time>
      </trkpt>
      <trkpt lat="45.03206" lon="4.12177">
        <ele>1216</ele>
        <time>2021-04-28T12:44:58Z</time>
      </trkpt>
      <trkpt lat="45.03209" lon="4.12174">
        <ele>1217</ele>
        <time>2021-04-28T12:44:59Z</time>
      </trkpt>
      <trkpt lat="45.03211" lon="4.1217">
        <ele>1217</ele>
        <time>2021-04-28T12:45:00Z</time>
      </trkpt>
      <trkpt lat="45.03214" lon="4.12166">
        <ele>1217</ele>
        <time>2021-04-28T12:45:01Z</time>
      </trkpt>
      <trkpt lat="45.03216" lon="4.12162">
        <ele>1217</ele>
        <time>2021-04-28T12:45:02Z</time>
      </trkpt>
      <trkpt lat="45.03218" lon="4.12158">
        <ele>1217</ele>
        <time>2021-04-28T12:45:03Z</time>
      </trkpt>
      <trkpt lat="45.03221" lon="4.12154">
        <ele>1218</ele>
        <time>2021-04-28T12:45:04Z</time>
      </trkpt>
      <trkpt lat="45.03223" lon="4.1215">
        <ele>1218</ele>
        <time>2021-04-28T12:45:05Z</time>
      </trkpt>
      <trkpt lat="45.03225" lon="4.12146">
        <ele>1218</ele>
        <time>2021-04-28T12:45:06Z</time>
      </trkpt>
      <trkpt lat="45.03227" lon="4.12142">
        <ele>1218</ele>
        <time>2021-04-28T12:45:07Z</time>
      </trkpt>
      <trkpt lat="45.03229" lon="4.12138">
        <ele>1218</ele>
        <time>2021-04-28T12:45:08Z</time>
      </trkpt>
      <trkpt lat="45.03231" lon="4.12134">
        <ele>1218</ele>
        <time>2021-04-28T12:45:09Z</time>
      </trkpt>
      <trkpt lat="45.03233" lon="4.1213">
        <ele>1219</ele>
        <time>2021-04-28T12:45:10Z</time>
      </trkpt>
      <trkpt lat="45.03235" lon="4.12126">
        <ele>1219</ele>
        <time>2021-04-28T12:45:11Z</time>
      </trkpt>
      <trkpt lat="45.03239" lon="4.12119">
        <ele>1219</ele>
        <time>2021-04-28T12:45:12Z</time>
      </trkpt>
      <trkpt lat="45.03241" lon="4.12115">
        <ele>1220</ele>
        <time>2021-04-28T12:45:14Z</time>
      </trkpt>
      <trkpt lat="45.03244" lon="4.12112">
        <ele>1220</ele>
        <time>2021-04-28T12:45:15Z</time>
      </trkpt>
      <trkpt lat="45.03246" lon="4.12109">
        <ele>1220</ele>
        <time>2021-04-28T12:45:16Z</time>
      </trkpt>
      <trkpt lat="45.03249" lon="4.12106">
        <ele>1220</ele>
        <time>2021-04-28T12:45:17Z</time>
      </trkpt>
      <trkpt lat="45.03251" lon="4.12103">
        <ele>1220</ele>
        <time>2021-04-28T12:45:18Z</time>
      </trkpt>
      <trkpt lat="45.03254" lon="4.121">
        <ele>1221</ele>
        <time>2021-04-28T12:45:19Z</time>
      </trkpt>
      <trkpt lat="45.03256" lon="4.12097">
        <ele>1221</ele>
        <time>2021-04-28T12:45:20Z</time>
      </trkpt>
      <trkpt lat="45.03258" lon="4.12094">
        <ele>1221</ele>
        <time>2021-04-28T12:45:21Z</time>
      </trkpt>
      <trkpt lat="45.0326" lon="4.12091">
        <ele>1221</ele>
        <time>2021-04-28T12:45:22Z</time>
      </trkpt>
      <trkpt lat="45.03263" lon="4.12088">
        <ele>1222</ele>
        <time>2021-04-28T12:45:23Z</time>
      </trkpt>
      <trkpt lat="45.03265" lon="4.12085">
        <ele>1222</ele>
        <time>2021-04-28T12:45:24Z</time>
      </trkpt>
      <trkpt lat="45.03267" lon="4.12082">
        <ele>1222</ele>
        <time>2021-04-28T12:45:25Z</time>
      </trkpt>
      <trkpt lat="45.03269" lon="4.12079">
        <ele>1223</ele>
        <time>2021-04-28T12:45:26Z</time>
      </trkpt>
      <trkpt lat="45.03271" lon="4.12076">
        <ele>1223</ele>
        <time>2021-04-28T12:45:27Z</time>
      </trkpt>
      <trkpt lat="45.03273" lon="4.12074">
        <ele>1223</ele>
        <time>2021-04-28T12:45:28Z</time>
      </trkpt>
      <trkpt lat="45.03275" lon="4.12072">
        <ele>1224</ele>
        <time>2021-04-28T12:45:29Z</time>
      </trkpt>
      <trkpt lat="45.03276" lon="4.1207">
        <ele>1224</ele>
        <time>2021-04-28T12:45:30Z</time>
      </trkpt>
      <trkpt lat="45.0328" lon="4.12065">
        <ele>1224</ele>
        <time>2021-04-28T12:45:31Z</time>
      </trkpt>
      <trkpt lat="45.03282" lon="4.12063">
        <ele>1225</ele>
        <time>2021-04-28T12:45:33Z</time>
      </trkpt>
      <trkpt lat="45.03284" lon="4.12061">
        <ele>1225</ele>
        <time>2021-04-28T12:45:34Z</time>
      </trkpt>
      <trkpt lat="45.03287" lon="4.12059">
        <ele>1225</ele>
        <time>2021-04-28T12:45:35Z</time>
      </trkpt>
      <trkpt lat="45.03289" lon="4.12058">
        <ele>1226</ele>
        <time>2021-04-28T12:45:36Z</time>
      </trkpt>
      <trkpt lat="45.03292" lon="4.12058">
        <ele>1226</ele>
        <time>2021-04-28T12:45:37Z</time>
      </trkpt>
      <trkpt lat="45.03296" lon="4.12059">
        <ele>1226</ele>
        <time>2021-04-28T12:45:38Z</time>
      </trkpt>
      <trkpt lat="45.03298" lon="4.1206">
        <ele>1226</ele>
        <time>2021-04-28T12:45:39Z</time>
      </trkpt>
      <trkpt lat="45.03299" lon="4.12062">
        <ele>1227</ele>
        <time>2021-04-28T12:45:40Z</time>
      </trkpt>
      <trkpt lat="45.03301" lon="4.12065">
        <ele>1227</ele>
        <time>2021-04-28T12:45:41Z</time>
      </trkpt>
      <trkpt lat="45.03303" lon="4.12067">
        <ele>1227</ele>
        <time>2021-04-28T12:45:42Z</time>
      </trkpt>
      <trkpt lat="45.03304" lon="4.1207">
        <ele>1228</ele>
        <time>2021-04-28T12:45:43Z</time>
      </trkpt>
      <trkpt lat="45.03305" lon="4.12074">
        <ele>1228</ele>
        <time>2021-04-28T12:45:44Z</time>
      </trkpt>
      <trkpt lat="45.03306" lon="4.12078">
        <ele>1228</ele>
        <time>2021-04-28T12:45:45Z</time>
      </trkpt>
      <trkpt lat="45.03308" lon="4.12082">
        <ele>1228</ele>
        <time>2021-04-28T12:45:46Z</time>
      </trkpt>
      <trkpt lat="45.03309" lon="4.12086">
        <ele>1229</ele>
        <time>2021-04-28T12:45:47Z</time>
      </trkpt>
      <trkpt lat="45.0331" lon="4.12091">
        <ele>1229</ele>
        <time>2021-04-28T12:45:48Z</time>
      </trkpt>
      <trkpt lat="45.03311" lon="4.12096">
        <ele>1229</ele>
        <time>2021-04-28T12:45:49Z</time>
      </trkpt>
      <trkpt lat="45.03314" lon="4.12105">
        <ele>1230</ele>
        <time>2021-04-28T12:45:50Z</time>
      </trkpt>
      <trkpt lat="45.03316" lon="4.12109">
        <ele>1230</ele>
        <time>2021-04-28T12:45:52Z</time>
      </trkpt>
      <trkpt lat="45.03317" lon="4.12113">
        <ele>1230</ele>
        <time>2021-04-28T12:45:53Z</time>
      </trkpt>
      <trkpt lat="45.0332" lon="4.12117">
        <ele>1230</ele>
        <time>2021-04-28T12:45:54Z</time>
      </trkpt>
      <trkpt lat="45.03323" lon="4.12121">
        <ele>1230</ele>
        <time>2021-04-28T12:45:55Z</time>
      </trkpt>
      <trkpt lat="45.03325" lon="4.12125">
        <ele>1230</ele>
        <time>2021-04-28T12:45:56Z</time>
      </trkpt>
      <trkpt lat="45.03327" lon="4.12128">
        <ele>1231</ele>
        <time>2021-04-28T12:45:57Z</time>
      </trkpt>
      <trkpt lat="45.0333" lon="4.12132">
        <ele>1231</ele>
        <time>2021-04-28T12:45:58Z</time>
      </trkpt>
      <trkpt lat="45.03332" lon="4.12136">
        <ele>1231</ele>
        <time>2021-04-28T12:45:59Z</time>
      </trkpt>
      <trkpt lat="45.03335" lon="4.1214">
        <ele>1231</ele>
        <time>2021-04-28T12:46:00Z</time>
      </trkpt>
      <trkpt lat="45.03338" lon="4.12144">
        <ele>1231</ele>
        <time>2021-04-28T12:46:01Z</time>
      </trkpt>
      <trkpt lat="45.0334" lon="4.12147">
        <ele>1232</ele>
        <time>2021-04-28T12:46:02Z</time>
      </trkpt>
      <trkpt lat="45.03343" lon="4.1215">
        <ele>1232</ele>
        <time>2021-04-28T12:46:03Z</time>
      </trkpt>
      <trkpt lat="45.03346" lon="4.12153">
        <ele>1232</ele>
        <time>2021-04-28T12:46:04Z</time>
      </trkpt>
      <trkpt lat="45.0335" lon="4.12157">
        <ele>1232</ele>
        <time>2021-04-28T12:46:05Z</time>
      </trkpt>
      <trkpt lat="45.03353" lon="4.12161">
        <ele>1232</ele>
        <time>2021-04-28T12:46:06Z</time>
      </trkpt>
      <trkpt lat="45.03355" lon="4.12165">
        <ele>1232</ele>
        <time>2021-04-28T12:46:07Z</time>
      </trkpt>
      <trkpt lat="45.03358" lon="4.1217">
        <ele>1232</ele>
        <time>2021-04-28T12:46:08Z</time>
      </trkpt>
      <trkpt lat="45.03362" lon="4.12179">
        <ele>1233</ele>
        <time>2021-04-28T12:46:09Z</time>
      </trkpt>
      <trkpt lat="45.03364" lon="4.12184">
        <ele>1233</ele>
        <time>2021-04-28T12:46:11Z</time>
      </trkpt>
      <trkpt lat="45.03366" lon="4.12189">
        <ele>1233</ele>
        <time>2021-04-28T12:46:12Z</time>
      </trkpt>
      <trkpt lat="45.03368" lon="4.12194">
        <ele>1234</ele>
        <time>2021-04-28T12:46:13Z</time>
      </trkpt>
      <trkpt lat="45.0337" lon="4.12199">
        <ele>1234</ele>
        <time>2021-04-28T12:46:14Z</time>
      </trkpt>
      <trkpt lat="45.03372" lon="4.12204">
        <ele>1234</ele>
        <time>2021-04-28T12:46:15Z</time>
      </trkpt>
      <trkpt lat="45.03373" lon="4.12208">
        <ele>1234</ele>
        <time>2021-04-28T12:46:16Z</time>
      </trkpt>
      <trkpt lat="45.03375" lon="4.12213">
        <ele>1234</ele>
        <time>2021-04-28T12:46:17Z</time>
      </trkpt>
      <trkpt lat="45.03378" lon="4.12215">
        <ele>1234</ele>
        <time>2021-04-28T12:46:20Z</time>
      </trkpt>
      <trkpt lat="45.03381" lon="4.12217">
        <ele>1235</ele>
        <time>2021-04-28T12:46:21Z</time>
      </trkpt>
      <trkpt lat="45.03385" lon="4.12219">
        <ele>1235</ele>
        <time>2021-04-28T12:46:22Z</time>
      </trkpt>
      <trkpt lat="45.03389" lon="4.12221">
        <ele>1235</ele>
        <time>2021-04-28T12:46:23Z</time>
      </trkpt>
      <trkpt lat="45.03393" lon="4.12223">
        <ele>1235</ele>
        <time>2021-04-28T12:46:24Z</time>
      </trkpt>
      <trkpt lat="45.03398" lon="4.12226">
        <ele>1235</ele>
        <time>2021-04-28T12:46:25Z</time>
      </trkpt>
      <trkpt lat="45.03401" lon="4.12227">
        <ele>1235</ele>
        <time>2021-04-28T12:46:26Z</time>
      </trkpt>
      <trkpt lat="45.03404" lon="4.12229">
        <ele>1235</ele>
        <time>2021-04-28T12:46:27Z</time>
      </trkpt>
      <trkpt lat="45.0341" lon="4.1223">
        <ele>1236</ele>
        <time>2021-04-28T12:46:28Z</time>
      </trkpt>
      <trkpt lat="45.0342" lon="4.12233">
        <ele>1236</ele>
        <time>2021-04-28T12:46:32Z</time>
      </trkpt>
      <trkpt lat="45.03429" lon="4.12235">
        <ele>1237</ele>
        <time>2021-04-28T12:46:35Z</time>
      </trkpt>
      <trkpt lat="45.03438" lon="4.12238">
        <ele>1237</ele>
        <time>2021-04-28T12:46:38Z</time>
      </trkpt>
      <trkpt lat="45.03449" lon="4.12239">
        <ele>1238</ele>
        <time>2021-04-28T12:46:41Z</time>
      </trkpt>
      <trkpt lat="45.03458" lon="4.12241">
        <ele>1238</ele>
        <time>2021-04-28T12:46:44Z</time>
      </trkpt>
      <trkpt lat="45.03469" lon="4.12243">
        <ele>1239</ele>
        <time>2021-04-28T12:46:47Z</time>
      </trkpt>
      <trkpt lat="45.0348" lon="4.12248">
        <ele>1241</ele>
        <time>2021-04-28T12:46:52Z</time>
      </trkpt>
      <trkpt lat="45.03489" lon="4.12255">
        <ele>1241</ele>
        <time>2021-04-28T12:46:56Z</time>
      </trkpt>
      <trkpt lat="45.03498" lon="4.12264">
        <ele>1243</ele>
        <time>2021-04-28T12:46:59Z</time>
      </trkpt>
      <trkpt lat="45.03507" lon="4.12276">
        <ele>1244</ele>
        <time>2021-04-28T12:47:02Z</time>
      </trkpt>
      <trkpt lat="45.03516" lon="4.12286">
        <ele>1245</ele>
        <time>2021-04-28T12:47:04Z</time>
      </trkpt>
      <trkpt lat="45.03523" lon="4.12296">
        <ele>1245</ele>
        <time>2021-04-28T12:47:06Z</time>
      </trkpt>
      <trkpt lat="45.03531" lon="4.12308">
        <ele>1246</ele>
        <time>2021-04-28T12:47:08Z</time>
      </trkpt>
      <trkpt lat="45.03537" lon="4.12318">
        <ele>1247</ele>
        <time>2021-04-28T12:47:10Z</time>
      </trkpt>
      <trkpt lat="45.03542" lon="4.12328">
        <ele>1248</ele>
        <time>2021-04-28T12:47:12Z</time>
      </trkpt>
      <trkpt lat="45.03547" lon="4.1234">
        <ele>1249</ele>
        <time>2021-04-28T12:47:15Z</time>
      </trkpt>
      <trkpt lat="45.03556" lon="4.12347">
        <ele>1249</ele>
        <time>2021-04-28T12:47:18Z</time>
      </trkpt>
      <trkpt lat="45.03564" lon="4.12353">
        <ele>1250</ele>
        <time>2021-04-28T12:47:20Z</time>
      </trkpt>
      <trkpt lat="45.03572" lon="4.12359">
        <ele>1251</ele>
        <time>2021-04-28T12:47:22Z</time>
      </trkpt>
      <trkpt lat="45.03581" lon="4.12369">
        <ele>1251</ele>
        <time>2021-04-28T12:47:24Z</time>
      </trkpt>
      <trkpt lat="45.03587" lon="4.12377">
        <ele>1252</ele>
        <time>2021-04-28T12:47:25Z</time>
      </trkpt>
      <trkpt lat="45.0359" lon="4.12381">
        <ele>1253</ele>
        <time>2021-04-28T12:47:27Z</time>
      </trkpt>
      <trkpt lat="45.03599" lon="4.12386">
        <ele>1253</ele>
        <time>2021-04-28T12:47:30Z</time>
      </trkpt>
      <trkpt lat="45.0361" lon="4.12386">
        <ele>1255</ele>
        <time>2021-04-28T12:47:34Z</time>
      </trkpt>
      <trkpt lat="45.03621" lon="4.12385">
        <ele>1256</ele>
        <time>2021-04-28T12:47:38Z</time>
      </trkpt>
      <trkpt lat="45.03631" lon="4.12388">
        <ele>1257</ele>
        <time>2021-04-28T12:47:42Z</time>
      </trkpt>
      <trkpt lat="45.03639" lon="4.12392">
        <ele>1258</ele>
        <time>2021-04-28T12:47:44Z</time>
      </trkpt>
      <trkpt lat="45.03652" lon="4.12398">
        <ele>1259</ele>
        <time>2021-04-28T12:47:47Z</time>
      </trkpt>
      <trkpt lat="45.03662" lon="4.12402">
        <ele>1260</ele>
        <time>2021-04-28T12:47:50Z</time>
      </trkpt>
      <trkpt lat="45.03673" lon="4.12406">
        <ele>1261</ele>
        <time>2021-04-28T12:47:53Z</time>
      </trkpt>
      <trkpt lat="45.03682" lon="4.1241">
        <ele>1262</ele>
        <time>2021-04-28T12:47:56Z</time>
      </trkpt>
      <trkpt lat="45.03692" lon="4.12412">
        <ele>1263</ele>
        <time>2021-04-28T12:47:59Z</time>
      </trkpt>
      <trkpt lat="45.03698" lon="4.12415">
        <ele>1264</ele>
        <time>2021-04-28T12:48:01Z</time>
      </trkpt>
      <trkpt lat="45.037" lon="4.12416">
        <ele>1264</ele>
        <time>2021-04-28T12:48:02Z</time>
      </trkpt>
      <trkpt lat="45.03701" lon="4.12419">
        <ele>1267</ele>
        <time>2021-04-28T12:48:06Z</time>
      </trkpt>
      <trkpt lat="45.03705" lon="4.12424">
        <ele>1271</ele>
        <time>2021-04-28T12:49:07Z</time>
      </trkpt>
      <trkpt lat="45.03708" lon="4.12426">
        <ele>1272</ele>
        <time>2021-04-28T12:49:09Z</time>
      </trkpt>
      <trkpt lat="45.0371" lon="4.12428">
        <ele>1272</ele>
        <time>2021-04-28T12:49:10Z</time>
      </trkpt>
      <trkpt lat="45.03712" lon="4.12429">
        <ele>1273</ele>
        <time>2021-04-28T12:49:11Z</time>
      </trkpt>
      <trkpt lat="45.03714" lon="4.12431">
        <ele>1273</ele>
        <time>2021-04-28T12:49:12Z</time>
      </trkpt>
      <trkpt lat="45.03717" lon="4.12434">
        <ele>1273</ele>
        <time>2021-04-28T12:49:13Z</time>
      </trkpt>
      <trkpt lat="45.0372" lon="4.12437">
        <ele>1273</ele>
        <time>2021-04-28T12:49:14Z</time>
      </trkpt>
      <trkpt lat="45.03723" lon="4.1244">
        <ele>1274</ele>
        <time>2021-04-28T12:49:15Z</time>
      </trkpt>
      <trkpt lat="45.03725" lon="4.12442">
        <ele>1274</ele>
        <time>2021-04-28T12:49:16Z</time>
      </trkpt>
      <trkpt lat="45.03728" lon="4.12444">
        <ele>1274</ele>
        <time>2021-04-28T12:49:17Z</time>
      </trkpt>
      <trkpt lat="45.03731" lon="4.12446">
        <ele>1274</ele>
        <time>2021-04-28T12:49:18Z</time>
      </trkpt>
      <trkpt lat="45.03733" lon="4.12447">
        <ele>1275</ele>
        <time>2021-04-28T12:49:19Z</time>
      </trkpt>
      <trkpt lat="45.03736" lon="4.12449">
        <ele>1275</ele>
        <time>2021-04-28T12:49:20Z</time>
      </trkpt>
      <trkpt lat="45.03738" lon="4.12452">
        <ele>1275</ele>
        <time>2021-04-28T12:49:21Z</time>
      </trkpt>
      <trkpt lat="45.03741" lon="4.12455">
        <ele>1276</ele>
        <time>2021-04-28T12:49:22Z</time>
      </trkpt>
      <trkpt lat="45.03744" lon="4.12458">
        <ele>1276</ele>
        <time>2021-04-28T12:49:23Z</time>
      </trkpt>
      <trkpt lat="45.03747" lon="4.12461">
        <ele>1276</ele>
        <time>2021-04-28T12:49:24Z</time>
      </trkpt>
      <trkpt lat="45.03749" lon="4.12463">
        <ele>1276</ele>
        <time>2021-04-28T12:49:25Z</time>
      </trkpt>
      <trkpt lat="45.03754" lon="4.12468">
        <ele>1277</ele>
        <time>2021-04-28T12:49:26Z</time>
      </trkpt>
      <trkpt lat="45.03757" lon="4.1247">
        <ele>1277</ele>
        <time>2021-04-28T12:49:28Z</time>
      </trkpt>
      <trkpt lat="45.0376" lon="4.12473">
        <ele>1277</ele>
        <time>2021-04-28T12:49:29Z</time>
      </trkpt>
      <trkpt lat="45.03762" lon="4.12475">
        <ele>1277</ele>
        <time>2021-04-28T12:49:30Z</time>
      </trkpt>
      <trkpt lat="45.03764" lon="4.12478">
        <ele>1278</ele>
        <time>2021-04-28T12:49:31Z</time>
      </trkpt>
      <trkpt lat="45.03767" lon="4.1248">
        <ele>1278</ele>
        <time>2021-04-28T12:49:32Z</time>
      </trkpt>
      <trkpt lat="45.03769" lon="4.12483">
        <ele>1278</ele>
        <time>2021-04-28T12:49:33Z</time>
      </trkpt>
      <trkpt lat="45.03771" lon="4.12485">
        <ele>1278</ele>
        <time>2021-04-28T12:49:34Z</time>
      </trkpt>
      <trkpt lat="45.03772" lon="4.12487">
        <ele>1279</ele>
        <time>2021-04-28T12:49:35Z</time>
      </trkpt>
      <trkpt lat="45.03774" lon="4.12488">
        <ele>1279</ele>
        <time>2021-04-28T12:49:36Z</time>
      </trkpt>
      <trkpt lat="45.03774" lon="4.1249">
        <ele>1280</ele>
        <time>2021-04-28T12:49:41Z</time>
      </trkpt>
      <trkpt lat="45.03774" lon="4.12499">
        <ele>1280</ele>
        <time>2021-04-28T12:50:15Z</time>
      </trkpt>
      <trkpt lat="45.03775" lon="4.12502">
        <ele>1281</ele>
        <time>2021-04-28T12:50:17Z</time>
      </trkpt>
      <trkpt lat="45.03776" lon="4.12505">
        <ele>1280</ele>
        <time>2021-04-28T12:50:18Z</time>
      </trkpt>
      <trkpt lat="45.03777" lon="4.12509">
        <ele>1280</ele>
        <time>2021-04-28T12:50:19Z</time>
      </trkpt>
      <trkpt lat="45.03779" lon="4.12513">
        <ele>1280</ele>
        <time>2021-04-28T12:50:20Z</time>
      </trkpt>
      <trkpt lat="45.0378" lon="4.12518">
        <ele>1280</ele>
        <time>2021-04-28T12:50:21Z</time>
      </trkpt>
      <trkpt lat="45.03783" lon="4.12524">
        <ele>1280</ele>
        <time>2021-04-28T12:50:22Z</time>
      </trkpt>
      <trkpt lat="45.03785" lon="4.12529">
        <ele>1281</ele>
        <time>2021-04-28T12:50:23Z</time>
      </trkpt>
      <trkpt lat="45.03787" lon="4.12534">
        <ele>1281</ele>
        <time>2021-04-28T12:50:24Z</time>
      </trkpt>
      <trkpt lat="45.0379" lon="4.12539">
        <ele>1281</ele>
        <time>2021-04-28T12:50:25Z</time>
      </trkpt>
      <trkpt lat="45.03792" lon="4.12544">
        <ele>1281</ele>
        <time>2021-04-28T12:50:26Z</time>
      </trkpt>
      <trkpt lat="45.03795" lon="4.12549">
        <ele>1281</ele>
        <time>2021-04-28T12:50:27Z</time>
      </trkpt>
      <trkpt lat="45.03798" lon="4.12554">
        <ele>1282</ele>
        <time>2021-04-28T12:50:28Z</time>
      </trkpt>
      <trkpt lat="45.03801" lon="4.12558">
        <ele>1282</ele>
        <time>2021-04-28T12:50:29Z</time>
      </trkpt>
      <trkpt lat="45.03804" lon="4.12561">
        <ele>1282</ele>
        <time>2021-04-28T12:50:30Z</time>
      </trkpt>
      <trkpt lat="45.03807" lon="4.12565">
        <ele>1282</ele>
        <time>2021-04-28T12:50:31Z</time>
      </trkpt>
      <trkpt lat="45.0381" lon="4.12569">
        <ele>1283</ele>
        <time>2021-04-28T12:50:32Z</time>
      </trkpt>
      <trkpt lat="45.03812" lon="4.12573">
        <ele>1283</ele>
        <time>2021-04-28T12:50:33Z</time>
      </trkpt>
      <trkpt lat="45.0382" lon="4.12583">
        <ele>1283</ele>
        <time>2021-04-28T12:50:34Z</time>
      </trkpt>
      <trkpt lat="45.03823" lon="4.12588">
        <ele>1284</ele>
        <time>2021-04-28T12:50:36Z</time>
      </trkpt>
      <trkpt lat="45.03826" lon="4.12592">
        <ele>1284</ele>
        <time>2021-04-28T12:50:37Z</time>
      </trkpt>
      <trkpt lat="45.03828" lon="4.12597">
        <ele>1284</ele>
        <time>2021-04-28T12:50:38Z</time>
      </trkpt>
      <trkpt lat="45.0383" lon="4.12602">
        <ele>1285</ele>
        <time>2021-04-28T12:50:39Z</time>
      </trkpt>
      <trkpt lat="45.03832" lon="4.12606">
        <ele>1285</ele>
        <time>2021-04-28T12:50:40Z</time>
      </trkpt>
      <trkpt lat="45.03833" lon="4.12609">
        <ele>1285</ele>
        <time>2021-04-28T12:50:41Z</time>
      </trkpt>
      <trkpt lat="45.03834" lon="4.12614">
        <ele>1285</ele>
        <time>2021-04-28T12:50:42Z</time>
      </trkpt>
      <trkpt lat="45.03836" lon="4.12617">
        <ele>1286</ele>
        <time>2021-04-28T12:50:43Z</time>
      </trkpt>
      <trkpt lat="45.03837" lon="4.12621">
        <ele>1286</ele>
        <time>2021-04-28T12:50:44Z</time>
      </trkpt>
      <trkpt lat="45.03838" lon="4.12624">
        <ele>1286</ele>
        <time>2021-04-28T12:50:45Z</time>
      </trkpt>
      <trkpt lat="45.03838" lon="4.12627">
        <ele>1287</ele>
        <time>2021-04-28T12:50:46Z</time>
      </trkpt>
      <trkpt lat="45.03838" lon="4.1263">
        <ele>1287</ele>
        <time>2021-04-28T12:50:47Z</time>
      </trkpt>
      <trkpt lat="45.03839" lon="4.12634">
        <ele>1287</ele>
        <time>2021-04-28T12:50:48Z</time>
      </trkpt>
      <trkpt lat="45.03839" lon="4.12638">
        <ele>1287</ele>
        <time>2021-04-28T12:50:49Z</time>
      </trkpt>
      <trkpt lat="45.03839" lon="4.12652">
        <ele>1287</ele>
        <time>2021-04-28T12:50:52Z</time>
      </trkpt>
      <trkpt lat="45.03842" lon="4.12665">
        <ele>1288</ele>
        <time>2021-04-28T12:50:53Z</time>
      </trkpt>
      <trkpt lat="45.03842" lon="4.12679">
        <ele>1288</ele>
        <time>2021-04-28T12:50:57Z</time>
      </trkpt>
      <trkpt lat="45.03843" lon="4.12685">
        <ele>1289</ele>
        <time>2021-04-28T12:50:58Z</time>
      </trkpt>
      <trkpt lat="45.03844" lon="4.12691">
        <ele>1289</ele>
        <time>2021-04-28T12:50:59Z</time>
      </trkpt>
      <trkpt lat="45.03845" lon="4.12696">
        <ele>1289</ele>
        <time>2021-04-28T12:51:00Z</time>
      </trkpt>
      <trkpt lat="45.03844" lon="4.12711">
        <ele>1289</ele>
        <time>2021-04-28T12:51:03Z</time>
      </trkpt>
      <trkpt lat="45.03843" lon="4.12724">
        <ele>1290</ele>
        <time>2021-04-28T12:51:06Z</time>
      </trkpt>
      <trkpt lat="45.03842" lon="4.12737">
        <ele>1291</ele>
        <time>2021-04-28T12:51:09Z</time>
      </trkpt>
      <trkpt lat="45.03845" lon="4.12756">
        <ele>1291</ele>
        <time>2021-04-28T12:51:12Z</time>
      </trkpt>
      <trkpt lat="45.03847" lon="4.1277">
        <ele>1293</ele>
        <time>2021-04-28T12:51:14Z</time>
      </trkpt>
      <trkpt lat="45.03849" lon="4.12784">
        <ele>1293</ele>
        <time>2021-04-28T12:51:16Z</time>
      </trkpt>
      <trkpt lat="45.03853" lon="4.12799">
        <ele>1293</ele>
        <time>2021-04-28T12:51:18Z</time>
      </trkpt>
      <trkpt lat="45.03858" lon="4.12812">
        <ele>1294</ele>
        <time>2021-04-28T12:51:20Z</time>
      </trkpt>
      <trkpt lat="45.0386" lon="4.12819">
        <ele>1294</ele>
        <time>2021-04-28T12:51:21Z</time>
      </trkpt>
      <trkpt lat="45.03862" lon="4.12824">
        <ele>1294</ele>
        <time>2021-04-28T12:51:22Z</time>
      </trkpt>
      <trkpt lat="45.03865" lon="4.12829">
        <ele>1295</ele>
        <time>2021-04-28T12:51:23Z</time>
      </trkpt>
      <trkpt lat="45.03866" lon="4.12834">
        <ele>1295</ele>
        <time>2021-04-28T12:51:24Z</time>
      </trkpt>
      <trkpt lat="45.03871" lon="4.12844">
        <ele>1295</ele>
        <time>2021-04-28T12:51:26Z</time>
      </trkpt>
      <trkpt lat="45.03875" lon="4.12848">
        <ele>1296</ele>
        <time>2021-04-28T12:51:27Z</time>
      </trkpt>
      <trkpt lat="45.03879" lon="4.12851">
        <ele>1296</ele>
        <time>2021-04-28T12:51:28Z</time>
      </trkpt>
      <trkpt lat="45.03882" lon="4.12852">
        <ele>1296</ele>
        <time>2021-04-28T12:51:29Z</time>
      </trkpt>
      <trkpt lat="45.03886" lon="4.12855">
        <ele>1296</ele>
        <time>2021-04-28T12:51:30Z</time>
      </trkpt>
      <trkpt lat="45.03893" lon="4.12863">
        <ele>1297</ele>
        <time>2021-04-28T12:51:31Z</time>
      </trkpt>
      <trkpt lat="45.03895" lon="4.12868">
        <ele>1297</ele>
        <time>2021-04-28T12:51:33Z</time>
      </trkpt>
      <trkpt lat="45.03896" lon="4.12874">
        <ele>1297</ele>
        <time>2021-04-28T12:51:34Z</time>
      </trkpt>
      <trkpt lat="45.03895" lon="4.12892">
        <ele>1297</ele>
        <time>2021-04-28T12:51:37Z</time>
      </trkpt>
      <trkpt lat="45.03895" lon="4.12897">
        <ele>1298</ele>
        <time>2021-04-28T12:51:38Z</time>
      </trkpt>
      <trkpt lat="45.03895" lon="4.12901">
        <ele>1298</ele>
        <time>2021-04-28T12:51:40Z</time>
      </trkpt>
      <trkpt lat="45.03894" lon="4.12904">
        <ele>1299</ele>
        <time>2021-04-28T12:51:42Z</time>
      </trkpt>
      <trkpt lat="45.03894" lon="4.12907">
        <ele>1299</ele>
        <time>2021-04-28T12:51:44Z</time>
      </trkpt>
      <trkpt lat="45.03893" lon="4.12911">
        <ele>1300</ele>
        <time>2021-04-28T12:51:46Z</time>
      </trkpt>
      <trkpt lat="45.03892" lon="4.12915">
        <ele>1300</ele>
        <time>2021-04-28T12:51:47Z</time>
      </trkpt>
      <trkpt lat="45.03892" lon="4.12921">
        <ele>1300</ele>
        <time>2021-04-28T12:51:48Z</time>
      </trkpt>
      <trkpt lat="45.03892" lon="4.12927">
        <ele>1300</ele>
        <time>2021-04-28T12:51:49Z</time>
      </trkpt>
      <trkpt lat="45.03892" lon="4.12941">
        <ele>1299</ele>
        <time>2021-04-28T12:51:50Z</time>
      </trkpt>
      <trkpt lat="45.03892" lon="4.12947">
        <ele>1299</ele>
        <time>2021-04-28T12:51:52Z</time>
      </trkpt>
      <trkpt lat="45.03892" lon="4.12954">
        <ele>1299</ele>
        <time>2021-04-28T12:51:53Z</time>
      </trkpt>
      <trkpt lat="45.0389" lon="4.12972">
        <ele>1298</ele>
        <time>2021-04-28T12:51:55Z</time>
      </trkpt>
      <trkpt lat="45.0389" lon="4.12988">
        <ele>1297</ele>
        <time>2021-04-28T12:51:57Z</time>
      </trkpt>
      <trkpt lat="45.03901" lon="4.12993">
        <ele>1297</ele>
        <time>2021-04-28T12:52:02Z</time>
      </trkpt>
      <trkpt lat="45.0391" lon="4.12995">
        <ele>1298</ele>
        <time>2021-04-28T12:52:05Z</time>
      </trkpt>
      <trkpt lat="45.03913" lon="4.12995">
        <ele>1298</ele>
        <time>2021-04-28T12:52:06Z</time>
      </trkpt>
      <trkpt lat="45.03916" lon="4.12995">
        <ele>1298</ele>
        <time>2021-04-28T12:52:07Z</time>
      </trkpt>
      <trkpt lat="45.03918" lon="4.12996">
        <ele>1298</ele>
        <time>2021-04-28T12:52:08Z</time>
      </trkpt>
      <trkpt lat="45.03923" lon="4.12995">
        <ele>1298</ele>
        <time>2021-04-28T12:52:09Z</time>
      </trkpt>
      <trkpt lat="45.03926" lon="4.12995">
        <ele>1298</ele>
        <time>2021-04-28T12:52:11Z</time>
      </trkpt>
      <trkpt lat="45.0393" lon="4.12995">
        <ele>1298</ele>
        <time>2021-04-28T12:52:12Z</time>
      </trkpt>
      <trkpt lat="45.03932" lon="4.12995">
        <ele>1298</ele>
        <time>2021-04-28T12:52:13Z</time>
      </trkpt>
      <trkpt lat="45.03939" lon="4.12994">
        <ele>1298</ele>
        <time>2021-04-28T12:52:15Z</time>
      </trkpt>
      <trkpt lat="45.03942" lon="4.12994">
        <ele>1298</ele>
        <time>2021-04-28T12:52:16Z</time>
      </trkpt>
      <trkpt lat="45.03945" lon="4.12994">
        <ele>1298</ele>
        <time>2021-04-28T12:52:17Z</time>
      </trkpt>
      <trkpt lat="45.03949" lon="4.12994">
        <ele>1298</ele>
        <time>2021-04-28T12:52:18Z</time>
      </trkpt>
      <trkpt lat="45.03953" lon="4.12994">
        <ele>1299</ele>
        <time>2021-04-28T12:52:19Z</time>
      </trkpt>
      <trkpt lat="45.03956" lon="4.12995">
        <ele>1299</ele>
        <time>2021-04-28T12:52:20Z</time>
      </trkpt>
      <trkpt lat="45.0396" lon="4.12995">
        <ele>1299</ele>
        <time>2021-04-28T12:52:21Z</time>
      </trkpt>
      <trkpt lat="45.03964" lon="4.12996">
        <ele>1299</ele>
        <time>2021-04-28T12:52:22Z</time>
      </trkpt>
      <trkpt lat="45.03968" lon="4.12997">
        <ele>1299</ele>
        <time>2021-04-28T12:52:23Z</time>
      </trkpt>
      <trkpt lat="45.03972" lon="4.12998">
        <ele>1299</ele>
        <time>2021-04-28T12:52:24Z</time>
      </trkpt>
      <trkpt lat="45.03976" lon="4.12998">
        <ele>1300</ele>
        <time>2021-04-28T12:52:25Z</time>
      </trkpt>
      <trkpt lat="45.03981" lon="4.12998">
        <ele>1300</ele>
        <time>2021-04-28T12:52:26Z</time>
      </trkpt>
      <trkpt lat="45.03985" lon="4.12997">
        <ele>1300</ele>
        <time>2021-04-28T12:52:27Z</time>
      </trkpt>
      <trkpt lat="45.03992" lon="4.12996">
        <ele>1300</ele>
        <time>2021-04-28T12:52:28Z</time>
      </trkpt>
      <trkpt lat="45.03995" lon="4.12995">
        <ele>1300</ele>
        <time>2021-04-28T12:52:30Z</time>
      </trkpt>
      <trkpt lat="45.03999" lon="4.12994">
        <ele>1300</ele>
        <time>2021-04-28T12:52:31Z</time>
      </trkpt>
      <trkpt lat="45.04002" lon="4.12993">
        <ele>1300</ele>
        <time>2021-04-28T12:52:32Z</time>
      </trkpt>
      <trkpt lat="45.04004" lon="4.12993">
        <ele>1300</ele>
        <time>2021-04-28T12:52:33Z</time>
      </trkpt>
      <trkpt lat="45.04007" lon="4.12992">
        <ele>1301</ele>
        <time>2021-04-28T12:52:34Z</time>
      </trkpt>
      <trkpt lat="45.04009" lon="4.12991">
        <ele>1301</ele>
        <time>2021-04-28T12:52:35Z</time>
      </trkpt>
      <trkpt lat="45.04013" lon="4.1299">
        <ele>1301</ele>
        <time>2021-04-28T12:52:36Z</time>
      </trkpt>
      <trkpt lat="45.04016" lon="4.12989">
        <ele>1301</ele>
        <time>2021-04-28T12:52:37Z</time>
      </trkpt>
      <trkpt lat="45.04019" lon="4.12988">
        <ele>1301</ele>
        <time>2021-04-28T12:52:38Z</time>
      </trkpt>
      <trkpt lat="45.04022" lon="4.12987">
        <ele>1302</ele>
        <time>2021-04-28T12:52:39Z</time>
      </trkpt>
      <trkpt lat="45.04026" lon="4.12985">
        <ele>1302</ele>
        <time>2021-04-28T12:52:40Z</time>
      </trkpt>
      <trkpt lat="45.04031" lon="4.12983">
        <ele>1302</ele>
        <time>2021-04-28T12:52:41Z</time>
      </trkpt>
      <trkpt lat="45.04035" lon="4.12982">
        <ele>1303</ele>
        <time>2021-04-28T12:52:42Z</time>
      </trkpt>
      <trkpt lat="45.04039" lon="4.12981">
        <ele>1303</ele>
        <time>2021-04-28T12:52:43Z</time>
      </trkpt>
      <trkpt lat="45.04042" lon="4.12981">
        <ele>1303</ele>
        <time>2021-04-28T12:52:44Z</time>
      </trkpt>
      <trkpt lat="45.04045" lon="4.12982">
        <ele>1303</ele>
        <time>2021-04-28T12:52:45Z</time>
      </trkpt>
      <trkpt lat="45.04058" lon="4.12984">
        <ele>1304</ele>
        <time>2021-04-28T12:52:47Z</time>
      </trkpt>
      <trkpt lat="45.04063" lon="4.12985">
        <ele>1304</ele>
        <time>2021-04-28T12:52:49Z</time>
      </trkpt>
      <trkpt lat="45.04067" lon="4.12986">
        <ele>1305</ele>
        <time>2021-04-28T12:52:50Z</time>
      </trkpt>
      <trkpt lat="45.0407" lon="4.12988">
        <ele>1305</ele>
        <time>2021-04-28T12:52:51Z</time>
      </trkpt>
      <trkpt lat="45.04074" lon="4.12988">
        <ele>1305</ele>
        <time>2021-04-28T12:52:52Z</time>
      </trkpt>
      <trkpt lat="45.0408" lon="4.1299">
        <ele>1306</ele>
        <time>2021-04-28T12:52:54Z</time>
      </trkpt>
      <trkpt lat="45.04089" lon="4.12992">
        <ele>1307</ele>
        <time>2021-04-28T12:52:56Z</time>
      </trkpt>
      <trkpt lat="45.04099" lon="4.12995">
        <ele>1307</ele>
        <time>2021-04-28T12:52:57Z</time>
      </trkpt>
      <trkpt lat="45.04102" lon="4.12997">
        <ele>1308</ele>
        <time>2021-04-28T12:52:59Z</time>
      </trkpt>
      <trkpt lat="45.04105" lon="4.12998">
        <ele>1308</ele>
        <time>2021-04-28T12:53:00Z</time>
      </trkpt>
      <trkpt lat="45.04108" lon="4.12999">
        <ele>1308</ele>
        <time>2021-04-28T12:53:01Z</time>
      </trkpt>
      <trkpt lat="45.04111" lon="4.13001">
        <ele>1309</ele>
        <time>2021-04-28T12:53:02Z</time>
      </trkpt>
      <trkpt lat="45.04114" lon="4.13002">
        <ele>1310</ele>
        <time>2021-04-28T12:53:03Z</time>
      </trkpt>
      <trkpt lat="45.04117" lon="4.13004">
        <ele>1310</ele>
        <time>2021-04-28T12:53:04Z</time>
      </trkpt>
      <trkpt lat="45.04121" lon="4.13006">
        <ele>1311</ele>
        <time>2021-04-28T12:53:05Z</time>
      </trkpt>
      <trkpt lat="45.04127" lon="4.1301">
        <ele>1311</ele>
        <time>2021-04-28T12:53:06Z</time>
      </trkpt>
      <trkpt lat="45.04131" lon="4.13011">
        <ele>1312</ele>
        <time>2021-04-28T12:53:08Z</time>
      </trkpt>
      <trkpt lat="45.04135" lon="4.13013">
        <ele>1312</ele>
        <time>2021-04-28T12:53:09Z</time>
      </trkpt>
      <trkpt lat="45.04138" lon="4.13014">
        <ele>1313</ele>
        <time>2021-04-28T12:53:10Z</time>
      </trkpt>
      <trkpt lat="45.04141" lon="4.13015">
        <ele>1313</ele>
        <time>2021-04-28T12:53:11Z</time>
      </trkpt>
      <trkpt lat="45.04145" lon="4.13017">
        <ele>1314</ele>
        <time>2021-04-28T12:53:12Z</time>
      </trkpt>
      <trkpt lat="45.04148" lon="4.13019">
        <ele>1314</ele>
        <time>2021-04-28T12:53:13Z</time>
      </trkpt>
      <trkpt lat="45.04152" lon="4.13023">
        <ele>1314</ele>
        <time>2021-04-28T12:53:14Z</time>
      </trkpt>
      <trkpt lat="45.04156" lon="4.13026">
        <ele>1314</ele>
        <time>2021-04-28T12:53:15Z</time>
      </trkpt>
      <trkpt lat="45.0416" lon="4.1303">
        <ele>1314</ele>
        <time>2021-04-28T12:53:16Z</time>
      </trkpt>
      <trkpt lat="45.04163" lon="4.13034">
        <ele>1315</ele>
        <time>2021-04-28T12:53:17Z</time>
      </trkpt>
      <trkpt lat="45.04167" lon="4.13038">
        <ele>1315</ele>
        <time>2021-04-28T12:53:18Z</time>
      </trkpt>
      <trkpt lat="45.0417" lon="4.13043">
        <ele>1315</ele>
        <time>2021-04-28T12:53:19Z</time>
      </trkpt>
      <trkpt lat="45.04173" lon="4.13048">
        <ele>1316</ele>
        <time>2021-04-28T12:53:20Z</time>
      </trkpt>
      <trkpt lat="45.04176" lon="4.13053">
        <ele>1316</ele>
        <time>2021-04-28T12:53:21Z</time>
      </trkpt>
      <trkpt lat="45.04178" lon="4.13059">
        <ele>1316</ele>
        <time>2021-04-28T12:53:22Z</time>
      </trkpt>
      <trkpt lat="45.0418" lon="4.13064">
        <ele>1317</ele>
        <time>2021-04-28T12:53:23Z</time>
      </trkpt>
      <trkpt lat="45.04182" lon="4.1307">
        <ele>1317</ele>
        <time>2021-04-28T12:53:24Z</time>
      </trkpt>
      <trkpt lat="45.04184" lon="4.13075">
        <ele>1317</ele>
        <time>2021-04-28T12:53:25Z</time>
      </trkpt>
      <trkpt lat="45.04187" lon="4.1308">
        <ele>1318</ele>
        <time>2021-04-28T12:53:26Z</time>
      </trkpt>
      <trkpt lat="45.04189" lon="4.13084">
        <ele>1318</ele>
        <time>2021-04-28T12:53:27Z</time>
      </trkpt>
      <trkpt lat="45.04191" lon="4.13087">
        <ele>1319</ele>
        <time>2021-04-28T12:53:28Z</time>
      </trkpt>
      <trkpt lat="45.04191" lon="4.13091">
        <ele>1320</ele>
        <time>2021-04-28T12:53:30Z</time>
      </trkpt>
      <trkpt lat="45.04191" lon="4.13094">
        <ele>1320</ele>
        <time>2021-04-28T12:53:32Z</time>
      </trkpt>
      <trkpt lat="45.04189" lon="4.13098">
        <ele>1320</ele>
        <time>2021-04-28T12:53:34Z</time>
      </trkpt>
      <trkpt lat="45.04188" lon="4.13101">
        <ele>1320</ele>
        <time>2021-04-28T12:53:35Z</time>
      </trkpt>
      <trkpt lat="45.04186" lon="4.13104">
        <ele>1320</ele>
        <time>2021-04-28T12:53:36Z</time>
      </trkpt>
      <trkpt lat="45.04184" lon="4.13109">
        <ele>1320</ele>
        <time>2021-04-28T12:53:37Z</time>
      </trkpt>
      <trkpt lat="45.04182" lon="4.13113">
        <ele>1320</ele>
        <time>2021-04-28T12:53:38Z</time>
      </trkpt>
      <trkpt lat="45.0418" lon="4.13117">
        <ele>1320</ele>
        <time>2021-04-28T12:53:39Z</time>
      </trkpt>
      <trkpt lat="45.04177" lon="4.13123">
        <ele>1320</ele>
        <time>2021-04-28T12:53:40Z</time>
      </trkpt>
      <trkpt lat="45.04174" lon="4.13129">
        <ele>1320</ele>
        <time>2021-04-28T12:53:41Z</time>
      </trkpt>
      <trkpt lat="45.04173" lon="4.13135">
        <ele>1320</ele>
        <time>2021-04-28T12:53:42Z</time>
      </trkpt>
      <trkpt lat="45.04173" lon="4.13141">
        <ele>1320</ele>
        <time>2021-04-28T12:53:43Z</time>
      </trkpt>
      <trkpt lat="45.04182" lon="4.13154">
        <ele>1320</ele>
        <time>2021-04-28T12:53:44Z</time>
      </trkpt>
      <trkpt lat="45.04187" lon="4.13162">
        <ele>1321</ele>
        <time>2021-04-28T12:53:46Z</time>
      </trkpt>
      <trkpt lat="45.0419" lon="4.13171">
        <ele>1322</ele>
        <time>2021-04-28T12:53:47Z</time>
      </trkpt>
      <trkpt lat="45.04191" lon="4.13178">
        <ele>1322</ele>
        <time>2021-04-28T12:53:48Z</time>
      </trkpt>
      <trkpt lat="45.04192" lon="4.13186">
        <ele>1322</ele>
        <time>2021-04-28T12:53:49Z</time>
      </trkpt>
      <trkpt lat="45.04192" lon="4.13193">
        <ele>1322</ele>
        <time>2021-04-28T12:53:50Z</time>
      </trkpt>
      <trkpt lat="45.04191" lon="4.13201">
        <ele>1322</ele>
        <time>2021-04-28T12:53:51Z</time>
      </trkpt>
      <trkpt lat="45.04192" lon="4.13207">
        <ele>1323</ele>
        <time>2021-04-28T12:53:52Z</time>
      </trkpt>
      <trkpt lat="45.04193" lon="4.13212">
        <ele>1323</ele>
        <time>2021-04-28T12:53:53Z</time>
      </trkpt>
      <trkpt lat="45.04198" lon="4.13225">
        <ele>1324</ele>
        <time>2021-04-28T12:53:55Z</time>
      </trkpt>
      <trkpt lat="45.04201" lon="4.13232">
        <ele>1324</ele>
        <time>2021-04-28T12:53:56Z</time>
      </trkpt>
      <trkpt lat="45.04204" lon="4.13239">
        <ele>1324</ele>
        <time>2021-04-28T12:53:57Z</time>
      </trkpt>
      <trkpt lat="45.04207" lon="4.13245">
        <ele>1325</ele>
        <time>2021-04-28T12:53:58Z</time>
      </trkpt>
      <trkpt lat="45.04209" lon="4.13251">
        <ele>1325</ele>
        <time>2021-04-28T12:53:59Z</time>
      </trkpt>
      <trkpt lat="45.0421" lon="4.13259">
        <ele>1325</ele>
        <time>2021-04-28T12:54:00Z</time>
      </trkpt>
      <trkpt lat="45.04211" lon="4.13267">
        <ele>1325</ele>
        <time>2021-04-28T12:54:01Z</time>
      </trkpt>
      <trkpt lat="45.04212" lon="4.13274">
        <ele>1326</ele>
        <time>2021-04-28T12:54:02Z</time>
      </trkpt>
      <trkpt lat="45.04214" lon="4.13289">
        <ele>1326</ele>
        <time>2021-04-28T12:54:03Z</time>
      </trkpt>
      <trkpt lat="45.04218" lon="4.13297">
        <ele>1327</ele>
        <time>2021-04-28T12:54:05Z</time>
      </trkpt>
      <trkpt lat="45.04221" lon="4.13305">
        <ele>1327</ele>
        <time>2021-04-28T12:54:06Z</time>
      </trkpt>
      <trkpt lat="45.04224" lon="4.13311">
        <ele>1327</ele>
        <time>2021-04-28T12:54:07Z</time>
      </trkpt>
      <trkpt lat="45.04228" lon="4.13318">
        <ele>1327</ele>
        <time>2021-04-28T12:54:08Z</time>
      </trkpt>
      <trkpt lat="45.04231" lon="4.13323">
        <ele>1327</ele>
        <time>2021-04-28T12:54:09Z</time>
      </trkpt>
      <trkpt lat="45.04235" lon="4.13331">
        <ele>1327</ele>
        <time>2021-04-28T12:54:10Z</time>
      </trkpt>
      <trkpt lat="45.04238" lon="4.13338">
        <ele>1327</ele>
        <time>2021-04-28T12:54:11Z</time>
      </trkpt>
      <trkpt lat="45.04241" lon="4.13345">
        <ele>1327</ele>
        <time>2021-04-28T12:54:12Z</time>
      </trkpt>
      <trkpt lat="45.04244" lon="4.13352">
        <ele>1327</ele>
        <time>2021-04-28T12:54:13Z</time>
      </trkpt>
      <trkpt lat="45.04247" lon="4.13358">
        <ele>1327</ele>
        <time>2021-04-28T12:54:14Z</time>
      </trkpt>
      <trkpt lat="45.04251" lon="4.13364">
        <ele>1327</ele>
        <time>2021-04-28T12:54:15Z</time>
      </trkpt>
      <trkpt lat="45.04254" lon="4.1337">
        <ele>1327</ele>
        <time>2021-04-28T12:54:16Z</time>
      </trkpt>
      <trkpt lat="45.04257" lon="4.13377">
        <ele>1327</ele>
        <time>2021-04-28T12:54:17Z</time>
      </trkpt>
      <trkpt lat="45.0426" lon="4.13383">
        <ele>1327</ele>
        <time>2021-04-28T12:54:18Z</time>
      </trkpt>
      <trkpt lat="45.04262" lon="4.1339">
        <ele>1327</ele>
        <time>2021-04-28T12:54:19Z</time>
      </trkpt>
      <trkpt lat="45.04264" lon="4.13396">
        <ele>1328</ele>
        <time>2021-04-28T12:54:20Z</time>
      </trkpt>
      <trkpt lat="45.04267" lon="4.13403">
        <ele>1328</ele>
        <time>2021-04-28T12:54:21Z</time>
      </trkpt>
      <trkpt lat="45.04272" lon="4.13418">
        <ele>1328</ele>
        <time>2021-04-28T12:54:22Z</time>
      </trkpt>
      <trkpt lat="45.04275" lon="4.13424">
        <ele>1328</ele>
        <time>2021-04-28T12:54:24Z</time>
      </trkpt>
      <trkpt lat="45.04277" lon="4.1343">
        <ele>1329</ele>
        <time>2021-04-28T12:54:25Z</time>
      </trkpt>
      <trkpt lat="45.04278" lon="4.13436">
        <ele>1329</ele>
        <time>2021-04-28T12:54:26Z</time>
      </trkpt>
      <trkpt lat="45.04281" lon="4.13449">
        <ele>1329</ele>
        <time>2021-04-28T12:54:28Z</time>
      </trkpt>
      <trkpt lat="45.04278" lon="4.13467">
        <ele>1329</ele>
        <time>2021-04-28T12:54:31Z</time>
      </trkpt>
      <trkpt lat="45.04276" lon="4.13483">
        <ele>1329</ele>
        <time>2021-04-28T12:54:33Z</time>
      </trkpt>
      <trkpt lat="45.04274" lon="4.13503">
        <ele>1329</ele>
        <time>2021-04-28T12:54:35Z</time>
      </trkpt>
      <trkpt lat="45.04273" lon="4.13512">
        <ele>1329</ele>
        <time>2021-04-28T12:54:36Z</time>
      </trkpt>
      <trkpt lat="45.04272" lon="4.13526">
        <ele>1329</ele>
        <time>2021-04-28T12:54:38Z</time>
      </trkpt>
      <trkpt lat="45.0427" lon="4.13534">
        <ele>1329</ele>
        <time>2021-04-28T12:54:39Z</time>
      </trkpt>
      <trkpt lat="45.04271" lon="4.13544">
        <ele>1329</ele>
        <time>2021-04-28T12:54:40Z</time>
      </trkpt>
      <trkpt lat="45.04269" lon="4.13562">
        <ele>1329</ele>
        <time>2021-04-28T12:54:41Z</time>
      </trkpt>
      <trkpt lat="45.04267" lon="4.1357">
        <ele>1329</ele>
        <time>2021-04-28T12:54:43Z</time>
      </trkpt>
      <trkpt lat="45.04265" lon="4.13577">
        <ele>1329</ele>
        <time>2021-04-28T12:54:44Z</time>
      </trkpt>
      <trkpt lat="45.04262" lon="4.13584">
        <ele>1329</ele>
        <time>2021-04-28T12:54:45Z</time>
      </trkpt>
      <trkpt lat="45.04258" lon="4.13589">
        <ele>1329</ele>
        <time>2021-04-28T12:54:46Z</time>
      </trkpt>
      <trkpt lat="45.04254" lon="4.13596">
        <ele>1329</ele>
        <time>2021-04-28T12:54:47Z</time>
      </trkpt>
      <trkpt lat="45.0425" lon="4.13602">
        <ele>1329</ele>
        <time>2021-04-28T12:54:48Z</time>
      </trkpt>
      <trkpt lat="45.04246" lon="4.13609">
        <ele>1329</ele>
        <time>2021-04-28T12:54:49Z</time>
      </trkpt>
      <trkpt lat="45.04242" lon="4.13616">
        <ele>1329</ele>
        <time>2021-04-28T12:54:50Z</time>
      </trkpt>
      <trkpt lat="45.04238" lon="4.13623">
        <ele>1329</ele>
        <time>2021-04-28T12:54:51Z</time>
      </trkpt>
      <trkpt lat="45.04234" lon="4.13629">
        <ele>1329</ele>
        <time>2021-04-28T12:54:52Z</time>
      </trkpt>
      <trkpt lat="45.0423" lon="4.13636">
        <ele>1329</ele>
        <time>2021-04-28T12:54:53Z</time>
      </trkpt>
      <trkpt lat="45.04226" lon="4.13643">
        <ele>1329</ele>
        <time>2021-04-28T12:54:54Z</time>
      </trkpt>
      <trkpt lat="45.04223" lon="4.1365">
        <ele>1329</ele>
        <time>2021-04-28T12:54:55Z</time>
      </trkpt>
      <trkpt lat="45.04219" lon="4.13656">
        <ele>1330</ele>
        <time>2021-04-28T12:54:56Z</time>
      </trkpt>
      <trkpt lat="45.04216" lon="4.13663">
        <ele>1330</ele>
        <time>2021-04-28T12:54:57Z</time>
      </trkpt>
      <trkpt lat="45.04213" lon="4.13669">
        <ele>1330</ele>
        <time>2021-04-28T12:54:58Z</time>
      </trkpt>
      <trkpt lat="45.04211" lon="4.13675">
        <ele>1330</ele>
        <time>2021-04-28T12:54:59Z</time>
      </trkpt>
      <trkpt lat="45.0421" lon="4.13686">
        <ele>1331</ele>
        <time>2021-04-28T12:55:00Z</time>
      </trkpt>
      <trkpt lat="45.0421" lon="4.13692">
        <ele>1331</ele>
        <time>2021-04-28T12:55:02Z</time>
      </trkpt>
      <trkpt lat="45.04211" lon="4.13697">
        <ele>1332</ele>
        <time>2021-04-28T12:55:03Z</time>
      </trkpt>
      <trkpt lat="45.04213" lon="4.13702">
        <ele>1332</ele>
        <time>2021-04-28T12:55:04Z</time>
      </trkpt>
      <trkpt lat="45.04215" lon="4.13707">
        <ele>1333</ele>
        <time>2021-04-28T12:55:05Z</time>
      </trkpt>
      <trkpt lat="45.04216" lon="4.13711">
        <ele>1333</ele>
        <time>2021-04-28T12:55:06Z</time>
      </trkpt>
      <trkpt lat="45.04217" lon="4.13714">
        <ele>1333</ele>
        <time>2021-04-28T12:55:07Z</time>
      </trkpt>
      <trkpt lat="45.04218" lon="4.13717">
        <ele>1333</ele>
        <time>2021-04-28T12:55:08Z</time>
      </trkpt>
      <trkpt lat="45.04218" lon="4.13723">
        <ele>1334</ele>
        <time>2021-04-28T12:55:11Z</time>
      </trkpt>
      <trkpt lat="45.04216" lon="4.13727">
        <ele>1334</ele>
        <time>2021-04-28T12:55:12Z</time>
      </trkpt>
      <trkpt lat="45.04215" lon="4.13731">
        <ele>1334</ele>
        <time>2021-04-28T12:55:13Z</time>
      </trkpt>
      <trkpt lat="45.04214" lon="4.13736">
        <ele>1334</ele>
        <time>2021-04-28T12:55:14Z</time>
      </trkpt>
      <trkpt lat="45.04213" lon="4.13743">
        <ele>1335</ele>
        <time>2021-04-28T12:55:15Z</time>
      </trkpt>
      <trkpt lat="45.04212" lon="4.13751">
        <ele>1335</ele>
        <time>2021-04-28T12:55:16Z</time>
      </trkpt>
      <trkpt lat="45.04212" lon="4.13759">
        <ele>1335</ele>
        <time>2021-04-28T12:55:17Z</time>
      </trkpt>
      <trkpt lat="45.04211" lon="4.13766">
        <ele>1335</ele>
        <time>2021-04-28T12:55:18Z</time>
      </trkpt>
      <trkpt lat="45.0421" lon="4.13778">
        <ele>1336</ele>
        <time>2021-04-28T12:55:19Z</time>
      </trkpt>
      <trkpt lat="45.0421" lon="4.13785">
        <ele>1336</ele>
        <time>2021-04-28T12:55:21Z</time>
      </trkpt>
      <trkpt lat="45.04211" lon="4.1379">
        <ele>1336</ele>
        <time>2021-04-28T12:55:22Z</time>
      </trkpt>
      <trkpt lat="45.04211" lon="4.13796">
        <ele>1336</ele>
        <time>2021-04-28T12:55:23Z</time>
      </trkpt>
      <trkpt lat="45.04216" lon="4.13809">
        <ele>1336</ele>
        <time>2021-04-28T12:55:25Z</time>
      </trkpt>
      <trkpt lat="45.04218" lon="4.13816">
        <ele>1336</ele>
        <time>2021-04-28T12:55:26Z</time>
      </trkpt>
      <trkpt lat="45.04219" lon="4.13823">
        <ele>1336</ele>
        <time>2021-04-28T12:55:27Z</time>
      </trkpt>
      <trkpt lat="45.04221" lon="4.1383">
        <ele>1336</ele>
        <time>2021-04-28T12:55:28Z</time>
      </trkpt>
      <trkpt lat="45.04224" lon="4.13839">
        <ele>1336</ele>
        <time>2021-04-28T12:55:29Z</time>
      </trkpt>
      <trkpt lat="45.04225" lon="4.13847">
        <ele>1337</ele>
        <time>2021-04-28T12:55:30Z</time>
      </trkpt>
      <trkpt lat="45.04226" lon="4.13855">
        <ele>1337</ele>
        <time>2021-04-28T12:55:31Z</time>
      </trkpt>
      <trkpt lat="45.04228" lon="4.13862">
        <ele>1337</ele>
        <time>2021-04-28T12:55:32Z</time>
      </trkpt>
      <trkpt lat="45.04231" lon="4.13871">
        <ele>1338</ele>
        <time>2021-04-28T12:55:33Z</time>
      </trkpt>
      <trkpt lat="45.04233" lon="4.13879">
        <ele>1338</ele>
        <time>2021-04-28T12:55:34Z</time>
      </trkpt>
      <trkpt lat="45.04234" lon="4.13886">
        <ele>1339</ele>
        <time>2021-04-28T12:55:35Z</time>
      </trkpt>
      <trkpt lat="45.04234" lon="4.13892">
        <ele>1339</ele>
        <time>2021-04-28T12:55:36Z</time>
      </trkpt>
      <trkpt lat="45.04232" lon="4.13898">
        <ele>1340</ele>
        <time>2021-04-28T12:55:37Z</time>
      </trkpt>
      <trkpt lat="45.04227" lon="4.13905">
        <ele>1340</ele>
        <time>2021-04-28T12:55:38Z</time>
      </trkpt>
      <trkpt lat="45.04224" lon="4.13907">
        <ele>1340</ele>
        <time>2021-04-28T12:55:40Z</time>
      </trkpt>
      <trkpt lat="45.04222" lon="4.1391">
        <ele>1340</ele>
        <time>2021-04-28T12:55:41Z</time>
      </trkpt>
      <trkpt lat="45.0422" lon="4.13912">
        <ele>1340</ele>
        <time>2021-04-28T12:55:42Z</time>
      </trkpt>
      <trkpt lat="45.04218" lon="4.13915">
        <ele>1340</ele>
        <time>2021-04-28T12:55:43Z</time>
      </trkpt>
      <trkpt lat="45.04216" lon="4.13918">
        <ele>1341</ele>
        <time>2021-04-28T12:55:44Z</time>
      </trkpt>
      <trkpt lat="45.04214" lon="4.13921">
        <ele>1341</ele>
        <time>2021-04-28T12:55:45Z</time>
      </trkpt>
      <trkpt lat="45.04213" lon="4.13924">
        <ele>1341</ele>
        <time>2021-04-28T12:55:46Z</time>
      </trkpt>
      <trkpt lat="45.04211" lon="4.13926">
        <ele>1341</ele>
        <time>2021-04-28T12:55:47Z</time>
      </trkpt>
      <trkpt lat="45.04207" lon="4.1393">
        <ele>1342</ele>
        <time>2021-04-28T12:55:48Z</time>
      </trkpt>
      <trkpt lat="45.04204" lon="4.13933">
        <ele>1342</ele>
        <time>2021-04-28T12:55:49Z</time>
      </trkpt>
      <trkpt lat="45.04201" lon="4.13938">
        <ele>1342</ele>
        <time>2021-04-28T12:55:50Z</time>
      </trkpt>
      <trkpt lat="45.04197" lon="4.13942">
        <ele>1342</ele>
        <time>2021-04-28T12:55:51Z</time>
      </trkpt>
      <trkpt lat="45.04194" lon="4.13946">
        <ele>1343</ele>
        <time>2021-04-28T12:55:52Z</time>
      </trkpt>
      <trkpt lat="45.0419" lon="4.1395">
        <ele>1343</ele>
        <time>2021-04-28T12:55:53Z</time>
      </trkpt>
      <trkpt lat="45.04186" lon="4.13954">
        <ele>1343</ele>
        <time>2021-04-28T12:55:54Z</time>
      </trkpt>
      <trkpt lat="45.04183" lon="4.13958">
        <ele>1343</ele>
        <time>2021-04-28T12:55:55Z</time>
      </trkpt>
      <trkpt lat="45.0418" lon="4.13962">
        <ele>1343</ele>
        <time>2021-04-28T12:55:56Z</time>
      </trkpt>
      <trkpt lat="45.04177" lon="4.13967">
        <ele>1343</ele>
        <time>2021-04-28T12:55:57Z</time>
      </trkpt>
      <trkpt lat="45.04174" lon="4.1397">
        <ele>1344</ele>
        <time>2021-04-28T12:56:00Z</time>
      </trkpt>
      <trkpt lat="45.04173" lon="4.13972">
        <ele>1345</ele>
        <time>2021-04-28T12:56:31Z</time>
      </trkpt>
      <trkpt lat="45.04173" lon="4.13972">
        <ele>1345</ele>
        <time>2021-04-28T12:56:36Z</time>
      </trkpt>
      <trkpt lat="45.04166" lon="4.13981">
        <ele>1346</ele>
        <time>2021-04-28T12:57:08Z</time>
      </trkpt>
      <trkpt lat="45.04164" lon="4.13983">
        <ele>1347</ele>
        <time>2021-04-28T12:57:10Z</time>
      </trkpt>
      <trkpt lat="45.04162" lon="4.13986">
        <ele>1346</ele>
        <time>2021-04-28T12:57:11Z</time>
      </trkpt>
      <trkpt lat="45.0416" lon="4.13988">
        <ele>1346</ele>
        <time>2021-04-28T12:57:12Z</time>
      </trkpt>
      <trkpt lat="45.04157" lon="4.13992">
        <ele>1346</ele>
        <time>2021-04-28T12:57:13Z</time>
      </trkpt>
      <trkpt lat="45.04154" lon="4.13997">
        <ele>1346</ele>
        <time>2021-04-28T12:57:14Z</time>
      </trkpt>
      <trkpt lat="45.0415" lon="4.14002">
        <ele>1346</ele>
        <time>2021-04-28T12:57:15Z</time>
      </trkpt>
      <trkpt lat="45.04147" lon="4.14007">
        <ele>1346</ele>
        <time>2021-04-28T12:57:16Z</time>
      </trkpt>
      <trkpt lat="45.04142" lon="4.14011">
        <ele>1346</ele>
        <time>2021-04-28T12:57:17Z</time>
      </trkpt>
      <trkpt lat="45.04139" lon="4.14016">
        <ele>1346</ele>
        <time>2021-04-28T12:57:18Z</time>
      </trkpt>
      <trkpt lat="45.04135" lon="4.14021">
        <ele>1346</ele>
        <time>2021-04-28T12:57:19Z</time>
      </trkpt>
      <trkpt lat="45.04131" lon="4.14027">
        <ele>1346</ele>
        <time>2021-04-28T12:57:20Z</time>
      </trkpt>
      <trkpt lat="45.04127" lon="4.14032">
        <ele>1346</ele>
        <time>2021-04-28T12:57:21Z</time>
      </trkpt>
      <trkpt lat="45.04123" lon="4.14037">
        <ele>1347</ele>
        <time>2021-04-28T12:57:22Z</time>
      </trkpt>
      <trkpt lat="45.0412" lon="4.14041">
        <ele>1347</ele>
        <time>2021-04-28T12:57:23Z</time>
      </trkpt>
      <trkpt lat="45.04117" lon="4.14045">
        <ele>1347</ele>
        <time>2021-04-28T12:57:24Z</time>
      </trkpt>
      <trkpt lat="45.04115" lon="4.14049">
        <ele>1347</ele>
        <time>2021-04-28T12:57:25Z</time>
      </trkpt>
      <trkpt lat="45.04112" lon="4.14053">
        <ele>1347</ele>
        <time>2021-04-28T12:57:26Z</time>
      </trkpt>
      <trkpt lat="45.04105" lon="4.14061">
        <ele>1347</ele>
        <time>2021-04-28T12:57:27Z</time>
      </trkpt>
      <trkpt lat="45.04099" lon="4.14069">
        <ele>1348</ele>
        <time>2021-04-28T12:57:30Z</time>
      </trkpt>
      <trkpt lat="45.04096" lon="4.14072">
        <ele>1348</ele>
        <time>2021-04-28T12:57:31Z</time>
      </trkpt>
      <trkpt lat="45.04093" lon="4.14076">
        <ele>1348</ele>
        <time>2021-04-28T12:57:32Z</time>
      </trkpt>
      <trkpt lat="45.04091" lon="4.14081">
        <ele>1349</ele>
        <time>2021-04-28T12:57:33Z</time>
      </trkpt>
      <trkpt lat="45.04087" lon="4.14085">
        <ele>1349</ele>
        <time>2021-04-28T12:57:34Z</time>
      </trkpt>
      <trkpt lat="45.04083" lon="4.14089">
        <ele>1349</ele>
        <time>2021-04-28T12:57:35Z</time>
      </trkpt>
      <trkpt lat="45.0408" lon="4.14093">
        <ele>1349</ele>
        <time>2021-04-28T12:57:36Z</time>
      </trkpt>
      <trkpt lat="45.04078" lon="4.14096">
        <ele>1349</ele>
        <time>2021-04-28T12:57:37Z</time>
      </trkpt>
      <trkpt lat="45.04075" lon="4.141">
        <ele>1350</ele>
        <time>2021-04-28T12:57:38Z</time>
      </trkpt>
      <trkpt lat="45.04072" lon="4.14104">
        <ele>1350</ele>
        <time>2021-04-28T12:57:39Z</time>
      </trkpt>
      <trkpt lat="45.04069" lon="4.14108">
        <ele>1351</ele>
        <time>2021-04-28T12:57:40Z</time>
      </trkpt>
      <trkpt lat="45.04066" lon="4.14113">
        <ele>1351</ele>
        <time>2021-04-28T12:57:41Z</time>
      </trkpt>
      <trkpt lat="45.04062" lon="4.14118">
        <ele>1351</ele>
        <time>2021-04-28T12:57:42Z</time>
      </trkpt>
      <trkpt lat="45.04059" lon="4.14122">
        <ele>1352</ele>
        <time>2021-04-28T12:57:43Z</time>
      </trkpt>
      <trkpt lat="45.04056" lon="4.14125">
        <ele>1352</ele>
        <time>2021-04-28T12:57:44Z</time>
      </trkpt>
      <trkpt lat="45.04053" lon="4.14129">
        <ele>1352</ele>
        <time>2021-04-28T12:57:45Z</time>
      </trkpt>
      <trkpt lat="45.04047" lon="4.14137">
        <ele>1352</ele>
        <time>2021-04-28T12:57:46Z</time>
      </trkpt>
      <trkpt lat="45.04044" lon="4.14141">
        <ele>1352</ele>
        <time>2021-04-28T12:57:48Z</time>
      </trkpt>
      <trkpt lat="45.0404" lon="4.14145">
        <ele>1352</ele>
        <time>2021-04-28T12:57:49Z</time>
      </trkpt>
      <trkpt lat="45.04037" lon="4.14149">
        <ele>1352</ele>
        <time>2021-04-28T12:57:50Z</time>
      </trkpt>
      <trkpt lat="45.04035" lon="4.14154">
        <ele>1353</ele>
        <time>2021-04-28T12:57:51Z</time>
      </trkpt>
      <trkpt lat="45.04032" lon="4.14157">
        <ele>1353</ele>
        <time>2021-04-28T12:57:52Z</time>
      </trkpt>
      <trkpt lat="45.0403" lon="4.14161">
        <ele>1354</ele>
        <time>2021-04-28T12:57:53Z</time>
      </trkpt>
      <trkpt lat="45.0403" lon="4.14164">
        <ele>1354</ele>
        <time>2021-04-28T12:57:54Z</time>
      </trkpt>
      <trkpt lat="45.0403" lon="4.1417">
        <ele>1354</ele>
        <time>2021-04-28T12:57:55Z</time>
      </trkpt>
      <trkpt lat="45.0403" lon="4.14176">
        <ele>1355</ele>
        <time>2021-04-28T12:57:56Z</time>
      </trkpt>
      <trkpt lat="45.04031" lon="4.14181">
        <ele>1355</ele>
        <time>2021-04-28T12:57:57Z</time>
      </trkpt>
      <trkpt lat="45.04032" lon="4.14186">
        <ele>1355</ele>
        <time>2021-04-28T12:57:58Z</time>
      </trkpt>
      <trkpt lat="45.04033" lon="4.14191">
        <ele>1355</ele>
        <time>2021-04-28T12:57:59Z</time>
      </trkpt>
      <trkpt lat="45.04035" lon="4.14197">
        <ele>1355</ele>
        <time>2021-04-28T12:58:00Z</time>
      </trkpt>
      <trkpt lat="45.04035" lon="4.14202">
        <ele>1355</ele>
        <time>2021-04-28T12:58:01Z</time>
      </trkpt>
      <trkpt lat="45.04034" lon="4.14207">
        <ele>1355</ele>
        <time>2021-04-28T12:58:02Z</time>
      </trkpt>
      <trkpt lat="45.04032" lon="4.14211">
        <ele>1356</ele>
        <time>2021-04-28T12:58:03Z</time>
      </trkpt>
      <trkpt lat="45.0403" lon="4.14214">
        <ele>1356</ele>
        <time>2021-04-28T12:58:04Z</time>
      </trkpt>
      <trkpt lat="45.04024" lon="4.1422">
        <ele>1356</ele>
        <time>2021-04-28T12:58:05Z</time>
      </trkpt>
      <trkpt lat="45.04021" lon="4.14223">
        <ele>1357</ele>
        <time>2021-04-28T12:58:07Z</time>
      </trkpt>
      <trkpt lat="45.04018" lon="4.14226">
        <ele>1357</ele>
        <time>2021-04-28T12:58:08Z</time>
      </trkpt>
      <trkpt lat="45.04014" lon="4.14228">
        <ele>1357</ele>
        <time>2021-04-28T12:58:09Z</time>
      </trkpt>
      <trkpt lat="45.04011" lon="4.14231">
        <ele>1358</ele>
        <time>2021-04-28T12:58:10Z</time>
      </trkpt>
      <trkpt lat="45.04008" lon="4.14233">
        <ele>1358</ele>
        <time>2021-04-28T12:58:11Z</time>
      </trkpt>
      <trkpt lat="45.04004" lon="4.14236">
        <ele>1358</ele>
        <time>2021-04-28T12:58:12Z</time>
      </trkpt>
      <trkpt lat="45.04" lon="4.14239">
        <ele>1359</ele>
        <time>2021-04-28T12:58:13Z</time>
      </trkpt>
      <trkpt lat="45.03997" lon="4.14241">
        <ele>1359</ele>
        <time>2021-04-28T12:58:14Z</time>
      </trkpt>
      <trkpt lat="45.03993" lon="4.14243">
        <ele>1359</ele>
        <time>2021-04-28T12:58:15Z</time>
      </trkpt>
      <trkpt lat="45.0399" lon="4.14246">
        <ele>1359</ele>
        <time>2021-04-28T12:58:16Z</time>
      </trkpt>
      <trkpt lat="45.03986" lon="4.14249">
        <ele>1359</ele>
        <time>2021-04-28T12:58:17Z</time>
      </trkpt>
      <trkpt lat="45.03983" lon="4.14251">
        <ele>1359</ele>
        <time>2021-04-28T12:58:18Z</time>
      </trkpt>
      <trkpt lat="45.0398" lon="4.14253">
        <ele>1360</ele>
        <time>2021-04-28T12:58:19Z</time>
      </trkpt>
      <trkpt lat="45.03977" lon="4.14256">
        <ele>1360</ele>
        <time>2021-04-28T12:58:20Z</time>
      </trkpt>
      <trkpt lat="45.03974" lon="4.14259">
        <ele>1360</ele>
        <time>2021-04-28T12:58:21Z</time>
      </trkpt>
      <trkpt lat="45.03971" lon="4.14263">
        <ele>1360</ele>
        <time>2021-04-28T12:58:22Z</time>
      </trkpt>
      <trkpt lat="45.03969" lon="4.14268">
        <ele>1361</ele>
        <time>2021-04-28T12:58:23Z</time>
      </trkpt>
      <trkpt lat="45.03965" lon="4.14278">
        <ele>1361</ele>
        <time>2021-04-28T12:58:24Z</time>
      </trkpt>
      <trkpt lat="45.03963" lon="4.14283">
        <ele>1361</ele>
        <time>2021-04-28T12:58:26Z</time>
      </trkpt>
      <trkpt lat="45.03962" lon="4.1429">
        <ele>1361</ele>
        <time>2021-04-28T12:58:27Z</time>
      </trkpt>
      <trkpt lat="45.0396" lon="4.14296">
        <ele>1361</ele>
        <time>2021-04-28T12:58:28Z</time>
      </trkpt>
      <trkpt lat="45.03958" lon="4.14303">
        <ele>1362</ele>
        <time>2021-04-28T12:58:29Z</time>
      </trkpt>
      <trkpt lat="45.03956" lon="4.14312">
        <ele>1361</ele>
        <time>2021-04-28T12:58:30Z</time>
      </trkpt>
      <trkpt lat="45.03954" lon="4.14321">
        <ele>1361</ele>
        <time>2021-04-28T12:58:31Z</time>
      </trkpt>
      <trkpt lat="45.03951" lon="4.1433">
        <ele>1361</ele>
        <time>2021-04-28T12:58:32Z</time>
      </trkpt>
      <trkpt lat="45.03949" lon="4.14339">
        <ele>1360</ele>
        <time>2021-04-28T12:58:33Z</time>
      </trkpt>
      <trkpt lat="45.03946" lon="4.14347">
        <ele>1360</ele>
        <time>2021-04-28T12:58:34Z</time>
      </trkpt>
      <trkpt lat="45.03944" lon="4.14356">
        <ele>1360</ele>
        <time>2021-04-28T12:58:35Z</time>
      </trkpt>
      <trkpt lat="45.03941" lon="4.14364">
        <ele>1360</ele>
        <time>2021-04-28T12:58:36Z</time>
      </trkpt>
      <trkpt lat="45.03938" lon="4.14372">
        <ele>1360</ele>
        <time>2021-04-28T12:58:37Z</time>
      </trkpt>
      <trkpt lat="45.03935" lon="4.14379">
        <ele>1360</ele>
        <time>2021-04-28T12:58:38Z</time>
      </trkpt>
      <trkpt lat="45.03932" lon="4.14387">
        <ele>1360</ele>
        <time>2021-04-28T12:58:39Z</time>
      </trkpt>
      <trkpt lat="45.03928" lon="4.14394">
        <ele>1360</ele>
        <time>2021-04-28T12:58:40Z</time>
      </trkpt>
      <trkpt lat="45.03923" lon="4.14401">
        <ele>1360</ele>
        <time>2021-04-28T12:58:41Z</time>
      </trkpt>
      <trkpt lat="45.03917" lon="4.14408">
        <ele>1360</ele>
        <time>2021-04-28T12:58:42Z</time>
      </trkpt>
      <trkpt lat="45.03911" lon="4.14413">
        <ele>1360</ele>
        <time>2021-04-28T12:58:43Z</time>
      </trkpt>
      <trkpt lat="45.03904" lon="4.14419">
        <ele>1360</ele>
        <time>2021-04-28T12:58:44Z</time>
      </trkpt>
      <trkpt lat="45.03897" lon="4.14426">
        <ele>1361</ele>
        <time>2021-04-28T12:58:45Z</time>
      </trkpt>
      <trkpt lat="45.03883" lon="4.1444">
        <ele>1361</ele>
        <time>2021-04-28T12:58:47Z</time>
      </trkpt>
      <trkpt lat="45.03876" lon="4.14447">
        <ele>1361</ele>
        <time>2021-04-28T12:58:48Z</time>
      </trkpt>
      <trkpt lat="45.03869" lon="4.14453">
        <ele>1360</ele>
        <time>2021-04-28T12:58:49Z</time>
      </trkpt>
      <trkpt lat="45.03854" lon="4.14465">
        <ele>1360</ele>
        <time>2021-04-28T12:58:51Z</time>
      </trkpt>
      <trkpt lat="45.0384" lon="4.14475">
        <ele>1360</ele>
        <time>2021-04-28T12:58:53Z</time>
      </trkpt>
      <trkpt lat="45.03826" lon="4.14483">
        <ele>1360</ele>
        <time>2021-04-28T12:58:55Z</time>
      </trkpt>
      <trkpt lat="45.03811" lon="4.14487">
        <ele>1360</ele>
        <time>2021-04-28T12:58:57Z</time>
      </trkpt>
      <trkpt lat="45.03795" lon="4.14491">
        <ele>1360</ele>
        <time>2021-04-28T12:58:59Z</time>
      </trkpt>
      <trkpt lat="45.03786" lon="4.14495">
        <ele>1360</ele>
        <time>2021-04-28T12:59:00Z</time>
      </trkpt>
      <trkpt lat="45.03777" lon="4.14497">
        <ele>1359</ele>
        <time>2021-04-28T12:59:01Z</time>
      </trkpt>
      <trkpt lat="45.03761" lon="4.14502">
        <ele>1359</ele>
        <time>2021-04-28T12:59:02Z</time>
      </trkpt>
      <trkpt lat="45.03754" lon="4.14505">
        <ele>1357</ele>
        <time>2021-04-28T12:59:04Z</time>
      </trkpt>
      <trkpt lat="45.0375" lon="4.14507">
        <ele>1357</ele>
        <time>2021-04-28T12:59:05Z</time>
      </trkpt>
      <trkpt lat="45.03747" lon="4.14509">
        <ele>1356</ele>
        <time>2021-04-28T12:59:06Z</time>
      </trkpt>
      <trkpt lat="45.03746" lon="4.14511">
        <ele>1355</ele>
        <time>2021-04-28T12:59:09Z</time>
      </trkpt>
      <trkpt lat="45.03746" lon="4.14514">
        <ele>1355</ele>
        <time>2021-04-28T12:59:11Z</time>
      </trkpt>
      <trkpt lat="45.03747" lon="4.14517">
        <ele>1354</ele>
        <time>2021-04-28T12:59:12Z</time>
      </trkpt>
      <trkpt lat="45.03748" lon="4.14521">
        <ele>1354</ele>
        <time>2021-04-28T12:59:13Z</time>
      </trkpt>
      <trkpt lat="45.03749" lon="4.14525">
        <ele>1354</ele>
        <time>2021-04-28T12:59:14Z</time>
      </trkpt>
      <trkpt lat="45.03751" lon="4.1453">
        <ele>1354</ele>
        <time>2021-04-28T12:59:15Z</time>
      </trkpt>
      <trkpt lat="45.03752" lon="4.14536">
        <ele>1354</ele>
        <time>2021-04-28T12:59:16Z</time>
      </trkpt>
      <trkpt lat="45.03753" lon="4.14541">
        <ele>1353</ele>
        <time>2021-04-28T12:59:17Z</time>
      </trkpt>
      <trkpt lat="45.03754" lon="4.14547">
        <ele>1353</ele>
        <time>2021-04-28T12:59:18Z</time>
      </trkpt>
      <trkpt lat="45.03756" lon="4.14554">
        <ele>1353</ele>
        <time>2021-04-28T12:59:19Z</time>
      </trkpt>
      <trkpt lat="45.03759" lon="4.14561">
        <ele>1353</ele>
        <time>2021-04-28T12:59:20Z</time>
      </trkpt>
      <trkpt lat="45.0376" lon="4.14568">
        <ele>1353</ele>
        <time>2021-04-28T12:59:21Z</time>
      </trkpt>
      <trkpt lat="45.03763" lon="4.14582">
        <ele>1353</ele>
        <time>2021-04-28T12:59:23Z</time>
      </trkpt>
      <trkpt lat="45.03766" lon="4.14591">
        <ele>1353</ele>
        <time>2021-04-28T12:59:24Z</time>
      </trkpt>
      <trkpt lat="45.03768" lon="4.146">
        <ele>1353</ele>
        <time>2021-04-28T12:59:25Z</time>
      </trkpt>
      <trkpt lat="45.03771" lon="4.14615">
        <ele>1353</ele>
        <time>2021-04-28T12:59:27Z</time>
      </trkpt>
      <trkpt lat="45.03774" lon="4.14629">
        <ele>1353</ele>
        <time>2021-04-28T12:59:29Z</time>
      </trkpt>
      <trkpt lat="45.03775" lon="4.14644">
        <ele>1353</ele>
        <time>2021-04-28T12:59:31Z</time>
      </trkpt>
      <trkpt lat="45.03777" lon="4.14653">
        <ele>1353</ele>
        <time>2021-04-28T12:59:32Z</time>
      </trkpt>
      <trkpt lat="45.03779" lon="4.14662">
        <ele>1353</ele>
        <time>2021-04-28T12:59:33Z</time>
      </trkpt>
      <trkpt lat="45.03781" lon="4.14672">
        <ele>1353</ele>
        <time>2021-04-28T12:59:34Z</time>
      </trkpt>
      <trkpt lat="45.03783" lon="4.14682">
        <ele>1352</ele>
        <time>2021-04-28T12:59:35Z</time>
      </trkpt>
      <trkpt lat="45.03785" lon="4.14691">
        <ele>1352</ele>
        <time>2021-04-28T12:59:36Z</time>
      </trkpt>
      <trkpt lat="45.03787" lon="4.147">
        <ele>1352</ele>
        <time>2021-04-28T12:59:37Z</time>
      </trkpt>
      <trkpt lat="45.03788" lon="4.14717">
        <ele>1351</ele>
        <time>2021-04-28T12:59:39Z</time>
      </trkpt>
      <trkpt lat="45.0379" lon="4.14733">
        <ele>1351</ele>
        <time>2021-04-28T12:59:40Z</time>
      </trkpt>
      <trkpt lat="45.03796" lon="4.14753">
        <ele>1351</ele>
        <time>2021-04-28T12:59:43Z</time>
      </trkpt>
      <trkpt lat="45.038" lon="4.14772">
        <ele>1350</ele>
        <time>2021-04-28T12:59:45Z</time>
      </trkpt>
      <trkpt lat="45.03805" lon="4.14793">
        <ele>1349</ele>
        <time>2021-04-28T12:59:47Z</time>
      </trkpt>
      <trkpt lat="45.03808" lon="4.14814">
        <ele>1348</ele>
        <time>2021-04-28T12:59:49Z</time>
      </trkpt>
      <trkpt lat="45.03809" lon="4.14824">
        <ele>1348</ele>
        <time>2021-04-28T12:59:50Z</time>
      </trkpt>
      <trkpt lat="45.0381" lon="4.14833">
        <ele>1348</ele>
        <time>2021-04-28T12:59:51Z</time>
      </trkpt>
      <trkpt lat="45.03812" lon="4.14841">
        <ele>1347</ele>
        <time>2021-04-28T12:59:52Z</time>
      </trkpt>
      <trkpt lat="45.03813" lon="4.14849">
        <ele>1347</ele>
        <time>2021-04-28T12:59:53Z</time>
      </trkpt>
      <trkpt lat="45.03814" lon="4.14857">
        <ele>1347</ele>
        <time>2021-04-28T12:59:54Z</time>
      </trkpt>
      <trkpt lat="45.03818" lon="4.1487">
        <ele>1347</ele>
        <time>2021-04-28T12:59:56Z</time>
      </trkpt>
      <trkpt lat="45.03822" lon="4.14884">
        <ele>1346</ele>
        <time>2021-04-28T12:59:57Z</time>
      </trkpt>
      <trkpt lat="45.03825" lon="4.14892">
        <ele>1346</ele>
        <time>2021-04-28T12:59:59Z</time>
      </trkpt>
      <trkpt lat="45.03829" lon="4.1491">
        <ele>1347</ele>
        <time>2021-04-28T13:00:01Z</time>
      </trkpt>
      <trkpt lat="45.0383" lon="4.14918">
        <ele>1347</ele>
        <time>2021-04-28T13:00:02Z</time>
      </trkpt>
      <trkpt lat="45.03831" lon="4.14926">
        <ele>1347</ele>
        <time>2021-04-28T13:00:03Z</time>
      </trkpt>
      <trkpt lat="45.03832" lon="4.14933">
        <ele>1347</ele>
        <time>2021-04-28T13:00:04Z</time>
      </trkpt>
      <trkpt lat="45.03834" lon="4.1494">
        <ele>1347</ele>
        <time>2021-04-28T13:00:05Z</time>
      </trkpt>
      <trkpt lat="45.03835" lon="4.14948">
        <ele>1346</ele>
        <time>2021-04-28T13:00:06Z</time>
      </trkpt>
      <trkpt lat="45.03838" lon="4.14956">
        <ele>1346</ele>
        <time>2021-04-28T13:00:07Z</time>
      </trkpt>
      <trkpt lat="45.0384" lon="4.14964">
        <ele>1346</ele>
        <time>2021-04-28T13:00:08Z</time>
      </trkpt>
      <trkpt lat="45.03841" lon="4.14973">
        <ele>1346</ele>
        <time>2021-04-28T13:00:09Z</time>
      </trkpt>
      <trkpt lat="45.03842" lon="4.14981">
        <ele>1346</ele>
        <time>2021-04-28T13:00:10Z</time>
      </trkpt>
      <trkpt lat="45.03843" lon="4.1499">
        <ele>1346</ele>
        <time>2021-04-28T13:00:11Z</time>
      </trkpt>
      <trkpt lat="45.03844" lon="4.14998">
        <ele>1346</ele>
        <time>2021-04-28T13:00:12Z</time>
      </trkpt>
      <trkpt lat="45.03846" lon="4.15007">
        <ele>1347</ele>
        <time>2021-04-28T13:00:13Z</time>
      </trkpt>
      <trkpt lat="45.03847" lon="4.15017">
        <ele>1346</ele>
        <time>2021-04-28T13:00:14Z</time>
      </trkpt>
      <trkpt lat="45.03849" lon="4.15026">
        <ele>1346</ele>
        <time>2021-04-28T13:00:15Z</time>
      </trkpt>
      <trkpt lat="45.03851" lon="4.15035">
        <ele>1346</ele>
        <time>2021-04-28T13:00:16Z</time>
      </trkpt>
      <trkpt lat="45.03854" lon="4.15044">
        <ele>1346</ele>
        <time>2021-04-28T13:00:17Z</time>
      </trkpt>
      <trkpt lat="45.03857" lon="4.15062">
        <ele>1346</ele>
        <time>2021-04-28T13:00:18Z</time>
      </trkpt>
      <trkpt lat="45.03858" lon="4.1507">
        <ele>1346</ele>
        <time>2021-04-28T13:00:20Z</time>
      </trkpt>
      <trkpt lat="45.03858" lon="4.15078">
        <ele>1345</ele>
        <time>2021-04-28T13:00:21Z</time>
      </trkpt>
      <trkpt lat="45.03859" lon="4.15085">
        <ele>1345</ele>
        <time>2021-04-28T13:00:22Z</time>
      </trkpt>
      <trkpt lat="45.03859" lon="4.15093">
        <ele>1345</ele>
        <time>2021-04-28T13:00:23Z</time>
      </trkpt>
      <trkpt lat="45.0386" lon="4.151">
        <ele>1345</ele>
        <time>2021-04-28T13:00:24Z</time>
      </trkpt>
      <trkpt lat="45.03861" lon="4.15107">
        <ele>1344</ele>
        <time>2021-04-28T13:00:25Z</time>
      </trkpt>
      <trkpt lat="45.03861" lon="4.15115">
        <ele>1344</ele>
        <time>2021-04-28T13:00:26Z</time>
      </trkpt>
      <trkpt lat="45.03861" lon="4.15123">
        <ele>1343</ele>
        <time>2021-04-28T13:00:27Z</time>
      </trkpt>
      <trkpt lat="45.03862" lon="4.15129">
        <ele>1343</ele>
        <time>2021-04-28T13:00:28Z</time>
      </trkpt>
      <trkpt lat="45.03863" lon="4.15136">
        <ele>1343</ele>
        <time>2021-04-28T13:00:29Z</time>
      </trkpt>
      <trkpt lat="45.03864" lon="4.15143">
        <ele>1343</ele>
        <time>2021-04-28T13:00:30Z</time>
      </trkpt>
      <trkpt lat="45.03865" lon="4.1515">
        <ele>1342</ele>
        <time>2021-04-28T13:00:31Z</time>
      </trkpt>
      <trkpt lat="45.03866" lon="4.15158">
        <ele>1342</ele>
        <time>2021-04-28T13:00:32Z</time>
      </trkpt>
      <trkpt lat="45.03867" lon="4.15165">
        <ele>1342</ele>
        <time>2021-04-28T13:00:33Z</time>
      </trkpt>
      <trkpt lat="45.03868" lon="4.15173">
        <ele>1341</ele>
        <time>2021-04-28T13:00:34Z</time>
      </trkpt>
      <trkpt lat="45.03872" lon="4.15192">
        <ele>1341</ele>
        <time>2021-04-28T13:00:36Z</time>
      </trkpt>
      <trkpt lat="45.03878" lon="4.15212">
        <ele>1341</ele>
        <time>2021-04-28T13:00:37Z</time>
      </trkpt>
      <trkpt lat="45.03883" lon="4.1523">
        <ele>1340</ele>
        <time>2021-04-28T13:00:40Z</time>
      </trkpt>
      <trkpt lat="45.03888" lon="4.15247">
        <ele>1339</ele>
        <time>2021-04-28T13:00:42Z</time>
      </trkpt>
      <trkpt lat="45.0389" lon="4.15256">
        <ele>1339</ele>
        <time>2021-04-28T13:00:43Z</time>
      </trkpt>
      <trkpt lat="45.03894" lon="4.15269">
        <ele>1338</ele>
        <time>2021-04-28T13:00:45Z</time>
      </trkpt>
      <trkpt lat="45.03894" lon="4.15276">
        <ele>1338</ele>
        <time>2021-04-28T13:00:46Z</time>
      </trkpt>
      <trkpt lat="45.03894" lon="4.15282">
        <ele>1337</ele>
        <time>2021-04-28T13:00:47Z</time>
      </trkpt>
      <trkpt lat="45.03895" lon="4.15291">
        <ele>1337</ele>
        <time>2021-04-28T13:00:48Z</time>
      </trkpt>
      <trkpt lat="45.03896" lon="4.15298">
        <ele>1336</ele>
        <time>2021-04-28T13:00:49Z</time>
      </trkpt>
      <trkpt lat="45.03897" lon="4.15306">
        <ele>1335</ele>
        <time>2021-04-28T13:00:50Z</time>
      </trkpt>
      <trkpt lat="45.03898" lon="4.15313">
        <ele>1335</ele>
        <time>2021-04-28T13:00:51Z</time>
      </trkpt>
      <trkpt lat="45.03897" lon="4.15317">
        <ele>1334</ele>
        <time>2021-04-28T13:00:52Z</time>
      </trkpt>
      <trkpt lat="45.03898" lon="4.15321">
        <ele>1333</ele>
        <time>2021-04-28T13:00:54Z</time>
      </trkpt>
      <trkpt lat="45.03898" lon="4.15322">
        <ele>1333</ele>
        <time>2021-04-28T13:01:00Z</time>
      </trkpt>
      <trkpt lat="45.03898" lon="4.15324">
        <ele>1332</ele>
        <time>2021-04-28T13:01:02Z</time>
      </trkpt>
      <trkpt lat="45.03898" lon="4.15324">
        <ele>1332</ele>
        <time>2021-04-28T13:01:06Z</time>
      </trkpt>
      <trkpt lat="45.03892" lon="4.15329">
        <ele>1327</ele>
        <time>2021-04-28T13:01:52Z</time>
      </trkpt>
      <trkpt lat="45.03888" lon="4.1534">
        <ele>1327</ele>
        <time>2021-04-28T13:01:53Z</time>
      </trkpt>
      <trkpt lat="45.03885" lon="4.15345">
        <ele>1326</ele>
        <time>2021-04-28T13:01:55Z</time>
      </trkpt>
      <trkpt lat="45.0388" lon="4.15354">
        <ele>1326</ele>
        <time>2021-04-28T13:01:56Z</time>
      </trkpt>
      <trkpt lat="45.03877" lon="4.15356">
        <ele>1325</ele>
        <time>2021-04-28T13:01:58Z</time>
      </trkpt>
      <trkpt lat="45.03872" lon="4.15358">
        <ele>1325</ele>
        <time>2021-04-28T13:01:59Z</time>
      </trkpt>
      <trkpt lat="45.03867" lon="4.15363">
        <ele>1324</ele>
        <time>2021-04-28T13:02:00Z</time>
      </trkpt>
      <trkpt lat="45.03865" lon="4.15367">
        <ele>1323</ele>
        <time>2021-04-28T13:02:01Z</time>
      </trkpt>
      <trkpt lat="45.03864" lon="4.15373">
        <ele>1323</ele>
        <time>2021-04-28T13:02:02Z</time>
      </trkpt>
      <trkpt lat="45.03865" lon="4.1538">
        <ele>1323</ele>
        <time>2021-04-28T13:02:03Z</time>
      </trkpt>
      <trkpt lat="45.03867" lon="4.15386">
        <ele>1322</ele>
        <time>2021-04-28T13:02:04Z</time>
      </trkpt>
      <trkpt lat="45.0387" lon="4.15391">
        <ele>1322</ele>
        <time>2021-04-28T13:02:05Z</time>
      </trkpt>
      <trkpt lat="45.03872" lon="4.15397">
        <ele>1321</ele>
        <time>2021-04-28T13:02:06Z</time>
      </trkpt>
      <trkpt lat="45.03874" lon="4.15409">
        <ele>1320</ele>
        <time>2021-04-28T13:02:08Z</time>
      </trkpt>
      <trkpt lat="45.03873" lon="4.15415">
        <ele>1319</ele>
        <time>2021-04-28T13:02:09Z</time>
      </trkpt>
      <trkpt lat="45.03874" lon="4.15419">
        <ele>1319</ele>
        <time>2021-04-28T13:02:10Z</time>
      </trkpt>
      <trkpt lat="45.03874" lon="4.15423">
        <ele>1318</ele>
        <time>2021-04-28T13:02:11Z</time>
      </trkpt>
      <trkpt lat="45.03878" lon="4.15437">
        <ele>1318</ele>
        <time>2021-04-28T13:02:14Z</time>
      </trkpt>
      <trkpt lat="45.03876" lon="4.15446">
        <ele>1317</ele>
        <time>2021-04-28T13:02:17Z</time>
      </trkpt>
      <trkpt lat="45.03879" lon="4.1545">
        <ele>1315</ele>
        <time>2021-04-28T13:02:20Z</time>
      </trkpt>
      <trkpt lat="45.03878" lon="4.15454">
        <ele>1314</ele>
        <time>2021-04-28T13:02:22Z</time>
      </trkpt>
      <trkpt lat="45.03876" lon="4.15457">
        <ele>1313</ele>
        <time>2021-04-28T13:02:24Z</time>
      </trkpt>
      <trkpt lat="45.03874" lon="4.15459">
        <ele>1313</ele>
        <time>2021-04-28T13:02:25Z</time>
      </trkpt>
      <trkpt lat="45.03872" lon="4.15461">
        <ele>1312</ele>
        <time>2021-04-28T13:02:26Z</time>
      </trkpt>
      <trkpt lat="45.0387" lon="4.15464">
        <ele>1312</ele>
        <time>2021-04-28T13:02:27Z</time>
      </trkpt>
      <trkpt lat="45.03868" lon="4.15468">
        <ele>1311</ele>
        <time>2021-04-28T13:02:28Z</time>
      </trkpt>
      <trkpt lat="45.03866" lon="4.15473">
        <ele>1311</ele>
        <time>2021-04-28T13:02:29Z</time>
      </trkpt>
      <trkpt lat="45.03865" lon="4.15478">
        <ele>1311</ele>
        <time>2021-04-28T13:02:30Z</time>
      </trkpt>
      <trkpt lat="45.03865" lon="4.15488">
        <ele>1310</ele>
        <time>2021-04-28T13:02:31Z</time>
      </trkpt>
      <trkpt lat="45.03865" lon="4.15492">
        <ele>1309</ele>
        <time>2021-04-28T13:02:33Z</time>
      </trkpt>
      <trkpt lat="45.03864" lon="4.15495">
        <ele>1309</ele>
        <time>2021-04-28T13:02:34Z</time>
      </trkpt>
      <trkpt lat="45.03864" lon="4.15498">
        <ele>1308</ele>
        <time>2021-04-28T13:02:36Z</time>
      </trkpt>
      <trkpt lat="45.03863" lon="4.15501">
        <ele>1307</ele>
        <time>2021-04-28T13:02:37Z</time>
      </trkpt>
      <trkpt lat="45.03861" lon="4.15509">
        <ele>1307</ele>
        <time>2021-04-28T13:02:39Z</time>
      </trkpt>
      <trkpt lat="45.0386" lon="4.15514">
        <ele>1306</ele>
        <time>2021-04-28T13:02:40Z</time>
      </trkpt>
      <trkpt lat="45.0386" lon="4.15521">
        <ele>1306</ele>
        <time>2021-04-28T13:02:41Z</time>
      </trkpt>
      <trkpt lat="45.03857" lon="4.15535">
        <ele>1305</ele>
        <time>2021-04-28T13:02:43Z</time>
      </trkpt>
      <trkpt lat="45.03852" lon="4.15548">
        <ele>1305</ele>
        <time>2021-04-28T13:02:45Z</time>
      </trkpt>
      <trkpt lat="45.03846" lon="4.1556">
        <ele>1304</ele>
        <time>2021-04-28T13:02:47Z</time>
      </trkpt>
      <trkpt lat="45.03837" lon="4.15574">
        <ele>1303</ele>
        <time>2021-04-28T13:02:49Z</time>
      </trkpt>
      <trkpt lat="45.03833" lon="4.1559">
        <ele>1302</ele>
        <time>2021-04-28T13:02:50Z</time>
      </trkpt>
      <trkpt lat="45.03832" lon="4.15609">
        <ele>1301</ele>
        <time>2021-04-28T13:02:54Z</time>
      </trkpt>
      <trkpt lat="45.03834" lon="4.15628">
        <ele>1300</ele>
        <time>2021-04-28T13:02:57Z</time>
      </trkpt>
      <trkpt lat="45.03832" lon="4.15647">
        <ele>1299</ele>
        <time>2021-04-28T13:03:00Z</time>
      </trkpt>
      <trkpt lat="45.03826" lon="4.15664">
        <ele>1298</ele>
        <time>2021-04-28T13:03:02Z</time>
      </trkpt>
      <trkpt lat="45.03821" lon="4.15675">
        <ele>1297</ele>
        <time>2021-04-28T13:03:04Z</time>
      </trkpt>
      <trkpt lat="45.03815" lon="4.15688">
        <ele>1295</ele>
        <time>2021-04-28T13:03:07Z</time>
      </trkpt>
      <trkpt lat="45.03808" lon="4.15705">
        <ele>1294</ele>
        <time>2021-04-28T13:03:09Z</time>
      </trkpt>
      <trkpt lat="45.03805" lon="4.15722">
        <ele>1292</ele>
        <time>2021-04-28T13:03:12Z</time>
      </trkpt>
      <trkpt lat="45.03801" lon="4.15738">
        <ele>1291</ele>
        <time>2021-04-28T13:03:14Z</time>
      </trkpt>
      <trkpt lat="45.03796" lon="4.15754">
        <ele>1290</ele>
        <time>2021-04-28T13:03:16Z</time>
      </trkpt>
      <trkpt lat="45.03791" lon="4.15767">
        <ele>1288</ele>
        <time>2021-04-28T13:03:18Z</time>
      </trkpt>
      <trkpt lat="45.03786" lon="4.15779">
        <ele>1287</ele>
        <time>2021-04-28T13:03:20Z</time>
      </trkpt>
      <trkpt lat="45.03782" lon="4.15793">
        <ele>1286</ele>
        <time>2021-04-28T13:03:22Z</time>
      </trkpt>
      <trkpt lat="45.03777" lon="4.15808">
        <ele>1285</ele>
        <time>2021-04-28T13:03:24Z</time>
      </trkpt>
      <trkpt lat="45.0377" lon="4.15816">
        <ele>1284</ele>
        <time>2021-04-28T13:03:26Z</time>
      </trkpt>
      <trkpt lat="45.03762" lon="4.15822">
        <ele>1283</ele>
        <time>2021-04-28T13:03:28Z</time>
      </trkpt>
      <trkpt lat="45.03752" lon="4.15827">
        <ele>1282</ele>
        <time>2021-04-28T13:03:31Z</time>
      </trkpt>
      <trkpt lat="45.03743" lon="4.15826">
        <ele>1281</ele>
        <time>2021-04-28T13:03:34Z</time>
      </trkpt>
      <trkpt lat="45.03739" lon="4.15824">
        <ele>1280</ele>
        <time>2021-04-28T13:03:35Z</time>
      </trkpt>
      <trkpt lat="45.03734" lon="4.15822">
        <ele>1279</ele>
        <time>2021-04-28T13:03:36Z</time>
      </trkpt>
      <trkpt lat="45.0373" lon="4.15819">
        <ele>1279</ele>
        <time>2021-04-28T13:03:37Z</time>
      </trkpt>
      <trkpt lat="45.03725" lon="4.15818">
        <ele>1278</ele>
        <time>2021-04-28T13:03:38Z</time>
      </trkpt>
      <trkpt lat="45.03719" lon="4.15815">
        <ele>1277</ele>
        <time>2021-04-28T13:03:39Z</time>
      </trkpt>
      <trkpt lat="45.03713" lon="4.15811">
        <ele>1277</ele>
        <time>2021-04-28T13:03:40Z</time>
      </trkpt>
      <trkpt lat="45.03707" lon="4.15808">
        <ele>1276</ele>
        <time>2021-04-28T13:03:41Z</time>
      </trkpt>
      <trkpt lat="45.03702" lon="4.15805">
        <ele>1275</ele>
        <time>2021-04-28T13:03:42Z</time>
      </trkpt>
      <trkpt lat="45.03698" lon="4.15801">
        <ele>1274</ele>
        <time>2021-04-28T13:03:43Z</time>
      </trkpt>
      <trkpt lat="45.03694" lon="4.15797">
        <ele>1273</ele>
        <time>2021-04-28T13:03:44Z</time>
      </trkpt>
      <trkpt lat="45.0369" lon="4.15794">
        <ele>1273</ele>
        <time>2021-04-28T13:03:45Z</time>
      </trkpt>
      <trkpt lat="45.03686" lon="4.1579">
        <ele>1272</ele>
        <time>2021-04-28T13:03:46Z</time>
      </trkpt>
      <trkpt lat="45.03679" lon="4.15781">
        <ele>1272</ele>
        <time>2021-04-28T13:03:47Z</time>
      </trkpt>
      <trkpt lat="45.03675" lon="4.15776">
        <ele>1270</ele>
        <time>2021-04-28T13:03:49Z</time>
      </trkpt>
      <trkpt lat="45.03671" lon="4.15772">
        <ele>1270</ele>
        <time>2021-04-28T13:03:50Z</time>
      </trkpt>
      <trkpt lat="45.03668" lon="4.15768">
        <ele>1269</ele>
        <time>2021-04-28T13:03:51Z</time>
      </trkpt>
      <trkpt lat="45.03665" lon="4.15765">
        <ele>1269</ele>
        <time>2021-04-28T13:03:52Z</time>
      </trkpt>
      <trkpt lat="45.03662" lon="4.15763">
        <ele>1268</ele>
        <time>2021-04-28T13:03:53Z</time>
      </trkpt>
      <trkpt lat="45.03659" lon="4.15762">
        <ele>1268</ele>
        <time>2021-04-28T13:03:54Z</time>
      </trkpt>
      <trkpt lat="45.03658" lon="4.15761">
        <ele>1267</ele>
        <time>2021-04-28T13:03:55Z</time>
      </trkpt>
      <trkpt lat="45.03656" lon="4.1576">
        <ele>1266</ele>
        <time>2021-04-28T13:04:01Z</time>
      </trkpt>
      <trkpt lat="45.03657" lon="4.15756">
        <ele>1264</ele>
        <time>2021-04-28T13:04:55Z</time>
      </trkpt>
      <trkpt lat="45.03659" lon="4.15752">
        <ele>1264</ele>
        <time>2021-04-28T13:04:56Z</time>
      </trkpt>
      <trkpt lat="45.0366" lon="4.15749">
        <ele>1264</ele>
        <time>2021-04-28T13:04:58Z</time>
      </trkpt>
      <trkpt lat="45.03661" lon="4.15745">
        <ele>1263</ele>
        <time>2021-04-28T13:04:59Z</time>
      </trkpt>
      <trkpt lat="45.03662" lon="4.1574">
        <ele>1263</ele>
        <time>2021-04-28T13:05:00Z</time>
      </trkpt>
      <trkpt lat="45.03663" lon="4.15735">
        <ele>1263</ele>
        <time>2021-04-28T13:05:01Z</time>
      </trkpt>
      <trkpt lat="45.03664" lon="4.1573">
        <ele>1263</ele>
        <time>2021-04-28T13:05:02Z</time>
      </trkpt>
      <trkpt lat="45.03664" lon="4.15726">
        <ele>1263</ele>
        <time>2021-04-28T13:05:03Z</time>
      </trkpt>
      <trkpt lat="45.03665" lon="4.15721">
        <ele>1263</ele>
        <time>2021-04-28T13:05:04Z</time>
      </trkpt>
      <trkpt lat="45.03665" lon="4.15716">
        <ele>1262</ele>
        <time>2021-04-28T13:05:05Z</time>
      </trkpt>
      <trkpt lat="45.03666" lon="4.15711">
        <ele>1262</ele>
        <time>2021-04-28T13:05:06Z</time>
      </trkpt>
      <trkpt lat="45.03667" lon="4.15706">
        <ele>1262</ele>
        <time>2021-04-28T13:05:07Z</time>
      </trkpt>
      <trkpt lat="45.03668" lon="4.15702">
        <ele>1262</ele>
        <time>2021-04-28T13:05:08Z</time>
      </trkpt>
      <trkpt lat="45.03669" lon="4.15697">
        <ele>1262</ele>
        <time>2021-04-28T13:05:09Z</time>
      </trkpt>
      <trkpt lat="45.0367" lon="4.15692">
        <ele>1262</ele>
        <time>2021-04-28T13:05:10Z</time>
      </trkpt>
      <trkpt lat="45.03671" lon="4.15687">
        <ele>1262</ele>
        <time>2021-04-28T13:05:11Z</time>
      </trkpt>
      <trkpt lat="45.03672" lon="4.15682">
        <ele>1262</ele>
        <time>2021-04-28T13:05:12Z</time>
      </trkpt>
      <trkpt lat="45.03672" lon="4.15677">
        <ele>1262</ele>
        <time>2021-04-28T13:05:13Z</time>
      </trkpt>
      <trkpt lat="45.03671" lon="4.15654">
        <ele>1262</ele>
        <time>2021-04-28T13:05:15Z</time>
      </trkpt>
      <trkpt lat="45.03671" lon="4.15647">
        <ele>1261</ele>
        <time>2021-04-28T13:05:17Z</time>
      </trkpt>
      <trkpt lat="45.0367" lon="4.15641">
        <ele>1260</ele>
        <time>2021-04-28T13:05:18Z</time>
      </trkpt>
      <trkpt lat="45.03669" lon="4.15634">
        <ele>1260</ele>
        <time>2021-04-28T13:05:19Z</time>
      </trkpt>
      <trkpt lat="45.03669" lon="4.15627">
        <ele>1259</ele>
        <time>2021-04-28T13:05:20Z</time>
      </trkpt>
      <trkpt lat="45.03668" lon="4.1562">
        <ele>1259</ele>
        <time>2021-04-28T13:05:21Z</time>
      </trkpt>
      <trkpt lat="45.03666" lon="4.15614">
        <ele>1258</ele>
        <time>2021-04-28T13:05:22Z</time>
      </trkpt>
      <trkpt lat="45.03664" lon="4.15608">
        <ele>1258</ele>
        <time>2021-04-28T13:05:23Z</time>
      </trkpt>
      <trkpt lat="45.03663" lon="4.15602">
        <ele>1258</ele>
        <time>2021-04-28T13:05:24Z</time>
      </trkpt>
      <trkpt lat="45.03661" lon="4.15596">
        <ele>1257</ele>
        <time>2021-04-28T13:05:25Z</time>
      </trkpt>
      <trkpt lat="45.03659" lon="4.1559">
        <ele>1257</ele>
        <time>2021-04-28T13:05:26Z</time>
      </trkpt>
      <trkpt lat="45.03657" lon="4.15585">
        <ele>1257</ele>
        <time>2021-04-28T13:05:27Z</time>
      </trkpt>
      <trkpt lat="45.03656" lon="4.15579">
        <ele>1257</ele>
        <time>2021-04-28T13:05:28Z</time>
      </trkpt>
      <trkpt lat="45.03657" lon="4.15573">
        <ele>1257</ele>
        <time>2021-04-28T13:05:29Z</time>
      </trkpt>
      <trkpt lat="45.03659" lon="4.15569">
        <ele>1257</ele>
        <time>2021-04-28T13:05:30Z</time>
      </trkpt>
      <trkpt lat="45.03663" lon="4.15566">
        <ele>1258</ele>
        <time>2021-04-28T13:05:31Z</time>
      </trkpt>
      <trkpt lat="45.03667" lon="4.15566">
        <ele>1258</ele>
        <time>2021-04-28T13:05:32Z</time>
      </trkpt>
      <trkpt lat="45.03671" lon="4.15568">
        <ele>1258</ele>
        <time>2021-04-28T13:05:33Z</time>
      </trkpt>
      <trkpt lat="45.03678" lon="4.1557">
        <ele>1258</ele>
        <time>2021-04-28T13:05:34Z</time>
      </trkpt>
      <trkpt lat="45.0368" lon="4.15569">
        <ele>1258</ele>
        <time>2021-04-28T13:05:36Z</time>
      </trkpt>
      <trkpt lat="45.03682" lon="4.15567">
        <ele>1258</ele>
        <time>2021-04-28T13:05:37Z</time>
      </trkpt>
      <trkpt lat="45.03684" lon="4.15565">
        <ele>1258</ele>
        <time>2021-04-28T13:05:38Z</time>
      </trkpt>
      <trkpt lat="45.03686" lon="4.15562">
        <ele>1258</ele>
        <time>2021-04-28T13:05:39Z</time>
      </trkpt>
      <trkpt lat="45.03688" lon="4.15559">
        <ele>1259</ele>
        <time>2021-04-28T13:05:41Z</time>
      </trkpt>
      <trkpt lat="45.03691" lon="4.15557">
        <ele>1259</ele>
        <time>2021-04-28T13:05:42Z</time>
      </trkpt>
      <trkpt lat="45.03694" lon="4.15554">
        <ele>1260</ele>
        <time>2021-04-28T13:05:43Z</time>
      </trkpt>
      <trkpt lat="45.03696" lon="4.15551">
        <ele>1260</ele>
        <time>2021-04-28T13:05:44Z</time>
      </trkpt>
      <trkpt lat="45.03697" lon="4.15548">
        <ele>1260</ele>
        <time>2021-04-28T13:05:45Z</time>
      </trkpt>
      <trkpt lat="45.03697" lon="4.15545">
        <ele>1261</ele>
        <time>2021-04-28T13:05:46Z</time>
      </trkpt>
      <trkpt lat="45.03695" lon="4.15542">
        <ele>1261</ele>
        <time>2021-04-28T13:05:47Z</time>
      </trkpt>
      <trkpt lat="45.03692" lon="4.1554">
        <ele>1261</ele>
        <time>2021-04-28T13:05:48Z</time>
      </trkpt>
      <trkpt lat="45.0369" lon="4.15538">
        <ele>1262</ele>
        <time>2021-04-28T13:05:49Z</time>
      </trkpt>
      <trkpt lat="45.03688" lon="4.15535">
        <ele>1262</ele>
        <time>2021-04-28T13:05:50Z</time>
      </trkpt>
      <trkpt lat="45.03687" lon="4.15531">
        <ele>1262</ele>
        <time>2021-04-28T13:05:51Z</time>
      </trkpt>
      <trkpt lat="45.03686" lon="4.15526">
        <ele>1262</ele>
        <time>2021-04-28T13:05:52Z</time>
      </trkpt>
      <trkpt lat="45.03685" lon="4.15522">
        <ele>1262</ele>
        <time>2021-04-28T13:05:53Z</time>
      </trkpt>
      <trkpt lat="45.03684" lon="4.15518">
        <ele>1263</ele>
        <time>2021-04-28T13:05:54Z</time>
      </trkpt>
      <trkpt lat="45.03681" lon="4.15516">
        <ele>1263</ele>
        <time>2021-04-28T13:05:55Z</time>
      </trkpt>
      <trkpt lat="45.03678" lon="4.15514">
        <ele>1264</ele>
        <time>2021-04-28T13:05:56Z</time>
      </trkpt>
      <trkpt lat="45.03675" lon="4.15513">
        <ele>1264</ele>
        <time>2021-04-28T13:05:57Z</time>
      </trkpt>
      <trkpt lat="45.03672" lon="4.15512">
        <ele>1264</ele>
        <time>2021-04-28T13:05:58Z</time>
      </trkpt>
      <trkpt lat="45.03669" lon="4.15512">
        <ele>1265</ele>
        <time>2021-04-28T13:05:59Z</time>
      </trkpt>
      <trkpt lat="45.03666" lon="4.15512">
        <ele>1265</ele>
        <time>2021-04-28T13:06:00Z</time>
      </trkpt>
      <trkpt lat="45.03664" lon="4.15511">
        <ele>1265</ele>
        <time>2021-04-28T13:06:01Z</time>
      </trkpt>
      <trkpt lat="45.03663" lon="4.15508">
        <ele>1266</ele>
        <time>2021-04-28T13:06:03Z</time>
      </trkpt>
      <trkpt lat="45.03664" lon="4.15506">
        <ele>1266</ele>
        <time>2021-04-28T13:06:04Z</time>
      </trkpt>
      <trkpt lat="45.03666" lon="4.15505">
        <ele>1266</ele>
        <time>2021-04-28T13:06:05Z</time>
      </trkpt>
      <trkpt lat="45.03668" lon="4.15503">
        <ele>1267</ele>
        <time>2021-04-28T13:06:06Z</time>
      </trkpt>
      <trkpt lat="45.03671" lon="4.15502">
        <ele>1267</ele>
        <time>2021-04-28T13:06:07Z</time>
      </trkpt>
      <trkpt lat="45.03673" lon="4.155">
        <ele>1268</ele>
        <time>2021-04-28T13:06:08Z</time>
      </trkpt>
      <trkpt lat="45.03675" lon="4.15496">
        <ele>1268</ele>
        <time>2021-04-28T13:06:09Z</time>
      </trkpt>
      <trkpt lat="45.03676" lon="4.15493">
        <ele>1268</ele>
        <time>2021-04-28T13:06:10Z</time>
      </trkpt>
      <trkpt lat="45.03677" lon="4.1549">
        <ele>1268</ele>
        <time>2021-04-28T13:06:11Z</time>
      </trkpt>
      <trkpt lat="45.03679" lon="4.15483">
        <ele>1269</ele>
        <time>2021-04-28T13:06:12Z</time>
      </trkpt>
      <trkpt lat="45.0368" lon="4.1548">
        <ele>1269</ele>
        <time>2021-04-28T13:06:14Z</time>
      </trkpt>
      <trkpt lat="45.03682" lon="4.15477">
        <ele>1269</ele>
        <time>2021-04-28T13:06:15Z</time>
      </trkpt>
      <trkpt lat="45.03685" lon="4.15474">
        <ele>1269</ele>
        <time>2021-04-28T13:06:16Z</time>
      </trkpt>
      <trkpt lat="45.03687" lon="4.1547">
        <ele>1269</ele>
        <time>2021-04-28T13:06:17Z</time>
      </trkpt>
      <trkpt lat="45.03689" lon="4.15466">
        <ele>1269</ele>
        <time>2021-04-28T13:06:18Z</time>
      </trkpt>
      <trkpt lat="45.03692" lon="4.15463">
        <ele>1269</ele>
        <time>2021-04-28T13:06:19Z</time>
      </trkpt>
      <trkpt lat="45.03693" lon="4.15459">
        <ele>1269</ele>
        <time>2021-04-28T13:06:20Z</time>
      </trkpt>
      <trkpt lat="45.03695" lon="4.15456">
        <ele>1269</ele>
        <time>2021-04-28T13:06:21Z</time>
      </trkpt>
      <trkpt lat="45.03696" lon="4.15453">
        <ele>1269</ele>
        <time>2021-04-28T13:06:22Z</time>
      </trkpt>
      <trkpt lat="45.03699" lon="4.1545">
        <ele>1270</ele>
        <time>2021-04-28T13:06:23Z</time>
      </trkpt>
      <trkpt lat="45.03701" lon="4.15448">
        <ele>1270</ele>
        <time>2021-04-28T13:06:24Z</time>
      </trkpt>
      <trkpt lat="45.03704" lon="4.15446">
        <ele>1270</ele>
        <time>2021-04-28T13:06:25Z</time>
      </trkpt>
      <trkpt lat="45.03707" lon="4.15444">
        <ele>1270</ele>
        <time>2021-04-28T13:06:26Z</time>
      </trkpt>
      <trkpt lat="45.0371" lon="4.15442">
        <ele>1271</ele>
        <time>2021-04-28T13:06:27Z</time>
      </trkpt>
      <trkpt lat="45.03712" lon="4.1544">
        <ele>1271</ele>
        <time>2021-04-28T13:06:28Z</time>
      </trkpt>
      <trkpt lat="45.03714" lon="4.15437">
        <ele>1271</ele>
        <time>2021-04-28T13:06:29Z</time>
      </trkpt>
      <trkpt lat="45.03716" lon="4.15434">
        <ele>1272</ele>
        <time>2021-04-28T13:06:30Z</time>
      </trkpt>
      <trkpt lat="45.03715" lon="4.15427">
        <ele>1272</ele>
        <time>2021-04-28T13:06:31Z</time>
      </trkpt>
      <trkpt lat="45.03714" lon="4.15422">
        <ele>1272</ele>
        <time>2021-04-28T13:06:33Z</time>
      </trkpt>
      <trkpt lat="45.03714" lon="4.15417">
        <ele>1272</ele>
        <time>2021-04-28T13:06:34Z</time>
      </trkpt>
      <trkpt lat="45.03713" lon="4.15412">
        <ele>1272</ele>
        <time>2021-04-28T13:06:35Z</time>
      </trkpt>
      <trkpt lat="45.03712" lon="4.15409">
        <ele>1272</ele>
        <time>2021-04-28T13:06:36Z</time>
      </trkpt>
      <trkpt lat="45.0371" lon="4.15408">
        <ele>1272</ele>
        <time>2021-04-28T13:06:37Z</time>
      </trkpt>
      <trkpt lat="45.03707" lon="4.15409">
        <ele>1272</ele>
        <time>2021-04-28T13:06:38Z</time>
      </trkpt>
      <trkpt lat="45.03705" lon="4.15412">
        <ele>1272</ele>
        <time>2021-04-28T13:06:39Z</time>
      </trkpt>
      <trkpt lat="45.03704" lon="4.15415">
        <ele>1272</ele>
        <time>2021-04-28T13:06:40Z</time>
      </trkpt>
      <trkpt lat="45.03703" lon="4.15419">
        <ele>1272</ele>
        <time>2021-04-28T13:06:41Z</time>
      </trkpt>
      <trkpt lat="45.03702" lon="4.15424">
        <ele>1272</ele>
        <time>2021-04-28T13:06:42Z</time>
      </trkpt>
      <trkpt lat="45.03702" lon="4.15429">
        <ele>1272</ele>
        <time>2021-04-28T13:06:43Z</time>
      </trkpt>
      <trkpt lat="45.03701" lon="4.15435">
        <ele>1272</ele>
        <time>2021-04-28T13:06:44Z</time>
      </trkpt>
      <trkpt lat="45.03699" lon="4.1544">
        <ele>1272</ele>
        <time>2021-04-28T13:06:45Z</time>
      </trkpt>
      <trkpt lat="45.03697" lon="4.15445">
        <ele>1272</ele>
        <time>2021-04-28T13:06:46Z</time>
      </trkpt>
      <trkpt lat="45.03695" lon="4.15449">
        <ele>1273</ele>
        <time>2021-04-28T13:06:47Z</time>
      </trkpt>
      <trkpt lat="45.03693" lon="4.15453">
        <ele>1273</ele>
        <time>2021-04-28T13:06:48Z</time>
      </trkpt>
      <trkpt lat="45.03691" lon="4.15458">
        <ele>1273</ele>
        <time>2021-04-28T13:06:49Z</time>
      </trkpt>
      <trkpt lat="45.03686" lon="4.15467">
        <ele>1273</ele>
        <time>2021-04-28T13:06:50Z</time>
      </trkpt>
      <trkpt lat="45.03683" lon="4.15472">
        <ele>1273</ele>
        <time>2021-04-28T13:06:52Z</time>
      </trkpt>
      <trkpt lat="45.0368" lon="4.15476">
        <ele>1273</ele>
        <time>2021-04-28T13:06:53Z</time>
      </trkpt>
      <trkpt lat="45.03678" lon="4.15481">
        <ele>1273</ele>
        <time>2021-04-28T13:06:54Z</time>
      </trkpt>
      <trkpt lat="45.03676" lon="4.15486">
        <ele>1273</ele>
        <time>2021-04-28T13:06:55Z</time>
      </trkpt>
      <trkpt lat="45.03675" lon="4.15492">
        <ele>1273</ele>
        <time>2021-04-28T13:06:56Z</time>
      </trkpt>
      <trkpt lat="45.03672" lon="4.15498">
        <ele>1273</ele>
        <time>2021-04-28T13:06:57Z</time>
      </trkpt>
      <trkpt lat="45.03666" lon="4.15505">
        <ele>1273</ele>
        <time>2021-04-28T13:06:58Z</time>
      </trkpt>
      <trkpt lat="45.0366" lon="4.15511">
        <ele>1272</ele>
        <time>2021-04-28T13:06:59Z</time>
      </trkpt>
      <trkpt lat="45.03653" lon="4.15517">
        <ele>1272</ele>
        <time>2021-04-28T13:07:00Z</time>
      </trkpt>
      <trkpt lat="45.03646" lon="4.15519">
        <ele>1272</ele>
        <time>2021-04-28T13:07:01Z</time>
      </trkpt>
      <trkpt lat="45.0364" lon="4.15519">
        <ele>1271</ele>
        <time>2021-04-28T13:07:02Z</time>
      </trkpt>
      <trkpt lat="45.03633" lon="4.15518">
        <ele>1271</ele>
        <time>2021-04-28T13:07:03Z</time>
      </trkpt>
      <trkpt lat="45.03626" lon="4.15519">
        <ele>1271</ele>
        <time>2021-04-28T13:07:04Z</time>
      </trkpt>
      <trkpt lat="45.03619" lon="4.15519">
        <ele>1270</ele>
        <time>2021-04-28T13:07:05Z</time>
      </trkpt>
      <trkpt lat="45.03612" lon="4.15519">
        <ele>1270</ele>
        <time>2021-04-28T13:07:06Z</time>
      </trkpt>
      <trkpt lat="45.03606" lon="4.1552">
        <ele>1270</ele>
        <time>2021-04-28T13:07:07Z</time>
      </trkpt>
      <trkpt lat="45.036" lon="4.15522">
        <ele>1270</ele>
        <time>2021-04-28T13:07:08Z</time>
      </trkpt>
      <trkpt lat="45.03596" lon="4.15529">
        <ele>1270</ele>
        <time>2021-04-28T13:07:09Z</time>
      </trkpt>
      <trkpt lat="45.03599" lon="4.15533">
        <ele>1269</ele>
        <time>2021-04-28T13:07:12Z</time>
      </trkpt>
      <trkpt lat="45.03602" lon="4.15535">
        <ele>1269</ele>
        <time>2021-04-28T13:07:13Z</time>
      </trkpt>
      <trkpt lat="45.03606" lon="4.15539">
        <ele>1269</ele>
        <time>2021-04-28T13:07:14Z</time>
      </trkpt>
      <trkpt lat="45.0361" lon="4.15542">
        <ele>1269</ele>
        <time>2021-04-28T13:07:15Z</time>
      </trkpt>
      <trkpt lat="45.03614" lon="4.15545">
        <ele>1269</ele>
        <time>2021-04-28T13:07:16Z</time>
      </trkpt>
      <trkpt lat="45.0362" lon="4.15549">
        <ele>1269</ele>
        <time>2021-04-28T13:07:17Z</time>
      </trkpt>
      <trkpt lat="45.03625" lon="4.15554">
        <ele>1268</ele>
        <time>2021-04-28T13:07:18Z</time>
      </trkpt>
      <trkpt lat="45.03631" lon="4.15559">
        <ele>1268</ele>
        <time>2021-04-28T13:07:19Z</time>
      </trkpt>
      <trkpt lat="45.03638" lon="4.15566">
        <ele>1268</ele>
        <time>2021-04-28T13:07:20Z</time>
      </trkpt>
      <trkpt lat="45.03646" lon="4.15575">
        <ele>1268</ele>
        <time>2021-04-28T13:07:21Z</time>
      </trkpt>
      <trkpt lat="45.03652" lon="4.15584">
        <ele>1267</ele>
        <time>2021-04-28T13:07:22Z</time>
      </trkpt>
      <trkpt lat="45.03658" lon="4.15596">
        <ele>1266</ele>
        <time>2021-04-28T13:07:23Z</time>
      </trkpt>
      <trkpt lat="45.03663" lon="4.15607">
        <ele>1266</ele>
        <time>2021-04-28T13:07:24Z</time>
      </trkpt>
      <trkpt lat="45.03667" lon="4.1562">
        <ele>1265</ele>
        <time>2021-04-28T13:07:25Z</time>
      </trkpt>
      <trkpt lat="45.0367" lon="4.15633">
        <ele>1264</ele>
        <time>2021-04-28T13:07:26Z</time>
      </trkpt>
      <trkpt lat="45.03674" lon="4.15646">
        <ele>1263</ele>
        <time>2021-04-28T13:07:27Z</time>
      </trkpt>
      <trkpt lat="45.03675" lon="4.15668">
        <ele>1263</ele>
        <time>2021-04-28T13:07:28Z</time>
      </trkpt>
      <trkpt lat="45.03674" lon="4.15679">
        <ele>1262</ele>
        <time>2021-04-28T13:07:30Z</time>
      </trkpt>
      <trkpt lat="45.03673" lon="4.15691">
        <ele>1261</ele>
        <time>2021-04-28T13:07:31Z</time>
      </trkpt>
      <trkpt lat="45.03672" lon="4.15703">
        <ele>1260</ele>
        <time>2021-04-28T13:07:32Z</time>
      </trkpt>
      <trkpt lat="45.03671" lon="4.15715">
        <ele>1259</ele>
        <time>2021-04-28T13:07:33Z</time>
      </trkpt>
      <trkpt lat="45.03669" lon="4.15725">
        <ele>1258</ele>
        <time>2021-04-28T13:07:34Z</time>
      </trkpt>
      <trkpt lat="45.03667" lon="4.15734">
        <ele>1257</ele>
        <time>2021-04-28T13:07:35Z</time>
      </trkpt>
      <trkpt lat="45.03664" lon="4.15742">
        <ele>1257</ele>
        <time>2021-04-28T13:07:36Z</time>
      </trkpt>
      <trkpt lat="45.03661" lon="4.15747">
        <ele>1257</ele>
        <time>2021-04-28T13:07:37Z</time>
      </trkpt>
      <trkpt lat="45.03659" lon="4.15752">
        <ele>1257</ele>
        <time>2021-04-28T13:07:38Z</time>
      </trkpt>
      <trkpt lat="45.03656" lon="4.15755">
        <ele>1256</ele>
        <time>2021-04-28T13:07:39Z</time>
      </trkpt>
      <trkpt lat="45.03653" lon="4.15755">
        <ele>1256</ele>
        <time>2021-04-28T13:07:40Z</time>
      </trkpt>
      <trkpt lat="45.03651" lon="4.15756">
        <ele>1255</ele>
        <time>2021-04-28T13:07:41Z</time>
      </trkpt>
      <trkpt lat="45.03652" lon="4.15753">
        <ele>1252</ele>
        <time>2021-04-28T13:08:08Z</time>
      </trkpt>
      <trkpt lat="45.03653" lon="4.15753">
        <ele>1251</ele>
        <time>2021-04-28T13:08:11Z</time>
      </trkpt>
      <trkpt lat="45.03655" lon="4.15755">
        <ele>1252</ele>
        <time>2021-04-28T13:08:13Z</time>
      </trkpt>
      <trkpt lat="45.03655" lon="4.15756">
        <ele>1252</ele>
        <time>2021-04-28T13:08:14Z</time>
      </trkpt>
      <trkpt lat="45.03652" lon="4.15751">
        <ele>1253</ele>
        <time>2021-04-28T13:08:55Z</time>
      </trkpt>
      <trkpt lat="45.03652" lon="4.15749">
        <ele>1253</ele>
        <time>2021-04-28T13:08:56Z</time>
      </trkpt>
      <trkpt lat="45.03652" lon="4.15749">
        <ele>1253</ele>
        <time>2021-04-28T13:09:01Z</time>
      </trkpt>
      <trkpt lat="45.03653" lon="4.15746">
        <ele>1254</ele>
        <time>2021-04-28T13:09:05Z</time>
      </trkpt>
      <trkpt lat="45.03653" lon="4.15745">
        <ele>1254</ele>
        <time>2021-04-28T13:09:06Z</time>
      </trkpt>
      <trkpt lat="45.03653" lon="4.15745">
        <ele>1254</ele>
        <time>2021-04-28T13:09:10Z</time>
      </trkpt>
      <trkpt lat="45.03656" lon="4.15746">
        <ele>1252</ele>
        <time>2021-04-28T13:10:28Z</time>
      </trkpt>
      <trkpt lat="45.03656" lon="4.15746">
        <ele>1252</ele>
        <time>2021-04-28T13:10:31Z</time>
      </trkpt>
      <trkpt lat="45.03658" lon="4.1575">
        <ele>1256</ele>
        <time>2021-04-28T13:12:02Z</time>
      </trkpt>
      <trkpt lat="45.03659" lon="4.15751">
        <ele>1257</ele>
        <time>2021-04-28T13:12:05Z</time>
      </trkpt>
      <trkpt lat="45.03654" lon="4.15753">
        <ele>1263</ele>
        <time>2021-04-28T13:14:24Z</time>
      </trkpt>
      <trkpt lat="45.03653" lon="4.15751">
        <ele>1263</ele>
        <time>2021-04-28T13:14:31Z</time>
      </trkpt>
      <trkpt lat="45.03653" lon="4.15751">
        <ele>1263</ele>
        <time>2021-04-28T13:14:32Z</time>
      </trkpt>
      <trkpt lat="45.03656" lon="4.15755">
        <ele>1265</ele>
        <time>2021-04-28T13:14:35Z</time>
      </trkpt>
      <trkpt lat="45.03656" lon="4.15756">
        <ele>1266</ele>
        <time>2021-04-28T13:14:40Z</time>
      </trkpt>
      <trkpt lat="45.03659" lon="4.15752">
        <ele>1265</ele>
        <time>2021-04-28T13:15:36Z</time>
      </trkpt>
      <trkpt lat="45.03648" lon="4.15751">
        <ele>1255</ele>
        <time>2021-04-28T13:19:30Z</time>
      </trkpt>
      <trkpt lat="45.03645" lon="4.15753">
        <ele>1254</ele>
        <time>2021-04-28T13:19:32Z</time>
      </trkpt>
      <trkpt lat="45.03643" lon="4.15754">
        <ele>1254</ele>
        <time>2021-04-28T13:19:33Z</time>
      </trkpt>
      <trkpt lat="45.03641" lon="4.15755">
        <ele>1254</ele>
        <time>2021-04-28T13:19:34Z</time>
      </trkpt>
      <trkpt lat="45.03638" lon="4.15754">
        <ele>1254</ele>
        <time>2021-04-28T13:19:35Z</time>
      </trkpt>
      <trkpt lat="45.03635" lon="4.15754">
        <ele>1254</ele>
        <time>2021-04-28T13:19:36Z</time>
      </trkpt>
      <trkpt lat="45.03632" lon="4.15754">
        <ele>1253</ele>
        <time>2021-04-28T13:19:37Z</time>
      </trkpt>
      <trkpt lat="45.03628" lon="4.15754">
        <ele>1253</ele>
        <time>2021-04-28T13:19:38Z</time>
      </trkpt>
      <trkpt lat="45.03625" lon="4.15754">
        <ele>1253</ele>
        <time>2021-04-28T13:19:39Z</time>
      </trkpt>
      <trkpt lat="45.03622" lon="4.15755">
        <ele>1253</ele>
        <time>2021-04-28T13:19:40Z</time>
      </trkpt>
      <trkpt lat="45.03618" lon="4.15755">
        <ele>1253</ele>
        <time>2021-04-28T13:19:41Z</time>
      </trkpt>
      <trkpt lat="45.03614" lon="4.15755">
        <ele>1252</ele>
        <time>2021-04-28T13:19:42Z</time>
      </trkpt>
      <trkpt lat="45.0361" lon="4.15754">
        <ele>1252</ele>
        <time>2021-04-28T13:19:43Z</time>
      </trkpt>
      <trkpt lat="45.03606" lon="4.15752">
        <ele>1252</ele>
        <time>2021-04-28T13:19:44Z</time>
      </trkpt>
      <trkpt lat="45.03601" lon="4.15751">
        <ele>1252</ele>
        <time>2021-04-28T13:19:45Z</time>
      </trkpt>
      <trkpt lat="45.03597" lon="4.1575">
        <ele>1251</ele>
        <time>2021-04-28T13:19:46Z</time>
      </trkpt>
      <trkpt lat="45.03592" lon="4.1575">
        <ele>1251</ele>
        <time>2021-04-28T13:19:47Z</time>
      </trkpt>
      <trkpt lat="45.03587" lon="4.15749">
        <ele>1251</ele>
        <time>2021-04-28T13:19:48Z</time>
      </trkpt>
      <trkpt lat="45.03576" lon="4.15748">
        <ele>1251</ele>
        <time>2021-04-28T13:19:49Z</time>
      </trkpt>
      <trkpt lat="45.0357" lon="4.15747">
        <ele>1250</ele>
        <time>2021-04-28T13:19:51Z</time>
      </trkpt>
      <trkpt lat="45.03566" lon="4.15744">
        <ele>1249</ele>
        <time>2021-04-28T13:19:52Z</time>
      </trkpt>
      <trkpt lat="45.03561" lon="4.15742">
        <ele>1249</ele>
        <time>2021-04-28T13:19:53Z</time>
      </trkpt>
      <trkpt lat="45.03557" lon="4.15739">
        <ele>1248</ele>
        <time>2021-04-28T13:19:54Z</time>
      </trkpt>
      <trkpt lat="45.03552" lon="4.15736">
        <ele>1248</ele>
        <time>2021-04-28T13:19:55Z</time>
      </trkpt>
      <trkpt lat="45.03548" lon="4.15733">
        <ele>1247</ele>
        <time>2021-04-28T13:19:56Z</time>
      </trkpt>
      <trkpt lat="45.03544" lon="4.15729">
        <ele>1247</ele>
        <time>2021-04-28T13:19:57Z</time>
      </trkpt>
      <trkpt lat="45.03541" lon="4.15726">
        <ele>1247</ele>
        <time>2021-04-28T13:19:58Z</time>
      </trkpt>
      <trkpt lat="45.03538" lon="4.15722">
        <ele>1246</ele>
        <time>2021-04-28T13:19:59Z</time>
      </trkpt>
      <trkpt lat="45.03534" lon="4.15719">
        <ele>1246</ele>
        <time>2021-04-28T13:20:00Z</time>
      </trkpt>
      <trkpt lat="45.0353" lon="4.15715">
        <ele>1246</ele>
        <time>2021-04-28T13:20:01Z</time>
      </trkpt>
      <trkpt lat="45.03526" lon="4.15711">
        <ele>1245</ele>
        <time>2021-04-28T13:20:02Z</time>
      </trkpt>
      <trkpt lat="45.03522" lon="4.15707">
        <ele>1245</ele>
        <time>2021-04-28T13:20:03Z</time>
      </trkpt>
      <trkpt lat="45.03517" lon="4.15703">
        <ele>1245</ele>
        <time>2021-04-28T13:20:04Z</time>
      </trkpt>
      <trkpt lat="45.03513" lon="4.15699">
        <ele>1245</ele>
        <time>2021-04-28T13:20:05Z</time>
      </trkpt>
      <trkpt lat="45.03509" lon="4.15696">
        <ele>1244</ele>
        <time>2021-04-28T13:20:06Z</time>
      </trkpt>
      <trkpt lat="45.03506" lon="4.15693">
        <ele>1244</ele>
        <time>2021-04-28T13:20:07Z</time>
      </trkpt>
      <trkpt lat="45.03504" lon="4.15691">
        <ele>1244</ele>
        <time>2021-04-28T13:20:08Z</time>
      </trkpt>
      <trkpt lat="45.03501" lon="4.15688">
        <ele>1244</ele>
        <time>2021-04-28T13:20:09Z</time>
      </trkpt>
      <trkpt lat="45.03498" lon="4.15685">
        <ele>1244</ele>
        <time>2021-04-28T13:20:10Z</time>
      </trkpt>
      <trkpt lat="45.03494" lon="4.15681">
        <ele>1244</ele>
        <time>2021-04-28T13:20:11Z</time>
      </trkpt>
      <trkpt lat="45.03491" lon="4.15678">
        <ele>1244</ele>
        <time>2021-04-28T13:20:12Z</time>
      </trkpt>
      <trkpt lat="45.03489" lon="4.15675">
        <ele>1244</ele>
        <time>2021-04-28T13:20:13Z</time>
      </trkpt>
      <trkpt lat="45.03485" lon="4.15671">
        <ele>1244</ele>
        <time>2021-04-28T13:20:14Z</time>
      </trkpt>
      <trkpt lat="45.03482" lon="4.15667">
        <ele>1244</ele>
        <time>2021-04-28T13:20:15Z</time>
      </trkpt>
      <trkpt lat="45.03479" lon="4.15664">
        <ele>1244</ele>
        <time>2021-04-28T13:20:16Z</time>
      </trkpt>
      <trkpt lat="45.03475" lon="4.15661">
        <ele>1245</ele>
        <time>2021-04-28T13:20:17Z</time>
      </trkpt>
      <trkpt lat="45.03472" lon="4.15658">
        <ele>1245</ele>
        <time>2021-04-28T13:20:18Z</time>
      </trkpt>
      <trkpt lat="45.0347" lon="4.15654">
        <ele>1245</ele>
        <time>2021-04-28T13:20:19Z</time>
      </trkpt>
      <trkpt lat="45.03468" lon="4.15652">
        <ele>1245</ele>
        <time>2021-04-28T13:20:20Z</time>
      </trkpt>
      <trkpt lat="45.03467" lon="4.15649">
        <ele>1245</ele>
        <time>2021-04-28T13:20:21Z</time>
      </trkpt>
      <trkpt lat="45.03465" lon="4.15646">
        <ele>1245</ele>
        <time>2021-04-28T13:20:22Z</time>
      </trkpt>
      <trkpt lat="45.03463" lon="4.15643">
        <ele>1244</ele>
        <time>2021-04-28T13:20:23Z</time>
      </trkpt>
      <trkpt lat="45.03461" lon="4.1564">
        <ele>1244</ele>
        <time>2021-04-28T13:20:24Z</time>
      </trkpt>
      <trkpt lat="45.03458" lon="4.15637">
        <ele>1244</ele>
        <time>2021-04-28T13:20:25Z</time>
      </trkpt>
      <trkpt lat="45.03454" lon="4.15633">
        <ele>1244</ele>
        <time>2021-04-28T13:20:26Z</time>
      </trkpt>
      <trkpt lat="45.03448" lon="4.15625">
        <ele>1244</ele>
        <time>2021-04-28T13:20:27Z</time>
      </trkpt>
      <trkpt lat="45.03445" lon="4.15621">
        <ele>1244</ele>
        <time>2021-04-28T13:20:29Z</time>
      </trkpt>
      <trkpt lat="45.03441" lon="4.15617">
        <ele>1244</ele>
        <time>2021-04-28T13:20:30Z</time>
      </trkpt>
      <trkpt lat="45.03438" lon="4.15615">
        <ele>1244</ele>
        <time>2021-04-28T13:20:31Z</time>
      </trkpt>
      <trkpt lat="45.03436" lon="4.15611">
        <ele>1244</ele>
        <time>2021-04-28T13:20:32Z</time>
      </trkpt>
      <trkpt lat="45.03433" lon="4.15608">
        <ele>1244</ele>
        <time>2021-04-28T13:20:33Z</time>
      </trkpt>
      <trkpt lat="45.03429" lon="4.15604">
        <ele>1244</ele>
        <time>2021-04-28T13:20:34Z</time>
      </trkpt>
      <trkpt lat="45.03425" lon="4.156">
        <ele>1244</ele>
        <time>2021-04-28T13:20:35Z</time>
      </trkpt>
      <trkpt lat="45.03422" lon="4.15596">
        <ele>1244</ele>
        <time>2021-04-28T13:20:36Z</time>
      </trkpt>
      <trkpt lat="45.03419" lon="4.15592">
        <ele>1244</ele>
        <time>2021-04-28T13:20:37Z</time>
      </trkpt>
      <trkpt lat="45.03416" lon="4.15588">
        <ele>1244</ele>
        <time>2021-04-28T13:20:38Z</time>
      </trkpt>
      <trkpt lat="45.03414" lon="4.15585">
        <ele>1245</ele>
        <time>2021-04-28T13:20:39Z</time>
      </trkpt>
      <trkpt lat="45.03411" lon="4.15581">
        <ele>1245</ele>
        <time>2021-04-28T13:20:40Z</time>
      </trkpt>
      <trkpt lat="45.03408" lon="4.15576">
        <ele>1245</ele>
        <time>2021-04-28T13:20:41Z</time>
      </trkpt>
      <trkpt lat="45.03404" lon="4.15572">
        <ele>1245</ele>
        <time>2021-04-28T13:20:42Z</time>
      </trkpt>
      <trkpt lat="45.03401" lon="4.15568">
        <ele>1245</ele>
        <time>2021-04-28T13:20:43Z</time>
      </trkpt>
      <trkpt lat="45.03399" lon="4.15564">
        <ele>1245</ele>
        <time>2021-04-28T13:20:44Z</time>
      </trkpt>
      <trkpt lat="45.03397" lon="4.15561">
        <ele>1245</ele>
        <time>2021-04-28T13:20:45Z</time>
      </trkpt>
      <trkpt lat="45.03388" lon="4.15551">
        <ele>1244</ele>
        <time>2021-04-28T13:20:48Z</time>
      </trkpt>
      <trkpt lat="45.0338" lon="4.15541">
        <ele>1244</ele>
        <time>2021-04-28T13:20:51Z</time>
      </trkpt>
      <trkpt lat="45.03375" lon="4.15532">
        <ele>1244</ele>
        <time>2021-04-28T13:20:53Z</time>
      </trkpt>
      <trkpt lat="45.0337" lon="4.15525">
        <ele>1244</ele>
        <time>2021-04-28T13:20:55Z</time>
      </trkpt>
      <trkpt lat="45.03367" lon="4.1552">
        <ele>1244</ele>
        <time>2021-04-28T13:20:56Z</time>
      </trkpt>
      <trkpt lat="45.03365" lon="4.15515">
        <ele>1244</ele>
        <time>2021-04-28T13:20:57Z</time>
      </trkpt>
      <trkpt lat="45.03356" lon="4.15503">
        <ele>1244</ele>
        <time>2021-04-28T13:20:59Z</time>
      </trkpt>
      <trkpt lat="45.03347" lon="4.15491">
        <ele>1244</ele>
        <time>2021-04-28T13:21:01Z</time>
      </trkpt>
      <trkpt lat="45.03339" lon="4.15479">
        <ele>1244</ele>
        <time>2021-04-28T13:21:03Z</time>
      </trkpt>
      <trkpt lat="45.03332" lon="4.15471">
        <ele>1244</ele>
        <time>2021-04-28T13:21:04Z</time>
      </trkpt>
      <trkpt lat="45.03323" lon="4.15459">
        <ele>1244</ele>
        <time>2021-04-28T13:21:05Z</time>
      </trkpt>
      <trkpt lat="45.0332" lon="4.15454">
        <ele>1244</ele>
        <time>2021-04-28T13:21:07Z</time>
      </trkpt>
      <trkpt lat="45.03316" lon="4.15448">
        <ele>1243</ele>
        <time>2021-04-28T13:21:08Z</time>
      </trkpt>
      <trkpt lat="45.03313" lon="4.15442">
        <ele>1243</ele>
        <time>2021-04-28T13:21:09Z</time>
      </trkpt>
      <trkpt lat="45.0331" lon="4.15436">
        <ele>1243</ele>
        <time>2021-04-28T13:21:10Z</time>
      </trkpt>
      <trkpt lat="45.03307" lon="4.15432">
        <ele>1243</ele>
        <time>2021-04-28T13:21:11Z</time>
      </trkpt>
      <trkpt lat="45.03303" lon="4.15427">
        <ele>1242</ele>
        <time>2021-04-28T13:21:12Z</time>
      </trkpt>
      <trkpt lat="45.033" lon="4.15424">
        <ele>1242</ele>
        <time>2021-04-28T13:21:13Z</time>
      </trkpt>
      <trkpt lat="45.03297" lon="4.1542">
        <ele>1242</ele>
        <time>2021-04-28T13:21:14Z</time>
      </trkpt>
      <trkpt lat="45.03294" lon="4.15416">
        <ele>1242</ele>
        <time>2021-04-28T13:21:15Z</time>
      </trkpt>
      <trkpt lat="45.03292" lon="4.15413">
        <ele>1242</ele>
        <time>2021-04-28T13:21:16Z</time>
      </trkpt>
      <trkpt lat="45.03289" lon="4.15411">
        <ele>1242</ele>
        <time>2021-04-28T13:21:17Z</time>
      </trkpt>
      <trkpt lat="45.03286" lon="4.15407">
        <ele>1242</ele>
        <time>2021-04-28T13:21:18Z</time>
      </trkpt>
      <trkpt lat="45.03284" lon="4.15403">
        <ele>1242</ele>
        <time>2021-04-28T13:21:19Z</time>
      </trkpt>
      <trkpt lat="45.03281" lon="4.15399">
        <ele>1241</ele>
        <time>2021-04-28T13:21:20Z</time>
      </trkpt>
      <trkpt lat="45.03279" lon="4.15396">
        <ele>1241</ele>
        <time>2021-04-28T13:21:21Z</time>
      </trkpt>
      <trkpt lat="45.03276" lon="4.15394">
        <ele>1241</ele>
        <time>2021-04-28T13:21:22Z</time>
      </trkpt>
      <trkpt lat="45.03273" lon="4.15391">
        <ele>1241</ele>
        <time>2021-04-28T13:21:23Z</time>
      </trkpt>
      <trkpt lat="45.03267" lon="4.15383">
        <ele>1241</ele>
        <time>2021-04-28T13:21:24Z</time>
      </trkpt>
      <trkpt lat="45.03264" lon="4.15378">
        <ele>1240</ele>
        <time>2021-04-28T13:21:26Z</time>
      </trkpt>
      <trkpt lat="45.0326" lon="4.15373">
        <ele>1240</ele>
        <time>2021-04-28T13:21:27Z</time>
      </trkpt>
      <trkpt lat="45.03257" lon="4.15369">
        <ele>1240</ele>
        <time>2021-04-28T13:21:28Z</time>
      </trkpt>
      <trkpt lat="45.03254" lon="4.15366">
        <ele>1240</ele>
        <time>2021-04-28T13:21:29Z</time>
      </trkpt>
      <trkpt lat="45.03251" lon="4.15362">
        <ele>1240</ele>
        <time>2021-04-28T13:21:30Z</time>
      </trkpt>
      <trkpt lat="45.03248" lon="4.15358">
        <ele>1239</ele>
        <time>2021-04-28T13:21:31Z</time>
      </trkpt>
      <trkpt lat="45.03244" lon="4.15355">
        <ele>1239</ele>
        <time>2021-04-28T13:21:32Z</time>
      </trkpt>
      <trkpt lat="45.03241" lon="4.15351">
        <ele>1239</ele>
        <time>2021-04-28T13:21:33Z</time>
      </trkpt>
      <trkpt lat="45.03237" lon="4.15347">
        <ele>1239</ele>
        <time>2021-04-28T13:21:34Z</time>
      </trkpt>
      <trkpt lat="45.03234" lon="4.15343">
        <ele>1239</ele>
        <time>2021-04-28T13:21:35Z</time>
      </trkpt>
      <trkpt lat="45.03231" lon="4.15339">
        <ele>1239</ele>
        <time>2021-04-28T13:21:36Z</time>
      </trkpt>
      <trkpt lat="45.03228" lon="4.15335">
        <ele>1239</ele>
        <time>2021-04-28T13:21:37Z</time>
      </trkpt>
      <trkpt lat="45.03225" lon="4.15331">
        <ele>1239</ele>
        <time>2021-04-28T13:21:38Z</time>
      </trkpt>
      <trkpt lat="45.03223" lon="4.15326">
        <ele>1239</ele>
        <time>2021-04-28T13:21:39Z</time>
      </trkpt>
      <trkpt lat="45.0322" lon="4.15321">
        <ele>1239</ele>
        <time>2021-04-28T13:21:40Z</time>
      </trkpt>
      <trkpt lat="45.03217" lon="4.15317">
        <ele>1239</ele>
        <time>2021-04-28T13:21:41Z</time>
      </trkpt>
      <trkpt lat="45.03214" lon="4.15312">
        <ele>1239</ele>
        <time>2021-04-28T13:21:42Z</time>
      </trkpt>
      <trkpt lat="45.03211" lon="4.15308">
        <ele>1239</ele>
        <time>2021-04-28T13:21:43Z</time>
      </trkpt>
      <trkpt lat="45.03208" lon="4.15303">
        <ele>1239</ele>
        <time>2021-04-28T13:21:44Z</time>
      </trkpt>
      <trkpt lat="45.03205" lon="4.15299">
        <ele>1239</ele>
        <time>2021-04-28T13:21:45Z</time>
      </trkpt>
      <trkpt lat="45.03202" lon="4.15294">
        <ele>1239</ele>
        <time>2021-04-28T13:21:46Z</time>
      </trkpt>
      <trkpt lat="45.032" lon="4.1529">
        <ele>1239</ele>
        <time>2021-04-28T13:21:47Z</time>
      </trkpt>
      <trkpt lat="45.03198" lon="4.15285">
        <ele>1239</ele>
        <time>2021-04-28T13:21:48Z</time>
      </trkpt>
      <trkpt lat="45.03196" lon="4.1528">
        <ele>1240</ele>
        <time>2021-04-28T13:21:49Z</time>
      </trkpt>
      <trkpt lat="45.03194" lon="4.15276">
        <ele>1240</ele>
        <time>2021-04-28T13:21:50Z</time>
      </trkpt>
      <trkpt lat="45.03192" lon="4.15272">
        <ele>1240</ele>
        <time>2021-04-28T13:21:51Z</time>
      </trkpt>
      <trkpt lat="45.0319" lon="4.15268">
        <ele>1240</ele>
        <time>2021-04-28T13:21:52Z</time>
      </trkpt>
      <trkpt lat="45.03188" lon="4.15264">
        <ele>1240</ele>
        <time>2021-04-28T13:21:53Z</time>
      </trkpt>
      <trkpt lat="45.03185" lon="4.1526">
        <ele>1240</ele>
        <time>2021-04-28T13:21:54Z</time>
      </trkpt>
      <trkpt lat="45.03183" lon="4.15255">
        <ele>1240</ele>
        <time>2021-04-28T13:21:55Z</time>
      </trkpt>
      <trkpt lat="45.03178" lon="4.15247">
        <ele>1240</ele>
        <time>2021-04-28T13:21:57Z</time>
      </trkpt>
      <trkpt lat="45.03176" lon="4.15243">
        <ele>1240</ele>
        <time>2021-04-28T13:21:58Z</time>
      </trkpt>
      <trkpt lat="45.03175" lon="4.15239">
        <ele>1241</ele>
        <time>2021-04-28T13:21:59Z</time>
      </trkpt>
      <trkpt lat="45.03174" lon="4.15235">
        <ele>1241</ele>
        <time>2021-04-28T13:22:00Z</time>
      </trkpt>
      <trkpt lat="45.03172" lon="4.15232">
        <ele>1241</ele>
        <time>2021-04-28T13:22:01Z</time>
      </trkpt>
      <trkpt lat="45.03169" lon="4.15225">
        <ele>1241</ele>
        <time>2021-04-28T13:22:02Z</time>
      </trkpt>
      <trkpt lat="45.03168" lon="4.15221">
        <ele>1241</ele>
        <time>2021-04-28T13:22:04Z</time>
      </trkpt>
      <trkpt lat="45.03165" lon="4.15217">
        <ele>1241</ele>
        <time>2021-04-28T13:22:05Z</time>
      </trkpt>
      <trkpt lat="45.03159" lon="4.15202">
        <ele>1241</ele>
        <time>2021-04-28T13:22:08Z</time>
      </trkpt>
      <trkpt lat="45.03154" lon="4.1519">
        <ele>1241</ele>
        <time>2021-04-28T13:22:10Z</time>
      </trkpt>
      <trkpt lat="45.03147" lon="4.15175">
        <ele>1242</ele>
        <time>2021-04-28T13:22:13Z</time>
      </trkpt>
      <trkpt lat="45.0314" lon="4.15162">
        <ele>1243</ele>
        <time>2021-04-28T13:22:16Z</time>
      </trkpt>
      <trkpt lat="45.03135" lon="4.15149">
        <ele>1244</ele>
        <time>2021-04-28T13:22:19Z</time>
      </trkpt>
      <trkpt lat="45.03133" lon="4.15135">
        <ele>1244</ele>
        <time>2021-04-28T13:22:21Z</time>
      </trkpt>
      <trkpt lat="45.03135" lon="4.15125">
        <ele>1244</ele>
        <time>2021-04-28T13:22:24Z</time>
      </trkpt>
      <trkpt lat="45.03134" lon="4.15119">
        <ele>1244</ele>
        <time>2021-04-28T13:22:25Z</time>
      </trkpt>
      <trkpt lat="45.03134" lon="4.15113">
        <ele>1244</ele>
        <time>2021-04-28T13:22:26Z</time>
      </trkpt>
      <trkpt lat="45.03134" lon="4.15108">
        <ele>1244</ele>
        <time>2021-04-28T13:22:27Z</time>
      </trkpt>
      <trkpt lat="45.03134" lon="4.15102">
        <ele>1244</ele>
        <time>2021-04-28T13:22:28Z</time>
      </trkpt>
      <trkpt lat="45.03134" lon="4.15097">
        <ele>1244</ele>
        <time>2021-04-28T13:22:29Z</time>
      </trkpt>
      <trkpt lat="45.03134" lon="4.1509">
        <ele>1244</ele>
        <time>2021-04-28T13:22:30Z</time>
      </trkpt>
      <trkpt lat="45.03132" lon="4.15076">
        <ele>1244</ele>
        <time>2021-04-28T13:22:33Z</time>
      </trkpt>
      <trkpt lat="45.03132" lon="4.15066">
        <ele>1244</ele>
        <time>2021-04-28T13:22:35Z</time>
      </trkpt>
      <trkpt lat="45.03126" lon="4.15053">
        <ele>1244</ele>
        <time>2021-04-28T13:22:37Z</time>
      </trkpt>
      <trkpt lat="45.03123" lon="4.15045">
        <ele>1244</ele>
        <time>2021-04-28T13:22:38Z</time>
      </trkpt>
      <trkpt lat="45.03121" lon="4.15039">
        <ele>1244</ele>
        <time>2021-04-28T13:22:39Z</time>
      </trkpt>
      <trkpt lat="45.03121" lon="4.15026">
        <ele>1244</ele>
        <time>2021-04-28T13:22:40Z</time>
      </trkpt>
      <trkpt lat="45.03121" lon="4.15021">
        <ele>1245</ele>
        <time>2021-04-28T13:22:42Z</time>
      </trkpt>
      <trkpt lat="45.03121" lon="4.15016">
        <ele>1245</ele>
        <time>2021-04-28T13:22:43Z</time>
      </trkpt>
      <trkpt lat="45.03118" lon="4.15001">
        <ele>1246</ele>
        <time>2021-04-28T13:22:46Z</time>
      </trkpt>
      <trkpt lat="45.03117" lon="4.14982">
        <ele>1247</ele>
        <time>2021-04-28T13:22:49Z</time>
      </trkpt>
      <trkpt lat="45.03113" lon="4.14965">
        <ele>1248</ele>
        <time>2021-04-28T13:22:52Z</time>
      </trkpt>
      <trkpt lat="45.03109" lon="4.14949">
        <ele>1249</ele>
        <time>2021-04-28T13:22:55Z</time>
      </trkpt>
      <trkpt lat="45.03104" lon="4.14938">
        <ele>1249</ele>
        <time>2021-04-28T13:22:57Z</time>
      </trkpt>
      <trkpt lat="45.03102" lon="4.14933">
        <ele>1249</ele>
        <time>2021-04-28T13:22:58Z</time>
      </trkpt>
      <trkpt lat="45.031" lon="4.14928">
        <ele>1249</ele>
        <time>2021-04-28T13:22:59Z</time>
      </trkpt>
      <trkpt lat="45.03099" lon="4.14923">
        <ele>1250</ele>
        <time>2021-04-28T13:23:00Z</time>
      </trkpt>
      <trkpt lat="45.03098" lon="4.14918">
        <ele>1251</ele>
        <time>2021-04-28T13:23:01Z</time>
      </trkpt>
      <trkpt lat="45.03096" lon="4.14912">
        <ele>1251</ele>
        <time>2021-04-28T13:23:02Z</time>
      </trkpt>
      <trkpt lat="45.03091" lon="4.149">
        <ele>1252</ele>
        <time>2021-04-28T13:23:04Z</time>
      </trkpt>
      <trkpt lat="45.03088" lon="4.14887">
        <ele>1252</ele>
        <time>2021-04-28T13:23:06Z</time>
      </trkpt>
      <trkpt lat="45.03085" lon="4.14882">
        <ele>1252</ele>
        <time>2021-04-28T13:23:07Z</time>
      </trkpt>
      <trkpt lat="45.03083" lon="4.14877">
        <ele>1252</ele>
        <time>2021-04-28T13:23:08Z</time>
      </trkpt>
      <trkpt lat="45.0308" lon="4.14872">
        <ele>1252</ele>
        <time>2021-04-28T13:23:09Z</time>
      </trkpt>
      <trkpt lat="45.03079" lon="4.14867">
        <ele>1252</ele>
        <time>2021-04-28T13:23:10Z</time>
      </trkpt>
      <trkpt lat="45.03077" lon="4.14861">
        <ele>1253</ele>
        <time>2021-04-28T13:23:11Z</time>
      </trkpt>
      <trkpt lat="45.03076" lon="4.14855">
        <ele>1253</ele>
        <time>2021-04-28T13:23:12Z</time>
      </trkpt>
      <trkpt lat="45.03075" lon="4.1485">
        <ele>1254</ele>
        <time>2021-04-28T13:23:13Z</time>
      </trkpt>
      <trkpt lat="45.03076" lon="4.14844">
        <ele>1254</ele>
        <time>2021-04-28T13:23:14Z</time>
      </trkpt>
      <trkpt lat="45.03077" lon="4.14839">
        <ele>1254</ele>
        <time>2021-04-28T13:23:15Z</time>
      </trkpt>
      <trkpt lat="45.03079" lon="4.14834">
        <ele>1255</ele>
        <time>2021-04-28T13:23:16Z</time>
      </trkpt>
      <trkpt lat="45.03081" lon="4.14829">
        <ele>1255</ele>
        <time>2021-04-28T13:23:17Z</time>
      </trkpt>
      <trkpt lat="45.03084" lon="4.14819">
        <ele>1256</ele>
        <time>2021-04-28T13:23:18Z</time>
      </trkpt>
      <trkpt lat="45.03086" lon="4.14814">
        <ele>1257</ele>
        <time>2021-04-28T13:23:20Z</time>
      </trkpt>
      <trkpt lat="45.03088" lon="4.14809">
        <ele>1257</ele>
        <time>2021-04-28T13:23:21Z</time>
      </trkpt>
      <trkpt lat="45.03089" lon="4.14804">
        <ele>1258</ele>
        <time>2021-04-28T13:23:22Z</time>
      </trkpt>
      <trkpt lat="45.0309" lon="4.14798">
        <ele>1258</ele>
        <time>2021-04-28T13:23:23Z</time>
      </trkpt>
      <trkpt lat="45.03091" lon="4.14793">
        <ele>1258</ele>
        <time>2021-04-28T13:23:24Z</time>
      </trkpt>
      <trkpt lat="45.03091" lon="4.14788">
        <ele>1259</ele>
        <time>2021-04-28T13:23:25Z</time>
      </trkpt>
      <trkpt lat="45.03092" lon="4.14783">
        <ele>1259</ele>
        <time>2021-04-28T13:23:26Z</time>
      </trkpt>
      <trkpt lat="45.03093" lon="4.14779">
        <ele>1260</ele>
        <time>2021-04-28T13:23:27Z</time>
      </trkpt>
      <trkpt lat="45.03093" lon="4.14774">
        <ele>1260</ele>
        <time>2021-04-28T13:23:28Z</time>
      </trkpt>
      <trkpt lat="45.03093" lon="4.14771">
        <ele>1260</ele>
        <time>2021-04-28T13:23:29Z</time>
      </trkpt>
      <trkpt lat="45.03093" lon="4.14767">
        <ele>1261</ele>
        <time>2021-04-28T13:23:30Z</time>
      </trkpt>
      <trkpt lat="45.03093" lon="4.14763">
        <ele>1261</ele>
        <time>2021-04-28T13:23:31Z</time>
      </trkpt>
      <trkpt lat="45.03091" lon="4.14759">
        <ele>1261</ele>
        <time>2021-04-28T13:23:32Z</time>
      </trkpt>
      <trkpt lat="45.0309" lon="4.14756">
        <ele>1261</ele>
        <time>2021-04-28T13:23:33Z</time>
      </trkpt>
      <trkpt lat="45.03088" lon="4.14752">
        <ele>1261</ele>
        <time>2021-04-28T13:23:34Z</time>
      </trkpt>
      <trkpt lat="45.03085" lon="4.14749">
        <ele>1261</ele>
        <time>2021-04-28T13:23:35Z</time>
      </trkpt>
      <trkpt lat="45.03083" lon="4.14745">
        <ele>1262</ele>
        <time>2021-04-28T13:23:36Z</time>
      </trkpt>
      <trkpt lat="45.0308" lon="4.14737">
        <ele>1262</ele>
        <time>2021-04-28T13:23:37Z</time>
      </trkpt>
      <trkpt lat="45.03079" lon="4.14733">
        <ele>1262</ele>
        <time>2021-04-28T13:23:39Z</time>
      </trkpt>
      <trkpt lat="45.03077" lon="4.14729">
        <ele>1262</ele>
        <time>2021-04-28T13:23:40Z</time>
      </trkpt>
      <trkpt lat="45.03076" lon="4.14724">
        <ele>1263</ele>
        <time>2021-04-28T13:23:41Z</time>
      </trkpt>
      <trkpt lat="45.03075" lon="4.14719">
        <ele>1263</ele>
        <time>2021-04-28T13:23:42Z</time>
      </trkpt>
      <trkpt lat="45.03073" lon="4.14714">
        <ele>1263</ele>
        <time>2021-04-28T13:23:43Z</time>
      </trkpt>
      <trkpt lat="45.0307" lon="4.14711">
        <ele>1263</ele>
        <time>2021-04-28T13:23:44Z</time>
      </trkpt>
      <trkpt lat="45.03066" lon="4.14708">
        <ele>1263</ele>
        <time>2021-04-28T13:23:45Z</time>
      </trkpt>
      <trkpt lat="45.03061" lon="4.14708">
        <ele>1263</ele>
        <time>2021-04-28T13:23:46Z</time>
      </trkpt>
      <trkpt lat="45.03056" lon="4.14708">
        <ele>1263</ele>
        <time>2021-04-28T13:23:47Z</time>
      </trkpt>
      <trkpt lat="45.03051" lon="4.14708">
        <ele>1263</ele>
        <time>2021-04-28T13:23:48Z</time>
      </trkpt>
      <trkpt lat="45.03046" lon="4.14708">
        <ele>1263</ele>
        <time>2021-04-28T13:23:49Z</time>
      </trkpt>
      <trkpt lat="45.0304" lon="4.14708">
        <ele>1263</ele>
        <time>2021-04-28T13:23:50Z</time>
      </trkpt>
      <trkpt lat="45.03035" lon="4.14708">
        <ele>1263</ele>
        <time>2021-04-28T13:23:51Z</time>
      </trkpt>
      <trkpt lat="45.0303" lon="4.14707">
        <ele>1263</ele>
        <time>2021-04-28T13:23:52Z</time>
      </trkpt>
      <trkpt lat="45.03025" lon="4.14706">
        <ele>1263</ele>
        <time>2021-04-28T13:23:53Z</time>
      </trkpt>
      <trkpt lat="45.0302" lon="4.14706">
        <ele>1263</ele>
        <time>2021-04-28T13:23:54Z</time>
      </trkpt>
      <trkpt lat="45.03015" lon="4.14706">
        <ele>1263</ele>
        <time>2021-04-28T13:23:55Z</time>
      </trkpt>
      <trkpt lat="45.03005" lon="4.14705">
        <ele>1263</ele>
        <time>2021-04-28T13:23:56Z</time>
      </trkpt>
      <trkpt lat="45.03" lon="4.14705">
        <ele>1263</ele>
        <time>2021-04-28T13:23:58Z</time>
      </trkpt>
      <trkpt lat="45.02995" lon="4.14705">
        <ele>1262</ele>
        <time>2021-04-28T13:23:59Z</time>
      </trkpt>
      <trkpt lat="45.0299" lon="4.14704">
        <ele>1262</ele>
        <time>2021-04-28T13:24:00Z</time>
      </trkpt>
      <trkpt lat="45.02985" lon="4.14704">
        <ele>1262</ele>
        <time>2021-04-28T13:24:01Z</time>
      </trkpt>
      <trkpt lat="45.0298" lon="4.14704">
        <ele>1262</ele>
        <time>2021-04-28T13:24:02Z</time>
      </trkpt>
      <trkpt lat="45.02974" lon="4.14704">
        <ele>1262</ele>
        <time>2021-04-28T13:24:03Z</time>
      </trkpt>
      <trkpt lat="45.02969" lon="4.14704">
        <ele>1262</ele>
        <time>2021-04-28T13:24:04Z</time>
      </trkpt>
      <trkpt lat="45.02963" lon="4.14703">
        <ele>1262</ele>
        <time>2021-04-28T13:24:05Z</time>
      </trkpt>
      <trkpt lat="45.02958" lon="4.14703">
        <ele>1262</ele>
        <time>2021-04-28T13:24:06Z</time>
      </trkpt>
      <trkpt lat="45.02953" lon="4.14702">
        <ele>1262</ele>
        <time>2021-04-28T13:24:07Z</time>
      </trkpt>
      <trkpt lat="45.02948" lon="4.14702">
        <ele>1262</ele>
        <time>2021-04-28T13:24:08Z</time>
      </trkpt>
      <trkpt lat="45.02943" lon="4.14702">
        <ele>1262</ele>
        <time>2021-04-28T13:24:09Z</time>
      </trkpt>
      <trkpt lat="45.02938" lon="4.14701">
        <ele>1262</ele>
        <time>2021-04-28T13:24:10Z</time>
      </trkpt>
      <trkpt lat="45.02932" lon="4.14701">
        <ele>1262</ele>
        <time>2021-04-28T13:24:11Z</time>
      </trkpt>
      <trkpt lat="45.02927" lon="4.147">
        <ele>1262</ele>
        <time>2021-04-28T13:24:12Z</time>
      </trkpt>
      <trkpt lat="45.02922" lon="4.14698">
        <ele>1262</ele>
        <time>2021-04-28T13:24:13Z</time>
      </trkpt>
      <trkpt lat="45.02916" lon="4.14696">
        <ele>1262</ele>
        <time>2021-04-28T13:24:14Z</time>
      </trkpt>
      <trkpt lat="45.02911" lon="4.14694">
        <ele>1261</ele>
        <time>2021-04-28T13:24:15Z</time>
      </trkpt>
      <trkpt lat="45.02906" lon="4.14691">
        <ele>1261</ele>
        <time>2021-04-28T13:24:16Z</time>
      </trkpt>
      <trkpt lat="45.02901" lon="4.14689">
        <ele>1261</ele>
        <time>2021-04-28T13:24:17Z</time>
      </trkpt>
      <trkpt lat="45.02896" lon="4.14686">
        <ele>1261</ele>
        <time>2021-04-28T13:24:18Z</time>
      </trkpt>
      <trkpt lat="45.02891" lon="4.14683">
        <ele>1261</ele>
        <time>2021-04-28T13:24:19Z</time>
      </trkpt>
      <trkpt lat="45.02887" lon="4.1468">
        <ele>1261</ele>
        <time>2021-04-28T13:24:20Z</time>
      </trkpt>
      <trkpt lat="45.02882" lon="4.14677">
        <ele>1261</ele>
        <time>2021-04-28T13:24:21Z</time>
      </trkpt>
      <trkpt lat="45.02878" lon="4.14673">
        <ele>1261</ele>
        <time>2021-04-28T13:24:22Z</time>
      </trkpt>
      <trkpt lat="45.02873" lon="4.1467">
        <ele>1262</ele>
        <time>2021-04-28T13:24:23Z</time>
      </trkpt>
      <trkpt lat="45.02868" lon="4.14666">
        <ele>1262</ele>
        <time>2021-04-28T13:24:24Z</time>
      </trkpt>
      <trkpt lat="45.02864" lon="4.14662">
        <ele>1262</ele>
        <time>2021-04-28T13:24:25Z</time>
      </trkpt>
      <trkpt lat="45.02854" lon="4.14655">
        <ele>1262</ele>
        <time>2021-04-28T13:24:26Z</time>
      </trkpt>
      <trkpt lat="45.0285" lon="4.14652">
        <ele>1262</ele>
        <time>2021-04-28T13:24:28Z</time>
      </trkpt>
      <trkpt lat="45.02845" lon="4.14649">
        <ele>1262</ele>
        <time>2021-04-28T13:24:29Z</time>
      </trkpt>
      <trkpt lat="45.02841" lon="4.14647">
        <ele>1262</ele>
        <time>2021-04-28T13:24:30Z</time>
      </trkpt>
      <trkpt lat="45.02836" lon="4.14644">
        <ele>1263</ele>
        <time>2021-04-28T13:24:31Z</time>
      </trkpt>
      <trkpt lat="45.02832" lon="4.14642">
        <ele>1263</ele>
        <time>2021-04-28T13:24:32Z</time>
      </trkpt>
      <trkpt lat="45.02828" lon="4.1464">
        <ele>1263</ele>
        <time>2021-04-28T13:24:33Z</time>
      </trkpt>
      <trkpt lat="45.02824" lon="4.14639">
        <ele>1263</ele>
        <time>2021-04-28T13:24:34Z</time>
      </trkpt>
      <trkpt lat="45.02821" lon="4.14637">
        <ele>1263</ele>
        <time>2021-04-28T13:24:35Z</time>
      </trkpt>
      <trkpt lat="45.02817" lon="4.14636">
        <ele>1263</ele>
        <time>2021-04-28T13:24:36Z</time>
      </trkpt>
      <trkpt lat="45.02813" lon="4.14634">
        <ele>1263</ele>
        <time>2021-04-28T13:24:37Z</time>
      </trkpt>
      <trkpt lat="45.0281" lon="4.1463">
        <ele>1264</ele>
        <time>2021-04-28T13:24:38Z</time>
      </trkpt>
      <trkpt lat="45.02809" lon="4.14623">
        <ele>1264</ele>
        <time>2021-04-28T13:24:39Z</time>
      </trkpt>
      <trkpt lat="45.02808" lon="4.14616">
        <ele>1264</ele>
        <time>2021-04-28T13:24:40Z</time>
      </trkpt>
      <trkpt lat="45.02805" lon="4.1461">
        <ele>1264</ele>
        <time>2021-04-28T13:24:41Z</time>
      </trkpt>
      <trkpt lat="45.02802" lon="4.14604">
        <ele>1264</ele>
        <time>2021-04-28T13:24:42Z</time>
      </trkpt>
      <trkpt lat="45.02798" lon="4.14598">
        <ele>1264</ele>
        <time>2021-04-28T13:24:43Z</time>
      </trkpt>
      <trkpt lat="45.02793" lon="4.14593">
        <ele>1264</ele>
        <time>2021-04-28T13:24:44Z</time>
      </trkpt>
      <trkpt lat="45.02789" lon="4.14588">
        <ele>1264</ele>
        <time>2021-04-28T13:24:45Z</time>
      </trkpt>
      <trkpt lat="45.02784" lon="4.14582">
        <ele>1264</ele>
        <time>2021-04-28T13:24:46Z</time>
      </trkpt>
      <trkpt lat="45.0278" lon="4.14577">
        <ele>1264</ele>
        <time>2021-04-28T13:24:47Z</time>
      </trkpt>
      <trkpt lat="45.02776" lon="4.14572">
        <ele>1264</ele>
        <time>2021-04-28T13:24:48Z</time>
      </trkpt>
      <trkpt lat="45.02772" lon="4.14566">
        <ele>1264</ele>
        <time>2021-04-28T13:24:49Z</time>
      </trkpt>
      <trkpt lat="45.02768" lon="4.14561">
        <ele>1264</ele>
        <time>2021-04-28T13:24:50Z</time>
      </trkpt>
      <trkpt lat="45.02764" lon="4.14555">
        <ele>1264</ele>
        <time>2021-04-28T13:24:51Z</time>
      </trkpt>
      <trkpt lat="45.0276" lon="4.14549">
        <ele>1265</ele>
        <time>2021-04-28T13:24:52Z</time>
      </trkpt>
      <trkpt lat="45.02752" lon="4.14537">
        <ele>1265</ele>
        <time>2021-04-28T13:24:53Z</time>
      </trkpt>
      <trkpt lat="45.02748" lon="4.14531">
        <ele>1265</ele>
        <time>2021-04-28T13:24:55Z</time>
      </trkpt>
      <trkpt lat="45.02745" lon="4.14526">
        <ele>1265</ele>
        <time>2021-04-28T13:24:56Z</time>
      </trkpt>
      <trkpt lat="45.02741" lon="4.1452">
        <ele>1265</ele>
        <time>2021-04-28T13:24:57Z</time>
      </trkpt>
      <trkpt lat="45.02738" lon="4.14515">
        <ele>1265</ele>
        <time>2021-04-28T13:24:58Z</time>
      </trkpt>
      <trkpt lat="45.02737" lon="4.14508">
        <ele>1265</ele>
        <time>2021-04-28T13:24:59Z</time>
      </trkpt>
      <trkpt lat="45.02737" lon="4.14501">
        <ele>1265</ele>
        <time>2021-04-28T13:25:00Z</time>
      </trkpt>
      <trkpt lat="45.02738" lon="4.14494">
        <ele>1265</ele>
        <time>2021-04-28T13:25:01Z</time>
      </trkpt>
      <trkpt lat="45.0274" lon="4.14487">
        <ele>1265</ele>
        <time>2021-04-28T13:25:02Z</time>
      </trkpt>
      <trkpt lat="45.02743" lon="4.14479">
        <ele>1265</ele>
        <time>2021-04-28T13:25:03Z</time>
      </trkpt>
      <trkpt lat="45.02744" lon="4.14471">
        <ele>1265</ele>
        <time>2021-04-28T13:25:04Z</time>
      </trkpt>
      <trkpt lat="45.02746" lon="4.14463">
        <ele>1265</ele>
        <time>2021-04-28T13:25:05Z</time>
      </trkpt>
      <trkpt lat="45.02745" lon="4.14455">
        <ele>1265</ele>
        <time>2021-04-28T13:25:06Z</time>
      </trkpt>
      <trkpt lat="45.02743" lon="4.14448">
        <ele>1265</ele>
        <time>2021-04-28T13:25:07Z</time>
      </trkpt>
      <trkpt lat="45.02739" lon="4.14444">
        <ele>1265</ele>
        <time>2021-04-28T13:25:08Z</time>
      </trkpt>
      <trkpt lat="45.02735" lon="4.14443">
        <ele>1265</ele>
        <time>2021-04-28T13:25:09Z</time>
      </trkpt>
      <trkpt lat="45.02731" lon="4.14441">
        <ele>1265</ele>
        <time>2021-04-28T13:25:10Z</time>
      </trkpt>
      <trkpt lat="45.02727" lon="4.14437">
        <ele>1265</ele>
        <time>2021-04-28T13:25:11Z</time>
      </trkpt>
      <trkpt lat="45.02723" lon="4.14433">
        <ele>1265</ele>
        <time>2021-04-28T13:25:12Z</time>
      </trkpt>
      <trkpt lat="45.02718" lon="4.14429">
        <ele>1265</ele>
        <time>2021-04-28T13:25:13Z</time>
      </trkpt>
      <trkpt lat="45.02714" lon="4.14424">
        <ele>1265</ele>
        <time>2021-04-28T13:25:14Z</time>
      </trkpt>
      <trkpt lat="45.0271" lon="4.1442">
        <ele>1265</ele>
        <time>2021-04-28T13:25:15Z</time>
      </trkpt>
      <trkpt lat="45.02706" lon="4.14416">
        <ele>1265</ele>
        <time>2021-04-28T13:25:16Z</time>
      </trkpt>
      <trkpt lat="45.02702" lon="4.14412">
        <ele>1265</ele>
        <time>2021-04-28T13:25:17Z</time>
      </trkpt>
      <trkpt lat="45.02698" lon="4.14407">
        <ele>1265</ele>
        <time>2021-04-28T13:25:18Z</time>
      </trkpt>
      <trkpt lat="45.02693" lon="4.14402">
        <ele>1265</ele>
        <time>2021-04-28T13:25:19Z</time>
      </trkpt>
      <trkpt lat="45.02688" lon="4.14398">
        <ele>1265</ele>
        <time>2021-04-28T13:25:20Z</time>
      </trkpt>
      <trkpt lat="45.02683" lon="4.14394">
        <ele>1265</ele>
        <time>2021-04-28T13:25:21Z</time>
      </trkpt>
      <trkpt lat="45.02678" lon="4.1439">
        <ele>1265</ele>
        <time>2021-04-28T13:25:22Z</time>
      </trkpt>
      <trkpt lat="45.02674" lon="4.14386">
        <ele>1265</ele>
        <time>2021-04-28T13:25:23Z</time>
      </trkpt>
      <trkpt lat="45.02669" lon="4.14382">
        <ele>1264</ele>
        <time>2021-04-28T13:25:24Z</time>
      </trkpt>
      <trkpt lat="45.02664" lon="4.14377">
        <ele>1264</ele>
        <time>2021-04-28T13:25:25Z</time>
      </trkpt>
      <trkpt lat="45.0266" lon="4.14373">
        <ele>1264</ele>
        <time>2021-04-28T13:25:26Z</time>
      </trkpt>
      <trkpt lat="45.02656" lon="4.14368">
        <ele>1264</ele>
        <time>2021-04-28T13:25:27Z</time>
      </trkpt>
      <trkpt lat="45.02652" lon="4.14364">
        <ele>1264</ele>
        <time>2021-04-28T13:25:28Z</time>
      </trkpt>
      <trkpt lat="45.02648" lon="4.14359">
        <ele>1264</ele>
        <time>2021-04-28T13:25:29Z</time>
      </trkpt>
      <trkpt lat="45.02645" lon="4.14354">
        <ele>1264</ele>
        <time>2021-04-28T13:25:30Z</time>
      </trkpt>
      <trkpt lat="45.02642" lon="4.1435">
        <ele>1264</ele>
        <time>2021-04-28T13:25:31Z</time>
      </trkpt>
      <trkpt lat="45.02641" lon="4.14347">
        <ele>1264</ele>
        <time>2021-04-28T13:25:32Z</time>
      </trkpt>
      <trkpt lat="45.02639" lon="4.14346">
        <ele>1265</ele>
        <time>2021-04-28T13:25:34Z</time>
      </trkpt>
      <trkpt lat="45.02637" lon="4.1435">
        <ele>1265</ele>
        <time>2021-04-28T13:25:36Z</time>
      </trkpt>
      <trkpt lat="45.02636" lon="4.14352">
        <ele>1265</ele>
        <time>2021-04-28T13:25:37Z</time>
      </trkpt>
      <trkpt lat="45.02633" lon="4.14354">
        <ele>1265</ele>
        <time>2021-04-28T13:25:38Z</time>
      </trkpt>
      <trkpt lat="45.0263" lon="4.14355">
        <ele>1265</ele>
        <time>2021-04-28T13:25:39Z</time>
      </trkpt>
      <trkpt lat="45.02627" lon="4.14356">
        <ele>1265</ele>
        <time>2021-04-28T13:25:40Z</time>
      </trkpt>
      <trkpt lat="45.02624" lon="4.14357">
        <ele>1265</ele>
        <time>2021-04-28T13:25:41Z</time>
      </trkpt>
      <trkpt lat="45.02621" lon="4.14358">
        <ele>1265</ele>
        <time>2021-04-28T13:25:42Z</time>
      </trkpt>
      <trkpt lat="45.02618" lon="4.1436">
        <ele>1265</ele>
        <time>2021-04-28T13:25:43Z</time>
      </trkpt>
      <trkpt lat="45.02615" lon="4.14362">
        <ele>1265</ele>
        <time>2021-04-28T13:25:44Z</time>
      </trkpt>
      <trkpt lat="45.02613" lon="4.14365">
        <ele>1266</ele>
        <time>2021-04-28T13:25:45Z</time>
      </trkpt>
      <trkpt lat="45.0261" lon="4.14369">
        <ele>1266</ele>
        <time>2021-04-28T13:25:46Z</time>
      </trkpt>
      <trkpt lat="45.02608" lon="4.14373">
        <ele>1266</ele>
        <time>2021-04-28T13:25:47Z</time>
      </trkpt>
      <trkpt lat="45.02605" lon="4.14377">
        <ele>1266</ele>
        <time>2021-04-28T13:25:48Z</time>
      </trkpt>
      <trkpt lat="45.02602" lon="4.14381">
        <ele>1266</ele>
        <time>2021-04-28T13:25:49Z</time>
      </trkpt>
      <trkpt lat="45.026" lon="4.14389">
        <ele>1266</ele>
        <time>2021-04-28T13:25:50Z</time>
      </trkpt>
      <trkpt lat="45.02598" lon="4.14392">
        <ele>1267</ele>
        <time>2021-04-28T13:25:52Z</time>
      </trkpt>
      <trkpt lat="45.02596" lon="4.14396">
        <ele>1267</ele>
        <time>2021-04-28T13:25:53Z</time>
      </trkpt>
      <trkpt lat="45.02593" lon="4.144">
        <ele>1267</ele>
        <time>2021-04-28T13:25:54Z</time>
      </trkpt>
      <trkpt lat="45.02591" lon="4.14404">
        <ele>1267</ele>
        <time>2021-04-28T13:25:55Z</time>
      </trkpt>
      <trkpt lat="45.02589" lon="4.14408">
        <ele>1267</ele>
        <time>2021-04-28T13:25:56Z</time>
      </trkpt>
      <trkpt lat="45.02586" lon="4.14411">
        <ele>1267</ele>
        <time>2021-04-28T13:25:57Z</time>
      </trkpt>
      <trkpt lat="45.02584" lon="4.14415">
        <ele>1268</ele>
        <time>2021-04-28T13:25:58Z</time>
      </trkpt>
      <trkpt lat="45.02581" lon="4.14419">
        <ele>1268</ele>
        <time>2021-04-28T13:25:59Z</time>
      </trkpt>
      <trkpt lat="45.02578" lon="4.14423">
        <ele>1268</ele>
        <time>2021-04-28T13:26:00Z</time>
      </trkpt>
      <trkpt lat="45.02576" lon="4.14427">
        <ele>1268</ele>
        <time>2021-04-28T13:26:01Z</time>
      </trkpt>
      <trkpt lat="45.02573" lon="4.14431">
        <ele>1268</ele>
        <time>2021-04-28T13:26:02Z</time>
      </trkpt>
      <trkpt lat="45.02571" lon="4.14435">
        <ele>1269</ele>
        <time>2021-04-28T13:26:03Z</time>
      </trkpt>
      <trkpt lat="45.02568" lon="4.14439">
        <ele>1269</ele>
        <time>2021-04-28T13:26:04Z</time>
      </trkpt>
      <trkpt lat="45.02566" lon="4.14442">
        <ele>1269</ele>
        <time>2021-04-28T13:26:05Z</time>
      </trkpt>
      <trkpt lat="45.02563" lon="4.14446">
        <ele>1270</ele>
        <time>2021-04-28T13:26:06Z</time>
      </trkpt>
      <trkpt lat="45.02561" lon="4.1445">
        <ele>1270</ele>
        <time>2021-04-28T13:26:07Z</time>
      </trkpt>
      <trkpt lat="45.02558" lon="4.14454">
        <ele>1270</ele>
        <time>2021-04-28T13:26:08Z</time>
      </trkpt>
      <trkpt lat="45.02554" lon="4.14462">
        <ele>1270</ele>
        <time>2021-04-28T13:26:09Z</time>
      </trkpt>
      <trkpt lat="45.02553" lon="4.14467">
        <ele>1271</ele>
        <time>2021-04-28T13:26:11Z</time>
      </trkpt>
      <trkpt lat="45.02552" lon="4.14472">
        <ele>1271</ele>
        <time>2021-04-28T13:26:12Z</time>
      </trkpt>
      <trkpt lat="45.02551" lon="4.14476">
        <ele>1271</ele>
        <time>2021-04-28T13:26:13Z</time>
      </trkpt>
      <trkpt lat="45.0255" lon="4.1448">
        <ele>1271</ele>
        <time>2021-04-28T13:26:14Z</time>
      </trkpt>
      <trkpt lat="45.02548" lon="4.14484">
        <ele>1271</ele>
        <time>2021-04-28T13:26:15Z</time>
      </trkpt>
      <trkpt lat="45.02545" lon="4.14487">
        <ele>1271</ele>
        <time>2021-04-28T13:26:16Z</time>
      </trkpt>
      <trkpt lat="45.02542" lon="4.14489">
        <ele>1272</ele>
        <time>2021-04-28T13:26:17Z</time>
      </trkpt>
      <trkpt lat="45.02538" lon="4.14488">
        <ele>1272</ele>
        <time>2021-04-28T13:26:18Z</time>
      </trkpt>
      <trkpt lat="45.02535" lon="4.14487">
        <ele>1272</ele>
        <time>2021-04-28T13:26:19Z</time>
      </trkpt>
      <trkpt lat="45.02532" lon="4.14486">
        <ele>1272</ele>
        <time>2021-04-28T13:26:20Z</time>
      </trkpt>
      <trkpt lat="45.02528" lon="4.14485">
        <ele>1272</ele>
        <time>2021-04-28T13:26:21Z</time>
      </trkpt>
      <trkpt lat="45.02525" lon="4.14484">
        <ele>1272</ele>
        <time>2021-04-28T13:26:22Z</time>
      </trkpt>
      <trkpt lat="45.02521" lon="4.14482">
        <ele>1273</ele>
        <time>2021-04-28T13:26:23Z</time>
      </trkpt>
      <trkpt lat="45.02518" lon="4.1448">
        <ele>1273</ele>
        <time>2021-04-28T13:26:24Z</time>
      </trkpt>
      <trkpt lat="45.02515" lon="4.14477">
        <ele>1273</ele>
        <time>2021-04-28T13:26:25Z</time>
      </trkpt>
      <trkpt lat="45.02512" lon="4.14473">
        <ele>1273</ele>
        <time>2021-04-28T13:26:26Z</time>
      </trkpt>
      <trkpt lat="45.0251" lon="4.14469">
        <ele>1273</ele>
        <time>2021-04-28T13:26:27Z</time>
      </trkpt>
      <trkpt lat="45.02503" lon="4.1446">
        <ele>1273</ele>
        <time>2021-04-28T13:26:28Z</time>
      </trkpt>
      <trkpt lat="45.02501" lon="4.14455">
        <ele>1273</ele>
        <time>2021-04-28T13:26:30Z</time>
      </trkpt>
      <trkpt lat="45.02498" lon="4.1445">
        <ele>1273</ele>
        <time>2021-04-28T13:26:31Z</time>
      </trkpt>
      <trkpt lat="45.02495" lon="4.14444">
        <ele>1273</ele>
        <time>2021-04-28T13:26:32Z</time>
      </trkpt>
      <trkpt lat="45.02492" lon="4.14439">
        <ele>1273</ele>
        <time>2021-04-28T13:26:33Z</time>
      </trkpt>
      <trkpt lat="45.0249" lon="4.14434">
        <ele>1273</ele>
        <time>2021-04-28T13:26:34Z</time>
      </trkpt>
      <trkpt lat="45.02488" lon="4.14429">
        <ele>1273</ele>
        <time>2021-04-28T13:26:35Z</time>
      </trkpt>
      <trkpt lat="45.02487" lon="4.14425">
        <ele>1273</ele>
        <time>2021-04-28T13:26:36Z</time>
      </trkpt>
      <trkpt lat="45.02486" lon="4.14422">
        <ele>1273</ele>
        <time>2021-04-28T13:26:37Z</time>
      </trkpt>
      <trkpt lat="45.02484" lon="4.14419">
        <ele>1273</ele>
        <time>2021-04-28T13:26:38Z</time>
      </trkpt>
      <trkpt lat="45.02481" lon="4.14416">
        <ele>1273</ele>
        <time>2021-04-28T13:26:39Z</time>
      </trkpt>
      <trkpt lat="45.02478" lon="4.14412">
        <ele>1273</ele>
        <time>2021-04-28T13:26:40Z</time>
      </trkpt>
      <trkpt lat="45.02475" lon="4.14407">
        <ele>1273</ele>
        <time>2021-04-28T13:26:41Z</time>
      </trkpt>
      <trkpt lat="45.02472" lon="4.14402">
        <ele>1273</ele>
        <time>2021-04-28T13:26:42Z</time>
      </trkpt>
      <trkpt lat="45.02469" lon="4.14396">
        <ele>1273</ele>
        <time>2021-04-28T13:26:43Z</time>
      </trkpt>
      <trkpt lat="45.02465" lon="4.1439">
        <ele>1273</ele>
        <time>2021-04-28T13:26:44Z</time>
      </trkpt>
      <trkpt lat="45.02461" lon="4.14384">
        <ele>1273</ele>
        <time>2021-04-28T13:26:45Z</time>
      </trkpt>
      <trkpt lat="45.02457" lon="4.14378">
        <ele>1273</ele>
        <time>2021-04-28T13:26:46Z</time>
      </trkpt>
      <trkpt lat="45.02453" lon="4.14372">
        <ele>1273</ele>
        <time>2021-04-28T13:26:47Z</time>
      </trkpt>
      <trkpt lat="45.02449" lon="4.14366">
        <ele>1273</ele>
        <time>2021-04-28T13:26:48Z</time>
      </trkpt>
      <trkpt lat="45.02445" lon="4.1436">
        <ele>1273</ele>
        <time>2021-04-28T13:26:49Z</time>
      </trkpt>
      <trkpt lat="45.02441" lon="4.14355">
        <ele>1273</ele>
        <time>2021-04-28T13:26:50Z</time>
      </trkpt>
      <trkpt lat="45.02437" lon="4.14349">
        <ele>1273</ele>
        <time>2021-04-28T13:26:51Z</time>
      </trkpt>
      <trkpt lat="45.02433" lon="4.14344">
        <ele>1273</ele>
        <time>2021-04-28T13:26:52Z</time>
      </trkpt>
      <trkpt lat="45.02429" lon="4.14338">
        <ele>1273</ele>
        <time>2021-04-28T13:26:53Z</time>
      </trkpt>
      <trkpt lat="45.02425" lon="4.14333">
        <ele>1273</ele>
        <time>2021-04-28T13:26:54Z</time>
      </trkpt>
      <trkpt lat="45.02421" lon="4.14327">
        <ele>1272</ele>
        <time>2021-04-28T13:26:55Z</time>
      </trkpt>
      <trkpt lat="45.02417" lon="4.14321">
        <ele>1272</ele>
        <time>2021-04-28T13:26:56Z</time>
      </trkpt>
      <trkpt lat="45.02413" lon="4.14315">
        <ele>1272</ele>
        <time>2021-04-28T13:26:57Z</time>
      </trkpt>
      <trkpt lat="45.02408" lon="4.1431">
        <ele>1272</ele>
        <time>2021-04-28T13:26:58Z</time>
      </trkpt>
      <trkpt lat="45.02404" lon="4.14304">
        <ele>1272</ele>
        <time>2021-04-28T13:26:59Z</time>
      </trkpt>
      <trkpt lat="45.024" lon="4.14299">
        <ele>1272</ele>
        <time>2021-04-28T13:27:00Z</time>
      </trkpt>
      <trkpt lat="45.02396" lon="4.14293">
        <ele>1272</ele>
        <time>2021-04-28T13:27:01Z</time>
      </trkpt>
      <trkpt lat="45.02393" lon="4.14287">
        <ele>1272</ele>
        <time>2021-04-28T13:27:02Z</time>
      </trkpt>
      <trkpt lat="45.02389" lon="4.14281">
        <ele>1272</ele>
        <time>2021-04-28T13:27:03Z</time>
      </trkpt>
      <trkpt lat="45.02385" lon="4.14275">
        <ele>1272</ele>
        <time>2021-04-28T13:27:04Z</time>
      </trkpt>
      <trkpt lat="45.02381" lon="4.14269">
        <ele>1272</ele>
        <time>2021-04-28T13:27:05Z</time>
      </trkpt>
      <trkpt lat="45.02372" lon="4.14258">
        <ele>1272</ele>
        <time>2021-04-28T13:27:06Z</time>
      </trkpt>
      <trkpt lat="45.02367" lon="4.14254">
        <ele>1272</ele>
        <time>2021-04-28T13:27:08Z</time>
      </trkpt>
      <trkpt lat="45.02362" lon="4.1425">
        <ele>1272</ele>
        <time>2021-04-28T13:27:09Z</time>
      </trkpt>
      <trkpt lat="45.02356" lon="4.14247">
        <ele>1272</ele>
        <time>2021-04-28T13:27:10Z</time>
      </trkpt>
      <trkpt lat="45.02351" lon="4.14245">
        <ele>1272</ele>
        <time>2021-04-28T13:27:11Z</time>
      </trkpt>
      <trkpt lat="45.02345" lon="4.14243">
        <ele>1272</ele>
        <time>2021-04-28T13:27:12Z</time>
      </trkpt>
      <trkpt lat="45.0234" lon="4.14242">
        <ele>1272</ele>
        <time>2021-04-28T13:27:13Z</time>
      </trkpt>
      <trkpt lat="45.02335" lon="4.1424">
        <ele>1272</ele>
        <time>2021-04-28T13:27:14Z</time>
      </trkpt>
      <trkpt lat="45.02329" lon="4.14238">
        <ele>1273</ele>
        <time>2021-04-28T13:27:15Z</time>
      </trkpt>
      <trkpt lat="45.02324" lon="4.14235">
        <ele>1273</ele>
        <time>2021-04-28T13:27:16Z</time>
      </trkpt>
      <trkpt lat="45.0232" lon="4.14231">
        <ele>1273</ele>
        <time>2021-04-28T13:27:17Z</time>
      </trkpt>
      <trkpt lat="45.02315" lon="4.14227">
        <ele>1273</ele>
        <time>2021-04-28T13:27:18Z</time>
      </trkpt>
      <trkpt lat="45.02311" lon="4.14221">
        <ele>1273</ele>
        <time>2021-04-28T13:27:19Z</time>
      </trkpt>
      <trkpt lat="45.02308" lon="4.14215">
        <ele>1273</ele>
        <time>2021-04-28T13:27:20Z</time>
      </trkpt>
      <trkpt lat="45.02304" lon="4.14209">
        <ele>1273</ele>
        <time>2021-04-28T13:27:21Z</time>
      </trkpt>
      <trkpt lat="45.023" lon="4.14203">
        <ele>1273</ele>
        <time>2021-04-28T13:27:22Z</time>
      </trkpt>
      <trkpt lat="45.02296" lon="4.14197">
        <ele>1273</ele>
        <time>2021-04-28T13:27:23Z</time>
      </trkpt>
      <trkpt lat="45.02293" lon="4.14191">
        <ele>1274</ele>
        <time>2021-04-28T13:27:24Z</time>
      </trkpt>
      <trkpt lat="45.02286" lon="4.1418">
        <ele>1274</ele>
        <time>2021-04-28T13:27:25Z</time>
      </trkpt>
      <trkpt lat="45.02282" lon="4.14174">
        <ele>1274</ele>
        <time>2021-04-28T13:27:27Z</time>
      </trkpt>
      <trkpt lat="45.02278" lon="4.14169">
        <ele>1275</ele>
        <time>2021-04-28T13:27:28Z</time>
      </trkpt>
      <trkpt lat="45.02275" lon="4.14163">
        <ele>1275</ele>
        <time>2021-04-28T13:27:29Z</time>
      </trkpt>
      <trkpt lat="45.02271" lon="4.14157">
        <ele>1275</ele>
        <time>2021-04-28T13:27:30Z</time>
      </trkpt>
      <trkpt lat="45.02267" lon="4.14152">
        <ele>1275</ele>
        <time>2021-04-28T13:27:31Z</time>
      </trkpt>
      <trkpt lat="45.02264" lon="4.14146">
        <ele>1276</ele>
        <time>2021-04-28T13:27:32Z</time>
      </trkpt>
      <trkpt lat="45.0226" lon="4.1414">
        <ele>1276</ele>
        <time>2021-04-28T13:27:33Z</time>
      </trkpt>
      <trkpt lat="45.02256" lon="4.14135">
        <ele>1276</ele>
        <time>2021-04-28T13:27:34Z</time>
      </trkpt>
      <trkpt lat="45.02252" lon="4.14129">
        <ele>1276</ele>
        <time>2021-04-28T13:27:35Z</time>
      </trkpt>
      <trkpt lat="45.02248" lon="4.14123">
        <ele>1276</ele>
        <time>2021-04-28T13:27:36Z</time>
      </trkpt>
      <trkpt lat="45.02244" lon="4.14118">
        <ele>1276</ele>
        <time>2021-04-28T13:27:37Z</time>
      </trkpt>
      <trkpt lat="45.0224" lon="4.14112">
        <ele>1277</ele>
        <time>2021-04-28T13:27:38Z</time>
      </trkpt>
      <trkpt lat="45.02237" lon="4.14106">
        <ele>1277</ele>
        <time>2021-04-28T13:27:39Z</time>
      </trkpt>
      <trkpt lat="45.02233" lon="4.14101">
        <ele>1277</ele>
        <time>2021-04-28T13:27:40Z</time>
      </trkpt>
      <trkpt lat="45.02229" lon="4.14095">
        <ele>1277</ele>
        <time>2021-04-28T13:27:41Z</time>
      </trkpt>
      <trkpt lat="45.02225" lon="4.14089">
        <ele>1277</ele>
        <time>2021-04-28T13:27:42Z</time>
      </trkpt>
      <trkpt lat="45.02221" lon="4.14083">
        <ele>1277</ele>
        <time>2021-04-28T13:27:43Z</time>
      </trkpt>
      <trkpt lat="45.02213" lon="4.14071">
        <ele>1277</ele>
        <time>2021-04-28T13:27:44Z</time>
      </trkpt>
      <trkpt lat="45.02209" lon="4.14066">
        <ele>1277</ele>
        <time>2021-04-28T13:27:46Z</time>
      </trkpt>
      <trkpt lat="45.02205" lon="4.1406">
        <ele>1277</ele>
        <time>2021-04-28T13:27:47Z</time>
      </trkpt>
      <trkpt lat="45.02201" lon="4.14054">
        <ele>1277</ele>
        <time>2021-04-28T13:27:48Z</time>
      </trkpt>
      <trkpt lat="45.02197" lon="4.14048">
        <ele>1277</ele>
        <time>2021-04-28T13:27:49Z</time>
      </trkpt>
      <trkpt lat="45.02193" lon="4.14042">
        <ele>1277</ele>
        <time>2021-04-28T13:27:50Z</time>
      </trkpt>
      <trkpt lat="45.02189" lon="4.14036">
        <ele>1277</ele>
        <time>2021-04-28T13:27:51Z</time>
      </trkpt>
      <trkpt lat="45.02185" lon="4.1403">
        <ele>1277</ele>
        <time>2021-04-28T13:27:52Z</time>
      </trkpt>
      <trkpt lat="45.0218" lon="4.14024">
        <ele>1277</ele>
        <time>2021-04-28T13:27:53Z</time>
      </trkpt>
      <trkpt lat="45.02176" lon="4.14018">
        <ele>1277</ele>
        <time>2021-04-28T13:27:54Z</time>
      </trkpt>
      <trkpt lat="45.02172" lon="4.14013">
        <ele>1277</ele>
        <time>2021-04-28T13:27:55Z</time>
      </trkpt>
      <trkpt lat="45.02167" lon="4.14007">
        <ele>1277</ele>
        <time>2021-04-28T13:27:56Z</time>
      </trkpt>
      <trkpt lat="45.02163" lon="4.14002">
        <ele>1277</ele>
        <time>2021-04-28T13:27:57Z</time>
      </trkpt>
      <trkpt lat="45.02158" lon="4.13996">
        <ele>1277</ele>
        <time>2021-04-28T13:27:58Z</time>
      </trkpt>
      <trkpt lat="45.02154" lon="4.13991">
        <ele>1277</ele>
        <time>2021-04-28T13:27:59Z</time>
      </trkpt>
      <trkpt lat="45.0215" lon="4.13986">
        <ele>1277</ele>
        <time>2021-04-28T13:28:00Z</time>
      </trkpt>
      <trkpt lat="45.02146" lon="4.1398">
        <ele>1277</ele>
        <time>2021-04-28T13:28:01Z</time>
      </trkpt>
      <trkpt lat="45.02141" lon="4.13974">
        <ele>1277</ele>
        <time>2021-04-28T13:28:02Z</time>
      </trkpt>
      <trkpt lat="45.02132" lon="4.13964">
        <ele>1277</ele>
        <time>2021-04-28T13:28:03Z</time>
      </trkpt>
      <trkpt lat="45.02128" lon="4.13959">
        <ele>1277</ele>
        <time>2021-04-28T13:28:05Z</time>
      </trkpt>
      <trkpt lat="45.02123" lon="4.13954">
        <ele>1276</ele>
        <time>2021-04-28T13:28:06Z</time>
      </trkpt>
      <trkpt lat="45.02119" lon="4.13949">
        <ele>1276</ele>
        <time>2021-04-28T13:28:07Z</time>
      </trkpt>
      <trkpt lat="45.02114" lon="4.13944">
        <ele>1276</ele>
        <time>2021-04-28T13:28:08Z</time>
      </trkpt>
      <trkpt lat="45.0211" lon="4.13938">
        <ele>1276</ele>
        <time>2021-04-28T13:28:09Z</time>
      </trkpt>
      <trkpt lat="45.02106" lon="4.13933">
        <ele>1276</ele>
        <time>2021-04-28T13:28:10Z</time>
      </trkpt>
      <trkpt lat="45.02102" lon="4.13927">
        <ele>1276</ele>
        <time>2021-04-28T13:28:11Z</time>
      </trkpt>
      <trkpt lat="45.02098" lon="4.13922">
        <ele>1276</ele>
        <time>2021-04-28T13:28:12Z</time>
      </trkpt>
      <trkpt lat="45.02094" lon="4.13917">
        <ele>1276</ele>
        <time>2021-04-28T13:28:13Z</time>
      </trkpt>
      <trkpt lat="45.0209" lon="4.13912">
        <ele>1276</ele>
        <time>2021-04-28T13:28:14Z</time>
      </trkpt>
      <trkpt lat="45.02087" lon="4.13907">
        <ele>1276</ele>
        <time>2021-04-28T13:28:15Z</time>
      </trkpt>
      <trkpt lat="45.02083" lon="4.13901">
        <ele>1276</ele>
        <time>2021-04-28T13:28:16Z</time>
      </trkpt>
      <trkpt lat="45.02079" lon="4.13895">
        <ele>1276</ele>
        <time>2021-04-28T13:28:17Z</time>
      </trkpt>
      <trkpt lat="45.02077" lon="4.13888">
        <ele>1276</ele>
        <time>2021-04-28T13:28:18Z</time>
      </trkpt>
      <trkpt lat="45.02074" lon="4.13881">
        <ele>1276</ele>
        <time>2021-04-28T13:28:19Z</time>
      </trkpt>
      <trkpt lat="45.02072" lon="4.13873">
        <ele>1275</ele>
        <time>2021-04-28T13:28:20Z</time>
      </trkpt>
      <trkpt lat="45.0207" lon="4.13865">
        <ele>1275</ele>
        <time>2021-04-28T13:28:21Z</time>
      </trkpt>
      <trkpt lat="45.02065" lon="4.13849">
        <ele>1275</ele>
        <time>2021-04-28T13:28:22Z</time>
      </trkpt>
      <trkpt lat="45.02062" lon="4.13842">
        <ele>1275</ele>
        <time>2021-04-28T13:28:24Z</time>
      </trkpt>
      <trkpt lat="45.02057" lon="4.13834">
        <ele>1274</ele>
        <time>2021-04-28T13:28:25Z</time>
      </trkpt>
      <trkpt lat="45.02052" lon="4.13827">
        <ele>1274</ele>
        <time>2021-04-28T13:28:26Z</time>
      </trkpt>
      <trkpt lat="45.02046" lon="4.1382">
        <ele>1273</ele>
        <time>2021-04-28T13:28:27Z</time>
      </trkpt>
      <trkpt lat="45.0204" lon="4.13813">
        <ele>1273</ele>
        <time>2021-04-28T13:28:28Z</time>
      </trkpt>
      <trkpt lat="45.02035" lon="4.13804">
        <ele>1272</ele>
        <time>2021-04-28T13:28:29Z</time>
      </trkpt>
      <trkpt lat="45.02029" lon="4.13796">
        <ele>1272</ele>
        <time>2021-04-28T13:28:30Z</time>
      </trkpt>
      <trkpt lat="45.02023" lon="4.13788">
        <ele>1271</ele>
        <time>2021-04-28T13:28:31Z</time>
      </trkpt>
      <trkpt lat="45.02017" lon="4.1378">
        <ele>1271</ele>
        <time>2021-04-28T13:28:32Z</time>
      </trkpt>
      <trkpt lat="45.02011" lon="4.13772">
        <ele>1270</ele>
        <time>2021-04-28T13:28:33Z</time>
      </trkpt>
      <trkpt lat="45.02007" lon="4.13765">
        <ele>1270</ele>
        <time>2021-04-28T13:28:34Z</time>
      </trkpt>
      <trkpt lat="45.02002" lon="4.13761">
        <ele>1269</ele>
        <time>2021-04-28T13:28:35Z</time>
      </trkpt>
      <trkpt lat="45.01999" lon="4.1376">
        <ele>1269</ele>
        <time>2021-04-28T13:28:36Z</time>
      </trkpt>
      <trkpt lat="45.01997" lon="4.1376">
        <ele>1268</ele>
        <time>2021-04-28T13:28:37Z</time>
      </trkpt>
      <trkpt lat="45.01995" lon="4.1376">
        <ele>1267</ele>
        <time>2021-04-28T13:28:38Z</time>
      </trkpt>
      <trkpt lat="45.01993" lon="4.13763">
        <ele>1266</ele>
        <time>2021-04-28T13:28:40Z</time>
      </trkpt>
      <trkpt lat="45.01991" lon="4.13765">
        <ele>1266</ele>
        <time>2021-04-28T13:28:41Z</time>
      </trkpt>
      <trkpt lat="45.0199" lon="4.13768">
        <ele>1264</ele>
        <time>2021-04-28T13:28:45Z</time>
      </trkpt>
      <trkpt lat="45.01987" lon="4.13771">
        <ele>1264</ele>
        <time>2021-04-28T13:28:48Z</time>
      </trkpt>
      <trkpt lat="45.01984" lon="4.13774">
        <ele>1264</ele>
        <time>2021-04-28T13:28:49Z</time>
      </trkpt>
      <trkpt lat="45.01981" lon="4.13776">
        <ele>1264</ele>
        <time>2021-04-28T13:28:50Z</time>
      </trkpt>
      <trkpt lat="45.01978" lon="4.13779">
        <ele>1263</ele>
        <time>2021-04-28T13:28:51Z</time>
      </trkpt>
      <trkpt lat="45.01975" lon="4.13781">
        <ele>1263</ele>
        <time>2021-04-28T13:28:52Z</time>
      </trkpt>
      <trkpt lat="45.01973" lon="4.13784">
        <ele>1263</ele>
        <time>2021-04-28T13:28:53Z</time>
      </trkpt>
      <trkpt lat="45.0197" lon="4.13786">
        <ele>1263</ele>
        <time>2021-04-28T13:28:54Z</time>
      </trkpt>
      <trkpt lat="45.01968" lon="4.13788">
        <ele>1263</ele>
        <time>2021-04-28T13:28:55Z</time>
      </trkpt>
      <trkpt lat="45.01964" lon="4.1379">
        <ele>1263</ele>
        <time>2021-04-28T13:28:56Z</time>
      </trkpt>
      <trkpt lat="45.01962" lon="4.13793">
        <ele>1263</ele>
        <time>2021-04-28T13:28:57Z</time>
      </trkpt>
      <trkpt lat="45.01959" lon="4.13794">
        <ele>1263</ele>
        <time>2021-04-28T13:28:58Z</time>
      </trkpt>
      <trkpt lat="45.01956" lon="4.13796">
        <ele>1263</ele>
        <time>2021-04-28T13:28:59Z</time>
      </trkpt>
      <trkpt lat="45.0195" lon="4.13799">
        <ele>1263</ele>
        <time>2021-04-28T13:29:00Z</time>
      </trkpt>
      <trkpt lat="45.01947" lon="4.13802">
        <ele>1263</ele>
        <time>2021-04-28T13:29:02Z</time>
      </trkpt>
      <trkpt lat="45.01943" lon="4.13804">
        <ele>1263</ele>
        <time>2021-04-28T13:29:03Z</time>
      </trkpt>
      <trkpt lat="45.01939" lon="4.13807">
        <ele>1264</ele>
        <time>2021-04-28T13:29:04Z</time>
      </trkpt>
      <trkpt lat="45.01936" lon="4.13809">
        <ele>1264</ele>
        <time>2021-04-28T13:29:05Z</time>
      </trkpt>
      <trkpt lat="45.01933" lon="4.13813">
        <ele>1264</ele>
        <time>2021-04-28T13:29:06Z</time>
      </trkpt>
      <trkpt lat="45.01931" lon="4.13818">
        <ele>1264</ele>
        <time>2021-04-28T13:29:07Z</time>
      </trkpt>
      <trkpt lat="45.01929" lon="4.13823">
        <ele>1264</ele>
        <time>2021-04-28T13:29:08Z</time>
      </trkpt>
      <trkpt lat="45.01928" lon="4.13827">
        <ele>1264</ele>
        <time>2021-04-28T13:29:09Z</time>
      </trkpt>
      <trkpt lat="45.01926" lon="4.13832">
        <ele>1264</ele>
        <time>2021-04-28T13:29:10Z</time>
      </trkpt>
      <trkpt lat="45.01924" lon="4.13836">
        <ele>1264</ele>
        <time>2021-04-28T13:29:11Z</time>
      </trkpt>
      <trkpt lat="45.01922" lon="4.13839">
        <ele>1264</ele>
        <time>2021-04-28T13:29:12Z</time>
      </trkpt>
      <trkpt lat="45.01919" lon="4.13843">
        <ele>1264</ele>
        <time>2021-04-28T13:29:13Z</time>
      </trkpt>
      <trkpt lat="45.01917" lon="4.13846">
        <ele>1264</ele>
        <time>2021-04-28T13:29:14Z</time>
      </trkpt>
      <trkpt lat="45.01914" lon="4.1385">
        <ele>1264</ele>
        <time>2021-04-28T13:29:15Z</time>
      </trkpt>
      <trkpt lat="45.01912" lon="4.13854">
        <ele>1264</ele>
        <time>2021-04-28T13:29:16Z</time>
      </trkpt>
      <trkpt lat="45.0191" lon="4.13857">
        <ele>1264</ele>
        <time>2021-04-28T13:29:17Z</time>
      </trkpt>
      <trkpt lat="45.01908" lon="4.13861">
        <ele>1265</ele>
        <time>2021-04-28T13:29:18Z</time>
      </trkpt>
      <trkpt lat="45.01903" lon="4.13868">
        <ele>1265</ele>
        <time>2021-04-28T13:29:19Z</time>
      </trkpt>
      <trkpt lat="45.019" lon="4.13873">
        <ele>1265</ele>
        <time>2021-04-28T13:29:21Z</time>
      </trkpt>
      <trkpt lat="45.01897" lon="4.13877">
        <ele>1265</ele>
        <time>2021-04-28T13:29:22Z</time>
      </trkpt>
      <trkpt lat="45.01894" lon="4.13881">
        <ele>1265</ele>
        <time>2021-04-28T13:29:23Z</time>
      </trkpt>
      <trkpt lat="45.01891" lon="4.13886">
        <ele>1265</ele>
        <time>2021-04-28T13:29:24Z</time>
      </trkpt>
      <trkpt lat="45.01888" lon="4.1389">
        <ele>1265</ele>
        <time>2021-04-28T13:29:25Z</time>
      </trkpt>
      <trkpt lat="45.01885" lon="4.13895">
        <ele>1265</ele>
        <time>2021-04-28T13:29:26Z</time>
      </trkpt>
      <trkpt lat="45.01883" lon="4.139">
        <ele>1265</ele>
        <time>2021-04-28T13:29:27Z</time>
      </trkpt>
      <trkpt lat="45.01881" lon="4.13905">
        <ele>1266</ele>
        <time>2021-04-28T13:29:28Z</time>
      </trkpt>
      <trkpt lat="45.01878" lon="4.13909">
        <ele>1266</ele>
        <time>2021-04-28T13:29:29Z</time>
      </trkpt>
      <trkpt lat="45.01875" lon="4.13913">
        <ele>1266</ele>
        <time>2021-04-28T13:29:30Z</time>
      </trkpt>
      <trkpt lat="45.01872" lon="4.13917">
        <ele>1266</ele>
        <time>2021-04-28T13:29:31Z</time>
      </trkpt>
      <trkpt lat="45.0187" lon="4.13921">
        <ele>1266</ele>
        <time>2021-04-28T13:29:32Z</time>
      </trkpt>
      <trkpt lat="45.01867" lon="4.13925">
        <ele>1267</ele>
        <time>2021-04-28T13:29:33Z</time>
      </trkpt>
      <trkpt lat="45.01864" lon="4.13929">
        <ele>1267</ele>
        <time>2021-04-28T13:29:34Z</time>
      </trkpt>
      <trkpt lat="45.01861" lon="4.13933">
        <ele>1267</ele>
        <time>2021-04-28T13:29:35Z</time>
      </trkpt>
      <trkpt lat="45.01859" lon="4.13937">
        <ele>1267</ele>
        <time>2021-04-28T13:29:36Z</time>
      </trkpt>
      <trkpt lat="45.01856" lon="4.13941">
        <ele>1267</ele>
        <time>2021-04-28T13:29:37Z</time>
      </trkpt>
      <trkpt lat="45.01852" lon="4.13946">
        <ele>1267</ele>
        <time>2021-04-28T13:29:38Z</time>
      </trkpt>
      <trkpt lat="45.01849" lon="4.13952">
        <ele>1267</ele>
        <time>2021-04-28T13:29:39Z</time>
      </trkpt>
      <trkpt lat="45.01846" lon="4.13958">
        <ele>1267</ele>
        <time>2021-04-28T13:29:40Z</time>
      </trkpt>
      <trkpt lat="45.01843" lon="4.13963">
        <ele>1267</ele>
        <time>2021-04-28T13:29:41Z</time>
      </trkpt>
      <trkpt lat="45.01841" lon="4.13968">
        <ele>1268</ele>
        <time>2021-04-28T13:29:42Z</time>
      </trkpt>
      <trkpt lat="45.01838" lon="4.13973">
        <ele>1268</ele>
        <time>2021-04-28T13:29:43Z</time>
      </trkpt>
      <trkpt lat="45.01836" lon="4.13978">
        <ele>1268</ele>
        <time>2021-04-28T13:29:44Z</time>
      </trkpt>
      <trkpt lat="45.01833" lon="4.13982">
        <ele>1268</ele>
        <time>2021-04-28T13:29:45Z</time>
      </trkpt>
      <trkpt lat="45.0183" lon="4.13987">
        <ele>1269</ele>
        <time>2021-04-28T13:29:46Z</time>
      </trkpt>
      <trkpt lat="45.01828" lon="4.13991">
        <ele>1269</ele>
        <time>2021-04-28T13:29:47Z</time>
      </trkpt>
      <trkpt lat="45.01826" lon="4.13996">
        <ele>1269</ele>
        <time>2021-04-28T13:29:48Z</time>
      </trkpt>
      <trkpt lat="45.01825" lon="4.14">
        <ele>1269</ele>
        <time>2021-04-28T13:29:49Z</time>
      </trkpt>
      <trkpt lat="45.01823" lon="4.14005">
        <ele>1269</ele>
        <time>2021-04-28T13:29:50Z</time>
      </trkpt>
      <trkpt lat="45.01821" lon="4.14008">
        <ele>1270</ele>
        <time>2021-04-28T13:29:51Z</time>
      </trkpt>
      <trkpt lat="45.01819" lon="4.1401">
        <ele>1270</ele>
        <time>2021-04-28T13:29:52Z</time>
      </trkpt>
      <trkpt lat="45.01817" lon="4.14012">
        <ele>1270</ele>
        <time>2021-04-28T13:29:53Z</time>
      </trkpt>
      <trkpt lat="45.01815" lon="4.14016">
        <ele>1270</ele>
        <time>2021-04-28T13:29:54Z</time>
      </trkpt>
      <trkpt lat="45.01812" lon="4.1402">
        <ele>1270</ele>
        <time>2021-04-28T13:29:55Z</time>
      </trkpt>
      <trkpt lat="45.01809" lon="4.14024">
        <ele>1270</ele>
        <time>2021-04-28T13:29:56Z</time>
      </trkpt>
      <trkpt lat="45.01806" lon="4.14027">
        <ele>1271</ele>
        <time>2021-04-28T13:29:57Z</time>
      </trkpt>
      <trkpt lat="45.01803" lon="4.14031">
        <ele>1271</ele>
        <time>2021-04-28T13:29:58Z</time>
      </trkpt>
      <trkpt lat="45.018" lon="4.14035">
        <ele>1271</ele>
        <time>2021-04-28T13:29:59Z</time>
      </trkpt>
      <trkpt lat="45.01797" lon="4.1404">
        <ele>1271</ele>
        <time>2021-04-28T13:30:00Z</time>
      </trkpt>
      <trkpt lat="45.01795" lon="4.14044">
        <ele>1271</ele>
        <time>2021-04-28T13:30:01Z</time>
      </trkpt>
      <trkpt lat="45.01792" lon="4.14049">
        <ele>1271</ele>
        <time>2021-04-28T13:30:02Z</time>
      </trkpt>
      <trkpt lat="45.0179" lon="4.14054">
        <ele>1271</ele>
        <time>2021-04-28T13:30:03Z</time>
      </trkpt>
      <trkpt lat="45.01787" lon="4.14058">
        <ele>1272</ele>
        <time>2021-04-28T13:30:04Z</time>
      </trkpt>
      <trkpt lat="45.01783" lon="4.14063">
        <ele>1272</ele>
        <time>2021-04-28T13:30:05Z</time>
      </trkpt>
      <trkpt lat="45.01781" lon="4.14069">
        <ele>1272</ele>
        <time>2021-04-28T13:30:06Z</time>
      </trkpt>
      <trkpt lat="45.01778" lon="4.14074">
        <ele>1272</ele>
        <time>2021-04-28T13:30:07Z</time>
      </trkpt>
      <trkpt lat="45.01775" lon="4.14079">
        <ele>1272</ele>
        <time>2021-04-28T13:30:08Z</time>
      </trkpt>
      <trkpt lat="45.01772" lon="4.14083">
        <ele>1272</ele>
        <time>2021-04-28T13:30:09Z</time>
      </trkpt>
      <trkpt lat="45.01769" lon="4.14087">
        <ele>1272</ele>
        <time>2021-04-28T13:30:10Z</time>
      </trkpt>
      <trkpt lat="45.01766" lon="4.14091">
        <ele>1272</ele>
        <time>2021-04-28T13:30:11Z</time>
      </trkpt>
      <trkpt lat="45.01763" lon="4.14096">
        <ele>1273</ele>
        <time>2021-04-28T13:30:12Z</time>
      </trkpt>
      <trkpt lat="45.0176" lon="4.14101">
        <ele>1273</ele>
        <time>2021-04-28T13:30:13Z</time>
      </trkpt>
      <trkpt lat="45.01758" lon="4.14106">
        <ele>1273</ele>
        <time>2021-04-28T13:30:14Z</time>
      </trkpt>
      <trkpt lat="45.01756" lon="4.14111">
        <ele>1273</ele>
        <time>2021-04-28T13:30:15Z</time>
      </trkpt>
      <trkpt lat="45.01753" lon="4.14116">
        <ele>1273</ele>
        <time>2021-04-28T13:30:16Z</time>
      </trkpt>
      <trkpt lat="45.0175" lon="4.14122">
        <ele>1273</ele>
        <time>2021-04-28T13:30:17Z</time>
      </trkpt>
      <trkpt lat="45.01747" lon="4.14128">
        <ele>1273</ele>
        <time>2021-04-28T13:30:18Z</time>
      </trkpt>
      <trkpt lat="45.01744" lon="4.14134">
        <ele>1274</ele>
        <time>2021-04-28T13:30:19Z</time>
      </trkpt>
      <trkpt lat="45.01741" lon="4.1414">
        <ele>1274</ele>
        <time>2021-04-28T13:30:20Z</time>
      </trkpt>
      <trkpt lat="45.01738" lon="4.14145">
        <ele>1274</ele>
        <time>2021-04-28T13:30:21Z</time>
      </trkpt>
      <trkpt lat="45.01736" lon="4.14151">
        <ele>1274</ele>
        <time>2021-04-28T13:30:22Z</time>
      </trkpt>
      <trkpt lat="45.01734" lon="4.14156">
        <ele>1274</ele>
        <time>2021-04-28T13:30:23Z</time>
      </trkpt>
      <trkpt lat="45.01732" lon="4.14162">
        <ele>1274</ele>
        <time>2021-04-28T13:30:24Z</time>
      </trkpt>
      <trkpt lat="45.01731" lon="4.14169">
        <ele>1274</ele>
        <time>2021-04-28T13:30:25Z</time>
      </trkpt>
      <trkpt lat="45.0173" lon="4.14176">
        <ele>1274</ele>
        <time>2021-04-28T13:30:26Z</time>
      </trkpt>
      <trkpt lat="45.01729" lon="4.14183">
        <ele>1274</ele>
        <time>2021-04-28T13:30:27Z</time>
      </trkpt>
      <trkpt lat="45.01729" lon="4.1419">
        <ele>1274</ele>
        <time>2021-04-28T13:30:28Z</time>
      </trkpt>
      <trkpt lat="45.01729" lon="4.14198">
        <ele>1274</ele>
        <time>2021-04-28T13:30:29Z</time>
      </trkpt>
      <trkpt lat="45.01729" lon="4.14205">
        <ele>1274</ele>
        <time>2021-04-28T13:30:30Z</time>
      </trkpt>
      <trkpt lat="45.01729" lon="4.14212">
        <ele>1274</ele>
        <time>2021-04-28T13:30:31Z</time>
      </trkpt>
      <trkpt lat="45.01729" lon="4.14218">
        <ele>1274</ele>
        <time>2021-04-28T13:30:32Z</time>
      </trkpt>
      <trkpt lat="45.01728" lon="4.14225">
        <ele>1274</ele>
        <time>2021-04-28T13:30:33Z</time>
      </trkpt>
      <trkpt lat="45.01727" lon="4.14231">
        <ele>1274</ele>
        <time>2021-04-28T13:30:34Z</time>
      </trkpt>
      <trkpt lat="45.01726" lon="4.14237">
        <ele>1274</ele>
        <time>2021-04-28T13:30:35Z</time>
      </trkpt>
      <trkpt lat="45.01726" lon="4.14242">
        <ele>1274</ele>
        <time>2021-04-28T13:30:36Z</time>
      </trkpt>
      <trkpt lat="45.01726" lon="4.14248">
        <ele>1274</ele>
        <time>2021-04-28T13:30:37Z</time>
      </trkpt>
      <trkpt lat="45.01727" lon="4.14254">
        <ele>1274</ele>
        <time>2021-04-28T13:30:38Z</time>
      </trkpt>
      <trkpt lat="45.01726" lon="4.1426">
        <ele>1274</ele>
        <time>2021-04-28T13:30:39Z</time>
      </trkpt>
      <trkpt lat="45.01726" lon="4.14265">
        <ele>1274</ele>
        <time>2021-04-28T13:30:40Z</time>
      </trkpt>
      <trkpt lat="45.01726" lon="4.14271">
        <ele>1274</ele>
        <time>2021-04-28T13:30:41Z</time>
      </trkpt>
      <trkpt lat="45.01727" lon="4.14277">
        <ele>1275</ele>
        <time>2021-04-28T13:30:42Z</time>
      </trkpt>
      <trkpt lat="45.01727" lon="4.14284">
        <ele>1275</ele>
        <time>2021-04-28T13:30:43Z</time>
      </trkpt>
      <trkpt lat="45.01728" lon="4.1429">
        <ele>1275</ele>
        <time>2021-04-28T13:30:44Z</time>
      </trkpt>
      <trkpt lat="45.01728" lon="4.14296">
        <ele>1275</ele>
        <time>2021-04-28T13:30:45Z</time>
      </trkpt>
      <trkpt lat="45.01728" lon="4.14303">
        <ele>1275</ele>
        <time>2021-04-28T13:30:46Z</time>
      </trkpt>
      <trkpt lat="45.01728" lon="4.1431">
        <ele>1275</ele>
        <time>2021-04-28T13:30:47Z</time>
      </trkpt>
      <trkpt lat="45.01728" lon="4.14317">
        <ele>1275</ele>
        <time>2021-04-28T13:30:48Z</time>
      </trkpt>
      <trkpt lat="45.01729" lon="4.14325">
        <ele>1275</ele>
        <time>2021-04-28T13:30:49Z</time>
      </trkpt>
      <trkpt lat="45.01729" lon="4.14332">
        <ele>1275</ele>
        <time>2021-04-28T13:30:50Z</time>
      </trkpt>
      <trkpt lat="45.0173" lon="4.1434">
        <ele>1275</ele>
        <time>2021-04-28T13:30:51Z</time>
      </trkpt>
      <trkpt lat="45.01731" lon="4.14347">
        <ele>1276</ele>
        <time>2021-04-28T13:30:52Z</time>
      </trkpt>
      <trkpt lat="45.01732" lon="4.14354">
        <ele>1276</ele>
        <time>2021-04-28T13:30:53Z</time>
      </trkpt>
      <trkpt lat="45.01733" lon="4.14361">
        <ele>1276</ele>
        <time>2021-04-28T13:30:54Z</time>
      </trkpt>
      <trkpt lat="45.01734" lon="4.14368">
        <ele>1276</ele>
        <time>2021-04-28T13:30:55Z</time>
      </trkpt>
      <trkpt lat="45.01735" lon="4.14374">
        <ele>1276</ele>
        <time>2021-04-28T13:30:56Z</time>
      </trkpt>
      <trkpt lat="45.01737" lon="4.1438">
        <ele>1276</ele>
        <time>2021-04-28T13:30:57Z</time>
      </trkpt>
      <trkpt lat="45.01737" lon="4.14386">
        <ele>1276</ele>
        <time>2021-04-28T13:30:58Z</time>
      </trkpt>
      <trkpt lat="45.01737" lon="4.14392">
        <ele>1276</ele>
        <time>2021-04-28T13:30:59Z</time>
      </trkpt>
      <trkpt lat="45.01737" lon="4.14399">
        <ele>1276</ele>
        <time>2021-04-28T13:31:00Z</time>
      </trkpt>
      <trkpt lat="45.01737" lon="4.14405">
        <ele>1276</ele>
        <time>2021-04-28T13:31:01Z</time>
      </trkpt>
      <trkpt lat="45.01738" lon="4.14412">
        <ele>1276</ele>
        <time>2021-04-28T13:31:02Z</time>
      </trkpt>
      <trkpt lat="45.01738" lon="4.14418">
        <ele>1276</ele>
        <time>2021-04-28T13:31:03Z</time>
      </trkpt>
      <trkpt lat="45.01738" lon="4.14424">
        <ele>1276</ele>
        <time>2021-04-28T13:31:04Z</time>
      </trkpt>
      <trkpt lat="45.01737" lon="4.1443">
        <ele>1276</ele>
        <time>2021-04-28T13:31:05Z</time>
      </trkpt>
      <trkpt lat="45.01735" lon="4.14435">
        <ele>1277</ele>
        <time>2021-04-28T13:31:06Z</time>
      </trkpt>
      <trkpt lat="45.01735" lon="4.14441">
        <ele>1277</ele>
        <time>2021-04-28T13:31:07Z</time>
      </trkpt>
      <trkpt lat="45.01734" lon="4.14446">
        <ele>1277</ele>
        <time>2021-04-28T13:31:08Z</time>
      </trkpt>
      <trkpt lat="45.01734" lon="4.14453">
        <ele>1277</ele>
        <time>2021-04-28T13:31:09Z</time>
      </trkpt>
      <trkpt lat="45.01734" lon="4.14459">
        <ele>1277</ele>
        <time>2021-04-28T13:31:10Z</time>
      </trkpt>
      <trkpt lat="45.01734" lon="4.14465">
        <ele>1277</ele>
        <time>2021-04-28T13:31:11Z</time>
      </trkpt>
      <trkpt lat="45.01734" lon="4.14471">
        <ele>1277</ele>
        <time>2021-04-28T13:31:12Z</time>
      </trkpt>
      <trkpt lat="45.01734" lon="4.14483">
        <ele>1277</ele>
        <time>2021-04-28T13:31:13Z</time>
      </trkpt>
      <trkpt lat="45.01733" lon="4.14489">
        <ele>1277</ele>
        <time>2021-04-28T13:31:15Z</time>
      </trkpt>
      <trkpt lat="45.01732" lon="4.14495">
        <ele>1277</ele>
        <time>2021-04-28T13:31:16Z</time>
      </trkpt>
      <trkpt lat="45.01732" lon="4.14501">
        <ele>1277</ele>
        <time>2021-04-28T13:31:17Z</time>
      </trkpt>
      <trkpt lat="45.01732" lon="4.14507">
        <ele>1277</ele>
        <time>2021-04-28T13:31:18Z</time>
      </trkpt>
      <trkpt lat="45.01731" lon="4.14514">
        <ele>1277</ele>
        <time>2021-04-28T13:31:19Z</time>
      </trkpt>
      <trkpt lat="45.0173" lon="4.1452">
        <ele>1277</ele>
        <time>2021-04-28T13:31:20Z</time>
      </trkpt>
      <trkpt lat="45.01729" lon="4.14527">
        <ele>1277</ele>
        <time>2021-04-28T13:31:21Z</time>
      </trkpt>
      <trkpt lat="45.01727" lon="4.14533">
        <ele>1277</ele>
        <time>2021-04-28T13:31:22Z</time>
      </trkpt>
      <trkpt lat="45.01727" lon="4.14538">
        <ele>1277</ele>
        <time>2021-04-28T13:31:23Z</time>
      </trkpt>
      <trkpt lat="45.01727" lon="4.14543">
        <ele>1277</ele>
        <time>2021-04-28T13:31:24Z</time>
      </trkpt>
      <trkpt lat="45.01727" lon="4.14549">
        <ele>1277</ele>
        <time>2021-04-28T13:31:25Z</time>
      </trkpt>
      <trkpt lat="45.01727" lon="4.14554">
        <ele>1277</ele>
        <time>2021-04-28T13:31:26Z</time>
      </trkpt>
      <trkpt lat="45.01726" lon="4.1456">
        <ele>1277</ele>
        <time>2021-04-28T13:31:27Z</time>
      </trkpt>
      <trkpt lat="45.01725" lon="4.14567">
        <ele>1277</ele>
        <time>2021-04-28T13:31:28Z</time>
      </trkpt>
      <trkpt lat="45.01724" lon="4.14573">
        <ele>1277</ele>
        <time>2021-04-28T13:31:29Z</time>
      </trkpt>
      <trkpt lat="45.01723" lon="4.14579">
        <ele>1277</ele>
        <time>2021-04-28T13:31:30Z</time>
      </trkpt>
      <trkpt lat="45.01722" lon="4.14586">
        <ele>1277</ele>
        <time>2021-04-28T13:31:31Z</time>
      </trkpt>
      <trkpt lat="45.01721" lon="4.14592">
        <ele>1277</ele>
        <time>2021-04-28T13:31:32Z</time>
      </trkpt>
      <trkpt lat="45.0172" lon="4.14599">
        <ele>1277</ele>
        <time>2021-04-28T13:31:33Z</time>
      </trkpt>
      <trkpt lat="45.01719" lon="4.14605">
        <ele>1278</ele>
        <time>2021-04-28T13:31:34Z</time>
      </trkpt>
      <trkpt lat="45.01718" lon="4.14612">
        <ele>1278</ele>
        <time>2021-04-28T13:31:35Z</time>
      </trkpt>
      <trkpt lat="45.01716" lon="4.14619">
        <ele>1278</ele>
        <time>2021-04-28T13:31:36Z</time>
      </trkpt>
      <trkpt lat="45.01715" lon="4.14625">
        <ele>1278</ele>
        <time>2021-04-28T13:31:37Z</time>
      </trkpt>
      <trkpt lat="45.01713" lon="4.14632">
        <ele>1278</ele>
        <time>2021-04-28T13:31:38Z</time>
      </trkpt>
      <trkpt lat="45.01712" lon="4.14639">
        <ele>1277</ele>
        <time>2021-04-28T13:31:39Z</time>
      </trkpt>
      <trkpt lat="45.0171" lon="4.14645">
        <ele>1277</ele>
        <time>2021-04-28T13:31:40Z</time>
      </trkpt>
      <trkpt lat="45.01708" lon="4.14652">
        <ele>1278</ele>
        <time>2021-04-28T13:31:41Z</time>
      </trkpt>
      <trkpt lat="45.01706" lon="4.14658">
        <ele>1278</ele>
        <time>2021-04-28T13:31:42Z</time>
      </trkpt>
      <trkpt lat="45.01704" lon="4.14664">
        <ele>1278</ele>
        <time>2021-04-28T13:31:43Z</time>
      </trkpt>
      <trkpt lat="45.01702" lon="4.1467">
        <ele>1277</ele>
        <time>2021-04-28T13:31:44Z</time>
      </trkpt>
      <trkpt lat="45.01699" lon="4.14677">
        <ele>1277</ele>
        <time>2021-04-28T13:31:45Z</time>
      </trkpt>
      <trkpt lat="45.01697" lon="4.14683">
        <ele>1277</ele>
        <time>2021-04-28T13:31:46Z</time>
      </trkpt>
      <trkpt lat="45.01695" lon="4.14689">
        <ele>1278</ele>
        <time>2021-04-28T13:31:47Z</time>
      </trkpt>
      <trkpt lat="45.01693" lon="4.14695">
        <ele>1277</ele>
        <time>2021-04-28T13:31:48Z</time>
      </trkpt>
      <trkpt lat="45.01691" lon="4.14702">
        <ele>1277</ele>
        <time>2021-04-28T13:31:49Z</time>
      </trkpt>
      <trkpt lat="45.01689" lon="4.14709">
        <ele>1277</ele>
        <time>2021-04-28T13:31:50Z</time>
      </trkpt>
      <trkpt lat="45.01687" lon="4.14716">
        <ele>1277</ele>
        <time>2021-04-28T13:31:51Z</time>
      </trkpt>
      <trkpt lat="45.01685" lon="4.14723">
        <ele>1277</ele>
        <time>2021-04-28T13:31:52Z</time>
      </trkpt>
      <trkpt lat="45.01684" lon="4.1473">
        <ele>1277</ele>
        <time>2021-04-28T13:31:53Z</time>
      </trkpt>
      <trkpt lat="45.01682" lon="4.14738">
        <ele>1277</ele>
        <time>2021-04-28T13:31:54Z</time>
      </trkpt>
      <trkpt lat="45.01681" lon="4.14745">
        <ele>1278</ele>
        <time>2021-04-28T13:31:55Z</time>
      </trkpt>
      <trkpt lat="45.01678" lon="4.14761">
        <ele>1278</ele>
        <time>2021-04-28T13:31:56Z</time>
      </trkpt>
      <trkpt lat="45.01677" lon="4.14768">
        <ele>1278</ele>
        <time>2021-04-28T13:31:58Z</time>
      </trkpt>
      <trkpt lat="45.01675" lon="4.14776">
        <ele>1278</ele>
        <time>2021-04-28T13:31:59Z</time>
      </trkpt>
      <trkpt lat="45.01674" lon="4.14784">
        <ele>1277</ele>
        <time>2021-04-28T13:32:00Z</time>
      </trkpt>
      <trkpt lat="45.01672" lon="4.14791">
        <ele>1277</ele>
        <time>2021-04-28T13:32:01Z</time>
      </trkpt>
      <trkpt lat="45.01671" lon="4.14799">
        <ele>1277</ele>
        <time>2021-04-28T13:32:02Z</time>
      </trkpt>
      <trkpt lat="45.0167" lon="4.14807">
        <ele>1277</ele>
        <time>2021-04-28T13:32:03Z</time>
      </trkpt>
      <trkpt lat="45.01669" lon="4.14815">
        <ele>1277</ele>
        <time>2021-04-28T13:32:04Z</time>
      </trkpt>
      <trkpt lat="45.01667" lon="4.14823">
        <ele>1278</ele>
        <time>2021-04-28T13:32:05Z</time>
      </trkpt>
      <trkpt lat="45.01666" lon="4.1483">
        <ele>1278</ele>
        <time>2021-04-28T13:32:06Z</time>
      </trkpt>
      <trkpt lat="45.01664" lon="4.14838">
        <ele>1278</ele>
        <time>2021-04-28T13:32:07Z</time>
      </trkpt>
      <trkpt lat="45.01662" lon="4.14845">
        <ele>1278</ele>
        <time>2021-04-28T13:32:08Z</time>
      </trkpt>
      <trkpt lat="45.0166" lon="4.14852">
        <ele>1278</ele>
        <time>2021-04-28T13:32:09Z</time>
      </trkpt>
      <trkpt lat="45.01654" lon="4.14865">
        <ele>1278</ele>
        <time>2021-04-28T13:32:10Z</time>
      </trkpt>
      <trkpt lat="45.0165" lon="4.14871">
        <ele>1278</ele>
        <time>2021-04-28T13:32:12Z</time>
      </trkpt>
      <trkpt lat="45.01645" lon="4.14876">
        <ele>1278</ele>
        <time>2021-04-28T13:32:13Z</time>
      </trkpt>
      <trkpt lat="45.01641" lon="4.14881">
        <ele>1278</ele>
        <time>2021-04-28T13:32:14Z</time>
      </trkpt>
      <trkpt lat="45.01636" lon="4.14885">
        <ele>1278</ele>
        <time>2021-04-28T13:32:15Z</time>
      </trkpt>
      <trkpt lat="45.01631" lon="4.14888">
        <ele>1278</ele>
        <time>2021-04-28T13:32:16Z</time>
      </trkpt>
      <trkpt lat="45.01625" lon="4.14891">
        <ele>1278</ele>
        <time>2021-04-28T13:32:17Z</time>
      </trkpt>
      <trkpt lat="45.0162" lon="4.14894">
        <ele>1278</ele>
        <time>2021-04-28T13:32:18Z</time>
      </trkpt>
      <trkpt lat="45.01615" lon="4.14898">
        <ele>1278</ele>
        <time>2021-04-28T13:32:19Z</time>
      </trkpt>
      <trkpt lat="45.0161" lon="4.14902">
        <ele>1279</ele>
        <time>2021-04-28T13:32:20Z</time>
      </trkpt>
      <trkpt lat="45.01605" lon="4.14905">
        <ele>1279</ele>
        <time>2021-04-28T13:32:21Z</time>
      </trkpt>
      <trkpt lat="45.01601" lon="4.1491">
        <ele>1279</ele>
        <time>2021-04-28T13:32:22Z</time>
      </trkpt>
      <trkpt lat="45.01597" lon="4.14915">
        <ele>1279</ele>
        <time>2021-04-28T13:32:23Z</time>
      </trkpt>
      <trkpt lat="45.01595" lon="4.14921">
        <ele>1279</ele>
        <time>2021-04-28T13:32:24Z</time>
      </trkpt>
      <trkpt lat="45.01596" lon="4.14928">
        <ele>1279</ele>
        <time>2021-04-28T13:32:25Z</time>
      </trkpt>
      <trkpt lat="45.01598" lon="4.14934">
        <ele>1280</ele>
        <time>2021-04-28T13:32:26Z</time>
      </trkpt>
      <trkpt lat="45.01601" lon="4.1494">
        <ele>1280</ele>
        <time>2021-04-28T13:32:27Z</time>
      </trkpt>
      <trkpt lat="45.01604" lon="4.14946">
        <ele>1280</ele>
        <time>2021-04-28T13:32:28Z</time>
      </trkpt>
      <trkpt lat="45.01609" lon="4.14958">
        <ele>1280</ele>
        <time>2021-04-28T13:32:29Z</time>
      </trkpt>
      <trkpt lat="45.01612" lon="4.14964">
        <ele>1281</ele>
        <time>2021-04-28T13:32:31Z</time>
      </trkpt>
      <trkpt lat="45.01615" lon="4.1497">
        <ele>1281</ele>
        <time>2021-04-28T13:32:32Z</time>
      </trkpt>
      <trkpt lat="45.01617" lon="4.14976">
        <ele>1281</ele>
        <time>2021-04-28T13:32:33Z</time>
      </trkpt>
      <trkpt lat="45.0162" lon="4.14982">
        <ele>1281</ele>
        <time>2021-04-28T13:32:34Z</time>
      </trkpt>
      <trkpt lat="45.01622" lon="4.14988">
        <ele>1282</ele>
        <time>2021-04-28T13:32:35Z</time>
      </trkpt>
      <trkpt lat="45.01624" lon="4.14994">
        <ele>1282</ele>
        <time>2021-04-28T13:32:36Z</time>
      </trkpt>
      <trkpt lat="45.01626" lon="4.14998">
        <ele>1282</ele>
        <time>2021-04-28T13:32:37Z</time>
      </trkpt>
      <trkpt lat="45.01624" lon="4.15003">
        <ele>1281</ele>
        <time>2021-04-28T13:32:39Z</time>
      </trkpt>
      <trkpt lat="45.01621" lon="4.15006">
        <ele>1281</ele>
        <time>2021-04-28T13:32:40Z</time>
      </trkpt>
      <trkpt lat="45.01617" lon="4.15008">
        <ele>1281</ele>
        <time>2021-04-28T13:32:41Z</time>
      </trkpt>
      <trkpt lat="45.01613" lon="4.15008">
        <ele>1282</ele>
        <time>2021-04-28T13:32:42Z</time>
      </trkpt>
      <trkpt lat="45.0161" lon="4.15008">
        <ele>1282</ele>
        <time>2021-04-28T13:32:43Z</time>
      </trkpt>
      <trkpt lat="45.01607" lon="4.15009">
        <ele>1282</ele>
        <time>2021-04-28T13:32:44Z</time>
      </trkpt>
      <trkpt lat="45.01603" lon="4.15009">
        <ele>1282</ele>
        <time>2021-04-28T13:32:45Z</time>
      </trkpt>
      <trkpt lat="45.01599" lon="4.1501">
        <ele>1282</ele>
        <time>2021-04-28T13:32:46Z</time>
      </trkpt>
      <trkpt lat="45.01595" lon="4.15011">
        <ele>1282</ele>
        <time>2021-04-28T13:32:47Z</time>
      </trkpt>
      <trkpt lat="45.01587" lon="4.15012">
        <ele>1282</ele>
        <time>2021-04-28T13:32:48Z</time>
      </trkpt>
      <trkpt lat="45.01583" lon="4.15013">
        <ele>1282</ele>
        <time>2021-04-28T13:32:50Z</time>
      </trkpt>
      <trkpt lat="45.01579" lon="4.15013">
        <ele>1282</ele>
        <time>2021-04-28T13:32:51Z</time>
      </trkpt>
      <trkpt lat="45.01575" lon="4.15015">
        <ele>1282</ele>
        <time>2021-04-28T13:32:52Z</time>
      </trkpt>
      <trkpt lat="45.01571" lon="4.15017">
        <ele>1282</ele>
        <time>2021-04-28T13:32:53Z</time>
      </trkpt>
      <trkpt lat="45.01567" lon="4.15018">
        <ele>1282</ele>
        <time>2021-04-28T13:32:54Z</time>
      </trkpt>
      <trkpt lat="45.01562" lon="4.1502">
        <ele>1282</ele>
        <time>2021-04-28T13:32:55Z</time>
      </trkpt>
      <trkpt lat="45.01558" lon="4.15021">
        <ele>1283</ele>
        <time>2021-04-28T13:32:56Z</time>
      </trkpt>
      <trkpt lat="45.01554" lon="4.15023">
        <ele>1283</ele>
        <time>2021-04-28T13:32:57Z</time>
      </trkpt>
      <trkpt lat="45.0155" lon="4.15025">
        <ele>1283</ele>
        <time>2021-04-28T13:32:58Z</time>
      </trkpt>
      <trkpt lat="45.01546" lon="4.15027">
        <ele>1283</ele>
        <time>2021-04-28T13:32:59Z</time>
      </trkpt>
      <trkpt lat="45.01542" lon="4.15028">
        <ele>1283</ele>
        <time>2021-04-28T13:33:00Z</time>
      </trkpt>
      <trkpt lat="45.01538" lon="4.1503">
        <ele>1283</ele>
        <time>2021-04-28T13:33:01Z</time>
      </trkpt>
      <trkpt lat="45.01533" lon="4.15032">
        <ele>1283</ele>
        <time>2021-04-28T13:33:02Z</time>
      </trkpt>
      <trkpt lat="45.01528" lon="4.15032">
        <ele>1283</ele>
        <time>2021-04-28T13:33:03Z</time>
      </trkpt>
      <trkpt lat="45.01524" lon="4.15033">
        <ele>1283</ele>
        <time>2021-04-28T13:33:04Z</time>
      </trkpt>
      <trkpt lat="45.01519" lon="4.15033">
        <ele>1283</ele>
        <time>2021-04-28T13:33:05Z</time>
      </trkpt>
      <trkpt lat="45.01515" lon="4.15035">
        <ele>1283</ele>
        <time>2021-04-28T13:33:06Z</time>
      </trkpt>
      <trkpt lat="45.01511" lon="4.15037">
        <ele>1283</ele>
        <time>2021-04-28T13:33:07Z</time>
      </trkpt>
      <trkpt lat="45.01506" lon="4.15039">
        <ele>1283</ele>
        <time>2021-04-28T13:33:08Z</time>
      </trkpt>
      <trkpt lat="45.01502" lon="4.1504">
        <ele>1283</ele>
        <time>2021-04-28T13:33:09Z</time>
      </trkpt>
      <trkpt lat="45.01498" lon="4.15042">
        <ele>1283</ele>
        <time>2021-04-28T13:33:10Z</time>
      </trkpt>
      <trkpt lat="45.01493" lon="4.15043">
        <ele>1283</ele>
        <time>2021-04-28T13:33:11Z</time>
      </trkpt>
      <trkpt lat="45.01488" lon="4.15044">
        <ele>1283</ele>
        <time>2021-04-28T13:33:12Z</time>
      </trkpt>
      <trkpt lat="45.01483" lon="4.15045">
        <ele>1283</ele>
        <time>2021-04-28T13:33:13Z</time>
      </trkpt>
      <trkpt lat="45.01478" lon="4.15046">
        <ele>1283</ele>
        <time>2021-04-28T13:33:14Z</time>
      </trkpt>
      <trkpt lat="45.01473" lon="4.15047">
        <ele>1283</ele>
        <time>2021-04-28T13:33:15Z</time>
      </trkpt>
      <trkpt lat="45.01468" lon="4.15047">
        <ele>1283</ele>
        <time>2021-04-28T13:33:16Z</time>
      </trkpt>
      <trkpt lat="45.01463" lon="4.15046">
        <ele>1283</ele>
        <time>2021-04-28T13:33:17Z</time>
      </trkpt>
      <trkpt lat="45.01458" lon="4.15046">
        <ele>1283</ele>
        <time>2021-04-28T13:33:18Z</time>
      </trkpt>
      <trkpt lat="45.01453" lon="4.15047">
        <ele>1283</ele>
        <time>2021-04-28T13:33:19Z</time>
      </trkpt>
      <trkpt lat="45.01449" lon="4.15047">
        <ele>1283</ele>
        <time>2021-04-28T13:33:20Z</time>
      </trkpt>
      <trkpt lat="45.01444" lon="4.15048">
        <ele>1284</ele>
        <time>2021-04-28T13:33:21Z</time>
      </trkpt>
      <trkpt lat="45.01439" lon="4.15048">
        <ele>1284</ele>
        <time>2021-04-28T13:33:22Z</time>
      </trkpt>
      <trkpt lat="45.01434" lon="4.15049">
        <ele>1284</ele>
        <time>2021-04-28T13:33:23Z</time>
      </trkpt>
      <trkpt lat="45.01428" lon="4.15051">
        <ele>1284</ele>
        <time>2021-04-28T13:33:24Z</time>
      </trkpt>
      <trkpt lat="45.01423" lon="4.15053">
        <ele>1284</ele>
        <time>2021-04-28T13:33:25Z</time>
      </trkpt>
      <trkpt lat="45.01418" lon="4.15054">
        <ele>1284</ele>
        <time>2021-04-28T13:33:26Z</time>
      </trkpt>
      <trkpt lat="45.01413" lon="4.15054">
        <ele>1284</ele>
        <time>2021-04-28T13:33:27Z</time>
      </trkpt>
      <trkpt lat="45.01408" lon="4.15054">
        <ele>1284</ele>
        <time>2021-04-28T13:33:28Z</time>
      </trkpt>
      <trkpt lat="45.01402" lon="4.15054">
        <ele>1284</ele>
        <time>2021-04-28T13:33:29Z</time>
      </trkpt>
      <trkpt lat="45.01397" lon="4.15055">
        <ele>1284</ele>
        <time>2021-04-28T13:33:30Z</time>
      </trkpt>
      <trkpt lat="45.01392" lon="4.15056">
        <ele>1284</ele>
        <time>2021-04-28T13:33:31Z</time>
      </trkpt>
      <trkpt lat="45.01387" lon="4.15057">
        <ele>1284</ele>
        <time>2021-04-28T13:33:32Z</time>
      </trkpt>
      <trkpt lat="45.01381" lon="4.15058">
        <ele>1284</ele>
        <time>2021-04-28T13:33:33Z</time>
      </trkpt>
      <trkpt lat="45.01375" lon="4.15057">
        <ele>1284</ele>
        <time>2021-04-28T13:33:34Z</time>
      </trkpt>
      <trkpt lat="45.0137" lon="4.15057">
        <ele>1284</ele>
        <time>2021-04-28T13:33:35Z</time>
      </trkpt>
      <trkpt lat="45.01365" lon="4.15058">
        <ele>1285</ele>
        <time>2021-04-28T13:33:36Z</time>
      </trkpt>
      <trkpt lat="45.0136" lon="4.1506">
        <ele>1285</ele>
        <time>2021-04-28T13:33:37Z</time>
      </trkpt>
      <trkpt lat="45.01354" lon="4.15062">
        <ele>1285</ele>
        <time>2021-04-28T13:33:38Z</time>
      </trkpt>
      <trkpt lat="45.01348" lon="4.15063">
        <ele>1285</ele>
        <time>2021-04-28T13:33:39Z</time>
      </trkpt>
      <trkpt lat="45.01341" lon="4.15064">
        <ele>1284</ele>
        <time>2021-04-28T13:33:40Z</time>
      </trkpt>
      <trkpt lat="45.01335" lon="4.15065">
        <ele>1284</ele>
        <time>2021-04-28T13:33:41Z</time>
      </trkpt>
      <trkpt lat="45.01329" lon="4.15065">
        <ele>1284</ele>
        <time>2021-04-28T13:33:42Z</time>
      </trkpt>
      <trkpt lat="45.01323" lon="4.15065">
        <ele>1284</ele>
        <time>2021-04-28T13:33:43Z</time>
      </trkpt>
      <trkpt lat="45.01317" lon="4.15065">
        <ele>1284</ele>
        <time>2021-04-28T13:33:44Z</time>
      </trkpt>
      <trkpt lat="45.01305" lon="4.15066">
        <ele>1284</ele>
        <time>2021-04-28T13:33:45Z</time>
      </trkpt>
      <trkpt lat="45.013" lon="4.15068">
        <ele>1284</ele>
        <time>2021-04-28T13:33:47Z</time>
      </trkpt>
      <trkpt lat="45.01294" lon="4.15069">
        <ele>1284</ele>
        <time>2021-04-28T13:33:48Z</time>
      </trkpt>
      <trkpt lat="45.01289" lon="4.15069">
        <ele>1284</ele>
        <time>2021-04-28T13:33:49Z</time>
      </trkpt>
      <trkpt lat="45.01283" lon="4.15068">
        <ele>1284</ele>
        <time>2021-04-28T13:33:50Z</time>
      </trkpt>
      <trkpt lat="45.01278" lon="4.15068">
        <ele>1284</ele>
        <time>2021-04-28T13:33:51Z</time>
      </trkpt>
      <trkpt lat="45.01273" lon="4.15067">
        <ele>1284</ele>
        <time>2021-04-28T13:33:52Z</time>
      </trkpt>
      <trkpt lat="45.01268" lon="4.15067">
        <ele>1284</ele>
        <time>2021-04-28T13:33:53Z</time>
      </trkpt>
      <trkpt lat="45.01263" lon="4.15068">
        <ele>1284</ele>
        <time>2021-04-28T13:33:54Z</time>
      </trkpt>
      <trkpt lat="45.01258" lon="4.15069">
        <ele>1284</ele>
        <time>2021-04-28T13:33:55Z</time>
      </trkpt>
      <trkpt lat="45.01253" lon="4.15071">
        <ele>1284</ele>
        <time>2021-04-28T13:33:56Z</time>
      </trkpt>
      <trkpt lat="45.01248" lon="4.15072">
        <ele>1284</ele>
        <time>2021-04-28T13:33:57Z</time>
      </trkpt>
      <trkpt lat="45.01242" lon="4.15074">
        <ele>1284</ele>
        <time>2021-04-28T13:33:58Z</time>
      </trkpt>
      <trkpt lat="45.01236" lon="4.15075">
        <ele>1284</ele>
        <time>2021-04-28T13:33:59Z</time>
      </trkpt>
      <trkpt lat="45.01231" lon="4.15075">
        <ele>1284</ele>
        <time>2021-04-28T13:34:00Z</time>
      </trkpt>
      <trkpt lat="45.01225" lon="4.15075">
        <ele>1284</ele>
        <time>2021-04-28T13:34:01Z</time>
      </trkpt>
      <trkpt lat="45.01219" lon="4.15076">
        <ele>1284</ele>
        <time>2021-04-28T13:34:02Z</time>
      </trkpt>
      <trkpt lat="45.01213" lon="4.15077">
        <ele>1284</ele>
        <time>2021-04-28T13:34:03Z</time>
      </trkpt>
      <trkpt lat="45.01207" lon="4.15077">
        <ele>1284</ele>
        <time>2021-04-28T13:34:04Z</time>
      </trkpt>
      <trkpt lat="45.01201" lon="4.15078">
        <ele>1284</ele>
        <time>2021-04-28T13:34:05Z</time>
      </trkpt>
      <trkpt lat="45.01195" lon="4.15078">
        <ele>1284</ele>
        <time>2021-04-28T13:34:06Z</time>
      </trkpt>
      <trkpt lat="45.01189" lon="4.15078">
        <ele>1284</ele>
        <time>2021-04-28T13:34:07Z</time>
      </trkpt>
      <trkpt lat="45.01183" lon="4.15078">
        <ele>1284</ele>
        <time>2021-04-28T13:34:08Z</time>
      </trkpt>
      <trkpt lat="45.01177" lon="4.1508">
        <ele>1284</ele>
        <time>2021-04-28T13:34:09Z</time>
      </trkpt>
      <trkpt lat="45.01172" lon="4.15083">
        <ele>1284</ele>
        <time>2021-04-28T13:34:10Z</time>
      </trkpt>
      <trkpt lat="45.01166" lon="4.15085">
        <ele>1283</ele>
        <time>2021-04-28T13:34:11Z</time>
      </trkpt>
      <trkpt lat="45.0116" lon="4.15086">
        <ele>1283</ele>
        <time>2021-04-28T13:34:12Z</time>
      </trkpt>
      <trkpt lat="45.01153" lon="4.15087">
        <ele>1283</ele>
        <time>2021-04-28T13:34:13Z</time>
      </trkpt>
      <trkpt lat="45.01147" lon="4.15088">
        <ele>1283</ele>
        <time>2021-04-28T13:34:14Z</time>
      </trkpt>
      <trkpt lat="45.01141" lon="4.15088">
        <ele>1283</ele>
        <time>2021-04-28T13:34:15Z</time>
      </trkpt>
      <trkpt lat="45.01136" lon="4.15088">
        <ele>1283</ele>
        <time>2021-04-28T13:34:16Z</time>
      </trkpt>
      <trkpt lat="45.0113" lon="4.15088">
        <ele>1283</ele>
        <time>2021-04-28T13:34:17Z</time>
      </trkpt>
      <trkpt lat="45.01124" lon="4.15088">
        <ele>1283</ele>
        <time>2021-04-28T13:34:18Z</time>
      </trkpt>
      <trkpt lat="45.01117" lon="4.15088">
        <ele>1283</ele>
        <time>2021-04-28T13:34:19Z</time>
      </trkpt>
      <trkpt lat="45.01111" lon="4.15088">
        <ele>1283</ele>
        <time>2021-04-28T13:34:20Z</time>
      </trkpt>
      <trkpt lat="45.01105" lon="4.15086">
        <ele>1283</ele>
        <time>2021-04-28T13:34:21Z</time>
      </trkpt>
      <trkpt lat="45.01098" lon="4.15084">
        <ele>1283</ele>
        <time>2021-04-28T13:34:22Z</time>
      </trkpt>
      <trkpt lat="45.01092" lon="4.15082">
        <ele>1283</ele>
        <time>2021-04-28T13:34:23Z</time>
      </trkpt>
      <trkpt lat="45.01087" lon="4.1508">
        <ele>1283</ele>
        <time>2021-04-28T13:34:24Z</time>
      </trkpt>
      <trkpt lat="45.01081" lon="4.15077">
        <ele>1283</ele>
        <time>2021-04-28T13:34:25Z</time>
      </trkpt>
      <trkpt lat="45.01074" lon="4.15074">
        <ele>1283</ele>
        <time>2021-04-28T13:34:26Z</time>
      </trkpt>
      <trkpt lat="45.01068" lon="4.1507">
        <ele>1282</ele>
        <time>2021-04-28T13:34:27Z</time>
      </trkpt>
      <trkpt lat="45.01061" lon="4.15068">
        <ele>1281</ele>
        <time>2021-04-28T13:34:28Z</time>
      </trkpt>
      <trkpt lat="45.01054" lon="4.15067">
        <ele>1281</ele>
        <time>2021-04-28T13:34:29Z</time>
      </trkpt>
      <trkpt lat="45.01047" lon="4.15063">
        <ele>1281</ele>
        <time>2021-04-28T13:34:30Z</time>
      </trkpt>
      <trkpt lat="45.0104" lon="4.1506">
        <ele>1280</ele>
        <time>2021-04-28T13:34:31Z</time>
      </trkpt>
      <trkpt lat="45.01031" lon="4.15058">
        <ele>1280</ele>
        <time>2021-04-28T13:34:32Z</time>
      </trkpt>
      <trkpt lat="45.01023" lon="4.15055">
        <ele>1279</ele>
        <time>2021-04-28T13:34:33Z</time>
      </trkpt>
      <trkpt lat="45.01016" lon="4.15051">
        <ele>1278</ele>
        <time>2021-04-28T13:34:34Z</time>
      </trkpt>
      <trkpt lat="45.01008" lon="4.15046">
        <ele>1277</ele>
        <time>2021-04-28T13:34:35Z</time>
      </trkpt>
      <trkpt lat="45.00999" lon="4.1504">
        <ele>1277</ele>
        <time>2021-04-28T13:34:36Z</time>
      </trkpt>
      <trkpt lat="45.00991" lon="4.15035">
        <ele>1276</ele>
        <time>2021-04-28T13:34:37Z</time>
      </trkpt>
      <trkpt lat="45.00982" lon="4.15029">
        <ele>1275</ele>
        <time>2021-04-28T13:34:38Z</time>
      </trkpt>
      <trkpt lat="45.00973" lon="4.15022">
        <ele>1274</ele>
        <time>2021-04-28T13:34:39Z</time>
      </trkpt>
      <trkpt lat="45.00963" lon="4.15017">
        <ele>1273</ele>
        <time>2021-04-28T13:34:40Z</time>
      </trkpt>
      <trkpt lat="45.00954" lon="4.15011">
        <ele>1272</ele>
        <time>2021-04-28T13:34:41Z</time>
      </trkpt>
      <trkpt lat="45.00935" lon="4.15001">
        <ele>1272</ele>
        <time>2021-04-28T13:34:42Z</time>
      </trkpt>
      <trkpt lat="45.00926" lon="4.14995">
        <ele>1269</ele>
        <time>2021-04-28T13:34:44Z</time>
      </trkpt>
      <trkpt lat="45.00917" lon="4.1499">
        <ele>1268</ele>
        <time>2021-04-28T13:34:45Z</time>
      </trkpt>
      <trkpt lat="45.00909" lon="4.14985">
        <ele>1267</ele>
        <time>2021-04-28T13:34:46Z</time>
      </trkpt>
      <trkpt lat="45.00901" lon="4.1498">
        <ele>1266</ele>
        <time>2021-04-28T13:34:47Z</time>
      </trkpt>
      <trkpt lat="45.00893" lon="4.14976">
        <ele>1265</ele>
        <time>2021-04-28T13:34:48Z</time>
      </trkpt>
      <trkpt lat="45.00886" lon="4.14972">
        <ele>1264</ele>
        <time>2021-04-28T13:34:49Z</time>
      </trkpt>
      <trkpt lat="45.00879" lon="4.1497">
        <ele>1263</ele>
        <time>2021-04-28T13:34:50Z</time>
      </trkpt>
      <trkpt lat="45.00872" lon="4.14969">
        <ele>1262</ele>
        <time>2021-04-28T13:34:51Z</time>
      </trkpt>
      <trkpt lat="45.00866" lon="4.14968">
        <ele>1261</ele>
        <time>2021-04-28T13:34:52Z</time>
      </trkpt>
      <trkpt lat="45.0086" lon="4.14968">
        <ele>1261</ele>
        <time>2021-04-28T13:34:53Z</time>
      </trkpt>
      <trkpt lat="45.00854" lon="4.14968">
        <ele>1260</ele>
        <time>2021-04-28T13:34:54Z</time>
      </trkpt>
      <trkpt lat="45.00848" lon="4.14967">
        <ele>1259</ele>
        <time>2021-04-28T13:34:55Z</time>
      </trkpt>
      <trkpt lat="45.00843" lon="4.14966">
        <ele>1259</ele>
        <time>2021-04-28T13:34:56Z</time>
      </trkpt>
      <trkpt lat="45.00837" lon="4.14965">
        <ele>1258</ele>
        <time>2021-04-28T13:34:57Z</time>
      </trkpt>
      <trkpt lat="45.00832" lon="4.14964">
        <ele>1258</ele>
        <time>2021-04-28T13:34:58Z</time>
      </trkpt>
      <trkpt lat="45.00827" lon="4.14963">
        <ele>1257</ele>
        <time>2021-04-28T13:34:59Z</time>
      </trkpt>
      <trkpt lat="45.00822" lon="4.14962">
        <ele>1256</ele>
        <time>2021-04-28T13:35:00Z</time>
      </trkpt>
      <trkpt lat="45.00817" lon="4.14961">
        <ele>1256</ele>
        <time>2021-04-28T13:35:01Z</time>
      </trkpt>
      <trkpt lat="45.00812" lon="4.14961">
        <ele>1255</ele>
        <time>2021-04-28T13:35:02Z</time>
      </trkpt>
      <trkpt lat="45.00807" lon="4.1496">
        <ele>1255</ele>
        <time>2021-04-28T13:35:03Z</time>
      </trkpt>
      <trkpt lat="45.00802" lon="4.14959">
        <ele>1254</ele>
        <time>2021-04-28T13:35:04Z</time>
      </trkpt>
      <trkpt lat="45.00797" lon="4.14958">
        <ele>1254</ele>
        <time>2021-04-28T13:35:05Z</time>
      </trkpt>
      <trkpt lat="45.00792" lon="4.14958">
        <ele>1253</ele>
        <time>2021-04-28T13:35:06Z</time>
      </trkpt>
      <trkpt lat="45.00788" lon="4.14957">
        <ele>1253</ele>
        <time>2021-04-28T13:35:07Z</time>
      </trkpt>
      <trkpt lat="45.00783" lon="4.14955">
        <ele>1253</ele>
        <time>2021-04-28T13:35:08Z</time>
      </trkpt>
      <trkpt lat="45.00778" lon="4.14953">
        <ele>1252</ele>
        <time>2021-04-28T13:35:09Z</time>
      </trkpt>
      <trkpt lat="45.00774" lon="4.1495">
        <ele>1252</ele>
        <time>2021-04-28T13:35:10Z</time>
      </trkpt>
      <trkpt lat="45.0077" lon="4.14947">
        <ele>1251</ele>
        <time>2021-04-28T13:35:11Z</time>
      </trkpt>
      <trkpt lat="45.00766" lon="4.14943">
        <ele>1251</ele>
        <time>2021-04-28T13:35:12Z</time>
      </trkpt>
      <trkpt lat="45.00762" lon="4.1494">
        <ele>1251</ele>
        <time>2021-04-28T13:35:13Z</time>
      </trkpt>
      <trkpt lat="45.00757" lon="4.14937">
        <ele>1250</ele>
        <time>2021-04-28T13:35:14Z</time>
      </trkpt>
      <trkpt lat="45.00753" lon="4.14935">
        <ele>1250</ele>
        <time>2021-04-28T13:35:15Z</time>
      </trkpt>
      <trkpt lat="45.00748" lon="4.14934">
        <ele>1250</ele>
        <time>2021-04-28T13:35:16Z</time>
      </trkpt>
      <trkpt lat="45.00744" lon="4.14933">
        <ele>1250</ele>
        <time>2021-04-28T13:35:17Z</time>
      </trkpt>
      <trkpt lat="45.00739" lon="4.14931">
        <ele>1249</ele>
        <time>2021-04-28T13:35:18Z</time>
      </trkpt>
      <trkpt lat="45.00734" lon="4.14929">
        <ele>1249</ele>
        <time>2021-04-28T13:35:19Z</time>
      </trkpt>
      <trkpt lat="45.0073" lon="4.14926">
        <ele>1249</ele>
        <time>2021-04-28T13:35:20Z</time>
      </trkpt>
      <trkpt lat="45.00726" lon="4.14924">
        <ele>1249</ele>
        <time>2021-04-28T13:35:21Z</time>
      </trkpt>
      <trkpt lat="45.00723" lon="4.14922">
        <ele>1249</ele>
        <time>2021-04-28T13:35:22Z</time>
      </trkpt>
      <trkpt lat="45.00719" lon="4.14921">
        <ele>1249</ele>
        <time>2021-04-28T13:35:23Z</time>
      </trkpt>
      <trkpt lat="45.00714" lon="4.14919">
        <ele>1249</ele>
        <time>2021-04-28T13:35:24Z</time>
      </trkpt>
      <trkpt lat="45.0071" lon="4.14918">
        <ele>1249</ele>
        <time>2021-04-28T13:35:25Z</time>
      </trkpt>
      <trkpt lat="45.00706" lon="4.14916">
        <ele>1249</ele>
        <time>2021-04-28T13:35:26Z</time>
      </trkpt>
      <trkpt lat="45.00702" lon="4.14915">
        <ele>1249</ele>
        <time>2021-04-28T13:35:27Z</time>
      </trkpt>
      <trkpt lat="45.00698" lon="4.14913">
        <ele>1249</ele>
        <time>2021-04-28T13:35:28Z</time>
      </trkpt>
      <trkpt lat="45.00694" lon="4.14911">
        <ele>1249</ele>
        <time>2021-04-28T13:35:29Z</time>
      </trkpt>
      <trkpt lat="45.0069" lon="4.14909">
        <ele>1248</ele>
        <time>2021-04-28T13:35:30Z</time>
      </trkpt>
      <trkpt lat="45.00686" lon="4.14908">
        <ele>1248</ele>
        <time>2021-04-28T13:35:31Z</time>
      </trkpt>
      <trkpt lat="45.00682" lon="4.14907">
        <ele>1248</ele>
        <time>2021-04-28T13:35:32Z</time>
      </trkpt>
      <trkpt lat="45.00678" lon="4.14908">
        <ele>1248</ele>
        <time>2021-04-28T13:35:33Z</time>
      </trkpt>
      <trkpt lat="45.00673" lon="4.14909">
        <ele>1248</ele>
        <time>2021-04-28T13:35:34Z</time>
      </trkpt>
      <trkpt lat="45.00669" lon="4.1491">
        <ele>1248</ele>
        <time>2021-04-28T13:35:35Z</time>
      </trkpt>
      <trkpt lat="45.00665" lon="4.14913">
        <ele>1248</ele>
        <time>2021-04-28T13:35:36Z</time>
      </trkpt>
      <trkpt lat="45.00662" lon="4.14916">
        <ele>1248</ele>
        <time>2021-04-28T13:35:37Z</time>
      </trkpt>
      <trkpt lat="45.00658" lon="4.14919">
        <ele>1248</ele>
        <time>2021-04-28T13:35:38Z</time>
      </trkpt>
      <trkpt lat="45.00651" lon="4.14925">
        <ele>1248</ele>
        <time>2021-04-28T13:35:39Z</time>
      </trkpt>
      <trkpt lat="45.00648" lon="4.14927">
        <ele>1248</ele>
        <time>2021-04-28T13:35:41Z</time>
      </trkpt>
      <trkpt lat="45.00644" lon="4.1493">
        <ele>1248</ele>
        <time>2021-04-28T13:35:42Z</time>
      </trkpt>
      <trkpt lat="45.00641" lon="4.14932">
        <ele>1248</ele>
        <time>2021-04-28T13:35:43Z</time>
      </trkpt>
      <trkpt lat="45.00637" lon="4.14934">
        <ele>1248</ele>
        <time>2021-04-28T13:35:44Z</time>
      </trkpt>
      <trkpt lat="45.00633" lon="4.14936">
        <ele>1248</ele>
        <time>2021-04-28T13:35:45Z</time>
      </trkpt>
      <trkpt lat="45.0063" lon="4.14936">
        <ele>1248</ele>
        <time>2021-04-28T13:35:46Z</time>
      </trkpt>
      <trkpt lat="45.00627" lon="4.14936">
        <ele>1248</ele>
        <time>2021-04-28T13:35:47Z</time>
      </trkpt>
      <trkpt lat="45.00625" lon="4.14937">
        <ele>1248</ele>
        <time>2021-04-28T13:35:48Z</time>
      </trkpt>
      <trkpt lat="45.00624" lon="4.14941">
        <ele>1248</ele>
        <time>2021-04-28T13:35:50Z</time>
      </trkpt>
      <trkpt lat="45.00625" lon="4.14943">
        <ele>1248</ele>
        <time>2021-04-28T13:35:51Z</time>
      </trkpt>
      <trkpt lat="45.00626" lon="4.14946">
        <ele>1248</ele>
        <time>2021-04-28T13:35:52Z</time>
      </trkpt>
      <trkpt lat="45.00624" lon="4.14953">
        <ele>1249</ele>
        <time>2021-04-28T13:35:53Z</time>
      </trkpt>
      <trkpt lat="45.00623" lon="4.14957">
        <ele>1249</ele>
        <time>2021-04-28T13:35:55Z</time>
      </trkpt>
      <trkpt lat="45.00622" lon="4.1496">
        <ele>1249</ele>
        <time>2021-04-28T13:35:56Z</time>
      </trkpt>
      <trkpt lat="45.00621" lon="4.14964">
        <ele>1249</ele>
        <time>2021-04-28T13:35:57Z</time>
      </trkpt>
      <trkpt lat="45.00618" lon="4.14972">
        <ele>1249</ele>
        <time>2021-04-28T13:35:58Z</time>
      </trkpt>
      <trkpt lat="45.00617" lon="4.14977">
        <ele>1249</ele>
        <time>2021-04-28T13:36:00Z</time>
      </trkpt>
      <trkpt lat="45.00615" lon="4.14982">
        <ele>1249</ele>
        <time>2021-04-28T13:36:01Z</time>
      </trkpt>
      <trkpt lat="45.00614" lon="4.14987">
        <ele>1249</ele>
        <time>2021-04-28T13:36:02Z</time>
      </trkpt>
      <trkpt lat="45.00612" lon="4.14992">
        <ele>1249</ele>
        <time>2021-04-28T13:36:03Z</time>
      </trkpt>
      <trkpt lat="45.00611" lon="4.14997">
        <ele>1249</ele>
        <time>2021-04-28T13:36:04Z</time>
      </trkpt>
      <trkpt lat="45.00609" lon="4.15002">
        <ele>1249</ele>
        <time>2021-04-28T13:36:05Z</time>
      </trkpt>
      <trkpt lat="45.00608" lon="4.15008">
        <ele>1249</ele>
        <time>2021-04-28T13:36:06Z</time>
      </trkpt>
      <trkpt lat="45.00606" lon="4.15014">
        <ele>1250</ele>
        <time>2021-04-28T13:36:07Z</time>
      </trkpt>
      <trkpt lat="45.00604" lon="4.1502">
        <ele>1250</ele>
        <time>2021-04-28T13:36:08Z</time>
      </trkpt>
      <trkpt lat="45.00603" lon="4.15025">
        <ele>1250</ele>
        <time>2021-04-28T13:36:09Z</time>
      </trkpt>
      <trkpt lat="45.00601" lon="4.15031">
        <ele>1250</ele>
        <time>2021-04-28T13:36:10Z</time>
      </trkpt>
      <trkpt lat="45.00599" lon="4.15037">
        <ele>1250</ele>
        <time>2021-04-28T13:36:11Z</time>
      </trkpt>
      <trkpt lat="45.00597" lon="4.15042">
        <ele>1250</ele>
        <time>2021-04-28T13:36:12Z</time>
      </trkpt>
      <trkpt lat="45.00596" lon="4.15048">
        <ele>1250</ele>
        <time>2021-04-28T13:36:13Z</time>
      </trkpt>
      <trkpt lat="45.00594" lon="4.15054">
        <ele>1251</ele>
        <time>2021-04-28T13:36:14Z</time>
      </trkpt>
      <trkpt lat="45.00592" lon="4.1506">
        <ele>1251</ele>
        <time>2021-04-28T13:36:15Z</time>
      </trkpt>
      <trkpt lat="45.00591" lon="4.15066">
        <ele>1251</ele>
        <time>2021-04-28T13:36:16Z</time>
      </trkpt>
      <trkpt lat="45.00589" lon="4.15071">
        <ele>1251</ele>
        <time>2021-04-28T13:36:17Z</time>
      </trkpt>
      <trkpt lat="45.00587" lon="4.15077">
        <ele>1252</ele>
        <time>2021-04-28T13:36:18Z</time>
      </trkpt>
      <trkpt lat="45.00585" lon="4.15083">
        <ele>1252</ele>
        <time>2021-04-28T13:36:19Z</time>
      </trkpt>
      <trkpt lat="45.00583" lon="4.15089">
        <ele>1252</ele>
        <time>2021-04-28T13:36:20Z</time>
      </trkpt>
      <trkpt lat="45.00581" lon="4.15095">
        <ele>1253</ele>
        <time>2021-04-28T13:36:21Z</time>
      </trkpt>
      <trkpt lat="45.00579" lon="4.15101">
        <ele>1253</ele>
        <time>2021-04-28T13:36:22Z</time>
      </trkpt>
      <trkpt lat="45.00578" lon="4.15107">
        <ele>1253</ele>
        <time>2021-04-28T13:36:23Z</time>
      </trkpt>
      <trkpt lat="45.00576" lon="4.15113">
        <ele>1253</ele>
        <time>2021-04-28T13:36:24Z</time>
      </trkpt>
      <trkpt lat="45.00574" lon="4.15119">
        <ele>1254</ele>
        <time>2021-04-28T13:36:25Z</time>
      </trkpt>
      <trkpt lat="45.00572" lon="4.15125">
        <ele>1254</ele>
        <time>2021-04-28T13:36:26Z</time>
      </trkpt>
      <trkpt lat="45.00571" lon="4.15131">
        <ele>1254</ele>
        <time>2021-04-28T13:36:27Z</time>
      </trkpt>
      <trkpt lat="45.00569" lon="4.15137">
        <ele>1254</ele>
        <time>2021-04-28T13:36:28Z</time>
      </trkpt>
      <trkpt lat="45.00567" lon="4.15142">
        <ele>1255</ele>
        <time>2021-04-28T13:36:29Z</time>
      </trkpt>
      <trkpt lat="45.00565" lon="4.15148">
        <ele>1255</ele>
        <time>2021-04-28T13:36:30Z</time>
      </trkpt>
      <trkpt lat="45.00564" lon="4.15154">
        <ele>1255</ele>
        <time>2021-04-28T13:36:31Z</time>
      </trkpt>
      <trkpt lat="45.00562" lon="4.1516">
        <ele>1256</ele>
        <time>2021-04-28T13:36:32Z</time>
      </trkpt>
      <trkpt lat="45.00561" lon="4.15166">
        <ele>1256</ele>
        <time>2021-04-28T13:36:33Z</time>
      </trkpt>
      <trkpt lat="45.00559" lon="4.15171">
        <ele>1256</ele>
        <time>2021-04-28T13:36:34Z</time>
      </trkpt>
      <trkpt lat="45.00557" lon="4.15177">
        <ele>1257</ele>
        <time>2021-04-28T13:36:35Z</time>
      </trkpt>
      <trkpt lat="45.00556" lon="4.15183">
        <ele>1257</ele>
        <time>2021-04-28T13:36:36Z</time>
      </trkpt>
      <trkpt lat="45.00554" lon="4.15189">
        <ele>1258</ele>
        <time>2021-04-28T13:36:37Z</time>
      </trkpt>
      <trkpt lat="45.00552" lon="4.15195">
        <ele>1258</ele>
        <time>2021-04-28T13:36:38Z</time>
      </trkpt>
      <trkpt lat="45.00551" lon="4.152">
        <ele>1258</ele>
        <time>2021-04-28T13:36:39Z</time>
      </trkpt>
      <trkpt lat="45.00549" lon="4.15206">
        <ele>1258</ele>
        <time>2021-04-28T13:36:40Z</time>
      </trkpt>
      <trkpt lat="45.00547" lon="4.15212">
        <ele>1259</ele>
        <time>2021-04-28T13:36:41Z</time>
      </trkpt>
      <trkpt lat="45.00546" lon="4.15217">
        <ele>1259</ele>
        <time>2021-04-28T13:36:42Z</time>
      </trkpt>
      <trkpt lat="45.00544" lon="4.15223">
        <ele>1259</ele>
        <time>2021-04-28T13:36:43Z</time>
      </trkpt>
      <trkpt lat="45.00542" lon="4.15229">
        <ele>1260</ele>
        <time>2021-04-28T13:36:44Z</time>
      </trkpt>
      <trkpt lat="45.00541" lon="4.15235">
        <ele>1260</ele>
        <time>2021-04-28T13:36:45Z</time>
      </trkpt>
      <trkpt lat="45.00539" lon="4.15241">
        <ele>1260</ele>
        <time>2021-04-28T13:36:46Z</time>
      </trkpt>
      <trkpt lat="45.00538" lon="4.15247">
        <ele>1261</ele>
        <time>2021-04-28T13:36:47Z</time>
      </trkpt>
      <trkpt lat="45.00536" lon="4.15253">
        <ele>1261</ele>
        <time>2021-04-28T13:36:48Z</time>
      </trkpt>
      <trkpt lat="45.00534" lon="4.15259">
        <ele>1261</ele>
        <time>2021-04-28T13:36:49Z</time>
      </trkpt>
      <trkpt lat="45.00532" lon="4.15265">
        <ele>1261</ele>
        <time>2021-04-28T13:36:50Z</time>
      </trkpt>
      <trkpt lat="45.0053" lon="4.1527">
        <ele>1262</ele>
        <time>2021-04-28T13:36:51Z</time>
      </trkpt>
      <trkpt lat="45.00527" lon="4.15276">
        <ele>1262</ele>
        <time>2021-04-28T13:36:52Z</time>
      </trkpt>
      <trkpt lat="45.00525" lon="4.15282">
        <ele>1262</ele>
        <time>2021-04-28T13:36:53Z</time>
      </trkpt>
      <trkpt lat="45.00523" lon="4.15288">
        <ele>1262</ele>
        <time>2021-04-28T13:36:54Z</time>
      </trkpt>
      <trkpt lat="45.00519" lon="4.15301">
        <ele>1263</ele>
        <time>2021-04-28T13:36:55Z</time>
      </trkpt>
      <trkpt lat="45.00517" lon="4.15307">
        <ele>1263</ele>
        <time>2021-04-28T13:36:57Z</time>
      </trkpt>
      <trkpt lat="45.00514" lon="4.15313">
        <ele>1263</ele>
        <time>2021-04-28T13:36:58Z</time>
      </trkpt>
      <trkpt lat="45.00512" lon="4.1532">
        <ele>1264</ele>
        <time>2021-04-28T13:36:59Z</time>
      </trkpt>
      <trkpt lat="45.0051" lon="4.15326">
        <ele>1264</ele>
        <time>2021-04-28T13:37:00Z</time>
      </trkpt>
      <trkpt lat="45.00508" lon="4.15333">
        <ele>1264</ele>
        <time>2021-04-28T13:37:01Z</time>
      </trkpt>
      <trkpt lat="45.00507" lon="4.15339">
        <ele>1264</ele>
        <time>2021-04-28T13:37:02Z</time>
      </trkpt>
      <trkpt lat="45.00505" lon="4.15346">
        <ele>1264</ele>
        <time>2021-04-28T13:37:03Z</time>
      </trkpt>
      <trkpt lat="45.00503" lon="4.15353">
        <ele>1265</ele>
        <time>2021-04-28T13:37:04Z</time>
      </trkpt>
      <trkpt lat="45.00501" lon="4.1536">
        <ele>1265</ele>
        <time>2021-04-28T13:37:05Z</time>
      </trkpt>
      <trkpt lat="45.005" lon="4.15367">
        <ele>1265</ele>
        <time>2021-04-28T13:37:06Z</time>
      </trkpt>
      <trkpt lat="45.00498" lon="4.15373">
        <ele>1265</ele>
        <time>2021-04-28T13:37:07Z</time>
      </trkpt>
      <trkpt lat="45.00497" lon="4.1538">
        <ele>1265</ele>
        <time>2021-04-28T13:37:08Z</time>
      </trkpt>
      <trkpt lat="45.00495" lon="4.15387">
        <ele>1266</ele>
        <time>2021-04-28T13:37:09Z</time>
      </trkpt>
      <trkpt lat="45.00493" lon="4.15394">
        <ele>1266</ele>
        <time>2021-04-28T13:37:10Z</time>
      </trkpt>
      <trkpt lat="45.00492" lon="4.15401">
        <ele>1266</ele>
        <time>2021-04-28T13:37:11Z</time>
      </trkpt>
      <trkpt lat="45.00491" lon="4.15408">
        <ele>1266</ele>
        <time>2021-04-28T13:37:12Z</time>
      </trkpt>
      <trkpt lat="45.00489" lon="4.15415">
        <ele>1266</ele>
        <time>2021-04-28T13:37:13Z</time>
      </trkpt>
      <trkpt lat="45.00486" lon="4.15429">
        <ele>1267</ele>
        <time>2021-04-28T13:37:14Z</time>
      </trkpt>
      <trkpt lat="45.00485" lon="4.15435">
        <ele>1267</ele>
        <time>2021-04-28T13:37:16Z</time>
      </trkpt>
      <trkpt lat="45.00483" lon="4.15442">
        <ele>1267</ele>
        <time>2021-04-28T13:37:17Z</time>
      </trkpt>
      <trkpt lat="45.00482" lon="4.15448">
        <ele>1267</ele>
        <time>2021-04-28T13:37:18Z</time>
      </trkpt>
      <trkpt lat="45.0048" lon="4.15455">
        <ele>1268</ele>
        <time>2021-04-28T13:37:19Z</time>
      </trkpt>
      <trkpt lat="45.00479" lon="4.15462">
        <ele>1268</ele>
        <time>2021-04-28T13:37:20Z</time>
      </trkpt>
      <trkpt lat="45.00477" lon="4.15468">
        <ele>1268</ele>
        <time>2021-04-28T13:37:21Z</time>
      </trkpt>
      <trkpt lat="45.00476" lon="4.15475">
        <ele>1268</ele>
        <time>2021-04-28T13:37:22Z</time>
      </trkpt>
      <trkpt lat="45.00474" lon="4.15482">
        <ele>1269</ele>
        <time>2021-04-28T13:37:23Z</time>
      </trkpt>
      <trkpt lat="45.00473" lon="4.15488">
        <ele>1269</ele>
        <time>2021-04-28T13:37:24Z</time>
      </trkpt>
      <trkpt lat="45.00471" lon="4.15495">
        <ele>1269</ele>
        <time>2021-04-28T13:37:25Z</time>
      </trkpt>
      <trkpt lat="45.0047" lon="4.15502">
        <ele>1269</ele>
        <time>2021-04-28T13:37:26Z</time>
      </trkpt>
      <trkpt lat="45.00468" lon="4.15508">
        <ele>1269</ele>
        <time>2021-04-28T13:37:27Z</time>
      </trkpt>
      <trkpt lat="45.00467" lon="4.15515">
        <ele>1270</ele>
        <time>2021-04-28T13:37:28Z</time>
      </trkpt>
      <trkpt lat="45.00465" lon="4.15522">
        <ele>1270</ele>
        <time>2021-04-28T13:37:29Z</time>
      </trkpt>
      <trkpt lat="45.00464" lon="4.15529">
        <ele>1270</ele>
        <time>2021-04-28T13:37:30Z</time>
      </trkpt>
      <trkpt lat="45.00462" lon="4.15536">
        <ele>1270</ele>
        <time>2021-04-28T13:37:31Z</time>
      </trkpt>
      <trkpt lat="45.0046" lon="4.15542">
        <ele>1270</ele>
        <time>2021-04-28T13:37:32Z</time>
      </trkpt>
      <trkpt lat="45.00457" lon="4.15556">
        <ele>1271</ele>
        <time>2021-04-28T13:37:33Z</time>
      </trkpt>
      <trkpt lat="45.00455" lon="4.15563">
        <ele>1271</ele>
        <time>2021-04-28T13:37:35Z</time>
      </trkpt>
      <trkpt lat="45.00454" lon="4.1557">
        <ele>1271</ele>
        <time>2021-04-28T13:37:36Z</time>
      </trkpt>
      <trkpt lat="45.00452" lon="4.15577">
        <ele>1271</ele>
        <time>2021-04-28T13:37:37Z</time>
      </trkpt>
      <trkpt lat="45.00451" lon="4.15584">
        <ele>1271</ele>
        <time>2021-04-28T13:37:38Z</time>
      </trkpt>
      <trkpt lat="45.0045" lon="4.15591">
        <ele>1271</ele>
        <time>2021-04-28T13:37:39Z</time>
      </trkpt>
      <trkpt lat="45.00449" lon="4.15597">
        <ele>1272</ele>
        <time>2021-04-28T13:37:40Z</time>
      </trkpt>
      <trkpt lat="45.00447" lon="4.15603">
        <ele>1272</ele>
        <time>2021-04-28T13:37:41Z</time>
      </trkpt>
      <trkpt lat="45.00445" lon="4.15609">
        <ele>1272</ele>
        <time>2021-04-28T13:37:42Z</time>
      </trkpt>
      <trkpt lat="45.00443" lon="4.15615">
        <ele>1272</ele>
        <time>2021-04-28T13:37:43Z</time>
      </trkpt>
      <trkpt lat="45.00441" lon="4.15622">
        <ele>1272</ele>
        <time>2021-04-28T13:37:44Z</time>
      </trkpt>
      <trkpt lat="45.00439" lon="4.15629">
        <ele>1272</ele>
        <time>2021-04-28T13:37:45Z</time>
      </trkpt>
      <trkpt lat="45.00438" lon="4.15636">
        <ele>1272</ele>
        <time>2021-04-28T13:37:46Z</time>
      </trkpt>
      <trkpt lat="45.00436" lon="4.15643">
        <ele>1273</ele>
        <time>2021-04-28T13:37:47Z</time>
      </trkpt>
      <trkpt lat="45.00435" lon="4.1565">
        <ele>1273</ele>
        <time>2021-04-28T13:37:48Z</time>
      </trkpt>
      <trkpt lat="45.00433" lon="4.15656">
        <ele>1273</ele>
        <time>2021-04-28T13:37:49Z</time>
      </trkpt>
      <trkpt lat="45.00432" lon="4.15662">
        <ele>1273</ele>
        <time>2021-04-28T13:37:50Z</time>
      </trkpt>
      <trkpt lat="45.0043" lon="4.15668">
        <ele>1273</ele>
        <time>2021-04-28T13:37:51Z</time>
      </trkpt>
      <trkpt lat="45.00429" lon="4.15673">
        <ele>1273</ele>
        <time>2021-04-28T13:37:52Z</time>
      </trkpt>
      <trkpt lat="45.00428" lon="4.15679">
        <ele>1274</ele>
        <time>2021-04-28T13:37:53Z</time>
      </trkpt>
      <trkpt lat="45.00426" lon="4.15685">
        <ele>1274</ele>
        <time>2021-04-28T13:37:54Z</time>
      </trkpt>
      <trkpt lat="45.00425" lon="4.1569">
        <ele>1274</ele>
        <time>2021-04-28T13:37:55Z</time>
      </trkpt>
      <trkpt lat="45.00423" lon="4.15696">
        <ele>1274</ele>
        <time>2021-04-28T13:37:56Z</time>
      </trkpt>
      <trkpt lat="45.00422" lon="4.15702">
        <ele>1274</ele>
        <time>2021-04-28T13:37:57Z</time>
      </trkpt>
      <trkpt lat="45.00421" lon="4.15708">
        <ele>1275</ele>
        <time>2021-04-28T13:37:58Z</time>
      </trkpt>
      <trkpt lat="45.00419" lon="4.15714">
        <ele>1275</ele>
        <time>2021-04-28T13:37:59Z</time>
      </trkpt>
      <trkpt lat="45.00418" lon="4.1572">
        <ele>1275</ele>
        <time>2021-04-28T13:38:00Z</time>
      </trkpt>
      <trkpt lat="45.00417" lon="4.15726">
        <ele>1275</ele>
        <time>2021-04-28T13:38:01Z</time>
      </trkpt>
      <trkpt lat="45.00415" lon="4.15732">
        <ele>1276</ele>
        <time>2021-04-28T13:38:02Z</time>
      </trkpt>
      <trkpt lat="45.00414" lon="4.15737">
        <ele>1276</ele>
        <time>2021-04-28T13:38:03Z</time>
      </trkpt>
      <trkpt lat="45.00413" lon="4.15742">
        <ele>1277</ele>
        <time>2021-04-28T13:38:04Z</time>
      </trkpt>
      <trkpt lat="45.00412" lon="4.15747">
        <ele>1277</ele>
        <time>2021-04-28T13:38:05Z</time>
      </trkpt>
      <trkpt lat="45.00411" lon="4.15752">
        <ele>1277</ele>
        <time>2021-04-28T13:38:06Z</time>
      </trkpt>
      <trkpt lat="45.0041" lon="4.15757">
        <ele>1278</ele>
        <time>2021-04-28T13:38:07Z</time>
      </trkpt>
      <trkpt lat="45.00409" lon="4.15762">
        <ele>1278</ele>
        <time>2021-04-28T13:38:08Z</time>
      </trkpt>
      <trkpt lat="45.00408" lon="4.15768">
        <ele>1278</ele>
        <time>2021-04-28T13:38:09Z</time>
      </trkpt>
      <trkpt lat="45.00407" lon="4.15773">
        <ele>1278</ele>
        <time>2021-04-28T13:38:10Z</time>
      </trkpt>
      <trkpt lat="45.00405" lon="4.15784">
        <ele>1279</ele>
        <time>2021-04-28T13:38:11Z</time>
      </trkpt>
      <trkpt lat="45.00404" lon="4.15789">
        <ele>1279</ele>
        <time>2021-04-28T13:38:13Z</time>
      </trkpt>
      <trkpt lat="45.00404" lon="4.15794">
        <ele>1280</ele>
        <time>2021-04-28T13:38:14Z</time>
      </trkpt>
      <trkpt lat="45.00403" lon="4.15799">
        <ele>1280</ele>
        <time>2021-04-28T13:38:15Z</time>
      </trkpt>
      <trkpt lat="45.00402" lon="4.15805">
        <ele>1281</ele>
        <time>2021-04-28T13:38:16Z</time>
      </trkpt>
      <trkpt lat="45.00402" lon="4.1581">
        <ele>1281</ele>
        <time>2021-04-28T13:38:17Z</time>
      </trkpt>
      <trkpt lat="45.00401" lon="4.15815">
        <ele>1281</ele>
        <time>2021-04-28T13:38:18Z</time>
      </trkpt>
      <trkpt lat="45.004" lon="4.15821">
        <ele>1282</ele>
        <time>2021-04-28T13:38:19Z</time>
      </trkpt>
      <trkpt lat="45.00399" lon="4.15826">
        <ele>1282</ele>
        <time>2021-04-28T13:38:20Z</time>
      </trkpt>
      <trkpt lat="45.00398" lon="4.15831">
        <ele>1282</ele>
        <time>2021-04-28T13:38:21Z</time>
      </trkpt>
      <trkpt lat="45.00397" lon="4.15837">
        <ele>1283</ele>
        <time>2021-04-28T13:38:22Z</time>
      </trkpt>
      <trkpt lat="45.00396" lon="4.15842">
        <ele>1283</ele>
        <time>2021-04-28T13:38:23Z</time>
      </trkpt>
      <trkpt lat="45.00395" lon="4.15847">
        <ele>1283</ele>
        <time>2021-04-28T13:38:24Z</time>
      </trkpt>
      <trkpt lat="45.00395" lon="4.15853">
        <ele>1284</ele>
        <time>2021-04-28T13:38:25Z</time>
      </trkpt>
      <trkpt lat="45.00394" lon="4.15858">
        <ele>1284</ele>
        <time>2021-04-28T13:38:26Z</time>
      </trkpt>
      <trkpt lat="45.00393" lon="4.15863">
        <ele>1284</ele>
        <time>2021-04-28T13:38:27Z</time>
      </trkpt>
      <trkpt lat="45.00392" lon="4.15869">
        <ele>1285</ele>
        <time>2021-04-28T13:38:28Z</time>
      </trkpt>
      <trkpt lat="45.00391" lon="4.15874">
        <ele>1285</ele>
        <time>2021-04-28T13:38:29Z</time>
      </trkpt>
      <trkpt lat="45.0039" lon="4.15879">
        <ele>1285</ele>
        <time>2021-04-28T13:38:30Z</time>
      </trkpt>
      <trkpt lat="45.00389" lon="4.15885">
        <ele>1286</ele>
        <time>2021-04-28T13:38:31Z</time>
      </trkpt>
      <trkpt lat="45.00388" lon="4.1589">
        <ele>1286</ele>
        <time>2021-04-28T13:38:32Z</time>
      </trkpt>
      <trkpt lat="45.00387" lon="4.15895">
        <ele>1286</ele>
        <time>2021-04-28T13:38:33Z</time>
      </trkpt>
      <trkpt lat="45.00387" lon="4.159">
        <ele>1287</ele>
        <time>2021-04-28T13:38:34Z</time>
      </trkpt>
      <trkpt lat="45.00386" lon="4.15905">
        <ele>1287</ele>
        <time>2021-04-28T13:38:35Z</time>
      </trkpt>
      <trkpt lat="45.00385" lon="4.1591">
        <ele>1287</ele>
        <time>2021-04-28T13:38:36Z</time>
      </trkpt>
      <trkpt lat="45.00384" lon="4.15915">
        <ele>1287</ele>
        <time>2021-04-28T13:38:37Z</time>
      </trkpt>
      <trkpt lat="45.00383" lon="4.1592">
        <ele>1287</ele>
        <time>2021-04-28T13:38:38Z</time>
      </trkpt>
      <trkpt lat="45.00381" lon="4.15925">
        <ele>1288</ele>
        <time>2021-04-28T13:38:39Z</time>
      </trkpt>
      <trkpt lat="45.0038" lon="4.1593">
        <ele>1288</ele>
        <time>2021-04-28T13:38:40Z</time>
      </trkpt>
      <trkpt lat="45.00378" lon="4.15935">
        <ele>1288</ele>
        <time>2021-04-28T13:38:41Z</time>
      </trkpt>
      <trkpt lat="45.00377" lon="4.1594">
        <ele>1288</ele>
        <time>2021-04-28T13:38:42Z</time>
      </trkpt>
      <trkpt lat="45.00377" lon="4.15945">
        <ele>1289</ele>
        <time>2021-04-28T13:38:43Z</time>
      </trkpt>
      <trkpt lat="45.00376" lon="4.1595">
        <ele>1289</ele>
        <time>2021-04-28T13:38:44Z</time>
      </trkpt>
      <trkpt lat="45.00376" lon="4.15954">
        <ele>1289</ele>
        <time>2021-04-28T13:38:45Z</time>
      </trkpt>
      <trkpt lat="45.00375" lon="4.15959">
        <ele>1289</ele>
        <time>2021-04-28T13:38:46Z</time>
      </trkpt>
      <trkpt lat="45.00375" lon="4.15963">
        <ele>1289</ele>
        <time>2021-04-28T13:38:47Z</time>
      </trkpt>
      <trkpt lat="45.00374" lon="4.15967">
        <ele>1290</ele>
        <time>2021-04-28T13:38:48Z</time>
      </trkpt>
      <trkpt lat="45.00374" lon="4.15972">
        <ele>1290</ele>
        <time>2021-04-28T13:38:49Z</time>
      </trkpt>
      <trkpt lat="45.00373" lon="4.15977">
        <ele>1290</ele>
        <time>2021-04-28T13:38:50Z</time>
      </trkpt>
      <trkpt lat="45.00372" lon="4.15983">
        <ele>1290</ele>
        <time>2021-04-28T13:38:51Z</time>
      </trkpt>
      <trkpt lat="45.00372" lon="4.15989">
        <ele>1290</ele>
        <time>2021-04-28T13:38:52Z</time>
      </trkpt>
      <trkpt lat="45.00371" lon="4.15995">
        <ele>1290</ele>
        <time>2021-04-28T13:38:53Z</time>
      </trkpt>
      <trkpt lat="45.00371" lon="4.16001">
        <ele>1290</ele>
        <time>2021-04-28T13:38:54Z</time>
      </trkpt>
      <trkpt lat="45.0037" lon="4.16008">
        <ele>1290</ele>
        <time>2021-04-28T13:38:55Z</time>
      </trkpt>
      <trkpt lat="45.00369" lon="4.16014">
        <ele>1290</ele>
        <time>2021-04-28T13:38:56Z</time>
      </trkpt>
      <trkpt lat="45.00367" lon="4.16021">
        <ele>1291</ele>
        <time>2021-04-28T13:38:57Z</time>
      </trkpt>
      <trkpt lat="45.00364" lon="4.16027">
        <ele>1291</ele>
        <time>2021-04-28T13:38:58Z</time>
      </trkpt>
      <trkpt lat="45.00361" lon="4.16031">
        <ele>1291</ele>
        <time>2021-04-28T13:38:59Z</time>
      </trkpt>
      <trkpt lat="45.00358" lon="4.16035">
        <ele>1291</ele>
        <time>2021-04-28T13:39:00Z</time>
      </trkpt>
      <trkpt lat="45.00355" lon="4.16039">
        <ele>1291</ele>
        <time>2021-04-28T13:39:01Z</time>
      </trkpt>
      <trkpt lat="45.00351" lon="4.16043">
        <ele>1291</ele>
        <time>2021-04-28T13:39:02Z</time>
      </trkpt>
      <trkpt lat="45.00348" lon="4.16046">
        <ele>1291</ele>
        <time>2021-04-28T13:39:03Z</time>
      </trkpt>
      <trkpt lat="45.00344" lon="4.16049">
        <ele>1291</ele>
        <time>2021-04-28T13:39:04Z</time>
      </trkpt>
      <trkpt lat="45.00339" lon="4.16052">
        <ele>1292</ele>
        <time>2021-04-28T13:39:05Z</time>
      </trkpt>
      <trkpt lat="45.00335" lon="4.16054">
        <ele>1292</ele>
        <time>2021-04-28T13:39:06Z</time>
      </trkpt>
      <trkpt lat="45.0033" lon="4.16056">
        <ele>1292</ele>
        <time>2021-04-28T13:39:07Z</time>
      </trkpt>
      <trkpt lat="45.00326" lon="4.16058">
        <ele>1292</ele>
        <time>2021-04-28T13:39:08Z</time>
      </trkpt>
      <trkpt lat="45.00321" lon="4.16059">
        <ele>1292</ele>
        <time>2021-04-28T13:39:09Z</time>
      </trkpt>
      <trkpt lat="45.00316" lon="4.16061">
        <ele>1292</ele>
        <time>2021-04-28T13:39:10Z</time>
      </trkpt>
      <trkpt lat="45.00311" lon="4.16062">
        <ele>1292</ele>
        <time>2021-04-28T13:39:11Z</time>
      </trkpt>
      <trkpt lat="45.00307" lon="4.16064">
        <ele>1292</ele>
        <time>2021-04-28T13:39:12Z</time>
      </trkpt>
      <trkpt lat="45.00302" lon="4.16065">
        <ele>1292</ele>
        <time>2021-04-28T13:39:13Z</time>
      </trkpt>
      <trkpt lat="45.00297" lon="4.16066">
        <ele>1292</ele>
        <time>2021-04-28T13:39:14Z</time>
      </trkpt>
      <trkpt lat="45.00293" lon="4.16067">
        <ele>1292</ele>
        <time>2021-04-28T13:39:15Z</time>
      </trkpt>
      <trkpt lat="45.00288" lon="4.16069">
        <ele>1292</ele>
        <time>2021-04-28T13:39:16Z</time>
      </trkpt>
      <trkpt lat="45.00284" lon="4.1607">
        <ele>1292</ele>
        <time>2021-04-28T13:39:17Z</time>
      </trkpt>
      <trkpt lat="45.00279" lon="4.16071">
        <ele>1292</ele>
        <time>2021-04-28T13:39:18Z</time>
      </trkpt>
      <trkpt lat="45.00275" lon="4.16073">
        <ele>1292</ele>
        <time>2021-04-28T13:39:19Z</time>
      </trkpt>
      <trkpt lat="45.0027" lon="4.16074">
        <ele>1292</ele>
        <time>2021-04-28T13:39:20Z</time>
      </trkpt>
      <trkpt lat="45.00266" lon="4.16075">
        <ele>1292</ele>
        <time>2021-04-28T13:39:21Z</time>
      </trkpt>
      <trkpt lat="45.00261" lon="4.16076">
        <ele>1292</ele>
        <time>2021-04-28T13:39:22Z</time>
      </trkpt>
      <trkpt lat="45.00257" lon="4.16077">
        <ele>1292</ele>
        <time>2021-04-28T13:39:23Z</time>
      </trkpt>
      <trkpt lat="45.00252" lon="4.16078">
        <ele>1292</ele>
        <time>2021-04-28T13:39:24Z</time>
      </trkpt>
      <trkpt lat="45.00247" lon="4.16079">
        <ele>1292</ele>
        <time>2021-04-28T13:39:25Z</time>
      </trkpt>
      <trkpt lat="45.00242" lon="4.1608">
        <ele>1292</ele>
        <time>2021-04-28T13:39:26Z</time>
      </trkpt>
      <trkpt lat="45.00237" lon="4.16081">
        <ele>1292</ele>
        <time>2021-04-28T13:39:27Z</time>
      </trkpt>
      <trkpt lat="45.00232" lon="4.16082">
        <ele>1292</ele>
        <time>2021-04-28T13:39:28Z</time>
      </trkpt>
      <trkpt lat="45.00227" lon="4.16083">
        <ele>1292</ele>
        <time>2021-04-28T13:39:29Z</time>
      </trkpt>
      <trkpt lat="45.00222" lon="4.16084">
        <ele>1292</ele>
        <time>2021-04-28T13:39:30Z</time>
      </trkpt>
      <trkpt lat="45.00217" lon="4.16085">
        <ele>1292</ele>
        <time>2021-04-28T13:39:31Z</time>
      </trkpt>
      <trkpt lat="45.00212" lon="4.16085">
        <ele>1292</ele>
        <time>2021-04-28T13:39:32Z</time>
      </trkpt>
      <trkpt lat="45.00207" lon="4.16086">
        <ele>1292</ele>
        <time>2021-04-28T13:39:33Z</time>
      </trkpt>
      <trkpt lat="45.00202" lon="4.16087">
        <ele>1292</ele>
        <time>2021-04-28T13:39:34Z</time>
      </trkpt>
      <trkpt lat="45.00196" lon="4.16087">
        <ele>1292</ele>
        <time>2021-04-28T13:39:35Z</time>
      </trkpt>
      <trkpt lat="45.00191" lon="4.16087">
        <ele>1292</ele>
        <time>2021-04-28T13:39:36Z</time>
      </trkpt>
      <trkpt lat="45.00185" lon="4.16087">
        <ele>1292</ele>
        <time>2021-04-28T13:39:37Z</time>
      </trkpt>
      <trkpt lat="45.0018" lon="4.16087">
        <ele>1292</ele>
        <time>2021-04-28T13:39:38Z</time>
      </trkpt>
      <trkpt lat="45.00175" lon="4.16088">
        <ele>1291</ele>
        <time>2021-04-28T13:39:39Z</time>
      </trkpt>
      <trkpt lat="45.0017" lon="4.16088">
        <ele>1291</ele>
        <time>2021-04-28T13:39:40Z</time>
      </trkpt>
      <trkpt lat="45.00164" lon="4.16089">
        <ele>1291</ele>
        <time>2021-04-28T13:39:41Z</time>
      </trkpt>
      <trkpt lat="45.00159" lon="4.16089">
        <ele>1291</ele>
        <time>2021-04-28T13:39:42Z</time>
      </trkpt>
      <trkpt lat="45.00154" lon="4.1609">
        <ele>1291</ele>
        <time>2021-04-28T13:39:43Z</time>
      </trkpt>
      <trkpt lat="45.00148" lon="4.16091">
        <ele>1291</ele>
        <time>2021-04-28T13:39:44Z</time>
      </trkpt>
      <trkpt lat="45.00142" lon="4.16092">
        <ele>1291</ele>
        <time>2021-04-28T13:39:45Z</time>
      </trkpt>
      <trkpt lat="45.00137" lon="4.16092">
        <ele>1290</ele>
        <time>2021-04-28T13:39:46Z</time>
      </trkpt>
      <trkpt lat="45.00131" lon="4.16093">
        <ele>1290</ele>
        <time>2021-04-28T13:39:47Z</time>
      </trkpt>
      <trkpt lat="45.00125" lon="4.16093">
        <ele>1290</ele>
        <time>2021-04-28T13:39:48Z</time>
      </trkpt>
      <trkpt lat="45.0012" lon="4.16094">
        <ele>1290</ele>
        <time>2021-04-28T13:39:49Z</time>
      </trkpt>
      <trkpt lat="45.00114" lon="4.16094">
        <ele>1290</ele>
        <time>2021-04-28T13:39:50Z</time>
      </trkpt>
      <trkpt lat="45.00109" lon="4.16095">
        <ele>1290</ele>
        <time>2021-04-28T13:39:51Z</time>
      </trkpt>
      <trkpt lat="45.00104" lon="4.16095">
        <ele>1289</ele>
        <time>2021-04-28T13:39:52Z</time>
      </trkpt>
      <trkpt lat="45.00099" lon="4.16095">
        <ele>1289</ele>
        <time>2021-04-28T13:39:53Z</time>
      </trkpt>
      <trkpt lat="45.00094" lon="4.16094">
        <ele>1289</ele>
        <time>2021-04-28T13:39:54Z</time>
      </trkpt>
      <trkpt lat="45.0009" lon="4.16091">
        <ele>1289</ele>
        <time>2021-04-28T13:39:55Z</time>
      </trkpt>
      <trkpt lat="45.00087" lon="4.16087">
        <ele>1289</ele>
        <time>2021-04-28T13:39:56Z</time>
      </trkpt>
      <trkpt lat="45.00085" lon="4.16081">
        <ele>1289</ele>
        <time>2021-04-28T13:39:57Z</time>
      </trkpt>
      <trkpt lat="45.00084" lon="4.16075">
        <ele>1289</ele>
        <time>2021-04-28T13:39:58Z</time>
      </trkpt>
      <trkpt lat="45.00084" lon="4.16068">
        <ele>1289</ele>
        <time>2021-04-28T13:39:59Z</time>
      </trkpt>
      <trkpt lat="45.00085" lon="4.16062">
        <ele>1289</ele>
        <time>2021-04-28T13:40:00Z</time>
      </trkpt>
      <trkpt lat="45.00085" lon="4.16055">
        <ele>1290</ele>
        <time>2021-04-28T13:40:01Z</time>
      </trkpt>
      <trkpt lat="45.00086" lon="4.16048">
        <ele>1290</ele>
        <time>2021-04-28T13:40:02Z</time>
      </trkpt>
      <trkpt lat="45.00087" lon="4.16041">
        <ele>1290</ele>
        <time>2021-04-28T13:40:03Z</time>
      </trkpt>
      <trkpt lat="45.00087" lon="4.16034">
        <ele>1290</ele>
        <time>2021-04-28T13:40:04Z</time>
      </trkpt>
      <trkpt lat="45.00084" lon="4.16021">
        <ele>1290</ele>
        <time>2021-04-28T13:40:05Z</time>
      </trkpt>
      <trkpt lat="45.00081" lon="4.16017">
        <ele>1290</ele>
        <time>2021-04-28T13:40:07Z</time>
      </trkpt>
      <trkpt lat="45.00077" lon="4.16015">
        <ele>1290</ele>
        <time>2021-04-28T13:40:08Z</time>
      </trkpt>
      <trkpt lat="45.00072" lon="4.16015">
        <ele>1290</ele>
        <time>2021-04-28T13:40:09Z</time>
      </trkpt>
      <trkpt lat="45.00068" lon="4.16015">
        <ele>1289</ele>
        <time>2021-04-28T13:40:10Z</time>
      </trkpt>
      <trkpt lat="45.00063" lon="4.16016">
        <ele>1289</ele>
        <time>2021-04-28T13:40:11Z</time>
      </trkpt>
      <trkpt lat="45.00058" lon="4.16017">
        <ele>1289</ele>
        <time>2021-04-28T13:40:12Z</time>
      </trkpt>
      <trkpt lat="45.00053" lon="4.16018">
        <ele>1289</ele>
        <time>2021-04-28T13:40:13Z</time>
      </trkpt>
      <trkpt lat="45.00048" lon="4.16019">
        <ele>1289</ele>
        <time>2021-04-28T13:40:14Z</time>
      </trkpt>
      <trkpt lat="45.00042" lon="4.1602">
        <ele>1289</ele>
        <time>2021-04-28T13:40:15Z</time>
      </trkpt>
      <trkpt lat="45.00037" lon="4.16021">
        <ele>1288</ele>
        <time>2021-04-28T13:40:16Z</time>
      </trkpt>
      <trkpt lat="45.00032" lon="4.16021">
        <ele>1288</ele>
        <time>2021-04-28T13:40:17Z</time>
      </trkpt>
      <trkpt lat="45.00027" lon="4.16022">
        <ele>1288</ele>
        <time>2021-04-28T13:40:18Z</time>
      </trkpt>
      <trkpt lat="45.00021" lon="4.16023">
        <ele>1288</ele>
        <time>2021-04-28T13:40:19Z</time>
      </trkpt>
      <trkpt lat="45.00016" lon="4.16023">
        <ele>1288</ele>
        <time>2021-04-28T13:40:20Z</time>
      </trkpt>
      <trkpt lat="45.00011" lon="4.16024">
        <ele>1287</ele>
        <time>2021-04-28T13:40:21Z</time>
      </trkpt>
      <trkpt lat="45.00006" lon="4.16025">
        <ele>1287</ele>
        <time>2021-04-28T13:40:22Z</time>
      </trkpt>
      <trkpt lat="45" lon="4.16026">
        <ele>1287</ele>
        <time>2021-04-28T13:40:23Z</time>
      </trkpt>
      <trkpt lat="44.9999" lon="4.16028">
        <ele>1287</ele>
        <time>2021-04-28T13:40:24Z</time>
      </trkpt>
      <trkpt lat="44.99985" lon="4.16029">
        <ele>1287</ele>
        <time>2021-04-28T13:40:26Z</time>
      </trkpt>
      <trkpt lat="44.99979" lon="4.16031">
        <ele>1286</ele>
        <time>2021-04-28T13:40:27Z</time>
      </trkpt>
      <trkpt lat="44.99974" lon="4.16033">
        <ele>1286</ele>
        <time>2021-04-28T13:40:28Z</time>
      </trkpt>
      <trkpt lat="44.99969" lon="4.16035">
        <ele>1286</ele>
        <time>2021-04-28T13:40:29Z</time>
      </trkpt>
      <trkpt lat="44.99964" lon="4.16036">
        <ele>1286</ele>
        <time>2021-04-28T13:40:30Z</time>
      </trkpt>
      <trkpt lat="44.99959" lon="4.16038">
        <ele>1286</ele>
        <time>2021-04-28T13:40:31Z</time>
      </trkpt>
      <trkpt lat="44.99954" lon="4.1604">
        <ele>1286</ele>
        <time>2021-04-28T13:40:32Z</time>
      </trkpt>
      <trkpt lat="44.99948" lon="4.16043">
        <ele>1286</ele>
        <time>2021-04-28T13:40:33Z</time>
      </trkpt>
      <trkpt lat="44.99942" lon="4.16045">
        <ele>1286</ele>
        <time>2021-04-28T13:40:34Z</time>
      </trkpt>
      <trkpt lat="44.99936" lon="4.16046">
        <ele>1286</ele>
        <time>2021-04-28T13:40:35Z</time>
      </trkpt>
      <trkpt lat="44.9993" lon="4.16047">
        <ele>1285</ele>
        <time>2021-04-28T13:40:36Z</time>
      </trkpt>
      <trkpt lat="44.99924" lon="4.16048">
        <ele>1285</ele>
        <time>2021-04-28T13:40:37Z</time>
      </trkpt>
      <trkpt lat="44.99918" lon="4.16049">
        <ele>1285</ele>
        <time>2021-04-28T13:40:38Z</time>
      </trkpt>
      <trkpt lat="44.99913" lon="4.16051">
        <ele>1285</ele>
        <time>2021-04-28T13:40:39Z</time>
      </trkpt>
      <trkpt lat="44.99907" lon="4.16052">
        <ele>1285</ele>
        <time>2021-04-28T13:40:40Z</time>
      </trkpt>
      <trkpt lat="44.99902" lon="4.16052">
        <ele>1285</ele>
        <time>2021-04-28T13:40:41Z</time>
      </trkpt>
      <trkpt lat="44.99897" lon="4.16052">
        <ele>1285</ele>
        <time>2021-04-28T13:40:42Z</time>
      </trkpt>
      <trkpt lat="44.99886" lon="4.16052">
        <ele>1285</ele>
        <time>2021-04-28T13:40:43Z</time>
      </trkpt>
      <trkpt lat="44.9988" lon="4.16053">
        <ele>1285</ele>
        <time>2021-04-28T13:40:45Z</time>
      </trkpt>
      <trkpt lat="44.99875" lon="4.16053">
        <ele>1285</ele>
        <time>2021-04-28T13:40:46Z</time>
      </trkpt>
      <trkpt lat="44.99869" lon="4.16054">
        <ele>1285</ele>
        <time>2021-04-28T13:40:47Z</time>
      </trkpt>
      <trkpt lat="44.99863" lon="4.16055">
        <ele>1284</ele>
        <time>2021-04-28T13:40:48Z</time>
      </trkpt>
      <trkpt lat="44.99858" lon="4.16056">
        <ele>1284</ele>
        <time>2021-04-28T13:40:49Z</time>
      </trkpt>
      <trkpt lat="44.99853" lon="4.16056">
        <ele>1284</ele>
        <time>2021-04-28T13:40:50Z</time>
      </trkpt>
      <trkpt lat="44.99847" lon="4.16057">
        <ele>1284</ele>
        <time>2021-04-28T13:40:51Z</time>
      </trkpt>
      <trkpt lat="44.99842" lon="4.16058">
        <ele>1284</ele>
        <time>2021-04-28T13:40:52Z</time>
      </trkpt>
      <trkpt lat="44.99836" lon="4.1606">
        <ele>1284</ele>
        <time>2021-04-28T13:40:53Z</time>
      </trkpt>
      <trkpt lat="44.99831" lon="4.16063">
        <ele>1284</ele>
        <time>2021-04-28T13:40:54Z</time>
      </trkpt>
      <trkpt lat="44.99826" lon="4.16066">
        <ele>1284</ele>
        <time>2021-04-28T13:40:55Z</time>
      </trkpt>
      <trkpt lat="44.99822" lon="4.1607">
        <ele>1284</ele>
        <time>2021-04-28T13:40:56Z</time>
      </trkpt>
      <trkpt lat="44.99817" lon="4.16075">
        <ele>1284</ele>
        <time>2021-04-28T13:40:57Z</time>
      </trkpt>
      <trkpt lat="44.99812" lon="4.16079">
        <ele>1284</ele>
        <time>2021-04-28T13:40:58Z</time>
      </trkpt>
      <trkpt lat="44.99808" lon="4.16084">
        <ele>1283</ele>
        <time>2021-04-28T13:40:59Z</time>
      </trkpt>
      <trkpt lat="44.99804" lon="4.16089">
        <ele>1283</ele>
        <time>2021-04-28T13:41:00Z</time>
      </trkpt>
      <trkpt lat="44.998" lon="4.16093">
        <ele>1283</ele>
        <time>2021-04-28T13:41:01Z</time>
      </trkpt>
      <trkpt lat="44.99796" lon="4.16097">
        <ele>1283</ele>
        <time>2021-04-28T13:41:02Z</time>
      </trkpt>
      <trkpt lat="44.99793" lon="4.16102">
        <ele>1283</ele>
        <time>2021-04-28T13:41:03Z</time>
      </trkpt>
      <trkpt lat="44.99789" lon="4.16107">
        <ele>1283</ele>
        <time>2021-04-28T13:41:04Z</time>
      </trkpt>
      <trkpt lat="44.99786" lon="4.16112">
        <ele>1283</ele>
        <time>2021-04-28T13:41:05Z</time>
      </trkpt>
      <trkpt lat="44.99783" lon="4.16118">
        <ele>1283</ele>
        <time>2021-04-28T13:41:06Z</time>
      </trkpt>
      <trkpt lat="44.99779" lon="4.16124">
        <ele>1283</ele>
        <time>2021-04-28T13:41:07Z</time>
      </trkpt>
      <trkpt lat="44.99776" lon="4.1613">
        <ele>1283</ele>
        <time>2021-04-28T13:41:08Z</time>
      </trkpt>
      <trkpt lat="44.99772" lon="4.16136">
        <ele>1283</ele>
        <time>2021-04-28T13:41:09Z</time>
      </trkpt>
      <trkpt lat="44.99768" lon="4.16142">
        <ele>1283</ele>
        <time>2021-04-28T13:41:10Z</time>
      </trkpt>
      <trkpt lat="44.99763" lon="4.16147">
        <ele>1282</ele>
        <time>2021-04-28T13:41:11Z</time>
      </trkpt>
      <trkpt lat="44.99759" lon="4.16152">
        <ele>1282</ele>
        <time>2021-04-28T13:41:12Z</time>
      </trkpt>
      <trkpt lat="44.99754" lon="4.16157">
        <ele>1282</ele>
        <time>2021-04-28T13:41:13Z</time>
      </trkpt>
      <trkpt lat="44.99749" lon="4.16161">
        <ele>1282</ele>
        <time>2021-04-28T13:41:14Z</time>
      </trkpt>
      <trkpt lat="44.99744" lon="4.16165">
        <ele>1282</ele>
        <time>2021-04-28T13:41:15Z</time>
      </trkpt>
      <trkpt lat="44.99738" lon="4.16169">
        <ele>1282</ele>
        <time>2021-04-28T13:41:16Z</time>
      </trkpt>
      <trkpt lat="44.99733" lon="4.16172">
        <ele>1282</ele>
        <time>2021-04-28T13:41:17Z</time>
      </trkpt>
      <trkpt lat="44.99728" lon="4.16175">
        <ele>1282</ele>
        <time>2021-04-28T13:41:18Z</time>
      </trkpt>
      <trkpt lat="44.99723" lon="4.16179">
        <ele>1282</ele>
        <time>2021-04-28T13:41:19Z</time>
      </trkpt>
      <trkpt lat="44.99718" lon="4.16182">
        <ele>1282</ele>
        <time>2021-04-28T13:41:20Z</time>
      </trkpt>
      <trkpt lat="44.99713" lon="4.16186">
        <ele>1283</ele>
        <time>2021-04-28T13:41:21Z</time>
      </trkpt>
      <trkpt lat="44.99708" lon="4.1619">
        <ele>1282</ele>
        <time>2021-04-28T13:41:22Z</time>
      </trkpt>
      <trkpt lat="44.99703" lon="4.16193">
        <ele>1282</ele>
        <time>2021-04-28T13:41:23Z</time>
      </trkpt>
      <trkpt lat="44.99698" lon="4.16197">
        <ele>1282</ele>
        <time>2021-04-28T13:41:24Z</time>
      </trkpt>
      <trkpt lat="44.99693" lon="4.162">
        <ele>1282</ele>
        <time>2021-04-28T13:41:25Z</time>
      </trkpt>
      <trkpt lat="44.99687" lon="4.16204">
        <ele>1282</ele>
        <time>2021-04-28T13:41:26Z</time>
      </trkpt>
      <trkpt lat="44.99683" lon="4.16207">
        <ele>1282</ele>
        <time>2021-04-28T13:41:27Z</time>
      </trkpt>
      <trkpt lat="44.99678" lon="4.16212">
        <ele>1282</ele>
        <time>2021-04-28T13:41:28Z</time>
      </trkpt>
      <trkpt lat="44.99675" lon="4.16218">
        <ele>1282</ele>
        <time>2021-04-28T13:41:29Z</time>
      </trkpt>
      <trkpt lat="44.99673" lon="4.16224">
        <ele>1282</ele>
        <time>2021-04-28T13:41:30Z</time>
      </trkpt>
      <trkpt lat="44.99671" lon="4.16231">
        <ele>1282</ele>
        <time>2021-04-28T13:41:31Z</time>
      </trkpt>
      <trkpt lat="44.99668" lon="4.16237">
        <ele>1282</ele>
        <time>2021-04-28T13:41:32Z</time>
      </trkpt>
      <trkpt lat="44.99665" lon="4.16242">
        <ele>1282</ele>
        <time>2021-04-28T13:41:33Z</time>
      </trkpt>
      <trkpt lat="44.99662" lon="4.16247">
        <ele>1281</ele>
        <time>2021-04-28T13:41:34Z</time>
      </trkpt>
      <trkpt lat="44.9966" lon="4.16253">
        <ele>1281</ele>
        <time>2021-04-28T13:41:35Z</time>
      </trkpt>
      <trkpt lat="44.99658" lon="4.1626">
        <ele>1281</ele>
        <time>2021-04-28T13:41:36Z</time>
      </trkpt>
      <trkpt lat="44.99655" lon="4.16266">
        <ele>1281</ele>
        <time>2021-04-28T13:41:37Z</time>
      </trkpt>
      <trkpt lat="44.99652" lon="4.16272">
        <ele>1281</ele>
        <time>2021-04-28T13:41:38Z</time>
      </trkpt>
      <trkpt lat="44.99648" lon="4.16276">
        <ele>1281</ele>
        <time>2021-04-28T13:41:39Z</time>
      </trkpt>
      <trkpt lat="44.99643" lon="4.16278">
        <ele>1281</ele>
        <time>2021-04-28T13:41:40Z</time>
      </trkpt>
      <trkpt lat="44.99638" lon="4.16279">
        <ele>1281</ele>
        <time>2021-04-28T13:41:41Z</time>
      </trkpt>
      <trkpt lat="44.99632" lon="4.1628">
        <ele>1281</ele>
        <time>2021-04-28T13:41:42Z</time>
      </trkpt>
      <trkpt lat="44.99626" lon="4.1628">
        <ele>1281</ele>
        <time>2021-04-28T13:41:43Z</time>
      </trkpt>
      <trkpt lat="44.9962" lon="4.16282">
        <ele>1281</ele>
        <time>2021-04-28T13:41:44Z</time>
      </trkpt>
      <trkpt lat="44.99615" lon="4.16283">
        <ele>1281</ele>
        <time>2021-04-28T13:41:45Z</time>
      </trkpt>
      <trkpt lat="44.99609" lon="4.16284">
        <ele>1281</ele>
        <time>2021-04-28T13:41:46Z</time>
      </trkpt>
      <trkpt lat="44.99602" lon="4.16285">
        <ele>1281</ele>
        <time>2021-04-28T13:41:47Z</time>
      </trkpt>
      <trkpt lat="44.99597" lon="4.16286">
        <ele>1280</ele>
        <time>2021-04-28T13:41:48Z</time>
      </trkpt>
      <trkpt lat="44.99591" lon="4.16287">
        <ele>1280</ele>
        <time>2021-04-28T13:41:49Z</time>
      </trkpt>
      <trkpt lat="44.99585" lon="4.16288">
        <ele>1280</ele>
        <time>2021-04-28T13:41:50Z</time>
      </trkpt>
      <trkpt lat="44.9958" lon="4.16289">
        <ele>1280</ele>
        <time>2021-04-28T13:41:51Z</time>
      </trkpt>
      <trkpt lat="44.99574" lon="4.1629">
        <ele>1280</ele>
        <time>2021-04-28T13:41:52Z</time>
      </trkpt>
      <trkpt lat="44.99569" lon="4.16292">
        <ele>1280</ele>
        <time>2021-04-28T13:41:53Z</time>
      </trkpt>
      <trkpt lat="44.99563" lon="4.16294">
        <ele>1280</ele>
        <time>2021-04-28T13:41:54Z</time>
      </trkpt>
      <trkpt lat="44.99559" lon="4.16298">
        <ele>1280</ele>
        <time>2021-04-28T13:41:55Z</time>
      </trkpt>
      <trkpt lat="44.99555" lon="4.16304">
        <ele>1280</ele>
        <time>2021-04-28T13:41:56Z</time>
      </trkpt>
      <trkpt lat="44.99553" lon="4.16311">
        <ele>1279</ele>
        <time>2021-04-28T13:41:57Z</time>
      </trkpt>
      <trkpt lat="44.99552" lon="4.16319">
        <ele>1279</ele>
        <time>2021-04-28T13:41:58Z</time>
      </trkpt>
      <trkpt lat="44.99552" lon="4.16328">
        <ele>1279</ele>
        <time>2021-04-28T13:41:59Z</time>
      </trkpt>
      <trkpt lat="44.99553" lon="4.16337">
        <ele>1279</ele>
        <time>2021-04-28T13:42:00Z</time>
      </trkpt>
      <trkpt lat="44.99555" lon="4.16345">
        <ele>1278</ele>
        <time>2021-04-28T13:42:01Z</time>
      </trkpt>
      <trkpt lat="44.99558" lon="4.16352">
        <ele>1278</ele>
        <time>2021-04-28T13:42:02Z</time>
      </trkpt>
      <trkpt lat="44.99561" lon="4.16359">
        <ele>1278</ele>
        <time>2021-04-28T13:42:03Z</time>
      </trkpt>
      <trkpt lat="44.99565" lon="4.16365">
        <ele>1278</ele>
        <time>2021-04-28T13:42:04Z</time>
      </trkpt>
      <trkpt lat="44.99568" lon="4.16371">
        <ele>1278</ele>
        <time>2021-04-28T13:42:05Z</time>
      </trkpt>
      <trkpt lat="44.99572" lon="4.16376">
        <ele>1278</ele>
        <time>2021-04-28T13:42:06Z</time>
      </trkpt>
      <trkpt lat="44.99574" lon="4.16381">
        <ele>1278</ele>
        <time>2021-04-28T13:42:07Z</time>
      </trkpt>
      <trkpt lat="44.99574" lon="4.16386">
        <ele>1278</ele>
        <time>2021-04-28T13:42:08Z</time>
      </trkpt>
      <trkpt lat="44.99572" lon="4.16392">
        <ele>1278</ele>
        <time>2021-04-28T13:42:09Z</time>
      </trkpt>
      <trkpt lat="44.99568" lon="4.16397">
        <ele>1277</ele>
        <time>2021-04-28T13:42:10Z</time>
      </trkpt>
      <trkpt lat="44.99564" lon="4.16402">
        <ele>1277</ele>
        <time>2021-04-28T13:42:11Z</time>
      </trkpt>
      <trkpt lat="44.9956" lon="4.16407">
        <ele>1277</ele>
        <time>2021-04-28T13:42:12Z</time>
      </trkpt>
      <trkpt lat="44.99556" lon="4.16412">
        <ele>1276</ele>
        <time>2021-04-28T13:42:13Z</time>
      </trkpt>
      <trkpt lat="44.99551" lon="4.16417">
        <ele>1276</ele>
        <time>2021-04-28T13:42:14Z</time>
      </trkpt>
      <trkpt lat="44.99545" lon="4.16421">
        <ele>1276</ele>
        <time>2021-04-28T13:42:15Z</time>
      </trkpt>
      <trkpt lat="44.9954" lon="4.16425">
        <ele>1275</ele>
        <time>2021-04-28T13:42:16Z</time>
      </trkpt>
      <trkpt lat="44.99534" lon="4.16428">
        <ele>1275</ele>
        <time>2021-04-28T13:42:17Z</time>
      </trkpt>
      <trkpt lat="44.99529" lon="4.16431">
        <ele>1275</ele>
        <time>2021-04-28T13:42:18Z</time>
      </trkpt>
      <trkpt lat="44.99524" lon="4.16434">
        <ele>1274</ele>
        <time>2021-04-28T13:42:19Z</time>
      </trkpt>
      <trkpt lat="44.99522" lon="4.16438">
        <ele>1274</ele>
        <time>2021-04-28T13:42:20Z</time>
      </trkpt>
      <trkpt lat="44.99521" lon="4.16445">
        <ele>1274</ele>
        <time>2021-04-28T13:42:21Z</time>
      </trkpt>
      <trkpt lat="44.99521" lon="4.16453">
        <ele>1274</ele>
        <time>2021-04-28T13:42:22Z</time>
      </trkpt>
      <trkpt lat="44.99522" lon="4.16462">
        <ele>1273</ele>
        <time>2021-04-28T13:42:23Z</time>
      </trkpt>
      <trkpt lat="44.99522" lon="4.16472">
        <ele>1272</ele>
        <time>2021-04-28T13:42:24Z</time>
      </trkpt>
      <trkpt lat="44.99523" lon="4.16483">
        <ele>1272</ele>
        <time>2021-04-28T13:42:25Z</time>
      </trkpt>
      <trkpt lat="44.99524" lon="4.16494">
        <ele>1271</ele>
        <time>2021-04-28T13:42:26Z</time>
      </trkpt>
      <trkpt lat="44.99525" lon="4.16505">
        <ele>1270</ele>
        <time>2021-04-28T13:42:27Z</time>
      </trkpt>
      <trkpt lat="44.99525" lon="4.16517">
        <ele>1270</ele>
        <time>2021-04-28T13:42:28Z</time>
      </trkpt>
      <trkpt lat="44.99526" lon="4.16529">
        <ele>1269</ele>
        <time>2021-04-28T13:42:29Z</time>
      </trkpt>
      <trkpt lat="44.99527" lon="4.16541">
        <ele>1268</ele>
        <time>2021-04-28T13:42:30Z</time>
      </trkpt>
      <trkpt lat="44.99528" lon="4.16554">
        <ele>1268</ele>
        <time>2021-04-28T13:42:31Z</time>
      </trkpt>
      <trkpt lat="44.99529" lon="4.16566">
        <ele>1267</ele>
        <time>2021-04-28T13:42:32Z</time>
      </trkpt>
      <trkpt lat="44.9953" lon="4.16579">
        <ele>1267</ele>
        <time>2021-04-28T13:42:33Z</time>
      </trkpt>
      <trkpt lat="44.99531" lon="4.16591">
        <ele>1266</ele>
        <time>2021-04-28T13:42:34Z</time>
      </trkpt>
      <trkpt lat="44.99532" lon="4.16603">
        <ele>1266</ele>
        <time>2021-04-28T13:42:35Z</time>
      </trkpt>
      <trkpt lat="44.99533" lon="4.16616">
        <ele>1266</ele>
        <time>2021-04-28T13:42:36Z</time>
      </trkpt>
      <trkpt lat="44.99535" lon="4.1664">
        <ele>1265</ele>
        <time>2021-04-28T13:42:37Z</time>
      </trkpt>
      <trkpt lat="44.99535" lon="4.16652">
        <ele>1265</ele>
        <time>2021-04-28T13:42:39Z</time>
      </trkpt>
      <trkpt lat="44.99536" lon="4.16664">
        <ele>1264</ele>
        <time>2021-04-28T13:42:40Z</time>
      </trkpt>
      <trkpt lat="44.99537" lon="4.16675">
        <ele>1264</ele>
        <time>2021-04-28T13:42:41Z</time>
      </trkpt>
      <trkpt lat="44.99538" lon="4.16686">
        <ele>1264</ele>
        <time>2021-04-28T13:42:42Z</time>
      </trkpt>
      <trkpt lat="44.99539" lon="4.16696">
        <ele>1264</ele>
        <time>2021-04-28T13:42:43Z</time>
      </trkpt>
      <trkpt lat="44.99539" lon="4.16706">
        <ele>1263</ele>
        <time>2021-04-28T13:42:44Z</time>
      </trkpt>
      <trkpt lat="44.9954" lon="4.16716">
        <ele>1263</ele>
        <time>2021-04-28T13:42:45Z</time>
      </trkpt>
      <trkpt lat="44.99541" lon="4.16726">
        <ele>1263</ele>
        <time>2021-04-28T13:42:46Z</time>
      </trkpt>
      <trkpt lat="44.99542" lon="4.16736">
        <ele>1263</ele>
        <time>2021-04-28T13:42:47Z</time>
      </trkpt>
      <trkpt lat="44.99542" lon="4.16746">
        <ele>1263</ele>
        <time>2021-04-28T13:42:48Z</time>
      </trkpt>
      <trkpt lat="44.99543" lon="4.16755">
        <ele>1263</ele>
        <time>2021-04-28T13:42:49Z</time>
      </trkpt>
      <trkpt lat="44.99544" lon="4.16765">
        <ele>1263</ele>
        <time>2021-04-28T13:42:50Z</time>
      </trkpt>
      <trkpt lat="44.99544" lon="4.16774">
        <ele>1263</ele>
        <time>2021-04-28T13:42:51Z</time>
      </trkpt>
      <trkpt lat="44.99545" lon="4.16783">
        <ele>1263</ele>
        <time>2021-04-28T13:42:52Z</time>
      </trkpt>
      <trkpt lat="44.99546" lon="4.16792">
        <ele>1263</ele>
        <time>2021-04-28T13:42:53Z</time>
      </trkpt>
      <trkpt lat="44.99546" lon="4.16801">
        <ele>1263</ele>
        <time>2021-04-28T13:42:54Z</time>
      </trkpt>
      <trkpt lat="44.99547" lon="4.1681">
        <ele>1263</ele>
        <time>2021-04-28T13:42:55Z</time>
      </trkpt>
      <trkpt lat="44.99547" lon="4.16819">
        <ele>1263</ele>
        <time>2021-04-28T13:42:56Z</time>
      </trkpt>
      <trkpt lat="44.99548" lon="4.16828">
        <ele>1263</ele>
        <time>2021-04-28T13:42:57Z</time>
      </trkpt>
      <trkpt lat="44.99549" lon="4.16837">
        <ele>1263</ele>
        <time>2021-04-28T13:42:58Z</time>
      </trkpt>
      <trkpt lat="44.99549" lon="4.16845">
        <ele>1263</ele>
        <time>2021-04-28T13:42:59Z</time>
      </trkpt>
      <trkpt lat="44.9955" lon="4.16854">
        <ele>1263</ele>
        <time>2021-04-28T13:43:00Z</time>
      </trkpt>
      <trkpt lat="44.99551" lon="4.16862">
        <ele>1263</ele>
        <time>2021-04-28T13:43:01Z</time>
      </trkpt>
      <trkpt lat="44.99551" lon="4.1687">
        <ele>1263</ele>
        <time>2021-04-28T13:43:02Z</time>
      </trkpt>
      <trkpt lat="44.99552" lon="4.16878">
        <ele>1263</ele>
        <time>2021-04-28T13:43:03Z</time>
      </trkpt>
      <trkpt lat="44.99552" lon="4.16886">
        <ele>1264</ele>
        <time>2021-04-28T13:43:04Z</time>
      </trkpt>
      <trkpt lat="44.99553" lon="4.16893">
        <ele>1264</ele>
        <time>2021-04-28T13:43:05Z</time>
      </trkpt>
      <trkpt lat="44.99554" lon="4.16901">
        <ele>1264</ele>
        <time>2021-04-28T13:43:06Z</time>
      </trkpt>
      <trkpt lat="44.99554" lon="4.16908">
        <ele>1264</ele>
        <time>2021-04-28T13:43:07Z</time>
      </trkpt>
      <trkpt lat="44.99555" lon="4.16916">
        <ele>1264</ele>
        <time>2021-04-28T13:43:08Z</time>
      </trkpt>
      <trkpt lat="44.99555" lon="4.16924">
        <ele>1264</ele>
        <time>2021-04-28T13:43:09Z</time>
      </trkpt>
      <trkpt lat="44.99555" lon="4.16931">
        <ele>1264</ele>
        <time>2021-04-28T13:43:10Z</time>
      </trkpt>
      <trkpt lat="44.99556" lon="4.16939">
        <ele>1264</ele>
        <time>2021-04-28T13:43:11Z</time>
      </trkpt>
      <trkpt lat="44.99555" lon="4.16946">
        <ele>1264</ele>
        <time>2021-04-28T13:43:12Z</time>
      </trkpt>
      <trkpt lat="44.99555" lon="4.16953">
        <ele>1265</ele>
        <time>2021-04-28T13:43:13Z</time>
      </trkpt>
      <trkpt lat="44.99554" lon="4.16961">
        <ele>1265</ele>
        <time>2021-04-28T13:43:14Z</time>
      </trkpt>
      <trkpt lat="44.99553" lon="4.16968">
        <ele>1265</ele>
        <time>2021-04-28T13:43:15Z</time>
      </trkpt>
      <trkpt lat="44.99552" lon="4.16974">
        <ele>1266</ele>
        <time>2021-04-28T13:43:16Z</time>
      </trkpt>
      <trkpt lat="44.9955" lon="4.16981">
        <ele>1266</ele>
        <time>2021-04-28T13:43:17Z</time>
      </trkpt>
      <trkpt lat="44.99548" lon="4.16988">
        <ele>1266</ele>
        <time>2021-04-28T13:43:18Z</time>
      </trkpt>
      <trkpt lat="44.99546" lon="4.16994">
        <ele>1266</ele>
        <time>2021-04-28T13:43:19Z</time>
      </trkpt>
      <trkpt lat="44.99544" lon="4.17001">
        <ele>1267</ele>
        <time>2021-04-28T13:43:20Z</time>
      </trkpt>
      <trkpt lat="44.99542" lon="4.17007">
        <ele>1267</ele>
        <time>2021-04-28T13:43:21Z</time>
      </trkpt>
      <trkpt lat="44.9954" lon="4.17014">
        <ele>1267</ele>
        <time>2021-04-28T13:43:22Z</time>
      </trkpt>
      <trkpt lat="44.99539" lon="4.1702">
        <ele>1267</ele>
        <time>2021-04-28T13:43:23Z</time>
      </trkpt>
      <trkpt lat="44.99537" lon="4.17027">
        <ele>1268</ele>
        <time>2021-04-28T13:43:24Z</time>
      </trkpt>
      <trkpt lat="44.99535" lon="4.17033">
        <ele>1268</ele>
        <time>2021-04-28T13:43:25Z</time>
      </trkpt>
      <trkpt lat="44.99533" lon="4.17039">
        <ele>1268</ele>
        <time>2021-04-28T13:43:26Z</time>
      </trkpt>
      <trkpt lat="44.99532" lon="4.17045">
        <ele>1268</ele>
        <time>2021-04-28T13:43:27Z</time>
      </trkpt>
      <trkpt lat="44.9953" lon="4.17051">
        <ele>1269</ele>
        <time>2021-04-28T13:43:28Z</time>
      </trkpt>
      <trkpt lat="44.99528" lon="4.17058">
        <ele>1269</ele>
        <time>2021-04-28T13:43:29Z</time>
      </trkpt>
      <trkpt lat="44.99526" lon="4.17064">
        <ele>1269</ele>
        <time>2021-04-28T13:43:30Z</time>
      </trkpt>
      <trkpt lat="44.99525" lon="4.1707">
        <ele>1269</ele>
        <time>2021-04-28T13:43:31Z</time>
      </trkpt>
      <trkpt lat="44.99523" lon="4.17076">
        <ele>1270</ele>
        <time>2021-04-28T13:43:32Z</time>
      </trkpt>
      <trkpt lat="44.99521" lon="4.17082">
        <ele>1270</ele>
        <time>2021-04-28T13:43:33Z</time>
      </trkpt>
      <trkpt lat="44.9952" lon="4.17088">
        <ele>1270</ele>
        <time>2021-04-28T13:43:34Z</time>
      </trkpt>
      <trkpt lat="44.99518" lon="4.17094">
        <ele>1270</ele>
        <time>2021-04-28T13:43:35Z</time>
      </trkpt>
      <trkpt lat="44.99516" lon="4.171">
        <ele>1271</ele>
        <time>2021-04-28T13:43:36Z</time>
      </trkpt>
      <trkpt lat="44.99514" lon="4.17106">
        <ele>1271</ele>
        <time>2021-04-28T13:43:37Z</time>
      </trkpt>
      <trkpt lat="44.99513" lon="4.17112">
        <ele>1271</ele>
        <time>2021-04-28T13:43:38Z</time>
      </trkpt>
      <trkpt lat="44.99512" lon="4.17118">
        <ele>1272</ele>
        <time>2021-04-28T13:43:39Z</time>
      </trkpt>
      <trkpt lat="44.99512" lon="4.17124">
        <ele>1272</ele>
        <time>2021-04-28T13:43:40Z</time>
      </trkpt>
      <trkpt lat="44.99512" lon="4.1713">
        <ele>1272</ele>
        <time>2021-04-28T13:43:41Z</time>
      </trkpt>
      <trkpt lat="44.99513" lon="4.17136">
        <ele>1272</ele>
        <time>2021-04-28T13:43:42Z</time>
      </trkpt>
      <trkpt lat="44.99515" lon="4.17142">
        <ele>1273</ele>
        <time>2021-04-28T13:43:43Z</time>
      </trkpt>
      <trkpt lat="44.99517" lon="4.17147">
        <ele>1273</ele>
        <time>2021-04-28T13:43:44Z</time>
      </trkpt>
      <trkpt lat="44.99519" lon="4.17152">
        <ele>1273</ele>
        <time>2021-04-28T13:43:45Z</time>
      </trkpt>
      <trkpt lat="44.99522" lon="4.17157">
        <ele>1273</ele>
        <time>2021-04-28T13:43:46Z</time>
      </trkpt>
      <trkpt lat="44.99524" lon="4.17162">
        <ele>1273</ele>
        <time>2021-04-28T13:43:47Z</time>
      </trkpt>
      <trkpt lat="44.99526" lon="4.17167">
        <ele>1274</ele>
        <time>2021-04-28T13:43:48Z</time>
      </trkpt>
      <trkpt lat="44.99528" lon="4.17173">
        <ele>1274</ele>
        <time>2021-04-28T13:43:49Z</time>
      </trkpt>
      <trkpt lat="44.9953" lon="4.17178">
        <ele>1274</ele>
        <time>2021-04-28T13:43:50Z</time>
      </trkpt>
      <trkpt lat="44.99531" lon="4.17184">
        <ele>1274</ele>
        <time>2021-04-28T13:43:51Z</time>
      </trkpt>
      <trkpt lat="44.99532" lon="4.1719">
        <ele>1274</ele>
        <time>2021-04-28T13:43:52Z</time>
      </trkpt>
      <trkpt lat="44.99532" lon="4.17201">
        <ele>1275</ele>
        <time>2021-04-28T13:43:53Z</time>
      </trkpt>
      <trkpt lat="44.9953" lon="4.17207">
        <ele>1275</ele>
        <time>2021-04-28T13:43:55Z</time>
      </trkpt>
      <trkpt lat="44.99529" lon="4.17212">
        <ele>1275</ele>
        <time>2021-04-28T13:43:56Z</time>
      </trkpt>
      <trkpt lat="44.99527" lon="4.17217">
        <ele>1276</ele>
        <time>2021-04-28T13:43:57Z</time>
      </trkpt>
      <trkpt lat="44.99524" lon="4.17221">
        <ele>1276</ele>
        <time>2021-04-28T13:43:58Z</time>
      </trkpt>
      <trkpt lat="44.99521" lon="4.17224">
        <ele>1277</ele>
        <time>2021-04-28T13:43:59Z</time>
      </trkpt>
      <trkpt lat="44.99518" lon="4.17226">
        <ele>1277</ele>
        <time>2021-04-28T13:44:00Z</time>
      </trkpt>
      <trkpt lat="44.99515" lon="4.17228">
        <ele>1278</ele>
        <time>2021-04-28T13:44:01Z</time>
      </trkpt>
      <trkpt lat="44.99511" lon="4.1723">
        <ele>1278</ele>
        <time>2021-04-28T13:44:02Z</time>
      </trkpt>
      <trkpt lat="44.99508" lon="4.17232">
        <ele>1278</ele>
        <time>2021-04-28T13:44:03Z</time>
      </trkpt>
      <trkpt lat="44.99504" lon="4.17234">
        <ele>1279</ele>
        <time>2021-04-28T13:44:04Z</time>
      </trkpt>
      <trkpt lat="44.995" lon="4.17237">
        <ele>1279</ele>
        <time>2021-04-28T13:44:05Z</time>
      </trkpt>
      <trkpt lat="44.99496" lon="4.1724">
        <ele>1280</ele>
        <time>2021-04-28T13:44:06Z</time>
      </trkpt>
      <trkpt lat="44.99493" lon="4.17243">
        <ele>1280</ele>
        <time>2021-04-28T13:44:07Z</time>
      </trkpt>
      <trkpt lat="44.99489" lon="4.17246">
        <ele>1280</ele>
        <time>2021-04-28T13:44:08Z</time>
      </trkpt>
      <trkpt lat="44.99485" lon="4.17248">
        <ele>1280</ele>
        <time>2021-04-28T13:44:09Z</time>
      </trkpt>
      <trkpt lat="44.99481" lon="4.1725">
        <ele>1281</ele>
        <time>2021-04-28T13:44:10Z</time>
      </trkpt>
      <trkpt lat="44.99477" lon="4.17252">
        <ele>1281</ele>
        <time>2021-04-28T13:44:11Z</time>
      </trkpt>
      <trkpt lat="44.99468" lon="4.17257">
        <ele>1281</ele>
        <time>2021-04-28T13:44:12Z</time>
      </trkpt>
      <trkpt lat="44.99464" lon="4.1726">
        <ele>1282</ele>
        <time>2021-04-28T13:44:14Z</time>
      </trkpt>
      <trkpt lat="44.99459" lon="4.17262">
        <ele>1282</ele>
        <time>2021-04-28T13:44:15Z</time>
      </trkpt>
      <trkpt lat="44.99455" lon="4.17265">
        <ele>1282</ele>
        <time>2021-04-28T13:44:16Z</time>
      </trkpt>
      <trkpt lat="44.9945" lon="4.17268">
        <ele>1282</ele>
        <time>2021-04-28T13:44:17Z</time>
      </trkpt>
      <trkpt lat="44.99446" lon="4.17271">
        <ele>1282</ele>
        <time>2021-04-28T13:44:18Z</time>
      </trkpt>
      <trkpt lat="44.99441" lon="4.17274">
        <ele>1283</ele>
        <time>2021-04-28T13:44:19Z</time>
      </trkpt>
      <trkpt lat="44.99437" lon="4.17276">
        <ele>1283</ele>
        <time>2021-04-28T13:44:20Z</time>
      </trkpt>
      <trkpt lat="44.99432" lon="4.17279">
        <ele>1283</ele>
        <time>2021-04-28T13:44:21Z</time>
      </trkpt>
      <trkpt lat="44.99428" lon="4.17282">
        <ele>1283</ele>
        <time>2021-04-28T13:44:22Z</time>
      </trkpt>
      <trkpt lat="44.99423" lon="4.17285">
        <ele>1283</ele>
        <time>2021-04-28T13:44:23Z</time>
      </trkpt>
      <trkpt lat="44.99419" lon="4.17288">
        <ele>1283</ele>
        <time>2021-04-28T13:44:24Z</time>
      </trkpt>
      <trkpt lat="44.99415" lon="4.17291">
        <ele>1284</ele>
        <time>2021-04-28T13:44:25Z</time>
      </trkpt>
      <trkpt lat="44.9941" lon="4.17294">
        <ele>1284</ele>
        <time>2021-04-28T13:44:26Z</time>
      </trkpt>
      <trkpt lat="44.99406" lon="4.17297">
        <ele>1284</ele>
        <time>2021-04-28T13:44:27Z</time>
      </trkpt>
      <trkpt lat="44.99401" lon="4.17301">
        <ele>1284</ele>
        <time>2021-04-28T13:44:28Z</time>
      </trkpt>
      <trkpt lat="44.99397" lon="4.17304">
        <ele>1284</ele>
        <time>2021-04-28T13:44:29Z</time>
      </trkpt>
      <trkpt lat="44.99393" lon="4.17308">
        <ele>1285</ele>
        <time>2021-04-28T13:44:30Z</time>
      </trkpt>
      <trkpt lat="44.99384" lon="4.17316">
        <ele>1285</ele>
        <time>2021-04-28T13:44:31Z</time>
      </trkpt>
      <trkpt lat="44.99381" lon="4.1732">
        <ele>1286</ele>
        <time>2021-04-28T13:44:33Z</time>
      </trkpt>
      <trkpt lat="44.99377" lon="4.17324">
        <ele>1286</ele>
        <time>2021-04-28T13:44:34Z</time>
      </trkpt>
      <trkpt lat="44.99374" lon="4.17329">
        <ele>1286</ele>
        <time>2021-04-28T13:44:35Z</time>
      </trkpt>
      <trkpt lat="44.9937" lon="4.17334">
        <ele>1287</ele>
        <time>2021-04-28T13:44:36Z</time>
      </trkpt>
      <trkpt lat="44.99368" lon="4.1734">
        <ele>1287</ele>
        <time>2021-04-28T13:44:37Z</time>
      </trkpt>
      <trkpt lat="44.99365" lon="4.17345">
        <ele>1287</ele>
        <time>2021-04-28T13:44:38Z</time>
      </trkpt>
      <trkpt lat="44.99362" lon="4.17351">
        <ele>1287</ele>
        <time>2021-04-28T13:44:39Z</time>
      </trkpt>
      <trkpt lat="44.9936" lon="4.17357">
        <ele>1288</ele>
        <time>2021-04-28T13:44:40Z</time>
      </trkpt>
      <trkpt lat="44.99357" lon="4.17362">
        <ele>1288</ele>
        <time>2021-04-28T13:44:41Z</time>
      </trkpt>
      <trkpt lat="44.99355" lon="4.17368">
        <ele>1288</ele>
        <time>2021-04-28T13:44:42Z</time>
      </trkpt>
      <trkpt lat="44.99352" lon="4.17373">
        <ele>1288</ele>
        <time>2021-04-28T13:44:43Z</time>
      </trkpt>
      <trkpt lat="44.9935" lon="4.17379">
        <ele>1288</ele>
        <time>2021-04-28T13:44:44Z</time>
      </trkpt>
      <trkpt lat="44.99348" lon="4.17385">
        <ele>1288</ele>
        <time>2021-04-28T13:44:45Z</time>
      </trkpt>
      <trkpt lat="44.99345" lon="4.17391">
        <ele>1288</ele>
        <time>2021-04-28T13:44:46Z</time>
      </trkpt>
      <trkpt lat="44.99343" lon="4.17397">
        <ele>1289</ele>
        <time>2021-04-28T13:44:47Z</time>
      </trkpt>
      <trkpt lat="44.99342" lon="4.17403">
        <ele>1289</ele>
        <time>2021-04-28T13:44:48Z</time>
      </trkpt>
      <trkpt lat="44.9934" lon="4.1741">
        <ele>1289</ele>
        <time>2021-04-28T13:44:49Z</time>
      </trkpt>
      <trkpt lat="44.99338" lon="4.17424">
        <ele>1289</ele>
        <time>2021-04-28T13:44:50Z</time>
      </trkpt>
      <trkpt lat="44.99337" lon="4.17431">
        <ele>1289</ele>
        <time>2021-04-28T13:44:52Z</time>
      </trkpt>
      <trkpt lat="44.99336" lon="4.17438">
        <ele>1289</ele>
        <time>2021-04-28T13:44:53Z</time>
      </trkpt>
      <trkpt lat="44.99335" lon="4.17445">
        <ele>1289</ele>
        <time>2021-04-28T13:44:54Z</time>
      </trkpt>
      <trkpt lat="44.99333" lon="4.17452">
        <ele>1289</ele>
        <time>2021-04-28T13:44:55Z</time>
      </trkpt>
      <trkpt lat="44.99332" lon="4.17459">
        <ele>1289</ele>
        <time>2021-04-28T13:44:56Z</time>
      </trkpt>
      <trkpt lat="44.9933" lon="4.17466">
        <ele>1289</ele>
        <time>2021-04-28T13:44:57Z</time>
      </trkpt>
      <trkpt lat="44.99329" lon="4.17473">
        <ele>1289</ele>
        <time>2021-04-28T13:44:58Z</time>
      </trkpt>
      <trkpt lat="44.99328" lon="4.1748">
        <ele>1289</ele>
        <time>2021-04-28T13:44:59Z</time>
      </trkpt>
      <trkpt lat="44.99326" lon="4.17488">
        <ele>1289</ele>
        <time>2021-04-28T13:45:00Z</time>
      </trkpt>
      <trkpt lat="44.99325" lon="4.17496">
        <ele>1289</ele>
        <time>2021-04-28T13:45:01Z</time>
      </trkpt>
      <trkpt lat="44.99324" lon="4.17504">
        <ele>1289</ele>
        <time>2021-04-28T13:45:02Z</time>
      </trkpt>
      <trkpt lat="44.99323" lon="4.17512">
        <ele>1289</ele>
        <time>2021-04-28T13:45:03Z</time>
      </trkpt>
      <trkpt lat="44.99322" lon="4.1752">
        <ele>1289</ele>
        <time>2021-04-28T13:45:04Z</time>
      </trkpt>
      <trkpt lat="44.9932" lon="4.17528">
        <ele>1289</ele>
        <time>2021-04-28T13:45:05Z</time>
      </trkpt>
      <trkpt lat="44.99319" lon="4.17536">
        <ele>1289</ele>
        <time>2021-04-28T13:45:06Z</time>
      </trkpt>
      <trkpt lat="44.99319" lon="4.17545">
        <ele>1290</ele>
        <time>2021-04-28T13:45:07Z</time>
      </trkpt>
      <trkpt lat="44.99318" lon="4.17553">
        <ele>1290</ele>
        <time>2021-04-28T13:45:08Z</time>
      </trkpt>
      <trkpt lat="44.99317" lon="4.17561">
        <ele>1290</ele>
        <time>2021-04-28T13:45:09Z</time>
      </trkpt>
      <trkpt lat="44.99316" lon="4.17569">
        <ele>1290</ele>
        <time>2021-04-28T13:45:10Z</time>
      </trkpt>
      <trkpt lat="44.99315" lon="4.17578">
        <ele>1290</ele>
        <time>2021-04-28T13:45:11Z</time>
      </trkpt>
      <trkpt lat="44.99314" lon="4.17585">
        <ele>1290</ele>
        <time>2021-04-28T13:45:12Z</time>
      </trkpt>
      <trkpt lat="44.99313" lon="4.17593">
        <ele>1290</ele>
        <time>2021-04-28T13:45:13Z</time>
      </trkpt>
      <trkpt lat="44.99312" lon="4.17601">
        <ele>1291</ele>
        <time>2021-04-28T13:45:14Z</time>
      </trkpt>
      <trkpt lat="44.99311" lon="4.17609">
        <ele>1291</ele>
        <time>2021-04-28T13:45:15Z</time>
      </trkpt>
      <trkpt lat="44.9931" lon="4.17616">
        <ele>1291</ele>
        <time>2021-04-28T13:45:16Z</time>
      </trkpt>
      <trkpt lat="44.9931" lon="4.17624">
        <ele>1291</ele>
        <time>2021-04-28T13:45:17Z</time>
      </trkpt>
      <trkpt lat="44.99309" lon="4.17631">
        <ele>1291</ele>
        <time>2021-04-28T13:45:18Z</time>
      </trkpt>
      <trkpt lat="44.99309" lon="4.17639">
        <ele>1292</ele>
        <time>2021-04-28T13:45:19Z</time>
      </trkpt>
      <trkpt lat="44.99308" lon="4.17646">
        <ele>1292</ele>
        <time>2021-04-28T13:45:20Z</time>
      </trkpt>
      <trkpt lat="44.99308" lon="4.17654">
        <ele>1292</ele>
        <time>2021-04-28T13:45:21Z</time>
      </trkpt>
      <trkpt lat="44.99307" lon="4.17662">
        <ele>1292</ele>
        <time>2021-04-28T13:45:22Z</time>
      </trkpt>
      <trkpt lat="44.99306" lon="4.17669">
        <ele>1292</ele>
        <time>2021-04-28T13:45:23Z</time>
      </trkpt>
      <trkpt lat="44.99306" lon="4.17677">
        <ele>1292</ele>
        <time>2021-04-28T13:45:24Z</time>
      </trkpt>
      <trkpt lat="44.99305" lon="4.17685">
        <ele>1293</ele>
        <time>2021-04-28T13:45:25Z</time>
      </trkpt>
      <trkpt lat="44.99304" lon="4.17692">
        <ele>1293</ele>
        <time>2021-04-28T13:45:26Z</time>
      </trkpt>
      <trkpt lat="44.99303" lon="4.177">
        <ele>1293</ele>
        <time>2021-04-28T13:45:27Z</time>
      </trkpt>
      <trkpt lat="44.99302" lon="4.17708">
        <ele>1293</ele>
        <time>2021-04-28T13:45:28Z</time>
      </trkpt>
      <trkpt lat="44.99301" lon="4.17715">
        <ele>1293</ele>
        <time>2021-04-28T13:45:29Z</time>
      </trkpt>
      <trkpt lat="44.99301" lon="4.17723">
        <ele>1293</ele>
        <time>2021-04-28T13:45:30Z</time>
      </trkpt>
      <trkpt lat="44.993" lon="4.17731">
        <ele>1293</ele>
        <time>2021-04-28T13:45:31Z</time>
      </trkpt>
      <trkpt lat="44.993" lon="4.17739">
        <ele>1294</ele>
        <time>2021-04-28T13:45:32Z</time>
      </trkpt>
      <trkpt lat="44.99299" lon="4.17746">
        <ele>1294</ele>
        <time>2021-04-28T13:45:33Z</time>
      </trkpt>
      <trkpt lat="44.99298" lon="4.17754">
        <ele>1294</ele>
        <time>2021-04-28T13:45:34Z</time>
      </trkpt>
      <trkpt lat="44.99297" lon="4.17761">
        <ele>1294</ele>
        <time>2021-04-28T13:45:35Z</time>
      </trkpt>
      <trkpt lat="44.99297" lon="4.17769">
        <ele>1294</ele>
        <time>2021-04-28T13:45:36Z</time>
      </trkpt>
      <trkpt lat="44.99296" lon="4.17776">
        <ele>1294</ele>
        <time>2021-04-28T13:45:37Z</time>
      </trkpt>
      <trkpt lat="44.99295" lon="4.17784">
        <ele>1295</ele>
        <time>2021-04-28T13:45:38Z</time>
      </trkpt>
      <trkpt lat="44.99295" lon="4.17791">
        <ele>1295</ele>
        <time>2021-04-28T13:45:39Z</time>
      </trkpt>
      <trkpt lat="44.99295" lon="4.17799">
        <ele>1295</ele>
        <time>2021-04-28T13:45:40Z</time>
      </trkpt>
      <trkpt lat="44.99295" lon="4.17806">
        <ele>1295</ele>
        <time>2021-04-28T13:45:41Z</time>
      </trkpt>
      <trkpt lat="44.99295" lon="4.17813">
        <ele>1295</ele>
        <time>2021-04-28T13:45:42Z</time>
      </trkpt>
      <trkpt lat="44.99295" lon="4.17821">
        <ele>1295</ele>
        <time>2021-04-28T13:45:43Z</time>
      </trkpt>
      <trkpt lat="44.99295" lon="4.17828">
        <ele>1295</ele>
        <time>2021-04-28T13:45:44Z</time>
      </trkpt>
      <trkpt lat="44.99296" lon="4.17836">
        <ele>1295</ele>
        <time>2021-04-28T13:45:45Z</time>
      </trkpt>
      <trkpt lat="44.99298" lon="4.17852">
        <ele>1296</ele>
        <time>2021-04-28T13:45:46Z</time>
      </trkpt>
      <trkpt lat="44.993" lon="4.1786">
        <ele>1296</ele>
        <time>2021-04-28T13:45:47Z</time>
      </trkpt>
      <trkpt lat="44.99301" lon="4.17868">
        <ele>1296</ele>
        <time>2021-04-28T13:45:49Z</time>
      </trkpt>
      <trkpt lat="44.99303" lon="4.17876">
        <ele>1296</ele>
        <time>2021-04-28T13:45:50Z</time>
      </trkpt>
      <trkpt lat="44.99305" lon="4.17883">
        <ele>1296</ele>
        <time>2021-04-28T13:45:51Z</time>
      </trkpt>
      <trkpt lat="44.99307" lon="4.17891">
        <ele>1296</ele>
        <time>2021-04-28T13:45:52Z</time>
      </trkpt>
      <trkpt lat="44.99308" lon="4.17899">
        <ele>1297</ele>
        <time>2021-04-28T13:45:53Z</time>
      </trkpt>
      <trkpt lat="44.9931" lon="4.17907">
        <ele>1297</ele>
        <time>2021-04-28T13:45:54Z</time>
      </trkpt>
      <trkpt lat="44.99312" lon="4.17915">
        <ele>1297</ele>
        <time>2021-04-28T13:45:55Z</time>
      </trkpt>
      <trkpt lat="44.99314" lon="4.17923">
        <ele>1297</ele>
        <time>2021-04-28T13:45:56Z</time>
      </trkpt>
      <trkpt lat="44.99316" lon="4.1793">
        <ele>1297</ele>
        <time>2021-04-28T13:45:57Z</time>
      </trkpt>
      <trkpt lat="44.99317" lon="4.17938">
        <ele>1297</ele>
        <time>2021-04-28T13:45:58Z</time>
      </trkpt>
      <trkpt lat="44.99319" lon="4.17946">
        <ele>1297</ele>
        <time>2021-04-28T13:45:59Z</time>
      </trkpt>
      <trkpt lat="44.99321" lon="4.17953">
        <ele>1297</ele>
        <time>2021-04-28T13:46:00Z</time>
      </trkpt>
      <trkpt lat="44.99323" lon="4.17961">
        <ele>1298</ele>
        <time>2021-04-28T13:46:01Z</time>
      </trkpt>
      <trkpt lat="44.99325" lon="4.17969">
        <ele>1298</ele>
        <time>2021-04-28T13:46:02Z</time>
      </trkpt>
      <trkpt lat="44.99326" lon="4.17976">
        <ele>1298</ele>
        <time>2021-04-28T13:46:03Z</time>
      </trkpt>
      <trkpt lat="44.99328" lon="4.17984">
        <ele>1298</ele>
        <time>2021-04-28T13:46:04Z</time>
      </trkpt>
      <trkpt lat="44.9933" lon="4.17992">
        <ele>1298</ele>
        <time>2021-04-28T13:46:05Z</time>
      </trkpt>
      <trkpt lat="44.99331" lon="4.17999">
        <ele>1298</ele>
        <time>2021-04-28T13:46:06Z</time>
      </trkpt>
      <trkpt lat="44.99332" lon="4.18007">
        <ele>1298</ele>
        <time>2021-04-28T13:46:07Z</time>
      </trkpt>
      <trkpt lat="44.99334" lon="4.18015">
        <ele>1299</ele>
        <time>2021-04-28T13:46:08Z</time>
      </trkpt>
      <trkpt lat="44.99335" lon="4.18023">
        <ele>1299</ele>
        <time>2021-04-28T13:46:09Z</time>
      </trkpt>
      <trkpt lat="44.99336" lon="4.1803">
        <ele>1299</ele>
        <time>2021-04-28T13:46:10Z</time>
      </trkpt>
      <trkpt lat="44.99338" lon="4.18038">
        <ele>1299</ele>
        <time>2021-04-28T13:46:11Z</time>
      </trkpt>
      <trkpt lat="44.99339" lon="4.18045">
        <ele>1299</ele>
        <time>2021-04-28T13:46:12Z</time>
      </trkpt>
      <trkpt lat="44.9934" lon="4.18053">
        <ele>1299</ele>
        <time>2021-04-28T13:46:13Z</time>
      </trkpt>
      <trkpt lat="44.9934" lon="4.1806">
        <ele>1300</ele>
        <time>2021-04-28T13:46:14Z</time>
      </trkpt>
      <trkpt lat="44.99341" lon="4.18068">
        <ele>1300</ele>
        <time>2021-04-28T13:46:15Z</time>
      </trkpt>
      <trkpt lat="44.99342" lon="4.18075">
        <ele>1300</ele>
        <time>2021-04-28T13:46:16Z</time>
      </trkpt>
      <trkpt lat="44.99343" lon="4.18082">
        <ele>1301</ele>
        <time>2021-04-28T13:46:17Z</time>
      </trkpt>
      <trkpt lat="44.99344" lon="4.1809">
        <ele>1301</ele>
        <time>2021-04-28T13:46:18Z</time>
      </trkpt>
      <trkpt lat="44.99344" lon="4.18097">
        <ele>1301</ele>
        <time>2021-04-28T13:46:19Z</time>
      </trkpt>
      <trkpt lat="44.99345" lon="4.18105">
        <ele>1302</ele>
        <time>2021-04-28T13:46:20Z</time>
      </trkpt>
      <trkpt lat="44.99345" lon="4.18112">
        <ele>1302</ele>
        <time>2021-04-28T13:46:21Z</time>
      </trkpt>
      <trkpt lat="44.99345" lon="4.18119">
        <ele>1302</ele>
        <time>2021-04-28T13:46:22Z</time>
      </trkpt>
      <trkpt lat="44.99344" lon="4.18127">
        <ele>1302</ele>
        <time>2021-04-28T13:46:23Z</time>
      </trkpt>
      <trkpt lat="44.99344" lon="4.18134">
        <ele>1303</ele>
        <time>2021-04-28T13:46:24Z</time>
      </trkpt>
      <trkpt lat="44.99343" lon="4.18141">
        <ele>1303</ele>
        <time>2021-04-28T13:46:25Z</time>
      </trkpt>
      <trkpt lat="44.99342" lon="4.18148">
        <ele>1303</ele>
        <time>2021-04-28T13:46:26Z</time>
      </trkpt>
      <trkpt lat="44.99341" lon="4.18155">
        <ele>1304</ele>
        <time>2021-04-28T13:46:27Z</time>
      </trkpt>
      <trkpt lat="44.99339" lon="4.18162">
        <ele>1304</ele>
        <time>2021-04-28T13:46:28Z</time>
      </trkpt>
      <trkpt lat="44.99338" lon="4.18168">
        <ele>1304</ele>
        <time>2021-04-28T13:46:29Z</time>
      </trkpt>
      <trkpt lat="44.99336" lon="4.18175">
        <ele>1304</ele>
        <time>2021-04-28T13:46:30Z</time>
      </trkpt>
      <trkpt lat="44.99334" lon="4.18181">
        <ele>1305</ele>
        <time>2021-04-28T13:46:31Z</time>
      </trkpt>
      <trkpt lat="44.99333" lon="4.18188">
        <ele>1305</ele>
        <time>2021-04-28T13:46:32Z</time>
      </trkpt>
      <trkpt lat="44.99331" lon="4.18194">
        <ele>1305</ele>
        <time>2021-04-28T13:46:33Z</time>
      </trkpt>
      <trkpt lat="44.9933" lon="4.18201">
        <ele>1306</ele>
        <time>2021-04-28T13:46:34Z</time>
      </trkpt>
      <trkpt lat="44.99329" lon="4.18207">
        <ele>1306</ele>
        <time>2021-04-28T13:46:35Z</time>
      </trkpt>
      <trkpt lat="44.99328" lon="4.18214">
        <ele>1306</ele>
        <time>2021-04-28T13:46:36Z</time>
      </trkpt>
      <trkpt lat="44.99327" lon="4.18221">
        <ele>1307</ele>
        <time>2021-04-28T13:46:37Z</time>
      </trkpt>
      <trkpt lat="44.99326" lon="4.18227">
        <ele>1307</ele>
        <time>2021-04-28T13:46:38Z</time>
      </trkpt>
      <trkpt lat="44.99325" lon="4.18234">
        <ele>1307</ele>
        <time>2021-04-28T13:46:39Z</time>
      </trkpt>
      <trkpt lat="44.99324" lon="4.18241">
        <ele>1308</ele>
        <time>2021-04-28T13:46:40Z</time>
      </trkpt>
      <trkpt lat="44.99323" lon="4.18247">
        <ele>1308</ele>
        <time>2021-04-28T13:46:41Z</time>
      </trkpt>
      <trkpt lat="44.99322" lon="4.18254">
        <ele>1308</ele>
        <time>2021-04-28T13:46:42Z</time>
      </trkpt>
      <trkpt lat="44.9932" lon="4.18261">
        <ele>1309</ele>
        <time>2021-04-28T13:46:43Z</time>
      </trkpt>
      <trkpt lat="44.99319" lon="4.18267">
        <ele>1309</ele>
        <time>2021-04-28T13:46:44Z</time>
      </trkpt>
      <trkpt lat="44.99318" lon="4.18274">
        <ele>1309</ele>
        <time>2021-04-28T13:46:45Z</time>
      </trkpt>
      <trkpt lat="44.99317" lon="4.1828">
        <ele>1310</ele>
        <time>2021-04-28T13:46:46Z</time>
      </trkpt>
      <trkpt lat="44.99316" lon="4.18287">
        <ele>1310</ele>
        <time>2021-04-28T13:46:47Z</time>
      </trkpt>
      <trkpt lat="44.99315" lon="4.18293">
        <ele>1310</ele>
        <time>2021-04-28T13:46:48Z</time>
      </trkpt>
      <trkpt lat="44.99313" lon="4.18299">
        <ele>1311</ele>
        <time>2021-04-28T13:46:49Z</time>
      </trkpt>
      <trkpt lat="44.99312" lon="4.18306">
        <ele>1311</ele>
        <time>2021-04-28T13:46:50Z</time>
      </trkpt>
      <trkpt lat="44.99312" lon="4.18312">
        <ele>1312</ele>
        <time>2021-04-28T13:46:51Z</time>
      </trkpt>
      <trkpt lat="44.99311" lon="4.18318">
        <ele>1312</ele>
        <time>2021-04-28T13:46:52Z</time>
      </trkpt>
      <trkpt lat="44.9931" lon="4.18324">
        <ele>1312</ele>
        <time>2021-04-28T13:46:53Z</time>
      </trkpt>
      <trkpt lat="44.99309" lon="4.1833">
        <ele>1313</ele>
        <time>2021-04-28T13:46:54Z</time>
      </trkpt>
      <trkpt lat="44.99308" lon="4.18336">
        <ele>1313</ele>
        <time>2021-04-28T13:46:55Z</time>
      </trkpt>
      <trkpt lat="44.99305" lon="4.18347">
        <ele>1313</ele>
        <time>2021-04-28T13:46:56Z</time>
      </trkpt>
      <trkpt lat="44.99302" lon="4.18351">
        <ele>1314</ele>
        <time>2021-04-28T13:46:58Z</time>
      </trkpt>
      <trkpt lat="44.99298" lon="4.18354">
        <ele>1314</ele>
        <time>2021-04-28T13:46:59Z</time>
      </trkpt>
      <trkpt lat="44.99294" lon="4.18356">
        <ele>1314</ele>
        <time>2021-04-28T13:47:00Z</time>
      </trkpt>
      <trkpt lat="44.99289" lon="4.18357">
        <ele>1315</ele>
        <time>2021-04-28T13:47:01Z</time>
      </trkpt>
      <trkpt lat="44.99284" lon="4.18358">
        <ele>1315</ele>
        <time>2021-04-28T13:47:02Z</time>
      </trkpt>
      <trkpt lat="44.99275" lon="4.18361">
        <ele>1315</ele>
        <time>2021-04-28T13:47:03Z</time>
      </trkpt>
      <trkpt lat="44.9927" lon="4.18362">
        <ele>1316</ele>
        <time>2021-04-28T13:47:05Z</time>
      </trkpt>
      <trkpt lat="44.99266" lon="4.18363">
        <ele>1316</ele>
        <time>2021-04-28T13:47:06Z</time>
      </trkpt>
      <trkpt lat="44.99261" lon="4.18365">
        <ele>1317</ele>
        <time>2021-04-28T13:47:07Z</time>
      </trkpt>
      <trkpt lat="44.99257" lon="4.18367">
        <ele>1317</ele>
        <time>2021-04-28T13:47:08Z</time>
      </trkpt>
      <trkpt lat="44.99252" lon="4.18369">
        <ele>1317</ele>
        <time>2021-04-28T13:47:09Z</time>
      </trkpt>
      <trkpt lat="44.99248" lon="4.18371">
        <ele>1318</ele>
        <time>2021-04-28T13:47:10Z</time>
      </trkpt>
      <trkpt lat="44.99244" lon="4.18373">
        <ele>1318</ele>
        <time>2021-04-28T13:47:11Z</time>
      </trkpt>
      <trkpt lat="44.99239" lon="4.18375">
        <ele>1319</ele>
        <time>2021-04-28T13:47:12Z</time>
      </trkpt>
      <trkpt lat="44.99235" lon="4.18377">
        <ele>1319</ele>
        <time>2021-04-28T13:47:13Z</time>
      </trkpt>
      <trkpt lat="44.99231" lon="4.18379">
        <ele>1319</ele>
        <time>2021-04-28T13:47:14Z</time>
      </trkpt>
      <trkpt lat="44.99227" lon="4.18382">
        <ele>1319</ele>
        <time>2021-04-28T13:47:15Z</time>
      </trkpt>
      <trkpt lat="44.99223" lon="4.18383">
        <ele>1320</ele>
        <time>2021-04-28T13:47:16Z</time>
      </trkpt>
      <trkpt lat="44.99218" lon="4.18385">
        <ele>1320</ele>
        <time>2021-04-28T13:47:17Z</time>
      </trkpt>
      <trkpt lat="44.99214" lon="4.18387">
        <ele>1320</ele>
        <time>2021-04-28T13:47:18Z</time>
      </trkpt>
      <trkpt lat="44.9921" lon="4.18389">
        <ele>1321</ele>
        <time>2021-04-28T13:47:19Z</time>
      </trkpt>
      <trkpt lat="44.99206" lon="4.18391">
        <ele>1321</ele>
        <time>2021-04-28T13:47:20Z</time>
      </trkpt>
      <trkpt lat="44.99202" lon="4.18393">
        <ele>1321</ele>
        <time>2021-04-28T13:47:21Z</time>
      </trkpt>
      <trkpt lat="44.99193" lon="4.18397">
        <ele>1322</ele>
        <time>2021-04-28T13:47:22Z</time>
      </trkpt>
      <trkpt lat="44.99189" lon="4.184">
        <ele>1323</ele>
        <time>2021-04-28T13:47:24Z</time>
      </trkpt>
      <trkpt lat="44.99185" lon="4.18403">
        <ele>1323</ele>
        <time>2021-04-28T13:47:25Z</time>
      </trkpt>
      <trkpt lat="44.99182" lon="4.18407">
        <ele>1323</ele>
        <time>2021-04-28T13:47:26Z</time>
      </trkpt>
      <trkpt lat="44.99178" lon="4.18411">
        <ele>1324</ele>
        <time>2021-04-28T13:47:27Z</time>
      </trkpt>
      <trkpt lat="44.99175" lon="4.18415">
        <ele>1324</ele>
        <time>2021-04-28T13:47:28Z</time>
      </trkpt>
      <trkpt lat="44.99172" lon="4.1842">
        <ele>1325</ele>
        <time>2021-04-28T13:47:29Z</time>
      </trkpt>
      <trkpt lat="44.9917" lon="4.18425">
        <ele>1325</ele>
        <time>2021-04-28T13:47:30Z</time>
      </trkpt>
      <trkpt lat="44.99167" lon="4.1843">
        <ele>1325</ele>
        <time>2021-04-28T13:47:31Z</time>
      </trkpt>
      <trkpt lat="44.99164" lon="4.18435">
        <ele>1326</ele>
        <time>2021-04-28T13:47:32Z</time>
      </trkpt>
      <trkpt lat="44.99162" lon="4.1844">
        <ele>1326</ele>
        <time>2021-04-28T13:47:33Z</time>
      </trkpt>
      <trkpt lat="44.99159" lon="4.18444">
        <ele>1327</ele>
        <time>2021-04-28T13:47:34Z</time>
      </trkpt>
      <trkpt lat="44.99156" lon="4.18448">
        <ele>1327</ele>
        <time>2021-04-28T13:47:35Z</time>
      </trkpt>
      <trkpt lat="44.99152" lon="4.18452">
        <ele>1328</ele>
        <time>2021-04-28T13:47:36Z</time>
      </trkpt>
      <trkpt lat="44.99149" lon="4.18455">
        <ele>1328</ele>
        <time>2021-04-28T13:47:37Z</time>
      </trkpt>
      <trkpt lat="44.99146" lon="4.18457">
        <ele>1329</ele>
        <time>2021-04-28T13:47:38Z</time>
      </trkpt>
      <trkpt lat="44.99142" lon="4.1846">
        <ele>1329</ele>
        <time>2021-04-28T13:47:39Z</time>
      </trkpt>
      <trkpt lat="44.99139" lon="4.18462">
        <ele>1329</ele>
        <time>2021-04-28T13:47:40Z</time>
      </trkpt>
      <trkpt lat="44.99135" lon="4.18465">
        <ele>1330</ele>
        <time>2021-04-28T13:47:41Z</time>
      </trkpt>
      <trkpt lat="44.99132" lon="4.18467">
        <ele>1330</ele>
        <time>2021-04-28T13:47:42Z</time>
      </trkpt>
      <trkpt lat="44.99128" lon="4.18469">
        <ele>1330</ele>
        <time>2021-04-28T13:47:43Z</time>
      </trkpt>
      <trkpt lat="44.99125" lon="4.18471">
        <ele>1331</ele>
        <time>2021-04-28T13:47:44Z</time>
      </trkpt>
      <trkpt lat="44.99121" lon="4.18473">
        <ele>1331</ele>
        <time>2021-04-28T13:47:45Z</time>
      </trkpt>
      <trkpt lat="44.99118" lon="4.18475">
        <ele>1331</ele>
        <time>2021-04-28T13:47:46Z</time>
      </trkpt>
      <trkpt lat="44.99114" lon="4.18477">
        <ele>1331</ele>
        <time>2021-04-28T13:47:47Z</time>
      </trkpt>
      <trkpt lat="44.9911" lon="4.18479">
        <ele>1332</ele>
        <time>2021-04-28T13:47:48Z</time>
      </trkpt>
      <trkpt lat="44.99106" lon="4.1848">
        <ele>1332</ele>
        <time>2021-04-28T13:47:49Z</time>
      </trkpt>
      <trkpt lat="44.99102" lon="4.18482">
        <ele>1332</ele>
        <time>2021-04-28T13:47:50Z</time>
      </trkpt>
      <trkpt lat="44.99098" lon="4.18485">
        <ele>1332</ele>
        <time>2021-04-28T13:47:51Z</time>
      </trkpt>
      <trkpt lat="44.99095" lon="4.18487">
        <ele>1333</ele>
        <time>2021-04-28T13:47:52Z</time>
      </trkpt>
      <trkpt lat="44.99091" lon="4.1849">
        <ele>1333</ele>
        <time>2021-04-28T13:47:53Z</time>
      </trkpt>
      <trkpt lat="44.99088" lon="4.18493">
        <ele>1333</ele>
        <time>2021-04-28T13:47:54Z</time>
      </trkpt>
      <trkpt lat="44.99085" lon="4.18496">
        <ele>1333</ele>
        <time>2021-04-28T13:47:55Z</time>
      </trkpt>
      <trkpt lat="44.99083" lon="4.18499">
        <ele>1334</ele>
        <time>2021-04-28T13:47:56Z</time>
      </trkpt>
      <trkpt lat="44.99081" lon="4.18502">
        <ele>1334</ele>
        <time>2021-04-28T13:47:57Z</time>
      </trkpt>
      <trkpt lat="44.99078" lon="4.18504">
        <ele>1334</ele>
        <time>2021-04-28T13:47:58Z</time>
      </trkpt>
      <trkpt lat="44.99075" lon="4.18507">
        <ele>1335</ele>
        <time>2021-04-28T13:47:59Z</time>
      </trkpt>
      <trkpt lat="44.99071" lon="4.18508">
        <ele>1335</ele>
        <time>2021-04-28T13:48:00Z</time>
      </trkpt>
      <trkpt lat="44.99068" lon="4.18507">
        <ele>1335</ele>
        <time>2021-04-28T13:48:01Z</time>
      </trkpt>
      <trkpt lat="44.99064" lon="4.18506">
        <ele>1335</ele>
        <time>2021-04-28T13:48:02Z</time>
      </trkpt>
      <trkpt lat="44.9906" lon="4.18505">
        <ele>1336</ele>
        <time>2021-04-28T13:48:03Z</time>
      </trkpt>
      <trkpt lat="44.99056" lon="4.18504">
        <ele>1336</ele>
        <time>2021-04-28T13:48:04Z</time>
      </trkpt>
      <trkpt lat="44.99051" lon="4.18503">
        <ele>1336</ele>
        <time>2021-04-28T13:48:05Z</time>
      </trkpt>
      <trkpt lat="44.99047" lon="4.18503">
        <ele>1336</ele>
        <time>2021-04-28T13:48:06Z</time>
      </trkpt>
      <trkpt lat="44.99042" lon="4.18503">
        <ele>1337</ele>
        <time>2021-04-28T13:48:07Z</time>
      </trkpt>
      <trkpt lat="44.99038" lon="4.18504">
        <ele>1337</ele>
        <time>2021-04-28T13:48:08Z</time>
      </trkpt>
      <trkpt lat="44.99033" lon="4.18504">
        <ele>1337</ele>
        <time>2021-04-28T13:48:09Z</time>
      </trkpt>
      <trkpt lat="44.99028" lon="4.18505">
        <ele>1337</ele>
        <time>2021-04-28T13:48:10Z</time>
      </trkpt>
      <trkpt lat="44.99024" lon="4.18507">
        <ele>1337</ele>
        <time>2021-04-28T13:48:11Z</time>
      </trkpt>
      <trkpt lat="44.9902" lon="4.18508">
        <ele>1338</ele>
        <time>2021-04-28T13:48:12Z</time>
      </trkpt>
      <trkpt lat="44.99016" lon="4.1851">
        <ele>1338</ele>
        <time>2021-04-28T13:48:13Z</time>
      </trkpt>
      <trkpt lat="44.99012" lon="4.18512">
        <ele>1338</ele>
        <time>2021-04-28T13:48:14Z</time>
      </trkpt>
      <trkpt lat="44.99008" lon="4.18515">
        <ele>1338</ele>
        <time>2021-04-28T13:48:15Z</time>
      </trkpt>
      <trkpt lat="44.99004" lon="4.18518">
        <ele>1338</ele>
        <time>2021-04-28T13:48:16Z</time>
      </trkpt>
      <trkpt lat="44.99" lon="4.18522">
        <ele>1338</ele>
        <time>2021-04-28T13:48:17Z</time>
      </trkpt>
      <trkpt lat="44.98996" lon="4.18526">
        <ele>1338</ele>
        <time>2021-04-28T13:48:18Z</time>
      </trkpt>
      <trkpt lat="44.98992" lon="4.18531">
        <ele>1339</ele>
        <time>2021-04-28T13:48:19Z</time>
      </trkpt>
      <trkpt lat="44.98988" lon="4.18535">
        <ele>1339</ele>
        <time>2021-04-28T13:48:20Z</time>
      </trkpt>
      <trkpt lat="44.98984" lon="4.18538">
        <ele>1339</ele>
        <time>2021-04-28T13:48:21Z</time>
      </trkpt>
      <trkpt lat="44.98979" lon="4.18541">
        <ele>1339</ele>
        <time>2021-04-28T13:48:22Z</time>
      </trkpt>
      <trkpt lat="44.98975" lon="4.18544">
        <ele>1339</ele>
        <time>2021-04-28T13:48:23Z</time>
      </trkpt>
      <trkpt lat="44.98971" lon="4.18547">
        <ele>1339</ele>
        <time>2021-04-28T13:48:24Z</time>
      </trkpt>
      <trkpt lat="44.98967" lon="4.1855">
        <ele>1340</ele>
        <time>2021-04-28T13:48:25Z</time>
      </trkpt>
      <trkpt lat="44.98963" lon="4.18553">
        <ele>1340</ele>
        <time>2021-04-28T13:48:26Z</time>
      </trkpt>
      <trkpt lat="44.98958" lon="4.18555">
        <ele>1340</ele>
        <time>2021-04-28T13:48:27Z</time>
      </trkpt>
      <trkpt lat="44.98954" lon="4.18558">
        <ele>1340</ele>
        <time>2021-04-28T13:48:28Z</time>
      </trkpt>
      <trkpt lat="44.9895" lon="4.18561">
        <ele>1340</ele>
        <time>2021-04-28T13:48:29Z</time>
      </trkpt>
      <trkpt lat="44.98945" lon="4.18564">
        <ele>1340</ele>
        <time>2021-04-28T13:48:30Z</time>
      </trkpt>
      <trkpt lat="44.98941" lon="4.18568">
        <ele>1340</ele>
        <time>2021-04-28T13:48:31Z</time>
      </trkpt>
      <trkpt lat="44.98936" lon="4.18571">
        <ele>1340</ele>
        <time>2021-04-28T13:48:32Z</time>
      </trkpt>
      <trkpt lat="44.98931" lon="4.18575">
        <ele>1341</ele>
        <time>2021-04-28T13:48:33Z</time>
      </trkpt>
      <trkpt lat="44.98926" lon="4.18578">
        <ele>1341</ele>
        <time>2021-04-28T13:48:34Z</time>
      </trkpt>
      <trkpt lat="44.98922" lon="4.18581">
        <ele>1341</ele>
        <time>2021-04-28T13:48:35Z</time>
      </trkpt>
      <trkpt lat="44.98917" lon="4.18585">
        <ele>1341</ele>
        <time>2021-04-28T13:48:36Z</time>
      </trkpt>
      <trkpt lat="44.98912" lon="4.18589">
        <ele>1341</ele>
        <time>2021-04-28T13:48:37Z</time>
      </trkpt>
      <trkpt lat="44.98907" lon="4.18592">
        <ele>1341</ele>
        <time>2021-04-28T13:48:38Z</time>
      </trkpt>
      <trkpt lat="44.98902" lon="4.18596">
        <ele>1341</ele>
        <time>2021-04-28T13:48:39Z</time>
      </trkpt>
      <trkpt lat="44.98897" lon="4.18599">
        <ele>1341</ele>
        <time>2021-04-28T13:48:40Z</time>
      </trkpt>
      <trkpt lat="44.98892" lon="4.18602">
        <ele>1341</ele>
        <time>2021-04-28T13:48:41Z</time>
      </trkpt>
      <trkpt lat="44.98887" lon="4.18605">
        <ele>1341</ele>
        <time>2021-04-28T13:48:42Z</time>
      </trkpt>
      <trkpt lat="44.98882" lon="4.18608">
        <ele>1341</ele>
        <time>2021-04-28T13:48:43Z</time>
      </trkpt>
      <trkpt lat="44.98877" lon="4.18611">
        <ele>1341</ele>
        <time>2021-04-28T13:48:44Z</time>
      </trkpt>
      <trkpt lat="44.98872" lon="4.18614">
        <ele>1341</ele>
        <time>2021-04-28T13:48:45Z</time>
      </trkpt>
      <trkpt lat="44.98867" lon="4.18617">
        <ele>1342</ele>
        <time>2021-04-28T13:48:46Z</time>
      </trkpt>
      <trkpt lat="44.98861" lon="4.1862">
        <ele>1342</ele>
        <time>2021-04-28T13:48:47Z</time>
      </trkpt>
      <trkpt lat="44.98856" lon="4.18622">
        <ele>1342</ele>
        <time>2021-04-28T13:48:48Z</time>
      </trkpt>
      <trkpt lat="44.98851" lon="4.18624">
        <ele>1342</ele>
        <time>2021-04-28T13:48:49Z</time>
      </trkpt>
      <trkpt lat="44.98845" lon="4.18626">
        <ele>1342</ele>
        <time>2021-04-28T13:48:50Z</time>
      </trkpt>
      <trkpt lat="44.98839" lon="4.18627">
        <ele>1342</ele>
        <time>2021-04-28T13:48:51Z</time>
      </trkpt>
      <trkpt lat="44.98834" lon="4.18629">
        <ele>1342</ele>
        <time>2021-04-28T13:48:52Z</time>
      </trkpt>
      <trkpt lat="44.98828" lon="4.1863">
        <ele>1342</ele>
        <time>2021-04-28T13:48:53Z</time>
      </trkpt>
      <trkpt lat="44.98823" lon="4.18632">
        <ele>1342</ele>
        <time>2021-04-28T13:48:54Z</time>
      </trkpt>
      <trkpt lat="44.98817" lon="4.18634">
        <ele>1342</ele>
        <time>2021-04-28T13:48:55Z</time>
      </trkpt>
      <trkpt lat="44.98812" lon="4.18636">
        <ele>1342</ele>
        <time>2021-04-28T13:48:56Z</time>
      </trkpt>
      <trkpt lat="44.98806" lon="4.18637">
        <ele>1342</ele>
        <time>2021-04-28T13:48:57Z</time>
      </trkpt>
      <trkpt lat="44.98801" lon="4.18638">
        <ele>1342</ele>
        <time>2021-04-28T13:48:58Z</time>
      </trkpt>
      <trkpt lat="44.98797" lon="4.18639">
        <ele>1342</ele>
        <time>2021-04-28T13:48:59Z</time>
      </trkpt>
      <trkpt lat="44.98792" lon="4.18639">
        <ele>1343</ele>
        <time>2021-04-28T13:49:00Z</time>
      </trkpt>
      <trkpt lat="44.98787" lon="4.18638">
        <ele>1343</ele>
        <time>2021-04-28T13:49:01Z</time>
      </trkpt>
      <trkpt lat="44.98782" lon="4.18635">
        <ele>1342</ele>
        <time>2021-04-28T13:49:02Z</time>
      </trkpt>
      <trkpt lat="44.98777" lon="4.18632">
        <ele>1342</ele>
        <time>2021-04-28T13:49:03Z</time>
      </trkpt>
      <trkpt lat="44.98772" lon="4.18629">
        <ele>1342</ele>
        <time>2021-04-28T13:49:04Z</time>
      </trkpt>
      <trkpt lat="44.98767" lon="4.18625">
        <ele>1343</ele>
        <time>2021-04-28T13:49:05Z</time>
      </trkpt>
      <trkpt lat="44.98763" lon="4.18621">
        <ele>1343</ele>
        <time>2021-04-28T13:49:06Z</time>
      </trkpt>
      <trkpt lat="44.98758" lon="4.18617">
        <ele>1343</ele>
        <time>2021-04-28T13:49:07Z</time>
      </trkpt>
      <trkpt lat="44.98753" lon="4.18612">
        <ele>1343</ele>
        <time>2021-04-28T13:49:08Z</time>
      </trkpt>
      <trkpt lat="44.98749" lon="4.18608">
        <ele>1343</ele>
        <time>2021-04-28T13:49:09Z</time>
      </trkpt>
      <trkpt lat="44.98744" lon="4.18603">
        <ele>1343</ele>
        <time>2021-04-28T13:49:10Z</time>
      </trkpt>
      <trkpt lat="44.98739" lon="4.18598">
        <ele>1343</ele>
        <time>2021-04-28T13:49:11Z</time>
      </trkpt>
      <trkpt lat="44.98734" lon="4.18593">
        <ele>1343</ele>
        <time>2021-04-28T13:49:12Z</time>
      </trkpt>
      <trkpt lat="44.98729" lon="4.18588">
        <ele>1343</ele>
        <time>2021-04-28T13:49:13Z</time>
      </trkpt>
      <trkpt lat="44.98724" lon="4.18583">
        <ele>1343</ele>
        <time>2021-04-28T13:49:14Z</time>
      </trkpt>
      <trkpt lat="44.98719" lon="4.18579">
        <ele>1343</ele>
        <time>2021-04-28T13:49:15Z</time>
      </trkpt>
      <trkpt lat="44.98715" lon="4.18575">
        <ele>1343</ele>
        <time>2021-04-28T13:49:16Z</time>
      </trkpt>
      <trkpt lat="44.9871" lon="4.18571">
        <ele>1343</ele>
        <time>2021-04-28T13:49:17Z</time>
      </trkpt>
      <trkpt lat="44.98706" lon="4.18566">
        <ele>1343</ele>
        <time>2021-04-28T13:49:18Z</time>
      </trkpt>
      <trkpt lat="44.98701" lon="4.18562">
        <ele>1343</ele>
        <time>2021-04-28T13:49:19Z</time>
      </trkpt>
      <trkpt lat="44.98696" lon="4.18558">
        <ele>1343</ele>
        <time>2021-04-28T13:49:20Z</time>
      </trkpt>
      <trkpt lat="44.9869" lon="4.18554">
        <ele>1343</ele>
        <time>2021-04-28T13:49:21Z</time>
      </trkpt>
      <trkpt lat="44.98685" lon="4.1855">
        <ele>1343</ele>
        <time>2021-04-28T13:49:22Z</time>
      </trkpt>
      <trkpt lat="44.9868" lon="4.18546">
        <ele>1343</ele>
        <time>2021-04-28T13:49:23Z</time>
      </trkpt>
      <trkpt lat="44.98676" lon="4.18542">
        <ele>1343</ele>
        <time>2021-04-28T13:49:24Z</time>
      </trkpt>
      <trkpt lat="44.98672" lon="4.18537">
        <ele>1343</ele>
        <time>2021-04-28T13:49:25Z</time>
      </trkpt>
      <trkpt lat="44.98668" lon="4.18533">
        <ele>1343</ele>
        <time>2021-04-28T13:49:26Z</time>
      </trkpt>
      <trkpt lat="44.98664" lon="4.18528">
        <ele>1343</ele>
        <time>2021-04-28T13:49:27Z</time>
      </trkpt>
      <trkpt lat="44.98659" lon="4.18524">
        <ele>1343</ele>
        <time>2021-04-28T13:49:28Z</time>
      </trkpt>
      <trkpt lat="44.98654" lon="4.1852">
        <ele>1343</ele>
        <time>2021-04-28T13:49:29Z</time>
      </trkpt>
      <trkpt lat="44.98649" lon="4.18516">
        <ele>1343</ele>
        <time>2021-04-28T13:49:30Z</time>
      </trkpt>
      <trkpt lat="44.98643" lon="4.18512">
        <ele>1343</ele>
        <time>2021-04-28T13:49:31Z</time>
      </trkpt>
      <trkpt lat="44.98638" lon="4.18508">
        <ele>1343</ele>
        <time>2021-04-28T13:49:32Z</time>
      </trkpt>
      <trkpt lat="44.98632" lon="4.18504">
        <ele>1343</ele>
        <time>2021-04-28T13:49:33Z</time>
      </trkpt>
      <trkpt lat="44.98627" lon="4.185">
        <ele>1343</ele>
        <time>2021-04-28T13:49:34Z</time>
      </trkpt>
      <trkpt lat="44.98623" lon="4.18496">
        <ele>1343</ele>
        <time>2021-04-28T13:49:35Z</time>
      </trkpt>
      <trkpt lat="44.98618" lon="4.18492">
        <ele>1343</ele>
        <time>2021-04-28T13:49:36Z</time>
      </trkpt>
      <trkpt lat="44.98614" lon="4.18488">
        <ele>1343</ele>
        <time>2021-04-28T13:49:37Z</time>
      </trkpt>
      <trkpt lat="44.9861" lon="4.18483">
        <ele>1343</ele>
        <time>2021-04-28T13:49:38Z</time>
      </trkpt>
      <trkpt lat="44.98606" lon="4.18478">
        <ele>1343</ele>
        <time>2021-04-28T13:49:39Z</time>
      </trkpt>
      <trkpt lat="44.98602" lon="4.18472">
        <ele>1343</ele>
        <time>2021-04-28T13:49:40Z</time>
      </trkpt>
      <trkpt lat="44.98599" lon="4.18467">
        <ele>1343</ele>
        <time>2021-04-28T13:49:41Z</time>
      </trkpt>
      <trkpt lat="44.98595" lon="4.18462">
        <ele>1343</ele>
        <time>2021-04-28T13:49:42Z</time>
      </trkpt>
      <trkpt lat="44.98591" lon="4.18457">
        <ele>1343</ele>
        <time>2021-04-28T13:49:43Z</time>
      </trkpt>
      <trkpt lat="44.98584" lon="4.18451">
        <ele>1343</ele>
        <time>2021-04-28T13:49:44Z</time>
      </trkpt>
      <trkpt lat="44.98579" lon="4.18447">
        <ele>1343</ele>
        <time>2021-04-28T13:49:45Z</time>
      </trkpt>
      <trkpt lat="44.98573" lon="4.18443">
        <ele>1343</ele>
        <time>2021-04-28T13:49:46Z</time>
      </trkpt>
      <trkpt lat="44.98568" lon="4.18439">
        <ele>1343</ele>
        <time>2021-04-28T13:49:47Z</time>
      </trkpt>
      <trkpt lat="44.98562" lon="4.18435">
        <ele>1343</ele>
        <time>2021-04-28T13:49:48Z</time>
      </trkpt>
      <trkpt lat="44.98557" lon="4.18432">
        <ele>1343</ele>
        <time>2021-04-28T13:49:49Z</time>
      </trkpt>
      <trkpt lat="44.98552" lon="4.18429">
        <ele>1343</ele>
        <time>2021-04-28T13:49:50Z</time>
      </trkpt>
      <trkpt lat="44.98547" lon="4.18426">
        <ele>1343</ele>
        <time>2021-04-28T13:49:51Z</time>
      </trkpt>
      <trkpt lat="44.98543" lon="4.18425">
        <ele>1344</ele>
        <time>2021-04-28T13:49:52Z</time>
      </trkpt>
      <trkpt lat="44.98539" lon="4.18424">
        <ele>1344</ele>
        <time>2021-04-28T13:49:53Z</time>
      </trkpt>
      <trkpt lat="44.98536" lon="4.18423">
        <ele>1344</ele>
        <time>2021-04-28T13:49:54Z</time>
      </trkpt>
      <trkpt lat="44.98532" lon="4.18423">
        <ele>1345</ele>
        <time>2021-04-28T13:49:55Z</time>
      </trkpt>
      <trkpt lat="44.98527" lon="4.18422">
        <ele>1345</ele>
        <time>2021-04-28T13:49:56Z</time>
      </trkpt>
      <trkpt lat="44.9852" lon="4.1842">
        <ele>1345</ele>
        <time>2021-04-28T13:49:57Z</time>
      </trkpt>
      <trkpt lat="44.98514" lon="4.18418">
        <ele>1345</ele>
        <time>2021-04-28T13:49:58Z</time>
      </trkpt>
      <trkpt lat="44.98508" lon="4.18417">
        <ele>1345</ele>
        <time>2021-04-28T13:49:59Z</time>
      </trkpt>
      <trkpt lat="44.98503" lon="4.18416">
        <ele>1346</ele>
        <time>2021-04-28T13:50:00Z</time>
      </trkpt>
      <trkpt lat="44.98498" lon="4.18415">
        <ele>1346</ele>
        <time>2021-04-28T13:50:01Z</time>
      </trkpt>
      <trkpt lat="44.98491" lon="4.18414">
        <ele>1346</ele>
        <time>2021-04-28T13:50:02Z</time>
      </trkpt>
      <trkpt lat="44.98485" lon="4.18414">
        <ele>1346</ele>
        <time>2021-04-28T13:50:03Z</time>
      </trkpt>
      <trkpt lat="44.98479" lon="4.18413">
        <ele>1346</ele>
        <time>2021-04-28T13:50:04Z</time>
      </trkpt>
      <trkpt lat="44.98475" lon="4.18412">
        <ele>1347</ele>
        <time>2021-04-28T13:50:05Z</time>
      </trkpt>
      <trkpt lat="44.9847" lon="4.1841">
        <ele>1347</ele>
        <time>2021-04-28T13:50:06Z</time>
      </trkpt>
      <trkpt lat="44.98466" lon="4.18408">
        <ele>1347</ele>
        <time>2021-04-28T13:50:07Z</time>
      </trkpt>
      <trkpt lat="44.98463" lon="4.18404">
        <ele>1347</ele>
        <time>2021-04-28T13:50:08Z</time>
      </trkpt>
      <trkpt lat="44.98459" lon="4.184">
        <ele>1347</ele>
        <time>2021-04-28T13:50:09Z</time>
      </trkpt>
      <trkpt lat="44.98455" lon="4.18396">
        <ele>1347</ele>
        <time>2021-04-28T13:50:10Z</time>
      </trkpt>
      <trkpt lat="44.98451" lon="4.18392">
        <ele>1347</ele>
        <time>2021-04-28T13:50:11Z</time>
      </trkpt>
      <trkpt lat="44.98443" lon="4.18386">
        <ele>1347</ele>
        <time>2021-04-28T13:50:13Z</time>
      </trkpt>
      <trkpt lat="44.98441" lon="4.18383">
        <ele>1347</ele>
        <time>2021-04-28T13:50:14Z</time>
      </trkpt>
      <trkpt lat="44.98437" lon="4.1838">
        <ele>1347</ele>
        <time>2021-04-28T13:50:15Z</time>
      </trkpt>
      <trkpt lat="44.98435" lon="4.18376">
        <ele>1347</ele>
        <time>2021-04-28T13:50:16Z</time>
      </trkpt>
      <trkpt lat="44.98432" lon="4.18372">
        <ele>1347</ele>
        <time>2021-04-28T13:50:17Z</time>
      </trkpt>
      <trkpt lat="44.98427" lon="4.18361">
        <ele>1347</ele>
        <time>2021-04-28T13:50:19Z</time>
      </trkpt>
      <trkpt lat="44.98425" lon="4.18356">
        <ele>1347</ele>
        <time>2021-04-28T13:50:20Z</time>
      </trkpt>
      <trkpt lat="44.98422" lon="4.18351">
        <ele>1347</ele>
        <time>2021-04-28T13:50:21Z</time>
      </trkpt>
      <trkpt lat="44.98418" lon="4.18341">
        <ele>1348</ele>
        <time>2021-04-28T13:50:23Z</time>
      </trkpt>
      <trkpt lat="44.98417" lon="4.18336">
        <ele>1348</ele>
        <time>2021-04-28T13:50:24Z</time>
      </trkpt>
      <trkpt lat="44.98416" lon="4.1833">
        <ele>1348</ele>
        <time>2021-04-28T13:50:25Z</time>
      </trkpt>
      <trkpt lat="44.98412" lon="4.18318">
        <ele>1348</ele>
        <time>2021-04-28T13:50:27Z</time>
      </trkpt>
      <trkpt lat="44.98409" lon="4.18313">
        <ele>1348</ele>
        <time>2021-04-28T13:50:28Z</time>
      </trkpt>
      <trkpt lat="44.98404" lon="4.18308">
        <ele>1348</ele>
        <time>2021-04-28T13:50:29Z</time>
      </trkpt>
      <trkpt lat="44.984" lon="4.18303">
        <ele>1348</ele>
        <time>2021-04-28T13:50:30Z</time>
      </trkpt>
      <trkpt lat="44.98396" lon="4.18299">
        <ele>1348</ele>
        <time>2021-04-28T13:50:31Z</time>
      </trkpt>
      <trkpt lat="44.98391" lon="4.18295">
        <ele>1348</ele>
        <time>2021-04-28T13:50:32Z</time>
      </trkpt>
      <trkpt lat="44.98384" lon="4.1829">
        <ele>1348</ele>
        <time>2021-04-28T13:50:33Z</time>
      </trkpt>
      <trkpt lat="44.98378" lon="4.18286">
        <ele>1348</ele>
        <time>2021-04-28T13:50:34Z</time>
      </trkpt>
      <trkpt lat="44.98374" lon="4.18282">
        <ele>1348</ele>
        <time>2021-04-28T13:50:35Z</time>
      </trkpt>
      <trkpt lat="44.98369" lon="4.18278">
        <ele>1348</ele>
        <time>2021-04-28T13:50:36Z</time>
      </trkpt>
      <trkpt lat="44.98364" lon="4.18274">
        <ele>1348</ele>
        <time>2021-04-28T13:50:37Z</time>
      </trkpt>
      <trkpt lat="44.9836" lon="4.18268">
        <ele>1348</ele>
        <time>2021-04-28T13:50:38Z</time>
      </trkpt>
      <trkpt lat="44.98356" lon="4.18263">
        <ele>1348</ele>
        <time>2021-04-28T13:50:39Z</time>
      </trkpt>
      <trkpt lat="44.98352" lon="4.18258">
        <ele>1348</ele>
        <time>2021-04-28T13:50:40Z</time>
      </trkpt>
      <trkpt lat="44.98347" lon="4.18254">
        <ele>1348</ele>
        <time>2021-04-28T13:50:41Z</time>
      </trkpt>
      <trkpt lat="44.98341" lon="4.18251">
        <ele>1348</ele>
        <time>2021-04-28T13:50:42Z</time>
      </trkpt>
      <trkpt lat="44.98336" lon="4.18248">
        <ele>1348</ele>
        <time>2021-04-28T13:50:43Z</time>
      </trkpt>
      <trkpt lat="44.9833" lon="4.18245">
        <ele>1348</ele>
        <time>2021-04-28T13:50:44Z</time>
      </trkpt>
      <trkpt lat="44.98324" lon="4.18241">
        <ele>1348</ele>
        <time>2021-04-28T13:50:45Z</time>
      </trkpt>
      <trkpt lat="44.98319" lon="4.18238">
        <ele>1348</ele>
        <time>2021-04-28T13:50:46Z</time>
      </trkpt>
      <trkpt lat="44.98314" lon="4.18235">
        <ele>1348</ele>
        <time>2021-04-28T13:50:47Z</time>
      </trkpt>
      <trkpt lat="44.98309" lon="4.18232">
        <ele>1348</ele>
        <time>2021-04-28T13:50:48Z</time>
      </trkpt>
      <trkpt lat="44.98303" lon="4.1823">
        <ele>1348</ele>
        <time>2021-04-28T13:50:49Z</time>
      </trkpt>
      <trkpt lat="44.98298" lon="4.18228">
        <ele>1348</ele>
        <time>2021-04-28T13:50:50Z</time>
      </trkpt>
      <trkpt lat="44.98294" lon="4.18224">
        <ele>1348</ele>
        <time>2021-04-28T13:50:51Z</time>
      </trkpt>
      <trkpt lat="44.9829" lon="4.18221">
        <ele>1348</ele>
        <time>2021-04-28T13:50:52Z</time>
      </trkpt>
      <trkpt lat="44.98287" lon="4.18217">
        <ele>1348</ele>
        <time>2021-04-28T13:50:53Z</time>
      </trkpt>
      <trkpt lat="44.98284" lon="4.18213">
        <ele>1348</ele>
        <time>2021-04-28T13:50:54Z</time>
      </trkpt>
      <trkpt lat="44.98281" lon="4.18208">
        <ele>1348</ele>
        <time>2021-04-28T13:50:55Z</time>
      </trkpt>
      <trkpt lat="44.98277" lon="4.18204">
        <ele>1348</ele>
        <time>2021-04-28T13:50:56Z</time>
      </trkpt>
      <trkpt lat="44.98273" lon="4.18199">
        <ele>1348</ele>
        <time>2021-04-28T13:50:57Z</time>
      </trkpt>
      <trkpt lat="44.9827" lon="4.18194">
        <ele>1348</ele>
        <time>2021-04-28T13:50:58Z</time>
      </trkpt>
      <trkpt lat="44.98266" lon="4.1819">
        <ele>1348</ele>
        <time>2021-04-28T13:50:59Z</time>
      </trkpt>
      <trkpt lat="44.98263" lon="4.18186">
        <ele>1348</ele>
        <time>2021-04-28T13:51:00Z</time>
      </trkpt>
      <trkpt lat="44.98259" lon="4.18181">
        <ele>1348</ele>
        <time>2021-04-28T13:51:01Z</time>
      </trkpt>
      <trkpt lat="44.98255" lon="4.18175">
        <ele>1348</ele>
        <time>2021-04-28T13:51:02Z</time>
      </trkpt>
      <trkpt lat="44.98252" lon="4.18168">
        <ele>1348</ele>
        <time>2021-04-28T13:51:03Z</time>
      </trkpt>
      <trkpt lat="44.9825" lon="4.18161">
        <ele>1348</ele>
        <time>2021-04-28T13:51:04Z</time>
      </trkpt>
      <trkpt lat="44.98249" lon="4.18154">
        <ele>1349</ele>
        <time>2021-04-28T13:51:05Z</time>
      </trkpt>
      <trkpt lat="44.98249" lon="4.18149">
        <ele>1349</ele>
        <time>2021-04-28T13:51:06Z</time>
      </trkpt>
      <trkpt lat="44.98249" lon="4.18144">
        <ele>1349</ele>
        <time>2021-04-28T13:51:07Z</time>
      </trkpt>
      <trkpt lat="44.98248" lon="4.18138">
        <ele>1349</ele>
        <time>2021-04-28T13:51:08Z</time>
      </trkpt>
      <trkpt lat="44.98248" lon="4.1813">
        <ele>1349</ele>
        <time>2021-04-28T13:51:09Z</time>
      </trkpt>
      <trkpt lat="44.98248" lon="4.18116">
        <ele>1349</ele>
        <time>2021-04-28T13:51:10Z</time>
      </trkpt>
      <trkpt lat="44.9825" lon="4.1811">
        <ele>1349</ele>
        <time>2021-04-28T13:51:12Z</time>
      </trkpt>
      <trkpt lat="44.98253" lon="4.18103">
        <ele>1349</ele>
        <time>2021-04-28T13:51:13Z</time>
      </trkpt>
      <trkpt lat="44.98257" lon="4.18098">
        <ele>1349</ele>
        <time>2021-04-28T13:51:14Z</time>
      </trkpt>
      <trkpt lat="44.98262" lon="4.18093">
        <ele>1349</ele>
        <time>2021-04-28T13:51:15Z</time>
      </trkpt>
      <trkpt lat="44.98266" lon="4.18088">
        <ele>1349</ele>
        <time>2021-04-28T13:51:16Z</time>
      </trkpt>
      <trkpt lat="44.9827" lon="4.18083">
        <ele>1349</ele>
        <time>2021-04-28T13:51:17Z</time>
      </trkpt>
      <trkpt lat="44.98274" lon="4.18078">
        <ele>1349</ele>
        <time>2021-04-28T13:51:18Z</time>
      </trkpt>
      <trkpt lat="44.98278" lon="4.18073">
        <ele>1349</ele>
        <time>2021-04-28T13:51:19Z</time>
      </trkpt>
      <trkpt lat="44.98282" lon="4.18067">
        <ele>1349</ele>
        <time>2021-04-28T13:51:20Z</time>
      </trkpt>
      <trkpt lat="44.98285" lon="4.18061">
        <ele>1349</ele>
        <time>2021-04-28T13:51:21Z</time>
      </trkpt>
      <trkpt lat="44.98287" lon="4.18054">
        <ele>1348</ele>
        <time>2021-04-28T13:51:22Z</time>
      </trkpt>
      <trkpt lat="44.9829" lon="4.18047">
        <ele>1348</ele>
        <time>2021-04-28T13:51:23Z</time>
      </trkpt>
      <trkpt lat="44.98295" lon="4.18041">
        <ele>1348</ele>
        <time>2021-04-28T13:51:24Z</time>
      </trkpt>
      <trkpt lat="44.98299" lon="4.18036">
        <ele>1348</ele>
        <time>2021-04-28T13:51:25Z</time>
      </trkpt>
      <trkpt lat="44.98304" lon="4.1803">
        <ele>1348</ele>
        <time>2021-04-28T13:51:26Z</time>
      </trkpt>
      <trkpt lat="44.98307" lon="4.18024">
        <ele>1348</ele>
        <time>2021-04-28T13:51:27Z</time>
      </trkpt>
      <trkpt lat="44.98311" lon="4.18017">
        <ele>1348</ele>
        <time>2021-04-28T13:51:28Z</time>
      </trkpt>
      <trkpt lat="44.98316" lon="4.18009">
        <ele>1348</ele>
        <time>2021-04-28T13:51:29Z</time>
      </trkpt>
      <trkpt lat="44.98321" lon="4.18002">
        <ele>1348</ele>
        <time>2021-04-28T13:51:30Z</time>
      </trkpt>
      <trkpt lat="44.98327" lon="4.17998">
        <ele>1348</ele>
        <time>2021-04-28T13:51:31Z</time>
      </trkpt>
      <trkpt lat="44.98333" lon="4.17996">
        <ele>1347</ele>
        <time>2021-04-28T13:51:32Z</time>
      </trkpt>
      <trkpt lat="44.98341" lon="4.17993">
        <ele>1347</ele>
        <time>2021-04-28T13:51:33Z</time>
      </trkpt>
      <trkpt lat="44.98348" lon="4.17991">
        <ele>1347</ele>
        <time>2021-04-28T13:51:34Z</time>
      </trkpt>
      <trkpt lat="44.98355" lon="4.17992">
        <ele>1347</ele>
        <time>2021-04-28T13:51:35Z</time>
      </trkpt>
      <trkpt lat="44.98361" lon="4.17994">
        <ele>1347</ele>
        <time>2021-04-28T13:51:36Z</time>
      </trkpt>
      <trkpt lat="44.98373" lon="4.18002">
        <ele>1347</ele>
        <time>2021-04-28T13:51:38Z</time>
      </trkpt>
      <trkpt lat="44.9838" lon="4.18004">
        <ele>1347</ele>
        <time>2021-04-28T13:51:39Z</time>
      </trkpt>
      <trkpt lat="44.98387" lon="4.18006">
        <ele>1346</ele>
        <time>2021-04-28T13:51:40Z</time>
      </trkpt>
      <trkpt lat="44.98392" lon="4.1801">
        <ele>1346</ele>
        <time>2021-04-28T13:51:41Z</time>
      </trkpt>
      <trkpt lat="44.98402" lon="4.18023">
        <ele>1345</ele>
        <time>2021-04-28T13:51:43Z</time>
      </trkpt>
      <trkpt lat="44.98407" lon="4.18029">
        <ele>1345</ele>
        <time>2021-04-28T13:51:44Z</time>
      </trkpt>
      <trkpt lat="44.98419" lon="4.18033">
        <ele>1344</ele>
        <time>2021-04-28T13:51:46Z</time>
      </trkpt>
      <trkpt lat="44.98436" lon="4.18025">
        <ele>1344</ele>
        <time>2021-04-28T13:51:48Z</time>
      </trkpt>
      <trkpt lat="44.9845" lon="4.18011">
        <ele>1343</ele>
        <time>2021-04-28T13:51:50Z</time>
      </trkpt>
      <trkpt lat="44.98456" lon="4.18002">
        <ele>1342</ele>
        <time>2021-04-28T13:51:51Z</time>
      </trkpt>
      <trkpt lat="44.98462" lon="4.17993">
        <ele>1341</ele>
        <time>2021-04-28T13:51:52Z</time>
      </trkpt>
      <trkpt lat="44.98468" lon="4.17983">
        <ele>1341</ele>
        <time>2021-04-28T13:51:53Z</time>
      </trkpt>
      <trkpt lat="44.98475" lon="4.17972">
        <ele>1340</ele>
        <time>2021-04-28T13:51:54Z</time>
      </trkpt>
      <trkpt lat="44.98482" lon="4.17962">
        <ele>1340</ele>
        <time>2021-04-28T13:51:55Z</time>
      </trkpt>
      <trkpt lat="44.9849" lon="4.17953">
        <ele>1339</ele>
        <time>2021-04-28T13:51:56Z</time>
      </trkpt>
      <trkpt lat="44.98499" lon="4.17944">
        <ele>1338</ele>
        <time>2021-04-28T13:51:57Z</time>
      </trkpt>
      <trkpt lat="44.98507" lon="4.17935">
        <ele>1337</ele>
        <time>2021-04-28T13:51:58Z</time>
      </trkpt>
      <trkpt lat="44.98515" lon="4.17927">
        <ele>1336</ele>
        <time>2021-04-28T13:51:59Z</time>
      </trkpt>
      <trkpt lat="44.98523" lon="4.17923">
        <ele>1335</ele>
        <time>2021-04-28T13:52:00Z</time>
      </trkpt>
      <trkpt lat="44.98531" lon="4.17921">
        <ele>1335</ele>
        <time>2021-04-28T13:52:01Z</time>
      </trkpt>
      <trkpt lat="44.98538" lon="4.17916">
        <ele>1334</ele>
        <time>2021-04-28T13:52:02Z</time>
      </trkpt>
      <trkpt lat="44.98546" lon="4.17911">
        <ele>1334</ele>
        <time>2021-04-28T13:52:03Z</time>
      </trkpt>
      <trkpt lat="44.98554" lon="4.17905">
        <ele>1333</ele>
        <time>2021-04-28T13:52:04Z</time>
      </trkpt>
      <trkpt lat="44.98563" lon="4.17898">
        <ele>1332</ele>
        <time>2021-04-28T13:52:05Z</time>
      </trkpt>
      <trkpt lat="44.98571" lon="4.17892">
        <ele>1331</ele>
        <time>2021-04-28T13:52:06Z</time>
      </trkpt>
      <trkpt lat="44.98578" lon="4.17887">
        <ele>1330</ele>
        <time>2021-04-28T13:52:07Z</time>
      </trkpt>
      <trkpt lat="44.98583" lon="4.17883">
        <ele>1328</ele>
        <time>2021-04-28T13:52:08Z</time>
      </trkpt>
      <trkpt lat="44.98584" lon="4.1788">
        <ele>1327</ele>
        <time>2021-04-28T13:52:09Z</time>
      </trkpt>
      <trkpt lat="44.98586" lon="4.17879">
        <ele>1325</ele>
        <time>2021-04-28T13:52:10Z</time>
      </trkpt>
      <trkpt lat="44.98585" lon="4.17876">
        <ele>1323</ele>
        <time>2021-04-28T13:52:13Z</time>
      </trkpt>
      <trkpt lat="44.98584" lon="4.17871">
        <ele>1322</ele>
        <time>2021-04-28T13:52:15Z</time>
      </trkpt>
      <trkpt lat="44.98583" lon="4.17867">
        <ele>1322</ele>
        <time>2021-04-28T13:52:16Z</time>
      </trkpt>
      <trkpt lat="44.98581" lon="4.17864">
        <ele>1321</ele>
        <time>2021-04-28T13:52:17Z</time>
      </trkpt>
      <trkpt lat="44.9858" lon="4.1786">
        <ele>1321</ele>
        <time>2021-04-28T13:52:18Z</time>
      </trkpt>
      <trkpt lat="44.98578" lon="4.17856">
        <ele>1320</ele>
        <time>2021-04-28T13:52:19Z</time>
      </trkpt>
      <trkpt lat="44.98575" lon="4.17853">
        <ele>1319</ele>
        <time>2021-04-28T13:52:20Z</time>
      </trkpt>
      <trkpt lat="44.98573" lon="4.17849">
        <ele>1318</ele>
        <time>2021-04-28T13:52:21Z</time>
      </trkpt>
      <trkpt lat="44.98571" lon="4.17846">
        <ele>1318</ele>
        <time>2021-04-28T13:52:22Z</time>
      </trkpt>
      <trkpt lat="44.98568" lon="4.17842">
        <ele>1317</ele>
        <time>2021-04-28T13:52:23Z</time>
      </trkpt>
      <trkpt lat="44.98566" lon="4.17839">
        <ele>1316</ele>
        <time>2021-04-28T13:52:24Z</time>
      </trkpt>
      <trkpt lat="44.98563" lon="4.17835">
        <ele>1316</ele>
        <time>2021-04-28T13:52:25Z</time>
      </trkpt>
      <trkpt lat="44.98558" lon="4.17829">
        <ele>1316</ele>
        <time>2021-04-28T13:52:26Z</time>
      </trkpt>
      <trkpt lat="44.98556" lon="4.17826">
        <ele>1315</ele>
        <time>2021-04-28T13:52:28Z</time>
      </trkpt>
      <trkpt lat="44.98553" lon="4.17823">
        <ele>1315</ele>
        <time>2021-04-28T13:52:29Z</time>
      </trkpt>
      <trkpt lat="44.98551" lon="4.17819">
        <ele>1314</ele>
        <time>2021-04-28T13:52:30Z</time>
      </trkpt>
      <trkpt lat="44.98548" lon="4.17816">
        <ele>1314</ele>
        <time>2021-04-28T13:52:31Z</time>
      </trkpt>
      <trkpt lat="44.98545" lon="4.17813">
        <ele>1314</ele>
        <time>2021-04-28T13:52:32Z</time>
      </trkpt>
      <trkpt lat="44.98542" lon="4.1781">
        <ele>1313</ele>
        <time>2021-04-28T13:52:33Z</time>
      </trkpt>
      <trkpt lat="44.98539" lon="4.17807">
        <ele>1313</ele>
        <time>2021-04-28T13:52:34Z</time>
      </trkpt>
      <trkpt lat="44.98536" lon="4.17804">
        <ele>1313</ele>
        <time>2021-04-28T13:52:35Z</time>
      </trkpt>
      <trkpt lat="44.98534" lon="4.17802">
        <ele>1313</ele>
        <time>2021-04-28T13:52:36Z</time>
      </trkpt>
      <trkpt lat="44.98531" lon="4.17799">
        <ele>1313</ele>
        <time>2021-04-28T13:52:37Z</time>
      </trkpt>
      <trkpt lat="44.98528" lon="4.17797">
        <ele>1312</ele>
        <time>2021-04-28T13:52:38Z</time>
      </trkpt>
      <trkpt lat="44.98525" lon="4.17794">
        <ele>1312</ele>
        <time>2021-04-28T13:52:39Z</time>
      </trkpt>
      <trkpt lat="44.98523" lon="4.17792">
        <ele>1312</ele>
        <time>2021-04-28T13:52:40Z</time>
      </trkpt>
      <trkpt lat="44.98521" lon="4.17788">
        <ele>1311</ele>
        <time>2021-04-28T13:52:41Z</time>
      </trkpt>
      <trkpt lat="44.9852" lon="4.17784">
        <ele>1311</ele>
        <time>2021-04-28T13:52:42Z</time>
      </trkpt>
      <trkpt lat="44.9852" lon="4.1778">
        <ele>1310</ele>
        <time>2021-04-28T13:52:43Z</time>
      </trkpt>
      <trkpt lat="44.9852" lon="4.17776">
        <ele>1310</ele>
        <time>2021-04-28T13:52:44Z</time>
      </trkpt>
      <trkpt lat="44.9852" lon="4.17771">
        <ele>1309</ele>
        <time>2021-04-28T13:52:45Z</time>
      </trkpt>
      <trkpt lat="44.9852" lon="4.17766">
        <ele>1309</ele>
        <time>2021-04-28T13:52:46Z</time>
      </trkpt>
      <trkpt lat="44.98519" lon="4.1776">
        <ele>1308</ele>
        <time>2021-04-28T13:52:47Z</time>
      </trkpt>
      <trkpt lat="44.98517" lon="4.17754">
        <ele>1308</ele>
        <time>2021-04-28T13:52:48Z</time>
      </trkpt>
      <trkpt lat="44.98514" lon="4.17748">
        <ele>1307</ele>
        <time>2021-04-28T13:52:49Z</time>
      </trkpt>
      <trkpt lat="44.98509" lon="4.17742">
        <ele>1307</ele>
        <time>2021-04-28T13:52:50Z</time>
      </trkpt>
      <trkpt lat="44.98502" lon="4.17738">
        <ele>1306</ele>
        <time>2021-04-28T13:52:51Z</time>
      </trkpt>
      <trkpt lat="44.98495" lon="4.17735">
        <ele>1305</ele>
        <time>2021-04-28T13:52:52Z</time>
      </trkpt>
      <trkpt lat="44.98488" lon="4.17732">
        <ele>1305</ele>
        <time>2021-04-28T13:52:53Z</time>
      </trkpt>
      <trkpt lat="44.98482" lon="4.17728">
        <ele>1304</ele>
        <time>2021-04-28T13:52:54Z</time>
      </trkpt>
      <trkpt lat="44.98478" lon="4.17721">
        <ele>1302</ele>
        <time>2021-04-28T13:52:55Z</time>
      </trkpt>
      <trkpt lat="44.98477" lon="4.17713">
        <ele>1301</ele>
        <time>2021-04-28T13:52:56Z</time>
      </trkpt>
      <trkpt lat="44.98479" lon="4.17703">
        <ele>1301</ele>
        <time>2021-04-28T13:52:57Z</time>
      </trkpt>
      <trkpt lat="44.98481" lon="4.17692">
        <ele>1299</ele>
        <time>2021-04-28T13:52:58Z</time>
      </trkpt>
      <trkpt lat="44.98483" lon="4.1768">
        <ele>1298</ele>
        <time>2021-04-28T13:52:59Z</time>
      </trkpt>
      <trkpt lat="44.98486" lon="4.17667">
        <ele>1297</ele>
        <time>2021-04-28T13:53:00Z</time>
      </trkpt>
      <trkpt lat="44.98489" lon="4.17654">
        <ele>1296</ele>
        <time>2021-04-28T13:53:01Z</time>
      </trkpt>
      <trkpt lat="44.98493" lon="4.17641">
        <ele>1295</ele>
        <time>2021-04-28T13:53:02Z</time>
      </trkpt>
      <trkpt lat="44.98497" lon="4.17628">
        <ele>1294</ele>
        <time>2021-04-28T13:53:03Z</time>
      </trkpt>
      <trkpt lat="44.98505" lon="4.17603">
        <ele>1293</ele>
        <time>2021-04-28T13:53:04Z</time>
      </trkpt>
      <trkpt lat="44.98508" lon="4.17591">
        <ele>1291</ele>
        <time>2021-04-28T13:53:06Z</time>
      </trkpt>
      <trkpt lat="44.9851" lon="4.17577">
        <ele>1290</ele>
        <time>2021-04-28T13:53:07Z</time>
      </trkpt>
      <trkpt lat="44.98513" lon="4.17564">
        <ele>1289</ele>
        <time>2021-04-28T13:53:08Z</time>
      </trkpt>
      <trkpt lat="44.98515" lon="4.17551">
        <ele>1288</ele>
        <time>2021-04-28T13:53:09Z</time>
      </trkpt>
      <trkpt lat="44.98518" lon="4.17539">
        <ele>1287</ele>
        <time>2021-04-28T13:53:10Z</time>
      </trkpt>
      <trkpt lat="44.98522" lon="4.17527">
        <ele>1286</ele>
        <time>2021-04-28T13:53:11Z</time>
      </trkpt>
      <trkpt lat="44.98525" lon="4.17516">
        <ele>1286</ele>
        <time>2021-04-28T13:53:12Z</time>
      </trkpt>
      <trkpt lat="44.98529" lon="4.17505">
        <ele>1285</ele>
        <time>2021-04-28T13:53:13Z</time>
      </trkpt>
      <trkpt lat="44.98533" lon="4.17495">
        <ele>1284</ele>
        <time>2021-04-28T13:53:14Z</time>
      </trkpt>
      <trkpt lat="44.98536" lon="4.17484">
        <ele>1284</ele>
        <time>2021-04-28T13:53:15Z</time>
      </trkpt>
      <trkpt lat="44.98538" lon="4.17474">
        <ele>1283</ele>
        <time>2021-04-28T13:53:16Z</time>
      </trkpt>
      <trkpt lat="44.98539" lon="4.17464">
        <ele>1282</ele>
        <time>2021-04-28T13:53:17Z</time>
      </trkpt>
      <trkpt lat="44.98541" lon="4.17454">
        <ele>1282</ele>
        <time>2021-04-28T13:53:18Z</time>
      </trkpt>
      <trkpt lat="44.98543" lon="4.17444">
        <ele>1281</ele>
        <time>2021-04-28T13:53:19Z</time>
      </trkpt>
      <trkpt lat="44.98544" lon="4.17433">
        <ele>1280</ele>
        <time>2021-04-28T13:53:20Z</time>
      </trkpt>
      <trkpt lat="44.98546" lon="4.17423">
        <ele>1280</ele>
        <time>2021-04-28T13:53:21Z</time>
      </trkpt>
      <trkpt lat="44.98547" lon="4.17413">
        <ele>1279</ele>
        <time>2021-04-28T13:53:22Z</time>
      </trkpt>
      <trkpt lat="44.98549" lon="4.17403">
        <ele>1278</ele>
        <time>2021-04-28T13:53:23Z</time>
      </trkpt>
      <trkpt lat="44.9855" lon="4.17393">
        <ele>1278</ele>
        <time>2021-04-28T13:53:24Z</time>
      </trkpt>
      <trkpt lat="44.98551" lon="4.17384">
        <ele>1277</ele>
        <time>2021-04-28T13:53:25Z</time>
      </trkpt>
      <trkpt lat="44.98552" lon="4.17375">
        <ele>1277</ele>
        <time>2021-04-28T13:53:26Z</time>
      </trkpt>
      <trkpt lat="44.98554" lon="4.17366">
        <ele>1277</ele>
        <time>2021-04-28T13:53:27Z</time>
      </trkpt>
      <trkpt lat="44.98555" lon="4.17358">
        <ele>1276</ele>
        <time>2021-04-28T13:53:28Z</time>
      </trkpt>
      <trkpt lat="44.98556" lon="4.17349">
        <ele>1276</ele>
        <time>2021-04-28T13:53:29Z</time>
      </trkpt>
      <trkpt lat="44.98557" lon="4.17341">
        <ele>1275</ele>
        <time>2021-04-28T13:53:30Z</time>
      </trkpt>
      <trkpt lat="44.98558" lon="4.17332">
        <ele>1275</ele>
        <time>2021-04-28T13:53:31Z</time>
      </trkpt>
      <trkpt lat="44.98559" lon="4.17324">
        <ele>1275</ele>
        <time>2021-04-28T13:53:32Z</time>
      </trkpt>
      <trkpt lat="44.98559" lon="4.17316">
        <ele>1275</ele>
        <time>2021-04-28T13:53:33Z</time>
      </trkpt>
      <trkpt lat="44.9856" lon="4.17308">
        <ele>1274</ele>
        <time>2021-04-28T13:53:34Z</time>
      </trkpt>
      <trkpt lat="44.9856" lon="4.173">
        <ele>1274</ele>
        <time>2021-04-28T13:53:35Z</time>
      </trkpt>
      <trkpt lat="44.9856" lon="4.17292">
        <ele>1274</ele>
        <time>2021-04-28T13:53:36Z</time>
      </trkpt>
      <trkpt lat="44.9856" lon="4.17284">
        <ele>1273</ele>
        <time>2021-04-28T13:53:37Z</time>
      </trkpt>
      <trkpt lat="44.9856" lon="4.17276">
        <ele>1273</ele>
        <time>2021-04-28T13:53:38Z</time>
      </trkpt>
      <trkpt lat="44.9856" lon="4.17268">
        <ele>1273</ele>
        <time>2021-04-28T13:53:39Z</time>
      </trkpt>
      <trkpt lat="44.98559" lon="4.1726">
        <ele>1272</ele>
        <time>2021-04-28T13:53:40Z</time>
      </trkpt>
      <trkpt lat="44.98559" lon="4.17251">
        <ele>1272</ele>
        <time>2021-04-28T13:53:41Z</time>
      </trkpt>
      <trkpt lat="44.98559" lon="4.17244">
        <ele>1272</ele>
        <time>2021-04-28T13:53:42Z</time>
      </trkpt>
      <trkpt lat="44.98559" lon="4.17236">
        <ele>1272</ele>
        <time>2021-04-28T13:53:43Z</time>
      </trkpt>
      <trkpt lat="44.98559" lon="4.17229">
        <ele>1271</ele>
        <time>2021-04-28T13:53:44Z</time>
      </trkpt>
      <trkpt lat="44.98559" lon="4.17221">
        <ele>1271</ele>
        <time>2021-04-28T13:53:45Z</time>
      </trkpt>
      <trkpt lat="44.98559" lon="4.17215">
        <ele>1271</ele>
        <time>2021-04-28T13:53:46Z</time>
      </trkpt>
      <trkpt lat="44.98559" lon="4.17208">
        <ele>1271</ele>
        <time>2021-04-28T13:53:47Z</time>
      </trkpt>
      <trkpt lat="44.98559" lon="4.17202">
        <ele>1271</ele>
        <time>2021-04-28T13:53:48Z</time>
      </trkpt>
      <trkpt lat="44.98558" lon="4.17196">
        <ele>1270</ele>
        <time>2021-04-28T13:53:49Z</time>
      </trkpt>
      <trkpt lat="44.98558" lon="4.1719">
        <ele>1270</ele>
        <time>2021-04-28T13:53:50Z</time>
      </trkpt>
      <trkpt lat="44.98558" lon="4.17185">
        <ele>1270</ele>
        <time>2021-04-28T13:53:51Z</time>
      </trkpt>
      <trkpt lat="44.98558" lon="4.17182">
        <ele>1270</ele>
        <time>2021-04-28T13:53:52Z</time>
      </trkpt>
      <trkpt lat="44.98557" lon="4.17179">
        <ele>1270</ele>
        <time>2021-04-28T13:53:53Z</time>
      </trkpt>
      <trkpt lat="44.98556" lon="4.17175">
        <ele>1270</ele>
        <time>2021-04-28T13:53:54Z</time>
      </trkpt>
      <trkpt lat="44.98555" lon="4.1717">
        <ele>1270</ele>
        <time>2021-04-28T13:53:55Z</time>
      </trkpt>
      <trkpt lat="44.98555" lon="4.17165">
        <ele>1270</ele>
        <time>2021-04-28T13:53:56Z</time>
      </trkpt>
      <trkpt lat="44.98554" lon="4.17159">
        <ele>1269</ele>
        <time>2021-04-28T13:53:57Z</time>
      </trkpt>
      <trkpt lat="44.98553" lon="4.17153">
        <ele>1269</ele>
        <time>2021-04-28T13:53:58Z</time>
      </trkpt>
      <trkpt lat="44.98552" lon="4.17147">
        <ele>1269</ele>
        <time>2021-04-28T13:53:59Z</time>
      </trkpt>
      <trkpt lat="44.98551" lon="4.17141">
        <ele>1269</ele>
        <time>2021-04-28T13:54:00Z</time>
      </trkpt>
      <trkpt lat="44.98551" lon="4.17135">
        <ele>1269</ele>
        <time>2021-04-28T13:54:01Z</time>
      </trkpt>
      <trkpt lat="44.98551" lon="4.1713">
        <ele>1269</ele>
        <time>2021-04-28T13:54:02Z</time>
      </trkpt>
      <trkpt lat="44.9855" lon="4.17124">
        <ele>1269</ele>
        <time>2021-04-28T13:54:03Z</time>
      </trkpt>
      <trkpt lat="44.98548" lon="4.17118">
        <ele>1269</ele>
        <time>2021-04-28T13:54:04Z</time>
      </trkpt>
      <trkpt lat="44.98547" lon="4.17112">
        <ele>1268</ele>
        <time>2021-04-28T13:54:05Z</time>
      </trkpt>
      <trkpt lat="44.98546" lon="4.17106">
        <ele>1268</ele>
        <time>2021-04-28T13:54:06Z</time>
      </trkpt>
      <trkpt lat="44.98544" lon="4.17099">
        <ele>1268</ele>
        <time>2021-04-28T13:54:07Z</time>
      </trkpt>
      <trkpt lat="44.98543" lon="4.17092">
        <ele>1268</ele>
        <time>2021-04-28T13:54:08Z</time>
      </trkpt>
      <trkpt lat="44.98541" lon="4.17085">
        <ele>1268</ele>
        <time>2021-04-28T13:54:09Z</time>
      </trkpt>
      <trkpt lat="44.98539" lon="4.17077">
        <ele>1268</ele>
        <time>2021-04-28T13:54:10Z</time>
      </trkpt>
      <trkpt lat="44.98536" lon="4.1707">
        <ele>1267</ele>
        <time>2021-04-28T13:54:11Z</time>
      </trkpt>
      <trkpt lat="44.98534" lon="4.17062">
        <ele>1267</ele>
        <time>2021-04-28T13:54:12Z</time>
      </trkpt>
      <trkpt lat="44.98532" lon="4.17054">
        <ele>1267</ele>
        <time>2021-04-28T13:54:13Z</time>
      </trkpt>
      <trkpt lat="44.9853" lon="4.17046">
        <ele>1267</ele>
        <time>2021-04-28T13:54:14Z</time>
      </trkpt>
      <trkpt lat="44.98528" lon="4.17038">
        <ele>1266</ele>
        <time>2021-04-28T13:54:15Z</time>
      </trkpt>
      <trkpt lat="44.98526" lon="4.17028">
        <ele>1266</ele>
        <time>2021-04-28T13:54:16Z</time>
      </trkpt>
      <trkpt lat="44.98524" lon="4.1702">
        <ele>1266</ele>
        <time>2021-04-28T13:54:17Z</time>
      </trkpt>
      <trkpt lat="44.98523" lon="4.17011">
        <ele>1265</ele>
        <time>2021-04-28T13:54:18Z</time>
      </trkpt>
      <trkpt lat="44.98521" lon="4.17003">
        <ele>1265</ele>
        <time>2021-04-28T13:54:19Z</time>
      </trkpt>
      <trkpt lat="44.98519" lon="4.16995">
        <ele>1265</ele>
        <time>2021-04-28T13:54:20Z</time>
      </trkpt>
      <trkpt lat="44.98517" lon="4.16987">
        <ele>1264</ele>
        <time>2021-04-28T13:54:21Z</time>
      </trkpt>
      <trkpt lat="44.98515" lon="4.1698">
        <ele>1264</ele>
        <time>2021-04-28T13:54:22Z</time>
      </trkpt>
      <trkpt lat="44.98513" lon="4.16972">
        <ele>1264</ele>
        <time>2021-04-28T13:54:23Z</time>
      </trkpt>
      <trkpt lat="44.9851" lon="4.16964">
        <ele>1263</ele>
        <time>2021-04-28T13:54:24Z</time>
      </trkpt>
      <trkpt lat="44.98508" lon="4.16957">
        <ele>1263</ele>
        <time>2021-04-28T13:54:25Z</time>
      </trkpt>
      <trkpt lat="44.98505" lon="4.1695">
        <ele>1263</ele>
        <time>2021-04-28T13:54:26Z</time>
      </trkpt>
      <trkpt lat="44.98502" lon="4.16943">
        <ele>1262</ele>
        <time>2021-04-28T13:54:27Z</time>
      </trkpt>
      <trkpt lat="44.985" lon="4.16936">
        <ele>1262</ele>
        <time>2021-04-28T13:54:28Z</time>
      </trkpt>
      <trkpt lat="44.98497" lon="4.16929">
        <ele>1261</ele>
        <time>2021-04-28T13:54:29Z</time>
      </trkpt>
      <trkpt lat="44.98494" lon="4.16922">
        <ele>1261</ele>
        <time>2021-04-28T13:54:30Z</time>
      </trkpt>
      <trkpt lat="44.9849" lon="4.16915">
        <ele>1260</ele>
        <time>2021-04-28T13:54:31Z</time>
      </trkpt>
      <trkpt lat="44.98487" lon="4.16908">
        <ele>1260</ele>
        <time>2021-04-28T13:54:32Z</time>
      </trkpt>
      <trkpt lat="44.98483" lon="4.16902">
        <ele>1259</ele>
        <time>2021-04-28T13:54:33Z</time>
      </trkpt>
      <trkpt lat="44.9848" lon="4.16895">
        <ele>1259</ele>
        <time>2021-04-28T13:54:34Z</time>
      </trkpt>
      <trkpt lat="44.98477" lon="4.16887">
        <ele>1258</ele>
        <time>2021-04-28T13:54:35Z</time>
      </trkpt>
      <trkpt lat="44.98473" lon="4.16879">
        <ele>1258</ele>
        <time>2021-04-28T13:54:36Z</time>
      </trkpt>
      <trkpt lat="44.98469" lon="4.16871">
        <ele>1258</ele>
        <time>2021-04-28T13:54:37Z</time>
      </trkpt>
      <trkpt lat="44.98465" lon="4.16864">
        <ele>1257</ele>
        <time>2021-04-28T13:54:38Z</time>
      </trkpt>
      <trkpt lat="44.98461" lon="4.16857">
        <ele>1257</ele>
        <time>2021-04-28T13:54:39Z</time>
      </trkpt>
      <trkpt lat="44.98458" lon="4.1685">
        <ele>1257</ele>
        <time>2021-04-28T13:54:40Z</time>
      </trkpt>
      <trkpt lat="44.98455" lon="4.16844">
        <ele>1256</ele>
        <time>2021-04-28T13:54:41Z</time>
      </trkpt>
      <trkpt lat="44.98453" lon="4.16837">
        <ele>1256</ele>
        <time>2021-04-28T13:54:42Z</time>
      </trkpt>
      <trkpt lat="44.98452" lon="4.16831">
        <ele>1255</ele>
        <time>2021-04-28T13:54:43Z</time>
      </trkpt>
      <trkpt lat="44.9845" lon="4.16825">
        <ele>1255</ele>
        <time>2021-04-28T13:54:44Z</time>
      </trkpt>
      <trkpt lat="44.98449" lon="4.1682">
        <ele>1255</ele>
        <time>2021-04-28T13:54:45Z</time>
      </trkpt>
      <trkpt lat="44.98447" lon="4.16814">
        <ele>1255</ele>
        <time>2021-04-28T13:54:46Z</time>
      </trkpt>
      <trkpt lat="44.98446" lon="4.16808">
        <ele>1254</ele>
        <time>2021-04-28T13:54:47Z</time>
      </trkpt>
      <trkpt lat="44.98445" lon="4.16803">
        <ele>1254</ele>
        <time>2021-04-28T13:54:48Z</time>
      </trkpt>
      <trkpt lat="44.98444" lon="4.16798">
        <ele>1254</ele>
        <time>2021-04-28T13:54:49Z</time>
      </trkpt>
      <trkpt lat="44.98444" lon="4.16794">
        <ele>1254</ele>
        <time>2021-04-28T13:54:50Z</time>
      </trkpt>
      <trkpt lat="44.98443" lon="4.1679">
        <ele>1254</ele>
        <time>2021-04-28T13:54:51Z</time>
      </trkpt>
      <trkpt lat="44.98441" lon="4.16786">
        <ele>1253</ele>
        <time>2021-04-28T13:54:52Z</time>
      </trkpt>
      <trkpt lat="44.9844" lon="4.16781">
        <ele>1253</ele>
        <time>2021-04-28T13:54:53Z</time>
      </trkpt>
      <trkpt lat="44.98438" lon="4.16777">
        <ele>1253</ele>
        <time>2021-04-28T13:54:54Z</time>
      </trkpt>
      <trkpt lat="44.98437" lon="4.16772">
        <ele>1253</ele>
        <time>2021-04-28T13:54:55Z</time>
      </trkpt>
      <trkpt lat="44.98435" lon="4.16767">
        <ele>1253</ele>
        <time>2021-04-28T13:54:56Z</time>
      </trkpt>
      <trkpt lat="44.98433" lon="4.16763">
        <ele>1253</ele>
        <time>2021-04-28T13:54:57Z</time>
      </trkpt>
      <trkpt lat="44.9843" lon="4.16753">
        <ele>1253</ele>
        <time>2021-04-28T13:54:58Z</time>
      </trkpt>
      <trkpt lat="44.98428" lon="4.16748">
        <ele>1253</ele>
        <time>2021-04-28T13:55:00Z</time>
      </trkpt>
      <trkpt lat="44.98427" lon="4.16743">
        <ele>1253</ele>
        <time>2021-04-28T13:55:01Z</time>
      </trkpt>
      <trkpt lat="44.98426" lon="4.16738">
        <ele>1252</ele>
        <time>2021-04-28T13:55:02Z</time>
      </trkpt>
      <trkpt lat="44.98424" lon="4.16733">
        <ele>1252</ele>
        <time>2021-04-28T13:55:03Z</time>
      </trkpt>
      <trkpt lat="44.98423" lon="4.16728">
        <ele>1252</ele>
        <time>2021-04-28T13:55:04Z</time>
      </trkpt>
      <trkpt lat="44.98421" lon="4.16723">
        <ele>1252</ele>
        <time>2021-04-28T13:55:05Z</time>
      </trkpt>
      <trkpt lat="44.98419" lon="4.16718">
        <ele>1252</ele>
        <time>2021-04-28T13:55:06Z</time>
      </trkpt>
      <trkpt lat="44.98417" lon="4.16714">
        <ele>1252</ele>
        <time>2021-04-28T13:55:07Z</time>
      </trkpt>
      <trkpt lat="44.98415" lon="4.1671">
        <ele>1252</ele>
        <time>2021-04-28T13:55:08Z</time>
      </trkpt>
      <trkpt lat="44.98412" lon="4.16706">
        <ele>1252</ele>
        <time>2021-04-28T13:55:09Z</time>
      </trkpt>
      <trkpt lat="44.9841" lon="4.16701">
        <ele>1252</ele>
        <time>2021-04-28T13:55:10Z</time>
      </trkpt>
      <trkpt lat="44.98406" lon="4.16697">
        <ele>1252</ele>
        <time>2021-04-28T13:55:11Z</time>
      </trkpt>
      <trkpt lat="44.98403" lon="4.16693">
        <ele>1252</ele>
        <time>2021-04-28T13:55:12Z</time>
      </trkpt>
      <trkpt lat="44.98399" lon="4.16689">
        <ele>1252</ele>
        <time>2021-04-28T13:55:13Z</time>
      </trkpt>
      <trkpt lat="44.98395" lon="4.16685">
        <ele>1252</ele>
        <time>2021-04-28T13:55:14Z</time>
      </trkpt>
      <trkpt lat="44.98391" lon="4.1668">
        <ele>1252</ele>
        <time>2021-04-28T13:55:15Z</time>
      </trkpt>
      <trkpt lat="44.98387" lon="4.16674">
        <ele>1252</ele>
        <time>2021-04-28T13:55:16Z</time>
      </trkpt>
      <trkpt lat="44.98379" lon="4.16664">
        <ele>1251</ele>
        <time>2021-04-28T13:55:17Z</time>
      </trkpt>
      <trkpt lat="44.98375" lon="4.16659">
        <ele>1251</ele>
        <time>2021-04-28T13:55:19Z</time>
      </trkpt>
      <trkpt lat="44.98372" lon="4.16654">
        <ele>1251</ele>
        <time>2021-04-28T13:55:20Z</time>
      </trkpt>
      <trkpt lat="44.98367" lon="4.16649">
        <ele>1250</ele>
        <time>2021-04-28T13:55:21Z</time>
      </trkpt>
      <trkpt lat="44.98363" lon="4.16646">
        <ele>1250</ele>
        <time>2021-04-28T13:55:22Z</time>
      </trkpt>
      <trkpt lat="44.98359" lon="4.16642">
        <ele>1250</ele>
        <time>2021-04-28T13:55:23Z</time>
      </trkpt>
      <trkpt lat="44.98355" lon="4.16638">
        <ele>1250</ele>
        <time>2021-04-28T13:55:24Z</time>
      </trkpt>
      <trkpt lat="44.98351" lon="4.16634">
        <ele>1249</ele>
        <time>2021-04-28T13:55:25Z</time>
      </trkpt>
      <trkpt lat="44.98347" lon="4.16629">
        <ele>1249</ele>
        <time>2021-04-28T13:55:26Z</time>
      </trkpt>
      <trkpt lat="44.98343" lon="4.16624">
        <ele>1249</ele>
        <time>2021-04-28T13:55:27Z</time>
      </trkpt>
      <trkpt lat="44.9834" lon="4.16619">
        <ele>1249</ele>
        <time>2021-04-28T13:55:28Z</time>
      </trkpt>
      <trkpt lat="44.98336" lon="4.16615">
        <ele>1248</ele>
        <time>2021-04-28T13:55:29Z</time>
      </trkpt>
      <trkpt lat="44.98333" lon="4.1661">
        <ele>1248</ele>
        <time>2021-04-28T13:55:30Z</time>
      </trkpt>
      <trkpt lat="44.9833" lon="4.16606">
        <ele>1248</ele>
        <time>2021-04-28T13:55:31Z</time>
      </trkpt>
      <trkpt lat="44.98327" lon="4.16601">
        <ele>1248</ele>
        <time>2021-04-28T13:55:32Z</time>
      </trkpt>
      <trkpt lat="44.98325" lon="4.16597">
        <ele>1248</ele>
        <time>2021-04-28T13:55:33Z</time>
      </trkpt>
      <trkpt lat="44.98324" lon="4.16592">
        <ele>1248</ele>
        <time>2021-04-28T13:55:34Z</time>
      </trkpt>
      <trkpt lat="44.98322" lon="4.16587">
        <ele>1248</ele>
        <time>2021-04-28T13:55:35Z</time>
      </trkpt>
      <trkpt lat="44.98318" lon="4.16581">
        <ele>1247</ele>
        <time>2021-04-28T13:55:36Z</time>
      </trkpt>
      <trkpt lat="44.98314" lon="4.16579">
        <ele>1247</ele>
        <time>2021-04-28T13:55:38Z</time>
      </trkpt>
      <trkpt lat="44.9831" lon="4.16579">
        <ele>1247</ele>
        <time>2021-04-28T13:55:39Z</time>
      </trkpt>
      <trkpt lat="44.98304" lon="4.16579">
        <ele>1246</ele>
        <time>2021-04-28T13:55:40Z</time>
      </trkpt>
      <trkpt lat="44.98298" lon="4.16579">
        <ele>1246</ele>
        <time>2021-04-28T13:55:41Z</time>
      </trkpt>
      <trkpt lat="44.98292" lon="4.16579">
        <ele>1245</ele>
        <time>2021-04-28T13:55:42Z</time>
      </trkpt>
      <trkpt lat="44.98286" lon="4.16577">
        <ele>1245</ele>
        <time>2021-04-28T13:55:43Z</time>
      </trkpt>
      <trkpt lat="44.9828" lon="4.16574">
        <ele>1245</ele>
        <time>2021-04-28T13:55:44Z</time>
      </trkpt>
      <trkpt lat="44.98274" lon="4.1657">
        <ele>1245</ele>
        <time>2021-04-28T13:55:45Z</time>
      </trkpt>
      <trkpt lat="44.9827" lon="4.16565">
        <ele>1244</ele>
        <time>2021-04-28T13:55:46Z</time>
      </trkpt>
      <trkpt lat="44.98265" lon="4.1656">
        <ele>1244</ele>
        <time>2021-04-28T13:55:47Z</time>
      </trkpt>
      <trkpt lat="44.98261" lon="4.16555">
        <ele>1244</ele>
        <time>2021-04-28T13:55:48Z</time>
      </trkpt>
      <trkpt lat="44.98257" lon="4.16551">
        <ele>1244</ele>
        <time>2021-04-28T13:55:49Z</time>
      </trkpt>
      <trkpt lat="44.98253" lon="4.16546">
        <ele>1244</ele>
        <time>2021-04-28T13:55:50Z</time>
      </trkpt>
      <trkpt lat="44.98249" lon="4.16541">
        <ele>1244</ele>
        <time>2021-04-28T13:55:51Z</time>
      </trkpt>
      <trkpt lat="44.98245" lon="4.16537">
        <ele>1243</ele>
        <time>2021-04-28T13:55:52Z</time>
      </trkpt>
      <trkpt lat="44.98242" lon="4.16533">
        <ele>1243</ele>
        <time>2021-04-28T13:55:53Z</time>
      </trkpt>
      <trkpt lat="44.98238" lon="4.16529">
        <ele>1243</ele>
        <time>2021-04-28T13:55:54Z</time>
      </trkpt>
      <trkpt lat="44.98231" lon="4.16522">
        <ele>1243</ele>
        <time>2021-04-28T13:55:55Z</time>
      </trkpt>
      <trkpt lat="44.98228" lon="4.16518">
        <ele>1243</ele>
        <time>2021-04-28T13:55:57Z</time>
      </trkpt>
      <trkpt lat="44.98224" lon="4.16515">
        <ele>1243</ele>
        <time>2021-04-28T13:55:58Z</time>
      </trkpt>
      <trkpt lat="44.98219" lon="4.16511">
        <ele>1243</ele>
        <time>2021-04-28T13:55:59Z</time>
      </trkpt>
      <trkpt lat="44.98214" lon="4.16508">
        <ele>1243</ele>
        <time>2021-04-28T13:56:00Z</time>
      </trkpt>
      <trkpt lat="44.98209" lon="4.16505">
        <ele>1243</ele>
        <time>2021-04-28T13:56:01Z</time>
      </trkpt>
      <trkpt lat="44.98204" lon="4.16502">
        <ele>1243</ele>
        <time>2021-04-28T13:56:02Z</time>
      </trkpt>
      <trkpt lat="44.982" lon="4.16499">
        <ele>1243</ele>
        <time>2021-04-28T13:56:03Z</time>
      </trkpt>
      <trkpt lat="44.98195" lon="4.16495">
        <ele>1243</ele>
        <time>2021-04-28T13:56:04Z</time>
      </trkpt>
      <trkpt lat="44.9819" lon="4.16492">
        <ele>1242</ele>
        <time>2021-04-28T13:56:05Z</time>
      </trkpt>
      <trkpt lat="44.98185" lon="4.16489">
        <ele>1242</ele>
        <time>2021-04-28T13:56:06Z</time>
      </trkpt>
      <trkpt lat="44.98181" lon="4.16485">
        <ele>1242</ele>
        <time>2021-04-28T13:56:07Z</time>
      </trkpt>
      <trkpt lat="44.98176" lon="4.16481">
        <ele>1242</ele>
        <time>2021-04-28T13:56:08Z</time>
      </trkpt>
      <trkpt lat="44.98172" lon="4.16477">
        <ele>1242</ele>
        <time>2021-04-28T13:56:09Z</time>
      </trkpt>
      <trkpt lat="44.98168" lon="4.16471">
        <ele>1242</ele>
        <time>2021-04-28T13:56:10Z</time>
      </trkpt>
      <trkpt lat="44.98163" lon="4.16466">
        <ele>1242</ele>
        <time>2021-04-28T13:56:11Z</time>
      </trkpt>
      <trkpt lat="44.98159" lon="4.16461">
        <ele>1242</ele>
        <time>2021-04-28T13:56:12Z</time>
      </trkpt>
      <trkpt lat="44.98154" lon="4.16456">
        <ele>1242</ele>
        <time>2021-04-28T13:56:13Z</time>
      </trkpt>
      <trkpt lat="44.9815" lon="4.16452">
        <ele>1242</ele>
        <time>2021-04-28T13:56:14Z</time>
      </trkpt>
      <trkpt lat="44.98146" lon="4.16447">
        <ele>1242</ele>
        <time>2021-04-28T13:56:15Z</time>
      </trkpt>
      <trkpt lat="44.98142" lon="4.16443">
        <ele>1242</ele>
        <time>2021-04-28T13:56:16Z</time>
      </trkpt>
      <trkpt lat="44.98137" lon="4.16438">
        <ele>1242</ele>
        <time>2021-04-28T13:56:17Z</time>
      </trkpt>
      <trkpt lat="44.98133" lon="4.16434">
        <ele>1242</ele>
        <time>2021-04-28T13:56:18Z</time>
      </trkpt>
      <trkpt lat="44.98129" lon="4.1643">
        <ele>1241</ele>
        <time>2021-04-28T13:56:19Z</time>
      </trkpt>
      <trkpt lat="44.98124" lon="4.16426">
        <ele>1241</ele>
        <time>2021-04-28T13:56:20Z</time>
      </trkpt>
      <trkpt lat="44.98119" lon="4.16422">
        <ele>1241</ele>
        <time>2021-04-28T13:56:21Z</time>
      </trkpt>
      <trkpt lat="44.98113" lon="4.16419">
        <ele>1241</ele>
        <time>2021-04-28T13:56:22Z</time>
      </trkpt>
      <trkpt lat="44.98108" lon="4.16417">
        <ele>1241</ele>
        <time>2021-04-28T13:56:23Z</time>
      </trkpt>
      <trkpt lat="44.98104" lon="4.16415">
        <ele>1240</ele>
        <time>2021-04-28T13:56:24Z</time>
      </trkpt>
      <trkpt lat="44.981" lon="4.16414">
        <ele>1240</ele>
        <time>2021-04-28T13:56:25Z</time>
      </trkpt>
      <trkpt lat="44.98098" lon="4.16413">
        <ele>1240</ele>
        <time>2021-04-28T13:56:26Z</time>
      </trkpt>
      <trkpt lat="44.98096" lon="4.16412">
        <ele>1240</ele>
        <time>2021-04-28T13:56:27Z</time>
      </trkpt>
      <trkpt lat="44.98093" lon="4.16412">
        <ele>1240</ele>
        <time>2021-04-28T13:56:28Z</time>
      </trkpt>
      <trkpt lat="44.98091" lon="4.16414">
        <ele>1240</ele>
        <time>2021-04-28T13:56:29Z</time>
      </trkpt>
      <trkpt lat="44.98088" lon="4.16417">
        <ele>1240</ele>
        <time>2021-04-28T13:56:30Z</time>
      </trkpt>
      <trkpt lat="44.98085" lon="4.16422">
        <ele>1240</ele>
        <time>2021-04-28T13:56:31Z</time>
      </trkpt>
      <trkpt lat="44.98083" lon="4.16427">
        <ele>1240</ele>
        <time>2021-04-28T13:56:32Z</time>
      </trkpt>
      <trkpt lat="44.9808" lon="4.16433">
        <ele>1239</ele>
        <time>2021-04-28T13:56:33Z</time>
      </trkpt>
      <trkpt lat="44.98077" lon="4.1644">
        <ele>1239</ele>
        <time>2021-04-28T13:56:34Z</time>
      </trkpt>
      <trkpt lat="44.98074" lon="4.16446">
        <ele>1239</ele>
        <time>2021-04-28T13:56:35Z</time>
      </trkpt>
      <trkpt lat="44.98071" lon="4.16451">
        <ele>1239</ele>
        <time>2021-04-28T13:56:36Z</time>
      </trkpt>
      <trkpt lat="44.98067" lon="4.16456">
        <ele>1239</ele>
        <time>2021-04-28T13:56:37Z</time>
      </trkpt>
      <trkpt lat="44.98062" lon="4.1646">
        <ele>1239</ele>
        <time>2021-04-28T13:56:38Z</time>
      </trkpt>
      <trkpt lat="44.98058" lon="4.16464">
        <ele>1239</ele>
        <time>2021-04-28T13:56:39Z</time>
      </trkpt>
      <trkpt lat="44.98054" lon="4.16468">
        <ele>1238</ele>
        <time>2021-04-28T13:56:40Z</time>
      </trkpt>
      <trkpt lat="44.98051" lon="4.16473">
        <ele>1238</ele>
        <time>2021-04-28T13:56:41Z</time>
      </trkpt>
      <trkpt lat="44.98047" lon="4.16477">
        <ele>1238</ele>
        <time>2021-04-28T13:56:42Z</time>
      </trkpt>
      <trkpt lat="44.98043" lon="4.16481">
        <ele>1238</ele>
        <time>2021-04-28T13:56:43Z</time>
      </trkpt>
      <trkpt lat="44.98039" lon="4.16485">
        <ele>1238</ele>
        <time>2021-04-28T13:56:44Z</time>
      </trkpt>
      <trkpt lat="44.98036" lon="4.1649">
        <ele>1238</ele>
        <time>2021-04-28T13:56:45Z</time>
      </trkpt>
      <trkpt lat="44.98032" lon="4.16494">
        <ele>1238</ele>
        <time>2021-04-28T13:56:46Z</time>
      </trkpt>
      <trkpt lat="44.98029" lon="4.16499">
        <ele>1238</ele>
        <time>2021-04-28T13:56:47Z</time>
      </trkpt>
      <trkpt lat="44.98025" lon="4.16505">
        <ele>1238</ele>
        <time>2021-04-28T13:56:48Z</time>
      </trkpt>
      <trkpt lat="44.98022" lon="4.1651">
        <ele>1238</ele>
        <time>2021-04-28T13:56:49Z</time>
      </trkpt>
      <trkpt lat="44.98019" lon="4.16516">
        <ele>1238</ele>
        <time>2021-04-28T13:56:50Z</time>
      </trkpt>
      <trkpt lat="44.98016" lon="4.16522">
        <ele>1238</ele>
        <time>2021-04-28T13:56:51Z</time>
      </trkpt>
      <trkpt lat="44.98013" lon="4.16528">
        <ele>1238</ele>
        <time>2021-04-28T13:56:52Z</time>
      </trkpt>
      <trkpt lat="44.9801" lon="4.16533">
        <ele>1238</ele>
        <time>2021-04-28T13:56:53Z</time>
      </trkpt>
      <trkpt lat="44.98007" lon="4.16539">
        <ele>1238</ele>
        <time>2021-04-28T13:56:54Z</time>
      </trkpt>
      <trkpt lat="44.98004" lon="4.16545">
        <ele>1238</ele>
        <time>2021-04-28T13:56:55Z</time>
      </trkpt>
      <trkpt lat="44.98001" lon="4.16552">
        <ele>1238</ele>
        <time>2021-04-28T13:56:56Z</time>
      </trkpt>
      <trkpt lat="44.97998" lon="4.16558">
        <ele>1238</ele>
        <time>2021-04-28T13:56:57Z</time>
      </trkpt>
      <trkpt lat="44.97995" lon="4.16565">
        <ele>1238</ele>
        <time>2021-04-28T13:56:58Z</time>
      </trkpt>
      <trkpt lat="44.97992" lon="4.16571">
        <ele>1238</ele>
        <time>2021-04-28T13:56:59Z</time>
      </trkpt>
      <trkpt lat="44.97989" lon="4.16577">
        <ele>1238</ele>
        <time>2021-04-28T13:57:00Z</time>
      </trkpt>
      <trkpt lat="44.97986" lon="4.16584">
        <ele>1238</ele>
        <time>2021-04-28T13:57:01Z</time>
      </trkpt>
      <trkpt lat="44.97983" lon="4.1659">
        <ele>1238</ele>
        <time>2021-04-28T13:57:02Z</time>
      </trkpt>
      <trkpt lat="44.97981" lon="4.16597">
        <ele>1238</ele>
        <time>2021-04-28T13:57:03Z</time>
      </trkpt>
      <trkpt lat="44.97978" lon="4.16603">
        <ele>1238</ele>
        <time>2021-04-28T13:57:04Z</time>
      </trkpt>
      <trkpt lat="44.97975" lon="4.16609">
        <ele>1238</ele>
        <time>2021-04-28T13:57:05Z</time>
      </trkpt>
      <trkpt lat="44.97972" lon="4.16615">
        <ele>1238</ele>
        <time>2021-04-28T13:57:06Z</time>
      </trkpt>
      <trkpt lat="44.97969" lon="4.16622">
        <ele>1238</ele>
        <time>2021-04-28T13:57:07Z</time>
      </trkpt>
      <trkpt lat="44.97966" lon="4.16628">
        <ele>1238</ele>
        <time>2021-04-28T13:57:08Z</time>
      </trkpt>
      <trkpt lat="44.97963" lon="4.16635">
        <ele>1238</ele>
        <time>2021-04-28T13:57:09Z</time>
      </trkpt>
      <trkpt lat="44.9796" lon="4.16642">
        <ele>1238</ele>
        <time>2021-04-28T13:57:10Z</time>
      </trkpt>
      <trkpt lat="44.97955" lon="4.16655">
        <ele>1238</ele>
        <time>2021-04-28T13:57:11Z</time>
      </trkpt>
      <trkpt lat="44.97952" lon="4.16662">
        <ele>1237</ele>
        <time>2021-04-28T13:57:13Z</time>
      </trkpt>
      <trkpt lat="44.97949" lon="4.16668">
        <ele>1237</ele>
        <time>2021-04-28T13:57:14Z</time>
      </trkpt>
      <trkpt lat="44.97946" lon="4.16675">
        <ele>1237</ele>
        <time>2021-04-28T13:57:15Z</time>
      </trkpt>
      <trkpt lat="44.97944" lon="4.16682">
        <ele>1237</ele>
        <time>2021-04-28T13:57:16Z</time>
      </trkpt>
      <trkpt lat="44.97941" lon="4.16688">
        <ele>1237</ele>
        <time>2021-04-28T13:57:17Z</time>
      </trkpt>
      <trkpt lat="44.97938" lon="4.16694">
        <ele>1237</ele>
        <time>2021-04-28T13:57:18Z</time>
      </trkpt>
      <trkpt lat="44.97935" lon="4.16701">
        <ele>1237</ele>
        <time>2021-04-28T13:57:19Z</time>
      </trkpt>
      <trkpt lat="44.97932" lon="4.16707">
        <ele>1237</ele>
        <time>2021-04-28T13:57:20Z</time>
      </trkpt>
      <trkpt lat="44.97929" lon="4.16714">
        <ele>1237</ele>
        <time>2021-04-28T13:57:21Z</time>
      </trkpt>
      <trkpt lat="44.97925" lon="4.1672">
        <ele>1237</ele>
        <time>2021-04-28T13:57:22Z</time>
      </trkpt>
      <trkpt lat="44.97922" lon="4.16727">
        <ele>1237</ele>
        <time>2021-04-28T13:57:23Z</time>
      </trkpt>
      <trkpt lat="44.97919" lon="4.16734">
        <ele>1237</ele>
        <time>2021-04-28T13:57:24Z</time>
      </trkpt>
      <trkpt lat="44.97916" lon="4.1674">
        <ele>1238</ele>
        <time>2021-04-28T13:57:25Z</time>
      </trkpt>
      <trkpt lat="44.97913" lon="4.16746">
        <ele>1238</ele>
        <time>2021-04-28T13:57:26Z</time>
      </trkpt>
      <trkpt lat="44.97909" lon="4.16753">
        <ele>1238</ele>
        <time>2021-04-28T13:57:27Z</time>
      </trkpt>
      <trkpt lat="44.97906" lon="4.1676">
        <ele>1238</ele>
        <time>2021-04-28T13:57:28Z</time>
      </trkpt>
      <trkpt lat="44.97903" lon="4.16766">
        <ele>1238</ele>
        <time>2021-04-28T13:57:29Z</time>
      </trkpt>
      <trkpt lat="44.97896" lon="4.1678">
        <ele>1238</ele>
        <time>2021-04-28T13:57:30Z</time>
      </trkpt>
      <trkpt lat="44.97892" lon="4.16786">
        <ele>1238</ele>
        <time>2021-04-28T13:57:32Z</time>
      </trkpt>
      <trkpt lat="44.97889" lon="4.16793">
        <ele>1238</ele>
        <time>2021-04-28T13:57:33Z</time>
      </trkpt>
      <trkpt lat="44.97886" lon="4.16799">
        <ele>1238</ele>
        <time>2021-04-28T13:57:34Z</time>
      </trkpt>
      <trkpt lat="44.97883" lon="4.16806">
        <ele>1238</ele>
        <time>2021-04-28T13:57:35Z</time>
      </trkpt>
      <trkpt lat="44.97879" lon="4.16812">
        <ele>1238</ele>
        <time>2021-04-28T13:57:36Z</time>
      </trkpt>
      <trkpt lat="44.97876" lon="4.16819">
        <ele>1238</ele>
        <time>2021-04-28T13:57:37Z</time>
      </trkpt>
      <trkpt lat="44.97873" lon="4.16826">
        <ele>1238</ele>
        <time>2021-04-28T13:57:38Z</time>
      </trkpt>
      <trkpt lat="44.97871" lon="4.16832">
        <ele>1238</ele>
        <time>2021-04-28T13:57:39Z</time>
      </trkpt>
      <trkpt lat="44.97868" lon="4.16839">
        <ele>1238</ele>
        <time>2021-04-28T13:57:40Z</time>
      </trkpt>
      <trkpt lat="44.97866" lon="4.16846">
        <ele>1239</ele>
        <time>2021-04-28T13:57:41Z</time>
      </trkpt>
      <trkpt lat="44.97864" lon="4.16854">
        <ele>1239</ele>
        <time>2021-04-28T13:57:42Z</time>
      </trkpt>
      <trkpt lat="44.97862" lon="4.16861">
        <ele>1239</ele>
        <time>2021-04-28T13:57:43Z</time>
      </trkpt>
      <trkpt lat="44.9786" lon="4.16869">
        <ele>1239</ele>
        <time>2021-04-28T13:57:44Z</time>
      </trkpt>
      <trkpt lat="44.97859" lon="4.16877">
        <ele>1239</ele>
        <time>2021-04-28T13:57:45Z</time>
      </trkpt>
      <trkpt lat="44.97858" lon="4.16885">
        <ele>1239</ele>
        <time>2021-04-28T13:57:46Z</time>
      </trkpt>
      <trkpt lat="44.97858" lon="4.16893">
        <ele>1239</ele>
        <time>2021-04-28T13:57:47Z</time>
      </trkpt>
      <trkpt lat="44.97858" lon="4.16901">
        <ele>1240</ele>
        <time>2021-04-28T13:57:48Z</time>
      </trkpt>
      <trkpt lat="44.97858" lon="4.16908">
        <ele>1240</ele>
        <time>2021-04-28T13:57:49Z</time>
      </trkpt>
      <trkpt lat="44.97859" lon="4.16916">
        <ele>1240</ele>
        <time>2021-04-28T13:57:50Z</time>
      </trkpt>
      <trkpt lat="44.9786" lon="4.16923">
        <ele>1240</ele>
        <time>2021-04-28T13:57:51Z</time>
      </trkpt>
      <trkpt lat="44.97861" lon="4.16931">
        <ele>1240</ele>
        <time>2021-04-28T13:57:52Z</time>
      </trkpt>
      <trkpt lat="44.97862" lon="4.16939">
        <ele>1240</ele>
        <time>2021-04-28T13:57:53Z</time>
      </trkpt>
      <trkpt lat="44.97863" lon="4.16947">
        <ele>1240</ele>
        <time>2021-04-28T13:57:54Z</time>
      </trkpt>
      <trkpt lat="44.97864" lon="4.16955">
        <ele>1240</ele>
        <time>2021-04-28T13:57:55Z</time>
      </trkpt>
      <trkpt lat="44.97865" lon="4.16963">
        <ele>1241</ele>
        <time>2021-04-28T13:57:56Z</time>
      </trkpt>
      <trkpt lat="44.97866" lon="4.16971">
        <ele>1241</ele>
        <time>2021-04-28T13:57:57Z</time>
      </trkpt>
      <trkpt lat="44.97868" lon="4.16979">
        <ele>1241</ele>
        <time>2021-04-28T13:57:58Z</time>
      </trkpt>
      <trkpt lat="44.97869" lon="4.16987">
        <ele>1241</ele>
        <time>2021-04-28T13:57:59Z</time>
      </trkpt>
      <trkpt lat="44.97871" lon="4.16995">
        <ele>1241</ele>
        <time>2021-04-28T13:58:00Z</time>
      </trkpt>
      <trkpt lat="44.97872" lon="4.17003">
        <ele>1241</ele>
        <time>2021-04-28T13:58:01Z</time>
      </trkpt>
      <trkpt lat="44.97874" lon="4.1701">
        <ele>1241</ele>
        <time>2021-04-28T13:58:02Z</time>
      </trkpt>
      <trkpt lat="44.97875" lon="4.17018">
        <ele>1241</ele>
        <time>2021-04-28T13:58:03Z</time>
      </trkpt>
      <trkpt lat="44.97877" lon="4.17026">
        <ele>1241</ele>
        <time>2021-04-28T13:58:04Z</time>
      </trkpt>
      <trkpt lat="44.97878" lon="4.17034">
        <ele>1241</ele>
        <time>2021-04-28T13:58:05Z</time>
      </trkpt>
      <trkpt lat="44.97879" lon="4.17042">
        <ele>1241</ele>
        <time>2021-04-28T13:58:06Z</time>
      </trkpt>
      <trkpt lat="44.97881" lon="4.1705">
        <ele>1241</ele>
        <time>2021-04-28T13:58:07Z</time>
      </trkpt>
      <trkpt lat="44.97882" lon="4.17058">
        <ele>1241</ele>
        <time>2021-04-28T13:58:08Z</time>
      </trkpt>
      <trkpt lat="44.97882" lon="4.17066">
        <ele>1242</ele>
        <time>2021-04-28T13:58:09Z</time>
      </trkpt>
      <trkpt lat="44.97883" lon="4.17074">
        <ele>1242</ele>
        <time>2021-04-28T13:58:10Z</time>
      </trkpt>
      <trkpt lat="44.97884" lon="4.17082">
        <ele>1242</ele>
        <time>2021-04-28T13:58:11Z</time>
      </trkpt>
      <trkpt lat="44.97885" lon="4.1709">
        <ele>1242</ele>
        <time>2021-04-28T13:58:12Z</time>
      </trkpt>
      <trkpt lat="44.97887" lon="4.17098">
        <ele>1242</ele>
        <time>2021-04-28T13:58:13Z</time>
      </trkpt>
      <trkpt lat="44.97888" lon="4.17106">
        <ele>1242</ele>
        <time>2021-04-28T13:58:14Z</time>
      </trkpt>
      <trkpt lat="44.97889" lon="4.17114">
        <ele>1243</ele>
        <time>2021-04-28T13:58:15Z</time>
      </trkpt>
      <trkpt lat="44.9789" lon="4.17122">
        <ele>1242</ele>
        <time>2021-04-28T13:58:16Z</time>
      </trkpt>
      <trkpt lat="44.9789" lon="4.17129">
        <ele>1242</ele>
        <time>2021-04-28T13:58:17Z</time>
      </trkpt>
      <trkpt lat="44.9789" lon="4.17136">
        <ele>1242</ele>
        <time>2021-04-28T13:58:18Z</time>
      </trkpt>
      <trkpt lat="44.97891" lon="4.17144">
        <ele>1242</ele>
        <time>2021-04-28T13:58:19Z</time>
      </trkpt>
      <trkpt lat="44.97891" lon="4.17151">
        <ele>1242</ele>
        <time>2021-04-28T13:58:20Z</time>
      </trkpt>
      <trkpt lat="44.97891" lon="4.17159">
        <ele>1242</ele>
        <time>2021-04-28T13:58:21Z</time>
      </trkpt>
      <trkpt lat="44.97891" lon="4.17166">
        <ele>1242</ele>
        <time>2021-04-28T13:58:22Z</time>
      </trkpt>
      <trkpt lat="44.9789" lon="4.17173">
        <ele>1242</ele>
        <time>2021-04-28T13:58:23Z</time>
      </trkpt>
      <trkpt lat="44.97889" lon="4.1718">
        <ele>1242</ele>
        <time>2021-04-28T13:58:24Z</time>
      </trkpt>
      <trkpt lat="44.97889" lon="4.17186">
        <ele>1242</ele>
        <time>2021-04-28T13:58:25Z</time>
      </trkpt>
      <trkpt lat="44.9789" lon="4.17192">
        <ele>1242</ele>
        <time>2021-04-28T13:58:26Z</time>
      </trkpt>
      <trkpt lat="44.97895" lon="4.17204">
        <ele>1241</ele>
        <time>2021-04-28T13:58:27Z</time>
      </trkpt>
      <trkpt lat="44.97897" lon="4.1721">
        <ele>1241</ele>
        <time>2021-04-28T13:58:29Z</time>
      </trkpt>
      <trkpt lat="44.979" lon="4.17217">
        <ele>1241</ele>
        <time>2021-04-28T13:58:30Z</time>
      </trkpt>
      <trkpt lat="44.97901" lon="4.17224">
        <ele>1241</ele>
        <time>2021-04-28T13:58:31Z</time>
      </trkpt>
      <trkpt lat="44.97902" lon="4.1723">
        <ele>1241</ele>
        <time>2021-04-28T13:58:32Z</time>
      </trkpt>
      <trkpt lat="44.97904" lon="4.17237">
        <ele>1242</ele>
        <time>2021-04-28T13:58:33Z</time>
      </trkpt>
      <trkpt lat="44.97905" lon="4.17244">
        <ele>1242</ele>
        <time>2021-04-28T13:58:34Z</time>
      </trkpt>
      <trkpt lat="44.97906" lon="4.17251">
        <ele>1242</ele>
        <time>2021-04-28T13:58:35Z</time>
      </trkpt>
      <trkpt lat="44.97907" lon="4.17258">
        <ele>1242</ele>
        <time>2021-04-28T13:58:36Z</time>
      </trkpt>
      <trkpt lat="44.97907" lon="4.17265">
        <ele>1242</ele>
        <time>2021-04-28T13:58:37Z</time>
      </trkpt>
      <trkpt lat="44.97908" lon="4.17273">
        <ele>1242</ele>
        <time>2021-04-28T13:58:38Z</time>
      </trkpt>
      <trkpt lat="44.9791" lon="4.17279">
        <ele>1242</ele>
        <time>2021-04-28T13:58:39Z</time>
      </trkpt>
      <trkpt lat="44.97913" lon="4.17285">
        <ele>1242</ele>
        <time>2021-04-28T13:58:40Z</time>
      </trkpt>
      <trkpt lat="44.97917" lon="4.17291">
        <ele>1242</ele>
        <time>2021-04-28T13:58:41Z</time>
      </trkpt>
      <trkpt lat="44.9792" lon="4.17297">
        <ele>1242</ele>
        <time>2021-04-28T13:58:42Z</time>
      </trkpt>
      <trkpt lat="44.97923" lon="4.17302">
        <ele>1242</ele>
        <time>2021-04-28T13:58:43Z</time>
      </trkpt>
      <trkpt lat="44.97927" lon="4.17308">
        <ele>1242</ele>
        <time>2021-04-28T13:58:44Z</time>
      </trkpt>
      <trkpt lat="44.97931" lon="4.17313">
        <ele>1242</ele>
        <time>2021-04-28T13:58:45Z</time>
      </trkpt>
      <trkpt lat="44.97938" lon="4.17324">
        <ele>1242</ele>
        <time>2021-04-28T13:58:46Z</time>
      </trkpt>
      <trkpt lat="44.97941" lon="4.1733">
        <ele>1242</ele>
        <time>2021-04-28T13:58:48Z</time>
      </trkpt>
      <trkpt lat="44.97944" lon="4.17336">
        <ele>1241</ele>
        <time>2021-04-28T13:58:49Z</time>
      </trkpt>
      <trkpt lat="44.97947" lon="4.17342">
        <ele>1241</ele>
        <time>2021-04-28T13:58:50Z</time>
      </trkpt>
      <trkpt lat="44.97949" lon="4.17348">
        <ele>1241</ele>
        <time>2021-04-28T13:58:51Z</time>
      </trkpt>
      <trkpt lat="44.97951" lon="4.17354">
        <ele>1241</ele>
        <time>2021-04-28T13:58:52Z</time>
      </trkpt>
      <trkpt lat="44.97954" lon="4.17361">
        <ele>1241</ele>
        <time>2021-04-28T13:58:53Z</time>
      </trkpt>
      <trkpt lat="44.97956" lon="4.17367">
        <ele>1241</ele>
        <time>2021-04-28T13:58:54Z</time>
      </trkpt>
      <trkpt lat="44.97959" lon="4.17374">
        <ele>1241</ele>
        <time>2021-04-28T13:58:55Z</time>
      </trkpt>
      <trkpt lat="44.97961" lon="4.1738">
        <ele>1241</ele>
        <time>2021-04-28T13:58:56Z</time>
      </trkpt>
      <trkpt lat="44.97962" lon="4.17386">
        <ele>1241</ele>
        <time>2021-04-28T13:58:57Z</time>
      </trkpt>
      <trkpt lat="44.97964" lon="4.17391">
        <ele>1241</ele>
        <time>2021-04-28T13:58:58Z</time>
      </trkpt>
      <trkpt lat="44.97967" lon="4.17397">
        <ele>1241</ele>
        <time>2021-04-28T13:58:59Z</time>
      </trkpt>
      <trkpt lat="44.97969" lon="4.17402">
        <ele>1241</ele>
        <time>2021-04-28T13:59:00Z</time>
      </trkpt>
      <trkpt lat="44.9797" lon="4.17408">
        <ele>1241</ele>
        <time>2021-04-28T13:59:01Z</time>
      </trkpt>
      <trkpt lat="44.97972" lon="4.17413">
        <ele>1241</ele>
        <time>2021-04-28T13:59:02Z</time>
      </trkpt>
      <trkpt lat="44.97973" lon="4.17417">
        <ele>1241</ele>
        <time>2021-04-28T13:59:03Z</time>
      </trkpt>
      <trkpt lat="44.97975" lon="4.17422">
        <ele>1241</ele>
        <time>2021-04-28T13:59:04Z</time>
      </trkpt>
      <trkpt lat="44.97976" lon="4.17426">
        <ele>1241</ele>
        <time>2021-04-28T13:59:05Z</time>
      </trkpt>
      <trkpt lat="44.97978" lon="4.1743">
        <ele>1241</ele>
        <time>2021-04-28T13:59:06Z</time>
      </trkpt>
      <trkpt lat="44.9798" lon="4.17435">
        <ele>1242</ele>
        <time>2021-04-28T13:59:07Z</time>
      </trkpt>
      <trkpt lat="44.97982" lon="4.1744">
        <ele>1242</ele>
        <time>2021-04-28T13:59:08Z</time>
      </trkpt>
      <trkpt lat="44.97984" lon="4.17444">
        <ele>1242</ele>
        <time>2021-04-28T13:59:09Z</time>
      </trkpt>
      <trkpt lat="44.97986" lon="4.17449">
        <ele>1242</ele>
        <time>2021-04-28T13:59:10Z</time>
      </trkpt>
      <trkpt lat="44.97986" lon="4.17453">
        <ele>1242</ele>
        <time>2021-04-28T13:59:11Z</time>
      </trkpt>
      <trkpt lat="44.97985" lon="4.17457">
        <ele>1243</ele>
        <time>2021-04-28T13:59:12Z</time>
      </trkpt>
      <trkpt lat="44.97984" lon="4.1746">
        <ele>1243</ele>
        <time>2021-04-28T13:59:13Z</time>
      </trkpt>
      <trkpt lat="44.97983" lon="4.17464">
        <ele>1243</ele>
        <time>2021-04-28T13:59:14Z</time>
      </trkpt>
      <trkpt lat="44.97982" lon="4.17465">
        <ele>1244</ele>
        <time>2021-04-28T13:59:15Z</time>
      </trkpt>
      <trkpt lat="44.97979" lon="4.17468">
        <ele>1245</ele>
        <time>2021-04-28T13:59:17Z</time>
      </trkpt>
      <trkpt lat="44.97978" lon="4.17471">
        <ele>1245</ele>
        <time>2021-04-28T13:59:19Z</time>
      </trkpt>
      <trkpt lat="44.97975" lon="4.17475">
        <ele>1246</ele>
        <time>2021-04-28T13:59:21Z</time>
      </trkpt>
      <trkpt lat="44.97973" lon="4.17477">
        <ele>1246</ele>
        <time>2021-04-28T13:59:22Z</time>
      </trkpt>
      <trkpt lat="44.97971" lon="4.17479">
        <ele>1247</ele>
        <time>2021-04-28T13:59:24Z</time>
      </trkpt>
      <trkpt lat="44.97971" lon="4.17484">
        <ele>1247</ele>
        <time>2021-04-28T14:02:21Z</time>
      </trkpt>
      <trkpt lat="44.97967" lon="4.17492">
        <ele>1247</ele>
        <time>2021-04-28T14:02:28Z</time>
      </trkpt>
      <trkpt lat="44.97964" lon="4.17499">
        <ele>1247</ele>
        <time>2021-04-28T14:02:29Z</time>
      </trkpt>
      <trkpt lat="44.97962" lon="4.17503">
        <ele>1248</ele>
        <time>2021-04-28T14:02:31Z</time>
      </trkpt>
      <trkpt lat="44.97961" lon="4.17506">
        <ele>1248</ele>
        <time>2021-04-28T14:02:32Z</time>
      </trkpt>
      <trkpt lat="44.97959" lon="4.17509">
        <ele>1248</ele>
        <time>2021-04-28T14:02:33Z</time>
      </trkpt>
      <trkpt lat="44.97958" lon="4.17513">
        <ele>1248</ele>
        <time>2021-04-28T14:02:34Z</time>
      </trkpt>
      <trkpt lat="44.97958" lon="4.17516">
        <ele>1248</ele>
        <time>2021-04-28T14:02:35Z</time>
      </trkpt>
      <trkpt lat="44.97956" lon="4.17519">
        <ele>1248</ele>
        <time>2021-04-28T14:02:36Z</time>
      </trkpt>
      <trkpt lat="44.97955" lon="4.17522">
        <ele>1249</ele>
        <time>2021-04-28T14:02:37Z</time>
      </trkpt>
      <trkpt lat="44.97953" lon="4.17525">
        <ele>1249</ele>
        <time>2021-04-28T14:02:38Z</time>
      </trkpt>
      <trkpt lat="44.97951" lon="4.17528">
        <ele>1249</ele>
        <time>2021-04-28T14:02:39Z</time>
      </trkpt>
      <trkpt lat="44.97949" lon="4.17531">
        <ele>1249</ele>
        <time>2021-04-28T14:02:40Z</time>
      </trkpt>
      <trkpt lat="44.97947" lon="4.17534">
        <ele>1249</ele>
        <time>2021-04-28T14:02:41Z</time>
      </trkpt>
      <trkpt lat="44.97945" lon="4.17538">
        <ele>1249</ele>
        <time>2021-04-28T14:02:42Z</time>
      </trkpt>
      <trkpt lat="44.97944" lon="4.17542">
        <ele>1250</ele>
        <time>2021-04-28T14:02:43Z</time>
      </trkpt>
      <trkpt lat="44.97942" lon="4.17546">
        <ele>1250</ele>
        <time>2021-04-28T14:02:44Z</time>
      </trkpt>
      <trkpt lat="44.97941" lon="4.1755">
        <ele>1250</ele>
        <time>2021-04-28T14:02:45Z</time>
      </trkpt>
      <trkpt lat="44.97939" lon="4.17553">
        <ele>1250</ele>
        <time>2021-04-28T14:02:46Z</time>
      </trkpt>
      <trkpt lat="44.97938" lon="4.17557">
        <ele>1251</ele>
        <time>2021-04-28T14:02:47Z</time>
      </trkpt>
      <trkpt lat="44.97937" lon="4.17561">
        <ele>1251</ele>
        <time>2021-04-28T14:02:48Z</time>
      </trkpt>
      <trkpt lat="44.97936" lon="4.17565">
        <ele>1251</ele>
        <time>2021-04-28T14:02:49Z</time>
      </trkpt>
      <trkpt lat="44.97935" lon="4.17568">
        <ele>1251</ele>
        <time>2021-04-28T14:02:50Z</time>
      </trkpt>
      <trkpt lat="44.97934" lon="4.17572">
        <ele>1251</ele>
        <time>2021-04-28T14:02:51Z</time>
      </trkpt>
      <trkpt lat="44.97933" lon="4.17576">
        <ele>1252</ele>
        <time>2021-04-28T14:02:52Z</time>
      </trkpt>
      <trkpt lat="44.97932" lon="4.1758">
        <ele>1252</ele>
        <time>2021-04-28T14:02:53Z</time>
      </trkpt>
      <trkpt lat="44.97931" lon="4.17583">
        <ele>1252</ele>
        <time>2021-04-28T14:02:54Z</time>
      </trkpt>
      <trkpt lat="44.97931" lon="4.17587">
        <ele>1252</ele>
        <time>2021-04-28T14:02:55Z</time>
      </trkpt>
      <trkpt lat="44.97931" lon="4.17591">
        <ele>1253</ele>
        <time>2021-04-28T14:02:56Z</time>
      </trkpt>
      <trkpt lat="44.9793" lon="4.17595">
        <ele>1253</ele>
        <time>2021-04-28T14:02:57Z</time>
      </trkpt>
      <trkpt lat="44.97929" lon="4.17598">
        <ele>1253</ele>
        <time>2021-04-28T14:02:58Z</time>
      </trkpt>
      <trkpt lat="44.97929" lon="4.17602">
        <ele>1254</ele>
        <time>2021-04-28T14:02:59Z</time>
      </trkpt>
      <trkpt lat="44.97928" lon="4.17605">
        <ele>1254</ele>
        <time>2021-04-28T14:03:00Z</time>
      </trkpt>
      <trkpt lat="44.97926" lon="4.17609">
        <ele>1254</ele>
        <time>2021-04-28T14:03:01Z</time>
      </trkpt>
      <trkpt lat="44.97925" lon="4.17613">
        <ele>1254</ele>
        <time>2021-04-28T14:03:02Z</time>
      </trkpt>
      <trkpt lat="44.97924" lon="4.17617">
        <ele>1255</ele>
        <time>2021-04-28T14:03:03Z</time>
      </trkpt>
      <trkpt lat="44.97923" lon="4.17621">
        <ele>1255</ele>
        <time>2021-04-28T14:03:04Z</time>
      </trkpt>
      <trkpt lat="44.97922" lon="4.17624">
        <ele>1255</ele>
        <time>2021-04-28T14:03:05Z</time>
      </trkpt>
      <trkpt lat="44.9792" lon="4.17628">
        <ele>1255</ele>
        <time>2021-04-28T14:03:06Z</time>
      </trkpt>
      <trkpt lat="44.97919" lon="4.17631">
        <ele>1256</ele>
        <time>2021-04-28T14:03:07Z</time>
      </trkpt>
      <trkpt lat="44.97918" lon="4.17635">
        <ele>1256</ele>
        <time>2021-04-28T14:03:08Z</time>
      </trkpt>
      <trkpt lat="44.97917" lon="4.17638">
        <ele>1256</ele>
        <time>2021-04-28T14:03:09Z</time>
      </trkpt>
      <trkpt lat="44.97916" lon="4.17641">
        <ele>1257</ele>
        <time>2021-04-28T14:03:10Z</time>
      </trkpt>
      <trkpt lat="44.97916" lon="4.17644">
        <ele>1257</ele>
        <time>2021-04-28T14:03:11Z</time>
      </trkpt>
      <trkpt lat="44.97915" lon="4.17647">
        <ele>1257</ele>
        <time>2021-04-28T14:03:12Z</time>
      </trkpt>
      <trkpt lat="44.97914" lon="4.1765">
        <ele>1258</ele>
        <time>2021-04-28T14:03:13Z</time>
      </trkpt>
      <trkpt lat="44.97913" lon="4.17653">
        <ele>1258</ele>
        <time>2021-04-28T14:03:14Z</time>
      </trkpt>
      <trkpt lat="44.97913" lon="4.17657">
        <ele>1258</ele>
        <time>2021-04-28T14:03:15Z</time>
      </trkpt>
      <trkpt lat="44.97912" lon="4.17661">
        <ele>1259</ele>
        <time>2021-04-28T14:03:16Z</time>
      </trkpt>
      <trkpt lat="44.97912" lon="4.17665">
        <ele>1259</ele>
        <time>2021-04-28T14:03:17Z</time>
      </trkpt>
      <trkpt lat="44.97912" lon="4.1767">
        <ele>1259</ele>
        <time>2021-04-28T14:03:18Z</time>
      </trkpt>
      <trkpt lat="44.97912" lon="4.17674">
        <ele>1259</ele>
        <time>2021-04-28T14:03:19Z</time>
      </trkpt>
      <trkpt lat="44.97913" lon="4.17679">
        <ele>1260</ele>
        <time>2021-04-28T14:03:20Z</time>
      </trkpt>
      <trkpt lat="44.97913" lon="4.17684">
        <ele>1260</ele>
        <time>2021-04-28T14:03:21Z</time>
      </trkpt>
      <trkpt lat="44.97912" lon="4.17688">
        <ele>1260</ele>
        <time>2021-04-28T14:03:22Z</time>
      </trkpt>
      <trkpt lat="44.97912" lon="4.17692">
        <ele>1260</ele>
        <time>2021-04-28T14:03:23Z</time>
      </trkpt>
      <trkpt lat="44.97911" lon="4.17697">
        <ele>1261</ele>
        <time>2021-04-28T14:03:24Z</time>
      </trkpt>
      <trkpt lat="44.97911" lon="4.17701">
        <ele>1261</ele>
        <time>2021-04-28T14:03:25Z</time>
      </trkpt>
      <trkpt lat="44.97909" lon="4.17708">
        <ele>1261</ele>
        <time>2021-04-28T14:03:26Z</time>
      </trkpt>
      <trkpt lat="44.97909" lon="4.17712">
        <ele>1262</ele>
        <time>2021-04-28T14:03:28Z</time>
      </trkpt>
      <trkpt lat="44.97908" lon="4.17716">
        <ele>1262</ele>
        <time>2021-04-28T14:03:29Z</time>
      </trkpt>
      <trkpt lat="44.97908" lon="4.1772">
        <ele>1263</ele>
        <time>2021-04-28T14:03:30Z</time>
      </trkpt>
      <trkpt lat="44.97907" lon="4.17724">
        <ele>1263</ele>
        <time>2021-04-28T14:03:31Z</time>
      </trkpt>
      <trkpt lat="44.97907" lon="4.17728">
        <ele>1263</ele>
        <time>2021-04-28T14:03:32Z</time>
      </trkpt>
      <trkpt lat="44.97908" lon="4.17732">
        <ele>1263</ele>
        <time>2021-04-28T14:03:33Z</time>
      </trkpt>
      <trkpt lat="44.97908" lon="4.17736">
        <ele>1263</ele>
        <time>2021-04-28T14:03:34Z</time>
      </trkpt>
      <trkpt lat="44.97908" lon="4.17741">
        <ele>1263</ele>
        <time>2021-04-28T14:03:35Z</time>
      </trkpt>
      <trkpt lat="44.97908" lon="4.17745">
        <ele>1264</ele>
        <time>2021-04-28T14:03:36Z</time>
      </trkpt>
      <trkpt lat="44.97908" lon="4.1775">
        <ele>1264</ele>
        <time>2021-04-28T14:03:37Z</time>
      </trkpt>
      <trkpt lat="44.97907" lon="4.17754">
        <ele>1265</ele>
        <time>2021-04-28T14:03:38Z</time>
      </trkpt>
      <trkpt lat="44.97907" lon="4.17759">
        <ele>1265</ele>
        <time>2021-04-28T14:03:39Z</time>
      </trkpt>
      <trkpt lat="44.97906" lon="4.17763">
        <ele>1265</ele>
        <time>2021-04-28T14:03:40Z</time>
      </trkpt>
      <trkpt lat="44.97906" lon="4.17767">
        <ele>1266</ele>
        <time>2021-04-28T14:03:41Z</time>
      </trkpt>
      <trkpt lat="44.97906" lon="4.17771">
        <ele>1266</ele>
        <time>2021-04-28T14:03:42Z</time>
      </trkpt>
      <trkpt lat="44.97906" lon="4.17776">
        <ele>1266</ele>
        <time>2021-04-28T14:03:43Z</time>
      </trkpt>
      <trkpt lat="44.97906" lon="4.1778">
        <ele>1267</ele>
        <time>2021-04-28T14:03:44Z</time>
      </trkpt>
      <trkpt lat="44.97906" lon="4.17784">
        <ele>1267</ele>
        <time>2021-04-28T14:03:45Z</time>
      </trkpt>
      <trkpt lat="44.97906" lon="4.17788">
        <ele>1267</ele>
        <time>2021-04-28T14:03:46Z</time>
      </trkpt>
      <trkpt lat="44.97906" lon="4.17793">
        <ele>1267</ele>
        <time>2021-04-28T14:03:47Z</time>
      </trkpt>
      <trkpt lat="44.97906" lon="4.17797">
        <ele>1268</ele>
        <time>2021-04-28T14:03:48Z</time>
      </trkpt>
      <trkpt lat="44.97905" lon="4.178">
        <ele>1268</ele>
        <time>2021-04-28T14:03:49Z</time>
      </trkpt>
      <trkpt lat="44.97905" lon="4.17804">
        <ele>1268</ele>
        <time>2021-04-28T14:03:50Z</time>
      </trkpt>
      <trkpt lat="44.97905" lon="4.17808">
        <ele>1269</ele>
        <time>2021-04-28T14:03:51Z</time>
      </trkpt>
      <trkpt lat="44.97905" lon="4.17812">
        <ele>1269</ele>
        <time>2021-04-28T14:03:52Z</time>
      </trkpt>
      <trkpt lat="44.97905" lon="4.17815">
        <ele>1269</ele>
        <time>2021-04-28T14:03:53Z</time>
      </trkpt>
      <trkpt lat="44.97905" lon="4.17818">
        <ele>1270</ele>
        <time>2021-04-28T14:03:54Z</time>
      </trkpt>
      <trkpt lat="44.97904" lon="4.1782">
        <ele>1270</ele>
        <time>2021-04-28T14:03:55Z</time>
      </trkpt>
      <trkpt lat="44.97904" lon="4.17824">
        <ele>1271</ele>
        <time>2021-04-28T14:03:57Z</time>
      </trkpt>
      <trkpt lat="44.97905" lon="4.17827">
        <ele>1271</ele>
        <time>2021-04-28T14:03:58Z</time>
      </trkpt>
      <trkpt lat="44.97905" lon="4.1783">
        <ele>1271</ele>
        <time>2021-04-28T14:03:59Z</time>
      </trkpt>
      <trkpt lat="44.97905" lon="4.17834">
        <ele>1271</ele>
        <time>2021-04-28T14:04:00Z</time>
      </trkpt>
      <trkpt lat="44.97905" lon="4.17837">
        <ele>1272</ele>
        <time>2021-04-28T14:04:01Z</time>
      </trkpt>
      <trkpt lat="44.97905" lon="4.17841">
        <ele>1272</ele>
        <time>2021-04-28T14:04:02Z</time>
      </trkpt>
      <trkpt lat="44.97905" lon="4.17845">
        <ele>1272</ele>
        <time>2021-04-28T14:04:03Z</time>
      </trkpt>
      <trkpt lat="44.97905" lon="4.17849">
        <ele>1272</ele>
        <time>2021-04-28T14:04:04Z</time>
      </trkpt>
      <trkpt lat="44.97904" lon="4.17852">
        <ele>1273</ele>
        <time>2021-04-28T14:04:05Z</time>
      </trkpt>
      <trkpt lat="44.97904" lon="4.17855">
        <ele>1273</ele>
        <time>2021-04-28T14:04:06Z</time>
      </trkpt>
      <trkpt lat="44.97904" lon="4.17858">
        <ele>1273</ele>
        <time>2021-04-28T14:04:07Z</time>
      </trkpt>
      <trkpt lat="44.97904" lon="4.17862">
        <ele>1273</ele>
        <time>2021-04-28T14:04:08Z</time>
      </trkpt>
      <trkpt lat="44.97904" lon="4.17865">
        <ele>1274</ele>
        <time>2021-04-28T14:04:09Z</time>
      </trkpt>
      <trkpt lat="44.97904" lon="4.17869">
        <ele>1274</ele>
        <time>2021-04-28T14:04:10Z</time>
      </trkpt>
      <trkpt lat="44.97904" lon="4.17872">
        <ele>1274</ele>
        <time>2021-04-28T14:04:11Z</time>
      </trkpt>
      <trkpt lat="44.97904" lon="4.17875">
        <ele>1275</ele>
        <time>2021-04-28T14:04:12Z</time>
      </trkpt>
      <trkpt lat="44.97904" lon="4.17879">
        <ele>1275</ele>
        <time>2021-04-28T14:04:13Z</time>
      </trkpt>
      <trkpt lat="44.97904" lon="4.17882">
        <ele>1275</ele>
        <time>2021-04-28T14:04:14Z</time>
      </trkpt>
      <trkpt lat="44.97905" lon="4.17884">
        <ele>1276</ele>
        <time>2021-04-28T14:04:15Z</time>
      </trkpt>
      <trkpt lat="44.97906" lon="4.17887">
        <ele>1276</ele>
        <time>2021-04-28T14:04:16Z</time>
      </trkpt>
      <trkpt lat="44.97908" lon="4.17888">
        <ele>1277</ele>
        <time>2021-04-28T14:04:17Z</time>
      </trkpt>
      <trkpt lat="44.97909" lon="4.1789">
        <ele>1277</ele>
        <time>2021-04-28T14:04:18Z</time>
      </trkpt>
      <trkpt lat="44.9791" lon="4.17893">
        <ele>1277</ele>
        <time>2021-04-28T14:04:19Z</time>
      </trkpt>
      <trkpt lat="44.97912" lon="4.17897">
        <ele>1278</ele>
        <time>2021-04-28T14:04:21Z</time>
      </trkpt>
      <trkpt lat="44.97914" lon="4.17898">
        <ele>1278</ele>
        <time>2021-04-28T14:04:22Z</time>
      </trkpt>
      <trkpt lat="44.97915" lon="4.17901">
        <ele>1278</ele>
        <time>2021-04-28T14:04:23Z</time>
      </trkpt>
      <trkpt lat="44.97915" lon="4.17903">
        <ele>1279</ele>
        <time>2021-04-28T14:04:24Z</time>
      </trkpt>
      <trkpt lat="44.97916" lon="4.17907">
        <ele>1279</ele>
        <time>2021-04-28T14:04:25Z</time>
      </trkpt>
      <trkpt lat="44.97917" lon="4.17909">
        <ele>1280</ele>
        <time>2021-04-28T14:04:26Z</time>
      </trkpt>
      <trkpt lat="44.97917" lon="4.17912">
        <ele>1280</ele>
        <time>2021-04-28T14:04:27Z</time>
      </trkpt>
      <trkpt lat="44.97918" lon="4.17915">
        <ele>1280</ele>
        <time>2021-04-28T14:04:28Z</time>
      </trkpt>
      <trkpt lat="44.9792" lon="4.17918">
        <ele>1281</ele>
        <time>2021-04-28T14:04:29Z</time>
      </trkpt>
      <trkpt lat="44.97922" lon="4.17918">
        <ele>1281</ele>
        <time>2021-04-28T14:04:30Z</time>
      </trkpt>
      <trkpt lat="44.97924" lon="4.17919">
        <ele>1281</ele>
        <time>2021-04-28T14:04:31Z</time>
      </trkpt>
      <trkpt lat="44.97926" lon="4.1792">
        <ele>1281</ele>
        <time>2021-04-28T14:04:32Z</time>
      </trkpt>
      <trkpt lat="44.97928" lon="4.17921">
        <ele>1281</ele>
        <time>2021-04-28T14:04:33Z</time>
      </trkpt>
      <trkpt lat="44.9793" lon="4.17923">
        <ele>1282</ele>
        <time>2021-04-28T14:04:34Z</time>
      </trkpt>
      <trkpt lat="44.97931" lon="4.17925">
        <ele>1282</ele>
        <time>2021-04-28T14:04:35Z</time>
      </trkpt>
      <trkpt lat="44.97933" lon="4.17928">
        <ele>1282</ele>
        <time>2021-04-28T14:04:36Z</time>
      </trkpt>
      <trkpt lat="44.97934" lon="4.1793">
        <ele>1282</ele>
        <time>2021-04-28T14:04:37Z</time>
      </trkpt>
      <trkpt lat="44.97936" lon="4.17933">
        <ele>1282</ele>
        <time>2021-04-28T14:04:38Z</time>
      </trkpt>
      <trkpt lat="44.97937" lon="4.17936">
        <ele>1282</ele>
        <time>2021-04-28T14:04:39Z</time>
      </trkpt>
      <trkpt lat="44.97938" lon="4.17938">
        <ele>1283</ele>
        <time>2021-04-28T14:04:40Z</time>
      </trkpt>
      <trkpt lat="44.97941" lon="4.17943">
        <ele>1283</ele>
        <time>2021-04-28T14:04:42Z</time>
      </trkpt>
      <trkpt lat="44.97942" lon="4.17946">
        <ele>1284</ele>
        <time>2021-04-28T14:04:44Z</time>
      </trkpt>
      <trkpt lat="44.97943" lon="4.17948">
        <ele>1284</ele>
        <time>2021-04-28T14:04:45Z</time>
      </trkpt>
      <trkpt lat="44.97944" lon="4.1795">
        <ele>1284</ele>
        <time>2021-04-28T14:04:46Z</time>
      </trkpt>
      <trkpt lat="44.97946" lon="4.17953">
        <ele>1284</ele>
        <time>2021-04-28T14:04:47Z</time>
      </trkpt>
      <trkpt lat="44.97947" lon="4.17955">
        <ele>1285</ele>
        <time>2021-04-28T14:04:48Z</time>
      </trkpt>
      <trkpt lat="44.97949" lon="4.17958">
        <ele>1285</ele>
        <time>2021-04-28T14:04:49Z</time>
      </trkpt>
      <trkpt lat="44.9795" lon="4.1796">
        <ele>1285</ele>
        <time>2021-04-28T14:04:50Z</time>
      </trkpt>
      <trkpt lat="44.97951" lon="4.17963">
        <ele>1286</ele>
        <time>2021-04-28T14:04:51Z</time>
      </trkpt>
      <trkpt lat="44.97953" lon="4.17966">
        <ele>1286</ele>
        <time>2021-04-28T14:04:52Z</time>
      </trkpt>
      <trkpt lat="44.97954" lon="4.17969">
        <ele>1286</ele>
        <time>2021-04-28T14:04:53Z</time>
      </trkpt>
      <trkpt lat="44.97956" lon="4.17972">
        <ele>1287</ele>
        <time>2021-04-28T14:04:54Z</time>
      </trkpt>
      <trkpt lat="44.97957" lon="4.17975">
        <ele>1287</ele>
        <time>2021-04-28T14:04:55Z</time>
      </trkpt>
      <trkpt lat="44.97959" lon="4.17978">
        <ele>1287</ele>
        <time>2021-04-28T14:04:56Z</time>
      </trkpt>
      <trkpt lat="44.9796" lon="4.1798">
        <ele>1288</ele>
        <time>2021-04-28T14:04:57Z</time>
      </trkpt>
      <trkpt lat="44.97962" lon="4.17983">
        <ele>1288</ele>
        <time>2021-04-28T14:04:58Z</time>
      </trkpt>
      <trkpt lat="44.97964" lon="4.17986">
        <ele>1288</ele>
        <time>2021-04-28T14:04:59Z</time>
      </trkpt>
      <trkpt lat="44.97965" lon="4.17989">
        <ele>1289</ele>
        <time>2021-04-28T14:05:00Z</time>
      </trkpt>
      <trkpt lat="44.97966" lon="4.17991">
        <ele>1289</ele>
        <time>2021-04-28T14:05:01Z</time>
      </trkpt>
      <trkpt lat="44.97968" lon="4.17994">
        <ele>1289</ele>
        <time>2021-04-28T14:05:02Z</time>
      </trkpt>
      <trkpt lat="44.97969" lon="4.17996">
        <ele>1290</ele>
        <time>2021-04-28T14:05:03Z</time>
      </trkpt>
      <trkpt lat="44.97971" lon="4.17999">
        <ele>1290</ele>
        <time>2021-04-28T14:05:04Z</time>
      </trkpt>
      <trkpt lat="44.97972" lon="4.18002">
        <ele>1291</ele>
        <time>2021-04-28T14:05:05Z</time>
      </trkpt>
      <trkpt lat="44.97973" lon="4.18005">
        <ele>1291</ele>
        <time>2021-04-28T14:05:06Z</time>
      </trkpt>
      <trkpt lat="44.97973" lon="4.18009">
        <ele>1291</ele>
        <time>2021-04-28T14:05:07Z</time>
      </trkpt>
      <trkpt lat="44.97974" lon="4.18012">
        <ele>1291</ele>
        <time>2021-04-28T14:05:08Z</time>
      </trkpt>
      <trkpt lat="44.97975" lon="4.18016">
        <ele>1291</ele>
        <time>2021-04-28T14:05:09Z</time>
      </trkpt>
      <trkpt lat="44.97976" lon="4.1802">
        <ele>1291</ele>
        <time>2021-04-28T14:05:10Z</time>
      </trkpt>
      <trkpt lat="44.97976" lon="4.18024">
        <ele>1291</ele>
        <time>2021-04-28T14:05:11Z</time>
      </trkpt>
      <trkpt lat="44.97977" lon="4.18028">
        <ele>1292</ele>
        <time>2021-04-28T14:05:12Z</time>
      </trkpt>
      <trkpt lat="44.97977" lon="4.18032">
        <ele>1292</ele>
        <time>2021-04-28T14:05:13Z</time>
      </trkpt>
      <trkpt lat="44.97978" lon="4.18036">
        <ele>1292</ele>
        <time>2021-04-28T14:05:14Z</time>
      </trkpt>
      <trkpt lat="44.97978" lon="4.1804">
        <ele>1292</ele>
        <time>2021-04-28T14:05:15Z</time>
      </trkpt>
      <trkpt lat="44.97979" lon="4.18044">
        <ele>1292</ele>
        <time>2021-04-28T14:05:16Z</time>
      </trkpt>
      <trkpt lat="44.9798" lon="4.18048">
        <ele>1292</ele>
        <time>2021-04-28T14:05:17Z</time>
      </trkpt>
      <trkpt lat="44.9798" lon="4.18052">
        <ele>1293</ele>
        <time>2021-04-28T14:05:18Z</time>
      </trkpt>
      <trkpt lat="44.97981" lon="4.18056">
        <ele>1293</ele>
        <time>2021-04-28T14:05:19Z</time>
      </trkpt>
      <trkpt lat="44.97982" lon="4.1806">
        <ele>1293</ele>
        <time>2021-04-28T14:05:20Z</time>
      </trkpt>
      <trkpt lat="44.97982" lon="4.18063">
        <ele>1293</ele>
        <time>2021-04-28T14:05:21Z</time>
      </trkpt>
      <trkpt lat="44.97983" lon="4.18067">
        <ele>1294</ele>
        <time>2021-04-28T14:05:22Z</time>
      </trkpt>
      <trkpt lat="44.97984" lon="4.1807">
        <ele>1294</ele>
        <time>2021-04-28T14:05:23Z</time>
      </trkpt>
      <trkpt lat="44.97985" lon="4.18074">
        <ele>1294</ele>
        <time>2021-04-28T14:05:24Z</time>
      </trkpt>
      <trkpt lat="44.97985" lon="4.18077">
        <ele>1294</ele>
        <time>2021-04-28T14:05:25Z</time>
      </trkpt>
      <trkpt lat="44.97985" lon="4.18081">
        <ele>1294</ele>
        <time>2021-04-28T14:05:26Z</time>
      </trkpt>
      <trkpt lat="44.97984" lon="4.18084">
        <ele>1294</ele>
        <time>2021-04-28T14:05:27Z</time>
      </trkpt>
      <trkpt lat="44.97982" lon="4.18087">
        <ele>1295</ele>
        <time>2021-04-28T14:05:28Z</time>
      </trkpt>
      <trkpt lat="44.97979" lon="4.18088">
        <ele>1295</ele>
        <time>2021-04-28T14:05:29Z</time>
      </trkpt>
      <trkpt lat="44.97976" lon="4.18088">
        <ele>1295</ele>
        <time>2021-04-28T14:05:30Z</time>
      </trkpt>
      <trkpt lat="44.97973" lon="4.18085">
        <ele>1295</ele>
        <time>2021-04-28T14:05:31Z</time>
      </trkpt>
      <trkpt lat="44.97969" lon="4.1808">
        <ele>1294</ele>
        <time>2021-04-28T14:05:32Z</time>
      </trkpt>
      <trkpt lat="44.97966" lon="4.18074">
        <ele>1294</ele>
        <time>2021-04-28T14:05:33Z</time>
      </trkpt>
      <trkpt lat="44.97962" lon="4.18068">
        <ele>1294</ele>
        <time>2021-04-28T14:05:34Z</time>
      </trkpt>
      <trkpt lat="44.97958" lon="4.18061">
        <ele>1294</ele>
        <time>2021-04-28T14:05:35Z</time>
      </trkpt>
      <trkpt lat="44.97954" lon="4.18053">
        <ele>1294</ele>
        <time>2021-04-28T14:05:36Z</time>
      </trkpt>
      <trkpt lat="44.9795" lon="4.18045">
        <ele>1293</ele>
        <time>2021-04-28T14:05:37Z</time>
      </trkpt>
      <trkpt lat="44.97944" lon="4.18037">
        <ele>1293</ele>
        <time>2021-04-28T14:05:38Z</time>
      </trkpt>
      <trkpt lat="44.97932" lon="4.18022">
        <ele>1293</ele>
        <time>2021-04-28T14:05:39Z</time>
      </trkpt>
      <trkpt lat="44.97925" lon="4.18015">
        <ele>1292</ele>
        <time>2021-04-28T14:05:41Z</time>
      </trkpt>
      <trkpt lat="44.97917" lon="4.18009">
        <ele>1291</ele>
        <time>2021-04-28T14:05:42Z</time>
      </trkpt>
      <trkpt lat="44.97909" lon="4.18004">
        <ele>1290</ele>
        <time>2021-04-28T14:05:43Z</time>
      </trkpt>
      <trkpt lat="44.97901" lon="4.17998">
        <ele>1289</ele>
        <time>2021-04-28T14:05:44Z</time>
      </trkpt>
      <trkpt lat="44.97893" lon="4.17992">
        <ele>1289</ele>
        <time>2021-04-28T14:05:45Z</time>
      </trkpt>
      <trkpt lat="44.97885" lon="4.17987">
        <ele>1288</ele>
        <time>2021-04-28T14:05:46Z</time>
      </trkpt>
      <trkpt lat="44.97877" lon="4.17981">
        <ele>1288</ele>
        <time>2021-04-28T14:05:47Z</time>
      </trkpt>
      <trkpt lat="44.9787" lon="4.17976">
        <ele>1287</ele>
        <time>2021-04-28T14:05:48Z</time>
      </trkpt>
      <trkpt lat="44.97863" lon="4.1797">
        <ele>1286</ele>
        <time>2021-04-28T14:05:49Z</time>
      </trkpt>
      <trkpt lat="44.97857" lon="4.17964">
        <ele>1286</ele>
        <time>2021-04-28T14:05:50Z</time>
      </trkpt>
      <trkpt lat="44.9785" lon="4.17959">
        <ele>1285</ele>
        <time>2021-04-28T14:05:51Z</time>
      </trkpt>
      <trkpt lat="44.97843" lon="4.17953">
        <ele>1285</ele>
        <time>2021-04-28T14:05:52Z</time>
      </trkpt>
      <trkpt lat="44.97836" lon="4.17948">
        <ele>1284</ele>
        <time>2021-04-28T14:05:53Z</time>
      </trkpt>
      <trkpt lat="44.97829" lon="4.17942">
        <ele>1283</ele>
        <time>2021-04-28T14:05:54Z</time>
      </trkpt>
      <trkpt lat="44.97822" lon="4.17936">
        <ele>1283</ele>
        <time>2021-04-28T14:05:55Z</time>
      </trkpt>
      <trkpt lat="44.97816" lon="4.17931">
        <ele>1282</ele>
        <time>2021-04-28T14:05:56Z</time>
      </trkpt>
      <trkpt lat="44.97809" lon="4.17925">
        <ele>1282</ele>
        <time>2021-04-28T14:05:57Z</time>
      </trkpt>
      <trkpt lat="44.97803" lon="4.1792">
        <ele>1281</ele>
        <time>2021-04-28T14:05:58Z</time>
      </trkpt>
      <trkpt lat="44.97797" lon="4.17915">
        <ele>1281</ele>
        <time>2021-04-28T14:05:59Z</time>
      </trkpt>
      <trkpt lat="44.97792" lon="4.1791">
        <ele>1281</ele>
        <time>2021-04-28T14:06:00Z</time>
      </trkpt>
      <trkpt lat="44.97787" lon="4.17905">
        <ele>1280</ele>
        <time>2021-04-28T14:06:01Z</time>
      </trkpt>
      <trkpt lat="44.97783" lon="4.17901">
        <ele>1280</ele>
        <time>2021-04-28T14:06:02Z</time>
      </trkpt>
      <trkpt lat="44.97779" lon="4.17897">
        <ele>1280</ele>
        <time>2021-04-28T14:06:03Z</time>
      </trkpt>
      <trkpt lat="44.97775" lon="4.17894">
        <ele>1280</ele>
        <time>2021-04-28T14:06:04Z</time>
      </trkpt>
      <trkpt lat="44.97772" lon="4.17891">
        <ele>1280</ele>
        <time>2021-04-28T14:06:05Z</time>
      </trkpt>
      <trkpt lat="44.97769" lon="4.17888">
        <ele>1280</ele>
        <time>2021-04-28T14:06:06Z</time>
      </trkpt>
      <trkpt lat="44.97766" lon="4.17884">
        <ele>1280</ele>
        <time>2021-04-28T14:06:07Z</time>
      </trkpt>
      <trkpt lat="44.97763" lon="4.17881">
        <ele>1280</ele>
        <time>2021-04-28T14:06:08Z</time>
      </trkpt>
      <trkpt lat="44.97759" lon="4.17877">
        <ele>1280</ele>
        <time>2021-04-28T14:06:09Z</time>
      </trkpt>
      <trkpt lat="44.97756" lon="4.17873">
        <ele>1280</ele>
        <time>2021-04-28T14:06:10Z</time>
      </trkpt>
      <trkpt lat="44.97752" lon="4.1787">
        <ele>1280</ele>
        <time>2021-04-28T14:06:11Z</time>
      </trkpt>
      <trkpt lat="44.97748" lon="4.17866">
        <ele>1280</ele>
        <time>2021-04-28T14:06:12Z</time>
      </trkpt>
      <trkpt lat="44.97744" lon="4.17862">
        <ele>1280</ele>
        <time>2021-04-28T14:06:13Z</time>
      </trkpt>
      <trkpt lat="44.9774" lon="4.17858">
        <ele>1280</ele>
        <time>2021-04-28T14:06:14Z</time>
      </trkpt>
      <trkpt lat="44.97737" lon="4.17855">
        <ele>1280</ele>
        <time>2021-04-28T14:06:15Z</time>
      </trkpt>
      <trkpt lat="44.97733" lon="4.17851">
        <ele>1280</ele>
        <time>2021-04-28T14:06:16Z</time>
      </trkpt>
      <trkpt lat="44.97727" lon="4.17843">
        <ele>1280</ele>
        <time>2021-04-28T14:06:17Z</time>
      </trkpt>
      <trkpt lat="44.97724" lon="4.17839">
        <ele>1280</ele>
        <time>2021-04-28T14:06:19Z</time>
      </trkpt>
      <trkpt lat="44.97721" lon="4.17835">
        <ele>1280</ele>
        <time>2021-04-28T14:06:20Z</time>
      </trkpt>
      <trkpt lat="44.97718" lon="4.17831">
        <ele>1280</ele>
        <time>2021-04-28T14:06:21Z</time>
      </trkpt>
      <trkpt lat="44.97715" lon="4.17827">
        <ele>1280</ele>
        <time>2021-04-28T14:06:22Z</time>
      </trkpt>
      <trkpt lat="44.97712" lon="4.17824">
        <ele>1280</ele>
        <time>2021-04-28T14:06:23Z</time>
      </trkpt>
      <trkpt lat="44.97708" lon="4.1782">
        <ele>1280</ele>
        <time>2021-04-28T14:06:24Z</time>
      </trkpt>
      <trkpt lat="44.97705" lon="4.17817">
        <ele>1280</ele>
        <time>2021-04-28T14:06:25Z</time>
      </trkpt>
      <trkpt lat="44.97702" lon="4.17814">
        <ele>1281</ele>
        <time>2021-04-28T14:06:26Z</time>
      </trkpt>
      <trkpt lat="44.97698" lon="4.17811">
        <ele>1281</ele>
        <time>2021-04-28T14:06:27Z</time>
      </trkpt>
      <trkpt lat="44.97695" lon="4.17808">
        <ele>1281</ele>
        <time>2021-04-28T14:06:28Z</time>
      </trkpt>
      <trkpt lat="44.97691" lon="4.17806">
        <ele>1281</ele>
        <time>2021-04-28T14:06:29Z</time>
      </trkpt>
      <trkpt lat="44.97687" lon="4.17803">
        <ele>1281</ele>
        <time>2021-04-28T14:06:30Z</time>
      </trkpt>
      <trkpt lat="44.97684" lon="4.17801">
        <ele>1281</ele>
        <time>2021-04-28T14:06:31Z</time>
      </trkpt>
      <trkpt lat="44.9768" lon="4.17799">
        <ele>1282</ele>
        <time>2021-04-28T14:06:32Z</time>
      </trkpt>
      <trkpt lat="44.97676" lon="4.17797">
        <ele>1282</ele>
        <time>2021-04-28T14:06:33Z</time>
      </trkpt>
      <trkpt lat="44.97673" lon="4.17796">
        <ele>1282</ele>
        <time>2021-04-28T14:06:34Z</time>
      </trkpt>
      <trkpt lat="44.97669" lon="4.17794">
        <ele>1282</ele>
        <time>2021-04-28T14:06:35Z</time>
      </trkpt>
      <trkpt lat="44.9766" lon="4.17792">
        <ele>1282</ele>
        <time>2021-04-28T14:06:36Z</time>
      </trkpt>
      <trkpt lat="44.97656" lon="4.1779">
        <ele>1282</ele>
        <time>2021-04-28T14:06:38Z</time>
      </trkpt>
      <trkpt lat="44.97652" lon="4.17789">
        <ele>1282</ele>
        <time>2021-04-28T14:06:39Z</time>
      </trkpt>
      <trkpt lat="44.97648" lon="4.17788">
        <ele>1282</ele>
        <time>2021-04-28T14:06:40Z</time>
      </trkpt>
      <trkpt lat="44.97643" lon="4.17787">
        <ele>1282</ele>
        <time>2021-04-28T14:06:41Z</time>
      </trkpt>
      <trkpt lat="44.97639" lon="4.17786">
        <ele>1282</ele>
        <time>2021-04-28T14:06:42Z</time>
      </trkpt>
      <trkpt lat="44.97635" lon="4.17785">
        <ele>1282</ele>
        <time>2021-04-28T14:06:43Z</time>
      </trkpt>
      <trkpt lat="44.9763" lon="4.17784">
        <ele>1282</ele>
        <time>2021-04-28T14:06:44Z</time>
      </trkpt>
      <trkpt lat="44.97626" lon="4.17782">
        <ele>1282</ele>
        <time>2021-04-28T14:06:45Z</time>
      </trkpt>
      <trkpt lat="44.97621" lon="4.17781">
        <ele>1282</ele>
        <time>2021-04-28T14:06:46Z</time>
      </trkpt>
      <trkpt lat="44.97617" lon="4.1778">
        <ele>1282</ele>
        <time>2021-04-28T14:06:47Z</time>
      </trkpt>
      <trkpt lat="44.97612" lon="4.17778">
        <ele>1282</ele>
        <time>2021-04-28T14:06:48Z</time>
      </trkpt>
      <trkpt lat="44.97608" lon="4.17776">
        <ele>1282</ele>
        <time>2021-04-28T14:06:49Z</time>
      </trkpt>
      <trkpt lat="44.97603" lon="4.17774">
        <ele>1282</ele>
        <time>2021-04-28T14:06:50Z</time>
      </trkpt>
      <trkpt lat="44.97599" lon="4.17772">
        <ele>1282</ele>
        <time>2021-04-28T14:06:51Z</time>
      </trkpt>
      <trkpt lat="44.97595" lon="4.1777">
        <ele>1282</ele>
        <time>2021-04-28T14:06:52Z</time>
      </trkpt>
      <trkpt lat="44.97591" lon="4.17768">
        <ele>1282</ele>
        <time>2021-04-28T14:06:53Z</time>
      </trkpt>
      <trkpt lat="44.97587" lon="4.17766">
        <ele>1282</ele>
        <time>2021-04-28T14:06:54Z</time>
      </trkpt>
      <trkpt lat="44.97583" lon="4.17764">
        <ele>1282</ele>
        <time>2021-04-28T14:06:55Z</time>
      </trkpt>
      <trkpt lat="44.97579" lon="4.17762">
        <ele>1282</ele>
        <time>2021-04-28T14:06:56Z</time>
      </trkpt>
      <trkpt lat="44.97575" lon="4.1776">
        <ele>1283</ele>
        <time>2021-04-28T14:06:57Z</time>
      </trkpt>
      <trkpt lat="44.97571" lon="4.17759">
        <ele>1283</ele>
        <time>2021-04-28T14:06:58Z</time>
      </trkpt>
      <trkpt lat="44.97567" lon="4.17757">
        <ele>1283</ele>
        <time>2021-04-28T14:06:59Z</time>
      </trkpt>
      <trkpt lat="44.97563" lon="4.17755">
        <ele>1283</ele>
        <time>2021-04-28T14:07:00Z</time>
      </trkpt>
      <trkpt lat="44.97558" lon="4.17753">
        <ele>1283</ele>
        <time>2021-04-28T14:07:01Z</time>
      </trkpt>
      <trkpt lat="44.97554" lon="4.17751">
        <ele>1283</ele>
        <time>2021-04-28T14:07:02Z</time>
      </trkpt>
      <trkpt lat="44.9755" lon="4.1775">
        <ele>1283</ele>
        <time>2021-04-28T14:07:03Z</time>
      </trkpt>
      <trkpt lat="44.97546" lon="4.17747">
        <ele>1283</ele>
        <time>2021-04-28T14:07:04Z</time>
      </trkpt>
      <trkpt lat="44.97543" lon="4.17745">
        <ele>1283</ele>
        <time>2021-04-28T14:07:05Z</time>
      </trkpt>
      <trkpt lat="44.97539" lon="4.17741">
        <ele>1283</ele>
        <time>2021-04-28T14:07:06Z</time>
      </trkpt>
      <trkpt lat="44.97537" lon="4.17736">
        <ele>1283</ele>
        <time>2021-04-28T14:07:07Z</time>
      </trkpt>
      <trkpt lat="44.97534" lon="4.17731">
        <ele>1283</ele>
        <time>2021-04-28T14:07:08Z</time>
      </trkpt>
      <trkpt lat="44.97532" lon="4.17726">
        <ele>1283</ele>
        <time>2021-04-28T14:07:09Z</time>
      </trkpt>
      <trkpt lat="44.9753" lon="4.1772">
        <ele>1283</ele>
        <time>2021-04-28T14:07:10Z</time>
      </trkpt>
      <trkpt lat="44.97528" lon="4.17715">
        <ele>1284</ele>
        <time>2021-04-28T14:07:11Z</time>
      </trkpt>
      <trkpt lat="44.97526" lon="4.1771">
        <ele>1284</ele>
        <time>2021-04-28T14:07:12Z</time>
      </trkpt>
      <trkpt lat="44.97524" lon="4.17704">
        <ele>1284</ele>
        <time>2021-04-28T14:07:13Z</time>
      </trkpt>
      <trkpt lat="44.97522" lon="4.17698">
        <ele>1284</ele>
        <time>2021-04-28T14:07:14Z</time>
      </trkpt>
      <trkpt lat="44.9752" lon="4.17692">
        <ele>1284</ele>
        <time>2021-04-28T14:07:15Z</time>
      </trkpt>
      <trkpt lat="44.97517" lon="4.17687">
        <ele>1285</ele>
        <time>2021-04-28T14:07:16Z</time>
      </trkpt>
      <trkpt lat="44.97515" lon="4.17682">
        <ele>1285</ele>
        <time>2021-04-28T14:07:17Z</time>
      </trkpt>
      <trkpt lat="44.97513" lon="4.17676">
        <ele>1285</ele>
        <time>2021-04-28T14:07:18Z</time>
      </trkpt>
      <trkpt lat="44.97511" lon="4.1767">
        <ele>1285</ele>
        <time>2021-04-28T14:07:19Z</time>
      </trkpt>
      <trkpt lat="44.97508" lon="4.17665">
        <ele>1285</ele>
        <time>2021-04-28T14:07:20Z</time>
      </trkpt>
      <trkpt lat="44.97506" lon="4.17659">
        <ele>1286</ele>
        <time>2021-04-28T14:07:21Z</time>
      </trkpt>
      <trkpt lat="44.97505" lon="4.17653">
        <ele>1286</ele>
        <time>2021-04-28T14:07:22Z</time>
      </trkpt>
      <trkpt lat="44.97503" lon="4.17647">
        <ele>1286</ele>
        <time>2021-04-28T14:07:23Z</time>
      </trkpt>
      <trkpt lat="44.97501" lon="4.17641">
        <ele>1286</ele>
        <time>2021-04-28T14:07:24Z</time>
      </trkpt>
      <trkpt lat="44.97499" lon="4.17635">
        <ele>1286</ele>
        <time>2021-04-28T14:07:25Z</time>
      </trkpt>
      <trkpt lat="44.97497" lon="4.1763">
        <ele>1286</ele>
        <time>2021-04-28T14:07:26Z</time>
      </trkpt>
      <trkpt lat="44.97495" lon="4.17624">
        <ele>1286</ele>
        <time>2021-04-28T14:07:27Z</time>
      </trkpt>
      <trkpt lat="44.97492" lon="4.17619">
        <ele>1287</ele>
        <time>2021-04-28T14:07:28Z</time>
      </trkpt>
      <trkpt lat="44.9749" lon="4.17614">
        <ele>1287</ele>
        <time>2021-04-28T14:07:29Z</time>
      </trkpt>
      <trkpt lat="44.97488" lon="4.17608">
        <ele>1287</ele>
        <time>2021-04-28T14:07:30Z</time>
      </trkpt>
      <trkpt lat="44.97486" lon="4.17602">
        <ele>1287</ele>
        <time>2021-04-28T14:07:31Z</time>
      </trkpt>
      <trkpt lat="44.97483" lon="4.17597">
        <ele>1287</ele>
        <time>2021-04-28T14:07:32Z</time>
      </trkpt>
      <trkpt lat="44.97479" lon="4.17585">
        <ele>1287</ele>
        <time>2021-04-28T14:07:33Z</time>
      </trkpt>
      <trkpt lat="44.97477" lon="4.1758">
        <ele>1288</ele>
        <time>2021-04-28T14:07:35Z</time>
      </trkpt>
      <trkpt lat="44.97475" lon="4.17574">
        <ele>1288</ele>
        <time>2021-04-28T14:07:36Z</time>
      </trkpt>
      <trkpt lat="44.97473" lon="4.17569">
        <ele>1288</ele>
        <time>2021-04-28T14:07:37Z</time>
      </trkpt>
      <trkpt lat="44.97471" lon="4.17564">
        <ele>1288</ele>
        <time>2021-04-28T14:07:38Z</time>
      </trkpt>
      <trkpt lat="44.97469" lon="4.17559">
        <ele>1288</ele>
        <time>2021-04-28T14:07:39Z</time>
      </trkpt>
      <trkpt lat="44.97467" lon="4.17553">
        <ele>1288</ele>
        <time>2021-04-28T14:07:40Z</time>
      </trkpt>
      <trkpt lat="44.97465" lon="4.17548">
        <ele>1288</ele>
        <time>2021-04-28T14:07:41Z</time>
      </trkpt>
      <trkpt lat="44.97463" lon="4.17543">
        <ele>1288</ele>
        <time>2021-04-28T14:07:42Z</time>
      </trkpt>
      <trkpt lat="44.9746" lon="4.1754">
        <ele>1288</ele>
        <time>2021-04-28T14:07:43Z</time>
      </trkpt>
      <trkpt lat="44.97458" lon="4.17538">
        <ele>1289</ele>
        <time>2021-04-28T14:07:44Z</time>
      </trkpt>
      <trkpt lat="44.97454" lon="4.17539">
        <ele>1289</ele>
        <time>2021-04-28T14:07:45Z</time>
      </trkpt>
      <trkpt lat="44.97451" lon="4.17541">
        <ele>1288</ele>
        <time>2021-04-28T14:07:46Z</time>
      </trkpt>
      <trkpt lat="44.97448" lon="4.17544">
        <ele>1288</ele>
        <time>2021-04-28T14:07:47Z</time>
      </trkpt>
      <trkpt lat="44.97445" lon="4.17546">
        <ele>1288</ele>
        <time>2021-04-28T14:07:48Z</time>
      </trkpt>
      <trkpt lat="44.97441" lon="4.17549">
        <ele>1288</ele>
        <time>2021-04-28T14:07:49Z</time>
      </trkpt>
      <trkpt lat="44.97438" lon="4.17552">
        <ele>1288</ele>
        <time>2021-04-28T14:07:50Z</time>
      </trkpt>
      <trkpt lat="44.97434" lon="4.17555">
        <ele>1288</ele>
        <time>2021-04-28T14:07:51Z</time>
      </trkpt>
      <trkpt lat="44.97431" lon="4.17557">
        <ele>1288</ele>
        <time>2021-04-28T14:07:52Z</time>
      </trkpt>
      <trkpt lat="44.97427" lon="4.17561">
        <ele>1288</ele>
        <time>2021-04-28T14:07:53Z</time>
      </trkpt>
      <trkpt lat="44.97423" lon="4.17564">
        <ele>1289</ele>
        <time>2021-04-28T14:07:54Z</time>
      </trkpt>
      <trkpt lat="44.9742" lon="4.17567">
        <ele>1289</ele>
        <time>2021-04-28T14:07:55Z</time>
      </trkpt>
      <trkpt lat="44.97416" lon="4.1757">
        <ele>1288</ele>
        <time>2021-04-28T14:07:56Z</time>
      </trkpt>
      <trkpt lat="44.97412" lon="4.17574">
        <ele>1288</ele>
        <time>2021-04-28T14:07:57Z</time>
      </trkpt>
      <trkpt lat="44.97408" lon="4.17577">
        <ele>1288</ele>
        <time>2021-04-28T14:07:58Z</time>
      </trkpt>
      <trkpt lat="44.97404" lon="4.17581">
        <ele>1288</ele>
        <time>2021-04-28T14:07:59Z</time>
      </trkpt>
      <trkpt lat="44.974" lon="4.17585">
        <ele>1288</ele>
        <time>2021-04-28T14:08:00Z</time>
      </trkpt>
      <trkpt lat="44.97396" lon="4.17589">
        <ele>1288</ele>
        <time>2021-04-28T14:08:01Z</time>
      </trkpt>
      <trkpt lat="44.97392" lon="4.17593">
        <ele>1288</ele>
        <time>2021-04-28T14:08:02Z</time>
      </trkpt>
      <trkpt lat="44.97388" lon="4.17597">
        <ele>1288</ele>
        <time>2021-04-28T14:08:03Z</time>
      </trkpt>
      <trkpt lat="44.97384" lon="4.17601">
        <ele>1288</ele>
        <time>2021-04-28T14:08:04Z</time>
      </trkpt>
      <trkpt lat="44.9738" lon="4.17605">
        <ele>1288</ele>
        <time>2021-04-28T14:08:05Z</time>
      </trkpt>
      <trkpt lat="44.97376" lon="4.17608">
        <ele>1288</ele>
        <time>2021-04-28T14:08:06Z</time>
      </trkpt>
      <trkpt lat="44.97371" lon="4.17612">
        <ele>1288</ele>
        <time>2021-04-28T14:08:07Z</time>
      </trkpt>
      <trkpt lat="44.97367" lon="4.17615">
        <ele>1288</ele>
        <time>2021-04-28T14:08:08Z</time>
      </trkpt>
      <trkpt lat="44.97363" lon="4.17618">
        <ele>1288</ele>
        <time>2021-04-28T14:08:09Z</time>
      </trkpt>
      <trkpt lat="44.97359" lon="4.17621">
        <ele>1288</ele>
        <time>2021-04-28T14:08:10Z</time>
      </trkpt>
      <trkpt lat="44.97355" lon="4.17624">
        <ele>1288</ele>
        <time>2021-04-28T14:08:11Z</time>
      </trkpt>
      <trkpt lat="44.97351" lon="4.17628">
        <ele>1288</ele>
        <time>2021-04-28T14:08:12Z</time>
      </trkpt>
      <trkpt lat="44.97348" lon="4.17633">
        <ele>1288</ele>
        <time>2021-04-28T14:08:13Z</time>
      </trkpt>
      <trkpt lat="44.97346" lon="4.17638">
        <ele>1288</ele>
        <time>2021-04-28T14:08:14Z</time>
      </trkpt>
      <trkpt lat="44.97344" lon="4.17644">
        <ele>1288</ele>
        <time>2021-04-28T14:08:15Z</time>
      </trkpt>
      <trkpt lat="44.97343" lon="4.17651">
        <ele>1288</ele>
        <time>2021-04-28T14:08:16Z</time>
      </trkpt>
      <trkpt lat="44.97343" lon="4.17657">
        <ele>1288</ele>
        <time>2021-04-28T14:08:17Z</time>
      </trkpt>
      <trkpt lat="44.97343" lon="4.17664">
        <ele>1288</ele>
        <time>2021-04-28T14:08:18Z</time>
      </trkpt>
      <trkpt lat="44.97342" lon="4.17671">
        <ele>1288</ele>
        <time>2021-04-28T14:08:19Z</time>
      </trkpt>
      <trkpt lat="44.97341" lon="4.17678">
        <ele>1288</ele>
        <time>2021-04-28T14:08:20Z</time>
      </trkpt>
      <trkpt lat="44.9734" lon="4.17685">
        <ele>1288</ele>
        <time>2021-04-28T14:08:21Z</time>
      </trkpt>
      <trkpt lat="44.9734" lon="4.17692">
        <ele>1288</ele>
        <time>2021-04-28T14:08:22Z</time>
      </trkpt>
      <trkpt lat="44.97339" lon="4.17699">
        <ele>1288</ele>
        <time>2021-04-28T14:08:23Z</time>
      </trkpt>
      <trkpt lat="44.97338" lon="4.17707">
        <ele>1288</ele>
        <time>2021-04-28T14:08:24Z</time>
      </trkpt>
      <trkpt lat="44.97337" lon="4.17714">
        <ele>1288</ele>
        <time>2021-04-28T14:08:25Z</time>
      </trkpt>
      <trkpt lat="44.97336" lon="4.17721">
        <ele>1288</ele>
        <time>2021-04-28T14:08:26Z</time>
      </trkpt>
      <trkpt lat="44.97335" lon="4.17727">
        <ele>1288</ele>
        <time>2021-04-28T14:08:27Z</time>
      </trkpt>
      <trkpt lat="44.97335" lon="4.17734">
        <ele>1288</ele>
        <time>2021-04-28T14:08:28Z</time>
      </trkpt>
      <trkpt lat="44.97334" lon="4.17741">
        <ele>1288</ele>
        <time>2021-04-28T14:08:29Z</time>
      </trkpt>
      <trkpt lat="44.97332" lon="4.17754">
        <ele>1288</ele>
        <time>2021-04-28T14:08:30Z</time>
      </trkpt>
      <trkpt lat="44.97332" lon="4.17761">
        <ele>1287</ele>
        <time>2021-04-28T14:08:32Z</time>
      </trkpt>
      <trkpt lat="44.97331" lon="4.17768">
        <ele>1287</ele>
        <time>2021-04-28T14:08:33Z</time>
      </trkpt>
      <trkpt lat="44.97329" lon="4.17775">
        <ele>1287</ele>
        <time>2021-04-28T14:08:34Z</time>
      </trkpt>
      <trkpt lat="44.97327" lon="4.17781">
        <ele>1287</ele>
        <time>2021-04-28T14:08:35Z</time>
      </trkpt>
      <trkpt lat="44.97324" lon="4.17787">
        <ele>1287</ele>
        <time>2021-04-28T14:08:36Z</time>
      </trkpt>
      <trkpt lat="44.9732" lon="4.17792">
        <ele>1287</ele>
        <time>2021-04-28T14:08:37Z</time>
      </trkpt>
      <trkpt lat="44.97316" lon="4.17796">
        <ele>1287</ele>
        <time>2021-04-28T14:08:38Z</time>
      </trkpt>
      <trkpt lat="44.97311" lon="4.17799">
        <ele>1287</ele>
        <time>2021-04-28T14:08:39Z</time>
      </trkpt>
      <trkpt lat="44.97306" lon="4.178">
        <ele>1286</ele>
        <time>2021-04-28T14:08:40Z</time>
      </trkpt>
      <trkpt lat="44.97301" lon="4.178">
        <ele>1286</ele>
        <time>2021-04-28T14:08:41Z</time>
      </trkpt>
      <trkpt lat="44.97296" lon="4.17797">
        <ele>1286</ele>
        <time>2021-04-28T14:08:42Z</time>
      </trkpt>
      <trkpt lat="44.97292" lon="4.17792">
        <ele>1286</ele>
        <time>2021-04-28T14:08:43Z</time>
      </trkpt>
      <trkpt lat="44.97289" lon="4.17787">
        <ele>1286</ele>
        <time>2021-04-28T14:08:44Z</time>
      </trkpt>
      <trkpt lat="44.97288" lon="4.17781">
        <ele>1286</ele>
        <time>2021-04-28T14:08:45Z</time>
      </trkpt>
      <trkpt lat="44.97286" lon="4.17775">
        <ele>1285</ele>
        <time>2021-04-28T14:08:46Z</time>
      </trkpt>
      <trkpt lat="44.97285" lon="4.17768">
        <ele>1285</ele>
        <time>2021-04-28T14:08:47Z</time>
      </trkpt>
      <trkpt lat="44.97283" lon="4.17763">
        <ele>1285</ele>
        <time>2021-04-28T14:08:48Z</time>
      </trkpt>
      <trkpt lat="44.97276" lon="4.17756">
        <ele>1285</ele>
        <time>2021-04-28T14:08:49Z</time>
      </trkpt>
      <trkpt lat="44.97271" lon="4.17756">
        <ele>1285</ele>
        <time>2021-04-28T14:08:51Z</time>
      </trkpt>
      <trkpt lat="44.97266" lon="4.17757">
        <ele>1285</ele>
        <time>2021-04-28T14:08:52Z</time>
      </trkpt>
      <trkpt lat="44.97262" lon="4.17759">
        <ele>1285</ele>
        <time>2021-04-28T14:08:53Z</time>
      </trkpt>
      <trkpt lat="44.97257" lon="4.1776">
        <ele>1285</ele>
        <time>2021-04-28T14:08:54Z</time>
      </trkpt>
      <trkpt lat="44.97252" lon="4.17762">
        <ele>1285</ele>
        <time>2021-04-28T14:08:55Z</time>
      </trkpt>
      <trkpt lat="44.97247" lon="4.17764">
        <ele>1285</ele>
        <time>2021-04-28T14:08:56Z</time>
      </trkpt>
      <trkpt lat="44.97242" lon="4.17765">
        <ele>1285</ele>
        <time>2021-04-28T14:08:57Z</time>
      </trkpt>
      <trkpt lat="44.97237" lon="4.17767">
        <ele>1284</ele>
        <time>2021-04-28T14:08:58Z</time>
      </trkpt>
      <trkpt lat="44.97232" lon="4.17769">
        <ele>1284</ele>
        <time>2021-04-28T14:08:59Z</time>
      </trkpt>
      <trkpt lat="44.97227" lon="4.1777">
        <ele>1284</ele>
        <time>2021-04-28T14:09:00Z</time>
      </trkpt>
      <trkpt lat="44.97222" lon="4.17772">
        <ele>1284</ele>
        <time>2021-04-28T14:09:01Z</time>
      </trkpt>
      <trkpt lat="44.97217" lon="4.17773">
        <ele>1284</ele>
        <time>2021-04-28T14:09:02Z</time>
      </trkpt>
      <trkpt lat="44.97212" lon="4.17775">
        <ele>1284</ele>
        <time>2021-04-28T14:09:03Z</time>
      </trkpt>
      <trkpt lat="44.97207" lon="4.17776">
        <ele>1284</ele>
        <time>2021-04-28T14:09:04Z</time>
      </trkpt>
      <trkpt lat="44.97202" lon="4.17777">
        <ele>1284</ele>
        <time>2021-04-28T14:09:05Z</time>
      </trkpt>
      <trkpt lat="44.97198" lon="4.17779">
        <ele>1284</ele>
        <time>2021-04-28T14:09:06Z</time>
      </trkpt>
      <trkpt lat="44.97193" lon="4.1778">
        <ele>1284</ele>
        <time>2021-04-28T14:09:07Z</time>
      </trkpt>
      <trkpt lat="44.97189" lon="4.17781">
        <ele>1284</ele>
        <time>2021-04-28T14:09:08Z</time>
      </trkpt>
      <trkpt lat="44.97184" lon="4.17779">
        <ele>1284</ele>
        <time>2021-04-28T14:09:09Z</time>
      </trkpt>
      <trkpt lat="44.97181" lon="4.17776">
        <ele>1284</ele>
        <time>2021-04-28T14:09:10Z</time>
      </trkpt>
      <trkpt lat="44.97179" lon="4.1777">
        <ele>1284</ele>
        <time>2021-04-28T14:09:11Z</time>
      </trkpt>
      <trkpt lat="44.97177" lon="4.17763">
        <ele>1284</ele>
        <time>2021-04-28T14:09:12Z</time>
      </trkpt>
      <trkpt lat="44.97176" lon="4.17757">
        <ele>1284</ele>
        <time>2021-04-28T14:09:13Z</time>
      </trkpt>
      <trkpt lat="44.97175" lon="4.1775">
        <ele>1284</ele>
        <time>2021-04-28T14:09:14Z</time>
      </trkpt>
      <trkpt lat="44.97173" lon="4.17743">
        <ele>1284</ele>
        <time>2021-04-28T14:09:15Z</time>
      </trkpt>
      <trkpt lat="44.97172" lon="4.17737">
        <ele>1284</ele>
        <time>2021-04-28T14:09:16Z</time>
      </trkpt>
      <trkpt lat="44.9717" lon="4.1773">
        <ele>1284</ele>
        <time>2021-04-28T14:09:17Z</time>
      </trkpt>
      <trkpt lat="44.97168" lon="4.17724">
        <ele>1284</ele>
        <time>2021-04-28T14:09:18Z</time>
      </trkpt>
      <trkpt lat="44.97166" lon="4.17717">
        <ele>1284</ele>
        <time>2021-04-28T14:09:19Z</time>
      </trkpt>
      <trkpt lat="44.97164" lon="4.17711">
        <ele>1284</ele>
        <time>2021-04-28T14:09:20Z</time>
      </trkpt>
      <trkpt lat="44.97163" lon="4.17704">
        <ele>1284</ele>
        <time>2021-04-28T14:09:21Z</time>
      </trkpt>
      <trkpt lat="44.97161" lon="4.17698">
        <ele>1284</ele>
        <time>2021-04-28T14:09:22Z</time>
      </trkpt>
      <trkpt lat="44.9716" lon="4.17691">
        <ele>1284</ele>
        <time>2021-04-28T14:09:23Z</time>
      </trkpt>
      <trkpt lat="44.97158" lon="4.17684">
        <ele>1284</ele>
        <time>2021-04-28T14:09:24Z</time>
      </trkpt>
      <trkpt lat="44.97156" lon="4.17677">
        <ele>1284</ele>
        <time>2021-04-28T14:09:25Z</time>
      </trkpt>
      <trkpt lat="44.97153" lon="4.17663">
        <ele>1285</ele>
        <time>2021-04-28T14:09:26Z</time>
      </trkpt>
      <trkpt lat="44.97151" lon="4.17656">
        <ele>1285</ele>
        <time>2021-04-28T14:09:28Z</time>
      </trkpt>
      <trkpt lat="44.97149" lon="4.17649">
        <ele>1285</ele>
        <time>2021-04-28T14:09:29Z</time>
      </trkpt>
      <trkpt lat="44.97148" lon="4.17642">
        <ele>1285</ele>
        <time>2021-04-28T14:09:30Z</time>
      </trkpt>
      <trkpt lat="44.97146" lon="4.17636">
        <ele>1285</ele>
        <time>2021-04-28T14:09:31Z</time>
      </trkpt>
      <trkpt lat="44.97144" lon="4.17629">
        <ele>1285</ele>
        <time>2021-04-28T14:09:32Z</time>
      </trkpt>
      <trkpt lat="44.97142" lon="4.17622">
        <ele>1285</ele>
        <time>2021-04-28T14:09:33Z</time>
      </trkpt>
      <trkpt lat="44.9714" lon="4.17615">
        <ele>1285</ele>
        <time>2021-04-28T14:09:34Z</time>
      </trkpt>
      <trkpt lat="44.97138" lon="4.17608">
        <ele>1285</ele>
        <time>2021-04-28T14:09:35Z</time>
      </trkpt>
      <trkpt lat="44.97136" lon="4.17601">
        <ele>1285</ele>
        <time>2021-04-28T14:09:36Z</time>
      </trkpt>
      <trkpt lat="44.97135" lon="4.17594">
        <ele>1285</ele>
        <time>2021-04-28T14:09:37Z</time>
      </trkpt>
      <trkpt lat="44.97133" lon="4.17587">
        <ele>1285</ele>
        <time>2021-04-28T14:09:38Z</time>
      </trkpt>
      <trkpt lat="44.97131" lon="4.1758">
        <ele>1285</ele>
        <time>2021-04-28T14:09:39Z</time>
      </trkpt>
      <trkpt lat="44.97129" lon="4.17573">
        <ele>1285</ele>
        <time>2021-04-28T14:09:40Z</time>
      </trkpt>
      <trkpt lat="44.97127" lon="4.17566">
        <ele>1285</ele>
        <time>2021-04-28T14:09:41Z</time>
      </trkpt>
      <trkpt lat="44.97125" lon="4.17559">
        <ele>1286</ele>
        <time>2021-04-28T14:09:42Z</time>
      </trkpt>
      <trkpt lat="44.97123" lon="4.17552">
        <ele>1286</ele>
        <time>2021-04-28T14:09:43Z</time>
      </trkpt>
      <trkpt lat="44.97121" lon="4.17545">
        <ele>1286</ele>
        <time>2021-04-28T14:09:44Z</time>
      </trkpt>
      <trkpt lat="44.97119" lon="4.17538">
        <ele>1286</ele>
        <time>2021-04-28T14:09:45Z</time>
      </trkpt>
      <trkpt lat="44.97117" lon="4.17531">
        <ele>1286</ele>
        <time>2021-04-28T14:09:46Z</time>
      </trkpt>
      <trkpt lat="44.97114" lon="4.17524">
        <ele>1286</ele>
        <time>2021-04-28T14:09:47Z</time>
      </trkpt>
      <trkpt lat="44.97112" lon="4.17517">
        <ele>1286</ele>
        <time>2021-04-28T14:09:48Z</time>
      </trkpt>
      <trkpt lat="44.9711" lon="4.1751">
        <ele>1286</ele>
        <time>2021-04-28T14:09:49Z</time>
      </trkpt>
      <trkpt lat="44.97108" lon="4.17502">
        <ele>1286</ele>
        <time>2021-04-28T14:09:50Z</time>
      </trkpt>
      <trkpt lat="44.97106" lon="4.17495">
        <ele>1286</ele>
        <time>2021-04-28T14:09:51Z</time>
      </trkpt>
      <trkpt lat="44.97104" lon="4.17488">
        <ele>1286</ele>
        <time>2021-04-28T14:09:52Z</time>
      </trkpt>
      <trkpt lat="44.97102" lon="4.1748">
        <ele>1285</ele>
        <time>2021-04-28T14:09:53Z</time>
      </trkpt>
      <trkpt lat="44.971" lon="4.17472">
        <ele>1285</ele>
        <time>2021-04-28T14:09:54Z</time>
      </trkpt>
      <trkpt lat="44.97098" lon="4.17465">
        <ele>1285</ele>
        <time>2021-04-28T14:09:55Z</time>
      </trkpt>
      <trkpt lat="44.97096" lon="4.17457">
        <ele>1285</ele>
        <time>2021-04-28T14:09:56Z</time>
      </trkpt>
      <trkpt lat="44.97094" lon="4.1745">
        <ele>1285</ele>
        <time>2021-04-28T14:09:57Z</time>
      </trkpt>
      <trkpt lat="44.97092" lon="4.17443">
        <ele>1285</ele>
        <time>2021-04-28T14:09:58Z</time>
      </trkpt>
      <trkpt lat="44.9709" lon="4.17435">
        <ele>1285</ele>
        <time>2021-04-28T14:09:59Z</time>
      </trkpt>
      <trkpt lat="44.97088" lon="4.17428">
        <ele>1285</ele>
        <time>2021-04-28T14:10:00Z</time>
      </trkpt>
      <trkpt lat="44.97086" lon="4.1742">
        <ele>1285</ele>
        <time>2021-04-28T14:10:01Z</time>
      </trkpt>
      <trkpt lat="44.97084" lon="4.17413">
        <ele>1285</ele>
        <time>2021-04-28T14:10:02Z</time>
      </trkpt>
      <trkpt lat="44.97082" lon="4.17405">
        <ele>1285</ele>
        <time>2021-04-28T14:10:03Z</time>
      </trkpt>
      <trkpt lat="44.9708" lon="4.17398">
        <ele>1285</ele>
        <time>2021-04-28T14:10:04Z</time>
      </trkpt>
      <trkpt lat="44.97076" lon="4.17383">
        <ele>1286</ele>
        <time>2021-04-28T14:10:05Z</time>
      </trkpt>
      <trkpt lat="44.97074" lon="4.17375">
        <ele>1286</ele>
        <time>2021-04-28T14:10:07Z</time>
      </trkpt>
      <trkpt lat="44.97072" lon="4.17368">
        <ele>1286</ele>
        <time>2021-04-28T14:10:08Z</time>
      </trkpt>
      <trkpt lat="44.9707" lon="4.1736">
        <ele>1286</ele>
        <time>2021-04-28T14:10:09Z</time>
      </trkpt>
      <trkpt lat="44.97068" lon="4.17353">
        <ele>1286</ele>
        <time>2021-04-28T14:10:10Z</time>
      </trkpt>
      <trkpt lat="44.97065" lon="4.17345">
        <ele>1286</ele>
        <time>2021-04-28T14:10:11Z</time>
      </trkpt>
      <trkpt lat="44.97063" lon="4.17338">
        <ele>1286</ele>
        <time>2021-04-28T14:10:12Z</time>
      </trkpt>
      <trkpt lat="44.97061" lon="4.1733">
        <ele>1286</ele>
        <time>2021-04-28T14:10:13Z</time>
      </trkpt>
      <trkpt lat="44.97059" lon="4.17322">
        <ele>1286</ele>
        <time>2021-04-28T14:10:14Z</time>
      </trkpt>
      <trkpt lat="44.97057" lon="4.17314">
        <ele>1286</ele>
        <time>2021-04-28T14:10:15Z</time>
      </trkpt>
      <trkpt lat="44.97054" lon="4.17306">
        <ele>1286</ele>
        <time>2021-04-28T14:10:16Z</time>
      </trkpt>
      <trkpt lat="44.97052" lon="4.17299">
        <ele>1286</ele>
        <time>2021-04-28T14:10:17Z</time>
      </trkpt>
      <trkpt lat="44.9705" lon="4.17291">
        <ele>1286</ele>
        <time>2021-04-28T14:10:18Z</time>
      </trkpt>
      <trkpt lat="44.97048" lon="4.17284">
        <ele>1286</ele>
        <time>2021-04-28T14:10:19Z</time>
      </trkpt>
      <trkpt lat="44.97046" lon="4.17276">
        <ele>1286</ele>
        <time>2021-04-28T14:10:20Z</time>
      </trkpt>
      <trkpt lat="44.97044" lon="4.17269">
        <ele>1286</ele>
        <time>2021-04-28T14:10:21Z</time>
      </trkpt>
      <trkpt lat="44.97042" lon="4.17262">
        <ele>1286</ele>
        <time>2021-04-28T14:10:22Z</time>
      </trkpt>
      <trkpt lat="44.9704" lon="4.17254">
        <ele>1286</ele>
        <time>2021-04-28T14:10:23Z</time>
      </trkpt>
      <trkpt lat="44.97038" lon="4.17246">
        <ele>1286</ele>
        <time>2021-04-28T14:10:24Z</time>
      </trkpt>
      <trkpt lat="44.97036" lon="4.17239">
        <ele>1286</ele>
        <time>2021-04-28T14:10:25Z</time>
      </trkpt>
      <trkpt lat="44.97034" lon="4.17231">
        <ele>1286</ele>
        <time>2021-04-28T14:10:26Z</time>
      </trkpt>
      <trkpt lat="44.97032" lon="4.17223">
        <ele>1286</ele>
        <time>2021-04-28T14:10:27Z</time>
      </trkpt>
      <trkpt lat="44.9703" lon="4.17215">
        <ele>1286</ele>
        <time>2021-04-28T14:10:28Z</time>
      </trkpt>
      <trkpt lat="44.97028" lon="4.17208">
        <ele>1286</ele>
        <time>2021-04-28T14:10:29Z</time>
      </trkpt>
      <trkpt lat="44.97026" lon="4.172">
        <ele>1286</ele>
        <time>2021-04-28T14:10:30Z</time>
      </trkpt>
      <trkpt lat="44.97024" lon="4.17192">
        <ele>1286</ele>
        <time>2021-04-28T14:10:31Z</time>
      </trkpt>
      <trkpt lat="44.97022" lon="4.17184">
        <ele>1287</ele>
        <time>2021-04-28T14:10:32Z</time>
      </trkpt>
      <trkpt lat="44.9702" lon="4.17176">
        <ele>1287</ele>
        <time>2021-04-28T14:10:33Z</time>
      </trkpt>
      <trkpt lat="44.97018" lon="4.17168">
        <ele>1287</ele>
        <time>2021-04-28T14:10:34Z</time>
      </trkpt>
      <trkpt lat="44.97016" lon="4.17161">
        <ele>1287</ele>
        <time>2021-04-28T14:10:35Z</time>
      </trkpt>
      <trkpt lat="44.97014" lon="4.17153">
        <ele>1287</ele>
        <time>2021-04-28T14:10:36Z</time>
      </trkpt>
      <trkpt lat="44.97011" lon="4.17145">
        <ele>1287</ele>
        <time>2021-04-28T14:10:37Z</time>
      </trkpt>
      <trkpt lat="44.97009" lon="4.17138">
        <ele>1287</ele>
        <time>2021-04-28T14:10:38Z</time>
      </trkpt>
      <trkpt lat="44.97007" lon="4.1713">
        <ele>1287</ele>
        <time>2021-04-28T14:10:39Z</time>
      </trkpt>
      <trkpt lat="44.97005" lon="4.17123">
        <ele>1287</ele>
        <time>2021-04-28T14:10:40Z</time>
      </trkpt>
      <trkpt lat="44.97003" lon="4.17115">
        <ele>1287</ele>
        <time>2021-04-28T14:10:41Z</time>
      </trkpt>
      <trkpt lat="44.97001" lon="4.17108">
        <ele>1287</ele>
        <time>2021-04-28T14:10:42Z</time>
      </trkpt>
      <trkpt lat="44.96999" lon="4.171">
        <ele>1287</ele>
        <time>2021-04-28T14:10:43Z</time>
      </trkpt>
      <trkpt lat="44.96997" lon="4.17092">
        <ele>1287</ele>
        <time>2021-04-28T14:10:44Z</time>
      </trkpt>
      <trkpt lat="44.96994" lon="4.17085">
        <ele>1287</ele>
        <time>2021-04-28T14:10:45Z</time>
      </trkpt>
      <trkpt lat="44.96992" lon="4.17077">
        <ele>1287</ele>
        <time>2021-04-28T14:10:46Z</time>
      </trkpt>
      <trkpt lat="44.9699" lon="4.1707">
        <ele>1287</ele>
        <time>2021-04-28T14:10:47Z</time>
      </trkpt>
      <trkpt lat="44.96988" lon="4.17063">
        <ele>1287</ele>
        <time>2021-04-28T14:10:48Z</time>
      </trkpt>
      <trkpt lat="44.96986" lon="4.17055">
        <ele>1287</ele>
        <time>2021-04-28T14:10:49Z</time>
      </trkpt>
      <trkpt lat="44.96984" lon="4.17048">
        <ele>1288</ele>
        <time>2021-04-28T14:10:50Z</time>
      </trkpt>
      <trkpt lat="44.96982" lon="4.17041">
        <ele>1288</ele>
        <time>2021-04-28T14:10:51Z</time>
      </trkpt>
      <trkpt lat="44.9698" lon="4.17034">
        <ele>1288</ele>
        <time>2021-04-28T14:10:52Z</time>
      </trkpt>
      <trkpt lat="44.96978" lon="4.17027">
        <ele>1288</ele>
        <time>2021-04-28T14:10:53Z</time>
      </trkpt>
      <trkpt lat="44.96976" lon="4.1702">
        <ele>1288</ele>
        <time>2021-04-28T14:10:54Z</time>
      </trkpt>
      <trkpt lat="44.96974" lon="4.17013">
        <ele>1288</ele>
        <time>2021-04-28T14:10:55Z</time>
      </trkpt>
      <trkpt lat="44.96972" lon="4.17006">
        <ele>1288</ele>
        <time>2021-04-28T14:10:56Z</time>
      </trkpt>
      <trkpt lat="44.96969" lon="4.16998">
        <ele>1289</ele>
        <time>2021-04-28T14:10:57Z</time>
      </trkpt>
      <trkpt lat="44.96967" lon="4.16992">
        <ele>1289</ele>
        <time>2021-04-28T14:10:58Z</time>
      </trkpt>
      <trkpt lat="44.96965" lon="4.16985">
        <ele>1289</ele>
        <time>2021-04-28T14:10:59Z</time>
      </trkpt>
      <trkpt lat="44.96962" lon="4.16977">
        <ele>1289</ele>
        <time>2021-04-28T14:11:00Z</time>
      </trkpt>
      <trkpt lat="44.9696" lon="4.1697">
        <ele>1289</ele>
        <time>2021-04-28T14:11:01Z</time>
      </trkpt>
      <trkpt lat="44.96959" lon="4.16961">
        <ele>1289</ele>
        <time>2021-04-28T14:11:02Z</time>
      </trkpt>
      <trkpt lat="44.96957" lon="4.16954">
        <ele>1289</ele>
        <time>2021-04-28T14:11:03Z</time>
      </trkpt>
      <trkpt lat="44.96955" lon="4.16946">
        <ele>1289</ele>
        <time>2021-04-28T14:11:04Z</time>
      </trkpt>
      <trkpt lat="44.96954" lon="4.16939">
        <ele>1289</ele>
        <time>2021-04-28T14:11:05Z</time>
      </trkpt>
      <trkpt lat="44.96952" lon="4.16932">
        <ele>1289</ele>
        <time>2021-04-28T14:11:06Z</time>
      </trkpt>
      <trkpt lat="44.9695" lon="4.16925">
        <ele>1289</ele>
        <time>2021-04-28T14:11:07Z</time>
      </trkpt>
      <trkpt lat="44.96948" lon="4.16918">
        <ele>1288</ele>
        <time>2021-04-28T14:11:08Z</time>
      </trkpt>
      <trkpt lat="44.96945" lon="4.16913">
        <ele>1288</ele>
        <time>2021-04-28T14:11:09Z</time>
      </trkpt>
      <trkpt lat="44.96941" lon="4.16909">
        <ele>1288</ele>
        <time>2021-04-28T14:11:10Z</time>
      </trkpt>
      <trkpt lat="44.96937" lon="4.16906">
        <ele>1288</ele>
        <time>2021-04-28T14:11:11Z</time>
      </trkpt>
      <trkpt lat="44.96932" lon="4.16903">
        <ele>1288</ele>
        <time>2021-04-28T14:11:12Z</time>
      </trkpt>
      <trkpt lat="44.96928" lon="4.16901">
        <ele>1288</ele>
        <time>2021-04-28T14:11:13Z</time>
      </trkpt>
      <trkpt lat="44.96923" lon="4.16898">
        <ele>1287</ele>
        <time>2021-04-28T14:11:14Z</time>
      </trkpt>
      <trkpt lat="44.96919" lon="4.16896">
        <ele>1287</ele>
        <time>2021-04-28T14:11:15Z</time>
      </trkpt>
      <trkpt lat="44.96914" lon="4.16894">
        <ele>1287</ele>
        <time>2021-04-28T14:11:16Z</time>
      </trkpt>
      <trkpt lat="44.96909" lon="4.16894">
        <ele>1287</ele>
        <time>2021-04-28T14:11:17Z</time>
      </trkpt>
      <trkpt lat="44.96903" lon="4.16894">
        <ele>1287</ele>
        <time>2021-04-28T14:11:18Z</time>
      </trkpt>
      <trkpt lat="44.96898" lon="4.16894">
        <ele>1287</ele>
        <time>2021-04-28T14:11:19Z</time>
      </trkpt>
      <trkpt lat="44.96893" lon="4.16894">
        <ele>1287</ele>
        <time>2021-04-28T14:11:20Z</time>
      </trkpt>
      <trkpt lat="44.96888" lon="4.16895">
        <ele>1288</ele>
        <time>2021-04-28T14:11:21Z</time>
      </trkpt>
      <trkpt lat="44.96883" lon="4.16895">
        <ele>1288</ele>
        <time>2021-04-28T14:11:22Z</time>
      </trkpt>
      <trkpt lat="44.96878" lon="4.16896">
        <ele>1288</ele>
        <time>2021-04-28T14:11:23Z</time>
      </trkpt>
      <trkpt lat="44.96872" lon="4.16898">
        <ele>1288</ele>
        <time>2021-04-28T14:11:24Z</time>
      </trkpt>
      <trkpt lat="44.96867" lon="4.16899">
        <ele>1288</ele>
        <time>2021-04-28T14:11:25Z</time>
      </trkpt>
      <trkpt lat="44.96862" lon="4.169">
        <ele>1289</ele>
        <time>2021-04-28T14:11:26Z</time>
      </trkpt>
      <trkpt lat="44.96857" lon="4.16901">
        <ele>1289</ele>
        <time>2021-04-28T14:11:27Z</time>
      </trkpt>
      <trkpt lat="44.96852" lon="4.16902">
        <ele>1289</ele>
        <time>2021-04-28T14:11:28Z</time>
      </trkpt>
      <trkpt lat="44.96847" lon="4.16904">
        <ele>1289</ele>
        <time>2021-04-28T14:11:29Z</time>
      </trkpt>
      <trkpt lat="44.96842" lon="4.16905">
        <ele>1289</ele>
        <time>2021-04-28T14:11:30Z</time>
      </trkpt>
      <trkpt lat="44.96837" lon="4.16907">
        <ele>1290</ele>
        <time>2021-04-28T14:11:31Z</time>
      </trkpt>
      <trkpt lat="44.96832" lon="4.16908">
        <ele>1290</ele>
        <time>2021-04-28T14:11:32Z</time>
      </trkpt>
      <trkpt lat="44.96828" lon="4.1691">
        <ele>1289</ele>
        <time>2021-04-28T14:11:33Z</time>
      </trkpt>
      <trkpt lat="44.96823" lon="4.16912">
        <ele>1289</ele>
        <time>2021-04-28T14:11:34Z</time>
      </trkpt>
      <trkpt lat="44.96818" lon="4.16913">
        <ele>1289</ele>
        <time>2021-04-28T14:11:35Z</time>
      </trkpt>
      <trkpt lat="44.96814" lon="4.16915">
        <ele>1289</ele>
        <time>2021-04-28T14:11:36Z</time>
      </trkpt>
      <trkpt lat="44.9681" lon="4.16916">
        <ele>1289</ele>
        <time>2021-04-28T14:11:37Z</time>
      </trkpt>
      <trkpt lat="44.96806" lon="4.16916">
        <ele>1289</ele>
        <time>2021-04-28T14:11:38Z</time>
      </trkpt>
      <trkpt lat="44.96802" lon="4.16917">
        <ele>1289</ele>
        <time>2021-04-28T14:11:39Z</time>
      </trkpt>
      <trkpt lat="44.96798" lon="4.16917">
        <ele>1288</ele>
        <time>2021-04-28T14:11:40Z</time>
      </trkpt>
      <trkpt lat="44.96795" lon="4.16917">
        <ele>1288</ele>
        <time>2021-04-28T14:11:41Z</time>
      </trkpt>
      <trkpt lat="44.96792" lon="4.16917">
        <ele>1288</ele>
        <time>2021-04-28T14:11:42Z</time>
      </trkpt>
      <trkpt lat="44.96789" lon="4.16918">
        <ele>1288</ele>
        <time>2021-04-28T14:11:43Z</time>
      </trkpt>
      <trkpt lat="44.96786" lon="4.1692">
        <ele>1288</ele>
        <time>2021-04-28T14:11:44Z</time>
      </trkpt>
      <trkpt lat="44.96783" lon="4.16925">
        <ele>1288</ele>
        <time>2021-04-28T14:11:45Z</time>
      </trkpt>
      <trkpt lat="44.96781" lon="4.1693">
        <ele>1288</ele>
        <time>2021-04-28T14:11:46Z</time>
      </trkpt>
      <trkpt lat="44.9678" lon="4.16936">
        <ele>1288</ele>
        <time>2021-04-28T14:11:47Z</time>
      </trkpt>
      <trkpt lat="44.96779" lon="4.16942">
        <ele>1288</ele>
        <time>2021-04-28T14:11:48Z</time>
      </trkpt>
      <trkpt lat="44.96778" lon="4.16949">
        <ele>1288</ele>
        <time>2021-04-28T14:11:49Z</time>
      </trkpt>
      <trkpt lat="44.96777" lon="4.16955">
        <ele>1288</ele>
        <time>2021-04-28T14:11:50Z</time>
      </trkpt>
      <trkpt lat="44.96776" lon="4.16961">
        <ele>1289</ele>
        <time>2021-04-28T14:11:51Z</time>
      </trkpt>
      <trkpt lat="44.96774" lon="4.16967">
        <ele>1289</ele>
        <time>2021-04-28T14:11:52Z</time>
      </trkpt>
      <trkpt lat="44.96773" lon="4.16974">
        <ele>1289</ele>
        <time>2021-04-28T14:11:53Z</time>
      </trkpt>
      <trkpt lat="44.96771" lon="4.1698">
        <ele>1289</ele>
        <time>2021-04-28T14:11:54Z</time>
      </trkpt>
      <trkpt lat="44.9677" lon="4.16986">
        <ele>1289</ele>
        <time>2021-04-28T14:11:55Z</time>
      </trkpt>
      <trkpt lat="44.96768" lon="4.16992">
        <ele>1289</ele>
        <time>2021-04-28T14:11:56Z</time>
      </trkpt>
      <trkpt lat="44.96767" lon="4.16999">
        <ele>1289</ele>
        <time>2021-04-28T14:11:57Z</time>
      </trkpt>
      <trkpt lat="44.96766" lon="4.17005">
        <ele>1289</ele>
        <time>2021-04-28T14:11:58Z</time>
      </trkpt>
      <trkpt lat="44.96765" lon="4.17012">
        <ele>1289</ele>
        <time>2021-04-28T14:11:59Z</time>
      </trkpt>
      <trkpt lat="44.96764" lon="4.17018">
        <ele>1290</ele>
        <time>2021-04-28T14:12:00Z</time>
      </trkpt>
      <trkpt lat="44.96763" lon="4.17024">
        <ele>1290</ele>
        <time>2021-04-28T14:12:01Z</time>
      </trkpt>
      <trkpt lat="44.96762" lon="4.17029">
        <ele>1290</ele>
        <time>2021-04-28T14:12:02Z</time>
      </trkpt>
      <trkpt lat="44.96761" lon="4.17033">
        <ele>1290</ele>
        <time>2021-04-28T14:12:03Z</time>
      </trkpt>
      <trkpt lat="44.96759" lon="4.17035">
        <ele>1290</ele>
        <time>2021-04-28T14:12:04Z</time>
      </trkpt>
      <trkpt lat="44.96761" lon="4.17038">
        <ele>1291</ele>
        <time>2021-04-28T14:12:07Z</time>
      </trkpt>
      <trkpt lat="44.96762" lon="4.17049">
        <ele>1292</ele>
        <time>2021-04-28T14:13:49Z</time>
      </trkpt>
      <trkpt lat="44.96762" lon="4.17052">
        <ele>1291</ele>
        <time>2021-04-28T14:13:51Z</time>
      </trkpt>
      <trkpt lat="44.96761" lon="4.17056">
        <ele>1291</ele>
        <time>2021-04-28T14:13:52Z</time>
      </trkpt>
      <trkpt lat="44.96761" lon="4.17061">
        <ele>1291</ele>
        <time>2021-04-28T14:13:53Z</time>
      </trkpt>
      <trkpt lat="44.9676" lon="4.17065">
        <ele>1291</ele>
        <time>2021-04-28T14:13:54Z</time>
      </trkpt>
      <trkpt lat="44.96759" lon="4.1707">
        <ele>1291</ele>
        <time>2021-04-28T14:13:55Z</time>
      </trkpt>
      <trkpt lat="44.96758" lon="4.17075">
        <ele>1291</ele>
        <time>2021-04-28T14:13:56Z</time>
      </trkpt>
      <trkpt lat="44.96758" lon="4.17081">
        <ele>1291</ele>
        <time>2021-04-28T14:13:57Z</time>
      </trkpt>
      <trkpt lat="44.96757" lon="4.17086">
        <ele>1291</ele>
        <time>2021-04-28T14:13:58Z</time>
      </trkpt>
      <trkpt lat="44.96757" lon="4.17092">
        <ele>1291</ele>
        <time>2021-04-28T14:13:59Z</time>
      </trkpt>
      <trkpt lat="44.96756" lon="4.17097">
        <ele>1291</ele>
        <time>2021-04-28T14:14:00Z</time>
      </trkpt>
      <trkpt lat="44.96755" lon="4.17103">
        <ele>1291</ele>
        <time>2021-04-28T14:14:01Z</time>
      </trkpt>
      <trkpt lat="44.96754" lon="4.17109">
        <ele>1291</ele>
        <time>2021-04-28T14:14:02Z</time>
      </trkpt>
      <trkpt lat="44.96753" lon="4.17115">
        <ele>1291</ele>
        <time>2021-04-28T14:14:03Z</time>
      </trkpt>
      <trkpt lat="44.96752" lon="4.17121">
        <ele>1291</ele>
        <time>2021-04-28T14:14:04Z</time>
      </trkpt>
      <trkpt lat="44.96751" lon="4.17126">
        <ele>1291</ele>
        <time>2021-04-28T14:14:05Z</time>
      </trkpt>
      <trkpt lat="44.96749" lon="4.17132">
        <ele>1291</ele>
        <time>2021-04-28T14:14:06Z</time>
      </trkpt>
      <trkpt lat="44.96748" lon="4.17138">
        <ele>1290</ele>
        <time>2021-04-28T14:14:07Z</time>
      </trkpt>
      <trkpt lat="44.96747" lon="4.17143">
        <ele>1290</ele>
        <time>2021-04-28T14:14:08Z</time>
      </trkpt>
      <trkpt lat="44.96747" lon="4.17149">
        <ele>1290</ele>
        <time>2021-04-28T14:14:09Z</time>
      </trkpt>
      <trkpt lat="44.96746" lon="4.17155">
        <ele>1290</ele>
        <time>2021-04-28T14:14:10Z</time>
      </trkpt>
      <trkpt lat="44.96746" lon="4.17161">
        <ele>1290</ele>
        <time>2021-04-28T14:14:11Z</time>
      </trkpt>
      <trkpt lat="44.96745" lon="4.17167">
        <ele>1290</ele>
        <time>2021-04-28T14:14:12Z</time>
      </trkpt>
      <trkpt lat="44.96744" lon="4.17173">
        <ele>1290</ele>
        <time>2021-04-28T14:14:13Z</time>
      </trkpt>
      <trkpt lat="44.96742" lon="4.17179">
        <ele>1290</ele>
        <time>2021-04-28T14:14:14Z</time>
      </trkpt>
      <trkpt lat="44.96741" lon="4.17185">
        <ele>1290</ele>
        <time>2021-04-28T14:14:15Z</time>
      </trkpt>
      <trkpt lat="44.96741" lon="4.17191">
        <ele>1290</ele>
        <time>2021-04-28T14:14:16Z</time>
      </trkpt>
      <trkpt lat="44.9674" lon="4.17198">
        <ele>1290</ele>
        <time>2021-04-28T14:14:17Z</time>
      </trkpt>
      <trkpt lat="44.96739" lon="4.17205">
        <ele>1290</ele>
        <time>2021-04-28T14:14:18Z</time>
      </trkpt>
      <trkpt lat="44.96738" lon="4.17212">
        <ele>1289</ele>
        <time>2021-04-28T14:14:19Z</time>
      </trkpt>
      <trkpt lat="44.96737" lon="4.17219">
        <ele>1289</ele>
        <time>2021-04-28T14:14:20Z</time>
      </trkpt>
      <trkpt lat="44.96735" lon="4.17227">
        <ele>1289</ele>
        <time>2021-04-28T14:14:21Z</time>
      </trkpt>
      <trkpt lat="44.96734" lon="4.17235">
        <ele>1289</ele>
        <time>2021-04-28T14:14:22Z</time>
      </trkpt>
      <trkpt lat="44.96732" lon="4.17243">
        <ele>1289</ele>
        <time>2021-04-28T14:14:23Z</time>
      </trkpt>
      <trkpt lat="44.96731" lon="4.17252">
        <ele>1289</ele>
        <time>2021-04-28T14:14:24Z</time>
      </trkpt>
      <trkpt lat="44.96729" lon="4.1726">
        <ele>1288</ele>
        <time>2021-04-28T14:14:25Z</time>
      </trkpt>
      <trkpt lat="44.96727" lon="4.1727">
        <ele>1288</ele>
        <time>2021-04-28T14:14:26Z</time>
      </trkpt>
      <trkpt lat="44.96726" lon="4.17279">
        <ele>1288</ele>
        <time>2021-04-28T14:14:27Z</time>
      </trkpt>
      <trkpt lat="44.96725" lon="4.17288">
        <ele>1287</ele>
        <time>2021-04-28T14:14:28Z</time>
      </trkpt>
      <trkpt lat="44.96722" lon="4.17298">
        <ele>1287</ele>
        <time>2021-04-28T14:14:29Z</time>
      </trkpt>
      <trkpt lat="44.96719" lon="4.17306">
        <ele>1286</ele>
        <time>2021-04-28T14:14:30Z</time>
      </trkpt>
      <trkpt lat="44.96714" lon="4.17315">
        <ele>1286</ele>
        <time>2021-04-28T14:14:31Z</time>
      </trkpt>
      <trkpt lat="44.96707" lon="4.17321">
        <ele>1285</ele>
        <time>2021-04-28T14:14:32Z</time>
      </trkpt>
      <trkpt lat="44.96702" lon="4.17327">
        <ele>1285</ele>
        <time>2021-04-28T14:14:33Z</time>
      </trkpt>
      <trkpt lat="44.96696" lon="4.17333">
        <ele>1284</ele>
        <time>2021-04-28T14:14:34Z</time>
      </trkpt>
      <trkpt lat="44.96691" lon="4.17339">
        <ele>1283</ele>
        <time>2021-04-28T14:14:35Z</time>
      </trkpt>
      <trkpt lat="44.96686" lon="4.17346">
        <ele>1283</ele>
        <time>2021-04-28T14:14:36Z</time>
      </trkpt>
      <trkpt lat="44.96681" lon="4.17353">
        <ele>1282</ele>
        <time>2021-04-28T14:14:37Z</time>
      </trkpt>
      <trkpt lat="44.96676" lon="4.1736">
        <ele>1282</ele>
        <time>2021-04-28T14:14:38Z</time>
      </trkpt>
      <trkpt lat="44.96671" lon="4.17366">
        <ele>1282</ele>
        <time>2021-04-28T14:14:39Z</time>
      </trkpt>
      <trkpt lat="44.96665" lon="4.17373">
        <ele>1281</ele>
        <time>2021-04-28T14:14:40Z</time>
      </trkpt>
      <trkpt lat="44.9666" lon="4.17379">
        <ele>1281</ele>
        <time>2021-04-28T14:14:41Z</time>
      </trkpt>
      <trkpt lat="44.96655" lon="4.17384">
        <ele>1280</ele>
        <time>2021-04-28T14:14:42Z</time>
      </trkpt>
      <trkpt lat="44.9665" lon="4.1739">
        <ele>1280</ele>
        <time>2021-04-28T14:14:43Z</time>
      </trkpt>
      <trkpt lat="44.96645" lon="4.17395">
        <ele>1280</ele>
        <time>2021-04-28T14:14:44Z</time>
      </trkpt>
      <trkpt lat="44.9664" lon="4.174">
        <ele>1279</ele>
        <time>2021-04-28T14:14:45Z</time>
      </trkpt>
      <trkpt lat="44.96635" lon="4.17405">
        <ele>1279</ele>
        <time>2021-04-28T14:14:46Z</time>
      </trkpt>
      <trkpt lat="44.9663" lon="4.1741">
        <ele>1279</ele>
        <time>2021-04-28T14:14:47Z</time>
      </trkpt>
      <trkpt lat="44.96625" lon="4.17414">
        <ele>1278</ele>
        <time>2021-04-28T14:14:48Z</time>
      </trkpt>
      <trkpt lat="44.96619" lon="4.17418">
        <ele>1278</ele>
        <time>2021-04-28T14:14:49Z</time>
      </trkpt>
      <trkpt lat="44.96613" lon="4.17422">
        <ele>1277</ele>
        <time>2021-04-28T14:14:50Z</time>
      </trkpt>
      <trkpt lat="44.96607" lon="4.17421">
        <ele>1276</ele>
        <time>2021-04-28T14:14:51Z</time>
      </trkpt>
      <trkpt lat="44.96601" lon="4.17418">
        <ele>1276</ele>
        <time>2021-04-28T14:14:52Z</time>
      </trkpt>
      <trkpt lat="44.96597" lon="4.17413">
        <ele>1275</ele>
        <time>2021-04-28T14:14:53Z</time>
      </trkpt>
      <trkpt lat="44.96592" lon="4.17408">
        <ele>1275</ele>
        <time>2021-04-28T14:14:54Z</time>
      </trkpt>
      <trkpt lat="44.96588" lon="4.17404">
        <ele>1275</ele>
        <time>2021-04-28T14:14:55Z</time>
      </trkpt>
      <trkpt lat="44.96584" lon="4.17399">
        <ele>1274</ele>
        <time>2021-04-28T14:14:56Z</time>
      </trkpt>
      <trkpt lat="44.9658" lon="4.17395">
        <ele>1274</ele>
        <time>2021-04-28T14:14:57Z</time>
      </trkpt>
      <trkpt lat="44.96576" lon="4.17391">
        <ele>1274</ele>
        <time>2021-04-28T14:14:58Z</time>
      </trkpt>
      <trkpt lat="44.96572" lon="4.17387">
        <ele>1274</ele>
        <time>2021-04-28T14:14:59Z</time>
      </trkpt>
      <trkpt lat="44.96569" lon="4.17383">
        <ele>1274</ele>
        <time>2021-04-28T14:15:00Z</time>
      </trkpt>
      <trkpt lat="44.96565" lon="4.1738">
        <ele>1274</ele>
        <time>2021-04-28T14:15:01Z</time>
      </trkpt>
      <trkpt lat="44.9656" lon="4.17378">
        <ele>1274</ele>
        <time>2021-04-28T14:15:02Z</time>
      </trkpt>
      <trkpt lat="44.96556" lon="4.17375">
        <ele>1273</ele>
        <time>2021-04-28T14:15:03Z</time>
      </trkpt>
      <trkpt lat="44.96552" lon="4.17372">
        <ele>1273</ele>
        <time>2021-04-28T14:15:04Z</time>
      </trkpt>
      <trkpt lat="44.96548" lon="4.17369">
        <ele>1273</ele>
        <time>2021-04-28T14:15:05Z</time>
      </trkpt>
      <trkpt lat="44.96544" lon="4.17366">
        <ele>1273</ele>
        <time>2021-04-28T14:15:06Z</time>
      </trkpt>
      <trkpt lat="44.9654" lon="4.17362">
        <ele>1273</ele>
        <time>2021-04-28T14:15:07Z</time>
      </trkpt>
      <trkpt lat="44.96535" lon="4.17359">
        <ele>1272</ele>
        <time>2021-04-28T14:15:08Z</time>
      </trkpt>
      <trkpt lat="44.96531" lon="4.17356">
        <ele>1272</ele>
        <time>2021-04-28T14:15:09Z</time>
      </trkpt>
      <trkpt lat="44.96527" lon="4.17354">
        <ele>1272</ele>
        <time>2021-04-28T14:15:10Z</time>
      </trkpt>
      <trkpt lat="44.96523" lon="4.17351">
        <ele>1272</ele>
        <time>2021-04-28T14:15:11Z</time>
      </trkpt>
      <trkpt lat="44.96518" lon="4.17349">
        <ele>1272</ele>
        <time>2021-04-28T14:15:12Z</time>
      </trkpt>
      <trkpt lat="44.96514" lon="4.17348">
        <ele>1271</ele>
        <time>2021-04-28T14:15:13Z</time>
      </trkpt>
      <trkpt lat="44.96509" lon="4.17346">
        <ele>1271</ele>
        <time>2021-04-28T14:15:14Z</time>
      </trkpt>
      <trkpt lat="44.96505" lon="4.17344">
        <ele>1271</ele>
        <time>2021-04-28T14:15:15Z</time>
      </trkpt>
      <trkpt lat="44.965" lon="4.17343">
        <ele>1270</ele>
        <time>2021-04-28T14:15:16Z</time>
      </trkpt>
      <trkpt lat="44.96495" lon="4.17341">
        <ele>1270</ele>
        <time>2021-04-28T14:15:17Z</time>
      </trkpt>
      <trkpt lat="44.9649" lon="4.1734">
        <ele>1270</ele>
        <time>2021-04-28T14:15:18Z</time>
      </trkpt>
      <trkpt lat="44.96486" lon="4.17337">
        <ele>1269</ele>
        <time>2021-04-28T14:15:19Z</time>
      </trkpt>
      <trkpt lat="44.96481" lon="4.17335">
        <ele>1269</ele>
        <time>2021-04-28T14:15:20Z</time>
      </trkpt>
      <trkpt lat="44.96476" lon="4.17332">
        <ele>1268</ele>
        <time>2021-04-28T14:15:21Z</time>
      </trkpt>
      <trkpt lat="44.96471" lon="4.1733">
        <ele>1268</ele>
        <time>2021-04-28T14:15:22Z</time>
      </trkpt>
      <trkpt lat="44.96466" lon="4.17327">
        <ele>1268</ele>
        <time>2021-04-28T14:15:23Z</time>
      </trkpt>
      <trkpt lat="44.96457" lon="4.17321">
        <ele>1268</ele>
        <time>2021-04-28T14:15:24Z</time>
      </trkpt>
      <trkpt lat="44.96452" lon="4.17319">
        <ele>1267</ele>
        <time>2021-04-28T14:15:26Z</time>
      </trkpt>
      <trkpt lat="44.96448" lon="4.17316">
        <ele>1267</ele>
        <time>2021-04-28T14:15:27Z</time>
      </trkpt>
      <trkpt lat="44.96443" lon="4.17313">
        <ele>1267</ele>
        <time>2021-04-28T14:15:28Z</time>
      </trkpt>
      <trkpt lat="44.96439" lon="4.1731">
        <ele>1267</ele>
        <time>2021-04-28T14:15:29Z</time>
      </trkpt>
      <trkpt lat="44.96435" lon="4.17307">
        <ele>1267</ele>
        <time>2021-04-28T14:15:30Z</time>
      </trkpt>
      <trkpt lat="44.96431" lon="4.17304">
        <ele>1266</ele>
        <time>2021-04-28T14:15:31Z</time>
      </trkpt>
      <trkpt lat="44.96427" lon="4.173">
        <ele>1266</ele>
        <time>2021-04-28T14:15:32Z</time>
      </trkpt>
      <trkpt lat="44.96423" lon="4.17297">
        <ele>1266</ele>
        <time>2021-04-28T14:15:33Z</time>
      </trkpt>
      <trkpt lat="44.96419" lon="4.17293">
        <ele>1266</ele>
        <time>2021-04-28T14:15:34Z</time>
      </trkpt>
      <trkpt lat="44.96415" lon="4.17289">
        <ele>1266</ele>
        <time>2021-04-28T14:15:35Z</time>
      </trkpt>
      <trkpt lat="44.96412" lon="4.17286">
        <ele>1266</ele>
        <time>2021-04-28T14:15:36Z</time>
      </trkpt>
      <trkpt lat="44.96408" lon="4.17282">
        <ele>1267</ele>
        <time>2021-04-28T14:15:37Z</time>
      </trkpt>
      <trkpt lat="44.96404" lon="4.17279">
        <ele>1267</ele>
        <time>2021-04-28T14:15:38Z</time>
      </trkpt>
      <trkpt lat="44.96401" lon="4.17275">
        <ele>1267</ele>
        <time>2021-04-28T14:15:39Z</time>
      </trkpt>
      <trkpt lat="44.96398" lon="4.17272">
        <ele>1267</ele>
        <time>2021-04-28T14:15:40Z</time>
      </trkpt>
      <trkpt lat="44.96394" lon="4.17268">
        <ele>1267</ele>
        <time>2021-04-28T14:15:41Z</time>
      </trkpt>
      <trkpt lat="44.96391" lon="4.17264">
        <ele>1267</ele>
        <time>2021-04-28T14:15:42Z</time>
      </trkpt>
      <trkpt lat="44.96387" lon="4.1726">
        <ele>1267</ele>
        <time>2021-04-28T14:15:43Z</time>
      </trkpt>
      <trkpt lat="44.96384" lon="4.17256">
        <ele>1267</ele>
        <time>2021-04-28T14:15:44Z</time>
      </trkpt>
      <trkpt lat="44.96381" lon="4.17252">
        <ele>1267</ele>
        <time>2021-04-28T14:15:45Z</time>
      </trkpt>
      <trkpt lat="44.96377" lon="4.17248">
        <ele>1267</ele>
        <time>2021-04-28T14:15:46Z</time>
      </trkpt>
      <trkpt lat="44.96373" lon="4.17244">
        <ele>1267</ele>
        <time>2021-04-28T14:15:47Z</time>
      </trkpt>
      <trkpt lat="44.9637" lon="4.17239">
        <ele>1267</ele>
        <time>2021-04-28T14:15:48Z</time>
      </trkpt>
      <trkpt lat="44.96367" lon="4.17235">
        <ele>1267</ele>
        <time>2021-04-28T14:15:49Z</time>
      </trkpt>
      <trkpt lat="44.96364" lon="4.17231">
        <ele>1267</ele>
        <time>2021-04-28T14:15:50Z</time>
      </trkpt>
      <trkpt lat="44.9636" lon="4.17227">
        <ele>1268</ele>
        <time>2021-04-28T14:15:51Z</time>
      </trkpt>
      <trkpt lat="44.96357" lon="4.17223">
        <ele>1268</ele>
        <time>2021-04-28T14:15:52Z</time>
      </trkpt>
      <trkpt lat="44.96354" lon="4.17218">
        <ele>1268</ele>
        <time>2021-04-28T14:15:53Z</time>
      </trkpt>
      <trkpt lat="44.9635" lon="4.17213">
        <ele>1268</ele>
        <time>2021-04-28T14:15:54Z</time>
      </trkpt>
      <trkpt lat="44.96347" lon="4.17209">
        <ele>1269</ele>
        <time>2021-04-28T14:15:55Z</time>
      </trkpt>
      <trkpt lat="44.96344" lon="4.17205">
        <ele>1269</ele>
        <time>2021-04-28T14:15:56Z</time>
      </trkpt>
      <trkpt lat="44.96341" lon="4.172">
        <ele>1269</ele>
        <time>2021-04-28T14:15:57Z</time>
      </trkpt>
      <trkpt lat="44.96337" lon="4.17196">
        <ele>1269</ele>
        <time>2021-04-28T14:15:58Z</time>
      </trkpt>
      <trkpt lat="44.96334" lon="4.17192">
        <ele>1270</ele>
        <time>2021-04-28T14:15:59Z</time>
      </trkpt>
      <trkpt lat="44.96331" lon="4.17189">
        <ele>1270</ele>
        <time>2021-04-28T14:16:00Z</time>
      </trkpt>
      <trkpt lat="44.96328" lon="4.17185">
        <ele>1270</ele>
        <time>2021-04-28T14:16:01Z</time>
      </trkpt>
      <trkpt lat="44.96324" lon="4.1718">
        <ele>1270</ele>
        <time>2021-04-28T14:16:02Z</time>
      </trkpt>
      <trkpt lat="44.96321" lon="4.17176">
        <ele>1270</ele>
        <time>2021-04-28T14:16:03Z</time>
      </trkpt>
      <trkpt lat="44.96318" lon="4.17172">
        <ele>1271</ele>
        <time>2021-04-28T14:16:04Z</time>
      </trkpt>
      <trkpt lat="44.96315" lon="4.17169">
        <ele>1271</ele>
        <time>2021-04-28T14:16:05Z</time>
      </trkpt>
      <trkpt lat="44.96312" lon="4.17165">
        <ele>1271</ele>
        <time>2021-04-28T14:16:06Z</time>
      </trkpt>
      <trkpt lat="44.96309" lon="4.1716">
        <ele>1271</ele>
        <time>2021-04-28T14:16:07Z</time>
      </trkpt>
      <trkpt lat="44.96306" lon="4.17156">
        <ele>1271</ele>
        <time>2021-04-28T14:16:08Z</time>
      </trkpt>
      <trkpt lat="44.96303" lon="4.17152">
        <ele>1271</ele>
        <time>2021-04-28T14:16:09Z</time>
      </trkpt>
      <trkpt lat="44.96299" lon="4.17148">
        <ele>1272</ele>
        <time>2021-04-28T14:16:10Z</time>
      </trkpt>
      <trkpt lat="44.96296" lon="4.17144">
        <ele>1272</ele>
        <time>2021-04-28T14:16:11Z</time>
      </trkpt>
      <trkpt lat="44.96293" lon="4.1714">
        <ele>1272</ele>
        <time>2021-04-28T14:16:12Z</time>
      </trkpt>
      <trkpt lat="44.96289" lon="4.17136">
        <ele>1272</ele>
        <time>2021-04-28T14:16:13Z</time>
      </trkpt>
      <trkpt lat="44.96286" lon="4.17132">
        <ele>1272</ele>
        <time>2021-04-28T14:16:14Z</time>
      </trkpt>
      <trkpt lat="44.96283" lon="4.17129">
        <ele>1272</ele>
        <time>2021-04-28T14:16:15Z</time>
      </trkpt>
      <trkpt lat="44.96279" lon="4.17125">
        <ele>1272</ele>
        <time>2021-04-28T14:16:16Z</time>
      </trkpt>
      <trkpt lat="44.96276" lon="4.17121">
        <ele>1272</ele>
        <time>2021-04-28T14:16:17Z</time>
      </trkpt>
      <trkpt lat="44.96272" lon="4.17117">
        <ele>1272</ele>
        <time>2021-04-28T14:16:18Z</time>
      </trkpt>
      <trkpt lat="44.96269" lon="4.17114">
        <ele>1273</ele>
        <time>2021-04-28T14:16:19Z</time>
      </trkpt>
      <trkpt lat="44.96265" lon="4.1711">
        <ele>1273</ele>
        <time>2021-04-28T14:16:20Z</time>
      </trkpt>
      <trkpt lat="44.96261" lon="4.17106">
        <ele>1273</ele>
        <time>2021-04-28T14:16:21Z</time>
      </trkpt>
      <trkpt lat="44.96257" lon="4.17103">
        <ele>1273</ele>
        <time>2021-04-28T14:16:22Z</time>
      </trkpt>
      <trkpt lat="44.96254" lon="4.17099">
        <ele>1273</ele>
        <time>2021-04-28T14:16:23Z</time>
      </trkpt>
      <trkpt lat="44.9625" lon="4.17096">
        <ele>1273</ele>
        <time>2021-04-28T14:16:24Z</time>
      </trkpt>
      <trkpt lat="44.96246" lon="4.17092">
        <ele>1273</ele>
        <time>2021-04-28T14:16:25Z</time>
      </trkpt>
      <trkpt lat="44.96243" lon="4.17088">
        <ele>1273</ele>
        <time>2021-04-28T14:16:26Z</time>
      </trkpt>
      <trkpt lat="44.96239" lon="4.17084">
        <ele>1274</ele>
        <time>2021-04-28T14:16:27Z</time>
      </trkpt>
      <trkpt lat="44.96236" lon="4.1708">
        <ele>1274</ele>
        <time>2021-04-28T14:16:28Z</time>
      </trkpt>
      <trkpt lat="44.96232" lon="4.17076">
        <ele>1274</ele>
        <time>2021-04-28T14:16:29Z</time>
      </trkpt>
      <trkpt lat="44.96228" lon="4.17072">
        <ele>1274</ele>
        <time>2021-04-28T14:16:30Z</time>
      </trkpt>
      <trkpt lat="44.96225" lon="4.17069">
        <ele>1274</ele>
        <time>2021-04-28T14:16:31Z</time>
      </trkpt>
      <trkpt lat="44.96221" lon="4.17065">
        <ele>1274</ele>
        <time>2021-04-28T14:16:32Z</time>
      </trkpt>
      <trkpt lat="44.96217" lon="4.17061">
        <ele>1274</ele>
        <time>2021-04-28T14:16:33Z</time>
      </trkpt>
      <trkpt lat="44.96213" lon="4.17057">
        <ele>1274</ele>
        <time>2021-04-28T14:16:34Z</time>
      </trkpt>
      <trkpt lat="44.96209" lon="4.17054">
        <ele>1274</ele>
        <time>2021-04-28T14:16:35Z</time>
      </trkpt>
      <trkpt lat="44.96205" lon="4.1705">
        <ele>1274</ele>
        <time>2021-04-28T14:16:36Z</time>
      </trkpt>
      <trkpt lat="44.96201" lon="4.17047">
        <ele>1274</ele>
        <time>2021-04-28T14:16:37Z</time>
      </trkpt>
      <trkpt lat="44.96197" lon="4.17043">
        <ele>1274</ele>
        <time>2021-04-28T14:16:38Z</time>
      </trkpt>
      <trkpt lat="44.96193" lon="4.17038">
        <ele>1274</ele>
        <time>2021-04-28T14:16:39Z</time>
      </trkpt>
      <trkpt lat="44.9619" lon="4.17034">
        <ele>1274</ele>
        <time>2021-04-28T14:16:40Z</time>
      </trkpt>
      <trkpt lat="44.96186" lon="4.17029">
        <ele>1275</ele>
        <time>2021-04-28T14:16:41Z</time>
      </trkpt>
      <trkpt lat="44.96183" lon="4.17024">
        <ele>1275</ele>
        <time>2021-04-28T14:16:42Z</time>
      </trkpt>
      <trkpt lat="44.9618" lon="4.17019">
        <ele>1275</ele>
        <time>2021-04-28T14:16:43Z</time>
      </trkpt>
      <trkpt lat="44.96177" lon="4.17015">
        <ele>1275</ele>
        <time>2021-04-28T14:16:44Z</time>
      </trkpt>
      <trkpt lat="44.96173" lon="4.17009">
        <ele>1275</ele>
        <time>2021-04-28T14:16:45Z</time>
      </trkpt>
      <trkpt lat="44.96171" lon="4.17004">
        <ele>1275</ele>
        <time>2021-04-28T14:16:46Z</time>
      </trkpt>
      <trkpt lat="44.96168" lon="4.16999">
        <ele>1275</ele>
        <time>2021-04-28T14:16:47Z</time>
      </trkpt>
      <trkpt lat="44.96165" lon="4.16993">
        <ele>1275</ele>
        <time>2021-04-28T14:16:48Z</time>
      </trkpt>
      <trkpt lat="44.96163" lon="4.16987">
        <ele>1275</ele>
        <time>2021-04-28T14:16:49Z</time>
      </trkpt>
      <trkpt lat="44.96161" lon="4.1698">
        <ele>1276</ele>
        <time>2021-04-28T14:16:50Z</time>
      </trkpt>
      <trkpt lat="44.9616" lon="4.16974">
        <ele>1276</ele>
        <time>2021-04-28T14:16:51Z</time>
      </trkpt>
      <trkpt lat="44.96158" lon="4.16967">
        <ele>1276</ele>
        <time>2021-04-28T14:16:52Z</time>
      </trkpt>
      <trkpt lat="44.96156" lon="4.16961">
        <ele>1276</ele>
        <time>2021-04-28T14:16:53Z</time>
      </trkpt>
      <trkpt lat="44.96154" lon="4.16955">
        <ele>1276</ele>
        <time>2021-04-28T14:16:54Z</time>
      </trkpt>
      <trkpt lat="44.96151" lon="4.16949">
        <ele>1276</ele>
        <time>2021-04-28T14:16:55Z</time>
      </trkpt>
      <trkpt lat="44.96148" lon="4.16944">
        <ele>1276</ele>
        <time>2021-04-28T14:16:56Z</time>
      </trkpt>
      <trkpt lat="44.96144" lon="4.16939">
        <ele>1276</ele>
        <time>2021-04-28T14:16:57Z</time>
      </trkpt>
      <trkpt lat="44.96141" lon="4.16934">
        <ele>1277</ele>
        <time>2021-04-28T14:16:58Z</time>
      </trkpt>
      <trkpt lat="44.96137" lon="4.16929">
        <ele>1277</ele>
        <time>2021-04-28T14:16:59Z</time>
      </trkpt>
      <trkpt lat="44.96134" lon="4.16925">
        <ele>1277</ele>
        <time>2021-04-28T14:17:00Z</time>
      </trkpt>
      <trkpt lat="44.9613" lon="4.1692">
        <ele>1277</ele>
        <time>2021-04-28T14:17:01Z</time>
      </trkpt>
      <trkpt lat="44.96127" lon="4.16916">
        <ele>1278</ele>
        <time>2021-04-28T14:17:02Z</time>
      </trkpt>
      <trkpt lat="44.96124" lon="4.16911">
        <ele>1278</ele>
        <time>2021-04-28T14:17:03Z</time>
      </trkpt>
      <trkpt lat="44.96121" lon="4.16907">
        <ele>1278</ele>
        <time>2021-04-28T14:17:04Z</time>
      </trkpt>
      <trkpt lat="44.96118" lon="4.16903">
        <ele>1278</ele>
        <time>2021-04-28T14:17:05Z</time>
      </trkpt>
      <trkpt lat="44.96114" lon="4.16899">
        <ele>1279</ele>
        <time>2021-04-28T14:17:06Z</time>
      </trkpt>
      <trkpt lat="44.96111" lon="4.16895">
        <ele>1279</ele>
        <time>2021-04-28T14:17:07Z</time>
      </trkpt>
      <trkpt lat="44.96108" lon="4.16891">
        <ele>1279</ele>
        <time>2021-04-28T14:17:08Z</time>
      </trkpt>
      <trkpt lat="44.96105" lon="4.16888">
        <ele>1279</ele>
        <time>2021-04-28T14:17:09Z</time>
      </trkpt>
      <trkpt lat="44.96102" lon="4.16884">
        <ele>1279</ele>
        <time>2021-04-28T14:17:10Z</time>
      </trkpt>
      <trkpt lat="44.96099" lon="4.16879">
        <ele>1280</ele>
        <time>2021-04-28T14:17:11Z</time>
      </trkpt>
      <trkpt lat="44.96096" lon="4.16875">
        <ele>1280</ele>
        <time>2021-04-28T14:17:12Z</time>
      </trkpt>
      <trkpt lat="44.96093" lon="4.16871">
        <ele>1280</ele>
        <time>2021-04-28T14:17:13Z</time>
      </trkpt>
      <trkpt lat="44.9609" lon="4.16867">
        <ele>1280</ele>
        <time>2021-04-28T14:17:14Z</time>
      </trkpt>
      <trkpt lat="44.96087" lon="4.16864">
        <ele>1280</ele>
        <time>2021-04-28T14:17:15Z</time>
      </trkpt>
      <trkpt lat="44.96083" lon="4.16861">
        <ele>1281</ele>
        <time>2021-04-28T14:17:16Z</time>
      </trkpt>
      <trkpt lat="44.9608" lon="4.16858">
        <ele>1281</ele>
        <time>2021-04-28T14:17:17Z</time>
      </trkpt>
      <trkpt lat="44.96073" lon="4.16852">
        <ele>1281</ele>
        <time>2021-04-28T14:17:18Z</time>
      </trkpt>
      <trkpt lat="44.96069" lon="4.1685">
        <ele>1281</ele>
        <time>2021-04-28T14:17:20Z</time>
      </trkpt>
      <trkpt lat="44.96066" lon="4.16847">
        <ele>1281</ele>
        <time>2021-04-28T14:17:21Z</time>
      </trkpt>
      <trkpt lat="44.96062" lon="4.16844">
        <ele>1281</ele>
        <time>2021-04-28T14:17:22Z</time>
      </trkpt>
      <trkpt lat="44.96059" lon="4.16841">
        <ele>1281</ele>
        <time>2021-04-28T14:17:23Z</time>
      </trkpt>
      <trkpt lat="44.96055" lon="4.16838">
        <ele>1282</ele>
        <time>2021-04-28T14:17:24Z</time>
      </trkpt>
      <trkpt lat="44.96052" lon="4.16835">
        <ele>1282</ele>
        <time>2021-04-28T14:17:25Z</time>
      </trkpt>
      <trkpt lat="44.96048" lon="4.16833">
        <ele>1282</ele>
        <time>2021-04-28T14:17:26Z</time>
      </trkpt>
      <trkpt lat="44.96044" lon="4.16831">
        <ele>1282</ele>
        <time>2021-04-28T14:17:27Z</time>
      </trkpt>
      <trkpt lat="44.9604" lon="4.16829">
        <ele>1282</ele>
        <time>2021-04-28T14:17:28Z</time>
      </trkpt>
      <trkpt lat="44.96037" lon="4.16827">
        <ele>1282</ele>
        <time>2021-04-28T14:17:29Z</time>
      </trkpt>
      <trkpt lat="44.96033" lon="4.16825">
        <ele>1283</ele>
        <time>2021-04-28T14:17:30Z</time>
      </trkpt>
      <trkpt lat="44.96029" lon="4.16824">
        <ele>1283</ele>
        <time>2021-04-28T14:17:31Z</time>
      </trkpt>
      <trkpt lat="44.96025" lon="4.16822">
        <ele>1283</ele>
        <time>2021-04-28T14:17:32Z</time>
      </trkpt>
      <trkpt lat="44.96021" lon="4.1682">
        <ele>1283</ele>
        <time>2021-04-28T14:17:33Z</time>
      </trkpt>
      <trkpt lat="44.96018" lon="4.16817">
        <ele>1283</ele>
        <time>2021-04-28T14:17:34Z</time>
      </trkpt>
      <trkpt lat="44.96014" lon="4.16814">
        <ele>1283</ele>
        <time>2021-04-28T14:17:35Z</time>
      </trkpt>
      <trkpt lat="44.96011" lon="4.16811">
        <ele>1283</ele>
        <time>2021-04-28T14:17:36Z</time>
      </trkpt>
      <trkpt lat="44.96007" lon="4.16809">
        <ele>1284</ele>
        <time>2021-04-28T14:17:37Z</time>
      </trkpt>
      <trkpt lat="44.96004" lon="4.16807">
        <ele>1284</ele>
        <time>2021-04-28T14:17:38Z</time>
      </trkpt>
      <trkpt lat="44.96" lon="4.16805">
        <ele>1284</ele>
        <time>2021-04-28T14:17:39Z</time>
      </trkpt>
      <trkpt lat="44.95995" lon="4.16803">
        <ele>1284</ele>
        <time>2021-04-28T14:17:40Z</time>
      </trkpt>
      <trkpt lat="44.95991" lon="4.16801">
        <ele>1284</ele>
        <time>2021-04-28T14:17:41Z</time>
      </trkpt>
      <trkpt lat="44.95987" lon="4.16799">
        <ele>1284</ele>
        <time>2021-04-28T14:17:42Z</time>
      </trkpt>
      <trkpt lat="44.95983" lon="4.16797">
        <ele>1284</ele>
        <time>2021-04-28T14:17:43Z</time>
      </trkpt>
      <trkpt lat="44.95979" lon="4.16795">
        <ele>1284</ele>
        <time>2021-04-28T14:17:44Z</time>
      </trkpt>
      <trkpt lat="44.95974" lon="4.16793">
        <ele>1284</ele>
        <time>2021-04-28T14:17:45Z</time>
      </trkpt>
      <trkpt lat="44.9597" lon="4.1679">
        <ele>1284</ele>
        <time>2021-04-28T14:17:46Z</time>
      </trkpt>
      <trkpt lat="44.95965" lon="4.16788">
        <ele>1284</ele>
        <time>2021-04-28T14:17:47Z</time>
      </trkpt>
      <trkpt lat="44.95961" lon="4.16785">
        <ele>1284</ele>
        <time>2021-04-28T14:17:48Z</time>
      </trkpt>
      <trkpt lat="44.95956" lon="4.16782">
        <ele>1284</ele>
        <time>2021-04-28T14:17:49Z</time>
      </trkpt>
      <trkpt lat="44.95951" lon="4.1678">
        <ele>1284</ele>
        <time>2021-04-28T14:17:50Z</time>
      </trkpt>
      <trkpt lat="44.95946" lon="4.16778">
        <ele>1284</ele>
        <time>2021-04-28T14:17:51Z</time>
      </trkpt>
      <trkpt lat="44.95941" lon="4.16776">
        <ele>1284</ele>
        <time>2021-04-28T14:17:52Z</time>
      </trkpt>
      <trkpt lat="44.95936" lon="4.16773">
        <ele>1284</ele>
        <time>2021-04-28T14:17:53Z</time>
      </trkpt>
      <trkpt lat="44.95931" lon="4.1677">
        <ele>1283</ele>
        <time>2021-04-28T14:17:54Z</time>
      </trkpt>
      <trkpt lat="44.95926" lon="4.16767">
        <ele>1283</ele>
        <time>2021-04-28T14:17:55Z</time>
      </trkpt>
      <trkpt lat="44.95922" lon="4.16764">
        <ele>1284</ele>
        <time>2021-04-28T14:17:56Z</time>
      </trkpt>
      <trkpt lat="44.95917" lon="4.16762">
        <ele>1284</ele>
        <time>2021-04-28T14:17:57Z</time>
      </trkpt>
      <trkpt lat="44.95913" lon="4.1676">
        <ele>1284</ele>
        <time>2021-04-28T14:17:58Z</time>
      </trkpt>
      <trkpt lat="44.95909" lon="4.16757">
        <ele>1284</ele>
        <time>2021-04-28T14:17:59Z</time>
      </trkpt>
      <trkpt lat="44.95905" lon="4.16755">
        <ele>1284</ele>
        <time>2021-04-28T14:18:00Z</time>
      </trkpt>
      <trkpt lat="44.95901" lon="4.16753">
        <ele>1283</ele>
        <time>2021-04-28T14:18:01Z</time>
      </trkpt>
      <trkpt lat="44.95897" lon="4.1675">
        <ele>1283</ele>
        <time>2021-04-28T14:18:02Z</time>
      </trkpt>
      <trkpt lat="44.95892" lon="4.16748">
        <ele>1283</ele>
        <time>2021-04-28T14:18:03Z</time>
      </trkpt>
      <trkpt lat="44.95887" lon="4.16746">
        <ele>1283</ele>
        <time>2021-04-28T14:18:04Z</time>
      </trkpt>
      <trkpt lat="44.95883" lon="4.16745">
        <ele>1283</ele>
        <time>2021-04-28T14:18:05Z</time>
      </trkpt>
      <trkpt lat="44.95878" lon="4.16744">
        <ele>1283</ele>
        <time>2021-04-28T14:18:06Z</time>
      </trkpt>
      <trkpt lat="44.95872" lon="4.16743">
        <ele>1283</ele>
        <time>2021-04-28T14:18:07Z</time>
      </trkpt>
      <trkpt lat="44.95867" lon="4.16742">
        <ele>1283</ele>
        <time>2021-04-28T14:18:08Z</time>
      </trkpt>
      <trkpt lat="44.95861" lon="4.16741">
        <ele>1283</ele>
        <time>2021-04-28T14:18:09Z</time>
      </trkpt>
      <trkpt lat="44.95856" lon="4.1674">
        <ele>1283</ele>
        <time>2021-04-28T14:18:10Z</time>
      </trkpt>
      <trkpt lat="44.9585" lon="4.16739">
        <ele>1283</ele>
        <time>2021-04-28T14:18:11Z</time>
      </trkpt>
      <trkpt lat="44.95844" lon="4.16737">
        <ele>1283</ele>
        <time>2021-04-28T14:18:12Z</time>
      </trkpt>
      <trkpt lat="44.95838" lon="4.16736">
        <ele>1283</ele>
        <time>2021-04-28T14:18:13Z</time>
      </trkpt>
      <trkpt lat="44.95832" lon="4.16734">
        <ele>1282</ele>
        <time>2021-04-28T14:18:14Z</time>
      </trkpt>
      <trkpt lat="44.95827" lon="4.16732">
        <ele>1282</ele>
        <time>2021-04-28T14:18:15Z</time>
      </trkpt>
      <trkpt lat="44.95821" lon="4.1673">
        <ele>1282</ele>
        <time>2021-04-28T14:18:16Z</time>
      </trkpt>
      <trkpt lat="44.95815" lon="4.16728">
        <ele>1282</ele>
        <time>2021-04-28T14:18:17Z</time>
      </trkpt>
      <trkpt lat="44.95809" lon="4.16726">
        <ele>1282</ele>
        <time>2021-04-28T14:18:18Z</time>
      </trkpt>
      <trkpt lat="44.95804" lon="4.16724">
        <ele>1282</ele>
        <time>2021-04-28T14:18:19Z</time>
      </trkpt>
      <trkpt lat="44.95798" lon="4.16723">
        <ele>1281</ele>
        <time>2021-04-28T14:18:20Z</time>
      </trkpt>
      <trkpt lat="44.95793" lon="4.16721">
        <ele>1281</ele>
        <time>2021-04-28T14:18:21Z</time>
      </trkpt>
      <trkpt lat="44.95787" lon="4.16719">
        <ele>1281</ele>
        <time>2021-04-28T14:18:22Z</time>
      </trkpt>
      <trkpt lat="44.95781" lon="4.16718">
        <ele>1281</ele>
        <time>2021-04-28T14:18:23Z</time>
      </trkpt>
      <trkpt lat="44.95776" lon="4.16716">
        <ele>1281</ele>
        <time>2021-04-28T14:18:24Z</time>
      </trkpt>
      <trkpt lat="44.9577" lon="4.16715">
        <ele>1281</ele>
        <time>2021-04-28T14:18:25Z</time>
      </trkpt>
      <trkpt lat="44.95765" lon="4.16714">
        <ele>1281</ele>
        <time>2021-04-28T14:18:26Z</time>
      </trkpt>
      <trkpt lat="44.95759" lon="4.16713">
        <ele>1281</ele>
        <time>2021-04-28T14:18:27Z</time>
      </trkpt>
      <trkpt lat="44.95753" lon="4.16711">
        <ele>1280</ele>
        <time>2021-04-28T14:18:28Z</time>
      </trkpt>
      <trkpt lat="44.95748" lon="4.16709">
        <ele>1280</ele>
        <time>2021-04-28T14:18:29Z</time>
      </trkpt>
      <trkpt lat="44.95742" lon="4.16707">
        <ele>1280</ele>
        <time>2021-04-28T14:18:30Z</time>
      </trkpt>
      <trkpt lat="44.95736" lon="4.16705">
        <ele>1280</ele>
        <time>2021-04-28T14:18:31Z</time>
      </trkpt>
      <trkpt lat="44.9573" lon="4.16703">
        <ele>1280</ele>
        <time>2021-04-28T14:18:32Z</time>
      </trkpt>
      <trkpt lat="44.95724" lon="4.167">
        <ele>1280</ele>
        <time>2021-04-28T14:18:33Z</time>
      </trkpt>
      <trkpt lat="44.95712" lon="4.16696">
        <ele>1279</ele>
        <time>2021-04-28T14:18:34Z</time>
      </trkpt>
      <trkpt lat="44.95706" lon="4.16694">
        <ele>1279</ele>
        <time>2021-04-28T14:18:36Z</time>
      </trkpt>
      <trkpt lat="44.957" lon="4.16693">
        <ele>1279</ele>
        <time>2021-04-28T14:18:37Z</time>
      </trkpt>
      <trkpt lat="44.95694" lon="4.16691">
        <ele>1279</ele>
        <time>2021-04-28T14:18:38Z</time>
      </trkpt>
      <trkpt lat="44.95688" lon="4.16689">
        <ele>1279</ele>
        <time>2021-04-28T14:18:39Z</time>
      </trkpt>
      <trkpt lat="44.95682" lon="4.16688">
        <ele>1279</ele>
        <time>2021-04-28T14:18:40Z</time>
      </trkpt>
      <trkpt lat="44.95677" lon="4.16687">
        <ele>1278</ele>
        <time>2021-04-28T14:18:41Z</time>
      </trkpt>
      <trkpt lat="44.95671" lon="4.16685">
        <ele>1278</ele>
        <time>2021-04-28T14:18:42Z</time>
      </trkpt>
      <trkpt lat="44.95665" lon="4.16684">
        <ele>1278</ele>
        <time>2021-04-28T14:18:43Z</time>
      </trkpt>
      <trkpt lat="44.9566" lon="4.16683">
        <ele>1278</ele>
        <time>2021-04-28T14:18:44Z</time>
      </trkpt>
      <trkpt lat="44.95654" lon="4.16682">
        <ele>1278</ele>
        <time>2021-04-28T14:18:45Z</time>
      </trkpt>
      <trkpt lat="44.95649" lon="4.16683">
        <ele>1278</ele>
        <time>2021-04-28T14:18:46Z</time>
      </trkpt>
      <trkpt lat="44.95644" lon="4.16684">
        <ele>1278</ele>
        <time>2021-04-28T14:18:47Z</time>
      </trkpt>
      <trkpt lat="44.95639" lon="4.16686">
        <ele>1278</ele>
        <time>2021-04-28T14:18:48Z</time>
      </trkpt>
      <trkpt lat="44.95634" lon="4.16687">
        <ele>1278</ele>
        <time>2021-04-28T14:18:49Z</time>
      </trkpt>
      <trkpt lat="44.95629" lon="4.16687">
        <ele>1278</ele>
        <time>2021-04-28T14:18:50Z</time>
      </trkpt>
      <trkpt lat="44.95623" lon="4.16686">
        <ele>1278</ele>
        <time>2021-04-28T14:18:51Z</time>
      </trkpt>
      <trkpt lat="44.95618" lon="4.16683">
        <ele>1278</ele>
        <time>2021-04-28T14:18:52Z</time>
      </trkpt>
      <trkpt lat="44.95613" lon="4.1668">
        <ele>1278</ele>
        <time>2021-04-28T14:18:53Z</time>
      </trkpt>
      <trkpt lat="44.95608" lon="4.16676">
        <ele>1278</ele>
        <time>2021-04-28T14:18:54Z</time>
      </trkpt>
      <trkpt lat="44.95603" lon="4.16673">
        <ele>1278</ele>
        <time>2021-04-28T14:18:55Z</time>
      </trkpt>
      <trkpt lat="44.95598" lon="4.1667">
        <ele>1278</ele>
        <time>2021-04-28T14:18:56Z</time>
      </trkpt>
      <trkpt lat="44.95593" lon="4.16668">
        <ele>1278</ele>
        <time>2021-04-28T14:18:57Z</time>
      </trkpt>
      <trkpt lat="44.95587" lon="4.16666">
        <ele>1278</ele>
        <time>2021-04-28T14:18:58Z</time>
      </trkpt>
      <trkpt lat="44.95582" lon="4.16665">
        <ele>1278</ele>
        <time>2021-04-28T14:18:59Z</time>
      </trkpt>
      <trkpt lat="44.95577" lon="4.16663">
        <ele>1279</ele>
        <time>2021-04-28T14:19:00Z</time>
      </trkpt>
      <trkpt lat="44.95572" lon="4.16661">
        <ele>1279</ele>
        <time>2021-04-28T14:19:01Z</time>
      </trkpt>
      <trkpt lat="44.95566" lon="4.16659">
        <ele>1279</ele>
        <time>2021-04-28T14:19:02Z</time>
      </trkpt>
      <trkpt lat="44.95561" lon="4.16658">
        <ele>1279</ele>
        <time>2021-04-28T14:19:03Z</time>
      </trkpt>
      <trkpt lat="44.95556" lon="4.16656">
        <ele>1279</ele>
        <time>2021-04-28T14:19:04Z</time>
      </trkpt>
      <trkpt lat="44.95551" lon="4.16655">
        <ele>1279</ele>
        <time>2021-04-28T14:19:05Z</time>
      </trkpt>
      <trkpt lat="44.95547" lon="4.16653">
        <ele>1279</ele>
        <time>2021-04-28T14:19:06Z</time>
      </trkpt>
      <trkpt lat="44.95542" lon="4.16651">
        <ele>1279</ele>
        <time>2021-04-28T14:19:07Z</time>
      </trkpt>
      <trkpt lat="44.95536" lon="4.16649">
        <ele>1279</ele>
        <time>2021-04-28T14:19:08Z</time>
      </trkpt>
      <trkpt lat="44.95531" lon="4.16648">
        <ele>1280</ele>
        <time>2021-04-28T14:19:09Z</time>
      </trkpt>
      <trkpt lat="44.95526" lon="4.16647">
        <ele>1280</ele>
        <time>2021-04-28T14:19:10Z</time>
      </trkpt>
      <trkpt lat="44.95521" lon="4.16645">
        <ele>1280</ele>
        <time>2021-04-28T14:19:11Z</time>
      </trkpt>
      <trkpt lat="44.95516" lon="4.16643">
        <ele>1280</ele>
        <time>2021-04-28T14:19:12Z</time>
      </trkpt>
      <trkpt lat="44.95511" lon="4.16641">
        <ele>1280</ele>
        <time>2021-04-28T14:19:13Z</time>
      </trkpt>
      <trkpt lat="44.95506" lon="4.1664">
        <ele>1280</ele>
        <time>2021-04-28T14:19:14Z</time>
      </trkpt>
      <trkpt lat="44.95501" lon="4.16638">
        <ele>1280</ele>
        <time>2021-04-28T14:19:15Z</time>
      </trkpt>
      <trkpt lat="44.95496" lon="4.16636">
        <ele>1280</ele>
        <time>2021-04-28T14:19:16Z</time>
      </trkpt>
      <trkpt lat="44.95491" lon="4.16635">
        <ele>1280</ele>
        <time>2021-04-28T14:19:17Z</time>
      </trkpt>
      <trkpt lat="44.95487" lon="4.16633">
        <ele>1280</ele>
        <time>2021-04-28T14:19:18Z</time>
      </trkpt>
      <trkpt lat="44.95482" lon="4.16631">
        <ele>1280</ele>
        <time>2021-04-28T14:19:19Z</time>
      </trkpt>
      <trkpt lat="44.95477" lon="4.16629">
        <ele>1280</ele>
        <time>2021-04-28T14:19:20Z</time>
      </trkpt>
      <trkpt lat="44.95472" lon="4.16627">
        <ele>1280</ele>
        <time>2021-04-28T14:19:21Z</time>
      </trkpt>
      <trkpt lat="44.95467" lon="4.16625">
        <ele>1281</ele>
        <time>2021-04-28T14:19:22Z</time>
      </trkpt>
      <trkpt lat="44.95463" lon="4.16622">
        <ele>1281</ele>
        <time>2021-04-28T14:19:23Z</time>
      </trkpt>
      <trkpt lat="44.95458" lon="4.16618">
        <ele>1281</ele>
        <time>2021-04-28T14:19:24Z</time>
      </trkpt>
      <trkpt lat="44.95454" lon="4.16613">
        <ele>1281</ele>
        <time>2021-04-28T14:19:25Z</time>
      </trkpt>
      <trkpt lat="44.9545" lon="4.16608">
        <ele>1281</ele>
        <time>2021-04-28T14:19:26Z</time>
      </trkpt>
      <trkpt lat="44.95446" lon="4.16603">
        <ele>1281</ele>
        <time>2021-04-28T14:19:27Z</time>
      </trkpt>
      <trkpt lat="44.95442" lon="4.16598">
        <ele>1281</ele>
        <time>2021-04-28T14:19:28Z</time>
      </trkpt>
      <trkpt lat="44.95438" lon="4.16592">
        <ele>1281</ele>
        <time>2021-04-28T14:19:29Z</time>
      </trkpt>
      <trkpt lat="44.95434" lon="4.16587">
        <ele>1281</ele>
        <time>2021-04-28T14:19:30Z</time>
      </trkpt>
      <trkpt lat="44.95431" lon="4.16582">
        <ele>1281</ele>
        <time>2021-04-28T14:19:31Z</time>
      </trkpt>
      <trkpt lat="44.95427" lon="4.16576">
        <ele>1281</ele>
        <time>2021-04-28T14:19:32Z</time>
      </trkpt>
      <trkpt lat="44.95423" lon="4.1657">
        <ele>1281</ele>
        <time>2021-04-28T14:19:33Z</time>
      </trkpt>
      <trkpt lat="44.9542" lon="4.16565">
        <ele>1281</ele>
        <time>2021-04-28T14:19:34Z</time>
      </trkpt>
      <trkpt lat="44.95416" lon="4.16559">
        <ele>1281</ele>
        <time>2021-04-28T14:19:35Z</time>
      </trkpt>
      <trkpt lat="44.95412" lon="4.16554">
        <ele>1281</ele>
        <time>2021-04-28T14:19:36Z</time>
      </trkpt>
      <trkpt lat="44.95408" lon="4.16548">
        <ele>1281</ele>
        <time>2021-04-28T14:19:37Z</time>
      </trkpt>
      <trkpt lat="44.95404" lon="4.16542">
        <ele>1281</ele>
        <time>2021-04-28T14:19:38Z</time>
      </trkpt>
      <trkpt lat="44.95401" lon="4.16536">
        <ele>1281</ele>
        <time>2021-04-28T14:19:39Z</time>
      </trkpt>
      <trkpt lat="44.95397" lon="4.1653">
        <ele>1282</ele>
        <time>2021-04-28T14:19:40Z</time>
      </trkpt>
      <trkpt lat="44.95394" lon="4.16523">
        <ele>1282</ele>
        <time>2021-04-28T14:19:41Z</time>
      </trkpt>
      <trkpt lat="44.9539" lon="4.16517">
        <ele>1282</ele>
        <time>2021-04-28T14:19:42Z</time>
      </trkpt>
      <trkpt lat="44.95387" lon="4.16511">
        <ele>1282</ele>
        <time>2021-04-28T14:19:43Z</time>
      </trkpt>
      <trkpt lat="44.95384" lon="4.16504">
        <ele>1282</ele>
        <time>2021-04-28T14:19:44Z</time>
      </trkpt>
      <trkpt lat="44.95381" lon="4.16498">
        <ele>1283</ele>
        <time>2021-04-28T14:19:45Z</time>
      </trkpt>
      <trkpt lat="44.95378" lon="4.16491">
        <ele>1283</ele>
        <time>2021-04-28T14:19:46Z</time>
      </trkpt>
      <trkpt lat="44.95375" lon="4.16485">
        <ele>1283</ele>
        <time>2021-04-28T14:19:47Z</time>
      </trkpt>
      <trkpt lat="44.95372" lon="4.16478">
        <ele>1283</ele>
        <time>2021-04-28T14:19:48Z</time>
      </trkpt>
      <trkpt lat="44.95369" lon="4.16471">
        <ele>1283</ele>
        <time>2021-04-28T14:19:49Z</time>
      </trkpt>
      <trkpt lat="44.95366" lon="4.16465">
        <ele>1284</ele>
        <time>2021-04-28T14:19:50Z</time>
      </trkpt>
      <trkpt lat="44.95363" lon="4.16458">
        <ele>1284</ele>
        <time>2021-04-28T14:19:51Z</time>
      </trkpt>
      <trkpt lat="44.95359" lon="4.16452">
        <ele>1284</ele>
        <time>2021-04-28T14:19:52Z</time>
      </trkpt>
      <trkpt lat="44.95356" lon="4.16445">
        <ele>1285</ele>
        <time>2021-04-28T14:19:53Z</time>
      </trkpt>
      <trkpt lat="44.95353" lon="4.16439">
        <ele>1285</ele>
        <time>2021-04-28T14:19:54Z</time>
      </trkpt>
      <trkpt lat="44.9535" lon="4.16433">
        <ele>1285</ele>
        <time>2021-04-28T14:19:55Z</time>
      </trkpt>
      <trkpt lat="44.95347" lon="4.16426">
        <ele>1285</ele>
        <time>2021-04-28T14:19:56Z</time>
      </trkpt>
      <trkpt lat="44.95344" lon="4.1642">
        <ele>1286</ele>
        <time>2021-04-28T14:19:57Z</time>
      </trkpt>
      <trkpt lat="44.95341" lon="4.16414">
        <ele>1286</ele>
        <time>2021-04-28T14:19:58Z</time>
      </trkpt>
      <trkpt lat="44.95338" lon="4.16407">
        <ele>1286</ele>
        <time>2021-04-28T14:19:59Z</time>
      </trkpt>
      <trkpt lat="44.95335" lon="4.16401">
        <ele>1286</ele>
        <time>2021-04-28T14:20:00Z</time>
      </trkpt>
      <trkpt lat="44.95332" lon="4.16395">
        <ele>1287</ele>
        <time>2021-04-28T14:20:01Z</time>
      </trkpt>
      <trkpt lat="44.95329" lon="4.16388">
        <ele>1287</ele>
        <time>2021-04-28T14:20:02Z</time>
      </trkpt>
      <trkpt lat="44.95327" lon="4.16382">
        <ele>1287</ele>
        <time>2021-04-28T14:20:03Z</time>
      </trkpt>
      <trkpt lat="44.95324" lon="4.16376">
        <ele>1287</ele>
        <time>2021-04-28T14:20:04Z</time>
      </trkpt>
      <trkpt lat="44.95321" lon="4.16369">
        <ele>1287</ele>
        <time>2021-04-28T14:20:05Z</time>
      </trkpt>
      <trkpt lat="44.95318" lon="4.16363">
        <ele>1287</ele>
        <time>2021-04-28T14:20:06Z</time>
      </trkpt>
      <trkpt lat="44.95315" lon="4.16356">
        <ele>1288</ele>
        <time>2021-04-28T14:20:07Z</time>
      </trkpt>
      <trkpt lat="44.95312" lon="4.1635">
        <ele>1288</ele>
        <time>2021-04-28T14:20:08Z</time>
      </trkpt>
      <trkpt lat="44.9531" lon="4.16343">
        <ele>1288</ele>
        <time>2021-04-28T14:20:09Z</time>
      </trkpt>
      <trkpt lat="44.95306" lon="4.16337">
        <ele>1288</ele>
        <time>2021-04-28T14:20:10Z</time>
      </trkpt>
      <trkpt lat="44.95303" lon="4.16331">
        <ele>1288</ele>
        <time>2021-04-28T14:20:11Z</time>
      </trkpt>
      <trkpt lat="44.953" lon="4.16324">
        <ele>1288</ele>
        <time>2021-04-28T14:20:12Z</time>
      </trkpt>
      <trkpt lat="44.95296" lon="4.16318">
        <ele>1288</ele>
        <time>2021-04-28T14:20:13Z</time>
      </trkpt>
      <trkpt lat="44.95293" lon="4.16312">
        <ele>1289</ele>
        <time>2021-04-28T14:20:14Z</time>
      </trkpt>
      <trkpt lat="44.95289" lon="4.16306">
        <ele>1289</ele>
        <time>2021-04-28T14:20:15Z</time>
      </trkpt>
      <trkpt lat="44.95285" lon="4.16301">
        <ele>1289</ele>
        <time>2021-04-28T14:20:16Z</time>
      </trkpt>
      <trkpt lat="44.95281" lon="4.16295">
        <ele>1289</ele>
        <time>2021-04-28T14:20:17Z</time>
      </trkpt>
      <trkpt lat="44.95277" lon="4.1629">
        <ele>1289</ele>
        <time>2021-04-28T14:20:18Z</time>
      </trkpt>
      <trkpt lat="44.95273" lon="4.16285">
        <ele>1289</ele>
        <time>2021-04-28T14:20:19Z</time>
      </trkpt>
      <trkpt lat="44.95269" lon="4.1628">
        <ele>1289</ele>
        <time>2021-04-28T14:20:20Z</time>
      </trkpt>
      <trkpt lat="44.95264" lon="4.16275">
        <ele>1289</ele>
        <time>2021-04-28T14:20:21Z</time>
      </trkpt>
      <trkpt lat="44.9526" lon="4.16271">
        <ele>1290</ele>
        <time>2021-04-28T14:20:22Z</time>
      </trkpt>
      <trkpt lat="44.95255" lon="4.16267">
        <ele>1290</ele>
        <time>2021-04-28T14:20:23Z</time>
      </trkpt>
      <trkpt lat="44.95251" lon="4.16263">
        <ele>1290</ele>
        <time>2021-04-28T14:20:24Z</time>
      </trkpt>
      <trkpt lat="44.95246" lon="4.16258">
        <ele>1290</ele>
        <time>2021-04-28T14:20:25Z</time>
      </trkpt>
      <trkpt lat="44.95242" lon="4.16254">
        <ele>1290</ele>
        <time>2021-04-28T14:20:26Z</time>
      </trkpt>
      <trkpt lat="44.95237" lon="4.1625">
        <ele>1290</ele>
        <time>2021-04-28T14:20:27Z</time>
      </trkpt>
      <trkpt lat="44.95232" lon="4.16246">
        <ele>1290</ele>
        <time>2021-04-28T14:20:28Z</time>
      </trkpt>
      <trkpt lat="44.95227" lon="4.16242">
        <ele>1290</ele>
        <time>2021-04-28T14:20:29Z</time>
      </trkpt>
      <trkpt lat="44.95222" lon="4.16238">
        <ele>1290</ele>
        <time>2021-04-28T14:20:30Z</time>
      </trkpt>
      <trkpt lat="44.95218" lon="4.16234">
        <ele>1290</ele>
        <time>2021-04-28T14:20:31Z</time>
      </trkpt>
      <trkpt lat="44.95213" lon="4.1623">
        <ele>1290</ele>
        <time>2021-04-28T14:20:32Z</time>
      </trkpt>
      <trkpt lat="44.95208" lon="4.16226">
        <ele>1290</ele>
        <time>2021-04-28T14:20:33Z</time>
      </trkpt>
      <trkpt lat="44.95204" lon="4.16221">
        <ele>1290</ele>
        <time>2021-04-28T14:20:34Z</time>
      </trkpt>
      <trkpt lat="44.95199" lon="4.16217">
        <ele>1290</ele>
        <time>2021-04-28T14:20:35Z</time>
      </trkpt>
      <trkpt lat="44.95195" lon="4.16212">
        <ele>1290</ele>
        <time>2021-04-28T14:20:36Z</time>
      </trkpt>
      <trkpt lat="44.9519" lon="4.16207">
        <ele>1290</ele>
        <time>2021-04-28T14:20:37Z</time>
      </trkpt>
      <trkpt lat="44.95186" lon="4.16203">
        <ele>1290</ele>
        <time>2021-04-28T14:20:38Z</time>
      </trkpt>
      <trkpt lat="44.95182" lon="4.16197">
        <ele>1290</ele>
        <time>2021-04-28T14:20:39Z</time>
      </trkpt>
      <trkpt lat="44.95177" lon="4.16192">
        <ele>1290</ele>
        <time>2021-04-28T14:20:40Z</time>
      </trkpt>
      <trkpt lat="44.95173" lon="4.16187">
        <ele>1290</ele>
        <time>2021-04-28T14:20:41Z</time>
      </trkpt>
      <trkpt lat="44.95168" lon="4.16182">
        <ele>1290</ele>
        <time>2021-04-28T14:20:42Z</time>
      </trkpt>
      <trkpt lat="44.95164" lon="4.16177">
        <ele>1290</ele>
        <time>2021-04-28T14:20:43Z</time>
      </trkpt>
      <trkpt lat="44.9516" lon="4.16172">
        <ele>1290</ele>
        <time>2021-04-28T14:20:44Z</time>
      </trkpt>
      <trkpt lat="44.95155" lon="4.16167">
        <ele>1290</ele>
        <time>2021-04-28T14:20:45Z</time>
      </trkpt>
      <trkpt lat="44.9515" lon="4.16162">
        <ele>1290</ele>
        <time>2021-04-28T14:20:46Z</time>
      </trkpt>
      <trkpt lat="44.95146" lon="4.16157">
        <ele>1290</ele>
        <time>2021-04-28T14:20:47Z</time>
      </trkpt>
      <trkpt lat="44.95141" lon="4.16152">
        <ele>1290</ele>
        <time>2021-04-28T14:20:48Z</time>
      </trkpt>
      <trkpt lat="44.95137" lon="4.16148">
        <ele>1290</ele>
        <time>2021-04-28T14:20:49Z</time>
      </trkpt>
      <trkpt lat="44.95132" lon="4.16144">
        <ele>1290</ele>
        <time>2021-04-28T14:20:50Z</time>
      </trkpt>
      <trkpt lat="44.95128" lon="4.16139">
        <ele>1290</ele>
        <time>2021-04-28T14:20:51Z</time>
      </trkpt>
      <trkpt lat="44.95123" lon="4.16135">
        <ele>1291</ele>
        <time>2021-04-28T14:20:52Z</time>
      </trkpt>
      <trkpt lat="44.95119" lon="4.1613">
        <ele>1291</ele>
        <time>2021-04-28T14:20:53Z</time>
      </trkpt>
      <trkpt lat="44.95115" lon="4.16126">
        <ele>1291</ele>
        <time>2021-04-28T14:20:54Z</time>
      </trkpt>
      <trkpt lat="44.9511" lon="4.16122">
        <ele>1291</ele>
        <time>2021-04-28T14:20:55Z</time>
      </trkpt>
      <trkpt lat="44.95106" lon="4.16117">
        <ele>1291</ele>
        <time>2021-04-28T14:20:56Z</time>
      </trkpt>
      <trkpt lat="44.95101" lon="4.16113">
        <ele>1291</ele>
        <time>2021-04-28T14:20:57Z</time>
      </trkpt>
      <trkpt lat="44.95097" lon="4.16108">
        <ele>1292</ele>
        <time>2021-04-28T14:20:58Z</time>
      </trkpt>
      <trkpt lat="44.95093" lon="4.16104">
        <ele>1292</ele>
        <time>2021-04-28T14:20:59Z</time>
      </trkpt>
      <trkpt lat="44.95088" lon="4.16099">
        <ele>1292</ele>
        <time>2021-04-28T14:21:00Z</time>
      </trkpt>
      <trkpt lat="44.95084" lon="4.16095">
        <ele>1292</ele>
        <time>2021-04-28T14:21:01Z</time>
      </trkpt>
      <trkpt lat="44.95079" lon="4.1609">
        <ele>1292</ele>
        <time>2021-04-28T14:21:02Z</time>
      </trkpt>
      <trkpt lat="44.95075" lon="4.16086">
        <ele>1292</ele>
        <time>2021-04-28T14:21:03Z</time>
      </trkpt>
      <trkpt lat="44.9507" lon="4.16081">
        <ele>1292</ele>
        <time>2021-04-28T14:21:04Z</time>
      </trkpt>
      <trkpt lat="44.95065" lon="4.16077">
        <ele>1292</ele>
        <time>2021-04-28T14:21:05Z</time>
      </trkpt>
      <trkpt lat="44.9506" lon="4.16073">
        <ele>1292</ele>
        <time>2021-04-28T14:21:06Z</time>
      </trkpt>
      <trkpt lat="44.95056" lon="4.16069">
        <ele>1292</ele>
        <time>2021-04-28T14:21:07Z</time>
      </trkpt>
      <trkpt lat="44.95051" lon="4.16064">
        <ele>1292</ele>
        <time>2021-04-28T14:21:08Z</time>
      </trkpt>
      <trkpt lat="44.95046" lon="4.1606">
        <ele>1292</ele>
        <time>2021-04-28T14:21:09Z</time>
      </trkpt>
      <trkpt lat="44.95041" lon="4.16056">
        <ele>1292</ele>
        <time>2021-04-28T14:21:10Z</time>
      </trkpt>
      <trkpt lat="44.95036" lon="4.16052">
        <ele>1292</ele>
        <time>2021-04-28T14:21:11Z</time>
      </trkpt>
      <trkpt lat="44.95031" lon="4.16048">
        <ele>1292</ele>
        <time>2021-04-28T14:21:12Z</time>
      </trkpt>
      <trkpt lat="44.95026" lon="4.16044">
        <ele>1292</ele>
        <time>2021-04-28T14:21:13Z</time>
      </trkpt>
      <trkpt lat="44.95021" lon="4.16039">
        <ele>1292</ele>
        <time>2021-04-28T14:21:14Z</time>
      </trkpt>
      <trkpt lat="44.95017" lon="4.16034">
        <ele>1292</ele>
        <time>2021-04-28T14:21:15Z</time>
      </trkpt>
      <trkpt lat="44.95012" lon="4.16029">
        <ele>1292</ele>
        <time>2021-04-28T14:21:16Z</time>
      </trkpt>
      <trkpt lat="44.95007" lon="4.16024">
        <ele>1292</ele>
        <time>2021-04-28T14:21:17Z</time>
      </trkpt>
      <trkpt lat="44.95003" lon="4.16019">
        <ele>1292</ele>
        <time>2021-04-28T14:21:18Z</time>
      </trkpt>
      <trkpt lat="44.94998" lon="4.16013">
        <ele>1292</ele>
        <time>2021-04-28T14:21:19Z</time>
      </trkpt>
      <trkpt lat="44.94994" lon="4.16008">
        <ele>1292</ele>
        <time>2021-04-28T14:21:20Z</time>
      </trkpt>
      <trkpt lat="44.9499" lon="4.16002">
        <ele>1292</ele>
        <time>2021-04-28T14:21:21Z</time>
      </trkpt>
      <trkpt lat="44.94985" lon="4.15996">
        <ele>1292</ele>
        <time>2021-04-28T14:21:22Z</time>
      </trkpt>
      <trkpt lat="44.94981" lon="4.15991">
        <ele>1292</ele>
        <time>2021-04-28T14:21:23Z</time>
      </trkpt>
      <trkpt lat="44.94977" lon="4.15985">
        <ele>1292</ele>
        <time>2021-04-28T14:21:24Z</time>
      </trkpt>
      <trkpt lat="44.94974" lon="4.15979">
        <ele>1292</ele>
        <time>2021-04-28T14:21:25Z</time>
      </trkpt>
      <trkpt lat="44.9497" lon="4.15973">
        <ele>1292</ele>
        <time>2021-04-28T14:21:26Z</time>
      </trkpt>
      <trkpt lat="44.94966" lon="4.15967">
        <ele>1292</ele>
        <time>2021-04-28T14:21:27Z</time>
      </trkpt>
      <trkpt lat="44.94962" lon="4.15961">
        <ele>1292</ele>
        <time>2021-04-28T14:21:28Z</time>
      </trkpt>
      <trkpt lat="44.94958" lon="4.15955">
        <ele>1293</ele>
        <time>2021-04-28T14:21:29Z</time>
      </trkpt>
      <trkpt lat="44.94955" lon="4.15949">
        <ele>1293</ele>
        <time>2021-04-28T14:21:30Z</time>
      </trkpt>
      <trkpt lat="44.94951" lon="4.15943">
        <ele>1293</ele>
        <time>2021-04-28T14:21:31Z</time>
      </trkpt>
      <trkpt lat="44.94947" lon="4.15937">
        <ele>1293</ele>
        <time>2021-04-28T14:21:32Z</time>
      </trkpt>
      <trkpt lat="44.94943" lon="4.15932">
        <ele>1293</ele>
        <time>2021-04-28T14:21:33Z</time>
      </trkpt>
      <trkpt lat="44.94939" lon="4.15927">
        <ele>1294</ele>
        <time>2021-04-28T14:21:34Z</time>
      </trkpt>
      <trkpt lat="44.94935" lon="4.15922">
        <ele>1294</ele>
        <time>2021-04-28T14:21:35Z</time>
      </trkpt>
      <trkpt lat="44.94931" lon="4.15918">
        <ele>1294</ele>
        <time>2021-04-28T14:21:36Z</time>
      </trkpt>
      <trkpt lat="44.94927" lon="4.15914">
        <ele>1294</ele>
        <time>2021-04-28T14:21:37Z</time>
      </trkpt>
      <trkpt lat="44.94923" lon="4.1591">
        <ele>1294</ele>
        <time>2021-04-28T14:21:38Z</time>
      </trkpt>
      <trkpt lat="44.94919" lon="4.15906">
        <ele>1295</ele>
        <time>2021-04-28T14:21:39Z</time>
      </trkpt>
      <trkpt lat="44.94916" lon="4.15902">
        <ele>1295</ele>
        <time>2021-04-28T14:21:40Z</time>
      </trkpt>
      <trkpt lat="44.94912" lon="4.15899">
        <ele>1295</ele>
        <time>2021-04-28T14:21:41Z</time>
      </trkpt>
      <trkpt lat="44.94908" lon="4.15896">
        <ele>1295</ele>
        <time>2021-04-28T14:21:42Z</time>
      </trkpt>
      <trkpt lat="44.94904" lon="4.15894">
        <ele>1296</ele>
        <time>2021-04-28T14:21:43Z</time>
      </trkpt>
      <trkpt lat="44.949" lon="4.15892">
        <ele>1296</ele>
        <time>2021-04-28T14:21:44Z</time>
      </trkpt>
      <trkpt lat="44.94896" lon="4.15889">
        <ele>1296</ele>
        <time>2021-04-28T14:21:45Z</time>
      </trkpt>
      <trkpt lat="44.94892" lon="4.15887">
        <ele>1297</ele>
        <time>2021-04-28T14:21:46Z</time>
      </trkpt>
      <trkpt lat="44.94889" lon="4.15884">
        <ele>1297</ele>
        <time>2021-04-28T14:21:47Z</time>
      </trkpt>
      <trkpt lat="44.94885" lon="4.15881">
        <ele>1297</ele>
        <time>2021-04-28T14:21:48Z</time>
      </trkpt>
      <trkpt lat="44.94882" lon="4.15877">
        <ele>1297</ele>
        <time>2021-04-28T14:21:49Z</time>
      </trkpt>
      <trkpt lat="44.94879" lon="4.15873">
        <ele>1298</ele>
        <time>2021-04-28T14:21:50Z</time>
      </trkpt>
      <trkpt lat="44.94875" lon="4.15869">
        <ele>1298</ele>
        <time>2021-04-28T14:21:51Z</time>
      </trkpt>
      <trkpt lat="44.94872" lon="4.15866">
        <ele>1298</ele>
        <time>2021-04-28T14:21:52Z</time>
      </trkpt>
      <trkpt lat="44.94869" lon="4.15862">
        <ele>1298</ele>
        <time>2021-04-28T14:21:53Z</time>
      </trkpt>
      <trkpt lat="44.94866" lon="4.15858">
        <ele>1299</ele>
        <time>2021-04-28T14:21:54Z</time>
      </trkpt>
      <trkpt lat="44.94863" lon="4.15854">
        <ele>1299</ele>
        <time>2021-04-28T14:21:55Z</time>
      </trkpt>
      <trkpt lat="44.9486" lon="4.1585">
        <ele>1299</ele>
        <time>2021-04-28T14:21:56Z</time>
      </trkpt>
      <trkpt lat="44.94857" lon="4.15846">
        <ele>1299</ele>
        <time>2021-04-28T14:21:57Z</time>
      </trkpt>
      <trkpt lat="44.94854" lon="4.15841">
        <ele>1300</ele>
        <time>2021-04-28T14:21:58Z</time>
      </trkpt>
      <trkpt lat="44.94852" lon="4.15836">
        <ele>1300</ele>
        <time>2021-04-28T14:21:59Z</time>
      </trkpt>
      <trkpt lat="44.9485" lon="4.15831">
        <ele>1300</ele>
        <time>2021-04-28T14:22:00Z</time>
      </trkpt>
      <trkpt lat="44.94848" lon="4.15825">
        <ele>1300</ele>
        <time>2021-04-28T14:22:01Z</time>
      </trkpt>
      <trkpt lat="44.94847" lon="4.15819">
        <ele>1300</ele>
        <time>2021-04-28T14:22:02Z</time>
      </trkpt>
      <trkpt lat="44.94846" lon="4.15812">
        <ele>1301</ele>
        <time>2021-04-28T14:22:03Z</time>
      </trkpt>
      <trkpt lat="44.94846" lon="4.15806">
        <ele>1301</ele>
        <time>2021-04-28T14:22:04Z</time>
      </trkpt>
      <trkpt lat="44.94845" lon="4.15799">
        <ele>1301</ele>
        <time>2021-04-28T14:22:05Z</time>
      </trkpt>
      <trkpt lat="44.94845" lon="4.15793">
        <ele>1301</ele>
        <time>2021-04-28T14:22:06Z</time>
      </trkpt>
      <trkpt lat="44.94845" lon="4.15786">
        <ele>1301</ele>
        <time>2021-04-28T14:22:07Z</time>
      </trkpt>
      <trkpt lat="44.94846" lon="4.1578">
        <ele>1302</ele>
        <time>2021-04-28T14:22:08Z</time>
      </trkpt>
      <trkpt lat="44.94847" lon="4.15774">
        <ele>1302</ele>
        <time>2021-04-28T14:22:09Z</time>
      </trkpt>
      <trkpt lat="44.94849" lon="4.15768">
        <ele>1302</ele>
        <time>2021-04-28T14:22:10Z</time>
      </trkpt>
      <trkpt lat="44.94851" lon="4.15762">
        <ele>1302</ele>
        <time>2021-04-28T14:22:11Z</time>
      </trkpt>
      <trkpt lat="44.94854" lon="4.15756">
        <ele>1303</ele>
        <time>2021-04-28T14:22:12Z</time>
      </trkpt>
      <trkpt lat="44.94856" lon="4.15751">
        <ele>1303</ele>
        <time>2021-04-28T14:22:13Z</time>
      </trkpt>
      <trkpt lat="44.94859" lon="4.15745">
        <ele>1303</ele>
        <time>2021-04-28T14:22:14Z</time>
      </trkpt>
      <trkpt lat="44.94862" lon="4.1574">
        <ele>1303</ele>
        <time>2021-04-28T14:22:15Z</time>
      </trkpt>
      <trkpt lat="44.94865" lon="4.15734">
        <ele>1303</ele>
        <time>2021-04-28T14:22:16Z</time>
      </trkpt>
      <trkpt lat="44.94868" lon="4.15728">
        <ele>1304</ele>
        <time>2021-04-28T14:22:17Z</time>
      </trkpt>
      <trkpt lat="44.94871" lon="4.15722">
        <ele>1304</ele>
        <time>2021-04-28T14:22:18Z</time>
      </trkpt>
      <trkpt lat="44.94872" lon="4.15715">
        <ele>1304</ele>
        <time>2021-04-28T14:22:19Z</time>
      </trkpt>
      <trkpt lat="44.94872" lon="4.15708">
        <ele>1304</ele>
        <time>2021-04-28T14:22:20Z</time>
      </trkpt>
      <trkpt lat="44.94872" lon="4.157">
        <ele>1304</ele>
        <time>2021-04-28T14:22:21Z</time>
      </trkpt>
      <trkpt lat="44.94871" lon="4.15692">
        <ele>1303</ele>
        <time>2021-04-28T14:22:22Z</time>
      </trkpt>
      <trkpt lat="44.9487" lon="4.15684">
        <ele>1303</ele>
        <time>2021-04-28T14:22:23Z</time>
      </trkpt>
      <trkpt lat="44.94869" lon="4.15675">
        <ele>1303</ele>
        <time>2021-04-28T14:22:24Z</time>
      </trkpt>
      <trkpt lat="44.94867" lon="4.15667">
        <ele>1303</ele>
        <time>2021-04-28T14:22:25Z</time>
      </trkpt>
      <trkpt lat="44.94866" lon="4.15659">
        <ele>1303</ele>
        <time>2021-04-28T14:22:26Z</time>
      </trkpt>
      <trkpt lat="44.94864" lon="4.15651">
        <ele>1303</ele>
        <time>2021-04-28T14:22:27Z</time>
      </trkpt>
      <trkpt lat="44.94862" lon="4.15643">
        <ele>1303</ele>
        <time>2021-04-28T14:22:28Z</time>
      </trkpt>
      <trkpt lat="44.9486" lon="4.15634">
        <ele>1303</ele>
        <time>2021-04-28T14:22:29Z</time>
      </trkpt>
      <trkpt lat="44.94859" lon="4.15626">
        <ele>1303</ele>
        <time>2021-04-28T14:22:30Z</time>
      </trkpt>
      <trkpt lat="44.94857" lon="4.15618">
        <ele>1303</ele>
        <time>2021-04-28T14:22:31Z</time>
      </trkpt>
      <trkpt lat="44.94855" lon="4.15609">
        <ele>1303</ele>
        <time>2021-04-28T14:22:32Z</time>
      </trkpt>
      <trkpt lat="44.94853" lon="4.15601">
        <ele>1303</ele>
        <time>2021-04-28T14:22:33Z</time>
      </trkpt>
      <trkpt lat="44.94851" lon="4.15592">
        <ele>1302</ele>
        <time>2021-04-28T14:22:34Z</time>
      </trkpt>
      <trkpt lat="44.94849" lon="4.15583">
        <ele>1302</ele>
        <time>2021-04-28T14:22:35Z</time>
      </trkpt>
      <trkpt lat="44.94848" lon="4.15574">
        <ele>1302</ele>
        <time>2021-04-28T14:22:36Z</time>
      </trkpt>
      <trkpt lat="44.94846" lon="4.15565">
        <ele>1302</ele>
        <time>2021-04-28T14:22:37Z</time>
      </trkpt>
      <trkpt lat="44.94844" lon="4.15555">
        <ele>1302</ele>
        <time>2021-04-28T14:22:38Z</time>
      </trkpt>
      <trkpt lat="44.94843" lon="4.15546">
        <ele>1301</ele>
        <time>2021-04-28T14:22:39Z</time>
      </trkpt>
      <trkpt lat="44.94841" lon="4.15536">
        <ele>1301</ele>
        <time>2021-04-28T14:22:40Z</time>
      </trkpt>
      <trkpt lat="44.9484" lon="4.15527">
        <ele>1301</ele>
        <time>2021-04-28T14:22:41Z</time>
      </trkpt>
      <trkpt lat="44.94839" lon="4.15517">
        <ele>1300</ele>
        <time>2021-04-28T14:22:42Z</time>
      </trkpt>
      <trkpt lat="44.94839" lon="4.15508">
        <ele>1300</ele>
        <time>2021-04-28T14:22:43Z</time>
      </trkpt>
      <trkpt lat="44.94839" lon="4.15499">
        <ele>1300</ele>
        <time>2021-04-28T14:22:44Z</time>
      </trkpt>
      <trkpt lat="44.94838" lon="4.15491">
        <ele>1300</ele>
        <time>2021-04-28T14:22:45Z</time>
      </trkpt>
      <trkpt lat="44.94838" lon="4.15484">
        <ele>1300</ele>
        <time>2021-04-28T14:22:46Z</time>
      </trkpt>
      <trkpt lat="44.94836" lon="4.15477">
        <ele>1300</ele>
        <time>2021-04-28T14:22:47Z</time>
      </trkpt>
      <trkpt lat="44.94834" lon="4.1547">
        <ele>1300</ele>
        <time>2021-04-28T14:22:48Z</time>
      </trkpt>
      <trkpt lat="44.94831" lon="4.15463">
        <ele>1300</ele>
        <time>2021-04-28T14:22:49Z</time>
      </trkpt>
      <trkpt lat="44.94828" lon="4.15456">
        <ele>1300</ele>
        <time>2021-04-28T14:22:50Z</time>
      </trkpt>
      <trkpt lat="44.94824" lon="4.1545">
        <ele>1300</ele>
        <time>2021-04-28T14:22:51Z</time>
      </trkpt>
      <trkpt lat="44.9482" lon="4.15444">
        <ele>1300</ele>
        <time>2021-04-28T14:22:52Z</time>
      </trkpt>
      <trkpt lat="44.94817" lon="4.15437">
        <ele>1300</ele>
        <time>2021-04-28T14:22:53Z</time>
      </trkpt>
      <trkpt lat="44.94815" lon="4.1543">
        <ele>1300</ele>
        <time>2021-04-28T14:22:54Z</time>
      </trkpt>
      <trkpt lat="44.94813" lon="4.15423">
        <ele>1301</ele>
        <time>2021-04-28T14:22:55Z</time>
      </trkpt>
      <trkpt lat="44.9481" lon="4.15416">
        <ele>1301</ele>
        <time>2021-04-28T14:22:56Z</time>
      </trkpt>
      <trkpt lat="44.94808" lon="4.15408">
        <ele>1301</ele>
        <time>2021-04-28T14:22:57Z</time>
      </trkpt>
      <trkpt lat="44.94806" lon="4.154">
        <ele>1301</ele>
        <time>2021-04-28T14:22:58Z</time>
      </trkpt>
      <trkpt lat="44.94804" lon="4.15393">
        <ele>1301</ele>
        <time>2021-04-28T14:22:59Z</time>
      </trkpt>
      <trkpt lat="44.94802" lon="4.15385">
        <ele>1301</ele>
        <time>2021-04-28T14:23:00Z</time>
      </trkpt>
      <trkpt lat="44.948" lon="4.15378">
        <ele>1301</ele>
        <time>2021-04-28T14:23:01Z</time>
      </trkpt>
      <trkpt lat="44.94798" lon="4.1537">
        <ele>1301</ele>
        <time>2021-04-28T14:23:02Z</time>
      </trkpt>
      <trkpt lat="44.94796" lon="4.15363">
        <ele>1302</ele>
        <time>2021-04-28T14:23:03Z</time>
      </trkpt>
      <trkpt lat="44.94793" lon="4.15356">
        <ele>1302</ele>
        <time>2021-04-28T14:23:04Z</time>
      </trkpt>
      <trkpt lat="44.94791" lon="4.15349">
        <ele>1302</ele>
        <time>2021-04-28T14:23:05Z</time>
      </trkpt>
      <trkpt lat="44.94788" lon="4.15342">
        <ele>1302</ele>
        <time>2021-04-28T14:23:06Z</time>
      </trkpt>
      <trkpt lat="44.94785" lon="4.15336">
        <ele>1302</ele>
        <time>2021-04-28T14:23:07Z</time>
      </trkpt>
      <trkpt lat="44.94782" lon="4.1533">
        <ele>1302</ele>
        <time>2021-04-28T14:23:08Z</time>
      </trkpt>
      <trkpt lat="44.94778" lon="4.15324">
        <ele>1303</ele>
        <time>2021-04-28T14:23:09Z</time>
      </trkpt>
      <trkpt lat="44.94774" lon="4.15319">
        <ele>1303</ele>
        <time>2021-04-28T14:23:10Z</time>
      </trkpt>
      <trkpt lat="44.9477" lon="4.15315">
        <ele>1303</ele>
        <time>2021-04-28T14:23:11Z</time>
      </trkpt>
      <trkpt lat="44.94766" lon="4.1531">
        <ele>1303</ele>
        <time>2021-04-28T14:23:12Z</time>
      </trkpt>
      <trkpt lat="44.94762" lon="4.15306">
        <ele>1303</ele>
        <time>2021-04-28T14:23:13Z</time>
      </trkpt>
      <trkpt lat="44.94758" lon="4.15301">
        <ele>1304</ele>
        <time>2021-04-28T14:23:14Z</time>
      </trkpt>
      <trkpt lat="44.94754" lon="4.15297">
        <ele>1304</ele>
        <time>2021-04-28T14:23:15Z</time>
      </trkpt>
      <trkpt lat="44.9475" lon="4.15294">
        <ele>1304</ele>
        <time>2021-04-28T14:23:16Z</time>
      </trkpt>
      <trkpt lat="44.94746" lon="4.1529">
        <ele>1304</ele>
        <time>2021-04-28T14:23:17Z</time>
      </trkpt>
      <trkpt lat="44.94742" lon="4.15286">
        <ele>1305</ele>
        <time>2021-04-28T14:23:18Z</time>
      </trkpt>
      <trkpt lat="44.94738" lon="4.15282">
        <ele>1305</ele>
        <time>2021-04-28T14:23:19Z</time>
      </trkpt>
      <trkpt lat="44.94734" lon="4.15278">
        <ele>1305</ele>
        <time>2021-04-28T14:23:20Z</time>
      </trkpt>
      <trkpt lat="44.9473" lon="4.15274">
        <ele>1306</ele>
        <time>2021-04-28T14:23:21Z</time>
      </trkpt>
      <trkpt lat="44.94726" lon="4.15271">
        <ele>1306</ele>
        <time>2021-04-28T14:23:22Z</time>
      </trkpt>
      <trkpt lat="44.94722" lon="4.15267">
        <ele>1306</ele>
        <time>2021-04-28T14:23:23Z</time>
      </trkpt>
      <trkpt lat="44.94718" lon="4.15264">
        <ele>1307</ele>
        <time>2021-04-28T14:23:24Z</time>
      </trkpt>
      <trkpt lat="44.94714" lon="4.1526">
        <ele>1307</ele>
        <time>2021-04-28T14:23:25Z</time>
      </trkpt>
      <trkpt lat="44.9471" lon="4.15257">
        <ele>1307</ele>
        <time>2021-04-28T14:23:26Z</time>
      </trkpt>
      <trkpt lat="44.94707" lon="4.15253">
        <ele>1308</ele>
        <time>2021-04-28T14:23:27Z</time>
      </trkpt>
      <trkpt lat="44.94703" lon="4.15249">
        <ele>1308</ele>
        <time>2021-04-28T14:23:28Z</time>
      </trkpt>
      <trkpt lat="44.947" lon="4.15246">
        <ele>1309</ele>
        <time>2021-04-28T14:23:29Z</time>
      </trkpt>
      <trkpt lat="44.94696" lon="4.15242">
        <ele>1309</ele>
        <time>2021-04-28T14:23:30Z</time>
      </trkpt>
      <trkpt lat="44.94693" lon="4.15239">
        <ele>1309</ele>
        <time>2021-04-28T14:23:31Z</time>
      </trkpt>
      <trkpt lat="44.94689" lon="4.15236">
        <ele>1310</ele>
        <time>2021-04-28T14:23:32Z</time>
      </trkpt>
      <trkpt lat="44.94685" lon="4.15233">
        <ele>1310</ele>
        <time>2021-04-28T14:23:33Z</time>
      </trkpt>
      <trkpt lat="44.94682" lon="4.15231">
        <ele>1310</ele>
        <time>2021-04-28T14:23:34Z</time>
      </trkpt>
      <trkpt lat="44.94678" lon="4.15228">
        <ele>1310</ele>
        <time>2021-04-28T14:23:35Z</time>
      </trkpt>
      <trkpt lat="44.94674" lon="4.15226">
        <ele>1311</ele>
        <time>2021-04-28T14:23:36Z</time>
      </trkpt>
      <trkpt lat="44.94671" lon="4.15224">
        <ele>1311</ele>
        <time>2021-04-28T14:23:37Z</time>
      </trkpt>
      <trkpt lat="44.94667" lon="4.15222">
        <ele>1311</ele>
        <time>2021-04-28T14:23:38Z</time>
      </trkpt>
      <trkpt lat="44.94663" lon="4.15219">
        <ele>1312</ele>
        <time>2021-04-28T14:23:39Z</time>
      </trkpt>
      <trkpt lat="44.94659" lon="4.15218">
        <ele>1312</ele>
        <time>2021-04-28T14:23:40Z</time>
      </trkpt>
      <trkpt lat="44.94655" lon="4.15217">
        <ele>1312</ele>
        <time>2021-04-28T14:23:41Z</time>
      </trkpt>
      <trkpt lat="44.94651" lon="4.15216">
        <ele>1312</ele>
        <time>2021-04-28T14:23:42Z</time>
      </trkpt>
      <trkpt lat="44.94648" lon="4.15216">
        <ele>1312</ele>
        <time>2021-04-28T14:23:43Z</time>
      </trkpt>
      <trkpt lat="44.94645" lon="4.15217">
        <ele>1312</ele>
        <time>2021-04-28T14:23:44Z</time>
      </trkpt>
      <trkpt lat="44.94643" lon="4.15217">
        <ele>1312</ele>
        <time>2021-04-28T14:23:45Z</time>
      </trkpt>
      <trkpt lat="44.94641" lon="4.15218">
        <ele>1312</ele>
        <time>2021-04-28T14:23:47Z</time>
      </trkpt>
      <trkpt lat="44.94635" lon="4.15224">
        <ele>1314</ele>
        <time>2021-04-28T14:26:55Z</time>
      </trkpt>
      <trkpt lat="44.94632" lon="4.15226">
        <ele>1314</ele>
        <time>2021-04-28T14:26:56Z</time>
      </trkpt>
      <trkpt lat="44.94629" lon="4.15228">
        <ele>1314</ele>
        <time>2021-04-28T14:26:57Z</time>
      </trkpt>
      <trkpt lat="44.94626" lon="4.1523">
        <ele>1314</ele>
        <time>2021-04-28T14:26:58Z</time>
      </trkpt>
      <trkpt lat="44.94623" lon="4.15232">
        <ele>1314</ele>
        <time>2021-04-28T14:26:59Z</time>
      </trkpt>
      <trkpt lat="44.9462" lon="4.15234">
        <ele>1314</ele>
        <time>2021-04-28T14:27:00Z</time>
      </trkpt>
      <trkpt lat="44.94617" lon="4.15236">
        <ele>1314</ele>
        <time>2021-04-28T14:27:01Z</time>
      </trkpt>
      <trkpt lat="44.94614" lon="4.15238">
        <ele>1314</ele>
        <time>2021-04-28T14:27:02Z</time>
      </trkpt>
      <trkpt lat="44.94611" lon="4.1524">
        <ele>1314</ele>
        <time>2021-04-28T14:27:03Z</time>
      </trkpt>
      <trkpt lat="44.94607" lon="4.15242">
        <ele>1314</ele>
        <time>2021-04-28T14:27:04Z</time>
      </trkpt>
      <trkpt lat="44.94604" lon="4.15244">
        <ele>1315</ele>
        <time>2021-04-28T14:27:05Z</time>
      </trkpt>
      <trkpt lat="44.946" lon="4.15246">
        <ele>1315</ele>
        <time>2021-04-28T14:27:06Z</time>
      </trkpt>
      <trkpt lat="44.94597" lon="4.15248">
        <ele>1315</ele>
        <time>2021-04-28T14:27:07Z</time>
      </trkpt>
      <trkpt lat="44.94593" lon="4.15251">
        <ele>1315</ele>
        <time>2021-04-28T14:27:08Z</time>
      </trkpt>
      <trkpt lat="44.9459" lon="4.15253">
        <ele>1315</ele>
        <time>2021-04-28T14:27:09Z</time>
      </trkpt>
      <trkpt lat="44.94587" lon="4.15255">
        <ele>1315</ele>
        <time>2021-04-28T14:27:10Z</time>
      </trkpt>
      <trkpt lat="44.94583" lon="4.15258">
        <ele>1315</ele>
        <time>2021-04-28T14:27:11Z</time>
      </trkpt>
      <trkpt lat="44.9458" lon="4.1526">
        <ele>1315</ele>
        <time>2021-04-28T14:27:12Z</time>
      </trkpt>
      <trkpt lat="44.94577" lon="4.15262">
        <ele>1316</ele>
        <time>2021-04-28T14:27:13Z</time>
      </trkpt>
      <trkpt lat="44.94573" lon="4.15265">
        <ele>1316</ele>
        <time>2021-04-28T14:27:14Z</time>
      </trkpt>
      <trkpt lat="44.9457" lon="4.15267">
        <ele>1316</ele>
        <time>2021-04-28T14:27:15Z</time>
      </trkpt>
      <trkpt lat="44.94567" lon="4.1527">
        <ele>1316</ele>
        <time>2021-04-28T14:27:16Z</time>
      </trkpt>
      <trkpt lat="44.94563" lon="4.15272">
        <ele>1316</ele>
        <time>2021-04-28T14:27:17Z</time>
      </trkpt>
      <trkpt lat="44.9456" lon="4.15274">
        <ele>1317</ele>
        <time>2021-04-28T14:27:18Z</time>
      </trkpt>
      <trkpt lat="44.94556" lon="4.15277">
        <ele>1317</ele>
        <time>2021-04-28T14:27:19Z</time>
      </trkpt>
      <trkpt lat="44.94553" lon="4.15279">
        <ele>1317</ele>
        <time>2021-04-28T14:27:20Z</time>
      </trkpt>
      <trkpt lat="44.9455" lon="4.15281">
        <ele>1317</ele>
        <time>2021-04-28T14:27:21Z</time>
      </trkpt>
      <trkpt lat="44.94546" lon="4.15284">
        <ele>1317</ele>
        <time>2021-04-28T14:27:22Z</time>
      </trkpt>
      <trkpt lat="44.94543" lon="4.15286">
        <ele>1317</ele>
        <time>2021-04-28T14:27:23Z</time>
      </trkpt>
      <trkpt lat="44.9454" lon="4.15288">
        <ele>1317</ele>
        <time>2021-04-28T14:27:24Z</time>
      </trkpt>
      <trkpt lat="44.94537" lon="4.15291">
        <ele>1318</ele>
        <time>2021-04-28T14:27:25Z</time>
      </trkpt>
      <trkpt lat="44.94533" lon="4.15293">
        <ele>1318</ele>
        <time>2021-04-28T14:27:26Z</time>
      </trkpt>
      <trkpt lat="44.9453" lon="4.15295">
        <ele>1318</ele>
        <time>2021-04-28T14:27:27Z</time>
      </trkpt>
      <trkpt lat="44.94527" lon="4.15298">
        <ele>1318</ele>
        <time>2021-04-28T14:27:28Z</time>
      </trkpt>
      <trkpt lat="44.94524" lon="4.153">
        <ele>1318</ele>
        <time>2021-04-28T14:27:29Z</time>
      </trkpt>
      <trkpt lat="44.94521" lon="4.15302">
        <ele>1319</ele>
        <time>2021-04-28T14:27:30Z</time>
      </trkpt>
      <trkpt lat="44.94517" lon="4.15305">
        <ele>1319</ele>
        <time>2021-04-28T14:27:31Z</time>
      </trkpt>
      <trkpt lat="44.94514" lon="4.15307">
        <ele>1319</ele>
        <time>2021-04-28T14:27:32Z</time>
      </trkpt>
      <trkpt lat="44.94511" lon="4.15309">
        <ele>1319</ele>
        <time>2021-04-28T14:27:33Z</time>
      </trkpt>
      <trkpt lat="44.94508" lon="4.15311">
        <ele>1319</ele>
        <time>2021-04-28T14:27:34Z</time>
      </trkpt>
      <trkpt lat="44.94504" lon="4.15314">
        <ele>1319</ele>
        <time>2021-04-28T14:27:35Z</time>
      </trkpt>
      <trkpt lat="44.94501" lon="4.15316">
        <ele>1320</ele>
        <time>2021-04-28T14:27:36Z</time>
      </trkpt>
      <trkpt lat="44.94498" lon="4.15318">
        <ele>1320</ele>
        <time>2021-04-28T14:27:37Z</time>
      </trkpt>
      <trkpt lat="44.94495" lon="4.1532">
        <ele>1320</ele>
        <time>2021-04-28T14:27:38Z</time>
      </trkpt>
      <trkpt lat="44.94492" lon="4.15323">
        <ele>1320</ele>
        <time>2021-04-28T14:27:39Z</time>
      </trkpt>
      <trkpt lat="44.94489" lon="4.15325">
        <ele>1321</ele>
        <time>2021-04-28T14:27:40Z</time>
      </trkpt>
      <trkpt lat="44.94486" lon="4.15327">
        <ele>1321</ele>
        <time>2021-04-28T14:27:41Z</time>
      </trkpt>
      <trkpt lat="44.94483" lon="4.15329">
        <ele>1321</ele>
        <time>2021-04-28T14:27:42Z</time>
      </trkpt>
      <trkpt lat="44.9448" lon="4.15331">
        <ele>1321</ele>
        <time>2021-04-28T14:27:43Z</time>
      </trkpt>
      <trkpt lat="44.94477" lon="4.15333">
        <ele>1321</ele>
        <time>2021-04-28T14:27:44Z</time>
      </trkpt>
      <trkpt lat="44.94474" lon="4.15335">
        <ele>1322</ele>
        <time>2021-04-28T14:27:45Z</time>
      </trkpt>
      <trkpt lat="44.94471" lon="4.15337">
        <ele>1322</ele>
        <time>2021-04-28T14:27:46Z</time>
      </trkpt>
      <trkpt lat="44.94468" lon="4.15339">
        <ele>1322</ele>
        <time>2021-04-28T14:27:47Z</time>
      </trkpt>
      <trkpt lat="44.94465" lon="4.15341">
        <ele>1322</ele>
        <time>2021-04-28T14:27:48Z</time>
      </trkpt>
      <trkpt lat="44.94462" lon="4.15343">
        <ele>1322</ele>
        <time>2021-04-28T14:27:49Z</time>
      </trkpt>
      <trkpt lat="44.94459" lon="4.15345">
        <ele>1323</ele>
        <time>2021-04-28T14:27:50Z</time>
      </trkpt>
      <trkpt lat="44.94456" lon="4.15347">
        <ele>1323</ele>
        <time>2021-04-28T14:27:51Z</time>
      </trkpt>
      <trkpt lat="44.94453" lon="4.15349">
        <ele>1323</ele>
        <time>2021-04-28T14:27:52Z</time>
      </trkpt>
      <trkpt lat="44.9445" lon="4.15351">
        <ele>1324</ele>
        <time>2021-04-28T14:27:53Z</time>
      </trkpt>
      <trkpt lat="44.94447" lon="4.15353">
        <ele>1324</ele>
        <time>2021-04-28T14:27:54Z</time>
      </trkpt>
      <trkpt lat="44.94445" lon="4.15355">
        <ele>1324</ele>
        <time>2021-04-28T14:27:55Z</time>
      </trkpt>
      <trkpt lat="44.94442" lon="4.15357">
        <ele>1324</ele>
        <time>2021-04-28T14:27:56Z</time>
      </trkpt>
      <trkpt lat="44.94439" lon="4.15359">
        <ele>1325</ele>
        <time>2021-04-28T14:27:57Z</time>
      </trkpt>
      <trkpt lat="44.94436" lon="4.15361">
        <ele>1325</ele>
        <time>2021-04-28T14:27:58Z</time>
      </trkpt>
      <trkpt lat="44.94433" lon="4.15364">
        <ele>1325</ele>
        <time>2021-04-28T14:27:59Z</time>
      </trkpt>
      <trkpt lat="44.9443" lon="4.15366">
        <ele>1325</ele>
        <time>2021-04-28T14:28:00Z</time>
      </trkpt>
      <trkpt lat="44.94427" lon="4.15368">
        <ele>1326</ele>
        <time>2021-04-28T14:28:01Z</time>
      </trkpt>
      <trkpt lat="44.94424" lon="4.1537">
        <ele>1326</ele>
        <time>2021-04-28T14:28:02Z</time>
      </trkpt>
      <trkpt lat="44.94421" lon="4.15372">
        <ele>1326</ele>
        <time>2021-04-28T14:28:03Z</time>
      </trkpt>
      <trkpt lat="44.94418" lon="4.15374">
        <ele>1326</ele>
        <time>2021-04-28T14:28:04Z</time>
      </trkpt>
      <trkpt lat="44.94415" lon="4.15376">
        <ele>1327</ele>
        <time>2021-04-28T14:28:05Z</time>
      </trkpt>
      <trkpt lat="44.94412" lon="4.15378">
        <ele>1327</ele>
        <time>2021-04-28T14:28:06Z</time>
      </trkpt>
      <trkpt lat="44.94409" lon="4.15379">
        <ele>1327</ele>
        <time>2021-04-28T14:28:07Z</time>
      </trkpt>
      <trkpt lat="44.94406" lon="4.15381">
        <ele>1328</ele>
        <time>2021-04-28T14:28:08Z</time>
      </trkpt>
      <trkpt lat="44.94402" lon="4.15383">
        <ele>1328</ele>
        <time>2021-04-28T14:28:09Z</time>
      </trkpt>
      <trkpt lat="44.94399" lon="4.15385">
        <ele>1328</ele>
        <time>2021-04-28T14:28:10Z</time>
      </trkpt>
      <trkpt lat="44.94396" lon="4.15386">
        <ele>1329</ele>
        <time>2021-04-28T14:28:11Z</time>
      </trkpt>
      <trkpt lat="44.94393" lon="4.15388">
        <ele>1329</ele>
        <time>2021-04-28T14:28:12Z</time>
      </trkpt>
      <trkpt lat="44.9439" lon="4.1539">
        <ele>1329</ele>
        <time>2021-04-28T14:28:13Z</time>
      </trkpt>
      <trkpt lat="44.94386" lon="4.15391">
        <ele>1330</ele>
        <time>2021-04-28T14:28:14Z</time>
      </trkpt>
      <trkpt lat="44.94383" lon="4.15392">
        <ele>1330</ele>
        <time>2021-04-28T14:28:15Z</time>
      </trkpt>
      <trkpt lat="44.9438" lon="4.15394">
        <ele>1330</ele>
        <time>2021-04-28T14:28:16Z</time>
      </trkpt>
      <trkpt lat="44.94377" lon="4.15396">
        <ele>1331</ele>
        <time>2021-04-28T14:28:17Z</time>
      </trkpt>
      <trkpt lat="44.94373" lon="4.15398">
        <ele>1331</ele>
        <time>2021-04-28T14:28:18Z</time>
      </trkpt>
      <trkpt lat="44.9437" lon="4.15399">
        <ele>1332</ele>
        <time>2021-04-28T14:28:19Z</time>
      </trkpt>
      <trkpt lat="44.94367" lon="4.15401">
        <ele>1332</ele>
        <time>2021-04-28T14:28:20Z</time>
      </trkpt>
      <trkpt lat="44.94364" lon="4.15402">
        <ele>1332</ele>
        <time>2021-04-28T14:28:21Z</time>
      </trkpt>
      <trkpt lat="44.9436" lon="4.15403">
        <ele>1333</ele>
        <time>2021-04-28T14:28:22Z</time>
      </trkpt>
      <trkpt lat="44.94357" lon="4.15405">
        <ele>1333</ele>
        <time>2021-04-28T14:28:23Z</time>
      </trkpt>
      <trkpt lat="44.94354" lon="4.15406">
        <ele>1333</ele>
        <time>2021-04-28T14:28:24Z</time>
      </trkpt>
      <trkpt lat="44.9435" lon="4.15408">
        <ele>1334</ele>
        <time>2021-04-28T14:28:25Z</time>
      </trkpt>
      <trkpt lat="44.94347" lon="4.15409">
        <ele>1334</ele>
        <time>2021-04-28T14:28:26Z</time>
      </trkpt>
      <trkpt lat="44.94343" lon="4.1541">
        <ele>1334</ele>
        <time>2021-04-28T14:28:27Z</time>
      </trkpt>
      <trkpt lat="44.9434" lon="4.1541">
        <ele>1334</ele>
        <time>2021-04-28T14:28:28Z</time>
      </trkpt>
      <trkpt lat="44.94336" lon="4.15411">
        <ele>1335</ele>
        <time>2021-04-28T14:28:29Z</time>
      </trkpt>
      <trkpt lat="44.94333" lon="4.15411">
        <ele>1335</ele>
        <time>2021-04-28T14:28:30Z</time>
      </trkpt>
      <trkpt lat="44.94329" lon="4.15412">
        <ele>1335</ele>
        <time>2021-04-28T14:28:31Z</time>
      </trkpt>
      <trkpt lat="44.94326" lon="4.15412">
        <ele>1335</ele>
        <time>2021-04-28T14:28:32Z</time>
      </trkpt>
      <trkpt lat="44.94322" lon="4.15412">
        <ele>1335</ele>
        <time>2021-04-28T14:28:33Z</time>
      </trkpt>
      <trkpt lat="44.94318" lon="4.15412">
        <ele>1335</ele>
        <time>2021-04-28T14:28:34Z</time>
      </trkpt>
      <trkpt lat="44.94315" lon="4.15412">
        <ele>1336</ele>
        <time>2021-04-28T14:28:35Z</time>
      </trkpt>
      <trkpt lat="44.94311" lon="4.15412">
        <ele>1336</ele>
        <time>2021-04-28T14:28:36Z</time>
      </trkpt>
      <trkpt lat="44.94307" lon="4.15413">
        <ele>1336</ele>
        <time>2021-04-28T14:28:37Z</time>
      </trkpt>
      <trkpt lat="44.94304" lon="4.15413">
        <ele>1336</ele>
        <time>2021-04-28T14:28:38Z</time>
      </trkpt>
      <trkpt lat="44.943" lon="4.15413">
        <ele>1337</ele>
        <time>2021-04-28T14:28:39Z</time>
      </trkpt>
      <trkpt lat="44.94296" lon="4.15412">
        <ele>1337</ele>
        <time>2021-04-28T14:28:40Z</time>
      </trkpt>
      <trkpt lat="44.94293" lon="4.15413">
        <ele>1337</ele>
        <time>2021-04-28T14:28:41Z</time>
      </trkpt>
      <trkpt lat="44.94289" lon="4.15412">
        <ele>1338</ele>
        <time>2021-04-28T14:28:42Z</time>
      </trkpt>
      <trkpt lat="44.94286" lon="4.15412">
        <ele>1338</ele>
        <time>2021-04-28T14:28:43Z</time>
      </trkpt>
      <trkpt lat="44.94282" lon="4.15412">
        <ele>1338</ele>
        <time>2021-04-28T14:28:44Z</time>
      </trkpt>
      <trkpt lat="44.94278" lon="4.15412">
        <ele>1338</ele>
        <time>2021-04-28T14:28:45Z</time>
      </trkpt>
      <trkpt lat="44.94275" lon="4.15412">
        <ele>1339</ele>
        <time>2021-04-28T14:28:46Z</time>
      </trkpt>
      <trkpt lat="44.94271" lon="4.15412">
        <ele>1339</ele>
        <time>2021-04-28T14:28:47Z</time>
      </trkpt>
      <trkpt lat="44.94267" lon="4.15412">
        <ele>1339</ele>
        <time>2021-04-28T14:28:48Z</time>
      </trkpt>
      <trkpt lat="44.94264" lon="4.15412">
        <ele>1339</ele>
        <time>2021-04-28T14:28:49Z</time>
      </trkpt>
      <trkpt lat="44.9426" lon="4.15412">
        <ele>1340</ele>
        <time>2021-04-28T14:28:50Z</time>
      </trkpt>
      <trkpt lat="44.94256" lon="4.15412">
        <ele>1340</ele>
        <time>2021-04-28T14:28:51Z</time>
      </trkpt>
      <trkpt lat="44.94252" lon="4.15412">
        <ele>1340</ele>
        <time>2021-04-28T14:28:52Z</time>
      </trkpt>
      <trkpt lat="44.94248" lon="4.15412">
        <ele>1341</ele>
        <time>2021-04-28T14:28:53Z</time>
      </trkpt>
      <trkpt lat="44.94244" lon="4.15412">
        <ele>1341</ele>
        <time>2021-04-28T14:28:54Z</time>
      </trkpt>
      <trkpt lat="44.94241" lon="4.15412">
        <ele>1341</ele>
        <time>2021-04-28T14:28:55Z</time>
      </trkpt>
      <trkpt lat="44.94237" lon="4.15413">
        <ele>1342</ele>
        <time>2021-04-28T14:28:56Z</time>
      </trkpt>
      <trkpt lat="44.94233" lon="4.15413">
        <ele>1342</ele>
        <time>2021-04-28T14:28:57Z</time>
      </trkpt>
      <trkpt lat="44.94229" lon="4.15413">
        <ele>1342</ele>
        <time>2021-04-28T14:28:58Z</time>
      </trkpt>
      <trkpt lat="44.94226" lon="4.15413">
        <ele>1343</ele>
        <time>2021-04-28T14:28:59Z</time>
      </trkpt>
      <trkpt lat="44.94222" lon="4.15413">
        <ele>1343</ele>
        <time>2021-04-28T14:29:00Z</time>
      </trkpt>
      <trkpt lat="44.94218" lon="4.15413">
        <ele>1343</ele>
        <time>2021-04-28T14:29:01Z</time>
      </trkpt>
      <trkpt lat="44.94214" lon="4.15413">
        <ele>1344</ele>
        <time>2021-04-28T14:29:02Z</time>
      </trkpt>
      <trkpt lat="44.9421" lon="4.15413">
        <ele>1344</ele>
        <time>2021-04-28T14:29:03Z</time>
      </trkpt>
      <trkpt lat="44.94206" lon="4.15413">
        <ele>1344</ele>
        <time>2021-04-28T14:29:04Z</time>
      </trkpt>
      <trkpt lat="44.94203" lon="4.15413">
        <ele>1344</ele>
        <time>2021-04-28T14:29:05Z</time>
      </trkpt>
      <trkpt lat="44.94199" lon="4.15413">
        <ele>1345</ele>
        <time>2021-04-28T14:29:06Z</time>
      </trkpt>
      <trkpt lat="44.94195" lon="4.15413">
        <ele>1345</ele>
        <time>2021-04-28T14:29:07Z</time>
      </trkpt>
      <trkpt lat="44.94191" lon="4.15413">
        <ele>1345</ele>
        <time>2021-04-28T14:29:08Z</time>
      </trkpt>
      <trkpt lat="44.94187" lon="4.15414">
        <ele>1345</ele>
        <time>2021-04-28T14:29:09Z</time>
      </trkpt>
      <trkpt lat="44.94183" lon="4.15413">
        <ele>1345</ele>
        <time>2021-04-28T14:29:10Z</time>
      </trkpt>
      <trkpt lat="44.94179" lon="4.15413">
        <ele>1346</ele>
        <time>2021-04-28T14:29:11Z</time>
      </trkpt>
      <trkpt lat="44.94175" lon="4.15414">
        <ele>1346</ele>
        <time>2021-04-28T14:29:12Z</time>
      </trkpt>
      <trkpt lat="44.94171" lon="4.15414">
        <ele>1346</ele>
        <time>2021-04-28T14:29:13Z</time>
      </trkpt>
      <trkpt lat="44.94167" lon="4.15414">
        <ele>1346</ele>
        <time>2021-04-28T14:29:14Z</time>
      </trkpt>
      <trkpt lat="44.94163" lon="4.15414">
        <ele>1347</ele>
        <time>2021-04-28T14:29:15Z</time>
      </trkpt>
      <trkpt lat="44.94159" lon="4.15414">
        <ele>1347</ele>
        <time>2021-04-28T14:29:16Z</time>
      </trkpt>
      <trkpt lat="44.94155" lon="4.15414">
        <ele>1347</ele>
        <time>2021-04-28T14:29:17Z</time>
      </trkpt>
      <trkpt lat="44.9415" lon="4.15414">
        <ele>1347</ele>
        <time>2021-04-28T14:29:18Z</time>
      </trkpt>
      <trkpt lat="44.94146" lon="4.15414">
        <ele>1348</ele>
        <time>2021-04-28T14:29:19Z</time>
      </trkpt>
      <trkpt lat="44.94142" lon="4.15413">
        <ele>1348</ele>
        <time>2021-04-28T14:29:20Z</time>
      </trkpt>
      <trkpt lat="44.94138" lon="4.15413">
        <ele>1348</ele>
        <time>2021-04-28T14:29:21Z</time>
      </trkpt>
      <trkpt lat="44.94133" lon="4.15413">
        <ele>1348</ele>
        <time>2021-04-28T14:29:22Z</time>
      </trkpt>
      <trkpt lat="44.94129" lon="4.15412">
        <ele>1349</ele>
        <time>2021-04-28T14:29:23Z</time>
      </trkpt>
      <trkpt lat="44.94125" lon="4.15412">
        <ele>1349</ele>
        <time>2021-04-28T14:29:24Z</time>
      </trkpt>
      <trkpt lat="44.94121" lon="4.15412">
        <ele>1349</ele>
        <time>2021-04-28T14:29:25Z</time>
      </trkpt>
      <trkpt lat="44.94117" lon="4.15412">
        <ele>1350</ele>
        <time>2021-04-28T14:29:26Z</time>
      </trkpt>
      <trkpt lat="44.94112" lon="4.15412">
        <ele>1350</ele>
        <time>2021-04-28T14:29:27Z</time>
      </trkpt>
      <trkpt lat="44.94108" lon="4.15411">
        <ele>1350</ele>
        <time>2021-04-28T14:29:28Z</time>
      </trkpt>
      <trkpt lat="44.94104" lon="4.15411">
        <ele>1350</ele>
        <time>2021-04-28T14:29:29Z</time>
      </trkpt>
      <trkpt lat="44.94099" lon="4.1541">
        <ele>1350</ele>
        <time>2021-04-28T14:29:30Z</time>
      </trkpt>
      <trkpt lat="44.94095" lon="4.15409">
        <ele>1351</ele>
        <time>2021-04-28T14:29:31Z</time>
      </trkpt>
      <trkpt lat="44.94091" lon="4.15408">
        <ele>1351</ele>
        <time>2021-04-28T14:29:32Z</time>
      </trkpt>
      <trkpt lat="44.94086" lon="4.15407">
        <ele>1351</ele>
        <time>2021-04-28T14:29:33Z</time>
      </trkpt>
      <trkpt lat="44.94082" lon="4.15406">
        <ele>1351</ele>
        <time>2021-04-28T14:29:34Z</time>
      </trkpt>
      <trkpt lat="44.94078" lon="4.15404">
        <ele>1352</ele>
        <time>2021-04-28T14:29:35Z</time>
      </trkpt>
      <trkpt lat="44.94074" lon="4.15402">
        <ele>1352</ele>
        <time>2021-04-28T14:29:36Z</time>
      </trkpt>
      <trkpt lat="44.9407" lon="4.15399">
        <ele>1352</ele>
        <time>2021-04-28T14:29:37Z</time>
      </trkpt>
      <trkpt lat="44.94066" lon="4.15396">
        <ele>1352</ele>
        <time>2021-04-28T14:29:38Z</time>
      </trkpt>
      <trkpt lat="44.94063" lon="4.15393">
        <ele>1353</ele>
        <time>2021-04-28T14:29:39Z</time>
      </trkpt>
      <trkpt lat="44.94059" lon="4.1539">
        <ele>1353</ele>
        <time>2021-04-28T14:29:40Z</time>
      </trkpt>
      <trkpt lat="44.94056" lon="4.15387">
        <ele>1353</ele>
        <time>2021-04-28T14:29:41Z</time>
      </trkpt>
      <trkpt lat="44.94052" lon="4.15385">
        <ele>1354</ele>
        <time>2021-04-28T14:29:42Z</time>
      </trkpt>
      <trkpt lat="44.94048" lon="4.15382">
        <ele>1354</ele>
        <time>2021-04-28T14:29:43Z</time>
      </trkpt>
      <trkpt lat="44.94045" lon="4.1538">
        <ele>1354</ele>
        <time>2021-04-28T14:29:44Z</time>
      </trkpt>
      <trkpt lat="44.94041" lon="4.15377">
        <ele>1355</ele>
        <time>2021-04-28T14:29:45Z</time>
      </trkpt>
      <trkpt lat="44.94038" lon="4.15375">
        <ele>1355</ele>
        <time>2021-04-28T14:29:46Z</time>
      </trkpt>
      <trkpt lat="44.94034" lon="4.15372">
        <ele>1356</ele>
        <time>2021-04-28T14:29:47Z</time>
      </trkpt>
      <trkpt lat="44.94031" lon="4.1537">
        <ele>1356</ele>
        <time>2021-04-28T14:29:48Z</time>
      </trkpt>
      <trkpt lat="44.94028" lon="4.15367">
        <ele>1357</ele>
        <time>2021-04-28T14:29:49Z</time>
      </trkpt>
      <trkpt lat="44.94024" lon="4.15364">
        <ele>1357</ele>
        <time>2021-04-28T14:29:50Z</time>
      </trkpt>
      <trkpt lat="44.9402" lon="4.15362">
        <ele>1358</ele>
        <time>2021-04-28T14:29:51Z</time>
      </trkpt>
      <trkpt lat="44.94017" lon="4.15359">
        <ele>1358</ele>
        <time>2021-04-28T14:29:52Z</time>
      </trkpt>
      <trkpt lat="44.94014" lon="4.15356">
        <ele>1359</ele>
        <time>2021-04-28T14:29:53Z</time>
      </trkpt>
      <trkpt lat="44.9401" lon="4.15354">
        <ele>1359</ele>
        <time>2021-04-28T14:29:54Z</time>
      </trkpt>
      <trkpt lat="44.94007" lon="4.15351">
        <ele>1359</ele>
        <time>2021-04-28T14:29:55Z</time>
      </trkpt>
      <trkpt lat="44.94003" lon="4.15349">
        <ele>1360</ele>
        <time>2021-04-28T14:29:56Z</time>
      </trkpt>
      <trkpt lat="44.94" lon="4.15347">
        <ele>1360</ele>
        <time>2021-04-28T14:29:57Z</time>
      </trkpt>
      <trkpt lat="44.93992" lon="4.15343">
        <ele>1360</ele>
        <time>2021-04-28T14:29:59Z</time>
      </trkpt>
      <trkpt lat="44.93987" lon="4.15341">
        <ele>1361</ele>
        <time>2021-04-28T14:30:00Z</time>
      </trkpt>
      <trkpt lat="44.93982" lon="4.15339">
        <ele>1362</ele>
        <time>2021-04-28T14:30:01Z</time>
      </trkpt>
      <trkpt lat="44.93978" lon="4.15338">
        <ele>1362</ele>
        <time>2021-04-28T14:30:02Z</time>
      </trkpt>
      <trkpt lat="44.93973" lon="4.15338">
        <ele>1362</ele>
        <time>2021-04-28T14:30:03Z</time>
      </trkpt>
      <trkpt lat="44.93969" lon="4.15336">
        <ele>1363</ele>
        <time>2021-04-28T14:30:04Z</time>
      </trkpt>
      <trkpt lat="44.93965" lon="4.15336">
        <ele>1363</ele>
        <time>2021-04-28T14:30:05Z</time>
      </trkpt>
      <trkpt lat="44.93962" lon="4.15336">
        <ele>1363</ele>
        <time>2021-04-28T14:30:06Z</time>
      </trkpt>
      <trkpt lat="44.93957" lon="4.15336">
        <ele>1364</ele>
        <time>2021-04-28T14:30:07Z</time>
      </trkpt>
      <trkpt lat="44.93952" lon="4.15336">
        <ele>1364</ele>
        <time>2021-04-28T14:30:08Z</time>
      </trkpt>
      <trkpt lat="44.93947" lon="4.15335">
        <ele>1364</ele>
        <time>2021-04-28T14:30:09Z</time>
      </trkpt>
      <trkpt lat="44.93941" lon="4.15336">
        <ele>1364</ele>
        <time>2021-04-28T14:30:10Z</time>
      </trkpt>
      <trkpt lat="44.93937" lon="4.15335">
        <ele>1365</ele>
        <time>2021-04-28T14:30:11Z</time>
      </trkpt>
      <trkpt lat="44.93932" lon="4.15335">
        <ele>1365</ele>
        <time>2021-04-28T14:30:12Z</time>
      </trkpt>
      <trkpt lat="44.93927" lon="4.15334">
        <ele>1365</ele>
        <time>2021-04-28T14:30:13Z</time>
      </trkpt>
      <trkpt lat="44.93923" lon="4.15334">
        <ele>1365</ele>
        <time>2021-04-28T14:30:14Z</time>
      </trkpt>
      <trkpt lat="44.93918" lon="4.15334">
        <ele>1365</ele>
        <time>2021-04-28T14:30:15Z</time>
      </trkpt>
      <trkpt lat="44.93913" lon="4.15334">
        <ele>1366</ele>
        <time>2021-04-28T14:30:16Z</time>
      </trkpt>
      <trkpt lat="44.93908" lon="4.15333">
        <ele>1366</ele>
        <time>2021-04-28T14:30:17Z</time>
      </trkpt>
      <trkpt lat="44.93903" lon="4.15332">
        <ele>1366</ele>
        <time>2021-04-28T14:30:18Z</time>
      </trkpt>
      <trkpt lat="44.93898" lon="4.1533">
        <ele>1366</ele>
        <time>2021-04-28T14:30:19Z</time>
      </trkpt>
      <trkpt lat="44.93894" lon="4.15327">
        <ele>1367</ele>
        <time>2021-04-28T14:30:20Z</time>
      </trkpt>
      <trkpt lat="44.93889" lon="4.15324">
        <ele>1367</ele>
        <time>2021-04-28T14:30:21Z</time>
      </trkpt>
      <trkpt lat="44.93885" lon="4.15321">
        <ele>1367</ele>
        <time>2021-04-28T14:30:22Z</time>
      </trkpt>
      <trkpt lat="44.93881" lon="4.15318">
        <ele>1367</ele>
        <time>2021-04-28T14:30:23Z</time>
      </trkpt>
      <trkpt lat="44.93876" lon="4.15315">
        <ele>1368</ele>
        <time>2021-04-28T14:30:24Z</time>
      </trkpt>
      <trkpt lat="44.9387" lon="4.15311">
        <ele>1367</ele>
        <time>2021-04-28T14:30:25Z</time>
      </trkpt>
      <trkpt lat="44.93865" lon="4.15308">
        <ele>1368</ele>
        <time>2021-04-28T14:30:26Z</time>
      </trkpt>
      <trkpt lat="44.93859" lon="4.15305">
        <ele>1368</ele>
        <time>2021-04-28T14:30:27Z</time>
      </trkpt>
      <trkpt lat="44.93855" lon="4.15303">
        <ele>1368</ele>
        <time>2021-04-28T14:30:28Z</time>
      </trkpt>
      <trkpt lat="44.93851" lon="4.15303">
        <ele>1368</ele>
        <time>2021-04-28T14:30:29Z</time>
      </trkpt>
      <trkpt lat="44.93847" lon="4.15302">
        <ele>1368</ele>
        <time>2021-04-28T14:30:30Z</time>
      </trkpt>
      <trkpt lat="44.93842" lon="4.15301">
        <ele>1368</ele>
        <time>2021-04-28T14:30:31Z</time>
      </trkpt>
      <trkpt lat="44.93838" lon="4.153">
        <ele>1369</ele>
        <time>2021-04-28T14:30:32Z</time>
      </trkpt>
      <trkpt lat="44.93834" lon="4.15299">
        <ele>1369</ele>
        <time>2021-04-28T14:30:33Z</time>
      </trkpt>
      <trkpt lat="44.9383" lon="4.15299">
        <ele>1369</ele>
        <time>2021-04-28T14:30:34Z</time>
      </trkpt>
      <trkpt lat="44.93826" lon="4.15298">
        <ele>1369</ele>
        <time>2021-04-28T14:30:35Z</time>
      </trkpt>
      <trkpt lat="44.93823" lon="4.15296">
        <ele>1369</ele>
        <time>2021-04-28T14:30:36Z</time>
      </trkpt>
      <trkpt lat="44.93819" lon="4.15293">
        <ele>1370</ele>
        <time>2021-04-28T14:30:37Z</time>
      </trkpt>
      <trkpt lat="44.93816" lon="4.15289">
        <ele>1370</ele>
        <time>2021-04-28T14:30:38Z</time>
      </trkpt>
      <trkpt lat="44.93813" lon="4.15286">
        <ele>1370</ele>
        <time>2021-04-28T14:30:39Z</time>
      </trkpt>
      <trkpt lat="44.93809" lon="4.15282">
        <ele>1370</ele>
        <time>2021-04-28T14:30:40Z</time>
      </trkpt>
      <trkpt lat="44.93805" lon="4.15279">
        <ele>1370</ele>
        <time>2021-04-28T14:30:41Z</time>
      </trkpt>
      <trkpt lat="44.93802" lon="4.15274">
        <ele>1371</ele>
        <time>2021-04-28T14:30:42Z</time>
      </trkpt>
      <trkpt lat="44.93798" lon="4.1527">
        <ele>1371</ele>
        <time>2021-04-28T14:30:43Z</time>
      </trkpt>
      <trkpt lat="44.93794" lon="4.15265">
        <ele>1371</ele>
        <time>2021-04-28T14:30:44Z</time>
      </trkpt>
      <trkpt lat="44.93791" lon="4.15261">
        <ele>1372</ele>
        <time>2021-04-28T14:30:45Z</time>
      </trkpt>
      <trkpt lat="44.93788" lon="4.15258">
        <ele>1372</ele>
        <time>2021-04-28T14:30:46Z</time>
      </trkpt>
      <trkpt lat="44.93785" lon="4.15254">
        <ele>1372</ele>
        <time>2021-04-28T14:30:47Z</time>
      </trkpt>
      <trkpt lat="44.93783" lon="4.1525">
        <ele>1373</ele>
        <time>2021-04-28T14:30:48Z</time>
      </trkpt>
      <trkpt lat="44.93779" lon="4.15245">
        <ele>1373</ele>
        <time>2021-04-28T14:30:49Z</time>
      </trkpt>
      <trkpt lat="44.93776" lon="4.1524">
        <ele>1373</ele>
        <time>2021-04-28T14:30:50Z</time>
      </trkpt>
      <trkpt lat="44.93774" lon="4.15234">
        <ele>1373</ele>
        <time>2021-04-28T14:30:51Z</time>
      </trkpt>
      <trkpt lat="44.93771" lon="4.15229">
        <ele>1374</ele>
        <time>2021-04-28T14:30:52Z</time>
      </trkpt>
      <trkpt lat="44.93768" lon="4.15225">
        <ele>1374</ele>
        <time>2021-04-28T14:30:53Z</time>
      </trkpt>
      <trkpt lat="44.93766" lon="4.15221">
        <ele>1374</ele>
        <time>2021-04-28T14:30:54Z</time>
      </trkpt>
      <trkpt lat="44.93764" lon="4.15217">
        <ele>1374</ele>
        <time>2021-04-28T14:30:55Z</time>
      </trkpt>
      <trkpt lat="44.93762" lon="4.15213">
        <ele>1375</ele>
        <time>2021-04-28T14:30:56Z</time>
      </trkpt>
      <trkpt lat="44.93759" lon="4.15209">
        <ele>1375</ele>
        <time>2021-04-28T14:30:57Z</time>
      </trkpt>
      <trkpt lat="44.93757" lon="4.15204">
        <ele>1375</ele>
        <time>2021-04-28T14:30:58Z</time>
      </trkpt>
      <trkpt lat="44.93754" lon="4.152">
        <ele>1375</ele>
        <time>2021-04-28T14:30:59Z</time>
      </trkpt>
      <trkpt lat="44.93752" lon="4.15195">
        <ele>1375</ele>
        <time>2021-04-28T14:31:00Z</time>
      </trkpt>
      <trkpt lat="44.9375" lon="4.15191">
        <ele>1375</ele>
        <time>2021-04-28T14:31:01Z</time>
      </trkpt>
      <trkpt lat="44.93748" lon="4.15187">
        <ele>1374</ele>
        <time>2021-04-28T14:31:02Z</time>
      </trkpt>
      <trkpt lat="44.93746" lon="4.15183">
        <ele>1374</ele>
        <time>2021-04-28T14:31:03Z</time>
      </trkpt>
      <trkpt lat="44.93745" lon="4.1518">
        <ele>1374</ele>
        <time>2021-04-28T14:31:04Z</time>
      </trkpt>
      <trkpt lat="44.93744" lon="4.15178">
        <ele>1374</ele>
        <time>2021-04-28T14:31:05Z</time>
      </trkpt>
      <trkpt lat="44.93742" lon="4.15176">
        <ele>1374</ele>
        <time>2021-04-28T14:31:06Z</time>
      </trkpt>
      <trkpt lat="44.9374" lon="4.15174">
        <ele>1374</ele>
        <time>2021-04-28T14:31:09Z</time>
      </trkpt>
      <trkpt lat="44.93737" lon="4.15175">
        <ele>1373</ele>
        <time>2021-04-28T14:32:19Z</time>
      </trkpt>
      <trkpt lat="44.93735" lon="4.15177">
        <ele>1373</ele>
        <time>2021-04-28T14:32:24Z</time>
      </trkpt>
      <trkpt lat="44.93732" lon="4.15178">
        <ele>1373</ele>
        <time>2021-04-28T14:32:26Z</time>
      </trkpt>
      <trkpt lat="44.9373" lon="4.15179">
        <ele>1373</ele>
        <time>2021-04-28T14:32:27Z</time>
      </trkpt>
      <trkpt lat="44.93728" lon="4.15181">
        <ele>1373</ele>
        <time>2021-04-28T14:32:28Z</time>
      </trkpt>
      <trkpt lat="44.93725" lon="4.15183">
        <ele>1373</ele>
        <time>2021-04-28T14:32:29Z</time>
      </trkpt>
      <trkpt lat="44.93722" lon="4.15184">
        <ele>1374</ele>
        <time>2021-04-28T14:32:30Z</time>
      </trkpt>
      <trkpt lat="44.93719" lon="4.15186">
        <ele>1374</ele>
        <time>2021-04-28T14:32:31Z</time>
      </trkpt>
      <trkpt lat="44.93715" lon="4.15188">
        <ele>1374</ele>
        <time>2021-04-28T14:32:32Z</time>
      </trkpt>
      <trkpt lat="44.93712" lon="4.1519">
        <ele>1374</ele>
        <time>2021-04-28T14:32:33Z</time>
      </trkpt>
      <trkpt lat="44.93708" lon="4.15192">
        <ele>1374</ele>
        <time>2021-04-28T14:32:34Z</time>
      </trkpt>
      <trkpt lat="44.93705" lon="4.15194">
        <ele>1374</ele>
        <time>2021-04-28T14:32:35Z</time>
      </trkpt>
      <trkpt lat="44.93701" lon="4.15196">
        <ele>1374</ele>
        <time>2021-04-28T14:32:36Z</time>
      </trkpt>
      <trkpt lat="44.93697" lon="4.15198">
        <ele>1374</ele>
        <time>2021-04-28T14:32:37Z</time>
      </trkpt>
      <trkpt lat="44.93693" lon="4.152">
        <ele>1374</ele>
        <time>2021-04-28T14:32:38Z</time>
      </trkpt>
      <trkpt lat="44.9369" lon="4.15202">
        <ele>1374</ele>
        <time>2021-04-28T14:32:39Z</time>
      </trkpt>
      <trkpt lat="44.93686" lon="4.15204">
        <ele>1374</ele>
        <time>2021-04-28T14:32:40Z</time>
      </trkpt>
      <trkpt lat="44.93682" lon="4.15206">
        <ele>1374</ele>
        <time>2021-04-28T14:32:41Z</time>
      </trkpt>
      <trkpt lat="44.93678" lon="4.15209">
        <ele>1374</ele>
        <time>2021-04-28T14:32:42Z</time>
      </trkpt>
      <trkpt lat="44.93674" lon="4.15211">
        <ele>1374</ele>
        <time>2021-04-28T14:32:43Z</time>
      </trkpt>
      <trkpt lat="44.9367" lon="4.15213">
        <ele>1375</ele>
        <time>2021-04-28T14:32:44Z</time>
      </trkpt>
      <trkpt lat="44.93666" lon="4.15215">
        <ele>1375</ele>
        <time>2021-04-28T14:32:45Z</time>
      </trkpt>
      <trkpt lat="44.93662" lon="4.15217">
        <ele>1375</ele>
        <time>2021-04-28T14:32:46Z</time>
      </trkpt>
      <trkpt lat="44.93659" lon="4.15219">
        <ele>1375</ele>
        <time>2021-04-28T14:32:47Z</time>
      </trkpt>
      <trkpt lat="44.93655" lon="4.15222">
        <ele>1375</ele>
        <time>2021-04-28T14:32:48Z</time>
      </trkpt>
      <trkpt lat="44.93651" lon="4.15224">
        <ele>1375</ele>
        <time>2021-04-28T14:32:49Z</time>
      </trkpt>
      <trkpt lat="44.93648" lon="4.15226">
        <ele>1375</ele>
        <time>2021-04-28T14:32:50Z</time>
      </trkpt>
      <trkpt lat="44.93644" lon="4.15229">
        <ele>1376</ele>
        <time>2021-04-28T14:32:51Z</time>
      </trkpt>
      <trkpt lat="44.9364" lon="4.15231">
        <ele>1376</ele>
        <time>2021-04-28T14:32:52Z</time>
      </trkpt>
      <trkpt lat="44.93637" lon="4.15234">
        <ele>1376</ele>
        <time>2021-04-28T14:32:53Z</time>
      </trkpt>
      <trkpt lat="44.93633" lon="4.15236">
        <ele>1376</ele>
        <time>2021-04-28T14:32:54Z</time>
      </trkpt>
      <trkpt lat="44.93629" lon="4.15238">
        <ele>1377</ele>
        <time>2021-04-28T14:32:55Z</time>
      </trkpt>
      <trkpt lat="44.93625" lon="4.1524">
        <ele>1377</ele>
        <time>2021-04-28T14:32:56Z</time>
      </trkpt>
      <trkpt lat="44.93622" lon="4.15243">
        <ele>1377</ele>
        <time>2021-04-28T14:32:57Z</time>
      </trkpt>
      <trkpt lat="44.93618" lon="4.15245">
        <ele>1377</ele>
        <time>2021-04-28T14:32:58Z</time>
      </trkpt>
      <trkpt lat="44.93614" lon="4.15248">
        <ele>1377</ele>
        <time>2021-04-28T14:32:59Z</time>
      </trkpt>
      <trkpt lat="44.9361" lon="4.1525">
        <ele>1377</ele>
        <time>2021-04-28T14:33:00Z</time>
      </trkpt>
      <trkpt lat="44.93607" lon="4.15252">
        <ele>1378</ele>
        <time>2021-04-28T14:33:01Z</time>
      </trkpt>
      <trkpt lat="44.93603" lon="4.15255">
        <ele>1378</ele>
        <time>2021-04-28T14:33:02Z</time>
      </trkpt>
      <trkpt lat="44.93599" lon="4.15257">
        <ele>1378</ele>
        <time>2021-04-28T14:33:03Z</time>
      </trkpt>
      <trkpt lat="44.93596" lon="4.1526">
        <ele>1378</ele>
        <time>2021-04-28T14:33:04Z</time>
      </trkpt>
      <trkpt lat="44.93592" lon="4.15262">
        <ele>1378</ele>
        <time>2021-04-28T14:33:05Z</time>
      </trkpt>
      <trkpt lat="44.93588" lon="4.15264">
        <ele>1379</ele>
        <time>2021-04-28T14:33:06Z</time>
      </trkpt>
      <trkpt lat="44.93585" lon="4.15267">
        <ele>1379</ele>
        <time>2021-04-28T14:33:07Z</time>
      </trkpt>
      <trkpt lat="44.93581" lon="4.15269">
        <ele>1379</ele>
        <time>2021-04-28T14:33:08Z</time>
      </trkpt>
      <trkpt lat="44.93578" lon="4.15271">
        <ele>1379</ele>
        <time>2021-04-28T14:33:09Z</time>
      </trkpt>
      <trkpt lat="44.93574" lon="4.15274">
        <ele>1380</ele>
        <time>2021-04-28T14:33:10Z</time>
      </trkpt>
      <trkpt lat="44.93571" lon="4.15277">
        <ele>1380</ele>
        <time>2021-04-28T14:33:11Z</time>
      </trkpt>
      <trkpt lat="44.93567" lon="4.15279">
        <ele>1380</ele>
        <time>2021-04-28T14:33:12Z</time>
      </trkpt>
      <trkpt lat="44.93564" lon="4.15282">
        <ele>1380</ele>
        <time>2021-04-28T14:33:13Z</time>
      </trkpt>
      <trkpt lat="44.9356" lon="4.15284">
        <ele>1380</ele>
        <time>2021-04-28T14:33:14Z</time>
      </trkpt>
      <trkpt lat="44.93556" lon="4.15286">
        <ele>1381</ele>
        <time>2021-04-28T14:33:15Z</time>
      </trkpt>
      <trkpt lat="44.93552" lon="4.15288">
        <ele>1381</ele>
        <time>2021-04-28T14:33:16Z</time>
      </trkpt>
      <trkpt lat="44.93549" lon="4.1529">
        <ele>1381</ele>
        <time>2021-04-28T14:33:17Z</time>
      </trkpt>
      <trkpt lat="44.93545" lon="4.15293">
        <ele>1381</ele>
        <time>2021-04-28T14:33:18Z</time>
      </trkpt>
      <trkpt lat="44.93542" lon="4.15295">
        <ele>1381</ele>
        <time>2021-04-28T14:33:19Z</time>
      </trkpt>
      <trkpt lat="44.93538" lon="4.15297">
        <ele>1382</ele>
        <time>2021-04-28T14:33:20Z</time>
      </trkpt>
      <trkpt lat="44.93535" lon="4.153">
        <ele>1382</ele>
        <time>2021-04-28T14:33:21Z</time>
      </trkpt>
      <trkpt lat="44.93531" lon="4.15302">
        <ele>1382</ele>
        <time>2021-04-28T14:33:22Z</time>
      </trkpt>
      <trkpt lat="44.93528" lon="4.15305">
        <ele>1382</ele>
        <time>2021-04-28T14:33:23Z</time>
      </trkpt>
      <trkpt lat="44.93524" lon="4.15308">
        <ele>1382</ele>
        <time>2021-04-28T14:33:24Z</time>
      </trkpt>
      <trkpt lat="44.93521" lon="4.15311">
        <ele>1383</ele>
        <time>2021-04-28T14:33:25Z</time>
      </trkpt>
      <trkpt lat="44.93518" lon="4.15314">
        <ele>1383</ele>
        <time>2021-04-28T14:33:26Z</time>
      </trkpt>
      <trkpt lat="44.93514" lon="4.15316">
        <ele>1383</ele>
        <time>2021-04-28T14:33:27Z</time>
      </trkpt>
      <trkpt lat="44.93511" lon="4.15319">
        <ele>1384</ele>
        <time>2021-04-28T14:33:28Z</time>
      </trkpt>
      <trkpt lat="44.93507" lon="4.15322">
        <ele>1384</ele>
        <time>2021-04-28T14:33:29Z</time>
      </trkpt>
      <trkpt lat="44.93504" lon="4.15324">
        <ele>1384</ele>
        <time>2021-04-28T14:33:30Z</time>
      </trkpt>
      <trkpt lat="44.935" lon="4.15327">
        <ele>1384</ele>
        <time>2021-04-28T14:33:31Z</time>
      </trkpt>
      <trkpt lat="44.93497" lon="4.15329">
        <ele>1385</ele>
        <time>2021-04-28T14:33:32Z</time>
      </trkpt>
      <trkpt lat="44.93493" lon="4.15332">
        <ele>1385</ele>
        <time>2021-04-28T14:33:33Z</time>
      </trkpt>
      <trkpt lat="44.9349" lon="4.15334">
        <ele>1385</ele>
        <time>2021-04-28T14:33:34Z</time>
      </trkpt>
      <trkpt lat="44.93486" lon="4.15337">
        <ele>1386</ele>
        <time>2021-04-28T14:33:35Z</time>
      </trkpt>
      <trkpt lat="44.93483" lon="4.15339">
        <ele>1386</ele>
        <time>2021-04-28T14:33:36Z</time>
      </trkpt>
      <trkpt lat="44.93479" lon="4.15342">
        <ele>1386</ele>
        <time>2021-04-28T14:33:37Z</time>
      </trkpt>
      <trkpt lat="44.93476" lon="4.15345">
        <ele>1387</ele>
        <time>2021-04-28T14:33:38Z</time>
      </trkpt>
      <trkpt lat="44.93472" lon="4.15348">
        <ele>1387</ele>
        <time>2021-04-28T14:33:39Z</time>
      </trkpt>
      <trkpt lat="44.93469" lon="4.1535">
        <ele>1387</ele>
        <time>2021-04-28T14:33:40Z</time>
      </trkpt>
      <trkpt lat="44.93465" lon="4.15353">
        <ele>1387</ele>
        <time>2021-04-28T14:33:41Z</time>
      </trkpt>
      <trkpt lat="44.93462" lon="4.15356">
        <ele>1388</ele>
        <time>2021-04-28T14:33:42Z</time>
      </trkpt>
      <trkpt lat="44.93459" lon="4.15359">
        <ele>1388</ele>
        <time>2021-04-28T14:33:43Z</time>
      </trkpt>
      <trkpt lat="44.93455" lon="4.15361">
        <ele>1388</ele>
        <time>2021-04-28T14:33:44Z</time>
      </trkpt>
      <trkpt lat="44.93452" lon="4.15364">
        <ele>1388</ele>
        <time>2021-04-28T14:33:45Z</time>
      </trkpt>
      <trkpt lat="44.93448" lon="4.15366">
        <ele>1389</ele>
        <time>2021-04-28T14:33:46Z</time>
      </trkpt>
      <trkpt lat="44.93445" lon="4.15369">
        <ele>1389</ele>
        <time>2021-04-28T14:33:47Z</time>
      </trkpt>
      <trkpt lat="44.93441" lon="4.15371">
        <ele>1389</ele>
        <time>2021-04-28T14:33:48Z</time>
      </trkpt>
      <trkpt lat="44.93437" lon="4.15373">
        <ele>1389</ele>
        <time>2021-04-28T14:33:49Z</time>
      </trkpt>
      <trkpt lat="44.93434" lon="4.15376">
        <ele>1390</ele>
        <time>2021-04-28T14:33:50Z</time>
      </trkpt>
      <trkpt lat="44.9343" lon="4.15379">
        <ele>1390</ele>
        <time>2021-04-28T14:33:51Z</time>
      </trkpt>
      <trkpt lat="44.93427" lon="4.15381">
        <ele>1390</ele>
        <time>2021-04-28T14:33:52Z</time>
      </trkpt>
      <trkpt lat="44.93423" lon="4.15384">
        <ele>1391</ele>
        <time>2021-04-28T14:33:53Z</time>
      </trkpt>
      <trkpt lat="44.9342" lon="4.15387">
        <ele>1391</ele>
        <time>2021-04-28T14:33:54Z</time>
      </trkpt>
      <trkpt lat="44.93416" lon="4.15389">
        <ele>1391</ele>
        <time>2021-04-28T14:33:55Z</time>
      </trkpt>
      <trkpt lat="44.93413" lon="4.15392">
        <ele>1392</ele>
        <time>2021-04-28T14:33:56Z</time>
      </trkpt>
      <trkpt lat="44.93409" lon="4.15394">
        <ele>1392</ele>
        <time>2021-04-28T14:33:57Z</time>
      </trkpt>
      <trkpt lat="44.93406" lon="4.15397">
        <ele>1392</ele>
        <time>2021-04-28T14:33:58Z</time>
      </trkpt>
      <trkpt lat="44.93402" lon="4.15399">
        <ele>1392</ele>
        <time>2021-04-28T14:33:59Z</time>
      </trkpt>
      <trkpt lat="44.93399" lon="4.15402">
        <ele>1393</ele>
        <time>2021-04-28T14:34:00Z</time>
      </trkpt>
      <trkpt lat="44.93395" lon="4.15404">
        <ele>1393</ele>
        <time>2021-04-28T14:34:01Z</time>
      </trkpt>
      <trkpt lat="44.93391" lon="4.15406">
        <ele>1393</ele>
        <time>2021-04-28T14:34:02Z</time>
      </trkpt>
      <trkpt lat="44.93388" lon="4.15408">
        <ele>1394</ele>
        <time>2021-04-28T14:34:03Z</time>
      </trkpt>
      <trkpt lat="44.93384" lon="4.1541">
        <ele>1394</ele>
        <time>2021-04-28T14:34:04Z</time>
      </trkpt>
      <trkpt lat="44.9338" lon="4.15412">
        <ele>1394</ele>
        <time>2021-04-28T14:34:05Z</time>
      </trkpt>
      <trkpt lat="44.93377" lon="4.15415">
        <ele>1394</ele>
        <time>2021-04-28T14:34:06Z</time>
      </trkpt>
      <trkpt lat="44.93373" lon="4.15417">
        <ele>1395</ele>
        <time>2021-04-28T14:34:07Z</time>
      </trkpt>
      <trkpt lat="44.9337" lon="4.1542">
        <ele>1395</ele>
        <time>2021-04-28T14:34:08Z</time>
      </trkpt>
      <trkpt lat="44.93367" lon="4.15423">
        <ele>1395</ele>
        <time>2021-04-28T14:34:09Z</time>
      </trkpt>
      <trkpt lat="44.93365" lon="4.15425">
        <ele>1396</ele>
        <time>2021-04-28T14:34:10Z</time>
      </trkpt>
      <trkpt lat="44.93362" lon="4.15427">
        <ele>1396</ele>
        <time>2021-04-28T14:34:11Z</time>
      </trkpt>
      <trkpt lat="44.93359" lon="4.15429">
        <ele>1396</ele>
        <time>2021-04-28T14:34:12Z</time>
      </trkpt>
      <trkpt lat="44.93356" lon="4.1543">
        <ele>1396</ele>
        <time>2021-04-28T14:34:13Z</time>
      </trkpt>
      <trkpt lat="44.93353" lon="4.15432">
        <ele>1397</ele>
        <time>2021-04-28T14:34:14Z</time>
      </trkpt>
      <trkpt lat="44.9335" lon="4.15434">
        <ele>1397</ele>
        <time>2021-04-28T14:34:15Z</time>
      </trkpt>
      <trkpt lat="44.93347" lon="4.15437">
        <ele>1397</ele>
        <time>2021-04-28T14:34:16Z</time>
      </trkpt>
      <trkpt lat="44.93344" lon="4.15439">
        <ele>1398</ele>
        <time>2021-04-28T14:34:17Z</time>
      </trkpt>
      <trkpt lat="44.93341" lon="4.15441">
        <ele>1398</ele>
        <time>2021-04-28T14:34:18Z</time>
      </trkpt>
      <trkpt lat="44.93338" lon="4.15443">
        <ele>1398</ele>
        <time>2021-04-28T14:34:19Z</time>
      </trkpt>
      <trkpt lat="44.93335" lon="4.15445">
        <ele>1399</ele>
        <time>2021-04-28T14:34:20Z</time>
      </trkpt>
      <trkpt lat="44.93332" lon="4.15447">
        <ele>1399</ele>
        <time>2021-04-28T14:34:21Z</time>
      </trkpt>
      <trkpt lat="44.93329" lon="4.15449">
        <ele>1399</ele>
        <time>2021-04-28T14:34:22Z</time>
      </trkpt>
      <trkpt lat="44.93327" lon="4.15451">
        <ele>1399</ele>
        <time>2021-04-28T14:34:23Z</time>
      </trkpt>
      <trkpt lat="44.93325" lon="4.15454">
        <ele>1399</ele>
        <time>2021-04-28T14:34:24Z</time>
      </trkpt>
      <trkpt lat="44.93322" lon="4.15457">
        <ele>1400</ele>
        <time>2021-04-28T14:34:25Z</time>
      </trkpt>
      <trkpt lat="44.93319" lon="4.1546">
        <ele>1400</ele>
        <time>2021-04-28T14:34:26Z</time>
      </trkpt>
      <trkpt lat="44.93316" lon="4.15462">
        <ele>1400</ele>
        <time>2021-04-28T14:34:27Z</time>
      </trkpt>
      <trkpt lat="44.93313" lon="4.15465">
        <ele>1401</ele>
        <time>2021-04-28T14:34:28Z</time>
      </trkpt>
      <trkpt lat="44.9331" lon="4.15467">
        <ele>1401</ele>
        <time>2021-04-28T14:34:29Z</time>
      </trkpt>
      <trkpt lat="44.93307" lon="4.15469">
        <ele>1401</ele>
        <time>2021-04-28T14:34:30Z</time>
      </trkpt>
      <trkpt lat="44.93305" lon="4.15472">
        <ele>1401</ele>
        <time>2021-04-28T14:34:31Z</time>
      </trkpt>
      <trkpt lat="44.93302" lon="4.15474">
        <ele>1402</ele>
        <time>2021-04-28T14:34:32Z</time>
      </trkpt>
      <trkpt lat="44.93299" lon="4.15476">
        <ele>1402</ele>
        <time>2021-04-28T14:34:33Z</time>
      </trkpt>
      <trkpt lat="44.93296" lon="4.15478">
        <ele>1402</ele>
        <time>2021-04-28T14:34:34Z</time>
      </trkpt>
      <trkpt lat="44.93294" lon="4.15481">
        <ele>1403</ele>
        <time>2021-04-28T14:34:35Z</time>
      </trkpt>
      <trkpt lat="44.93291" lon="4.15483">
        <ele>1403</ele>
        <time>2021-04-28T14:34:36Z</time>
      </trkpt>
      <trkpt lat="44.93288" lon="4.15486">
        <ele>1403</ele>
        <time>2021-04-28T14:34:37Z</time>
      </trkpt>
      <trkpt lat="44.93285" lon="4.15487">
        <ele>1403</ele>
        <time>2021-04-28T14:34:38Z</time>
      </trkpt>
      <trkpt lat="44.93282" lon="4.15489">
        <ele>1404</ele>
        <time>2021-04-28T14:34:39Z</time>
      </trkpt>
      <trkpt lat="44.9328" lon="4.15491">
        <ele>1404</ele>
        <time>2021-04-28T14:34:40Z</time>
      </trkpt>
      <trkpt lat="44.93277" lon="4.15494">
        <ele>1404</ele>
        <time>2021-04-28T14:34:41Z</time>
      </trkpt>
      <trkpt lat="44.93274" lon="4.15496">
        <ele>1405</ele>
        <time>2021-04-28T14:34:42Z</time>
      </trkpt>
      <trkpt lat="44.93271" lon="4.15498">
        <ele>1405</ele>
        <time>2021-04-28T14:34:43Z</time>
      </trkpt>
      <trkpt lat="44.93268" lon="4.155">
        <ele>1405</ele>
        <time>2021-04-28T14:34:44Z</time>
      </trkpt>
      <trkpt lat="44.93266" lon="4.15502">
        <ele>1406</ele>
        <time>2021-04-28T14:34:45Z</time>
      </trkpt>
      <trkpt lat="44.93263" lon="4.15505">
        <ele>1406</ele>
        <time>2021-04-28T14:34:46Z</time>
      </trkpt>
      <trkpt lat="44.9326" lon="4.15507">
        <ele>1406</ele>
        <time>2021-04-28T14:34:47Z</time>
      </trkpt>
      <trkpt lat="44.93257" lon="4.15509">
        <ele>1406</ele>
        <time>2021-04-28T14:34:48Z</time>
      </trkpt>
      <trkpt lat="44.93255" lon="4.15512">
        <ele>1407</ele>
        <time>2021-04-28T14:34:49Z</time>
      </trkpt>
      <trkpt lat="44.93252" lon="4.15514">
        <ele>1407</ele>
        <time>2021-04-28T14:34:50Z</time>
      </trkpt>
      <trkpt lat="44.93249" lon="4.15516">
        <ele>1407</ele>
        <time>2021-04-28T14:34:51Z</time>
      </trkpt>
      <trkpt lat="44.93246" lon="4.15518">
        <ele>1408</ele>
        <time>2021-04-28T14:34:52Z</time>
      </trkpt>
      <trkpt lat="44.93243" lon="4.1552">
        <ele>1408</ele>
        <time>2021-04-28T14:34:53Z</time>
      </trkpt>
      <trkpt lat="44.9324" lon="4.15522">
        <ele>1408</ele>
        <time>2021-04-28T14:34:54Z</time>
      </trkpt>
      <trkpt lat="44.93237" lon="4.15525">
        <ele>1409</ele>
        <time>2021-04-28T14:34:55Z</time>
      </trkpt>
      <trkpt lat="44.93235" lon="4.15527">
        <ele>1409</ele>
        <time>2021-04-28T14:34:56Z</time>
      </trkpt>
      <trkpt lat="44.93233" lon="4.1553">
        <ele>1409</ele>
        <time>2021-04-28T14:34:57Z</time>
      </trkpt>
      <trkpt lat="44.9323" lon="4.15532">
        <ele>1410</ele>
        <time>2021-04-28T14:34:58Z</time>
      </trkpt>
      <trkpt lat="44.93228" lon="4.15534">
        <ele>1410</ele>
        <time>2021-04-28T14:34:59Z</time>
      </trkpt>
      <trkpt lat="44.93225" lon="4.15536">
        <ele>1410</ele>
        <time>2021-04-28T14:35:00Z</time>
      </trkpt>
      <trkpt lat="44.93222" lon="4.15538">
        <ele>1410</ele>
        <time>2021-04-28T14:35:01Z</time>
      </trkpt>
      <trkpt lat="44.9322" lon="4.1554">
        <ele>1410</ele>
        <time>2021-04-28T14:35:02Z</time>
      </trkpt>
      <trkpt lat="44.93218" lon="4.15541">
        <ele>1411</ele>
        <time>2021-04-28T14:35:03Z</time>
      </trkpt>
      <trkpt lat="44.93216" lon="4.15543">
        <ele>1411</ele>
        <time>2021-04-28T14:35:04Z</time>
      </trkpt>
      <trkpt lat="44.93214" lon="4.15544">
        <ele>1411</ele>
        <time>2021-04-28T14:35:05Z</time>
      </trkpt>
      <trkpt lat="44.93212" lon="4.15546">
        <ele>1411</ele>
        <time>2021-04-28T14:35:06Z</time>
      </trkpt>
      <trkpt lat="44.9321" lon="4.15548">
        <ele>1411</ele>
        <time>2021-04-28T14:35:07Z</time>
      </trkpt>
      <trkpt lat="44.93208" lon="4.15549">
        <ele>1411</ele>
        <time>2021-04-28T14:35:08Z</time>
      </trkpt>
      <trkpt lat="44.93206" lon="4.15551">
        <ele>1412</ele>
        <time>2021-04-28T14:35:09Z</time>
      </trkpt>
      <trkpt lat="44.93204" lon="4.15552">
        <ele>1412</ele>
        <time>2021-04-28T14:35:10Z</time>
      </trkpt>
      <trkpt lat="44.93202" lon="4.15554">
        <ele>1412</ele>
        <time>2021-04-28T14:35:11Z</time>
      </trkpt>
      <trkpt lat="44.932" lon="4.15555">
        <ele>1412</ele>
        <time>2021-04-28T14:35:12Z</time>
      </trkpt>
      <trkpt lat="44.93198" lon="4.15557">
        <ele>1413</ele>
        <time>2021-04-28T14:35:13Z</time>
      </trkpt>
      <trkpt lat="44.93196" lon="4.15559">
        <ele>1413</ele>
        <time>2021-04-28T14:35:14Z</time>
      </trkpt>
      <trkpt lat="44.93194" lon="4.1556">
        <ele>1413</ele>
        <time>2021-04-28T14:35:15Z</time>
      </trkpt>
      <trkpt lat="44.93192" lon="4.15562">
        <ele>1413</ele>
        <time>2021-04-28T14:35:16Z</time>
      </trkpt>
      <trkpt lat="44.9319" lon="4.15564">
        <ele>1413</ele>
        <time>2021-04-28T14:35:17Z</time>
      </trkpt>
      <trkpt lat="44.93188" lon="4.15565">
        <ele>1413</ele>
        <time>2021-04-28T14:35:18Z</time>
      </trkpt>
      <trkpt lat="44.93186" lon="4.15567">
        <ele>1414</ele>
        <time>2021-04-28T14:35:19Z</time>
      </trkpt>
      <trkpt lat="44.93184" lon="4.15568">
        <ele>1414</ele>
        <time>2021-04-28T14:35:20Z</time>
      </trkpt>
      <trkpt lat="44.93181" lon="4.15569">
        <ele>1414</ele>
        <time>2021-04-28T14:35:21Z</time>
      </trkpt>
      <trkpt lat="44.93179" lon="4.15571">
        <ele>1414</ele>
        <time>2021-04-28T14:35:22Z</time>
      </trkpt>
      <trkpt lat="44.93177" lon="4.15572">
        <ele>1414</ele>
        <time>2021-04-28T14:35:23Z</time>
      </trkpt>
      <trkpt lat="44.93175" lon="4.15574">
        <ele>1414</ele>
        <time>2021-04-28T14:35:24Z</time>
      </trkpt>
      <trkpt lat="44.93172" lon="4.15575">
        <ele>1415</ele>
        <time>2021-04-28T14:35:25Z</time>
      </trkpt>
      <trkpt lat="44.9317" lon="4.15577">
        <ele>1415</ele>
        <time>2021-04-28T14:35:26Z</time>
      </trkpt>
      <trkpt lat="44.93168" lon="4.15578">
        <ele>1415</ele>
        <time>2021-04-28T14:35:27Z</time>
      </trkpt>
      <trkpt lat="44.93165" lon="4.1558">
        <ele>1415</ele>
        <time>2021-04-28T14:35:28Z</time>
      </trkpt>
      <trkpt lat="44.93163" lon="4.15581">
        <ele>1416</ele>
        <time>2021-04-28T14:35:29Z</time>
      </trkpt>
      <trkpt lat="44.93161" lon="4.15583">
        <ele>1416</ele>
        <time>2021-04-28T14:35:30Z</time>
      </trkpt>
      <trkpt lat="44.93159" lon="4.15584">
        <ele>1416</ele>
        <time>2021-04-28T14:35:31Z</time>
      </trkpt>
      <trkpt lat="44.93157" lon="4.15586">
        <ele>1416</ele>
        <time>2021-04-28T14:35:32Z</time>
      </trkpt>
      <trkpt lat="44.93155" lon="4.15587">
        <ele>1416</ele>
        <time>2021-04-28T14:35:33Z</time>
      </trkpt>
      <trkpt lat="44.93153" lon="4.15589">
        <ele>1417</ele>
        <time>2021-04-28T14:35:34Z</time>
      </trkpt>
      <trkpt lat="44.9315" lon="4.1559">
        <ele>1417</ele>
        <time>2021-04-28T14:35:35Z</time>
      </trkpt>
      <trkpt lat="44.93148" lon="4.15591">
        <ele>1417</ele>
        <time>2021-04-28T14:35:36Z</time>
      </trkpt>
      <trkpt lat="44.93146" lon="4.15593">
        <ele>1418</ele>
        <time>2021-04-28T14:35:37Z</time>
      </trkpt>
      <trkpt lat="44.93144" lon="4.15594">
        <ele>1418</ele>
        <time>2021-04-28T14:35:38Z</time>
      </trkpt>
      <trkpt lat="44.93141" lon="4.15596">
        <ele>1418</ele>
        <time>2021-04-28T14:35:39Z</time>
      </trkpt>
      <trkpt lat="44.93139" lon="4.15597">
        <ele>1419</ele>
        <time>2021-04-28T14:35:40Z</time>
      </trkpt>
      <trkpt lat="44.93137" lon="4.15598">
        <ele>1419</ele>
        <time>2021-04-28T14:35:41Z</time>
      </trkpt>
      <trkpt lat="44.93134" lon="4.156">
        <ele>1420</ele>
        <time>2021-04-28T14:35:42Z</time>
      </trkpt>
      <trkpt lat="44.93132" lon="4.15601">
        <ele>1420</ele>
        <time>2021-04-28T14:35:43Z</time>
      </trkpt>
      <trkpt lat="44.9313" lon="4.15602">
        <ele>1420</ele>
        <time>2021-04-28T14:35:44Z</time>
      </trkpt>
      <trkpt lat="44.93128" lon="4.15603">
        <ele>1421</ele>
        <time>2021-04-28T14:35:45Z</time>
      </trkpt>
      <trkpt lat="44.93125" lon="4.15604">
        <ele>1421</ele>
        <time>2021-04-28T14:35:46Z</time>
      </trkpt>
      <trkpt lat="44.93122" lon="4.15604">
        <ele>1421</ele>
        <time>2021-04-28T14:35:47Z</time>
      </trkpt>
      <trkpt lat="44.9312" lon="4.15603">
        <ele>1421</ele>
        <time>2021-04-28T14:35:48Z</time>
      </trkpt>
      <trkpt lat="44.93118" lon="4.15601">
        <ele>1421</ele>
        <time>2021-04-28T14:35:49Z</time>
      </trkpt>
      <trkpt lat="44.93116" lon="4.15598">
        <ele>1421</ele>
        <time>2021-04-28T14:35:50Z</time>
      </trkpt>
      <trkpt lat="44.93114" lon="4.15595">
        <ele>1422</ele>
        <time>2021-04-28T14:35:51Z</time>
      </trkpt>
      <trkpt lat="44.93113" lon="4.15592">
        <ele>1422</ele>
        <time>2021-04-28T14:35:52Z</time>
      </trkpt>
      <trkpt lat="44.93111" lon="4.15589">
        <ele>1422</ele>
        <time>2021-04-28T14:35:53Z</time>
      </trkpt>
      <trkpt lat="44.9311" lon="4.15586">
        <ele>1423</ele>
        <time>2021-04-28T14:35:54Z</time>
      </trkpt>
      <trkpt lat="44.93108" lon="4.15584">
        <ele>1423</ele>
        <time>2021-04-28T14:35:55Z</time>
      </trkpt>
      <trkpt lat="44.93106" lon="4.15581">
        <ele>1423</ele>
        <time>2021-04-28T14:35:56Z</time>
      </trkpt>
      <trkpt lat="44.93104" lon="4.15579">
        <ele>1424</ele>
        <time>2021-04-28T14:35:57Z</time>
      </trkpt>
      <trkpt lat="44.93102" lon="4.15577">
        <ele>1424</ele>
        <time>2021-04-28T14:35:58Z</time>
      </trkpt>
      <trkpt lat="44.931" lon="4.15575">
        <ele>1424</ele>
        <time>2021-04-28T14:35:59Z</time>
      </trkpt>
      <trkpt lat="44.93098" lon="4.15574">
        <ele>1425</ele>
        <time>2021-04-28T14:36:00Z</time>
      </trkpt>
      <trkpt lat="44.93095" lon="4.15573">
        <ele>1425</ele>
        <time>2021-04-28T14:36:01Z</time>
      </trkpt>
      <trkpt lat="44.93093" lon="4.15573">
        <ele>1425</ele>
        <time>2021-04-28T14:36:02Z</time>
      </trkpt>
      <trkpt lat="44.9309" lon="4.15574">
        <ele>1426</ele>
        <time>2021-04-28T14:36:03Z</time>
      </trkpt>
      <trkpt lat="44.93088" lon="4.15575">
        <ele>1426</ele>
        <time>2021-04-28T14:36:04Z</time>
      </trkpt>
      <trkpt lat="44.93085" lon="4.15577">
        <ele>1426</ele>
        <time>2021-04-28T14:36:05Z</time>
      </trkpt>
      <trkpt lat="44.93083" lon="4.15579">
        <ele>1426</ele>
        <time>2021-04-28T14:36:06Z</time>
      </trkpt>
      <trkpt lat="44.93081" lon="4.15582">
        <ele>1426</ele>
        <time>2021-04-28T14:36:07Z</time>
      </trkpt>
      <trkpt lat="44.93079" lon="4.15584">
        <ele>1427</ele>
        <time>2021-04-28T14:36:08Z</time>
      </trkpt>
      <trkpt lat="44.93077" lon="4.15586">
        <ele>1427</ele>
        <time>2021-04-28T14:36:09Z</time>
      </trkpt>
      <trkpt lat="44.93075" lon="4.15589">
        <ele>1427</ele>
        <time>2021-04-28T14:36:10Z</time>
      </trkpt>
      <trkpt lat="44.93073" lon="4.15591">
        <ele>1428</ele>
        <time>2021-04-28T14:36:11Z</time>
      </trkpt>
      <trkpt lat="44.9307" lon="4.15594">
        <ele>1428</ele>
        <time>2021-04-28T14:36:12Z</time>
      </trkpt>
      <trkpt lat="44.93068" lon="4.15596">
        <ele>1428</ele>
        <time>2021-04-28T14:36:13Z</time>
      </trkpt>
      <trkpt lat="44.93066" lon="4.15598">
        <ele>1429</ele>
        <time>2021-04-28T14:36:14Z</time>
      </trkpt>
      <trkpt lat="44.93064" lon="4.15601">
        <ele>1429</ele>
        <time>2021-04-28T14:36:15Z</time>
      </trkpt>
      <trkpt lat="44.93062" lon="4.15603">
        <ele>1429</ele>
        <time>2021-04-28T14:36:16Z</time>
      </trkpt>
      <trkpt lat="44.9306" lon="4.15605">
        <ele>1429</ele>
        <time>2021-04-28T14:36:17Z</time>
      </trkpt>
      <trkpt lat="44.93057" lon="4.15607">
        <ele>1430</ele>
        <time>2021-04-28T14:36:18Z</time>
      </trkpt>
      <trkpt lat="44.93055" lon="4.15608">
        <ele>1430</ele>
        <time>2021-04-28T14:36:19Z</time>
      </trkpt>
      <trkpt lat="44.93052" lon="4.15609">
        <ele>1430</ele>
        <time>2021-04-28T14:36:20Z</time>
      </trkpt>
      <trkpt lat="44.9305" lon="4.1561">
        <ele>1430</ele>
        <time>2021-04-28T14:36:21Z</time>
      </trkpt>
      <trkpt lat="44.93047" lon="4.1561">
        <ele>1430</ele>
        <time>2021-04-28T14:36:22Z</time>
      </trkpt>
      <trkpt lat="44.93044" lon="4.15611">
        <ele>1431</ele>
        <time>2021-04-28T14:36:23Z</time>
      </trkpt>
      <trkpt lat="44.93041" lon="4.15611">
        <ele>1431</ele>
        <time>2021-04-28T14:36:24Z</time>
      </trkpt>
      <trkpt lat="44.93038" lon="4.15611">
        <ele>1431</ele>
        <time>2021-04-28T14:36:25Z</time>
      </trkpt>
      <trkpt lat="44.93035" lon="4.15611">
        <ele>1431</ele>
        <time>2021-04-28T14:36:26Z</time>
      </trkpt>
      <trkpt lat="44.93032" lon="4.15611">
        <ele>1431</ele>
        <time>2021-04-28T14:36:27Z</time>
      </trkpt>
      <trkpt lat="44.93029" lon="4.15611">
        <ele>1431</ele>
        <time>2021-04-28T14:36:28Z</time>
      </trkpt>
      <trkpt lat="44.93026" lon="4.15612">
        <ele>1432</ele>
        <time>2021-04-28T14:36:29Z</time>
      </trkpt>
      <trkpt lat="44.93023" lon="4.15612">
        <ele>1432</ele>
        <time>2021-04-28T14:36:30Z</time>
      </trkpt>
      <trkpt lat="44.93021" lon="4.15612">
        <ele>1432</ele>
        <time>2021-04-28T14:36:31Z</time>
      </trkpt>
      <trkpt lat="44.93018" lon="4.15612">
        <ele>1432</ele>
        <time>2021-04-28T14:36:32Z</time>
      </trkpt>
      <trkpt lat="44.93015" lon="4.15612">
        <ele>1432</ele>
        <time>2021-04-28T14:36:33Z</time>
      </trkpt>
      <trkpt lat="44.93012" lon="4.15612">
        <ele>1432</ele>
        <time>2021-04-28T14:36:34Z</time>
      </trkpt>
      <trkpt lat="44.93009" lon="4.15612">
        <ele>1433</ele>
        <time>2021-04-28T14:36:35Z</time>
      </trkpt>
      <trkpt lat="44.93006" lon="4.15612">
        <ele>1433</ele>
        <time>2021-04-28T14:36:36Z</time>
      </trkpt>
      <trkpt lat="44.93003" lon="4.15612">
        <ele>1433</ele>
        <time>2021-04-28T14:36:37Z</time>
      </trkpt>
      <trkpt lat="44.93" lon="4.15611">
        <ele>1433</ele>
        <time>2021-04-28T14:36:38Z</time>
      </trkpt>
      <trkpt lat="44.92997" lon="4.15609">
        <ele>1434</ele>
        <time>2021-04-28T14:36:39Z</time>
      </trkpt>
      <trkpt lat="44.92994" lon="4.15608">
        <ele>1434</ele>
        <time>2021-04-28T14:36:40Z</time>
      </trkpt>
      <trkpt lat="44.92991" lon="4.15606">
        <ele>1434</ele>
        <time>2021-04-28T14:36:41Z</time>
      </trkpt>
      <trkpt lat="44.92988" lon="4.15605">
        <ele>1434</ele>
        <time>2021-04-28T14:36:42Z</time>
      </trkpt>
      <trkpt lat="44.92985" lon="4.15603">
        <ele>1435</ele>
        <time>2021-04-28T14:36:43Z</time>
      </trkpt>
      <trkpt lat="44.92982" lon="4.15602">
        <ele>1435</ele>
        <time>2021-04-28T14:36:44Z</time>
      </trkpt>
      <trkpt lat="44.92979" lon="4.15601">
        <ele>1435</ele>
        <time>2021-04-28T14:36:45Z</time>
      </trkpt>
      <trkpt lat="44.92976" lon="4.15599">
        <ele>1435</ele>
        <time>2021-04-28T14:36:46Z</time>
      </trkpt>
      <trkpt lat="44.92973" lon="4.15598">
        <ele>1436</ele>
        <time>2021-04-28T14:36:47Z</time>
      </trkpt>
      <trkpt lat="44.9297" lon="4.15596">
        <ele>1436</ele>
        <time>2021-04-28T14:36:48Z</time>
      </trkpt>
      <trkpt lat="44.92967" lon="4.15595">
        <ele>1436</ele>
        <time>2021-04-28T14:36:49Z</time>
      </trkpt>
      <trkpt lat="44.92964" lon="4.15594">
        <ele>1436</ele>
        <time>2021-04-28T14:36:50Z</time>
      </trkpt>
      <trkpt lat="44.92961" lon="4.15593">
        <ele>1437</ele>
        <time>2021-04-28T14:36:51Z</time>
      </trkpt>
      <trkpt lat="44.92958" lon="4.15592">
        <ele>1437</ele>
        <time>2021-04-28T14:36:52Z</time>
      </trkpt>
      <trkpt lat="44.92955" lon="4.15591">
        <ele>1437</ele>
        <time>2021-04-28T14:36:53Z</time>
      </trkpt>
      <trkpt lat="44.92952" lon="4.1559">
        <ele>1437</ele>
        <time>2021-04-28T14:36:54Z</time>
      </trkpt>
      <trkpt lat="44.9295" lon="4.15589">
        <ele>1437</ele>
        <time>2021-04-28T14:36:55Z</time>
      </trkpt>
      <trkpt lat="44.92947" lon="4.15588">
        <ele>1437</ele>
        <time>2021-04-28T14:36:56Z</time>
      </trkpt>
      <trkpt lat="44.92944" lon="4.15586">
        <ele>1438</ele>
        <time>2021-04-28T14:36:57Z</time>
      </trkpt>
      <trkpt lat="44.92942" lon="4.15585">
        <ele>1438</ele>
        <time>2021-04-28T14:36:58Z</time>
      </trkpt>
      <trkpt lat="44.92939" lon="4.15584">
        <ele>1438</ele>
        <time>2021-04-28T14:36:59Z</time>
      </trkpt>
      <trkpt lat="44.92936" lon="4.15583">
        <ele>1438</ele>
        <time>2021-04-28T14:37:00Z</time>
      </trkpt>
      <trkpt lat="44.92932" lon="4.15583">
        <ele>1439</ele>
        <time>2021-04-28T14:37:01Z</time>
      </trkpt>
      <trkpt lat="44.92929" lon="4.15582">
        <ele>1439</ele>
        <time>2021-04-28T14:37:02Z</time>
      </trkpt>
      <trkpt lat="44.92926" lon="4.15582">
        <ele>1439</ele>
        <time>2021-04-28T14:37:03Z</time>
      </trkpt>
      <trkpt lat="44.92924" lon="4.15581">
        <ele>1439</ele>
        <time>2021-04-28T14:37:04Z</time>
      </trkpt>
      <trkpt lat="44.92921" lon="4.15581">
        <ele>1439</ele>
        <time>2021-04-28T14:37:05Z</time>
      </trkpt>
      <trkpt lat="44.92918" lon="4.1558">
        <ele>1440</ele>
        <time>2021-04-28T14:37:06Z</time>
      </trkpt>
      <trkpt lat="44.92916" lon="4.15581">
        <ele>1440</ele>
        <time>2021-04-28T14:37:07Z</time>
      </trkpt>
      <trkpt lat="44.92913" lon="4.15582">
        <ele>1441</ele>
        <time>2021-04-28T14:37:08Z</time>
      </trkpt>
      <trkpt lat="44.92911" lon="4.15584">
        <ele>1441</ele>
        <time>2021-04-28T14:37:09Z</time>
      </trkpt>
      <trkpt lat="44.92908" lon="4.15586">
        <ele>1441</ele>
        <time>2021-04-28T14:37:10Z</time>
      </trkpt>
      <trkpt lat="44.92905" lon="4.15587">
        <ele>1442</ele>
        <time>2021-04-28T14:37:11Z</time>
      </trkpt>
      <trkpt lat="44.92903" lon="4.15589">
        <ele>1442</ele>
        <time>2021-04-28T14:37:12Z</time>
      </trkpt>
      <trkpt lat="44.929" lon="4.1559">
        <ele>1442</ele>
        <time>2021-04-28T14:37:13Z</time>
      </trkpt>
      <trkpt lat="44.92898" lon="4.1559">
        <ele>1443</ele>
        <time>2021-04-28T14:37:14Z</time>
      </trkpt>
      <trkpt lat="44.92896" lon="4.1559">
        <ele>1443</ele>
        <time>2021-04-28T14:37:15Z</time>
      </trkpt>
      <trkpt lat="44.92894" lon="4.15588">
        <ele>1444</ele>
        <time>2021-04-28T14:37:16Z</time>
      </trkpt>
      <trkpt lat="44.92891" lon="4.15585">
        <ele>1444</ele>
        <time>2021-04-28T14:37:17Z</time>
      </trkpt>
      <trkpt lat="44.92889" lon="4.15583">
        <ele>1444</ele>
        <time>2021-04-28T14:37:18Z</time>
      </trkpt>
      <trkpt lat="44.92886" lon="4.1558">
        <ele>1445</ele>
        <time>2021-04-28T14:37:19Z</time>
      </trkpt>
      <trkpt lat="44.92884" lon="4.15578">
        <ele>1445</ele>
        <time>2021-04-28T14:37:20Z</time>
      </trkpt>
      <trkpt lat="44.92882" lon="4.15576">
        <ele>1446</ele>
        <time>2021-04-28T14:37:21Z</time>
      </trkpt>
      <trkpt lat="44.92879" lon="4.15573">
        <ele>1446</ele>
        <time>2021-04-28T14:37:22Z</time>
      </trkpt>
      <trkpt lat="44.92876" lon="4.1557">
        <ele>1446</ele>
        <time>2021-04-28T14:37:23Z</time>
      </trkpt>
      <trkpt lat="44.92874" lon="4.15567">
        <ele>1447</ele>
        <time>2021-04-28T14:37:24Z</time>
      </trkpt>
      <trkpt lat="44.92871" lon="4.15565">
        <ele>1447</ele>
        <time>2021-04-28T14:37:25Z</time>
      </trkpt>
      <trkpt lat="44.92869" lon="4.15563">
        <ele>1447</ele>
        <time>2021-04-28T14:37:26Z</time>
      </trkpt>
      <trkpt lat="44.92866" lon="4.15561">
        <ele>1448</ele>
        <time>2021-04-28T14:37:27Z</time>
      </trkpt>
      <trkpt lat="44.92864" lon="4.15559">
        <ele>1449</ele>
        <time>2021-04-28T14:37:28Z</time>
      </trkpt>
      <trkpt lat="44.9286" lon="4.15557">
        <ele>1449</ele>
        <time>2021-04-28T14:37:29Z</time>
      </trkpt>
      <trkpt lat="44.92857" lon="4.15556">
        <ele>1450</ele>
        <time>2021-04-28T14:37:30Z</time>
      </trkpt>
      <trkpt lat="44.92854" lon="4.15554">
        <ele>1451</ele>
        <time>2021-04-28T14:37:31Z</time>
      </trkpt>
      <trkpt lat="44.92851" lon="4.15551">
        <ele>1451</ele>
        <time>2021-04-28T14:37:32Z</time>
      </trkpt>
      <trkpt lat="44.92848" lon="4.15547">
        <ele>1452</ele>
        <time>2021-04-28T14:37:33Z</time>
      </trkpt>
      <trkpt lat="44.92846" lon="4.15544">
        <ele>1452</ele>
        <time>2021-04-28T14:37:34Z</time>
      </trkpt>
      <trkpt lat="44.92843" lon="4.1554">
        <ele>1453</ele>
        <time>2021-04-28T14:37:35Z</time>
      </trkpt>
      <trkpt lat="44.92841" lon="4.15537">
        <ele>1453</ele>
        <time>2021-04-28T14:37:36Z</time>
      </trkpt>
      <trkpt lat="44.92839" lon="4.15533">
        <ele>1453</ele>
        <time>2021-04-28T14:37:37Z</time>
      </trkpt>
      <trkpt lat="44.92837" lon="4.15528">
        <ele>1454</ele>
        <time>2021-04-28T14:37:38Z</time>
      </trkpt>
      <trkpt lat="44.92834" lon="4.15524">
        <ele>1454</ele>
        <time>2021-04-28T14:37:39Z</time>
      </trkpt>
      <trkpt lat="44.92832" lon="4.1552">
        <ele>1454</ele>
        <time>2021-04-28T14:37:40Z</time>
      </trkpt>
      <trkpt lat="44.9283" lon="4.15516">
        <ele>1454</ele>
        <time>2021-04-28T14:37:41Z</time>
      </trkpt>
      <trkpt lat="44.92827" lon="4.15512">
        <ele>1454</ele>
        <time>2021-04-28T14:37:42Z</time>
      </trkpt>
      <trkpt lat="44.92826" lon="4.15508">
        <ele>1454</ele>
        <time>2021-04-28T14:37:43Z</time>
      </trkpt>
      <trkpt lat="44.92822" lon="4.15501">
        <ele>1455</ele>
        <time>2021-04-28T14:37:45Z</time>
      </trkpt>
      <trkpt lat="44.9282" lon="4.15497">
        <ele>1455</ele>
        <time>2021-04-28T14:37:46Z</time>
      </trkpt>
      <trkpt lat="44.92818" lon="4.15494">
        <ele>1455</ele>
        <time>2021-04-28T14:37:47Z</time>
      </trkpt>
      <trkpt lat="44.92817" lon="4.1549">
        <ele>1455</ele>
        <time>2021-04-28T14:37:48Z</time>
      </trkpt>
      <trkpt lat="44.9281" lon="4.15477">
        <ele>1455</ele>
        <time>2021-04-28T14:37:51Z</time>
      </trkpt>
      <trkpt lat="44.92807" lon="4.15473">
        <ele>1456</ele>
        <time>2021-04-28T14:37:52Z</time>
      </trkpt>
      <trkpt lat="44.92805" lon="4.15469">
        <ele>1456</ele>
        <time>2021-04-28T14:37:53Z</time>
      </trkpt>
      <trkpt lat="44.92803" lon="4.15465">
        <ele>1456</ele>
        <time>2021-04-28T14:37:54Z</time>
      </trkpt>
      <trkpt lat="44.92801" lon="4.15461">
        <ele>1456</ele>
        <time>2021-04-28T14:37:55Z</time>
      </trkpt>
      <trkpt lat="44.92799" lon="4.15456">
        <ele>1456</ele>
        <time>2021-04-28T14:37:56Z</time>
      </trkpt>
      <trkpt lat="44.92795" lon="4.15446">
        <ele>1456</ele>
        <time>2021-04-28T14:37:58Z</time>
      </trkpt>
      <trkpt lat="44.92793" lon="4.15441">
        <ele>1456</ele>
        <time>2021-04-28T14:37:59Z</time>
      </trkpt>
      <trkpt lat="44.92791" lon="4.15436">
        <ele>1456</ele>
        <time>2021-04-28T14:38:00Z</time>
      </trkpt>
      <trkpt lat="44.92791" lon="4.15431">
        <ele>1457</ele>
        <time>2021-04-28T14:38:01Z</time>
      </trkpt>
      <trkpt lat="44.9279" lon="4.15426">
        <ele>1457</ele>
        <time>2021-04-28T14:38:02Z</time>
      </trkpt>
      <trkpt lat="44.9279" lon="4.15421">
        <ele>1457</ele>
        <time>2021-04-28T14:38:03Z</time>
      </trkpt>
      <trkpt lat="44.92789" lon="4.15415">
        <ele>1457</ele>
        <time>2021-04-28T14:38:04Z</time>
      </trkpt>
      <trkpt lat="44.92789" lon="4.1541">
        <ele>1457</ele>
        <time>2021-04-28T14:38:05Z</time>
      </trkpt>
      <trkpt lat="44.92787" lon="4.15398">
        <ele>1458</ele>
        <time>2021-04-28T14:38:07Z</time>
      </trkpt>
      <trkpt lat="44.92785" lon="4.15385">
        <ele>1458</ele>
        <time>2021-04-28T14:38:09Z</time>
      </trkpt>
      <trkpt lat="44.92783" lon="4.15378">
        <ele>1458</ele>
        <time>2021-04-28T14:38:10Z</time>
      </trkpt>
      <trkpt lat="44.92781" lon="4.15373">
        <ele>1458</ele>
        <time>2021-04-28T14:38:11Z</time>
      </trkpt>
      <trkpt lat="44.92778" lon="4.15368">
        <ele>1458</ele>
        <time>2021-04-28T14:38:12Z</time>
      </trkpt>
      <trkpt lat="44.92776" lon="4.15362">
        <ele>1458</ele>
        <time>2021-04-28T14:38:13Z</time>
      </trkpt>
      <trkpt lat="44.9277" lon="4.15352">
        <ele>1458</ele>
        <time>2021-04-28T14:38:15Z</time>
      </trkpt>
      <trkpt lat="44.92768" lon="4.15348">
        <ele>1458</ele>
        <time>2021-04-28T14:38:16Z</time>
      </trkpt>
      <trkpt lat="44.92764" lon="4.15344">
        <ele>1458</ele>
        <time>2021-04-28T14:38:17Z</time>
      </trkpt>
      <trkpt lat="44.92761" lon="4.1534">
        <ele>1458</ele>
        <time>2021-04-28T14:38:18Z</time>
      </trkpt>
      <trkpt lat="44.92758" lon="4.15336">
        <ele>1458</ele>
        <time>2021-04-28T14:38:19Z</time>
      </trkpt>
      <trkpt lat="44.92755" lon="4.15332">
        <ele>1459</ele>
        <time>2021-04-28T14:38:20Z</time>
      </trkpt>
      <trkpt lat="44.92752" lon="4.15328">
        <ele>1459</ele>
        <time>2021-04-28T14:38:21Z</time>
      </trkpt>
      <trkpt lat="44.92749" lon="4.15325">
        <ele>1459</ele>
        <time>2021-04-28T14:38:22Z</time>
      </trkpt>
      <trkpt lat="44.92746" lon="4.15321">
        <ele>1460</ele>
        <time>2021-04-28T14:38:23Z</time>
      </trkpt>
      <trkpt lat="44.92743" lon="4.15317">
        <ele>1460</ele>
        <time>2021-04-28T14:38:24Z</time>
      </trkpt>
      <trkpt lat="44.92741" lon="4.15313">
        <ele>1460</ele>
        <time>2021-04-28T14:38:25Z</time>
      </trkpt>
      <trkpt lat="44.92739" lon="4.1531">
        <ele>1460</ele>
        <time>2021-04-28T14:38:26Z</time>
      </trkpt>
      <trkpt lat="44.92736" lon="4.15305">
        <ele>1460</ele>
        <time>2021-04-28T14:38:27Z</time>
      </trkpt>
      <trkpt lat="44.92733" lon="4.15301">
        <ele>1461</ele>
        <time>2021-04-28T14:38:28Z</time>
      </trkpt>
      <trkpt lat="44.92731" lon="4.15295">
        <ele>1461</ele>
        <time>2021-04-28T14:38:29Z</time>
      </trkpt>
      <trkpt lat="44.92728" lon="4.1529">
        <ele>1461</ele>
        <time>2021-04-28T14:38:30Z</time>
      </trkpt>
      <trkpt lat="44.92726" lon="4.15285">
        <ele>1461</ele>
        <time>2021-04-28T14:38:31Z</time>
      </trkpt>
      <trkpt lat="44.92724" lon="4.1528">
        <ele>1461</ele>
        <time>2021-04-28T14:38:32Z</time>
      </trkpt>
      <trkpt lat="44.92721" lon="4.15274">
        <ele>1461</ele>
        <time>2021-04-28T14:38:33Z</time>
      </trkpt>
      <trkpt lat="44.92719" lon="4.15268">
        <ele>1462</ele>
        <time>2021-04-28T14:38:34Z</time>
      </trkpt>
      <trkpt lat="44.92716" lon="4.1526">
        <ele>1462</ele>
        <time>2021-04-28T14:38:35Z</time>
      </trkpt>
      <trkpt lat="44.92715" lon="4.15253">
        <ele>1462</ele>
        <time>2021-04-28T14:38:36Z</time>
      </trkpt>
      <trkpt lat="44.92713" lon="4.15245">
        <ele>1462</ele>
        <time>2021-04-28T14:38:37Z</time>
      </trkpt>
      <trkpt lat="44.92711" lon="4.15238">
        <ele>1462</ele>
        <time>2021-04-28T14:38:38Z</time>
      </trkpt>
      <trkpt lat="44.92708" lon="4.15224">
        <ele>1463</ele>
        <time>2021-04-28T14:38:39Z</time>
      </trkpt>
      <trkpt lat="44.92707" lon="4.15217">
        <ele>1463</ele>
        <time>2021-04-28T14:38:41Z</time>
      </trkpt>
      <trkpt lat="44.92706" lon="4.1521">
        <ele>1463</ele>
        <time>2021-04-28T14:38:42Z</time>
      </trkpt>
      <trkpt lat="44.92705" lon="4.15204">
        <ele>1463</ele>
        <time>2021-04-28T14:38:43Z</time>
      </trkpt>
      <trkpt lat="44.92704" lon="4.15198">
        <ele>1464</ele>
        <time>2021-04-28T14:38:44Z</time>
      </trkpt>
      <trkpt lat="44.92703" lon="4.15192">
        <ele>1464</ele>
        <time>2021-04-28T14:38:45Z</time>
      </trkpt>
      <trkpt lat="44.92702" lon="4.15186">
        <ele>1464</ele>
        <time>2021-04-28T14:38:46Z</time>
      </trkpt>
      <trkpt lat="44.92701" lon="4.1518">
        <ele>1464</ele>
        <time>2021-04-28T14:38:47Z</time>
      </trkpt>
      <trkpt lat="44.927" lon="4.15173">
        <ele>1464</ele>
        <time>2021-04-28T14:38:48Z</time>
      </trkpt>
      <trkpt lat="44.92698" lon="4.15167">
        <ele>1465</ele>
        <time>2021-04-28T14:38:49Z</time>
      </trkpt>
      <trkpt lat="44.92697" lon="4.15159">
        <ele>1465</ele>
        <time>2021-04-28T14:38:50Z</time>
      </trkpt>
      <trkpt lat="44.92695" lon="4.15152">
        <ele>1465</ele>
        <time>2021-04-28T14:38:51Z</time>
      </trkpt>
      <trkpt lat="44.92693" lon="4.15145">
        <ele>1465</ele>
        <time>2021-04-28T14:38:52Z</time>
      </trkpt>
      <trkpt lat="44.9269" lon="4.1514">
        <ele>1465</ele>
        <time>2021-04-28T14:38:53Z</time>
      </trkpt>
      <trkpt lat="44.92688" lon="4.15135">
        <ele>1465</ele>
        <time>2021-04-28T14:38:54Z</time>
      </trkpt>
      <trkpt lat="44.92685" lon="4.15131">
        <ele>1466</ele>
        <time>2021-04-28T14:38:55Z</time>
      </trkpt>
      <trkpt lat="44.92682" lon="4.15128">
        <ele>1466</ele>
        <time>2021-04-28T14:38:56Z</time>
      </trkpt>
      <trkpt lat="44.92679" lon="4.15125">
        <ele>1466</ele>
        <time>2021-04-28T14:38:57Z</time>
      </trkpt>
      <trkpt lat="44.92677" lon="4.15123">
        <ele>1467</ele>
        <time>2021-04-28T14:38:58Z</time>
      </trkpt>
      <trkpt lat="44.92674" lon="4.15121">
        <ele>1467</ele>
        <time>2021-04-28T14:38:59Z</time>
      </trkpt>
      <trkpt lat="44.92671" lon="4.15121">
        <ele>1467</ele>
        <time>2021-04-28T14:39:00Z</time>
      </trkpt>
      <trkpt lat="44.92668" lon="4.15121">
        <ele>1467</ele>
        <time>2021-04-28T14:39:01Z</time>
      </trkpt>
      <trkpt lat="44.92664" lon="4.15121">
        <ele>1468</ele>
        <time>2021-04-28T14:39:02Z</time>
      </trkpt>
      <trkpt lat="44.92661" lon="4.15122">
        <ele>1468</ele>
        <time>2021-04-28T14:39:03Z</time>
      </trkpt>
      <trkpt lat="44.92658" lon="4.15123">
        <ele>1468</ele>
        <time>2021-04-28T14:39:04Z</time>
      </trkpt>
      <trkpt lat="44.92655" lon="4.15124">
        <ele>1469</ele>
        <time>2021-04-28T14:39:05Z</time>
      </trkpt>
      <trkpt lat="44.92652" lon="4.15126">
        <ele>1469</ele>
        <time>2021-04-28T14:39:06Z</time>
      </trkpt>
      <trkpt lat="44.92649" lon="4.15127">
        <ele>1469</ele>
        <time>2021-04-28T14:39:07Z</time>
      </trkpt>
      <trkpt lat="44.92646" lon="4.15128">
        <ele>1470</ele>
        <time>2021-04-28T14:39:08Z</time>
      </trkpt>
      <trkpt lat="44.92642" lon="4.1513">
        <ele>1470</ele>
        <time>2021-04-28T14:39:09Z</time>
      </trkpt>
      <trkpt lat="44.92639" lon="4.15132">
        <ele>1470</ele>
        <time>2021-04-28T14:39:10Z</time>
      </trkpt>
      <trkpt lat="44.92636" lon="4.15134">
        <ele>1470</ele>
        <time>2021-04-28T14:39:11Z</time>
      </trkpt>
      <trkpt lat="44.92633" lon="4.15135">
        <ele>1470</ele>
        <time>2021-04-28T14:39:12Z</time>
      </trkpt>
      <trkpt lat="44.92631" lon="4.15137">
        <ele>1470</ele>
        <time>2021-04-28T14:39:13Z</time>
      </trkpt>
      <trkpt lat="44.92627" lon="4.15138">
        <ele>1470</ele>
        <time>2021-04-28T14:39:14Z</time>
      </trkpt>
      <trkpt lat="44.92624" lon="4.1514">
        <ele>1470</ele>
        <time>2021-04-28T14:39:15Z</time>
      </trkpt>
      <trkpt lat="44.9262" lon="4.15141">
        <ele>1471</ele>
        <time>2021-04-28T14:39:16Z</time>
      </trkpt>
      <trkpt lat="44.92617" lon="4.15141">
        <ele>1471</ele>
        <time>2021-04-28T14:39:17Z</time>
      </trkpt>
      <trkpt lat="44.92614" lon="4.15142">
        <ele>1471</ele>
        <time>2021-04-28T14:39:18Z</time>
      </trkpt>
      <trkpt lat="44.9261" lon="4.15143">
        <ele>1472</ele>
        <time>2021-04-28T14:39:19Z</time>
      </trkpt>
      <trkpt lat="44.92606" lon="4.15144">
        <ele>1472</ele>
        <time>2021-04-28T14:39:20Z</time>
      </trkpt>
      <trkpt lat="44.92602" lon="4.15145">
        <ele>1472</ele>
        <time>2021-04-28T14:39:21Z</time>
      </trkpt>
      <trkpt lat="44.92599" lon="4.15145">
        <ele>1472</ele>
        <time>2021-04-28T14:39:22Z</time>
      </trkpt>
      <trkpt lat="44.92595" lon="4.15145">
        <ele>1472</ele>
        <time>2021-04-28T14:39:23Z</time>
      </trkpt>
      <trkpt lat="44.92592" lon="4.15145">
        <ele>1473</ele>
        <time>2021-04-28T14:39:24Z</time>
      </trkpt>
      <trkpt lat="44.92589" lon="4.15144">
        <ele>1473</ele>
        <time>2021-04-28T14:39:25Z</time>
      </trkpt>
      <trkpt lat="44.92585" lon="4.15143">
        <ele>1473</ele>
        <time>2021-04-28T14:39:26Z</time>
      </trkpt>
      <trkpt lat="44.92582" lon="4.15143">
        <ele>1474</ele>
        <time>2021-04-28T14:39:27Z</time>
      </trkpt>
      <trkpt lat="44.92579" lon="4.15142">
        <ele>1474</ele>
        <time>2021-04-28T14:39:28Z</time>
      </trkpt>
      <trkpt lat="44.92576" lon="4.15141">
        <ele>1474</ele>
        <time>2021-04-28T14:39:29Z</time>
      </trkpt>
      <trkpt lat="44.92572" lon="4.15141">
        <ele>1475</ele>
        <time>2021-04-28T14:39:30Z</time>
      </trkpt>
      <trkpt lat="44.92569" lon="4.1514">
        <ele>1475</ele>
        <time>2021-04-28T14:39:31Z</time>
      </trkpt>
      <trkpt lat="44.92565" lon="4.1514">
        <ele>1475</ele>
        <time>2021-04-28T14:39:32Z</time>
      </trkpt>
      <trkpt lat="44.92562" lon="4.1514">
        <ele>1475</ele>
        <time>2021-04-28T14:39:33Z</time>
      </trkpt>
      <trkpt lat="44.92559" lon="4.1514">
        <ele>1476</ele>
        <time>2021-04-28T14:39:34Z</time>
      </trkpt>
      <trkpt lat="44.92556" lon="4.15141">
        <ele>1476</ele>
        <time>2021-04-28T14:39:35Z</time>
      </trkpt>
      <trkpt lat="44.92553" lon="4.15142">
        <ele>1476</ele>
        <time>2021-04-28T14:39:36Z</time>
      </trkpt>
      <trkpt lat="44.92551" lon="4.15143">
        <ele>1477</ele>
        <time>2021-04-28T14:39:37Z</time>
      </trkpt>
      <trkpt lat="44.92549" lon="4.15145">
        <ele>1477</ele>
        <time>2021-04-28T14:39:38Z</time>
      </trkpt>
      <trkpt lat="44.92547" lon="4.15148">
        <ele>1477</ele>
        <time>2021-04-28T14:39:39Z</time>
      </trkpt>
      <trkpt lat="44.92545" lon="4.15151">
        <ele>1478</ele>
        <time>2021-04-28T14:39:40Z</time>
      </trkpt>
      <trkpt lat="44.92543" lon="4.15154">
        <ele>1478</ele>
        <time>2021-04-28T14:39:41Z</time>
      </trkpt>
      <trkpt lat="44.9254" lon="4.15159">
        <ele>1478</ele>
        <time>2021-04-28T14:39:42Z</time>
      </trkpt>
      <trkpt lat="44.92539" lon="4.15163">
        <ele>1478</ele>
        <time>2021-04-28T14:39:43Z</time>
      </trkpt>
      <trkpt lat="44.92537" lon="4.15168">
        <ele>1478</ele>
        <time>2021-04-28T14:39:44Z</time>
      </trkpt>
      <trkpt lat="44.92536" lon="4.15172">
        <ele>1479</ele>
        <time>2021-04-28T14:39:45Z</time>
      </trkpt>
      <trkpt lat="44.92534" lon="4.15176">
        <ele>1479</ele>
        <time>2021-04-28T14:39:46Z</time>
      </trkpt>
      <trkpt lat="44.92532" lon="4.1518">
        <ele>1479</ele>
        <time>2021-04-28T14:39:47Z</time>
      </trkpt>
      <trkpt lat="44.92531" lon="4.15184">
        <ele>1480</ele>
        <time>2021-04-28T14:39:48Z</time>
      </trkpt>
      <trkpt lat="44.92529" lon="4.15188">
        <ele>1480</ele>
        <time>2021-04-28T14:39:49Z</time>
      </trkpt>
      <trkpt lat="44.92526" lon="4.15191">
        <ele>1480</ele>
        <time>2021-04-28T14:39:50Z</time>
      </trkpt>
      <trkpt lat="44.92524" lon="4.15194">
        <ele>1480</ele>
        <time>2021-04-28T14:39:51Z</time>
      </trkpt>
      <trkpt lat="44.92522" lon="4.15196">
        <ele>1480</ele>
        <time>2021-04-28T14:39:52Z</time>
      </trkpt>
      <trkpt lat="44.92519" lon="4.15198">
        <ele>1481</ele>
        <time>2021-04-28T14:39:53Z</time>
      </trkpt>
      <trkpt lat="44.92516" lon="4.152">
        <ele>1481</ele>
        <time>2021-04-28T14:39:54Z</time>
      </trkpt>
      <trkpt lat="44.92513" lon="4.15202">
        <ele>1481</ele>
        <time>2021-04-28T14:39:55Z</time>
      </trkpt>
      <trkpt lat="44.9251" lon="4.15204">
        <ele>1482</ele>
        <time>2021-04-28T14:39:56Z</time>
      </trkpt>
      <trkpt lat="44.92507" lon="4.15206">
        <ele>1482</ele>
        <time>2021-04-28T14:39:57Z</time>
      </trkpt>
      <trkpt lat="44.92504" lon="4.15207">
        <ele>1482</ele>
        <time>2021-04-28T14:39:58Z</time>
      </trkpt>
      <trkpt lat="44.92501" lon="4.15209">
        <ele>1482</ele>
        <time>2021-04-28T14:39:59Z</time>
      </trkpt>
      <trkpt lat="44.92498" lon="4.1521">
        <ele>1482</ele>
        <time>2021-04-28T14:40:00Z</time>
      </trkpt>
      <trkpt lat="44.92495" lon="4.15211">
        <ele>1483</ele>
        <time>2021-04-28T14:40:01Z</time>
      </trkpt>
      <trkpt lat="44.92492" lon="4.15211">
        <ele>1483</ele>
        <time>2021-04-28T14:40:02Z</time>
      </trkpt>
      <trkpt lat="44.92489" lon="4.15212">
        <ele>1483</ele>
        <time>2021-04-28T14:40:03Z</time>
      </trkpt>
      <trkpt lat="44.92487" lon="4.15214">
        <ele>1483</ele>
        <time>2021-04-28T14:40:04Z</time>
      </trkpt>
      <trkpt lat="44.92485" lon="4.15216">
        <ele>1484</ele>
        <time>2021-04-28T14:40:05Z</time>
      </trkpt>
      <trkpt lat="44.92482" lon="4.15217">
        <ele>1484</ele>
        <time>2021-04-28T14:40:06Z</time>
      </trkpt>
      <trkpt lat="44.92479" lon="4.15218">
        <ele>1484</ele>
        <time>2021-04-28T14:40:07Z</time>
      </trkpt>
      <trkpt lat="44.92476" lon="4.15219">
        <ele>1485</ele>
        <time>2021-04-28T14:40:08Z</time>
      </trkpt>
      <trkpt lat="44.92474" lon="4.1522">
        <ele>1485</ele>
        <time>2021-04-28T14:40:09Z</time>
      </trkpt>
      <trkpt lat="44.92471" lon="4.15221">
        <ele>1485</ele>
        <time>2021-04-28T14:40:10Z</time>
      </trkpt>
      <trkpt lat="44.92468" lon="4.15222">
        <ele>1486</ele>
        <time>2021-04-28T14:40:11Z</time>
      </trkpt>
      <trkpt lat="44.92466" lon="4.15223">
        <ele>1486</ele>
        <time>2021-04-28T14:40:12Z</time>
      </trkpt>
      <trkpt lat="44.92463" lon="4.15223">
        <ele>1486</ele>
        <time>2021-04-28T14:40:13Z</time>
      </trkpt>
      <trkpt lat="44.9246" lon="4.15224">
        <ele>1487</ele>
        <time>2021-04-28T14:40:14Z</time>
      </trkpt>
      <trkpt lat="44.92458" lon="4.15225">
        <ele>1488</ele>
        <time>2021-04-28T14:40:15Z</time>
      </trkpt>
      <trkpt lat="44.92456" lon="4.15227">
        <ele>1488</ele>
        <time>2021-04-28T14:40:16Z</time>
      </trkpt>
      <trkpt lat="44.92455" lon="4.15229">
        <ele>1489</ele>
        <time>2021-04-28T14:40:17Z</time>
      </trkpt>
      <trkpt lat="44.92453" lon="4.15231">
        <ele>1489</ele>
        <time>2021-04-28T14:40:18Z</time>
      </trkpt>
      <trkpt lat="44.9245" lon="4.15233">
        <ele>1490</ele>
        <time>2021-04-28T14:40:19Z</time>
      </trkpt>
      <trkpt lat="44.92448" lon="4.15234">
        <ele>1490</ele>
        <time>2021-04-28T14:40:20Z</time>
      </trkpt>
      <trkpt lat="44.92445" lon="4.15236">
        <ele>1491</ele>
        <time>2021-04-28T14:40:21Z</time>
      </trkpt>
      <trkpt lat="44.92443" lon="4.15237">
        <ele>1491</ele>
        <time>2021-04-28T14:40:22Z</time>
      </trkpt>
      <trkpt lat="44.9244" lon="4.15238">
        <ele>1491</ele>
        <time>2021-04-28T14:40:23Z</time>
      </trkpt>
      <trkpt lat="44.92438" lon="4.15239">
        <ele>1492</ele>
        <time>2021-04-28T14:40:24Z</time>
      </trkpt>
      <trkpt lat="44.92436" lon="4.15241">
        <ele>1492</ele>
        <time>2021-04-28T14:40:25Z</time>
      </trkpt>
      <trkpt lat="44.92434" lon="4.15242">
        <ele>1492</ele>
        <time>2021-04-28T14:40:26Z</time>
      </trkpt>
      <trkpt lat="44.92431" lon="4.15244">
        <ele>1492</ele>
        <time>2021-04-28T14:40:27Z</time>
      </trkpt>
      <trkpt lat="44.92429" lon="4.15245">
        <ele>1493</ele>
        <time>2021-04-28T14:40:28Z</time>
      </trkpt>
      <trkpt lat="44.92426" lon="4.15246">
        <ele>1493</ele>
        <time>2021-04-28T14:40:29Z</time>
      </trkpt>
      <trkpt lat="44.92424" lon="4.15248">
        <ele>1494</ele>
        <time>2021-04-28T14:40:30Z</time>
      </trkpt>
      <trkpt lat="44.92422" lon="4.15249">
        <ele>1494</ele>
        <time>2021-04-28T14:40:31Z</time>
      </trkpt>
      <trkpt lat="44.92419" lon="4.15251">
        <ele>1495</ele>
        <time>2021-04-28T14:40:32Z</time>
      </trkpt>
      <trkpt lat="44.92417" lon="4.15252">
        <ele>1495</ele>
        <time>2021-04-28T14:40:33Z</time>
      </trkpt>
      <trkpt lat="44.92415" lon="4.15254">
        <ele>1495</ele>
        <time>2021-04-28T14:40:34Z</time>
      </trkpt>
      <trkpt lat="44.92413" lon="4.15256">
        <ele>1496</ele>
        <time>2021-04-28T14:40:35Z</time>
      </trkpt>
      <trkpt lat="44.9241" lon="4.15258">
        <ele>1497</ele>
        <time>2021-04-28T14:40:36Z</time>
      </trkpt>
      <trkpt lat="44.92408" lon="4.15259">
        <ele>1497</ele>
        <time>2021-04-28T14:40:37Z</time>
      </trkpt>
      <trkpt lat="44.92406" lon="4.15261">
        <ele>1497</ele>
        <time>2021-04-28T14:40:38Z</time>
      </trkpt>
      <trkpt lat="44.92404" lon="4.15263">
        <ele>1497</ele>
        <time>2021-04-28T14:40:39Z</time>
      </trkpt>
      <trkpt lat="44.92402" lon="4.15265">
        <ele>1498</ele>
        <time>2021-04-28T14:40:40Z</time>
      </trkpt>
      <trkpt lat="44.92401" lon="4.15267">
        <ele>1498</ele>
        <time>2021-04-28T14:40:41Z</time>
      </trkpt>
      <trkpt lat="44.92399" lon="4.1527">
        <ele>1498</ele>
        <time>2021-04-28T14:40:42Z</time>
      </trkpt>
      <trkpt lat="44.92398" lon="4.15273">
        <ele>1499</ele>
        <time>2021-04-28T14:40:43Z</time>
      </trkpt>
      <trkpt lat="44.92397" lon="4.15275">
        <ele>1499</ele>
        <time>2021-04-28T14:40:44Z</time>
      </trkpt>
      <trkpt lat="44.92395" lon="4.15278">
        <ele>1500</ele>
        <time>2021-04-28T14:40:45Z</time>
      </trkpt>
      <trkpt lat="44.92394" lon="4.1528">
        <ele>1500</ele>
        <time>2021-04-28T14:40:46Z</time>
      </trkpt>
      <trkpt lat="44.92393" lon="4.15282">
        <ele>1500</ele>
        <time>2021-04-28T14:40:47Z</time>
      </trkpt>
      <trkpt lat="44.92392" lon="4.15285">
        <ele>1500</ele>
        <time>2021-04-28T14:40:48Z</time>
      </trkpt>
      <trkpt lat="44.92391" lon="4.15288">
        <ele>1501</ele>
        <time>2021-04-28T14:40:49Z</time>
      </trkpt>
      <trkpt lat="44.9239" lon="4.15291">
        <ele>1501</ele>
        <time>2021-04-28T14:40:50Z</time>
      </trkpt>
      <trkpt lat="44.92389" lon="4.15294">
        <ele>1501</ele>
        <time>2021-04-28T14:40:51Z</time>
      </trkpt>
      <trkpt lat="44.92389" lon="4.15297">
        <ele>1502</ele>
        <time>2021-04-28T14:40:52Z</time>
      </trkpt>
      <trkpt lat="44.92388" lon="4.153">
        <ele>1502</ele>
        <time>2021-04-28T14:40:53Z</time>
      </trkpt>
      <trkpt lat="44.92387" lon="4.15303">
        <ele>1503</ele>
        <time>2021-04-28T14:40:54Z</time>
      </trkpt>
      <trkpt lat="44.92387" lon="4.15307">
        <ele>1503</ele>
        <time>2021-04-28T14:40:55Z</time>
      </trkpt>
      <trkpt lat="44.92386" lon="4.1531">
        <ele>1503</ele>
        <time>2021-04-28T14:40:56Z</time>
      </trkpt>
      <trkpt lat="44.92386" lon="4.15313">
        <ele>1504</ele>
        <time>2021-04-28T14:40:57Z</time>
      </trkpt>
      <trkpt lat="44.92385" lon="4.15317">
        <ele>1504</ele>
        <time>2021-04-28T14:40:58Z</time>
      </trkpt>
      <trkpt lat="44.92385" lon="4.1532">
        <ele>1505</ele>
        <time>2021-04-28T14:40:59Z</time>
      </trkpt>
      <trkpt lat="44.92385" lon="4.15323">
        <ele>1505</ele>
        <time>2021-04-28T14:41:00Z</time>
      </trkpt>
      <trkpt lat="44.92386" lon="4.15327">
        <ele>1506</ele>
        <time>2021-04-28T14:41:01Z</time>
      </trkpt>
      <trkpt lat="44.92387" lon="4.15331">
        <ele>1506</ele>
        <time>2021-04-28T14:41:02Z</time>
      </trkpt>
      <trkpt lat="44.92388" lon="4.15334">
        <ele>1506</ele>
        <time>2021-04-28T14:41:03Z</time>
      </trkpt>
      <trkpt lat="44.92389" lon="4.15337">
        <ele>1507</ele>
        <time>2021-04-28T14:41:04Z</time>
      </trkpt>
      <trkpt lat="44.9239" lon="4.1534">
        <ele>1507</ele>
        <time>2021-04-28T14:41:05Z</time>
      </trkpt>
      <trkpt lat="44.92391" lon="4.15343">
        <ele>1508</ele>
        <time>2021-04-28T14:41:06Z</time>
      </trkpt>
      <trkpt lat="44.92393" lon="4.15347">
        <ele>1508</ele>
        <time>2021-04-28T14:41:07Z</time>
      </trkpt>
      <trkpt lat="44.92394" lon="4.15351">
        <ele>1508</ele>
        <time>2021-04-28T14:41:08Z</time>
      </trkpt>
      <trkpt lat="44.92396" lon="4.15354">
        <ele>1509</ele>
        <time>2021-04-28T14:41:09Z</time>
      </trkpt>
      <trkpt lat="44.92396" lon="4.15357">
        <ele>1509</ele>
        <time>2021-04-28T14:41:10Z</time>
      </trkpt>
      <trkpt lat="44.92397" lon="4.1536">
        <ele>1509</ele>
        <time>2021-04-28T14:41:11Z</time>
      </trkpt>
      <trkpt lat="44.92397" lon="4.15364">
        <ele>1509</ele>
        <time>2021-04-28T14:41:12Z</time>
      </trkpt>
      <trkpt lat="44.92398" lon="4.15368">
        <ele>1510</ele>
        <time>2021-04-28T14:41:13Z</time>
      </trkpt>
      <trkpt lat="44.92398" lon="4.15373">
        <ele>1510</ele>
        <time>2021-04-28T14:41:14Z</time>
      </trkpt>
      <trkpt lat="44.92397" lon="4.15376">
        <ele>1510</ele>
        <time>2021-04-28T14:41:15Z</time>
      </trkpt>
      <trkpt lat="44.92396" lon="4.1538">
        <ele>1510</ele>
        <time>2021-04-28T14:41:16Z</time>
      </trkpt>
      <trkpt lat="44.92395" lon="4.15383">
        <ele>1510</ele>
        <time>2021-04-28T14:41:17Z</time>
      </trkpt>
      <trkpt lat="44.92393" lon="4.15385">
        <ele>1510</ele>
        <time>2021-04-28T14:41:18Z</time>
      </trkpt>
      <trkpt lat="44.92392" lon="4.15388">
        <ele>1511</ele>
        <time>2021-04-28T14:41:19Z</time>
      </trkpt>
      <trkpt lat="44.92391" lon="4.1539">
        <ele>1511</ele>
        <time>2021-04-28T14:41:20Z</time>
      </trkpt>
      <trkpt lat="44.92391" lon="4.15393">
        <ele>1511</ele>
        <time>2021-04-28T14:41:21Z</time>
      </trkpt>
      <trkpt lat="44.92391" lon="4.15396">
        <ele>1511</ele>
        <time>2021-04-28T14:41:22Z</time>
      </trkpt>
      <trkpt lat="44.92391" lon="4.154">
        <ele>1511</ele>
        <time>2021-04-28T14:41:23Z</time>
      </trkpt>
      <trkpt lat="44.92392" lon="4.15404">
        <ele>1512</ele>
        <time>2021-04-28T14:41:24Z</time>
      </trkpt>
      <trkpt lat="44.92392" lon="4.15408">
        <ele>1512</ele>
        <time>2021-04-28T14:41:25Z</time>
      </trkpt>
      <trkpt lat="44.92394" lon="4.15413">
        <ele>1512</ele>
        <time>2021-04-28T14:41:26Z</time>
      </trkpt>
      <trkpt lat="44.92396" lon="4.15418">
        <ele>1513</ele>
        <time>2021-04-28T14:41:27Z</time>
      </trkpt>
      <trkpt lat="44.92397" lon="4.15422">
        <ele>1513</ele>
        <time>2021-04-28T14:41:28Z</time>
      </trkpt>
      <trkpt lat="44.92397" lon="4.15426">
        <ele>1513</ele>
        <time>2021-04-28T14:41:29Z</time>
      </trkpt>
      <trkpt lat="44.92397" lon="4.1543">
        <ele>1513</ele>
        <time>2021-04-28T14:41:30Z</time>
      </trkpt>
      <trkpt lat="44.92397" lon="4.15434">
        <ele>1514</ele>
        <time>2021-04-28T14:41:31Z</time>
      </trkpt>
      <trkpt lat="44.92397" lon="4.15438">
        <ele>1514</ele>
        <time>2021-04-28T14:41:32Z</time>
      </trkpt>
      <trkpt lat="44.92396" lon="4.15441">
        <ele>1514</ele>
        <time>2021-04-28T14:41:33Z</time>
      </trkpt>
      <trkpt lat="44.92395" lon="4.15445">
        <ele>1514</ele>
        <time>2021-04-28T14:41:34Z</time>
      </trkpt>
      <trkpt lat="44.92395" lon="4.15448">
        <ele>1514</ele>
        <time>2021-04-28T14:41:35Z</time>
      </trkpt>
      <trkpt lat="44.92394" lon="4.15452">
        <ele>1514</ele>
        <time>2021-04-28T14:41:36Z</time>
      </trkpt>
      <trkpt lat="44.92393" lon="4.15456">
        <ele>1514</ele>
        <time>2021-04-28T14:41:37Z</time>
      </trkpt>
      <trkpt lat="44.92392" lon="4.1546">
        <ele>1515</ele>
        <time>2021-04-28T14:41:38Z</time>
      </trkpt>
      <trkpt lat="44.92391" lon="4.15463">
        <ele>1515</ele>
        <time>2021-04-28T14:41:39Z</time>
      </trkpt>
      <trkpt lat="44.92389" lon="4.15467">
        <ele>1516</ele>
        <time>2021-04-28T14:41:40Z</time>
      </trkpt>
      <trkpt lat="44.92388" lon="4.1547">
        <ele>1516</ele>
        <time>2021-04-28T14:41:41Z</time>
      </trkpt>
      <trkpt lat="44.92386" lon="4.15474">
        <ele>1516</ele>
        <time>2021-04-28T14:41:42Z</time>
      </trkpt>
      <trkpt lat="44.92385" lon="4.15478">
        <ele>1517</ele>
        <time>2021-04-28T14:41:43Z</time>
      </trkpt>
      <trkpt lat="44.92385" lon="4.15481">
        <ele>1517</ele>
        <time>2021-04-28T14:41:44Z</time>
      </trkpt>
      <trkpt lat="44.92386" lon="4.15484">
        <ele>1517</ele>
        <time>2021-04-28T14:41:45Z</time>
      </trkpt>
      <trkpt lat="44.92387" lon="4.15488">
        <ele>1518</ele>
        <time>2021-04-28T14:41:46Z</time>
      </trkpt>
      <trkpt lat="44.92389" lon="4.15491">
        <ele>1518</ele>
        <time>2021-04-28T14:41:47Z</time>
      </trkpt>
      <trkpt lat="44.92391" lon="4.15495">
        <ele>1519</ele>
        <time>2021-04-28T14:41:48Z</time>
      </trkpt>
      <trkpt lat="44.92392" lon="4.15499">
        <ele>1519</ele>
        <time>2021-04-28T14:41:49Z</time>
      </trkpt>
      <trkpt lat="44.92394" lon="4.15504">
        <ele>1520</ele>
        <time>2021-04-28T14:41:50Z</time>
      </trkpt>
      <trkpt lat="44.92396" lon="4.15508">
        <ele>1520</ele>
        <time>2021-04-28T14:41:51Z</time>
      </trkpt>
      <trkpt lat="44.92397" lon="4.15511">
        <ele>1520</ele>
        <time>2021-04-28T14:41:52Z</time>
      </trkpt>
      <trkpt lat="44.92398" lon="4.15515">
        <ele>1521</ele>
        <time>2021-04-28T14:41:53Z</time>
      </trkpt>
      <trkpt lat="44.92399" lon="4.15519">
        <ele>1521</ele>
        <time>2021-04-28T14:41:54Z</time>
      </trkpt>
      <trkpt lat="44.92399" lon="4.15523">
        <ele>1521</ele>
        <time>2021-04-28T14:41:55Z</time>
      </trkpt>
      <trkpt lat="44.92399" lon="4.15526">
        <ele>1521</ele>
        <time>2021-04-28T14:41:56Z</time>
      </trkpt>
      <trkpt lat="44.92398" lon="4.1553">
        <ele>1522</ele>
        <time>2021-04-28T14:41:57Z</time>
      </trkpt>
      <trkpt lat="44.92396" lon="4.15533">
        <ele>1522</ele>
        <time>2021-04-28T14:41:58Z</time>
      </trkpt>
      <trkpt lat="44.92394" lon="4.15536">
        <ele>1523</ele>
        <time>2021-04-28T14:41:59Z</time>
      </trkpt>
      <trkpt lat="44.92392" lon="4.15538">
        <ele>1523</ele>
        <time>2021-04-28T14:42:00Z</time>
      </trkpt>
      <trkpt lat="44.92389" lon="4.15539">
        <ele>1524</ele>
        <time>2021-04-28T14:42:01Z</time>
      </trkpt>
      <trkpt lat="44.92386" lon="4.1554">
        <ele>1524</ele>
        <time>2021-04-28T14:42:02Z</time>
      </trkpt>
      <trkpt lat="44.92383" lon="4.15541">
        <ele>1524</ele>
        <time>2021-04-28T14:42:03Z</time>
      </trkpt>
      <trkpt lat="44.9238" lon="4.1554">
        <ele>1525</ele>
        <time>2021-04-28T14:42:04Z</time>
      </trkpt>
      <trkpt lat="44.92377" lon="4.15538">
        <ele>1525</ele>
        <time>2021-04-28T14:42:05Z</time>
      </trkpt>
      <trkpt lat="44.92376" lon="4.15535">
        <ele>1525</ele>
        <time>2021-04-28T14:42:06Z</time>
      </trkpt>
      <trkpt lat="44.92375" lon="4.15532">
        <ele>1526</ele>
        <time>2021-04-28T14:42:07Z</time>
      </trkpt>
      <trkpt lat="44.92374" lon="4.15529">
        <ele>1526</ele>
        <time>2021-04-28T14:42:08Z</time>
      </trkpt>
      <trkpt lat="44.92373" lon="4.15526">
        <ele>1527</ele>
        <time>2021-04-28T14:42:09Z</time>
      </trkpt>
      <trkpt lat="44.92371" lon="4.15523">
        <ele>1527</ele>
        <time>2021-04-28T14:42:10Z</time>
      </trkpt>
      <trkpt lat="44.9237" lon="4.15521">
        <ele>1527</ele>
        <time>2021-04-28T14:42:11Z</time>
      </trkpt>
      <trkpt lat="44.92368" lon="4.15518">
        <ele>1527</ele>
        <time>2021-04-28T14:42:12Z</time>
      </trkpt>
      <trkpt lat="44.92367" lon="4.15515">
        <ele>1528</ele>
        <time>2021-04-28T14:42:13Z</time>
      </trkpt>
      <trkpt lat="44.92365" lon="4.15513">
        <ele>1528</ele>
        <time>2021-04-28T14:42:14Z</time>
      </trkpt>
      <trkpt lat="44.92362" lon="4.15512">
        <ele>1528</ele>
        <time>2021-04-28T14:42:15Z</time>
      </trkpt>
      <trkpt lat="44.9236" lon="4.15511">
        <ele>1528</ele>
        <time>2021-04-28T14:42:16Z</time>
      </trkpt>
      <trkpt lat="44.92358" lon="4.15511">
        <ele>1528</ele>
        <time>2021-04-28T14:42:17Z</time>
      </trkpt>
      <trkpt lat="44.92356" lon="4.1551">
        <ele>1528</ele>
        <time>2021-04-28T14:42:18Z</time>
      </trkpt>
      <trkpt lat="44.92353" lon="4.1551">
        <ele>1529</ele>
        <time>2021-04-28T14:42:19Z</time>
      </trkpt>
      <trkpt lat="44.92351" lon="4.15511">
        <ele>1529</ele>
        <time>2021-04-28T14:42:20Z</time>
      </trkpt>
      <trkpt lat="44.9235" lon="4.15512">
        <ele>1529</ele>
        <time>2021-04-28T14:42:21Z</time>
      </trkpt>
      <trkpt lat="44.92348" lon="4.15514">
        <ele>1529</ele>
        <time>2021-04-28T14:42:22Z</time>
      </trkpt>
      <trkpt lat="44.92346" lon="4.15516">
        <ele>1530</ele>
        <time>2021-04-28T14:42:23Z</time>
      </trkpt>
      <trkpt lat="44.92345" lon="4.15517">
        <ele>1530</ele>
        <time>2021-04-28T14:42:24Z</time>
      </trkpt>
      <trkpt lat="44.92343" lon="4.15519">
        <ele>1530</ele>
        <time>2021-04-28T14:42:25Z</time>
      </trkpt>
      <trkpt lat="44.92342" lon="4.15521">
        <ele>1531</ele>
        <time>2021-04-28T14:42:26Z</time>
      </trkpt>
      <trkpt lat="44.9234" lon="4.15523">
        <ele>1531</ele>
        <time>2021-04-28T14:42:27Z</time>
      </trkpt>
      <trkpt lat="44.92338" lon="4.15524">
        <ele>1531</ele>
        <time>2021-04-28T14:42:28Z</time>
      </trkpt>
      <trkpt lat="44.92336" lon="4.15525">
        <ele>1532</ele>
        <time>2021-04-28T14:42:29Z</time>
      </trkpt>
      <trkpt lat="44.92333" lon="4.15526">
        <ele>1532</ele>
        <time>2021-04-28T14:42:31Z</time>
      </trkpt>
      <trkpt lat="44.92331" lon="4.15528">
        <ele>1532</ele>
        <time>2021-04-28T14:42:33Z</time>
      </trkpt>
      <trkpt lat="44.92328" lon="4.15531">
        <ele>1533</ele>
        <time>2021-04-28T14:42:35Z</time>
      </trkpt>
      <trkpt lat="44.92327" lon="4.15533">
        <ele>1533</ele>
        <time>2021-04-28T14:42:36Z</time>
      </trkpt>
      <trkpt lat="44.92325" lon="4.15534">
        <ele>1533</ele>
        <time>2021-04-28T14:42:37Z</time>
      </trkpt>
      <trkpt lat="44.92323" lon="4.15538">
        <ele>1534</ele>
        <time>2021-04-28T14:42:39Z</time>
      </trkpt>
      <trkpt lat="44.92322" lon="4.1554">
        <ele>1535</ele>
        <time>2021-04-28T14:42:40Z</time>
      </trkpt>
      <trkpt lat="44.9232" lon="4.15542">
        <ele>1535</ele>
        <time>2021-04-28T14:42:41Z</time>
      </trkpt>
      <trkpt lat="44.92319" lon="4.15545">
        <ele>1535</ele>
        <time>2021-04-28T14:42:42Z</time>
      </trkpt>
      <trkpt lat="44.92318" lon="4.15547">
        <ele>1536</ele>
        <time>2021-04-28T14:42:43Z</time>
      </trkpt>
      <trkpt lat="44.92317" lon="4.1555">
        <ele>1536</ele>
        <time>2021-04-28T14:42:44Z</time>
      </trkpt>
      <trkpt lat="44.92317" lon="4.15553">
        <ele>1536</ele>
        <time>2021-04-28T14:42:45Z</time>
      </trkpt>
      <trkpt lat="44.92316" lon="4.15556">
        <ele>1537</ele>
        <time>2021-04-28T14:42:46Z</time>
      </trkpt>
      <trkpt lat="44.92316" lon="4.15559">
        <ele>1537</ele>
        <time>2021-04-28T14:42:47Z</time>
      </trkpt>
      <trkpt lat="44.92314" lon="4.15562">
        <ele>1538</ele>
        <time>2021-04-28T14:42:49Z</time>
      </trkpt>
      <trkpt lat="44.92313" lon="4.15566">
        <ele>1539</ele>
        <time>2021-04-28T14:42:51Z</time>
      </trkpt>
      <trkpt lat="44.92313" lon="4.15569">
        <ele>1539</ele>
        <time>2021-04-28T14:42:52Z</time>
      </trkpt>
      <trkpt lat="44.92313" lon="4.15572">
        <ele>1539</ele>
        <time>2021-04-28T14:42:53Z</time>
      </trkpt>
      <trkpt lat="44.92313" lon="4.15575">
        <ele>1540</ele>
        <time>2021-04-28T14:42:54Z</time>
      </trkpt>
      <trkpt lat="44.92313" lon="4.15578">
        <ele>1540</ele>
        <time>2021-04-28T14:42:55Z</time>
      </trkpt>
      <trkpt lat="44.92313" lon="4.15581">
        <ele>1541</ele>
        <time>2021-04-28T14:42:56Z</time>
      </trkpt>
      <trkpt lat="44.92312" lon="4.15584">
        <ele>1541</ele>
        <time>2021-04-28T14:42:57Z</time>
      </trkpt>
      <trkpt lat="44.92312" lon="4.15588">
        <ele>1541</ele>
        <time>2021-04-28T14:42:58Z</time>
      </trkpt>
      <trkpt lat="44.92311" lon="4.15591">
        <ele>1541</ele>
        <time>2021-04-28T14:42:59Z</time>
      </trkpt>
      <trkpt lat="44.9231" lon="4.15594">
        <ele>1542</ele>
        <time>2021-04-28T14:43:00Z</time>
      </trkpt>
      <trkpt lat="44.92309" lon="4.15596">
        <ele>1542</ele>
        <time>2021-04-28T14:43:01Z</time>
      </trkpt>
      <trkpt lat="44.92308" lon="4.15599">
        <ele>1542</ele>
        <time>2021-04-28T14:43:02Z</time>
      </trkpt>
      <trkpt lat="44.92308" lon="4.15601">
        <ele>1542</ele>
        <time>2021-04-28T14:43:03Z</time>
      </trkpt>
      <trkpt lat="44.92307" lon="4.15604">
        <ele>1542</ele>
        <time>2021-04-28T14:43:04Z</time>
      </trkpt>
      <trkpt lat="44.92306" lon="4.15606">
        <ele>1543</ele>
        <time>2021-04-28T14:43:05Z</time>
      </trkpt>
      <trkpt lat="44.92305" lon="4.15609">
        <ele>1543</ele>
        <time>2021-04-28T14:43:06Z</time>
      </trkpt>
      <trkpt lat="44.92304" lon="4.15611">
        <ele>1543</ele>
        <time>2021-04-28T14:43:07Z</time>
      </trkpt>
      <trkpt lat="44.92303" lon="4.15616">
        <ele>1544</ele>
        <time>2021-04-28T14:43:09Z</time>
      </trkpt>
      <trkpt lat="44.92303" lon="4.15619">
        <ele>1544</ele>
        <time>2021-04-28T14:43:10Z</time>
      </trkpt>
      <trkpt lat="44.92302" lon="4.15622">
        <ele>1545</ele>
        <time>2021-04-28T14:43:11Z</time>
      </trkpt>
      <trkpt lat="44.92301" lon="4.15625">
        <ele>1545</ele>
        <time>2021-04-28T14:43:12Z</time>
      </trkpt>
      <trkpt lat="44.92301" lon="4.15628">
        <ele>1546</ele>
        <time>2021-04-28T14:43:13Z</time>
      </trkpt>
      <trkpt lat="44.92301" lon="4.15631">
        <ele>1546</ele>
        <time>2021-04-28T14:43:14Z</time>
      </trkpt>
      <trkpt lat="44.92301" lon="4.15634">
        <ele>1546</ele>
        <time>2021-04-28T14:43:15Z</time>
      </trkpt>
      <trkpt lat="44.92302" lon="4.15636">
        <ele>1547</ele>
        <time>2021-04-28T14:43:16Z</time>
      </trkpt>
      <trkpt lat="44.92302" lon="4.15639">
        <ele>1547</ele>
        <time>2021-04-28T14:43:17Z</time>
      </trkpt>
      <trkpt lat="44.92302" lon="4.15642">
        <ele>1547</ele>
        <time>2021-04-28T14:43:18Z</time>
      </trkpt>
      <trkpt lat="44.92303" lon="4.15645">
        <ele>1548</ele>
        <time>2021-04-28T14:43:19Z</time>
      </trkpt>
      <trkpt lat="44.92303" lon="4.15649">
        <ele>1548</ele>
        <time>2021-04-28T14:43:20Z</time>
      </trkpt>
      <trkpt lat="44.92304" lon="4.15652">
        <ele>1548</ele>
        <time>2021-04-28T14:43:21Z</time>
      </trkpt>
      <trkpt lat="44.92305" lon="4.15656">
        <ele>1549</ele>
        <time>2021-04-28T14:43:22Z</time>
      </trkpt>
      <trkpt lat="44.92306" lon="4.1566">
        <ele>1549</ele>
        <time>2021-04-28T14:43:23Z</time>
      </trkpt>
      <trkpt lat="44.92306" lon="4.15665">
        <ele>1549</ele>
        <time>2021-04-28T14:43:24Z</time>
      </trkpt>
      <trkpt lat="44.92306" lon="4.15669">
        <ele>1549</ele>
        <time>2021-04-28T14:43:25Z</time>
      </trkpt>
      <trkpt lat="44.92306" lon="4.15672">
        <ele>1550</ele>
        <time>2021-04-28T14:43:26Z</time>
      </trkpt>
      <trkpt lat="44.92306" lon="4.15675">
        <ele>1550</ele>
        <time>2021-04-28T14:43:27Z</time>
      </trkpt>
      <trkpt lat="44.92306" lon="4.15678">
        <ele>1550</ele>
        <time>2021-04-28T14:43:28Z</time>
      </trkpt>
      <trkpt lat="44.92307" lon="4.15682">
        <ele>1551</ele>
        <time>2021-04-28T14:43:29Z</time>
      </trkpt>
      <trkpt lat="44.92308" lon="4.15687">
        <ele>1551</ele>
        <time>2021-04-28T14:43:30Z</time>
      </trkpt>
      <trkpt lat="44.9231" lon="4.15691">
        <ele>1551</ele>
        <time>2021-04-28T14:43:31Z</time>
      </trkpt>
      <trkpt lat="44.92312" lon="4.15695">
        <ele>1551</ele>
        <time>2021-04-28T14:43:32Z</time>
      </trkpt>
      <trkpt lat="44.92315" lon="4.15698">
        <ele>1551</ele>
        <time>2021-04-28T14:43:33Z</time>
      </trkpt>
      <trkpt lat="44.92319" lon="4.15703">
        <ele>1552</ele>
        <time>2021-04-28T14:43:34Z</time>
      </trkpt>
      <trkpt lat="44.92322" lon="4.15707">
        <ele>1552</ele>
        <time>2021-04-28T14:43:35Z</time>
      </trkpt>
      <trkpt lat="44.92325" lon="4.15712">
        <ele>1552</ele>
        <time>2021-04-28T14:43:36Z</time>
      </trkpt>
      <trkpt lat="44.92327" lon="4.15718">
        <ele>1552</ele>
        <time>2021-04-28T14:43:37Z</time>
      </trkpt>
      <trkpt lat="44.92329" lon="4.15724">
        <ele>1552</ele>
        <time>2021-04-28T14:43:38Z</time>
      </trkpt>
      <trkpt lat="44.92329" lon="4.15729">
        <ele>1552</ele>
        <time>2021-04-28T14:43:39Z</time>
      </trkpt>
      <trkpt lat="44.92329" lon="4.15733">
        <ele>1552</ele>
        <time>2021-04-28T14:43:40Z</time>
      </trkpt>
      <trkpt lat="44.92329" lon="4.15737">
        <ele>1552</ele>
        <time>2021-04-28T14:43:41Z</time>
      </trkpt>
      <trkpt lat="44.92329" lon="4.15741">
        <ele>1552</ele>
        <time>2021-04-28T14:43:42Z</time>
      </trkpt>
      <trkpt lat="44.92328" lon="4.15743">
        <ele>1552</ele>
        <time>2021-04-28T14:43:43Z</time>
      </trkpt>
      <trkpt lat="44.92329" lon="4.15747">
        <ele>1552</ele>
        <time>2021-04-28T14:43:44Z</time>
      </trkpt>
      <trkpt lat="44.92329" lon="4.15751">
        <ele>1552</ele>
        <time>2021-04-28T14:43:45Z</time>
      </trkpt>
      <trkpt lat="44.92329" lon="4.15755">
        <ele>1553</ele>
        <time>2021-04-28T14:43:46Z</time>
      </trkpt>
      <trkpt lat="44.9233" lon="4.15759">
        <ele>1553</ele>
        <time>2021-04-28T14:43:47Z</time>
      </trkpt>
      <trkpt lat="44.9233" lon="4.15762">
        <ele>1553</ele>
        <time>2021-04-28T14:43:48Z</time>
      </trkpt>
      <trkpt lat="44.92331" lon="4.15766">
        <ele>1553</ele>
        <time>2021-04-28T14:43:49Z</time>
      </trkpt>
      <trkpt lat="44.92331" lon="4.1577">
        <ele>1553</ele>
        <time>2021-04-28T14:43:50Z</time>
      </trkpt>
      <trkpt lat="44.9233" lon="4.15774">
        <ele>1553</ele>
        <time>2021-04-28T14:43:51Z</time>
      </trkpt>
      <trkpt lat="44.92331" lon="4.15778">
        <ele>1553</ele>
        <time>2021-04-28T14:43:52Z</time>
      </trkpt>
      <trkpt lat="44.92331" lon="4.15782">
        <ele>1553</ele>
        <time>2021-04-28T14:43:53Z</time>
      </trkpt>
      <trkpt lat="44.92332" lon="4.15787">
        <ele>1553</ele>
        <time>2021-04-28T14:43:54Z</time>
      </trkpt>
      <trkpt lat="44.92332" lon="4.15791">
        <ele>1553</ele>
        <time>2021-04-28T14:43:55Z</time>
      </trkpt>
      <trkpt lat="44.92332" lon="4.15795">
        <ele>1553</ele>
        <time>2021-04-28T14:43:56Z</time>
      </trkpt>
      <trkpt lat="44.92333" lon="4.158">
        <ele>1553</ele>
        <time>2021-04-28T14:43:57Z</time>
      </trkpt>
      <trkpt lat="44.92333" lon="4.15804">
        <ele>1553</ele>
        <time>2021-04-28T14:43:58Z</time>
      </trkpt>
      <trkpt lat="44.92334" lon="4.15809">
        <ele>1553</ele>
        <time>2021-04-28T14:43:59Z</time>
      </trkpt>
      <trkpt lat="44.92334" lon="4.15812">
        <ele>1554</ele>
        <time>2021-04-28T14:44:00Z</time>
      </trkpt>
      <trkpt lat="44.92335" lon="4.15816">
        <ele>1554</ele>
        <time>2021-04-28T14:44:01Z</time>
      </trkpt>
      <trkpt lat="44.92336" lon="4.15819">
        <ele>1554</ele>
        <time>2021-04-28T14:44:02Z</time>
      </trkpt>
      <trkpt lat="44.92337" lon="4.15823">
        <ele>1554</ele>
        <time>2021-04-28T14:44:03Z</time>
      </trkpt>
      <trkpt lat="44.92338" lon="4.15827">
        <ele>1554</ele>
        <time>2021-04-28T14:44:04Z</time>
      </trkpt>
      <trkpt lat="44.92339" lon="4.1583">
        <ele>1554</ele>
        <time>2021-04-28T14:44:05Z</time>
      </trkpt>
      <trkpt lat="44.92342" lon="4.15834">
        <ele>1554</ele>
        <time>2021-04-28T14:44:06Z</time>
      </trkpt>
      <trkpt lat="44.92344" lon="4.15837">
        <ele>1554</ele>
        <time>2021-04-28T14:44:07Z</time>
      </trkpt>
      <trkpt lat="44.92346" lon="4.15841">
        <ele>1554</ele>
        <time>2021-04-28T14:44:08Z</time>
      </trkpt>
      <trkpt lat="44.92349" lon="4.15844">
        <ele>1554</ele>
        <time>2021-04-28T14:44:09Z</time>
      </trkpt>
      <trkpt lat="44.92351" lon="4.15848">
        <ele>1554</ele>
        <time>2021-04-28T14:44:10Z</time>
      </trkpt>
      <trkpt lat="44.92353" lon="4.15852">
        <ele>1554</ele>
        <time>2021-04-28T14:44:11Z</time>
      </trkpt>
      <trkpt lat="44.92356" lon="4.15856">
        <ele>1555</ele>
        <time>2021-04-28T14:44:12Z</time>
      </trkpt>
      <trkpt lat="44.92358" lon="4.1586">
        <ele>1555</ele>
        <time>2021-04-28T14:44:13Z</time>
      </trkpt>
      <trkpt lat="44.9236" lon="4.15864">
        <ele>1555</ele>
        <time>2021-04-28T14:44:14Z</time>
      </trkpt>
      <trkpt lat="44.92363" lon="4.15869">
        <ele>1555</ele>
        <time>2021-04-28T14:44:15Z</time>
      </trkpt>
      <trkpt lat="44.92364" lon="4.15873">
        <ele>1555</ele>
        <time>2021-04-28T14:44:16Z</time>
      </trkpt>
      <trkpt lat="44.92366" lon="4.15877">
        <ele>1555</ele>
        <time>2021-04-28T14:44:17Z</time>
      </trkpt>
      <trkpt lat="44.92368" lon="4.15882">
        <ele>1555</ele>
        <time>2021-04-28T14:44:18Z</time>
      </trkpt>
      <trkpt lat="44.9237" lon="4.15887">
        <ele>1555</ele>
        <time>2021-04-28T14:44:19Z</time>
      </trkpt>
      <trkpt lat="44.92372" lon="4.15891">
        <ele>1555</ele>
        <time>2021-04-28T14:44:20Z</time>
      </trkpt>
      <trkpt lat="44.92374" lon="4.15896">
        <ele>1555</ele>
        <time>2021-04-28T14:44:21Z</time>
      </trkpt>
      <trkpt lat="44.92376" lon="4.159">
        <ele>1555</ele>
        <time>2021-04-28T14:44:22Z</time>
      </trkpt>
      <trkpt lat="44.92379" lon="4.15903">
        <ele>1555</ele>
        <time>2021-04-28T14:44:23Z</time>
      </trkpt>
      <trkpt lat="44.9238" lon="4.15907">
        <ele>1555</ele>
        <time>2021-04-28T14:44:24Z</time>
      </trkpt>
      <trkpt lat="44.92382" lon="4.1591">
        <ele>1555</ele>
        <time>2021-04-28T14:44:25Z</time>
      </trkpt>
      <trkpt lat="44.92383" lon="4.15914">
        <ele>1555</ele>
        <time>2021-04-28T14:44:26Z</time>
      </trkpt>
      <trkpt lat="44.92383" lon="4.15917">
        <ele>1555</ele>
        <time>2021-04-28T14:44:27Z</time>
      </trkpt>
      <trkpt lat="44.92383" lon="4.15921">
        <ele>1555</ele>
        <time>2021-04-28T14:44:28Z</time>
      </trkpt>
      <trkpt lat="44.92383" lon="4.15924">
        <ele>1555</ele>
        <time>2021-04-28T14:44:29Z</time>
      </trkpt>
      <trkpt lat="44.92383" lon="4.15927">
        <ele>1555</ele>
        <time>2021-04-28T14:44:30Z</time>
      </trkpt>
      <trkpt lat="44.92382" lon="4.15931">
        <ele>1555</ele>
        <time>2021-04-28T14:44:31Z</time>
      </trkpt>
      <trkpt lat="44.9238" lon="4.15934">
        <ele>1555</ele>
        <time>2021-04-28T14:44:32Z</time>
      </trkpt>
      <trkpt lat="44.92378" lon="4.15936">
        <ele>1555</ele>
        <time>2021-04-28T14:44:33Z</time>
      </trkpt>
      <trkpt lat="44.92376" lon="4.15938">
        <ele>1555</ele>
        <time>2021-04-28T14:44:34Z</time>
      </trkpt>
      <trkpt lat="44.92374" lon="4.15939">
        <ele>1555</ele>
        <time>2021-04-28T14:44:35Z</time>
      </trkpt>
      <trkpt lat="44.92371" lon="4.1594">
        <ele>1555</ele>
        <time>2021-04-28T14:44:36Z</time>
      </trkpt>
      <trkpt lat="44.92369" lon="4.15941">
        <ele>1555</ele>
        <time>2021-04-28T14:44:37Z</time>
      </trkpt>
      <trkpt lat="44.92366" lon="4.15942">
        <ele>1555</ele>
        <time>2021-04-28T14:44:38Z</time>
      </trkpt>
      <trkpt lat="44.92363" lon="4.15943">
        <ele>1555</ele>
        <time>2021-04-28T14:44:39Z</time>
      </trkpt>
      <trkpt lat="44.92361" lon="4.15944">
        <ele>1555</ele>
        <time>2021-04-28T14:44:40Z</time>
      </trkpt>
      <trkpt lat="44.92359" lon="4.15944">
        <ele>1556</ele>
        <time>2021-04-28T14:44:41Z</time>
      </trkpt>
      <trkpt lat="44.92356" lon="4.15945">
        <ele>1556</ele>
        <time>2021-04-28T14:44:42Z</time>
      </trkpt>
      <trkpt lat="44.92353" lon="4.15946">
        <ele>1556</ele>
        <time>2021-04-28T14:44:43Z</time>
      </trkpt>
      <trkpt lat="44.9235" lon="4.15947">
        <ele>1556</ele>
        <time>2021-04-28T14:44:44Z</time>
      </trkpt>
      <trkpt lat="44.92348" lon="4.15948">
        <ele>1556</ele>
        <time>2021-04-28T14:44:45Z</time>
      </trkpt>
      <trkpt lat="44.92345" lon="4.1595">
        <ele>1556</ele>
        <time>2021-04-28T14:44:46Z</time>
      </trkpt>
      <trkpt lat="44.92343" lon="4.15951">
        <ele>1556</ele>
        <time>2021-04-28T14:44:47Z</time>
      </trkpt>
      <trkpt lat="44.9234" lon="4.15952">
        <ele>1556</ele>
        <time>2021-04-28T14:44:48Z</time>
      </trkpt>
      <trkpt lat="44.92338" lon="4.15953">
        <ele>1557</ele>
        <time>2021-04-28T14:44:49Z</time>
      </trkpt>
      <trkpt lat="44.92335" lon="4.15954">
        <ele>1557</ele>
        <time>2021-04-28T14:44:50Z</time>
      </trkpt>
      <trkpt lat="44.92333" lon="4.15955">
        <ele>1557</ele>
        <time>2021-04-28T14:44:51Z</time>
      </trkpt>
      <trkpt lat="44.9233" lon="4.15956">
        <ele>1557</ele>
        <time>2021-04-28T14:44:52Z</time>
      </trkpt>
      <trkpt lat="44.92328" lon="4.15957">
        <ele>1557</ele>
        <time>2021-04-28T14:44:53Z</time>
      </trkpt>
      <trkpt lat="44.92326" lon="4.15959">
        <ele>1557</ele>
        <time>2021-04-28T14:44:54Z</time>
      </trkpt>
      <trkpt lat="44.92323" lon="4.1596">
        <ele>1557</ele>
        <time>2021-04-28T14:44:55Z</time>
      </trkpt>
      <trkpt lat="44.92321" lon="4.15962">
        <ele>1558</ele>
        <time>2021-04-28T14:44:56Z</time>
      </trkpt>
      <trkpt lat="44.92318" lon="4.15963">
        <ele>1558</ele>
        <time>2021-04-28T14:44:57Z</time>
      </trkpt>
      <trkpt lat="44.92316" lon="4.15965">
        <ele>1558</ele>
        <time>2021-04-28T14:44:58Z</time>
      </trkpt>
      <trkpt lat="44.92314" lon="4.15966">
        <ele>1558</ele>
        <time>2021-04-28T14:44:59Z</time>
      </trkpt>
      <trkpt lat="44.92311" lon="4.15967">
        <ele>1558</ele>
        <time>2021-04-28T14:45:00Z</time>
      </trkpt>
      <trkpt lat="44.92309" lon="4.15968">
        <ele>1559</ele>
        <time>2021-04-28T14:45:01Z</time>
      </trkpt>
      <trkpt lat="44.92306" lon="4.15969">
        <ele>1559</ele>
        <time>2021-04-28T14:45:02Z</time>
      </trkpt>
      <trkpt lat="44.92303" lon="4.1597">
        <ele>1559</ele>
        <time>2021-04-28T14:45:03Z</time>
      </trkpt>
      <trkpt lat="44.92301" lon="4.1597">
        <ele>1559</ele>
        <time>2021-04-28T14:45:04Z</time>
      </trkpt>
      <trkpt lat="44.92298" lon="4.15971">
        <ele>1559</ele>
        <time>2021-04-28T14:45:05Z</time>
      </trkpt>
      <trkpt lat="44.92295" lon="4.15971">
        <ele>1560</ele>
        <time>2021-04-28T14:45:06Z</time>
      </trkpt>
      <trkpt lat="44.92292" lon="4.15971">
        <ele>1560</ele>
        <time>2021-04-28T14:45:07Z</time>
      </trkpt>
      <trkpt lat="44.92289" lon="4.15971">
        <ele>1560</ele>
        <time>2021-04-28T14:45:08Z</time>
      </trkpt>
      <trkpt lat="44.92287" lon="4.15972">
        <ele>1560</ele>
        <time>2021-04-28T14:45:09Z</time>
      </trkpt>
      <trkpt lat="44.92284" lon="4.15972">
        <ele>1561</ele>
        <time>2021-04-28T14:45:10Z</time>
      </trkpt>
      <trkpt lat="44.92281" lon="4.15973">
        <ele>1561</ele>
        <time>2021-04-28T14:45:11Z</time>
      </trkpt>
      <trkpt lat="44.92278" lon="4.15974">
        <ele>1561</ele>
        <time>2021-04-28T14:45:12Z</time>
      </trkpt>
      <trkpt lat="44.92275" lon="4.15975">
        <ele>1561</ele>
        <time>2021-04-28T14:45:13Z</time>
      </trkpt>
      <trkpt lat="44.92273" lon="4.15976">
        <ele>1562</ele>
        <time>2021-04-28T14:45:14Z</time>
      </trkpt>
      <trkpt lat="44.9227" lon="4.15978">
        <ele>1562</ele>
        <time>2021-04-28T14:45:15Z</time>
      </trkpt>
      <trkpt lat="44.92268" lon="4.1598">
        <ele>1562</ele>
        <time>2021-04-28T14:45:16Z</time>
      </trkpt>
      <trkpt lat="44.92265" lon="4.15982">
        <ele>1562</ele>
        <time>2021-04-28T14:45:17Z</time>
      </trkpt>
      <trkpt lat="44.92263" lon="4.15983">
        <ele>1563</ele>
        <time>2021-04-28T14:45:18Z</time>
      </trkpt>
      <trkpt lat="44.92261" lon="4.15985">
        <ele>1563</ele>
        <time>2021-04-28T14:45:19Z</time>
      </trkpt>
      <trkpt lat="44.92259" lon="4.15987">
        <ele>1563</ele>
        <time>2021-04-28T14:45:20Z</time>
      </trkpt>
      <trkpt lat="44.92256" lon="4.15988">
        <ele>1564</ele>
        <time>2021-04-28T14:45:21Z</time>
      </trkpt>
      <trkpt lat="44.92254" lon="4.1599">
        <ele>1564</ele>
        <time>2021-04-28T14:45:22Z</time>
      </trkpt>
      <trkpt lat="44.92252" lon="4.15991">
        <ele>1564</ele>
        <time>2021-04-28T14:45:23Z</time>
      </trkpt>
      <trkpt lat="44.9225" lon="4.15992">
        <ele>1564</ele>
        <time>2021-04-28T14:45:24Z</time>
      </trkpt>
      <trkpt lat="44.92248" lon="4.15994">
        <ele>1564</ele>
        <time>2021-04-28T14:45:25Z</time>
      </trkpt>
      <trkpt lat="44.92245" lon="4.15995">
        <ele>1565</ele>
        <time>2021-04-28T14:45:26Z</time>
      </trkpt>
      <trkpt lat="44.92243" lon="4.15996">
        <ele>1565</ele>
        <time>2021-04-28T14:45:27Z</time>
      </trkpt>
      <trkpt lat="44.9224" lon="4.15996">
        <ele>1565</ele>
        <time>2021-04-28T14:45:28Z</time>
      </trkpt>
      <trkpt lat="44.92237" lon="4.15997">
        <ele>1565</ele>
        <time>2021-04-28T14:45:29Z</time>
      </trkpt>
      <trkpt lat="44.92234" lon="4.15997">
        <ele>1566</ele>
        <time>2021-04-28T14:45:30Z</time>
      </trkpt>
      <trkpt lat="44.92232" lon="4.15998">
        <ele>1566</ele>
        <time>2021-04-28T14:45:31Z</time>
      </trkpt>
      <trkpt lat="44.92229" lon="4.15999">
        <ele>1566</ele>
        <time>2021-04-28T14:45:32Z</time>
      </trkpt>
      <trkpt lat="44.92226" lon="4.15999">
        <ele>1566</ele>
        <time>2021-04-28T14:45:33Z</time>
      </trkpt>
      <trkpt lat="44.92224" lon="4.16">
        <ele>1567</ele>
        <time>2021-04-28T14:45:34Z</time>
      </trkpt>
      <trkpt lat="44.92221" lon="4.16001">
        <ele>1567</ele>
        <time>2021-04-28T14:45:35Z</time>
      </trkpt>
      <trkpt lat="44.92219" lon="4.16002">
        <ele>1567</ele>
        <time>2021-04-28T14:45:36Z</time>
      </trkpt>
      <trkpt lat="44.92216" lon="4.16004">
        <ele>1567</ele>
        <time>2021-04-28T14:45:37Z</time>
      </trkpt>
      <trkpt lat="44.92213" lon="4.16005">
        <ele>1568</ele>
        <time>2021-04-28T14:45:38Z</time>
      </trkpt>
      <trkpt lat="44.92211" lon="4.16006">
        <ele>1568</ele>
        <time>2021-04-28T14:45:39Z</time>
      </trkpt>
      <trkpt lat="44.92208" lon="4.16007">
        <ele>1568</ele>
        <time>2021-04-28T14:45:40Z</time>
      </trkpt>
      <trkpt lat="44.92205" lon="4.16008">
        <ele>1568</ele>
        <time>2021-04-28T14:45:41Z</time>
      </trkpt>
      <trkpt lat="44.92203" lon="4.1601">
        <ele>1569</ele>
        <time>2021-04-28T14:45:42Z</time>
      </trkpt>
      <trkpt lat="44.922" lon="4.16011">
        <ele>1569</ele>
        <time>2021-04-28T14:45:43Z</time>
      </trkpt>
      <trkpt lat="44.92197" lon="4.16012">
        <ele>1569</ele>
        <time>2021-04-28T14:45:44Z</time>
      </trkpt>
      <trkpt lat="44.92194" lon="4.16013">
        <ele>1569</ele>
        <time>2021-04-28T14:45:45Z</time>
      </trkpt>
      <trkpt lat="44.92192" lon="4.16014">
        <ele>1569</ele>
        <time>2021-04-28T14:45:46Z</time>
      </trkpt>
      <trkpt lat="44.92189" lon="4.16016">
        <ele>1570</ele>
        <time>2021-04-28T14:45:47Z</time>
      </trkpt>
      <trkpt lat="44.92186" lon="4.16017">
        <ele>1570</ele>
        <time>2021-04-28T14:45:48Z</time>
      </trkpt>
      <trkpt lat="44.92183" lon="4.16018">
        <ele>1570</ele>
        <time>2021-04-28T14:45:49Z</time>
      </trkpt>
      <trkpt lat="44.92181" lon="4.16019">
        <ele>1570</ele>
        <time>2021-04-28T14:45:50Z</time>
      </trkpt>
      <trkpt lat="44.92178" lon="4.1602">
        <ele>1571</ele>
        <time>2021-04-28T14:45:51Z</time>
      </trkpt>
      <trkpt lat="44.92175" lon="4.16021">
        <ele>1571</ele>
        <time>2021-04-28T14:45:52Z</time>
      </trkpt>
      <trkpt lat="44.92172" lon="4.16022">
        <ele>1571</ele>
        <time>2021-04-28T14:45:53Z</time>
      </trkpt>
      <trkpt lat="44.92169" lon="4.16023">
        <ele>1571</ele>
        <time>2021-04-28T14:45:54Z</time>
      </trkpt>
      <trkpt lat="44.92166" lon="4.16024">
        <ele>1572</ele>
        <time>2021-04-28T14:45:55Z</time>
      </trkpt>
      <trkpt lat="44.92163" lon="4.16025">
        <ele>1572</ele>
        <time>2021-04-28T14:45:56Z</time>
      </trkpt>
      <trkpt lat="44.9216" lon="4.16027">
        <ele>1572</ele>
        <time>2021-04-28T14:45:57Z</time>
      </trkpt>
      <trkpt lat="44.92157" lon="4.16028">
        <ele>1572</ele>
        <time>2021-04-28T14:45:58Z</time>
      </trkpt>
      <trkpt lat="44.92154" lon="4.16029">
        <ele>1573</ele>
        <time>2021-04-28T14:45:59Z</time>
      </trkpt>
      <trkpt lat="44.92151" lon="4.1603">
        <ele>1573</ele>
        <time>2021-04-28T14:46:00Z</time>
      </trkpt>
      <trkpt lat="44.92148" lon="4.16031">
        <ele>1573</ele>
        <time>2021-04-28T14:46:01Z</time>
      </trkpt>
      <trkpt lat="44.92145" lon="4.16033">
        <ele>1573</ele>
        <time>2021-04-28T14:46:02Z</time>
      </trkpt>
      <trkpt lat="44.92142" lon="4.16034">
        <ele>1573</ele>
        <time>2021-04-28T14:46:03Z</time>
      </trkpt>
      <trkpt lat="44.92139" lon="4.16036">
        <ele>1573</ele>
        <time>2021-04-28T14:46:04Z</time>
      </trkpt>
      <trkpt lat="44.92136" lon="4.16037">
        <ele>1574</ele>
        <time>2021-04-28T14:46:05Z</time>
      </trkpt>
      <trkpt lat="44.92133" lon="4.16038">
        <ele>1574</ele>
        <time>2021-04-28T14:46:06Z</time>
      </trkpt>
      <trkpt lat="44.9213" lon="4.1604">
        <ele>1574</ele>
        <time>2021-04-28T14:46:07Z</time>
      </trkpt>
      <trkpt lat="44.92127" lon="4.16041">
        <ele>1574</ele>
        <time>2021-04-28T14:46:08Z</time>
      </trkpt>
      <trkpt lat="44.92124" lon="4.16042">
        <ele>1575</ele>
        <time>2021-04-28T14:46:09Z</time>
      </trkpt>
      <trkpt lat="44.92121" lon="4.16044">
        <ele>1575</ele>
        <time>2021-04-28T14:46:10Z</time>
      </trkpt>
      <trkpt lat="44.92118" lon="4.16046">
        <ele>1575</ele>
        <time>2021-04-28T14:46:11Z</time>
      </trkpt>
      <trkpt lat="44.92115" lon="4.16047">
        <ele>1576</ele>
        <time>2021-04-28T14:46:12Z</time>
      </trkpt>
      <trkpt lat="44.92112" lon="4.16049">
        <ele>1576</ele>
        <time>2021-04-28T14:46:13Z</time>
      </trkpt>
      <trkpt lat="44.92109" lon="4.16051">
        <ele>1576</ele>
        <time>2021-04-28T14:46:14Z</time>
      </trkpt>
      <trkpt lat="44.92106" lon="4.16053">
        <ele>1576</ele>
        <time>2021-04-28T14:46:15Z</time>
      </trkpt>
      <trkpt lat="44.92103" lon="4.16056">
        <ele>1576</ele>
        <time>2021-04-28T14:46:16Z</time>
      </trkpt>
      <trkpt lat="44.92102" lon="4.16059">
        <ele>1577</ele>
        <time>2021-04-28T14:46:17Z</time>
      </trkpt>
      <trkpt lat="44.921" lon="4.16062">
        <ele>1577</ele>
        <time>2021-04-28T14:46:18Z</time>
      </trkpt>
      <trkpt lat="44.92099" lon="4.16065">
        <ele>1577</ele>
        <time>2021-04-28T14:46:19Z</time>
      </trkpt>
      <trkpt lat="44.92099" lon="4.16069">
        <ele>1577</ele>
        <time>2021-04-28T14:46:21Z</time>
      </trkpt>
      <trkpt lat="44.92098" lon="4.16078">
        <ele>1579</ele>
        <time>2021-04-28T14:48:19Z</time>
      </trkpt>
      <trkpt lat="44.92098" lon="4.16082">
        <ele>1579</ele>
        <time>2021-04-28T14:48:20Z</time>
      </trkpt>
      <trkpt lat="44.92098" lon="4.16086">
        <ele>1579</ele>
        <time>2021-04-28T14:48:21Z</time>
      </trkpt>
      <trkpt lat="44.92098" lon="4.1609">
        <ele>1579</ele>
        <time>2021-04-28T14:48:22Z</time>
      </trkpt>
      <trkpt lat="44.92097" lon="4.16094">
        <ele>1579</ele>
        <time>2021-04-28T14:48:23Z</time>
      </trkpt>
      <trkpt lat="44.92097" lon="4.16099">
        <ele>1579</ele>
        <time>2021-04-28T14:48:24Z</time>
      </trkpt>
      <trkpt lat="44.92097" lon="4.16104">
        <ele>1579</ele>
        <time>2021-04-28T14:48:25Z</time>
      </trkpt>
      <trkpt lat="44.92097" lon="4.16109">
        <ele>1580</ele>
        <time>2021-04-28T14:48:26Z</time>
      </trkpt>
      <trkpt lat="44.92097" lon="4.16114">
        <ele>1580</ele>
        <time>2021-04-28T14:48:27Z</time>
      </trkpt>
      <trkpt lat="44.92096" lon="4.16119">
        <ele>1580</ele>
        <time>2021-04-28T14:48:28Z</time>
      </trkpt>
      <trkpt lat="44.92096" lon="4.16124">
        <ele>1580</ele>
        <time>2021-04-28T14:48:29Z</time>
      </trkpt>
      <trkpt lat="44.92096" lon="4.16129">
        <ele>1580</ele>
        <time>2021-04-28T14:48:30Z</time>
      </trkpt>
      <trkpt lat="44.92096" lon="4.16135">
        <ele>1580</ele>
        <time>2021-04-28T14:48:31Z</time>
      </trkpt>
      <trkpt lat="44.92096" lon="4.1614">
        <ele>1580</ele>
        <time>2021-04-28T14:48:32Z</time>
      </trkpt>
      <trkpt lat="44.92096" lon="4.16145">
        <ele>1580</ele>
        <time>2021-04-28T14:48:33Z</time>
      </trkpt>
      <trkpt lat="44.92095" lon="4.1615">
        <ele>1580</ele>
        <time>2021-04-28T14:48:34Z</time>
      </trkpt>
      <trkpt lat="44.92095" lon="4.16155">
        <ele>1580</ele>
        <time>2021-04-28T14:48:35Z</time>
      </trkpt>
      <trkpt lat="44.92095" lon="4.16161">
        <ele>1580</ele>
        <time>2021-04-28T14:48:36Z</time>
      </trkpt>
      <trkpt lat="44.92095" lon="4.16166">
        <ele>1581</ele>
        <time>2021-04-28T14:48:37Z</time>
      </trkpt>
      <trkpt lat="44.92095" lon="4.16171">
        <ele>1581</ele>
        <time>2021-04-28T14:48:38Z</time>
      </trkpt>
      <trkpt lat="44.92095" lon="4.16176">
        <ele>1581</ele>
        <time>2021-04-28T14:48:39Z</time>
      </trkpt>
      <trkpt lat="44.92094" lon="4.16181">
        <ele>1581</ele>
        <time>2021-04-28T14:48:40Z</time>
      </trkpt>
      <trkpt lat="44.92094" lon="4.16186">
        <ele>1581</ele>
        <time>2021-04-28T14:48:41Z</time>
      </trkpt>
      <trkpt lat="44.92093" lon="4.16191">
        <ele>1581</ele>
        <time>2021-04-28T14:48:42Z</time>
      </trkpt>
      <trkpt lat="44.92093" lon="4.16196">
        <ele>1581</ele>
        <time>2021-04-28T14:48:43Z</time>
      </trkpt>
      <trkpt lat="44.92093" lon="4.16201">
        <ele>1581</ele>
        <time>2021-04-28T14:48:44Z</time>
      </trkpt>
      <trkpt lat="44.92093" lon="4.16206">
        <ele>1581</ele>
        <time>2021-04-28T14:48:45Z</time>
      </trkpt>
      <trkpt lat="44.92092" lon="4.16211">
        <ele>1581</ele>
        <time>2021-04-28T14:48:46Z</time>
      </trkpt>
      <trkpt lat="44.92091" lon="4.16216">
        <ele>1582</ele>
        <time>2021-04-28T14:48:47Z</time>
      </trkpt>
      <trkpt lat="44.9209" lon="4.16221">
        <ele>1582</ele>
        <time>2021-04-28T14:48:48Z</time>
      </trkpt>
      <trkpt lat="44.9209" lon="4.16225">
        <ele>1582</ele>
        <time>2021-04-28T14:48:49Z</time>
      </trkpt>
      <trkpt lat="44.92089" lon="4.1623">
        <ele>1582</ele>
        <time>2021-04-28T14:48:50Z</time>
      </trkpt>
      <trkpt lat="44.92089" lon="4.16234">
        <ele>1582</ele>
        <time>2021-04-28T14:48:51Z</time>
      </trkpt>
      <trkpt lat="44.92088" lon="4.16239">
        <ele>1582</ele>
        <time>2021-04-28T14:48:52Z</time>
      </trkpt>
      <trkpt lat="44.92088" lon="4.16244">
        <ele>1582</ele>
        <time>2021-04-28T14:48:53Z</time>
      </trkpt>
      <trkpt lat="44.92088" lon="4.16249">
        <ele>1582</ele>
        <time>2021-04-28T14:48:54Z</time>
      </trkpt>
      <trkpt lat="44.92087" lon="4.16254">
        <ele>1582</ele>
        <time>2021-04-28T14:48:55Z</time>
      </trkpt>
      <trkpt lat="44.92087" lon="4.16259">
        <ele>1583</ele>
        <time>2021-04-28T14:48:56Z</time>
      </trkpt>
      <trkpt lat="44.92087" lon="4.16264">
        <ele>1583</ele>
        <time>2021-04-28T14:48:57Z</time>
      </trkpt>
      <trkpt lat="44.92087" lon="4.16269">
        <ele>1583</ele>
        <time>2021-04-28T14:48:58Z</time>
      </trkpt>
      <trkpt lat="44.92087" lon="4.16274">
        <ele>1583</ele>
        <time>2021-04-28T14:48:59Z</time>
      </trkpt>
      <trkpt lat="44.92087" lon="4.1628">
        <ele>1583</ele>
        <time>2021-04-28T14:49:00Z</time>
      </trkpt>
      <trkpt lat="44.92086" lon="4.16285">
        <ele>1583</ele>
        <time>2021-04-28T14:49:01Z</time>
      </trkpt>
      <trkpt lat="44.92086" lon="4.1629">
        <ele>1583</ele>
        <time>2021-04-28T14:49:02Z</time>
      </trkpt>
      <trkpt lat="44.92086" lon="4.16296">
        <ele>1583</ele>
        <time>2021-04-28T14:49:03Z</time>
      </trkpt>
      <trkpt lat="44.92086" lon="4.16301">
        <ele>1583</ele>
        <time>2021-04-28T14:49:04Z</time>
      </trkpt>
      <trkpt lat="44.92086" lon="4.16306">
        <ele>1584</ele>
        <time>2021-04-28T14:49:05Z</time>
      </trkpt>
      <trkpt lat="44.92085" lon="4.16311">
        <ele>1584</ele>
        <time>2021-04-28T14:49:06Z</time>
      </trkpt>
      <trkpt lat="44.92085" lon="4.16316">
        <ele>1584</ele>
        <time>2021-04-28T14:49:07Z</time>
      </trkpt>
      <trkpt lat="44.92084" lon="4.16322">
        <ele>1584</ele>
        <time>2021-04-28T14:49:08Z</time>
      </trkpt>
      <trkpt lat="44.92084" lon="4.16327">
        <ele>1584</ele>
        <time>2021-04-28T14:49:09Z</time>
      </trkpt>
      <trkpt lat="44.92084" lon="4.16332">
        <ele>1584</ele>
        <time>2021-04-28T14:49:10Z</time>
      </trkpt>
      <trkpt lat="44.92084" lon="4.16337">
        <ele>1584</ele>
        <time>2021-04-28T14:49:11Z</time>
      </trkpt>
      <trkpt lat="44.92083" lon="4.16342">
        <ele>1584</ele>
        <time>2021-04-28T14:49:12Z</time>
      </trkpt>
      <trkpt lat="44.92083" lon="4.16347">
        <ele>1584</ele>
        <time>2021-04-28T14:49:13Z</time>
      </trkpt>
      <trkpt lat="44.92083" lon="4.16352">
        <ele>1585</ele>
        <time>2021-04-28T14:49:14Z</time>
      </trkpt>
      <trkpt lat="44.92082" lon="4.16357">
        <ele>1585</ele>
        <time>2021-04-28T14:49:15Z</time>
      </trkpt>
      <trkpt lat="44.92082" lon="4.16363">
        <ele>1585</ele>
        <time>2021-04-28T14:49:16Z</time>
      </trkpt>
      <trkpt lat="44.92081" lon="4.16368">
        <ele>1585</ele>
        <time>2021-04-28T14:49:17Z</time>
      </trkpt>
      <trkpt lat="44.92081" lon="4.16373">
        <ele>1585</ele>
        <time>2021-04-28T14:49:18Z</time>
      </trkpt>
      <trkpt lat="44.9208" lon="4.16378">
        <ele>1585</ele>
        <time>2021-04-28T14:49:19Z</time>
      </trkpt>
      <trkpt lat="44.9208" lon="4.16383">
        <ele>1585</ele>
        <time>2021-04-28T14:49:20Z</time>
      </trkpt>
      <trkpt lat="44.9208" lon="4.16388">
        <ele>1585</ele>
        <time>2021-04-28T14:49:21Z</time>
      </trkpt>
      <trkpt lat="44.92079" lon="4.16393">
        <ele>1585</ele>
        <time>2021-04-28T14:49:22Z</time>
      </trkpt>
      <trkpt lat="44.92079" lon="4.16398">
        <ele>1586</ele>
        <time>2021-04-28T14:49:23Z</time>
      </trkpt>
      <trkpt lat="44.92078" lon="4.16402">
        <ele>1586</ele>
        <time>2021-04-28T14:49:24Z</time>
      </trkpt>
      <trkpt lat="44.92078" lon="4.16407">
        <ele>1586</ele>
        <time>2021-04-28T14:49:25Z</time>
      </trkpt>
      <trkpt lat="44.92078" lon="4.16411">
        <ele>1586</ele>
        <time>2021-04-28T14:49:26Z</time>
      </trkpt>
      <trkpt lat="44.92078" lon="4.16416">
        <ele>1586</ele>
        <time>2021-04-28T14:49:27Z</time>
      </trkpt>
      <trkpt lat="44.92078" lon="4.16421">
        <ele>1586</ele>
        <time>2021-04-28T14:49:28Z</time>
      </trkpt>
      <trkpt lat="44.92078" lon="4.16427">
        <ele>1587</ele>
        <time>2021-04-28T14:49:29Z</time>
      </trkpt>
      <trkpt lat="44.92077" lon="4.16432">
        <ele>1587</ele>
        <time>2021-04-28T14:49:30Z</time>
      </trkpt>
      <trkpt lat="44.92077" lon="4.16436">
        <ele>1587</ele>
        <time>2021-04-28T14:49:31Z</time>
      </trkpt>
      <trkpt lat="44.92077" lon="4.16441">
        <ele>1587</ele>
        <time>2021-04-28T14:49:32Z</time>
      </trkpt>
      <trkpt lat="44.92076" lon="4.16446">
        <ele>1587</ele>
        <time>2021-04-28T14:49:33Z</time>
      </trkpt>
      <trkpt lat="44.92076" lon="4.1645">
        <ele>1587</ele>
        <time>2021-04-28T14:49:34Z</time>
      </trkpt>
      <trkpt lat="44.92076" lon="4.16455">
        <ele>1588</ele>
        <time>2021-04-28T14:49:35Z</time>
      </trkpt>
      <trkpt lat="44.92076" lon="4.1646">
        <ele>1588</ele>
        <time>2021-04-28T14:49:36Z</time>
      </trkpt>
      <trkpt lat="44.92075" lon="4.16465">
        <ele>1588</ele>
        <time>2021-04-28T14:49:37Z</time>
      </trkpt>
      <trkpt lat="44.92076" lon="4.1647">
        <ele>1588</ele>
        <time>2021-04-28T14:49:38Z</time>
      </trkpt>
      <trkpt lat="44.92076" lon="4.16475">
        <ele>1588</ele>
        <time>2021-04-28T14:49:39Z</time>
      </trkpt>
      <trkpt lat="44.92076" lon="4.16479">
        <ele>1588</ele>
        <time>2021-04-28T14:49:40Z</time>
      </trkpt>
      <trkpt lat="44.92075" lon="4.16483">
        <ele>1588</ele>
        <time>2021-04-28T14:49:41Z</time>
      </trkpt>
      <trkpt lat="44.92075" lon="4.16488">
        <ele>1589</ele>
        <time>2021-04-28T14:49:42Z</time>
      </trkpt>
      <trkpt lat="44.92075" lon="4.16494">
        <ele>1589</ele>
        <time>2021-04-28T14:49:43Z</time>
      </trkpt>
      <trkpt lat="44.92074" lon="4.16499">
        <ele>1589</ele>
        <time>2021-04-28T14:49:44Z</time>
      </trkpt>
      <trkpt lat="44.92074" lon="4.16503">
        <ele>1589</ele>
        <time>2021-04-28T14:49:45Z</time>
      </trkpt>
      <trkpt lat="44.92074" lon="4.16508">
        <ele>1589</ele>
        <time>2021-04-28T14:49:46Z</time>
      </trkpt>
      <trkpt lat="44.92074" lon="4.16512">
        <ele>1589</ele>
        <time>2021-04-28T14:49:47Z</time>
      </trkpt>
      <trkpt lat="44.92074" lon="4.16517">
        <ele>1589</ele>
        <time>2021-04-28T14:49:48Z</time>
      </trkpt>
      <trkpt lat="44.92073" lon="4.16523">
        <ele>1590</ele>
        <time>2021-04-28T14:49:49Z</time>
      </trkpt>
      <trkpt lat="44.92072" lon="4.16528">
        <ele>1590</ele>
        <time>2021-04-28T14:49:50Z</time>
      </trkpt>
      <trkpt lat="44.92072" lon="4.16533">
        <ele>1590</ele>
        <time>2021-04-28T14:49:51Z</time>
      </trkpt>
      <trkpt lat="44.92071" lon="4.16538">
        <ele>1591</ele>
        <time>2021-04-28T14:49:52Z</time>
      </trkpt>
      <trkpt lat="44.9207" lon="4.16543">
        <ele>1591</ele>
        <time>2021-04-28T14:49:53Z</time>
      </trkpt>
      <trkpt lat="44.9207" lon="4.16548">
        <ele>1591</ele>
        <time>2021-04-28T14:49:54Z</time>
      </trkpt>
      <trkpt lat="44.92069" lon="4.16553">
        <ele>1591</ele>
        <time>2021-04-28T14:49:55Z</time>
      </trkpt>
      <trkpt lat="44.92068" lon="4.16558">
        <ele>1592</ele>
        <time>2021-04-28T14:49:56Z</time>
      </trkpt>
      <trkpt lat="44.92068" lon="4.16563">
        <ele>1592</ele>
        <time>2021-04-28T14:49:57Z</time>
      </trkpt>
      <trkpt lat="44.92068" lon="4.16568">
        <ele>1592</ele>
        <time>2021-04-28T14:49:58Z</time>
      </trkpt>
      <trkpt lat="44.92067" lon="4.16573">
        <ele>1592</ele>
        <time>2021-04-28T14:49:59Z</time>
      </trkpt>
      <trkpt lat="44.92066" lon="4.16578">
        <ele>1592</ele>
        <time>2021-04-28T14:50:00Z</time>
      </trkpt>
      <trkpt lat="44.92066" lon="4.16583">
        <ele>1593</ele>
        <time>2021-04-28T14:50:01Z</time>
      </trkpt>
      <trkpt lat="44.92066" lon="4.16588">
        <ele>1593</ele>
        <time>2021-04-28T14:50:02Z</time>
      </trkpt>
      <trkpt lat="44.92065" lon="4.16593">
        <ele>1593</ele>
        <time>2021-04-28T14:50:03Z</time>
      </trkpt>
      <trkpt lat="44.92065" lon="4.16598">
        <ele>1593</ele>
        <time>2021-04-28T14:50:04Z</time>
      </trkpt>
      <trkpt lat="44.92065" lon="4.16603">
        <ele>1594</ele>
        <time>2021-04-28T14:50:05Z</time>
      </trkpt>
      <trkpt lat="44.92065" lon="4.16608">
        <ele>1594</ele>
        <time>2021-04-28T14:50:06Z</time>
      </trkpt>
      <trkpt lat="44.92064" lon="4.16613">
        <ele>1594</ele>
        <time>2021-04-28T14:50:07Z</time>
      </trkpt>
      <trkpt lat="44.92064" lon="4.16617">
        <ele>1594</ele>
        <time>2021-04-28T14:50:08Z</time>
      </trkpt>
      <trkpt lat="44.92063" lon="4.16622">
        <ele>1594</ele>
        <time>2021-04-28T14:50:09Z</time>
      </trkpt>
      <trkpt lat="44.92063" lon="4.16626">
        <ele>1594</ele>
        <time>2021-04-28T14:50:10Z</time>
      </trkpt>
      <trkpt lat="44.92063" lon="4.1663">
        <ele>1594</ele>
        <time>2021-04-28T14:50:11Z</time>
      </trkpt>
      <trkpt lat="44.92063" lon="4.16634">
        <ele>1594</ele>
        <time>2021-04-28T14:50:12Z</time>
      </trkpt>
      <trkpt lat="44.92063" lon="4.16638">
        <ele>1594</ele>
        <time>2021-04-28T14:50:13Z</time>
      </trkpt>
      <trkpt lat="44.92062" lon="4.16641">
        <ele>1594</ele>
        <time>2021-04-28T14:50:14Z</time>
      </trkpt>
      <trkpt lat="44.92062" lon="4.16646">
        <ele>1594</ele>
        <time>2021-04-28T14:50:15Z</time>
      </trkpt>
      <trkpt lat="44.92061" lon="4.1665">
        <ele>1594</ele>
        <time>2021-04-28T14:50:16Z</time>
      </trkpt>
      <trkpt lat="44.92061" lon="4.16655">
        <ele>1594</ele>
        <time>2021-04-28T14:50:17Z</time>
      </trkpt>
      <trkpt lat="44.92059" lon="4.16659">
        <ele>1594</ele>
        <time>2021-04-28T14:50:18Z</time>
      </trkpt>
      <trkpt lat="44.92058" lon="4.16664">
        <ele>1594</ele>
        <time>2021-04-28T14:50:19Z</time>
      </trkpt>
      <trkpt lat="44.92056" lon="4.16668">
        <ele>1595</ele>
        <time>2021-04-28T14:50:20Z</time>
      </trkpt>
      <trkpt lat="44.92054" lon="4.16672">
        <ele>1595</ele>
        <time>2021-04-28T14:50:21Z</time>
      </trkpt>
      <trkpt lat="44.92052" lon="4.16677">
        <ele>1595</ele>
        <time>2021-04-28T14:50:22Z</time>
      </trkpt>
      <trkpt lat="44.9205" lon="4.16681">
        <ele>1595</ele>
        <time>2021-04-28T14:50:23Z</time>
      </trkpt>
      <trkpt lat="44.92047" lon="4.16686">
        <ele>1595</ele>
        <time>2021-04-28T14:50:24Z</time>
      </trkpt>
      <trkpt lat="44.92045" lon="4.1669">
        <ele>1595</ele>
        <time>2021-04-28T14:50:25Z</time>
      </trkpt>
      <trkpt lat="44.92043" lon="4.16694">
        <ele>1595</ele>
        <time>2021-04-28T14:50:26Z</time>
      </trkpt>
      <trkpt lat="44.92041" lon="4.16698">
        <ele>1595</ele>
        <time>2021-04-28T14:50:27Z</time>
      </trkpt>
      <trkpt lat="44.92038" lon="4.16702">
        <ele>1595</ele>
        <time>2021-04-28T14:50:28Z</time>
      </trkpt>
      <trkpt lat="44.92036" lon="4.16705">
        <ele>1595</ele>
        <time>2021-04-28T14:50:29Z</time>
      </trkpt>
      <trkpt lat="44.92034" lon="4.16709">
        <ele>1595</ele>
        <time>2021-04-28T14:50:30Z</time>
      </trkpt>
      <trkpt lat="44.92031" lon="4.16713">
        <ele>1595</ele>
        <time>2021-04-28T14:50:31Z</time>
      </trkpt>
      <trkpt lat="44.92028" lon="4.16717">
        <ele>1595</ele>
        <time>2021-04-28T14:50:32Z</time>
      </trkpt>
      <trkpt lat="44.92025" lon="4.1672">
        <ele>1595</ele>
        <time>2021-04-28T14:50:33Z</time>
      </trkpt>
      <trkpt lat="44.92022" lon="4.16724">
        <ele>1595</ele>
        <time>2021-04-28T14:50:34Z</time>
      </trkpt>
      <trkpt lat="44.9202" lon="4.16728">
        <ele>1595</ele>
        <time>2021-04-28T14:50:35Z</time>
      </trkpt>
      <trkpt lat="44.92017" lon="4.16732">
        <ele>1596</ele>
        <time>2021-04-28T14:50:36Z</time>
      </trkpt>
      <trkpt lat="44.92015" lon="4.16736">
        <ele>1596</ele>
        <time>2021-04-28T14:50:37Z</time>
      </trkpt>
      <trkpt lat="44.92012" lon="4.1674">
        <ele>1596</ele>
        <time>2021-04-28T14:50:38Z</time>
      </trkpt>
      <trkpt lat="44.9201" lon="4.16744">
        <ele>1596</ele>
        <time>2021-04-28T14:50:39Z</time>
      </trkpt>
      <trkpt lat="44.92007" lon="4.16749">
        <ele>1596</ele>
        <time>2021-04-28T14:50:40Z</time>
      </trkpt>
      <trkpt lat="44.92005" lon="4.16753">
        <ele>1596</ele>
        <time>2021-04-28T14:50:41Z</time>
      </trkpt>
      <trkpt lat="44.92003" lon="4.16757">
        <ele>1596</ele>
        <time>2021-04-28T14:50:42Z</time>
      </trkpt>
      <trkpt lat="44.92" lon="4.16762">
        <ele>1596</ele>
        <time>2021-04-28T14:50:43Z</time>
      </trkpt>
      <trkpt lat="44.91998" lon="4.16766">
        <ele>1596</ele>
        <time>2021-04-28T14:50:44Z</time>
      </trkpt>
      <trkpt lat="44.91996" lon="4.1677">
        <ele>1596</ele>
        <time>2021-04-28T14:50:45Z</time>
      </trkpt>
      <trkpt lat="44.91993" lon="4.16775">
        <ele>1596</ele>
        <time>2021-04-28T14:50:46Z</time>
      </trkpt>
      <trkpt lat="44.91991" lon="4.16779">
        <ele>1596</ele>
        <time>2021-04-28T14:50:47Z</time>
      </trkpt>
      <trkpt lat="44.91988" lon="4.16783">
        <ele>1596</ele>
        <time>2021-04-28T14:50:48Z</time>
      </trkpt>
      <trkpt lat="44.91985" lon="4.16787">
        <ele>1596</ele>
        <time>2021-04-28T14:50:49Z</time>
      </trkpt>
      <trkpt lat="44.91983" lon="4.16791">
        <ele>1596</ele>
        <time>2021-04-28T14:50:50Z</time>
      </trkpt>
      <trkpt lat="44.9198" lon="4.16796">
        <ele>1596</ele>
        <time>2021-04-28T14:50:51Z</time>
      </trkpt>
      <trkpt lat="44.91978" lon="4.168">
        <ele>1596</ele>
        <time>2021-04-28T14:50:52Z</time>
      </trkpt>
      <trkpt lat="44.91975" lon="4.16805">
        <ele>1596</ele>
        <time>2021-04-28T14:50:53Z</time>
      </trkpt>
      <trkpt lat="44.91972" lon="4.1681">
        <ele>1596</ele>
        <time>2021-04-28T14:50:54Z</time>
      </trkpt>
      <trkpt lat="44.91969" lon="4.16814">
        <ele>1597</ele>
        <time>2021-04-28T14:50:55Z</time>
      </trkpt>
      <trkpt lat="44.91966" lon="4.16819">
        <ele>1597</ele>
        <time>2021-04-28T14:50:56Z</time>
      </trkpt>
      <trkpt lat="44.91963" lon="4.16823">
        <ele>1597</ele>
        <time>2021-04-28T14:50:57Z</time>
      </trkpt>
      <trkpt lat="44.9196" lon="4.16827">
        <ele>1597</ele>
        <time>2021-04-28T14:50:58Z</time>
      </trkpt>
      <trkpt lat="44.91957" lon="4.1683">
        <ele>1597</ele>
        <time>2021-04-28T14:50:59Z</time>
      </trkpt>
      <trkpt lat="44.91954" lon="4.16834">
        <ele>1597</ele>
        <time>2021-04-28T14:51:00Z</time>
      </trkpt>
      <trkpt lat="44.91951" lon="4.16838">
        <ele>1597</ele>
        <time>2021-04-28T14:51:01Z</time>
      </trkpt>
      <trkpt lat="44.91948" lon="4.16841">
        <ele>1597</ele>
        <time>2021-04-28T14:51:02Z</time>
      </trkpt>
      <trkpt lat="44.91945" lon="4.16845">
        <ele>1597</ele>
        <time>2021-04-28T14:51:03Z</time>
      </trkpt>
      <trkpt lat="44.91942" lon="4.16848">
        <ele>1597</ele>
        <time>2021-04-28T14:51:04Z</time>
      </trkpt>
      <trkpt lat="44.91939" lon="4.16852">
        <ele>1597</ele>
        <time>2021-04-28T14:51:05Z</time>
      </trkpt>
      <trkpt lat="44.91936" lon="4.16855">
        <ele>1597</ele>
        <time>2021-04-28T14:51:06Z</time>
      </trkpt>
      <trkpt lat="44.91933" lon="4.16859">
        <ele>1597</ele>
        <time>2021-04-28T14:51:07Z</time>
      </trkpt>
      <trkpt lat="44.91931" lon="4.16862">
        <ele>1597</ele>
        <time>2021-04-28T14:51:08Z</time>
      </trkpt>
      <trkpt lat="44.91927" lon="4.16866">
        <ele>1597</ele>
        <time>2021-04-28T14:51:09Z</time>
      </trkpt>
      <trkpt lat="44.91924" lon="4.16869">
        <ele>1596</ele>
        <time>2021-04-28T14:51:10Z</time>
      </trkpt>
      <trkpt lat="44.91921" lon="4.16873">
        <ele>1596</ele>
        <time>2021-04-28T14:51:11Z</time>
      </trkpt>
      <trkpt lat="44.91918" lon="4.16876">
        <ele>1596</ele>
        <time>2021-04-28T14:51:12Z</time>
      </trkpt>
      <trkpt lat="44.91915" lon="4.1688">
        <ele>1596</ele>
        <time>2021-04-28T14:51:13Z</time>
      </trkpt>
      <trkpt lat="44.91912" lon="4.16883">
        <ele>1596</ele>
        <time>2021-04-28T14:51:14Z</time>
      </trkpt>
      <trkpt lat="44.91909" lon="4.16886">
        <ele>1596</ele>
        <time>2021-04-28T14:51:15Z</time>
      </trkpt>
      <trkpt lat="44.91906" lon="4.1689">
        <ele>1596</ele>
        <time>2021-04-28T14:51:16Z</time>
      </trkpt>
      <trkpt lat="44.91904" lon="4.16894">
        <ele>1596</ele>
        <time>2021-04-28T14:51:17Z</time>
      </trkpt>
      <trkpt lat="44.91901" lon="4.16898">
        <ele>1596</ele>
        <time>2021-04-28T14:51:18Z</time>
      </trkpt>
      <trkpt lat="44.91898" lon="4.16903">
        <ele>1596</ele>
        <time>2021-04-28T14:51:19Z</time>
      </trkpt>
      <trkpt lat="44.91896" lon="4.16908">
        <ele>1596</ele>
        <time>2021-04-28T14:51:20Z</time>
      </trkpt>
      <trkpt lat="44.91893" lon="4.16914">
        <ele>1596</ele>
        <time>2021-04-28T14:51:21Z</time>
      </trkpt>
      <trkpt lat="44.9189" lon="4.16919">
        <ele>1596</ele>
        <time>2021-04-28T14:51:22Z</time>
      </trkpt>
      <trkpt lat="44.91888" lon="4.16925">
        <ele>1595</ele>
        <time>2021-04-28T14:51:23Z</time>
      </trkpt>
      <trkpt lat="44.91885" lon="4.1693">
        <ele>1595</ele>
        <time>2021-04-28T14:51:24Z</time>
      </trkpt>
      <trkpt lat="44.91882" lon="4.16935">
        <ele>1595</ele>
        <time>2021-04-28T14:51:25Z</time>
      </trkpt>
      <trkpt lat="44.91879" lon="4.16941">
        <ele>1595</ele>
        <time>2021-04-28T14:51:26Z</time>
      </trkpt>
      <trkpt lat="44.91877" lon="4.16945">
        <ele>1595</ele>
        <time>2021-04-28T14:51:27Z</time>
      </trkpt>
      <trkpt lat="44.91874" lon="4.1695">
        <ele>1595</ele>
        <time>2021-04-28T14:51:28Z</time>
      </trkpt>
      <trkpt lat="44.91871" lon="4.16955">
        <ele>1595</ele>
        <time>2021-04-28T14:51:29Z</time>
      </trkpt>
      <trkpt lat="44.91869" lon="4.1696">
        <ele>1595</ele>
        <time>2021-04-28T14:51:30Z</time>
      </trkpt>
      <trkpt lat="44.91867" lon="4.16965">
        <ele>1595</ele>
        <time>2021-04-28T14:51:31Z</time>
      </trkpt>
      <trkpt lat="44.91864" lon="4.1697">
        <ele>1594</ele>
        <time>2021-04-28T14:51:32Z</time>
      </trkpt>
      <trkpt lat="44.91862" lon="4.16976">
        <ele>1594</ele>
        <time>2021-04-28T14:51:33Z</time>
      </trkpt>
      <trkpt lat="44.91859" lon="4.16981">
        <ele>1594</ele>
        <time>2021-04-28T14:51:34Z</time>
      </trkpt>
      <trkpt lat="44.91857" lon="4.16986">
        <ele>1594</ele>
        <time>2021-04-28T14:51:35Z</time>
      </trkpt>
      <trkpt lat="44.91855" lon="4.16991">
        <ele>1594</ele>
        <time>2021-04-28T14:51:36Z</time>
      </trkpt>
      <trkpt lat="44.91852" lon="4.16996">
        <ele>1594</ele>
        <time>2021-04-28T14:51:37Z</time>
      </trkpt>
      <trkpt lat="44.91851" lon="4.17001">
        <ele>1594</ele>
        <time>2021-04-28T14:51:38Z</time>
      </trkpt>
      <trkpt lat="44.9185" lon="4.17005">
        <ele>1594</ele>
        <time>2021-04-28T14:51:39Z</time>
      </trkpt>
      <trkpt lat="44.91849" lon="4.1701">
        <ele>1594</ele>
        <time>2021-04-28T14:51:40Z</time>
      </trkpt>
      <trkpt lat="44.91847" lon="4.17014">
        <ele>1594</ele>
        <time>2021-04-28T14:51:41Z</time>
      </trkpt>
      <trkpt lat="44.91844" lon="4.17019">
        <ele>1594</ele>
        <time>2021-04-28T14:51:42Z</time>
      </trkpt>
      <trkpt lat="44.91842" lon="4.17024">
        <ele>1594</ele>
        <time>2021-04-28T14:51:43Z</time>
      </trkpt>
      <trkpt lat="44.9184" lon="4.17029">
        <ele>1594</ele>
        <time>2021-04-28T14:51:44Z</time>
      </trkpt>
      <trkpt lat="44.91838" lon="4.17034">
        <ele>1594</ele>
        <time>2021-04-28T14:51:45Z</time>
      </trkpt>
      <trkpt lat="44.91836" lon="4.1704">
        <ele>1594</ele>
        <time>2021-04-28T14:51:46Z</time>
      </trkpt>
      <trkpt lat="44.91833" lon="4.17045">
        <ele>1594</ele>
        <time>2021-04-28T14:51:47Z</time>
      </trkpt>
      <trkpt lat="44.91831" lon="4.17049">
        <ele>1594</ele>
        <time>2021-04-28T14:51:48Z</time>
      </trkpt>
      <trkpt lat="44.91828" lon="4.17054">
        <ele>1594</ele>
        <time>2021-04-28T14:51:49Z</time>
      </trkpt>
      <trkpt lat="44.91826" lon="4.17058">
        <ele>1594</ele>
        <time>2021-04-28T14:51:50Z</time>
      </trkpt>
      <trkpt lat="44.91824" lon="4.17063">
        <ele>1594</ele>
        <time>2021-04-28T14:51:51Z</time>
      </trkpt>
      <trkpt lat="44.91822" lon="4.17068">
        <ele>1594</ele>
        <time>2021-04-28T14:51:52Z</time>
      </trkpt>
      <trkpt lat="44.91819" lon="4.17072">
        <ele>1594</ele>
        <time>2021-04-28T14:51:53Z</time>
      </trkpt>
      <trkpt lat="44.91817" lon="4.17077">
        <ele>1594</ele>
        <time>2021-04-28T14:51:54Z</time>
      </trkpt>
      <trkpt lat="44.91815" lon="4.17082">
        <ele>1594</ele>
        <time>2021-04-28T14:51:55Z</time>
      </trkpt>
      <trkpt lat="44.91812" lon="4.17087">
        <ele>1594</ele>
        <time>2021-04-28T14:51:56Z</time>
      </trkpt>
      <trkpt lat="44.9181" lon="4.17092">
        <ele>1594</ele>
        <time>2021-04-28T14:51:57Z</time>
      </trkpt>
      <trkpt lat="44.91808" lon="4.17097">
        <ele>1594</ele>
        <time>2021-04-28T14:51:58Z</time>
      </trkpt>
      <trkpt lat="44.91805" lon="4.17102">
        <ele>1594</ele>
        <time>2021-04-28T14:51:59Z</time>
      </trkpt>
      <trkpt lat="44.91803" lon="4.17107">
        <ele>1594</ele>
        <time>2021-04-28T14:52:00Z</time>
      </trkpt>
      <trkpt lat="44.91801" lon="4.17112">
        <ele>1594</ele>
        <time>2021-04-28T14:52:01Z</time>
      </trkpt>
      <trkpt lat="44.91799" lon="4.17117">
        <ele>1594</ele>
        <time>2021-04-28T14:52:02Z</time>
      </trkpt>
      <trkpt lat="44.91796" lon="4.17123">
        <ele>1594</ele>
        <time>2021-04-28T14:52:03Z</time>
      </trkpt>
      <trkpt lat="44.91794" lon="4.17128">
        <ele>1594</ele>
        <time>2021-04-28T14:52:04Z</time>
      </trkpt>
      <trkpt lat="44.91792" lon="4.17133">
        <ele>1594</ele>
        <time>2021-04-28T14:52:05Z</time>
      </trkpt>
      <trkpt lat="44.9179" lon="4.17138">
        <ele>1594</ele>
        <time>2021-04-28T14:52:06Z</time>
      </trkpt>
      <trkpt lat="44.91787" lon="4.17144">
        <ele>1593</ele>
        <time>2021-04-28T14:52:07Z</time>
      </trkpt>
      <trkpt lat="44.91785" lon="4.17149">
        <ele>1593</ele>
        <time>2021-04-28T14:52:08Z</time>
      </trkpt>
      <trkpt lat="44.91783" lon="4.17154">
        <ele>1593</ele>
        <time>2021-04-28T14:52:09Z</time>
      </trkpt>
      <trkpt lat="44.9178" lon="4.17159">
        <ele>1593</ele>
        <time>2021-04-28T14:52:10Z</time>
      </trkpt>
      <trkpt lat="44.91778" lon="4.17165">
        <ele>1593</ele>
        <time>2021-04-28T14:52:11Z</time>
      </trkpt>
      <trkpt lat="44.91776" lon="4.1717">
        <ele>1593</ele>
        <time>2021-04-28T14:52:12Z</time>
      </trkpt>
      <trkpt lat="44.91774" lon="4.17176">
        <ele>1593</ele>
        <time>2021-04-28T14:52:13Z</time>
      </trkpt>
      <trkpt lat="44.91772" lon="4.17182">
        <ele>1593</ele>
        <time>2021-04-28T14:52:14Z</time>
      </trkpt>
      <trkpt lat="44.91771" lon="4.17188">
        <ele>1593</ele>
        <time>2021-04-28T14:52:15Z</time>
      </trkpt>
      <trkpt lat="44.91769" lon="4.17195">
        <ele>1593</ele>
        <time>2021-04-28T14:52:16Z</time>
      </trkpt>
      <trkpt lat="44.91768" lon="4.17202">
        <ele>1592</ele>
        <time>2021-04-28T14:52:17Z</time>
      </trkpt>
      <trkpt lat="44.91766" lon="4.1721">
        <ele>1592</ele>
        <time>2021-04-28T14:52:18Z</time>
      </trkpt>
      <trkpt lat="44.91763" lon="4.17219">
        <ele>1591</ele>
        <time>2021-04-28T14:52:19Z</time>
      </trkpt>
      <trkpt lat="44.91761" lon="4.17228">
        <ele>1591</ele>
        <time>2021-04-28T14:52:20Z</time>
      </trkpt>
      <trkpt lat="44.91759" lon="4.17237">
        <ele>1590</ele>
        <time>2021-04-28T14:52:21Z</time>
      </trkpt>
      <trkpt lat="44.91756" lon="4.17247">
        <ele>1590</ele>
        <time>2021-04-28T14:52:22Z</time>
      </trkpt>
      <trkpt lat="44.91753" lon="4.17258">
        <ele>1589</ele>
        <time>2021-04-28T14:52:23Z</time>
      </trkpt>
      <trkpt lat="44.9175" lon="4.17268">
        <ele>1588</ele>
        <time>2021-04-28T14:52:24Z</time>
      </trkpt>
      <trkpt lat="44.91747" lon="4.17278">
        <ele>1588</ele>
        <time>2021-04-28T14:52:25Z</time>
      </trkpt>
      <trkpt lat="44.91743" lon="4.17288">
        <ele>1587</ele>
        <time>2021-04-28T14:52:26Z</time>
      </trkpt>
      <trkpt lat="44.91739" lon="4.17298">
        <ele>1587</ele>
        <time>2021-04-28T14:52:27Z</time>
      </trkpt>
      <trkpt lat="44.91733" lon="4.17305">
        <ele>1586</ele>
        <time>2021-04-28T14:52:28Z</time>
      </trkpt>
      <trkpt lat="44.91727" lon="4.17309">
        <ele>1586</ele>
        <time>2021-04-28T14:52:29Z</time>
      </trkpt>
      <trkpt lat="44.9172" lon="4.17311">
        <ele>1586</ele>
        <time>2021-04-28T14:52:30Z</time>
      </trkpt>
      <trkpt lat="44.91714" lon="4.17311">
        <ele>1586</ele>
        <time>2021-04-28T14:52:31Z</time>
      </trkpt>
      <trkpt lat="44.91709" lon="4.1731">
        <ele>1586</ele>
        <time>2021-04-28T14:52:32Z</time>
      </trkpt>
      <trkpt lat="44.91704" lon="4.17308">
        <ele>1586</ele>
        <time>2021-04-28T14:52:33Z</time>
      </trkpt>
      <trkpt lat="44.91699" lon="4.17306">
        <ele>1586</ele>
        <time>2021-04-28T14:52:34Z</time>
      </trkpt>
      <trkpt lat="44.91695" lon="4.17304">
        <ele>1586</ele>
        <time>2021-04-28T14:52:35Z</time>
      </trkpt>
      <trkpt lat="44.91691" lon="4.17302">
        <ele>1585</ele>
        <time>2021-04-28T14:52:36Z</time>
      </trkpt>
      <trkpt lat="44.91686" lon="4.17301">
        <ele>1585</ele>
        <time>2021-04-28T14:52:37Z</time>
      </trkpt>
      <trkpt lat="44.91681" lon="4.173">
        <ele>1584</ele>
        <time>2021-04-28T14:52:38Z</time>
      </trkpt>
      <trkpt lat="44.91675" lon="4.17299">
        <ele>1584</ele>
        <time>2021-04-28T14:52:39Z</time>
      </trkpt>
      <trkpt lat="44.9167" lon="4.17299">
        <ele>1583</ele>
        <time>2021-04-28T14:52:40Z</time>
      </trkpt>
      <trkpt lat="44.91663" lon="4.17301">
        <ele>1582</ele>
        <time>2021-04-28T14:52:41Z</time>
      </trkpt>
      <trkpt lat="44.91658" lon="4.17304">
        <ele>1581</ele>
        <time>2021-04-28T14:52:42Z</time>
      </trkpt>
      <trkpt lat="44.91653" lon="4.1731">
        <ele>1580</ele>
        <time>2021-04-28T14:52:43Z</time>
      </trkpt>
      <trkpt lat="44.91651" lon="4.17317">
        <ele>1579</ele>
        <time>2021-04-28T14:52:44Z</time>
      </trkpt>
      <trkpt lat="44.91651" lon="4.17326">
        <ele>1578</ele>
        <time>2021-04-28T14:52:45Z</time>
      </trkpt>
      <trkpt lat="44.91653" lon="4.17336">
        <ele>1577</ele>
        <time>2021-04-28T14:52:46Z</time>
      </trkpt>
      <trkpt lat="44.91658" lon="4.17344">
        <ele>1576</ele>
        <time>2021-04-28T14:52:47Z</time>
      </trkpt>
      <trkpt lat="44.91663" lon="4.17353">
        <ele>1576</ele>
        <time>2021-04-28T14:52:48Z</time>
      </trkpt>
      <trkpt lat="44.91668" lon="4.17361">
        <ele>1576</ele>
        <time>2021-04-28T14:52:49Z</time>
      </trkpt>
      <trkpt lat="44.91673" lon="4.17369">
        <ele>1575</ele>
        <time>2021-04-28T14:52:50Z</time>
      </trkpt>
      <trkpt lat="44.91679" lon="4.17377">
        <ele>1575</ele>
        <time>2021-04-28T14:52:51Z</time>
      </trkpt>
      <trkpt lat="44.91685" lon="4.17383">
        <ele>1575</ele>
        <time>2021-04-28T14:52:52Z</time>
      </trkpt>
      <trkpt lat="44.91691" lon="4.17388">
        <ele>1574</ele>
        <time>2021-04-28T14:52:53Z</time>
      </trkpt>
      <trkpt lat="44.91697" lon="4.17392">
        <ele>1574</ele>
        <time>2021-04-28T14:52:54Z</time>
      </trkpt>
      <trkpt lat="44.91702" lon="4.17396">
        <ele>1574</ele>
        <time>2021-04-28T14:52:55Z</time>
      </trkpt>
      <trkpt lat="44.91706" lon="4.17402">
        <ele>1574</ele>
        <time>2021-04-28T14:52:56Z</time>
      </trkpt>
      <trkpt lat="44.91709" lon="4.1741">
        <ele>1574</ele>
        <time>2021-04-28T14:52:57Z</time>
      </trkpt>
      <trkpt lat="44.91711" lon="4.1742">
        <ele>1574</ele>
        <time>2021-04-28T14:52:58Z</time>
      </trkpt>
      <trkpt lat="44.9171" lon="4.17429">
        <ele>1574</ele>
        <time>2021-04-28T14:52:59Z</time>
      </trkpt>
      <trkpt lat="44.91709" lon="4.1744">
        <ele>1573</ele>
        <time>2021-04-28T14:53:00Z</time>
      </trkpt>
      <trkpt lat="44.91706" lon="4.17453">
        <ele>1573</ele>
        <time>2021-04-28T14:53:01Z</time>
      </trkpt>
      <trkpt lat="44.91702" lon="4.17465">
        <ele>1573</ele>
        <time>2021-04-28T14:53:02Z</time>
      </trkpt>
      <trkpt lat="44.91699" lon="4.17475">
        <ele>1572</ele>
        <time>2021-04-28T14:53:03Z</time>
      </trkpt>
      <trkpt lat="44.91698" lon="4.17483">
        <ele>1572</ele>
        <time>2021-04-28T14:53:04Z</time>
      </trkpt>
      <trkpt lat="44.91696" lon="4.17489">
        <ele>1572</ele>
        <time>2021-04-28T14:53:05Z</time>
      </trkpt>
      <trkpt lat="44.91695" lon="4.17494">
        <ele>1571</ele>
        <time>2021-04-28T14:53:06Z</time>
      </trkpt>
      <trkpt lat="44.91694" lon="4.17498">
        <ele>1571</ele>
        <time>2021-04-28T14:53:07Z</time>
      </trkpt>
      <trkpt lat="44.91693" lon="4.17502">
        <ele>1571</ele>
        <time>2021-04-28T14:53:08Z</time>
      </trkpt>
      <trkpt lat="44.91693" lon="4.17506">
        <ele>1571</ele>
        <time>2021-04-28T14:53:09Z</time>
      </trkpt>
      <trkpt lat="44.91692" lon="4.17511">
        <ele>1571</ele>
        <time>2021-04-28T14:53:10Z</time>
      </trkpt>
      <trkpt lat="44.91691" lon="4.17516">
        <ele>1570</ele>
        <time>2021-04-28T14:53:11Z</time>
      </trkpt>
      <trkpt lat="44.9169" lon="4.17521">
        <ele>1570</ele>
        <time>2021-04-28T14:53:12Z</time>
      </trkpt>
      <trkpt lat="44.91689" lon="4.17525">
        <ele>1569</ele>
        <time>2021-04-28T14:53:13Z</time>
      </trkpt>
      <trkpt lat="44.91688" lon="4.17531">
        <ele>1569</ele>
        <time>2021-04-28T14:53:14Z</time>
      </trkpt>
      <trkpt lat="44.91687" lon="4.17536">
        <ele>1568</ele>
        <time>2021-04-28T14:53:15Z</time>
      </trkpt>
      <trkpt lat="44.91686" lon="4.17542">
        <ele>1568</ele>
        <time>2021-04-28T14:53:16Z</time>
      </trkpt>
      <trkpt lat="44.91686" lon="4.17548">
        <ele>1568</ele>
        <time>2021-04-28T14:53:17Z</time>
      </trkpt>
      <trkpt lat="44.91685" lon="4.17554">
        <ele>1567</ele>
        <time>2021-04-28T14:53:18Z</time>
      </trkpt>
      <trkpt lat="44.91685" lon="4.17559">
        <ele>1567</ele>
        <time>2021-04-28T14:53:19Z</time>
      </trkpt>
      <trkpt lat="44.91684" lon="4.17565">
        <ele>1567</ele>
        <time>2021-04-28T14:53:20Z</time>
      </trkpt>
      <trkpt lat="44.91683" lon="4.1757">
        <ele>1567</ele>
        <time>2021-04-28T14:53:21Z</time>
      </trkpt>
      <trkpt lat="44.91682" lon="4.17575">
        <ele>1567</ele>
        <time>2021-04-28T14:53:22Z</time>
      </trkpt>
      <trkpt lat="44.91681" lon="4.17581">
        <ele>1567</ele>
        <time>2021-04-28T14:53:23Z</time>
      </trkpt>
      <trkpt lat="44.91681" lon="4.17587">
        <ele>1566</ele>
        <time>2021-04-28T14:53:24Z</time>
      </trkpt>
      <trkpt lat="44.9168" lon="4.17592">
        <ele>1566</ele>
        <time>2021-04-28T14:53:25Z</time>
      </trkpt>
      <trkpt lat="44.91679" lon="4.17598">
        <ele>1566</ele>
        <time>2021-04-28T14:53:26Z</time>
      </trkpt>
      <trkpt lat="44.91679" lon="4.17603">
        <ele>1566</ele>
        <time>2021-04-28T14:53:27Z</time>
      </trkpt>
      <trkpt lat="44.91678" lon="4.17609">
        <ele>1566</ele>
        <time>2021-04-28T14:53:28Z</time>
      </trkpt>
      <trkpt lat="44.91677" lon="4.17614">
        <ele>1566</ele>
        <time>2021-04-28T14:53:29Z</time>
      </trkpt>
      <trkpt lat="44.91676" lon="4.1762">
        <ele>1566</ele>
        <time>2021-04-28T14:53:30Z</time>
      </trkpt>
      <trkpt lat="44.91675" lon="4.17625">
        <ele>1566</ele>
        <time>2021-04-28T14:53:31Z</time>
      </trkpt>
      <trkpt lat="44.91674" lon="4.1763">
        <ele>1566</ele>
        <time>2021-04-28T14:53:32Z</time>
      </trkpt>
      <trkpt lat="44.91673" lon="4.17635">
        <ele>1566</ele>
        <time>2021-04-28T14:53:33Z</time>
      </trkpt>
      <trkpt lat="44.91673" lon="4.1764">
        <ele>1565</ele>
        <time>2021-04-28T14:53:34Z</time>
      </trkpt>
      <trkpt lat="44.91672" lon="4.17645">
        <ele>1565</ele>
        <time>2021-04-28T14:53:35Z</time>
      </trkpt>
      <trkpt lat="44.91671" lon="4.1765">
        <ele>1565</ele>
        <time>2021-04-28T14:53:36Z</time>
      </trkpt>
      <trkpt lat="44.9167" lon="4.17655">
        <ele>1565</ele>
        <time>2021-04-28T14:53:37Z</time>
      </trkpt>
      <trkpt lat="44.91669" lon="4.1766">
        <ele>1565</ele>
        <time>2021-04-28T14:53:38Z</time>
      </trkpt>
      <trkpt lat="44.91669" lon="4.17664">
        <ele>1565</ele>
        <time>2021-04-28T14:53:39Z</time>
      </trkpt>
      <trkpt lat="44.91668" lon="4.17668">
        <ele>1565</ele>
        <time>2021-04-28T14:53:40Z</time>
      </trkpt>
      <trkpt lat="44.91667" lon="4.17673">
        <ele>1565</ele>
        <time>2021-04-28T14:53:41Z</time>
      </trkpt>
      <trkpt lat="44.91666" lon="4.17678">
        <ele>1565</ele>
        <time>2021-04-28T14:53:42Z</time>
      </trkpt>
      <trkpt lat="44.91665" lon="4.17683">
        <ele>1565</ele>
        <time>2021-04-28T14:53:43Z</time>
      </trkpt>
      <trkpt lat="44.91664" lon="4.17688">
        <ele>1565</ele>
        <time>2021-04-28T14:53:44Z</time>
      </trkpt>
      <trkpt lat="44.91663" lon="4.17692">
        <ele>1565</ele>
        <time>2021-04-28T14:53:45Z</time>
      </trkpt>
      <trkpt lat="44.91662" lon="4.17697">
        <ele>1565</ele>
        <time>2021-04-28T14:53:46Z</time>
      </trkpt>
      <trkpt lat="44.91661" lon="4.17702">
        <ele>1564</ele>
        <time>2021-04-28T14:53:47Z</time>
      </trkpt>
      <trkpt lat="44.9166" lon="4.17706">
        <ele>1565</ele>
        <time>2021-04-28T14:53:48Z</time>
      </trkpt>
      <trkpt lat="44.9166" lon="4.17711">
        <ele>1565</ele>
        <time>2021-04-28T14:53:49Z</time>
      </trkpt>
      <trkpt lat="44.91659" lon="4.17716">
        <ele>1565</ele>
        <time>2021-04-28T14:53:50Z</time>
      </trkpt>
      <trkpt lat="44.91658" lon="4.1772">
        <ele>1565</ele>
        <time>2021-04-28T14:53:51Z</time>
      </trkpt>
      <trkpt lat="44.91657" lon="4.17725">
        <ele>1565</ele>
        <time>2021-04-28T14:53:52Z</time>
      </trkpt>
      <trkpt lat="44.91657" lon="4.17729">
        <ele>1566</ele>
        <time>2021-04-28T14:53:53Z</time>
      </trkpt>
      <trkpt lat="44.91656" lon="4.17734">
        <ele>1566</ele>
        <time>2021-04-28T14:53:54Z</time>
      </trkpt>
      <trkpt lat="44.91656" lon="4.17738">
        <ele>1566</ele>
        <time>2021-04-28T14:53:55Z</time>
      </trkpt>
      <trkpt lat="44.91655" lon="4.17743">
        <ele>1566</ele>
        <time>2021-04-28T14:53:56Z</time>
      </trkpt>
      <trkpt lat="44.91654" lon="4.17747">
        <ele>1566</ele>
        <time>2021-04-28T14:53:57Z</time>
      </trkpt>
      <trkpt lat="44.91654" lon="4.17751">
        <ele>1566</ele>
        <time>2021-04-28T14:53:58Z</time>
      </trkpt>
      <trkpt lat="44.91653" lon="4.17755">
        <ele>1566</ele>
        <time>2021-04-28T14:53:59Z</time>
      </trkpt>
      <trkpt lat="44.91653" lon="4.17759">
        <ele>1566</ele>
        <time>2021-04-28T14:54:00Z</time>
      </trkpt>
      <trkpt lat="44.91652" lon="4.17763">
        <ele>1566</ele>
        <time>2021-04-28T14:54:01Z</time>
      </trkpt>
      <trkpt lat="44.91651" lon="4.17767">
        <ele>1566</ele>
        <time>2021-04-28T14:54:02Z</time>
      </trkpt>
      <trkpt lat="44.9165" lon="4.17771">
        <ele>1566</ele>
        <time>2021-04-28T14:54:03Z</time>
      </trkpt>
      <trkpt lat="44.9165" lon="4.17775">
        <ele>1566</ele>
        <time>2021-04-28T14:54:04Z</time>
      </trkpt>
      <trkpt lat="44.91649" lon="4.17779">
        <ele>1566</ele>
        <time>2021-04-28T14:54:05Z</time>
      </trkpt>
      <trkpt lat="44.91648" lon="4.17783">
        <ele>1566</ele>
        <time>2021-04-28T14:54:06Z</time>
      </trkpt>
      <trkpt lat="44.91647" lon="4.17787">
        <ele>1566</ele>
        <time>2021-04-28T14:54:07Z</time>
      </trkpt>
      <trkpt lat="44.91647" lon="4.17791">
        <ele>1566</ele>
        <time>2021-04-28T14:54:08Z</time>
      </trkpt>
      <trkpt lat="44.91646" lon="4.17795">
        <ele>1566</ele>
        <time>2021-04-28T14:54:09Z</time>
      </trkpt>
      <trkpt lat="44.91645" lon="4.17799">
        <ele>1566</ele>
        <time>2021-04-28T14:54:10Z</time>
      </trkpt>
      <trkpt lat="44.91645" lon="4.17803">
        <ele>1566</ele>
        <time>2021-04-28T14:54:11Z</time>
      </trkpt>
      <trkpt lat="44.91644" lon="4.17807">
        <ele>1566</ele>
        <time>2021-04-28T14:54:12Z</time>
      </trkpt>
      <trkpt lat="44.91643" lon="4.17811">
        <ele>1567</ele>
        <time>2021-04-28T14:54:13Z</time>
      </trkpt>
      <trkpt lat="44.91642" lon="4.17814">
        <ele>1567</ele>
        <time>2021-04-28T14:54:14Z</time>
      </trkpt>
      <trkpt lat="44.91642" lon="4.17818">
        <ele>1567</ele>
        <time>2021-04-28T14:54:15Z</time>
      </trkpt>
      <trkpt lat="44.91641" lon="4.17821">
        <ele>1567</ele>
        <time>2021-04-28T14:54:16Z</time>
      </trkpt>
      <trkpt lat="44.91639" lon="4.17824">
        <ele>1567</ele>
        <time>2021-04-28T14:54:17Z</time>
      </trkpt>
      <trkpt lat="44.91638" lon="4.17826">
        <ele>1567</ele>
        <time>2021-04-28T14:54:18Z</time>
      </trkpt>
      <trkpt lat="44.91636" lon="4.17829">
        <ele>1567</ele>
        <time>2021-04-28T14:54:19Z</time>
      </trkpt>
      <trkpt lat="44.91634" lon="4.17831">
        <ele>1567</ele>
        <time>2021-04-28T14:54:20Z</time>
      </trkpt>
      <trkpt lat="44.91632" lon="4.17832">
        <ele>1567</ele>
        <time>2021-04-28T14:54:21Z</time>
      </trkpt>
      <trkpt lat="44.9163" lon="4.17834">
        <ele>1567</ele>
        <time>2021-04-28T14:54:22Z</time>
      </trkpt>
      <trkpt lat="44.91627" lon="4.17835">
        <ele>1568</ele>
        <time>2021-04-28T14:54:23Z</time>
      </trkpt>
      <trkpt lat="44.91625" lon="4.17837">
        <ele>1568</ele>
        <time>2021-04-28T14:54:24Z</time>
      </trkpt>
      <trkpt lat="44.91623" lon="4.17838">
        <ele>1568</ele>
        <time>2021-04-28T14:54:25Z</time>
      </trkpt>
      <trkpt lat="44.91621" lon="4.17839">
        <ele>1568</ele>
        <time>2021-04-28T14:54:26Z</time>
      </trkpt>
      <trkpt lat="44.91618" lon="4.17839">
        <ele>1568</ele>
        <time>2021-04-28T14:54:27Z</time>
      </trkpt>
      <trkpt lat="44.91616" lon="4.17837">
        <ele>1568</ele>
        <time>2021-04-28T14:54:28Z</time>
      </trkpt>
      <trkpt lat="44.91614" lon="4.17834">
        <ele>1568</ele>
        <time>2021-04-28T14:54:29Z</time>
      </trkpt>
      <trkpt lat="44.91613" lon="4.17832">
        <ele>1568</ele>
        <time>2021-04-28T14:54:30Z</time>
      </trkpt>
      <trkpt lat="44.91611" lon="4.17828">
        <ele>1568</ele>
        <time>2021-04-28T14:54:31Z</time>
      </trkpt>
      <trkpt lat="44.91609" lon="4.17825">
        <ele>1568</ele>
        <time>2021-04-28T14:54:32Z</time>
      </trkpt>
      <trkpt lat="44.91607" lon="4.17822">
        <ele>1568</ele>
        <time>2021-04-28T14:54:33Z</time>
      </trkpt>
      <trkpt lat="44.91605" lon="4.17818">
        <ele>1568</ele>
        <time>2021-04-28T14:54:34Z</time>
      </trkpt>
      <trkpt lat="44.91604" lon="4.17815">
        <ele>1568</ele>
        <time>2021-04-28T14:54:35Z</time>
      </trkpt>
      <trkpt lat="44.91602" lon="4.17811">
        <ele>1568</ele>
        <time>2021-04-28T14:54:36Z</time>
      </trkpt>
      <trkpt lat="44.916" lon="4.17807">
        <ele>1568</ele>
        <time>2021-04-28T14:54:37Z</time>
      </trkpt>
      <trkpt lat="44.91598" lon="4.17802">
        <ele>1568</ele>
        <time>2021-04-28T14:54:38Z</time>
      </trkpt>
      <trkpt lat="44.91596" lon="4.17796">
        <ele>1568</ele>
        <time>2021-04-28T14:54:39Z</time>
      </trkpt>
      <trkpt lat="44.91594" lon="4.17791">
        <ele>1568</ele>
        <time>2021-04-28T14:54:40Z</time>
      </trkpt>
      <trkpt lat="44.91593" lon="4.17785">
        <ele>1568</ele>
        <time>2021-04-28T14:54:41Z</time>
      </trkpt>
      <trkpt lat="44.91591" lon="4.17778">
        <ele>1568</ele>
        <time>2021-04-28T14:54:42Z</time>
      </trkpt>
      <trkpt lat="44.91589" lon="4.17772">
        <ele>1568</ele>
        <time>2021-04-28T14:54:43Z</time>
      </trkpt>
      <trkpt lat="44.91588" lon="4.17765">
        <ele>1568</ele>
        <time>2021-04-28T14:54:44Z</time>
      </trkpt>
      <trkpt lat="44.91587" lon="4.17758">
        <ele>1568</ele>
        <time>2021-04-28T14:54:45Z</time>
      </trkpt>
      <trkpt lat="44.91586" lon="4.17751">
        <ele>1567</ele>
        <time>2021-04-28T14:54:46Z</time>
      </trkpt>
      <trkpt lat="44.91584" lon="4.17743">
        <ele>1567</ele>
        <time>2021-04-28T14:54:47Z</time>
      </trkpt>
      <trkpt lat="44.91582" lon="4.17735">
        <ele>1567</ele>
        <time>2021-04-28T14:54:48Z</time>
      </trkpt>
      <trkpt lat="44.9158" lon="4.17727">
        <ele>1567</ele>
        <time>2021-04-28T14:54:49Z</time>
      </trkpt>
      <trkpt lat="44.91578" lon="4.17719">
        <ele>1567</ele>
        <time>2021-04-28T14:54:50Z</time>
      </trkpt>
      <trkpt lat="44.91576" lon="4.1771">
        <ele>1567</ele>
        <time>2021-04-28T14:54:51Z</time>
      </trkpt>
      <trkpt lat="44.91574" lon="4.17701">
        <ele>1567</ele>
        <time>2021-04-28T14:54:52Z</time>
      </trkpt>
      <trkpt lat="44.91573" lon="4.17692">
        <ele>1567</ele>
        <time>2021-04-28T14:54:53Z</time>
      </trkpt>
      <trkpt lat="44.91572" lon="4.17684">
        <ele>1567</ele>
        <time>2021-04-28T14:54:54Z</time>
      </trkpt>
      <trkpt lat="44.9157" lon="4.17676">
        <ele>1567</ele>
        <time>2021-04-28T14:54:55Z</time>
      </trkpt>
      <trkpt lat="44.91568" lon="4.17667">
        <ele>1566</ele>
        <time>2021-04-28T14:54:56Z</time>
      </trkpt>
      <trkpt lat="44.91567" lon="4.17658">
        <ele>1566</ele>
        <time>2021-04-28T14:54:57Z</time>
      </trkpt>
      <trkpt lat="44.91565" lon="4.17649">
        <ele>1566</ele>
        <time>2021-04-28T14:54:58Z</time>
      </trkpt>
      <trkpt lat="44.91564" lon="4.1764">
        <ele>1566</ele>
        <time>2021-04-28T14:54:59Z</time>
      </trkpt>
      <trkpt lat="44.91562" lon="4.1763">
        <ele>1565</ele>
        <time>2021-04-28T14:55:00Z</time>
      </trkpt>
      <trkpt lat="44.9156" lon="4.1762">
        <ele>1564</ele>
        <time>2021-04-28T14:55:01Z</time>
      </trkpt>
      <trkpt lat="44.91558" lon="4.1761">
        <ele>1564</ele>
        <time>2021-04-28T14:55:02Z</time>
      </trkpt>
      <trkpt lat="44.91556" lon="4.176">
        <ele>1563</ele>
        <time>2021-04-28T14:55:03Z</time>
      </trkpt>
      <trkpt lat="44.91554" lon="4.17592">
        <ele>1562</ele>
        <time>2021-04-28T14:55:04Z</time>
      </trkpt>
      <trkpt lat="44.91552" lon="4.17583">
        <ele>1561</ele>
        <time>2021-04-28T14:55:05Z</time>
      </trkpt>
      <trkpt lat="44.91549" lon="4.17575">
        <ele>1560</ele>
        <time>2021-04-28T14:55:06Z</time>
      </trkpt>
      <trkpt lat="44.91545" lon="4.17567">
        <ele>1559</ele>
        <time>2021-04-28T14:55:07Z</time>
      </trkpt>
      <trkpt lat="44.91543" lon="4.17561">
        <ele>1559</ele>
        <time>2021-04-28T14:55:08Z</time>
      </trkpt>
      <trkpt lat="44.91541" lon="4.17553">
        <ele>1558</ele>
        <time>2021-04-28T14:55:09Z</time>
      </trkpt>
      <trkpt lat="44.91539" lon="4.17546">
        <ele>1558</ele>
        <time>2021-04-28T14:55:10Z</time>
      </trkpt>
      <trkpt lat="44.91537" lon="4.17539">
        <ele>1557</ele>
        <time>2021-04-28T14:55:11Z</time>
      </trkpt>
      <trkpt lat="44.91535" lon="4.17532">
        <ele>1557</ele>
        <time>2021-04-28T14:55:12Z</time>
      </trkpt>
      <trkpt lat="44.91533" lon="4.17524">
        <ele>1557</ele>
        <time>2021-04-28T14:55:13Z</time>
      </trkpt>
      <trkpt lat="44.91531" lon="4.17517">
        <ele>1557</ele>
        <time>2021-04-28T14:55:14Z</time>
      </trkpt>
      <trkpt lat="44.91529" lon="4.17509">
        <ele>1557</ele>
        <time>2021-04-28T14:55:15Z</time>
      </trkpt>
      <trkpt lat="44.91527" lon="4.17501">
        <ele>1557</ele>
        <time>2021-04-28T14:55:16Z</time>
      </trkpt>
      <trkpt lat="44.91523" lon="4.17485">
        <ele>1557</ele>
        <time>2021-04-28T14:55:17Z</time>
      </trkpt>
      <trkpt lat="44.91521" lon="4.17478">
        <ele>1557</ele>
        <time>2021-04-28T14:55:19Z</time>
      </trkpt>
      <trkpt lat="44.91518" lon="4.17471">
        <ele>1557</ele>
        <time>2021-04-28T14:55:20Z</time>
      </trkpt>
      <trkpt lat="44.91515" lon="4.17465">
        <ele>1557</ele>
        <time>2021-04-28T14:55:21Z</time>
      </trkpt>
      <trkpt lat="44.91511" lon="4.1746">
        <ele>1557</ele>
        <time>2021-04-28T14:55:22Z</time>
      </trkpt>
      <trkpt lat="44.91508" lon="4.17455">
        <ele>1556</ele>
        <time>2021-04-28T14:55:23Z</time>
      </trkpt>
      <trkpt lat="44.91505" lon="4.1745">
        <ele>1556</ele>
        <time>2021-04-28T14:55:24Z</time>
      </trkpt>
      <trkpt lat="44.91502" lon="4.17444">
        <ele>1556</ele>
        <time>2021-04-28T14:55:25Z</time>
      </trkpt>
      <trkpt lat="44.915" lon="4.17439">
        <ele>1555</ele>
        <time>2021-04-28T14:55:26Z</time>
      </trkpt>
      <trkpt lat="44.91498" lon="4.17433">
        <ele>1555</ele>
        <time>2021-04-28T14:55:27Z</time>
      </trkpt>
      <trkpt lat="44.91496" lon="4.17427">
        <ele>1555</ele>
        <time>2021-04-28T14:55:28Z</time>
      </trkpt>
      <trkpt lat="44.91494" lon="4.1742">
        <ele>1555</ele>
        <time>2021-04-28T14:55:29Z</time>
      </trkpt>
      <trkpt lat="44.91492" lon="4.17413">
        <ele>1555</ele>
        <time>2021-04-28T14:55:30Z</time>
      </trkpt>
      <trkpt lat="44.91491" lon="4.17405">
        <ele>1554</ele>
        <time>2021-04-28T14:55:31Z</time>
      </trkpt>
      <trkpt lat="44.91489" lon="4.17398">
        <ele>1554</ele>
        <time>2021-04-28T14:55:32Z</time>
      </trkpt>
      <trkpt lat="44.91488" lon="4.17391">
        <ele>1554</ele>
        <time>2021-04-28T14:55:33Z</time>
      </trkpt>
      <trkpt lat="44.91486" lon="4.17384">
        <ele>1554</ele>
        <time>2021-04-28T14:55:34Z</time>
      </trkpt>
      <trkpt lat="44.91484" lon="4.17377">
        <ele>1554</ele>
        <time>2021-04-28T14:55:35Z</time>
      </trkpt>
      <trkpt lat="44.91483" lon="4.1737">
        <ele>1554</ele>
        <time>2021-04-28T14:55:36Z</time>
      </trkpt>
      <trkpt lat="44.91481" lon="4.17363">
        <ele>1553</ele>
        <time>2021-04-28T14:55:37Z</time>
      </trkpt>
      <trkpt lat="44.91479" lon="4.17356">
        <ele>1553</ele>
        <time>2021-04-28T14:55:38Z</time>
      </trkpt>
      <trkpt lat="44.91478" lon="4.17349">
        <ele>1553</ele>
        <time>2021-04-28T14:55:39Z</time>
      </trkpt>
      <trkpt lat="44.91476" lon="4.17341">
        <ele>1552</ele>
        <time>2021-04-28T14:55:40Z</time>
      </trkpt>
      <trkpt lat="44.91475" lon="4.17333">
        <ele>1552</ele>
        <time>2021-04-28T14:55:41Z</time>
      </trkpt>
      <trkpt lat="44.91473" lon="4.17325">
        <ele>1552</ele>
        <time>2021-04-28T14:55:42Z</time>
      </trkpt>
      <trkpt lat="44.91472" lon="4.17317">
        <ele>1551</ele>
        <time>2021-04-28T14:55:43Z</time>
      </trkpt>
      <trkpt lat="44.9147" lon="4.17308">
        <ele>1551</ele>
        <time>2021-04-28T14:55:44Z</time>
      </trkpt>
      <trkpt lat="44.91468" lon="4.17301">
        <ele>1551</ele>
        <time>2021-04-28T14:55:45Z</time>
      </trkpt>
      <trkpt lat="44.91465" lon="4.17294">
        <ele>1550</ele>
        <time>2021-04-28T14:55:46Z</time>
      </trkpt>
      <trkpt lat="44.91463" lon="4.17288">
        <ele>1550</ele>
        <time>2021-04-28T14:55:47Z</time>
      </trkpt>
      <trkpt lat="44.91461" lon="4.17281">
        <ele>1550</ele>
        <time>2021-04-28T14:55:48Z</time>
      </trkpt>
      <trkpt lat="44.9146" lon="4.17273">
        <ele>1550</ele>
        <time>2021-04-28T14:55:49Z</time>
      </trkpt>
      <trkpt lat="44.91458" lon="4.17267">
        <ele>1550</ele>
        <time>2021-04-28T14:55:50Z</time>
      </trkpt>
      <trkpt lat="44.91455" lon="4.1726">
        <ele>1549</ele>
        <time>2021-04-28T14:55:51Z</time>
      </trkpt>
      <trkpt lat="44.91453" lon="4.17252">
        <ele>1549</ele>
        <time>2021-04-28T14:55:52Z</time>
      </trkpt>
      <trkpt lat="44.9145" lon="4.17244">
        <ele>1548</ele>
        <time>2021-04-28T14:55:53Z</time>
      </trkpt>
      <trkpt lat="44.91447" lon="4.17237">
        <ele>1548</ele>
        <time>2021-04-28T14:55:54Z</time>
      </trkpt>
      <trkpt lat="44.91445" lon="4.17228">
        <ele>1548</ele>
        <time>2021-04-28T14:55:55Z</time>
      </trkpt>
      <trkpt lat="44.91443" lon="4.1722">
        <ele>1547</ele>
        <time>2021-04-28T14:55:56Z</time>
      </trkpt>
      <trkpt lat="44.91441" lon="4.17211">
        <ele>1547</ele>
        <time>2021-04-28T14:55:57Z</time>
      </trkpt>
      <trkpt lat="44.91438" lon="4.17203">
        <ele>1546</ele>
        <time>2021-04-28T14:55:58Z</time>
      </trkpt>
      <trkpt lat="44.91436" lon="4.17195">
        <ele>1546</ele>
        <time>2021-04-28T14:55:59Z</time>
      </trkpt>
      <trkpt lat="44.91433" lon="4.17187">
        <ele>1546</ele>
        <time>2021-04-28T14:56:00Z</time>
      </trkpt>
      <trkpt lat="44.91431" lon="4.17178">
        <ele>1545</ele>
        <time>2021-04-28T14:56:01Z</time>
      </trkpt>
      <trkpt lat="44.91429" lon="4.1717">
        <ele>1545</ele>
        <time>2021-04-28T14:56:02Z</time>
      </trkpt>
      <trkpt lat="44.91426" lon="4.17162">
        <ele>1545</ele>
        <time>2021-04-28T14:56:03Z</time>
      </trkpt>
      <trkpt lat="44.91423" lon="4.17154">
        <ele>1544</ele>
        <time>2021-04-28T14:56:04Z</time>
      </trkpt>
      <trkpt lat="44.9142" lon="4.17146">
        <ele>1544</ele>
        <time>2021-04-28T14:56:05Z</time>
      </trkpt>
      <trkpt lat="44.91417" lon="4.17138">
        <ele>1544</ele>
        <time>2021-04-28T14:56:06Z</time>
      </trkpt>
      <trkpt lat="44.91415" lon="4.1713">
        <ele>1544</ele>
        <time>2021-04-28T14:56:07Z</time>
      </trkpt>
      <trkpt lat="44.91413" lon="4.17122">
        <ele>1543</ele>
        <time>2021-04-28T14:56:08Z</time>
      </trkpt>
      <trkpt lat="44.9141" lon="4.17114">
        <ele>1542</ele>
        <time>2021-04-28T14:56:09Z</time>
      </trkpt>
      <trkpt lat="44.91408" lon="4.17107">
        <ele>1542</ele>
        <time>2021-04-28T14:56:10Z</time>
      </trkpt>
      <trkpt lat="44.91406" lon="4.17099">
        <ele>1542</ele>
        <time>2021-04-28T14:56:11Z</time>
      </trkpt>
      <trkpt lat="44.91404" lon="4.17091">
        <ele>1542</ele>
        <time>2021-04-28T14:56:12Z</time>
      </trkpt>
      <trkpt lat="44.91401" lon="4.17084">
        <ele>1541</ele>
        <time>2021-04-28T14:56:13Z</time>
      </trkpt>
      <trkpt lat="44.91399" lon="4.17076">
        <ele>1541</ele>
        <time>2021-04-28T14:56:14Z</time>
      </trkpt>
      <trkpt lat="44.91396" lon="4.17068">
        <ele>1541</ele>
        <time>2021-04-28T14:56:15Z</time>
      </trkpt>
      <trkpt lat="44.91393" lon="4.1706">
        <ele>1540</ele>
        <time>2021-04-28T14:56:16Z</time>
      </trkpt>
      <trkpt lat="44.9139" lon="4.17052">
        <ele>1539</ele>
        <time>2021-04-28T14:56:17Z</time>
      </trkpt>
      <trkpt lat="44.91387" lon="4.17043">
        <ele>1539</ele>
        <time>2021-04-28T14:56:18Z</time>
      </trkpt>
      <trkpt lat="44.91383" lon="4.17034">
        <ele>1539</ele>
        <time>2021-04-28T14:56:19Z</time>
      </trkpt>
      <trkpt lat="44.9138" lon="4.17025">
        <ele>1538</ele>
        <time>2021-04-28T14:56:20Z</time>
      </trkpt>
      <trkpt lat="44.91376" lon="4.17017">
        <ele>1537</ele>
        <time>2021-04-28T14:56:21Z</time>
      </trkpt>
      <trkpt lat="44.91373" lon="4.1701">
        <ele>1537</ele>
        <time>2021-04-28T14:56:22Z</time>
      </trkpt>
      <trkpt lat="44.91369" lon="4.17003">
        <ele>1536</ele>
        <time>2021-04-28T14:56:23Z</time>
      </trkpt>
      <trkpt lat="44.91366" lon="4.16996">
        <ele>1536</ele>
        <time>2021-04-28T14:56:24Z</time>
      </trkpt>
      <trkpt lat="44.91363" lon="4.1699">
        <ele>1535</ele>
        <time>2021-04-28T14:56:25Z</time>
      </trkpt>
      <trkpt lat="44.9136" lon="4.16983">
        <ele>1535</ele>
        <time>2021-04-28T14:56:26Z</time>
      </trkpt>
      <trkpt lat="44.91357" lon="4.16978">
        <ele>1535</ele>
        <time>2021-04-28T14:56:27Z</time>
      </trkpt>
      <trkpt lat="44.91355" lon="4.16971">
        <ele>1534</ele>
        <time>2021-04-28T14:56:28Z</time>
      </trkpt>
      <trkpt lat="44.91352" lon="4.16965">
        <ele>1534</ele>
        <time>2021-04-28T14:56:29Z</time>
      </trkpt>
      <trkpt lat="44.91351" lon="4.1696">
        <ele>1533</ele>
        <time>2021-04-28T14:56:30Z</time>
      </trkpt>
      <trkpt lat="44.91351" lon="4.16955">
        <ele>1532</ele>
        <time>2021-04-28T14:56:31Z</time>
      </trkpt>
      <trkpt lat="44.9135" lon="4.16949">
        <ele>1532</ele>
        <time>2021-04-28T14:56:32Z</time>
      </trkpt>
      <trkpt lat="44.91349" lon="4.16944">
        <ele>1532</ele>
        <time>2021-04-28T14:56:33Z</time>
      </trkpt>
      <trkpt lat="44.91349" lon="4.16939">
        <ele>1530</ele>
        <time>2021-04-28T14:56:34Z</time>
      </trkpt>
      <trkpt lat="44.9135" lon="4.16935">
        <ele>1530</ele>
        <time>2021-04-28T14:56:35Z</time>
      </trkpt>
      <trkpt lat="44.91351" lon="4.16931">
        <ele>1529</ele>
        <time>2021-04-28T14:56:36Z</time>
      </trkpt>
      <trkpt lat="44.91352" lon="4.16928">
        <ele>1529</ele>
        <time>2021-04-28T14:56:37Z</time>
      </trkpt>
      <trkpt lat="44.91353" lon="4.16925">
        <ele>1528</ele>
        <time>2021-04-28T14:56:38Z</time>
      </trkpt>
      <trkpt lat="44.91354" lon="4.16923">
        <ele>1528</ele>
        <time>2021-04-28T14:56:39Z</time>
      </trkpt>
      <trkpt lat="44.91356" lon="4.16921">
        <ele>1528</ele>
        <time>2021-04-28T14:56:40Z</time>
      </trkpt>
      <trkpt lat="44.91357" lon="4.16919">
        <ele>1528</ele>
        <time>2021-04-28T14:56:41Z</time>
      </trkpt>
      <trkpt lat="44.91359" lon="4.16917">
        <ele>1527</ele>
        <time>2021-04-28T14:56:42Z</time>
      </trkpt>
      <trkpt lat="44.91361" lon="4.16915">
        <ele>1527</ele>
        <time>2021-04-28T14:56:43Z</time>
      </trkpt>
      <trkpt lat="44.91363" lon="4.16912">
        <ele>1527</ele>
        <time>2021-04-28T14:56:44Z</time>
      </trkpt>
      <trkpt lat="44.91365" lon="4.16909">
        <ele>1527</ele>
        <time>2021-04-28T14:56:45Z</time>
      </trkpt>
      <trkpt lat="44.91367" lon="4.16906">
        <ele>1526</ele>
        <time>2021-04-28T14:56:46Z</time>
      </trkpt>
      <trkpt lat="44.9137" lon="4.16902">
        <ele>1526</ele>
        <time>2021-04-28T14:56:47Z</time>
      </trkpt>
      <trkpt lat="44.91372" lon="4.16897">
        <ele>1526</ele>
        <time>2021-04-28T14:56:48Z</time>
      </trkpt>
      <trkpt lat="44.91374" lon="4.16893">
        <ele>1526</ele>
        <time>2021-04-28T14:56:49Z</time>
      </trkpt>
      <trkpt lat="44.91356" lon="4.16858">
        <ele>1516.8</ele>
      </trkpt>
      <trkpt lat="44.91326" lon="4.16851">
        <ele>1512</ele>
      </trkpt>
      <trkpt lat="44.91263" lon="4.1675">
        <ele>1500.1</ele>
      </trkpt>
      <trkpt lat="44.91233" lon="4.16704">
        <ele>1504</ele>
        <time>2021-04-28T15:03:00Z</time>
      </trkpt>
      <trkpt lat="44.9123" lon="4.16688">
        <ele>1504</ele>
        <time>2021-04-28T15:03:03Z</time>
      </trkpt>
      <trkpt lat="44.91227" lon="4.1667">
        <ele>1504</ele>
        <time>2021-04-28T15:03:06Z</time>
      </trkpt>
      <trkpt lat="44.91221" lon="4.16654">
        <ele>1503</ele>
        <time>2021-04-28T15:03:08Z</time>
      </trkpt>
      <trkpt lat="44.91218" lon="4.16646">
        <ele>1503</ele>
        <time>2021-04-28T15:03:09Z</time>
      </trkpt>
      <trkpt lat="44.91214" lon="4.16632">
        <ele>1503</ele>
        <time>2021-04-28T15:03:11Z</time>
      </trkpt>
      <trkpt lat="44.91206" lon="4.16617">
        <ele>1502</ele>
        <time>2021-04-28T15:03:13Z</time>
      </trkpt>
      <trkpt lat="44.91202" lon="4.16601">
        <ele>1501</ele>
        <time>2021-04-28T15:03:15Z</time>
      </trkpt>
      <trkpt lat="44.91199" lon="4.16585">
        <ele>1501</ele>
        <time>2021-04-28T15:03:17Z</time>
      </trkpt>
      <trkpt lat="44.91197" lon="4.16577">
        <ele>1500</ele>
        <time>2021-04-28T15:03:18Z</time>
      </trkpt>
      <trkpt lat="44.91196" lon="4.1657">
        <ele>1500</ele>
        <time>2021-04-28T15:03:19Z</time>
      </trkpt>
      <trkpt lat="44.91193" lon="4.16556">
        <ele>1500</ele>
        <time>2021-04-28T15:03:21Z</time>
      </trkpt>
      <trkpt lat="44.91191" lon="4.16548">
        <ele>1500</ele>
        <time>2021-04-28T15:03:22Z</time>
      </trkpt>
      <trkpt lat="44.91188" lon="4.16542">
        <ele>1499</ele>
        <time>2021-04-28T15:03:23Z</time>
      </trkpt>
      <trkpt lat="44.91185" lon="4.16535">
        <ele>1499</ele>
        <time>2021-04-28T15:03:24Z</time>
      </trkpt>
      <trkpt lat="44.91182" lon="4.16527">
        <ele>1499</ele>
        <time>2021-04-28T15:03:25Z</time>
      </trkpt>
      <trkpt lat="44.9118" lon="4.16519">
        <ele>1499</ele>
        <time>2021-04-28T15:03:26Z</time>
      </trkpt>
      <trkpt lat="44.91179" lon="4.16513">
        <ele>1498</ele>
        <time>2021-04-28T15:03:27Z</time>
      </trkpt>
      <trkpt lat="44.91178" lon="4.16506">
        <ele>1498</ele>
        <time>2021-04-28T15:03:28Z</time>
      </trkpt>
      <trkpt lat="44.91177" lon="4.16493">
        <ele>1496</ele>
        <time>2021-04-28T15:03:31Z</time>
      </trkpt>
      <trkpt lat="44.91176" lon="4.16488">
        <ele>1496</ele>
        <time>2021-04-28T15:03:32Z</time>
      </trkpt>
      <trkpt lat="44.91175" lon="4.16482">
        <ele>1496</ele>
        <time>2021-04-28T15:03:33Z</time>
      </trkpt>
      <trkpt lat="44.91173" lon="4.16477">
        <ele>1495</ele>
        <time>2021-04-28T15:03:34Z</time>
      </trkpt>
      <trkpt lat="44.91172" lon="4.16473">
        <ele>1495</ele>
        <time>2021-04-28T15:03:35Z</time>
      </trkpt>
      <trkpt lat="44.9117" lon="4.16468">
        <ele>1494</ele>
        <time>2021-04-28T15:03:36Z</time>
      </trkpt>
      <trkpt lat="44.91167" lon="4.16464">
        <ele>1494</ele>
        <time>2021-04-28T15:03:37Z</time>
      </trkpt>
      <trkpt lat="44.91164" lon="4.16458">
        <ele>1493</ele>
        <time>2021-04-28T15:03:38Z</time>
      </trkpt>
      <trkpt lat="44.91163" lon="4.16453">
        <ele>1492</ele>
        <time>2021-04-28T15:03:39Z</time>
      </trkpt>
      <trkpt lat="44.91161" lon="4.16449">
        <ele>1492</ele>
        <time>2021-04-28T15:03:40Z</time>
      </trkpt>
      <trkpt lat="44.9116" lon="4.16446">
        <ele>1491</ele>
        <time>2021-04-28T15:03:41Z</time>
      </trkpt>
      <trkpt lat="44.9116" lon="4.16444">
        <ele>1489</ele>
        <time>2021-04-28T15:03:45Z</time>
      </trkpt>
      <trkpt lat="44.91156" lon="4.16424">
        <ele>1479</ele>
        <time>2021-04-28T15:05:46Z</time>
      </trkpt>
      <trkpt lat="44.91156" lon="4.16421">
        <ele>1479</ele>
        <time>2021-04-28T15:05:47Z</time>
      </trkpt>
      <trkpt lat="44.91156" lon="4.16417">
        <ele>1478</ele>
        <time>2021-04-28T15:05:49Z</time>
      </trkpt>
      <trkpt lat="44.91154" lon="4.16407">
        <ele>1475</ele>
        <time>2021-04-28T15:06:50Z</time>
      </trkpt>
      <trkpt lat="44.91152" lon="4.16403">
        <ele>1475</ele>
        <time>2021-04-28T15:06:51Z</time>
      </trkpt>
      <trkpt lat="44.91151" lon="4.164">
        <ele>1474</ele>
        <time>2021-04-28T15:06:52Z</time>
      </trkpt>
      <trkpt lat="44.91149" lon="4.16396">
        <ele>1474</ele>
        <time>2021-04-28T15:06:53Z</time>
      </trkpt>
      <trkpt lat="44.91147" lon="4.16392">
        <ele>1474</ele>
        <time>2021-04-28T15:06:54Z</time>
      </trkpt>
      <trkpt lat="44.91145" lon="4.16388">
        <ele>1474</ele>
        <time>2021-04-28T15:06:55Z</time>
      </trkpt>
      <trkpt lat="44.91143" lon="4.16384">
        <ele>1474</ele>
        <time>2021-04-28T15:06:56Z</time>
      </trkpt>
      <trkpt lat="44.91141" lon="4.1638">
        <ele>1474</ele>
        <time>2021-04-28T15:06:57Z</time>
      </trkpt>
      <trkpt lat="44.91138" lon="4.16376">
        <ele>1473</ele>
        <time>2021-04-28T15:06:58Z</time>
      </trkpt>
      <trkpt lat="44.91136" lon="4.16372">
        <ele>1473</ele>
        <time>2021-04-28T15:06:59Z</time>
      </trkpt>
      <trkpt lat="44.91133" lon="4.16367">
        <ele>1473</ele>
        <time>2021-04-28T15:07:00Z</time>
      </trkpt>
      <trkpt lat="44.91131" lon="4.16363">
        <ele>1473</ele>
        <time>2021-04-28T15:07:01Z</time>
      </trkpt>
      <trkpt lat="44.91127" lon="4.16358">
        <ele>1473</ele>
        <time>2021-04-28T15:07:02Z</time>
      </trkpt>
      <trkpt lat="44.91124" lon="4.16353">
        <ele>1473</ele>
        <time>2021-04-28T15:07:03Z</time>
      </trkpt>
      <trkpt lat="44.9112" lon="4.16349">
        <ele>1473</ele>
        <time>2021-04-28T15:07:04Z</time>
      </trkpt>
      <trkpt lat="44.91116" lon="4.16345">
        <ele>1472</ele>
        <time>2021-04-28T15:07:05Z</time>
      </trkpt>
      <trkpt lat="44.91112" lon="4.16341">
        <ele>1472</ele>
        <time>2021-04-28T15:07:06Z</time>
      </trkpt>
      <trkpt lat="44.91108" lon="4.16337">
        <ele>1472</ele>
        <time>2021-04-28T15:07:07Z</time>
      </trkpt>
      <trkpt lat="44.91104" lon="4.16332">
        <ele>1472</ele>
        <time>2021-04-28T15:07:08Z</time>
      </trkpt>
      <trkpt lat="44.911" lon="4.16328">
        <ele>1472</ele>
        <time>2021-04-28T15:07:09Z</time>
      </trkpt>
      <trkpt lat="44.91097" lon="4.16324">
        <ele>1471</ele>
        <time>2021-04-28T15:07:10Z</time>
      </trkpt>
      <trkpt lat="44.91094" lon="4.1632">
        <ele>1471</ele>
        <time>2021-04-28T15:07:11Z</time>
      </trkpt>
      <trkpt lat="44.91091" lon="4.16316">
        <ele>1471</ele>
        <time>2021-04-28T15:07:12Z</time>
      </trkpt>
      <trkpt lat="44.91088" lon="4.16312">
        <ele>1471</ele>
        <time>2021-04-28T15:07:13Z</time>
      </trkpt>
      <trkpt lat="44.91085" lon="4.16308">
        <ele>1471</ele>
        <time>2021-04-28T15:07:14Z</time>
      </trkpt>
      <trkpt lat="44.91082" lon="4.16304">
        <ele>1471</ele>
        <time>2021-04-28T15:07:15Z</time>
      </trkpt>
      <trkpt lat="44.91079" lon="4.163">
        <ele>1471</ele>
        <time>2021-04-28T15:07:16Z</time>
      </trkpt>
      <trkpt lat="44.91075" lon="4.16295">
        <ele>1470</ele>
        <time>2021-04-28T15:07:17Z</time>
      </trkpt>
      <trkpt lat="44.91072" lon="4.16291">
        <ele>1470</ele>
        <time>2021-04-28T15:07:18Z</time>
      </trkpt>
      <trkpt lat="44.91068" lon="4.16287">
        <ele>1470</ele>
        <time>2021-04-28T15:07:19Z</time>
      </trkpt>
      <trkpt lat="44.91063" lon="4.16283">
        <ele>1469</ele>
        <time>2021-04-28T15:07:20Z</time>
      </trkpt>
      <trkpt lat="44.91059" lon="4.16279">
        <ele>1469</ele>
        <time>2021-04-28T15:07:21Z</time>
      </trkpt>
      <trkpt lat="44.91055" lon="4.16275">
        <ele>1469</ele>
        <time>2021-04-28T15:07:22Z</time>
      </trkpt>
      <trkpt lat="44.91051" lon="4.16272">
        <ele>1469</ele>
        <time>2021-04-28T15:07:23Z</time>
      </trkpt>
      <trkpt lat="44.91047" lon="4.16268">
        <ele>1468</ele>
        <time>2021-04-28T15:07:24Z</time>
      </trkpt>
      <trkpt lat="44.91043" lon="4.16264">
        <ele>1468</ele>
        <time>2021-04-28T15:07:25Z</time>
      </trkpt>
      <trkpt lat="44.91038" lon="4.16261">
        <ele>1468</ele>
        <time>2021-04-28T15:07:26Z</time>
      </trkpt>
      <trkpt lat="44.91033" lon="4.16255">
        <ele>1466</ele>
        <time>2021-04-28T15:07:27Z</time>
      </trkpt>
      <trkpt lat="44.91028" lon="4.1625">
        <ele>1466</ele>
        <time>2021-04-28T15:07:28Z</time>
      </trkpt>
      <trkpt lat="44.91023" lon="4.16245">
        <ele>1465</ele>
        <time>2021-04-28T15:07:29Z</time>
      </trkpt>
      <trkpt lat="44.91018" lon="4.1624">
        <ele>1465</ele>
        <time>2021-04-28T15:07:30Z</time>
      </trkpt>
      <trkpt lat="44.91013" lon="4.16236">
        <ele>1465</ele>
        <time>2021-04-28T15:07:31Z</time>
      </trkpt>
      <trkpt lat="44.91007" lon="4.16232">
        <ele>1464</ele>
        <time>2021-04-28T15:07:32Z</time>
      </trkpt>
      <trkpt lat="44.91002" lon="4.16228">
        <ele>1464</ele>
        <time>2021-04-28T15:07:33Z</time>
      </trkpt>
      <trkpt lat="44.90997" lon="4.16227">
        <ele>1463</ele>
        <time>2021-04-28T15:07:34Z</time>
      </trkpt>
      <trkpt lat="44.90992" lon="4.16226">
        <ele>1463</ele>
        <time>2021-04-28T15:07:35Z</time>
      </trkpt>
      <trkpt lat="44.90987" lon="4.16224">
        <ele>1462</ele>
        <time>2021-04-28T15:07:36Z</time>
      </trkpt>
      <trkpt lat="44.90982" lon="4.16221">
        <ele>1462</ele>
        <time>2021-04-28T15:07:37Z</time>
      </trkpt>
      <trkpt lat="44.90978" lon="4.16218">
        <ele>1462</ele>
        <time>2021-04-28T15:07:38Z</time>
      </trkpt>
      <trkpt lat="44.90974" lon="4.16215">
        <ele>1461</ele>
        <time>2021-04-28T15:07:39Z</time>
      </trkpt>
      <trkpt lat="44.90971" lon="4.16211">
        <ele>1461</ele>
        <time>2021-04-28T15:07:40Z</time>
      </trkpt>
      <trkpt lat="44.90969" lon="4.16206">
        <ele>1461</ele>
        <time>2021-04-28T15:07:41Z</time>
      </trkpt>
      <trkpt lat="44.90967" lon="4.16201">
        <ele>1461</ele>
        <time>2021-04-28T15:07:42Z</time>
      </trkpt>
      <trkpt lat="44.90966" lon="4.16196">
        <ele>1461</ele>
        <time>2021-04-28T15:07:43Z</time>
      </trkpt>
      <trkpt lat="44.90965" lon="4.16192">
        <ele>1461</ele>
        <time>2021-04-28T15:07:44Z</time>
      </trkpt>
      <trkpt lat="44.90965" lon="4.16188">
        <ele>1460</ele>
        <time>2021-04-28T15:07:45Z</time>
      </trkpt>
      <trkpt lat="44.90963" lon="4.16182">
        <ele>1460</ele>
        <time>2021-04-28T15:07:46Z</time>
      </trkpt>
      <trkpt lat="44.90962" lon="4.16177">
        <ele>1460</ele>
        <time>2021-04-28T15:07:47Z</time>
      </trkpt>
      <trkpt lat="44.90956" lon="4.16165">
        <ele>1460</ele>
        <time>2021-04-28T15:07:49Z</time>
      </trkpt>
      <trkpt lat="44.90953" lon="4.16157">
        <ele>1459</ele>
        <time>2021-04-28T15:07:50Z</time>
      </trkpt>
      <trkpt lat="44.90951" lon="4.16149">
        <ele>1459</ele>
        <time>2021-04-28T15:07:51Z</time>
      </trkpt>
      <trkpt lat="44.90948" lon="4.1614">
        <ele>1459</ele>
        <time>2021-04-28T15:07:52Z</time>
      </trkpt>
      <trkpt lat="44.90945" lon="4.16132">
        <ele>1459</ele>
        <time>2021-04-28T15:07:53Z</time>
      </trkpt>
      <trkpt lat="44.90943" lon="4.16123">
        <ele>1459</ele>
        <time>2021-04-28T15:07:54Z</time>
      </trkpt>
      <trkpt lat="44.90941" lon="4.16114">
        <ele>1458</ele>
        <time>2021-04-28T15:07:55Z</time>
      </trkpt>
      <trkpt lat="44.90939" lon="4.16103">
        <ele>1457</ele>
        <time>2021-04-28T15:07:56Z</time>
      </trkpt>
      <trkpt lat="44.90936" lon="4.16092">
        <ele>1456</ele>
        <time>2021-04-28T15:07:57Z</time>
      </trkpt>
      <trkpt lat="44.90933" lon="4.16081">
        <ele>1455</ele>
        <time>2021-04-28T15:07:58Z</time>
      </trkpt>
      <trkpt lat="44.9093" lon="4.1607">
        <ele>1455</ele>
        <time>2021-04-28T15:07:59Z</time>
      </trkpt>
      <trkpt lat="44.90928" lon="4.1606">
        <ele>1453</ele>
        <time>2021-04-28T15:08:00Z</time>
      </trkpt>
      <trkpt lat="44.90926" lon="4.16047">
        <ele>1451</ele>
        <time>2021-04-28T15:08:01Z</time>
      </trkpt>
      <trkpt lat="44.90924" lon="4.16037">
        <ele>1450</ele>
        <time>2021-04-28T15:08:02Z</time>
      </trkpt>
      <trkpt lat="44.90922" lon="4.16028">
        <ele>1449</ele>
        <time>2021-04-28T15:08:03Z</time>
      </trkpt>
      <trkpt lat="44.90921" lon="4.16018">
        <ele>1449</ele>
        <time>2021-04-28T15:08:04Z</time>
      </trkpt>
      <trkpt lat="44.90919" lon="4.16009">
        <ele>1449</ele>
        <time>2021-04-28T15:08:05Z</time>
      </trkpt>
      <trkpt lat="44.90918" lon="4.16001">
        <ele>1448</ele>
        <time>2021-04-28T15:08:06Z</time>
      </trkpt>
      <trkpt lat="44.90917" lon="4.15991">
        <ele>1445</ele>
        <time>2021-04-28T15:08:07Z</time>
      </trkpt>
      <trkpt lat="44.90916" lon="4.15982">
        <ele>1444</ele>
        <time>2021-04-28T15:08:08Z</time>
      </trkpt>
      <trkpt lat="44.90914" lon="4.15974">
        <ele>1443</ele>
        <time>2021-04-28T15:08:09Z</time>
      </trkpt>
      <trkpt lat="44.90913" lon="4.15966">
        <ele>1443</ele>
        <time>2021-04-28T15:08:10Z</time>
      </trkpt>
      <trkpt lat="44.90912" lon="4.15958">
        <ele>1442</ele>
        <time>2021-04-28T15:08:11Z</time>
      </trkpt>
      <trkpt lat="44.90911" lon="4.15951">
        <ele>1442</ele>
        <time>2021-04-28T15:08:12Z</time>
      </trkpt>
      <trkpt lat="44.90909" lon="4.15944">
        <ele>1441</ele>
        <time>2021-04-28T15:08:13Z</time>
      </trkpt>
      <trkpt lat="44.90908" lon="4.15937">
        <ele>1441</ele>
        <time>2021-04-28T15:08:14Z</time>
      </trkpt>
      <trkpt lat="44.90906" lon="4.15931">
        <ele>1441</ele>
        <time>2021-04-28T15:08:15Z</time>
      </trkpt>
      <trkpt lat="44.90905" lon="4.15924">
        <ele>1441</ele>
        <time>2021-04-28T15:08:16Z</time>
      </trkpt>
      <trkpt lat="44.90903" lon="4.15916">
        <ele>1440</ele>
        <time>2021-04-28T15:08:17Z</time>
      </trkpt>
      <trkpt lat="44.90901" lon="4.15908">
        <ele>1440</ele>
        <time>2021-04-28T15:08:18Z</time>
      </trkpt>
      <trkpt lat="44.90896" lon="4.15897">
        <ele>1439</ele>
        <time>2021-04-28T15:08:19Z</time>
      </trkpt>
      <trkpt lat="44.90891" lon="4.15888">
        <ele>1439</ele>
        <time>2021-04-28T15:08:20Z</time>
      </trkpt>
      <trkpt lat="44.90885" lon="4.15879">
        <ele>1439</ele>
        <time>2021-04-28T15:08:21Z</time>
      </trkpt>
      <trkpt lat="44.90879" lon="4.1587">
        <ele>1439</ele>
        <time>2021-04-28T15:08:22Z</time>
      </trkpt>
      <trkpt lat="44.90873" lon="4.15862">
        <ele>1438</ele>
        <time>2021-04-28T15:08:23Z</time>
      </trkpt>
      <trkpt lat="44.90866" lon="4.15853">
        <ele>1437</ele>
        <time>2021-04-28T15:08:24Z</time>
      </trkpt>
      <trkpt lat="44.90859" lon="4.15845">
        <ele>1437</ele>
        <time>2021-04-28T15:08:25Z</time>
      </trkpt>
      <trkpt lat="44.90851" lon="4.15836">
        <ele>1437</ele>
        <time>2021-04-28T15:08:26Z</time>
      </trkpt>
      <trkpt lat="44.90844" lon="4.15827">
        <ele>1436</ele>
        <time>2021-04-28T15:08:27Z</time>
      </trkpt>
      <trkpt lat="44.90835" lon="4.15818">
        <ele>1435</ele>
        <time>2021-04-28T15:08:28Z</time>
      </trkpt>
      <trkpt lat="44.90827" lon="4.1581">
        <ele>1435</ele>
        <time>2021-04-28T15:08:29Z</time>
      </trkpt>
      <trkpt lat="44.90817" lon="4.15803">
        <ele>1434</ele>
        <time>2021-04-28T15:08:30Z</time>
      </trkpt>
      <trkpt lat="44.90808" lon="4.15797">
        <ele>1433</ele>
        <time>2021-04-28T15:08:31Z</time>
      </trkpt>
      <trkpt lat="44.90798" lon="4.1579">
        <ele>1433</ele>
        <time>2021-04-28T15:08:32Z</time>
      </trkpt>
      <trkpt lat="44.90788" lon="4.15783">
        <ele>1432</ele>
        <time>2021-04-28T15:08:33Z</time>
      </trkpt>
      <trkpt lat="44.90778" lon="4.15775">
        <ele>1432</ele>
        <time>2021-04-28T15:08:34Z</time>
      </trkpt>
      <trkpt lat="44.90768" lon="4.15767">
        <ele>1432</ele>
        <time>2021-04-28T15:08:35Z</time>
      </trkpt>
      <trkpt lat="44.9076" lon="4.15759">
        <ele>1431</ele>
        <time>2021-04-28T15:08:36Z</time>
      </trkpt>
      <trkpt lat="44.90753" lon="4.15753">
        <ele>1431</ele>
        <time>2021-04-28T15:08:37Z</time>
      </trkpt>
      <trkpt lat="44.90747" lon="4.15745">
        <ele>1424</ele>
        <time>2021-04-28T15:08:38Z</time>
      </trkpt>
      <trkpt lat="44.90742" lon="4.1574">
        <ele>1419</ele>
        <time>2021-04-28T15:08:39Z</time>
      </trkpt>
      <trkpt lat="44.90736" lon="4.15736">
        <ele>1417</ele>
        <time>2021-04-28T15:08:40Z</time>
      </trkpt>
      <trkpt lat="44.90729" lon="4.15731">
        <ele>1414</ele>
        <time>2021-04-28T15:08:41Z</time>
      </trkpt>
      <trkpt lat="44.90722" lon="4.15728">
        <ele>1413</ele>
        <time>2021-04-28T15:08:42Z</time>
      </trkpt>
      <trkpt lat="44.90715" lon="4.15723">
        <ele>1412</ele>
        <time>2021-04-28T15:08:43Z</time>
      </trkpt>
      <trkpt lat="44.90707" lon="4.15718">
        <ele>1410</ele>
        <time>2021-04-28T15:08:44Z</time>
      </trkpt>
      <trkpt lat="44.90699" lon="4.15714">
        <ele>1409</ele>
        <time>2021-04-28T15:08:45Z</time>
      </trkpt>
      <trkpt lat="44.9069" lon="4.1571">
        <ele>1408</ele>
        <time>2021-04-28T15:08:46Z</time>
      </trkpt>
      <trkpt lat="44.9068" lon="4.15707">
        <ele>1408</ele>
        <time>2021-04-28T15:08:47Z</time>
      </trkpt>
      <trkpt lat="44.90669" lon="4.15705">
        <ele>1404</ele>
        <time>2021-04-28T15:08:48Z</time>
      </trkpt>
      <trkpt lat="44.90658" lon="4.15702">
        <ele>1402</ele>
        <time>2021-04-28T15:08:49Z</time>
      </trkpt>
      <trkpt lat="44.90647" lon="4.15699">
        <ele>1400</ele>
        <time>2021-04-28T15:08:50Z</time>
      </trkpt>
      <trkpt lat="44.90636" lon="4.15696">
        <ele>1400</ele>
        <time>2021-04-28T15:08:51Z</time>
      </trkpt>
      <trkpt lat="44.90625" lon="4.15695">
        <ele>1398</ele>
        <time>2021-04-28T15:08:52Z</time>
      </trkpt>
      <trkpt lat="44.90614" lon="4.15697">
        <ele>1396</ele>
        <time>2021-04-28T15:08:53Z</time>
      </trkpt>
      <trkpt lat="44.90604" lon="4.157">
        <ele>1395</ele>
        <time>2021-04-28T15:08:54Z</time>
      </trkpt>
      <trkpt lat="44.90594" lon="4.15702">
        <ele>1392</ele>
        <time>2021-04-28T15:08:55Z</time>
      </trkpt>
      <trkpt lat="44.90584" lon="4.15703">
        <ele>1391</ele>
        <time>2021-04-28T15:08:56Z</time>
      </trkpt>
      <trkpt lat="44.90575" lon="4.15704">
        <ele>1390</ele>
        <time>2021-04-28T15:08:57Z</time>
      </trkpt>
      <trkpt lat="44.90569" lon="4.15705">
        <ele>1389</ele>
        <time>2021-04-28T15:08:58Z</time>
      </trkpt>
      <trkpt lat="44.90563" lon="4.15706">
        <ele>1389</ele>
        <time>2021-04-28T15:08:59Z</time>
      </trkpt>
      <trkpt lat="44.90559" lon="4.15708">
        <ele>1388</ele>
        <time>2021-04-28T15:09:00Z</time>
      </trkpt>
      <trkpt lat="44.90555" lon="4.1571">
        <ele>1388</ele>
        <time>2021-04-28T15:09:01Z</time>
      </trkpt>
      <trkpt lat="44.90551" lon="4.15711">
        <ele>1387</ele>
        <time>2021-04-28T15:09:02Z</time>
      </trkpt>
      <trkpt lat="44.90547" lon="4.15711">
        <ele>1387</ele>
        <time>2021-04-28T15:09:03Z</time>
      </trkpt>
      <trkpt lat="44.90544" lon="4.1571">
        <ele>1386</ele>
        <time>2021-04-28T15:09:04Z</time>
      </trkpt>
      <trkpt lat="44.9054" lon="4.1571">
        <ele>1386</ele>
        <time>2021-04-28T15:09:05Z</time>
      </trkpt>
      <trkpt lat="44.90536" lon="4.15709">
        <ele>1386</ele>
        <time>2021-04-28T15:09:06Z</time>
      </trkpt>
      <trkpt lat="44.90531" lon="4.15709">
        <ele>1385</ele>
        <time>2021-04-28T15:09:07Z</time>
      </trkpt>
      <trkpt lat="44.90526" lon="4.15709">
        <ele>1385</ele>
        <time>2021-04-28T15:09:08Z</time>
      </trkpt>
      <trkpt lat="44.90519" lon="4.15709">
        <ele>1385</ele>
        <time>2021-04-28T15:09:09Z</time>
      </trkpt>
      <trkpt lat="44.90513" lon="4.15707">
        <ele>1385</ele>
        <time>2021-04-28T15:09:10Z</time>
      </trkpt>
      <trkpt lat="44.90506" lon="4.15704">
        <ele>1384</ele>
        <time>2021-04-28T15:09:11Z</time>
      </trkpt>
      <trkpt lat="44.90499" lon="4.15702">
        <ele>1383</ele>
        <time>2021-04-28T15:09:12Z</time>
      </trkpt>
      <trkpt lat="44.90492" lon="4.15701">
        <ele>1383</ele>
        <time>2021-04-28T15:09:13Z</time>
      </trkpt>
      <trkpt lat="44.90485" lon="4.15699">
        <ele>1382</ele>
        <time>2021-04-28T15:09:14Z</time>
      </trkpt>
      <trkpt lat="44.90478" lon="4.15699">
        <ele>1381</ele>
        <time>2021-04-28T15:09:15Z</time>
      </trkpt>
      <trkpt lat="44.90471" lon="4.15699">
        <ele>1380</ele>
        <time>2021-04-28T15:09:16Z</time>
      </trkpt>
      <trkpt lat="44.90465" lon="4.15699">
        <ele>1380</ele>
        <time>2021-04-28T15:09:17Z</time>
      </trkpt>
      <trkpt lat="44.90458" lon="4.15699">
        <ele>1380</ele>
        <time>2021-04-28T15:09:18Z</time>
      </trkpt>
      <trkpt lat="44.90452" lon="4.157">
        <ele>1379</ele>
        <time>2021-04-28T15:09:19Z</time>
      </trkpt>
      <trkpt lat="44.90446" lon="4.15702">
        <ele>1379</ele>
        <time>2021-04-28T15:09:20Z</time>
      </trkpt>
      <trkpt lat="44.90441" lon="4.15703">
        <ele>1378</ele>
        <time>2021-04-28T15:09:21Z</time>
      </trkpt>
      <trkpt lat="44.90437" lon="4.15704">
        <ele>1376</ele>
        <time>2021-04-28T15:09:22Z</time>
      </trkpt>
      <trkpt lat="44.90434" lon="4.15706">
        <ele>1375</ele>
        <time>2021-04-28T15:09:23Z</time>
      </trkpt>
      <trkpt lat="44.9043" lon="4.15707">
        <ele>1374</ele>
        <time>2021-04-28T15:09:24Z</time>
      </trkpt>
      <trkpt lat="44.90426" lon="4.15708">
        <ele>1374</ele>
        <time>2021-04-28T15:09:25Z</time>
      </trkpt>
      <trkpt lat="44.90418" lon="4.15706">
        <ele>1373</ele>
        <time>2021-04-28T15:09:27Z</time>
      </trkpt>
      <trkpt lat="44.90414" lon="4.15704">
        <ele>1373</ele>
        <time>2021-04-28T15:09:28Z</time>
      </trkpt>
      <trkpt lat="44.90409" lon="4.157">
        <ele>1372</ele>
        <time>2021-04-28T15:09:29Z</time>
      </trkpt>
      <trkpt lat="44.90404" lon="4.15697">
        <ele>1372</ele>
        <time>2021-04-28T15:09:30Z</time>
      </trkpt>
      <trkpt lat="44.90398" lon="4.15693">
        <ele>1372</ele>
        <time>2021-04-28T15:09:31Z</time>
      </trkpt>
      <trkpt lat="44.90392" lon="4.15689">
        <ele>1372</ele>
        <time>2021-04-28T15:09:32Z</time>
      </trkpt>
      <trkpt lat="44.90387" lon="4.15684">
        <ele>1371</ele>
        <time>2021-04-28T15:09:33Z</time>
      </trkpt>
      <trkpt lat="44.90383" lon="4.1568">
        <ele>1370</ele>
        <time>2021-04-28T15:09:34Z</time>
      </trkpt>
      <trkpt lat="44.90379" lon="4.15677">
        <ele>1370</ele>
        <time>2021-04-28T15:09:35Z</time>
      </trkpt>
      <trkpt lat="44.90377" lon="4.15676">
        <ele>1369</ele>
        <time>2021-04-28T15:09:36Z</time>
      </trkpt>
      <trkpt lat="44.90376" lon="4.15674">
        <ele>1369</ele>
        <time>2021-04-28T15:09:37Z</time>
      </trkpt>
      <trkpt lat="44.90373" lon="4.15672">
        <ele>1369</ele>
        <time>2021-04-28T15:09:39Z</time>
      </trkpt>
      <trkpt lat="44.90372" lon="4.15668">
        <ele>1366</ele>
        <time>2021-04-28T15:09:41Z</time>
      </trkpt>
      <trkpt lat="44.90373" lon="4.15662">
        <ele>1365</ele>
        <time>2021-04-28T15:09:43Z</time>
      </trkpt>
      <trkpt lat="44.90373" lon="4.15658">
        <ele>1364</ele>
        <time>2021-04-28T15:09:44Z</time>
      </trkpt>
      <trkpt lat="44.90374" lon="4.15654">
        <ele>1364</ele>
        <time>2021-04-28T15:09:45Z</time>
      </trkpt>
      <trkpt lat="44.90374" lon="4.15649">
        <ele>1363</ele>
        <time>2021-04-28T15:09:46Z</time>
      </trkpt>
      <trkpt lat="44.90374" lon="4.15643">
        <ele>1362</ele>
        <time>2021-04-28T15:09:47Z</time>
      </trkpt>
      <trkpt lat="44.90374" lon="4.15637">
        <ele>1362</ele>
        <time>2021-04-28T15:09:48Z</time>
      </trkpt>
      <trkpt lat="44.90374" lon="4.1563">
        <ele>1361</ele>
        <time>2021-04-28T15:09:49Z</time>
      </trkpt>
      <trkpt lat="44.90374" lon="4.15624">
        <ele>1361</ele>
        <time>2021-04-28T15:09:50Z</time>
      </trkpt>
      <trkpt lat="44.90375" lon="4.15617">
        <ele>1361</ele>
        <time>2021-04-28T15:09:51Z</time>
      </trkpt>
      <trkpt lat="44.90376" lon="4.15609">
        <ele>1360</ele>
        <time>2021-04-28T15:09:52Z</time>
      </trkpt>
      <trkpt lat="44.90377" lon="4.15602">
        <ele>1360</ele>
        <time>2021-04-28T15:09:53Z</time>
      </trkpt>
      <trkpt lat="44.90376" lon="4.15597">
        <ele>1360</ele>
        <time>2021-04-28T15:09:54Z</time>
      </trkpt>
      <trkpt lat="44.90373" lon="4.15592">
        <ele>1359</ele>
        <time>2021-04-28T15:09:55Z</time>
      </trkpt>
      <trkpt lat="44.90369" lon="4.15587">
        <ele>1359</ele>
        <time>2021-04-28T15:09:56Z</time>
      </trkpt>
      <trkpt lat="44.90364" lon="4.15583">
        <ele>1359</ele>
        <time>2021-04-28T15:09:57Z</time>
      </trkpt>
      <trkpt lat="44.90359" lon="4.15581">
        <ele>1359</ele>
        <time>2021-04-28T15:09:58Z</time>
      </trkpt>
      <trkpt lat="44.90353" lon="4.1558">
        <ele>1359</ele>
        <time>2021-04-28T15:09:59Z</time>
      </trkpt>
      <trkpt lat="44.90347" lon="4.15579">
        <ele>1358</ele>
        <time>2021-04-28T15:10:00Z</time>
      </trkpt>
      <trkpt lat="44.90341" lon="4.15578">
        <ele>1358</ele>
        <time>2021-04-28T15:10:01Z</time>
      </trkpt>
      <trkpt lat="44.90335" lon="4.15577">
        <ele>1358</ele>
        <time>2021-04-28T15:10:02Z</time>
      </trkpt>
      <trkpt lat="44.90329" lon="4.15576">
        <ele>1358</ele>
        <time>2021-04-28T15:10:03Z</time>
      </trkpt>
      <trkpt lat="44.90324" lon="4.15576">
        <ele>1358</ele>
        <time>2021-04-28T15:10:04Z</time>
      </trkpt>
      <trkpt lat="44.90318" lon="4.15575">
        <ele>1357</ele>
        <time>2021-04-28T15:10:05Z</time>
      </trkpt>
      <trkpt lat="44.90312" lon="4.15575">
        <ele>1357</ele>
        <time>2021-04-28T15:10:06Z</time>
      </trkpt>
      <trkpt lat="44.90307" lon="4.15575">
        <ele>1356</ele>
        <time>2021-04-28T15:10:07Z</time>
      </trkpt>
      <trkpt lat="44.90302" lon="4.15576">
        <ele>1356</ele>
        <time>2021-04-28T15:10:08Z</time>
      </trkpt>
      <trkpt lat="44.903" lon="4.1558">
        <ele>1355</ele>
        <time>2021-04-28T15:10:09Z</time>
      </trkpt>
      <trkpt lat="44.903" lon="4.15579">
        <ele>1351</ele>
        <time>2021-04-28T15:10:20Z</time>
      </trkpt>
      <trkpt lat="44.90298" lon="4.15566">
        <ele>1338.3</ele>
        <time>2021-04-29T11:14:45Z</time>
      </trkpt>
      <trkpt lat="44.90298" lon="4.15566">
        <ele>1338.3</ele>
        <time>2021-04-29T11:14:45Z</time>
      </trkpt>
      <trkpt lat="44.90297" lon="4.1556">
        <ele>1341</ele>
        <time>2021-04-29T11:14:54Z</time>
      </trkpt>
      <trkpt lat="44.90296" lon="4.15556">
        <ele>1341</ele>
        <time>2021-04-29T11:14:55Z</time>
      </trkpt>
      <trkpt lat="44.90296" lon="4.15553">
        <ele>1342</ele>
        <time>2021-04-29T11:14:57Z</time>
      </trkpt>
      <trkpt lat="44.90296" lon="4.1555">
        <ele>1342</ele>
        <time>2021-04-29T11:14:58Z</time>
      </trkpt>
      <trkpt lat="44.90295" lon="4.15547">
        <ele>1342</ele>
        <time>2021-04-29T11:14:59Z</time>
      </trkpt>
      <trkpt lat="44.90294" lon="4.15544">
        <ele>1342</ele>
        <time>2021-04-29T11:15:00Z</time>
      </trkpt>
      <trkpt lat="44.90293" lon="4.15542">
        <ele>1342</ele>
        <time>2021-04-29T11:15:01Z</time>
      </trkpt>
      <trkpt lat="44.90292" lon="4.1554">
        <ele>1342</ele>
        <time>2021-04-29T11:15:02Z</time>
      </trkpt>
      <trkpt lat="44.9029" lon="4.15538">
        <ele>1341</ele>
        <time>2021-04-29T11:15:03Z</time>
      </trkpt>
      <trkpt lat="44.90289" lon="4.15536">
        <ele>1341</ele>
        <time>2021-04-29T11:15:04Z</time>
      </trkpt>
      <trkpt lat="44.90287" lon="4.15534">
        <ele>1341</ele>
        <time>2021-04-29T11:15:05Z</time>
      </trkpt>
      <trkpt lat="44.90285" lon="4.15532">
        <ele>1341</ele>
        <time>2021-04-29T11:15:06Z</time>
      </trkpt>
      <trkpt lat="44.90283" lon="4.15529">
        <ele>1340</ele>
        <time>2021-04-29T11:15:07Z</time>
      </trkpt>
      <trkpt lat="44.90282" lon="4.15526">
        <ele>1340</ele>
        <time>2021-04-29T11:15:08Z</time>
      </trkpt>
      <trkpt lat="44.9028" lon="4.15523">
        <ele>1341</ele>
        <time>2021-04-29T11:15:09Z</time>
      </trkpt>
      <trkpt lat="44.90278" lon="4.1552">
        <ele>1340</ele>
        <time>2021-04-29T11:15:10Z</time>
      </trkpt>
      <trkpt lat="44.90275" lon="4.15518">
        <ele>1340</ele>
        <time>2021-04-29T11:15:11Z</time>
      </trkpt>
      <trkpt lat="44.90272" lon="4.15516">
        <ele>1340</ele>
        <time>2021-04-29T11:15:12Z</time>
      </trkpt>
      <trkpt lat="44.90269" lon="4.15515">
        <ele>1340</ele>
        <time>2021-04-29T11:15:13Z</time>
      </trkpt>
      <trkpt lat="44.90263" lon="4.15519">
        <ele>1339</ele>
        <time>2021-04-29T11:15:14Z</time>
      </trkpt>
      <trkpt lat="44.9026" lon="4.15523">
        <ele>1339</ele>
        <time>2021-04-29T11:15:15Z</time>
      </trkpt>
      <trkpt lat="44.90255" lon="4.15531">
        <ele>1339</ele>
        <time>2021-04-29T11:15:17Z</time>
      </trkpt>
      <trkpt lat="44.90253" lon="4.15535">
        <ele>1338</ele>
        <time>2021-04-29T11:15:18Z</time>
      </trkpt>
      <trkpt lat="44.9025" lon="4.1554">
        <ele>1338</ele>
        <time>2021-04-29T11:15:19Z</time>
      </trkpt>
      <trkpt lat="44.90248" lon="4.15545">
        <ele>1338</ele>
        <time>2021-04-29T11:15:20Z</time>
      </trkpt>
      <trkpt lat="44.90245" lon="4.1555">
        <ele>1337</ele>
        <time>2021-04-29T11:15:21Z</time>
      </trkpt>
      <trkpt lat="44.90238" lon="4.15559">
        <ele>1337</ele>
        <time>2021-04-29T11:15:23Z</time>
      </trkpt>
      <trkpt lat="44.90235" lon="4.15564">
        <ele>1337</ele>
        <time>2021-04-29T11:15:24Z</time>
      </trkpt>
      <trkpt lat="44.90232" lon="4.15569">
        <ele>1336</ele>
        <time>2021-04-29T11:15:25Z</time>
      </trkpt>
      <trkpt lat="44.90229" lon="4.15573">
        <ele>1336</ele>
        <time>2021-04-29T11:15:26Z</time>
      </trkpt>
      <trkpt lat="44.90225" lon="4.15577">
        <ele>1336</ele>
        <time>2021-04-29T11:15:27Z</time>
      </trkpt>
      <trkpt lat="44.90221" lon="4.1558">
        <ele>1336</ele>
        <time>2021-04-29T11:15:28Z</time>
      </trkpt>
      <trkpt lat="44.90218" lon="4.15584">
        <ele>1336</ele>
        <time>2021-04-29T11:15:29Z</time>
      </trkpt>
      <trkpt lat="44.90215" lon="4.15588">
        <ele>1336</ele>
        <time>2021-04-29T11:15:30Z</time>
      </trkpt>
      <trkpt lat="44.90211" lon="4.15592">
        <ele>1336</ele>
        <time>2021-04-29T11:15:31Z</time>
      </trkpt>
      <trkpt lat="44.90208" lon="4.15596">
        <ele>1336</ele>
        <time>2021-04-29T11:15:32Z</time>
      </trkpt>
      <trkpt lat="44.90205" lon="4.15599">
        <ele>1336</ele>
        <time>2021-04-29T11:15:33Z</time>
      </trkpt>
      <trkpt lat="44.90201" lon="4.15602">
        <ele>1336</ele>
        <time>2021-04-29T11:15:34Z</time>
      </trkpt>
      <trkpt lat="44.90197" lon="4.15605">
        <ele>1336</ele>
        <time>2021-04-29T11:15:35Z</time>
      </trkpt>
      <trkpt lat="44.90188" lon="4.15609">
        <ele>1335</ele>
        <time>2021-04-29T11:15:37Z</time>
      </trkpt>
      <trkpt lat="44.90182" lon="4.15609">
        <ele>1334</ele>
        <time>2021-04-29T11:15:38Z</time>
      </trkpt>
      <trkpt lat="44.90176" lon="4.15608">
        <ele>1334</ele>
        <time>2021-04-29T11:15:39Z</time>
      </trkpt>
      <trkpt lat="44.90169" lon="4.15606">
        <ele>1333</ele>
        <time>2021-04-29T11:15:40Z</time>
      </trkpt>
      <trkpt lat="44.90162" lon="4.15602">
        <ele>1333</ele>
        <time>2021-04-29T11:15:41Z</time>
      </trkpt>
      <trkpt lat="44.90155" lon="4.15597">
        <ele>1332</ele>
        <time>2021-04-29T11:15:42Z</time>
      </trkpt>
      <trkpt lat="44.90149" lon="4.15589">
        <ele>1331</ele>
        <time>2021-04-29T11:15:43Z</time>
      </trkpt>
      <trkpt lat="44.90143" lon="4.1558">
        <ele>1331</ele>
        <time>2021-04-29T11:15:44Z</time>
      </trkpt>
      <trkpt lat="44.90137" lon="4.15571">
        <ele>1329</ele>
        <time>2021-04-29T11:15:46Z</time>
      </trkpt>
      <trkpt lat="44.90131" lon="4.1556">
        <ele>1329</ele>
        <time>2021-04-29T11:15:47Z</time>
      </trkpt>
      <trkpt lat="44.90124" lon="4.1555">
        <ele>1328</ele>
        <time>2021-04-29T11:15:48Z</time>
      </trkpt>
      <trkpt lat="44.90118" lon="4.15539">
        <ele>1327</ele>
        <time>2021-04-29T11:15:49Z</time>
      </trkpt>
      <trkpt lat="44.90105" lon="4.15517">
        <ele>1327</ele>
        <time>2021-04-29T11:15:50Z</time>
      </trkpt>
      <trkpt lat="44.90099" lon="4.15506">
        <ele>1326</ele>
        <time>2021-04-29T11:15:51Z</time>
      </trkpt>
      <trkpt lat="44.90092" lon="4.15496">
        <ele>1325</ele>
        <time>2021-04-29T11:15:52Z</time>
      </trkpt>
      <trkpt lat="44.90085" lon="4.15485">
        <ele>1324</ele>
        <time>2021-04-29T11:15:53Z</time>
      </trkpt>
      <trkpt lat="44.90078" lon="4.15475">
        <ele>1324</ele>
        <time>2021-04-29T11:15:54Z</time>
      </trkpt>
      <trkpt lat="44.90071" lon="4.15463">
        <ele>1323</ele>
        <time>2021-04-29T11:15:56Z</time>
      </trkpt>
      <trkpt lat="44.90065" lon="4.15452">
        <ele>1322</ele>
        <time>2021-04-29T11:15:57Z</time>
      </trkpt>
      <trkpt lat="44.90058" lon="4.15441">
        <ele>1322</ele>
        <time>2021-04-29T11:15:58Z</time>
      </trkpt>
      <trkpt lat="44.90043" lon="4.15418">
        <ele>1321</ele>
        <time>2021-04-29T11:15:59Z</time>
      </trkpt>
      <trkpt lat="44.90036" lon="4.15407">
        <ele>1320</ele>
        <time>2021-04-29T11:16:01Z</time>
      </trkpt>
      <trkpt lat="44.90029" lon="4.15396">
        <ele>1319</ele>
        <time>2021-04-29T11:16:02Z</time>
      </trkpt>
      <trkpt lat="44.90022" lon="4.15384">
        <ele>1319</ele>
        <time>2021-04-29T11:16:03Z</time>
      </trkpt>
      <trkpt lat="44.90016" lon="4.15372">
        <ele>1318</ele>
        <time>2021-04-29T11:16:04Z</time>
      </trkpt>
      <trkpt lat="44.90006" lon="4.15347">
        <ele>1318</ele>
        <time>2021-04-29T11:16:05Z</time>
      </trkpt>
      <trkpt lat="44.90003" lon="4.15333">
        <ele>1317</ele>
        <time>2021-04-29T11:16:06Z</time>
      </trkpt>
      <trkpt lat="44.90002" lon="4.15319">
        <ele>1316</ele>
        <time>2021-04-29T11:16:07Z</time>
      </trkpt>
      <trkpt lat="44.90002" lon="4.15305">
        <ele>1316</ele>
        <time>2021-04-29T11:16:08Z</time>
      </trkpt>
      <trkpt lat="44.90003" lon="4.15291">
        <ele>1315</ele>
        <time>2021-04-29T11:16:09Z</time>
      </trkpt>
      <trkpt lat="44.90004" lon="4.15278">
        <ele>1315</ele>
        <time>2021-04-29T11:16:11Z</time>
      </trkpt>
      <trkpt lat="44.90004" lon="4.15265">
        <ele>1314</ele>
        <time>2021-04-29T11:16:12Z</time>
      </trkpt>
      <trkpt lat="44.90003" lon="4.15252">
        <ele>1314</ele>
        <time>2021-04-29T11:16:13Z</time>
      </trkpt>
      <trkpt lat="44.90001" lon="4.1524">
        <ele>1314</ele>
        <time>2021-04-29T11:16:14Z</time>
      </trkpt>
      <trkpt lat="44.89999" lon="4.15217">
        <ele>1314</ele>
        <time>2021-04-29T11:16:15Z</time>
      </trkpt>
      <trkpt lat="44.89998" lon="4.15206">
        <ele>1314</ele>
        <time>2021-04-29T11:16:16Z</time>
      </trkpt>
      <trkpt lat="44.89997" lon="4.15196">
        <ele>1314</ele>
        <time>2021-04-29T11:16:17Z</time>
      </trkpt>
      <trkpt lat="44.89995" lon="4.15187">
        <ele>1314</ele>
        <time>2021-04-29T11:16:18Z</time>
      </trkpt>
      <trkpt lat="44.89994" lon="4.15177">
        <ele>1314</ele>
        <time>2021-04-29T11:16:19Z</time>
      </trkpt>
      <trkpt lat="44.89992" lon="4.15169">
        <ele>1314</ele>
        <time>2021-04-29T11:16:20Z</time>
      </trkpt>
      <trkpt lat="44.8999" lon="4.1516">
        <ele>1315</ele>
        <time>2021-04-29T11:16:21Z</time>
      </trkpt>
      <trkpt lat="44.89989" lon="4.15142">
        <ele>1315</ele>
        <time>2021-04-29T11:16:23Z</time>
      </trkpt>
      <trkpt lat="44.89989" lon="4.15134">
        <ele>1315</ele>
        <time>2021-04-29T11:16:24Z</time>
      </trkpt>
      <trkpt lat="44.89989" lon="4.15125">
        <ele>1316</ele>
        <time>2021-04-29T11:16:25Z</time>
      </trkpt>
      <trkpt lat="44.89989" lon="4.15108">
        <ele>1316</ele>
        <time>2021-04-29T11:16:27Z</time>
      </trkpt>
      <trkpt lat="44.89988" lon="4.151">
        <ele>1316</ele>
        <time>2021-04-29T11:16:28Z</time>
      </trkpt>
      <trkpt lat="44.89987" lon="4.15092">
        <ele>1317</ele>
        <time>2021-04-29T11:16:29Z</time>
      </trkpt>
      <trkpt lat="44.89981" lon="4.15079">
        <ele>1317</ele>
        <time>2021-04-29T11:16:31Z</time>
      </trkpt>
      <trkpt lat="44.89977" lon="4.15074">
        <ele>1317</ele>
        <time>2021-04-29T11:16:32Z</time>
      </trkpt>
      <trkpt lat="44.89973" lon="4.15069">
        <ele>1318</ele>
        <time>2021-04-29T11:16:33Z</time>
      </trkpt>
      <trkpt lat="44.89969" lon="4.15065">
        <ele>1318</ele>
        <time>2021-04-29T11:16:34Z</time>
      </trkpt>
      <trkpt lat="44.89966" lon="4.1506">
        <ele>1318</ele>
        <time>2021-04-29T11:16:35Z</time>
      </trkpt>
      <trkpt lat="44.89962" lon="4.15055">
        <ele>1319</ele>
        <time>2021-04-29T11:16:36Z</time>
      </trkpt>
      <trkpt lat="44.89959" lon="4.15049">
        <ele>1319</ele>
        <time>2021-04-29T11:16:37Z</time>
      </trkpt>
      <trkpt lat="44.89954" lon="4.15037">
        <ele>1319</ele>
        <time>2021-04-29T11:16:39Z</time>
      </trkpt>
      <trkpt lat="44.89955" lon="4.15029">
        <ele>1320</ele>
        <time>2021-04-29T11:16:41Z</time>
      </trkpt>
      <trkpt lat="44.89956" lon="4.15023">
        <ele>1321</ele>
        <time>2021-04-29T11:16:42Z</time>
      </trkpt>
      <trkpt lat="44.89959" lon="4.15016">
        <ele>1321</ele>
        <time>2021-04-29T11:16:43Z</time>
      </trkpt>
      <trkpt lat="44.89962" lon="4.1501">
        <ele>1321</ele>
        <time>2021-04-29T11:16:44Z</time>
      </trkpt>
      <trkpt lat="44.89964" lon="4.15003">
        <ele>1322</ele>
        <time>2021-04-29T11:16:45Z</time>
      </trkpt>
      <trkpt lat="44.89967" lon="4.14997">
        <ele>1322</ele>
        <time>2021-04-29T11:16:46Z</time>
      </trkpt>
      <trkpt lat="44.89969" lon="4.14991">
        <ele>1323</ele>
        <time>2021-04-29T11:16:47Z</time>
      </trkpt>
      <trkpt lat="44.89971" lon="4.14985">
        <ele>1323</ele>
        <time>2021-04-29T11:16:48Z</time>
      </trkpt>
      <trkpt lat="44.89974" lon="4.14972">
        <ele>1323</ele>
        <time>2021-04-29T11:16:49Z</time>
      </trkpt>
      <trkpt lat="44.89975" lon="4.14966">
        <ele>1324</ele>
        <time>2021-04-29T11:16:51Z</time>
      </trkpt>
      <trkpt lat="44.89976" lon="4.14959">
        <ele>1325</ele>
        <time>2021-04-29T11:16:52Z</time>
      </trkpt>
      <trkpt lat="44.89976" lon="4.14953">
        <ele>1325</ele>
        <time>2021-04-29T11:16:53Z</time>
      </trkpt>
      <trkpt lat="44.89976" lon="4.14947">
        <ele>1325</ele>
        <time>2021-04-29T11:16:54Z</time>
      </trkpt>
      <trkpt lat="44.89977" lon="4.1494">
        <ele>1326</ele>
        <time>2021-04-29T11:16:55Z</time>
      </trkpt>
      <trkpt lat="44.89978" lon="4.14934">
        <ele>1326</ele>
        <time>2021-04-29T11:16:56Z</time>
      </trkpt>
      <trkpt lat="44.89979" lon="4.14928">
        <ele>1326</ele>
        <time>2021-04-29T11:16:57Z</time>
      </trkpt>
      <trkpt lat="44.8998" lon="4.14921">
        <ele>1326</ele>
        <time>2021-04-29T11:16:58Z</time>
      </trkpt>
      <trkpt lat="44.89982" lon="4.14915">
        <ele>1326</ele>
        <time>2021-04-29T11:16:59Z</time>
      </trkpt>
      <trkpt lat="44.89984" lon="4.14909">
        <ele>1327</ele>
        <time>2021-04-29T11:17:00Z</time>
      </trkpt>
      <trkpt lat="44.89987" lon="4.14897">
        <ele>1327</ele>
        <time>2021-04-29T11:17:01Z</time>
      </trkpt>
      <trkpt lat="44.89989" lon="4.14891">
        <ele>1327</ele>
        <time>2021-04-29T11:17:02Z</time>
      </trkpt>
      <trkpt lat="44.89991" lon="4.14886">
        <ele>1327</ele>
        <time>2021-04-29T11:17:03Z</time>
      </trkpt>
      <trkpt lat="44.89993" lon="4.1488">
        <ele>1328</ele>
        <time>2021-04-29T11:17:04Z</time>
      </trkpt>
      <trkpt lat="44.89995" lon="4.14874">
        <ele>1328</ele>
        <time>2021-04-29T11:17:05Z</time>
      </trkpt>
      <trkpt lat="44.89997" lon="4.14868">
        <ele>1328</ele>
        <time>2021-04-29T11:17:06Z</time>
      </trkpt>
      <trkpt lat="44.89999" lon="4.14862">
        <ele>1329</ele>
        <time>2021-04-29T11:17:07Z</time>
      </trkpt>
      <trkpt lat="44.90001" lon="4.14856">
        <ele>1329</ele>
        <time>2021-04-29T11:17:08Z</time>
      </trkpt>
      <trkpt lat="44.90003" lon="4.1485">
        <ele>1329</ele>
        <time>2021-04-29T11:17:09Z</time>
      </trkpt>
      <trkpt lat="44.90006" lon="4.14844">
        <ele>1330</ele>
        <time>2021-04-29T11:17:10Z</time>
      </trkpt>
      <trkpt lat="44.90008" lon="4.14838">
        <ele>1330</ele>
        <time>2021-04-29T11:17:12Z</time>
      </trkpt>
      <trkpt lat="44.9001" lon="4.14832">
        <ele>1330</ele>
        <time>2021-04-29T11:17:13Z</time>
      </trkpt>
      <trkpt lat="44.90013" lon="4.14826">
        <ele>1331</ele>
        <time>2021-04-29T11:17:14Z</time>
      </trkpt>
      <trkpt lat="44.90015" lon="4.14821">
        <ele>1331</ele>
        <time>2021-04-29T11:17:15Z</time>
      </trkpt>
      <trkpt lat="44.90017" lon="4.14815">
        <ele>1331</ele>
        <time>2021-04-29T11:17:16Z</time>
      </trkpt>
      <trkpt lat="44.9002" lon="4.14809">
        <ele>1332</ele>
        <time>2021-04-29T11:17:17Z</time>
      </trkpt>
      <trkpt lat="44.90022" lon="4.14803">
        <ele>1332</ele>
        <time>2021-04-29T11:17:18Z</time>
      </trkpt>
      <trkpt lat="44.90025" lon="4.14797">
        <ele>1332</ele>
        <time>2021-04-29T11:17:19Z</time>
      </trkpt>
      <trkpt lat="44.90028" lon="4.14791">
        <ele>1332</ele>
        <time>2021-04-29T11:17:20Z</time>
      </trkpt>
      <trkpt lat="44.90031" lon="4.14785">
        <ele>1332</ele>
        <time>2021-04-29T11:17:21Z</time>
      </trkpt>
      <trkpt lat="44.90034" lon="4.1478">
        <ele>1333</ele>
        <time>2021-04-29T11:17:22Z</time>
      </trkpt>
      <trkpt lat="44.90042" lon="4.14772">
        <ele>1333</ele>
        <time>2021-04-29T11:17:23Z</time>
      </trkpt>
      <trkpt lat="44.90046" lon="4.14768">
        <ele>1333</ele>
        <time>2021-04-29T11:17:25Z</time>
      </trkpt>
      <trkpt lat="44.90051" lon="4.14765">
        <ele>1333</ele>
        <time>2021-04-29T11:17:26Z</time>
      </trkpt>
      <trkpt lat="44.9006" lon="4.14759">
        <ele>1334</ele>
        <time>2021-04-29T11:17:27Z</time>
      </trkpt>
      <trkpt lat="44.90065" lon="4.14755">
        <ele>1334</ele>
        <time>2021-04-29T11:17:29Z</time>
      </trkpt>
      <trkpt lat="44.90069" lon="4.1475">
        <ele>1334</ele>
        <time>2021-04-29T11:17:30Z</time>
      </trkpt>
      <trkpt lat="44.90076" lon="4.14739">
        <ele>1334</ele>
        <time>2021-04-29T11:17:31Z</time>
      </trkpt>
      <trkpt lat="44.90079" lon="4.14732">
        <ele>1334</ele>
        <time>2021-04-29T11:17:32Z</time>
      </trkpt>
      <trkpt lat="44.90082" lon="4.14725">
        <ele>1334</ele>
        <time>2021-04-29T11:17:33Z</time>
      </trkpt>
      <trkpt lat="44.90085" lon="4.14718">
        <ele>1334</ele>
        <time>2021-04-29T11:17:34Z</time>
      </trkpt>
      <trkpt lat="44.90087" lon="4.14711">
        <ele>1334</ele>
        <time>2021-04-29T11:17:35Z</time>
      </trkpt>
      <trkpt lat="44.9009" lon="4.14703">
        <ele>1334</ele>
        <time>2021-04-29T11:17:36Z</time>
      </trkpt>
      <trkpt lat="44.90093" lon="4.14696">
        <ele>1334</ele>
        <time>2021-04-29T11:17:37Z</time>
      </trkpt>
      <trkpt lat="44.90096" lon="4.14688">
        <ele>1334</ele>
        <time>2021-04-29T11:17:38Z</time>
      </trkpt>
      <trkpt lat="44.90099" lon="4.1468">
        <ele>1334</ele>
        <time>2021-04-29T11:17:39Z</time>
      </trkpt>
      <trkpt lat="44.90101" lon="4.14672">
        <ele>1334</ele>
        <time>2021-04-29T11:17:41Z</time>
      </trkpt>
      <trkpt lat="44.90104" lon="4.14664">
        <ele>1334</ele>
        <time>2021-04-29T11:17:42Z</time>
      </trkpt>
      <trkpt lat="44.90107" lon="4.14656">
        <ele>1334</ele>
        <time>2021-04-29T11:17:43Z</time>
      </trkpt>
      <trkpt lat="44.90109" lon="4.14648">
        <ele>1333</ele>
        <time>2021-04-29T11:17:44Z</time>
      </trkpt>
      <trkpt lat="44.90112" lon="4.1464">
        <ele>1333</ele>
        <time>2021-04-29T11:17:45Z</time>
      </trkpt>
      <trkpt lat="44.90118" lon="4.14624">
        <ele>1333</ele>
        <time>2021-04-29T11:17:46Z</time>
      </trkpt>
      <trkpt lat="44.90123" lon="4.14608">
        <ele>1333</ele>
        <time>2021-04-29T11:17:48Z</time>
      </trkpt>
      <trkpt lat="44.90126" lon="4.146">
        <ele>1333</ele>
        <time>2021-04-29T11:17:49Z</time>
      </trkpt>
      <trkpt lat="44.90129" lon="4.14592">
        <ele>1333</ele>
        <time>2021-04-29T11:17:50Z</time>
      </trkpt>
      <trkpt lat="44.90131" lon="4.14584">
        <ele>1333</ele>
        <time>2021-04-29T11:17:51Z</time>
      </trkpt>
      <trkpt lat="44.90135" lon="4.14568">
        <ele>1333</ele>
        <time>2021-04-29T11:17:53Z</time>
      </trkpt>
      <trkpt lat="44.90136" lon="4.1456">
        <ele>1333</ele>
        <time>2021-04-29T11:17:54Z</time>
      </trkpt>
      <trkpt lat="44.90137" lon="4.14552">
        <ele>1333</ele>
        <time>2021-04-29T11:17:55Z</time>
      </trkpt>
      <trkpt lat="44.90138" lon="4.14543">
        <ele>1333</ele>
        <time>2021-04-29T11:17:57Z</time>
      </trkpt>
      <trkpt lat="44.90139" lon="4.14535">
        <ele>1333</ele>
        <time>2021-04-29T11:17:58Z</time>
      </trkpt>
      <trkpt lat="44.90139" lon="4.14526">
        <ele>1333</ele>
        <time>2021-04-29T11:17:59Z</time>
      </trkpt>
      <trkpt lat="44.90139" lon="4.14518">
        <ele>1333</ele>
        <time>2021-04-29T11:18:00Z</time>
      </trkpt>
      <trkpt lat="44.90139" lon="4.14509">
        <ele>1333</ele>
        <time>2021-04-29T11:18:01Z</time>
      </trkpt>
      <trkpt lat="44.9014" lon="4.145">
        <ele>1333</ele>
        <time>2021-04-29T11:18:02Z</time>
      </trkpt>
      <trkpt lat="44.9014" lon="4.14492">
        <ele>1333</ele>
        <time>2021-04-29T11:18:03Z</time>
      </trkpt>
      <trkpt lat="44.90141" lon="4.14474">
        <ele>1333</ele>
        <time>2021-04-29T11:18:04Z</time>
      </trkpt>
      <trkpt lat="44.90142" lon="4.14466">
        <ele>1333</ele>
        <time>2021-04-29T11:18:05Z</time>
      </trkpt>
      <trkpt lat="44.90142" lon="4.14458">
        <ele>1333</ele>
        <time>2021-04-29T11:18:06Z</time>
      </trkpt>
      <trkpt lat="44.90144" lon="4.14441">
        <ele>1333</ele>
        <time>2021-04-29T11:18:08Z</time>
      </trkpt>
      <trkpt lat="44.90146" lon="4.14433">
        <ele>1333</ele>
        <time>2021-04-29T11:18:09Z</time>
      </trkpt>
      <trkpt lat="44.90147" lon="4.14424">
        <ele>1333</ele>
        <time>2021-04-29T11:18:10Z</time>
      </trkpt>
      <trkpt lat="44.90149" lon="4.14416">
        <ele>1332</ele>
        <time>2021-04-29T11:18:11Z</time>
      </trkpt>
      <trkpt lat="44.9015" lon="4.14407">
        <ele>1332</ele>
        <time>2021-04-29T11:18:12Z</time>
      </trkpt>
      <trkpt lat="44.90152" lon="4.14399">
        <ele>1332</ele>
        <time>2021-04-29T11:18:13Z</time>
      </trkpt>
      <trkpt lat="44.90154" lon="4.1439">
        <ele>1332</ele>
        <time>2021-04-29T11:18:14Z</time>
      </trkpt>
      <trkpt lat="44.90157" lon="4.14382">
        <ele>1332</ele>
        <time>2021-04-29T11:18:15Z</time>
      </trkpt>
      <trkpt lat="44.90159" lon="4.14373">
        <ele>1331</ele>
        <time>2021-04-29T11:18:16Z</time>
      </trkpt>
      <trkpt lat="44.90162" lon="4.14365">
        <ele>1331</ele>
        <time>2021-04-29T11:18:17Z</time>
      </trkpt>
      <trkpt lat="44.90164" lon="4.14356">
        <ele>1331</ele>
        <time>2021-04-29T11:18:18Z</time>
      </trkpt>
      <trkpt lat="44.90166" lon="4.14347">
        <ele>1331</ele>
        <time>2021-04-29T11:18:19Z</time>
      </trkpt>
      <trkpt lat="44.90168" lon="4.14338">
        <ele>1330</ele>
        <time>2021-04-29T11:18:21Z</time>
      </trkpt>
      <trkpt lat="44.90169" lon="4.14329">
        <ele>1330</ele>
        <time>2021-04-29T11:18:22Z</time>
      </trkpt>
      <trkpt lat="44.9017" lon="4.1432">
        <ele>1330</ele>
        <time>2021-04-29T11:18:23Z</time>
      </trkpt>
      <trkpt lat="44.90172" lon="4.14302">
        <ele>1330</ele>
        <time>2021-04-29T11:18:24Z</time>
      </trkpt>
      <trkpt lat="44.90174" lon="4.14293">
        <ele>1329</ele>
        <time>2021-04-29T11:18:26Z</time>
      </trkpt>
      <trkpt lat="44.90175" lon="4.14284">
        <ele>1329</ele>
        <time>2021-04-29T11:18:27Z</time>
      </trkpt>
      <trkpt lat="44.9018" lon="4.14267">
        <ele>1329</ele>
        <time>2021-04-29T11:18:28Z</time>
      </trkpt>
      <trkpt lat="44.90183" lon="4.14259">
        <ele>1328</ele>
        <time>2021-04-29T11:18:29Z</time>
      </trkpt>
      <trkpt lat="44.90186" lon="4.1425">
        <ele>1328</ele>
        <time>2021-04-29T11:18:30Z</time>
      </trkpt>
      <trkpt lat="44.90189" lon="4.14242">
        <ele>1328</ele>
        <time>2021-04-29T11:18:31Z</time>
      </trkpt>
      <trkpt lat="44.90192" lon="4.14234">
        <ele>1328</ele>
        <time>2021-04-29T11:18:32Z</time>
      </trkpt>
      <trkpt lat="44.90196" lon="4.14226">
        <ele>1327</ele>
        <time>2021-04-29T11:18:33Z</time>
      </trkpt>
      <trkpt lat="44.90199" lon="4.14219">
        <ele>1327</ele>
        <time>2021-04-29T11:18:34Z</time>
      </trkpt>
      <trkpt lat="44.90202" lon="4.1421">
        <ele>1327</ele>
        <time>2021-04-29T11:18:35Z</time>
      </trkpt>
      <trkpt lat="44.90205" lon="4.14202">
        <ele>1327</ele>
        <time>2021-04-29T11:18:36Z</time>
      </trkpt>
      <trkpt lat="44.90208" lon="4.14194">
        <ele>1327</ele>
        <time>2021-04-29T11:18:37Z</time>
      </trkpt>
      <trkpt lat="44.90211" lon="4.14185">
        <ele>1327</ele>
        <time>2021-04-29T11:18:38Z</time>
      </trkpt>
      <trkpt lat="44.90214" lon="4.14177">
        <ele>1326</ele>
        <time>2021-04-29T11:18:39Z</time>
      </trkpt>
      <trkpt lat="44.90217" lon="4.14168">
        <ele>1326</ele>
        <time>2021-04-29T11:18:40Z</time>
      </trkpt>
      <trkpt lat="44.9022" lon="4.14159">
        <ele>1326</ele>
        <time>2021-04-29T11:18:41Z</time>
      </trkpt>
      <trkpt lat="44.90222" lon="4.14151">
        <ele>1326</ele>
        <time>2021-04-29T11:18:42Z</time>
      </trkpt>
      <trkpt lat="44.90228" lon="4.14135">
        <ele>1325</ele>
        <time>2021-04-29T11:18:44Z</time>
      </trkpt>
      <trkpt lat="44.9023" lon="4.14127">
        <ele>1325</ele>
        <time>2021-04-29T11:18:45Z</time>
      </trkpt>
      <trkpt lat="44.90232" lon="4.14119">
        <ele>1325</ele>
        <time>2021-04-29T11:18:46Z</time>
      </trkpt>
      <trkpt lat="44.90235" lon="4.14111">
        <ele>1325</ele>
        <time>2021-04-29T11:18:47Z</time>
      </trkpt>
      <trkpt lat="44.9024" lon="4.14096">
        <ele>1324</ele>
        <time>2021-04-29T11:18:49Z</time>
      </trkpt>
      <trkpt lat="44.90243" lon="4.14088">
        <ele>1324</ele>
        <time>2021-04-29T11:18:50Z</time>
      </trkpt>
      <trkpt lat="44.90246" lon="4.14081">
        <ele>1324</ele>
        <time>2021-04-29T11:18:52Z</time>
      </trkpt>
      <trkpt lat="44.90249" lon="4.14073">
        <ele>1324</ele>
        <time>2021-04-29T11:18:53Z</time>
      </trkpt>
      <trkpt lat="44.90252" lon="4.14065">
        <ele>1324</ele>
        <time>2021-04-29T11:18:54Z</time>
      </trkpt>
      <trkpt lat="44.90254" lon="4.14057">
        <ele>1324</ele>
        <time>2021-04-29T11:18:55Z</time>
      </trkpt>
      <trkpt lat="44.90257" lon="4.14049">
        <ele>1324</ele>
        <time>2021-04-29T11:18:56Z</time>
      </trkpt>
      <trkpt lat="44.9026" lon="4.14041">
        <ele>1324</ele>
        <time>2021-04-29T11:18:57Z</time>
      </trkpt>
      <trkpt lat="44.90262" lon="4.14033">
        <ele>1324</ele>
        <time>2021-04-29T11:18:58Z</time>
      </trkpt>
      <trkpt lat="44.90264" lon="4.14025">
        <ele>1324</ele>
        <time>2021-04-29T11:18:59Z</time>
      </trkpt>
      <trkpt lat="44.90266" lon="4.14017">
        <ele>1324</ele>
        <time>2021-04-29T11:19:00Z</time>
      </trkpt>
      <trkpt lat="44.90268" lon="4.1401">
        <ele>1324</ele>
        <time>2021-04-29T11:19:01Z</time>
      </trkpt>
      <trkpt lat="44.90272" lon="4.13994">
        <ele>1324</ele>
        <time>2021-04-29T11:19:02Z</time>
      </trkpt>
      <trkpt lat="44.90273" lon="4.13986">
        <ele>1324</ele>
        <time>2021-04-29T11:19:04Z</time>
      </trkpt>
      <trkpt lat="44.90275" lon="4.13978">
        <ele>1324</ele>
        <time>2021-04-29T11:19:05Z</time>
      </trkpt>
      <trkpt lat="44.90276" lon="4.1397">
        <ele>1324</ele>
        <time>2021-04-29T11:19:06Z</time>
      </trkpt>
      <trkpt lat="44.90277" lon="4.13962">
        <ele>1324</ele>
        <time>2021-04-29T11:19:07Z</time>
      </trkpt>
      <trkpt lat="44.9028" lon="4.13947">
        <ele>1324</ele>
        <time>2021-04-29T11:19:08Z</time>
      </trkpt>
      <trkpt lat="44.9028" lon="4.13939">
        <ele>1324</ele>
        <time>2021-04-29T11:19:09Z</time>
      </trkpt>
      <trkpt lat="44.90281" lon="4.13932">
        <ele>1324</ele>
        <time>2021-04-29T11:19:10Z</time>
      </trkpt>
      <trkpt lat="44.90283" lon="4.13918">
        <ele>1325</ele>
        <time>2021-04-29T11:19:12Z</time>
      </trkpt>
      <trkpt lat="44.90283" lon="4.13912">
        <ele>1325</ele>
        <time>2021-04-29T11:19:13Z</time>
      </trkpt>
      <trkpt lat="44.90284" lon="4.13905">
        <ele>1325</ele>
        <time>2021-04-29T11:19:14Z</time>
      </trkpt>
      <trkpt lat="44.90284" lon="4.13899">
        <ele>1326</ele>
        <time>2021-04-29T11:19:15Z</time>
      </trkpt>
      <trkpt lat="44.90285" lon="4.13892">
        <ele>1326</ele>
        <time>2021-04-29T11:19:16Z</time>
      </trkpt>
      <trkpt lat="44.90286" lon="4.13886">
        <ele>1326</ele>
        <time>2021-04-29T11:19:17Z</time>
      </trkpt>
      <trkpt lat="44.90287" lon="4.1388">
        <ele>1327</ele>
        <time>2021-04-29T11:19:19Z</time>
      </trkpt>
      <trkpt lat="44.90287" lon="4.13874">
        <ele>1327</ele>
        <time>2021-04-29T11:19:20Z</time>
      </trkpt>
      <trkpt lat="44.90289" lon="4.13862">
        <ele>1327</ele>
        <time>2021-04-29T11:19:21Z</time>
      </trkpt>
      <trkpt lat="44.9029" lon="4.13856">
        <ele>1328</ele>
        <time>2021-04-29T11:19:23Z</time>
      </trkpt>
      <trkpt lat="44.90291" lon="4.1385">
        <ele>1328</ele>
        <time>2021-04-29T11:19:24Z</time>
      </trkpt>
      <trkpt lat="44.90292" lon="4.13845">
        <ele>1328</ele>
        <time>2021-04-29T11:19:25Z</time>
      </trkpt>
      <trkpt lat="44.90292" lon="4.13839">
        <ele>1329</ele>
        <time>2021-04-29T11:19:26Z</time>
      </trkpt>
      <trkpt lat="44.90293" lon="4.13833">
        <ele>1329</ele>
        <time>2021-04-29T11:19:27Z</time>
      </trkpt>
      <trkpt lat="44.90294" lon="4.13827">
        <ele>1329</ele>
        <time>2021-04-29T11:19:28Z</time>
      </trkpt>
      <trkpt lat="44.90297" lon="4.13804">
        <ele>1331</ele>
        <time>2021-04-29T11:19:31Z</time>
      </trkpt>
      <trkpt lat="44.90299" lon="4.13787">
        <ele>1332</ele>
        <time>2021-04-29T11:19:34Z</time>
      </trkpt>
      <trkpt lat="44.90301" lon="4.13782">
        <ele>1332</ele>
        <time>2021-04-29T11:19:35Z</time>
      </trkpt>
      <trkpt lat="44.90301" lon="4.13776">
        <ele>1332</ele>
        <time>2021-04-29T11:19:36Z</time>
      </trkpt>
      <trkpt lat="44.90301" lon="4.13759">
        <ele>1333</ele>
        <time>2021-04-29T11:19:39Z</time>
      </trkpt>
      <trkpt lat="44.90297" lon="4.13741">
        <ele>1334</ele>
        <time>2021-04-29T11:19:42Z</time>
      </trkpt>
      <trkpt lat="44.90294" lon="4.13723">
        <ele>1335</ele>
        <time>2021-04-29T11:19:45Z</time>
      </trkpt>
      <trkpt lat="44.90291" lon="4.13708">
        <ele>1336</ele>
        <time>2021-04-29T11:19:48Z</time>
      </trkpt>
      <trkpt lat="44.90287" lon="4.13692">
        <ele>1338</ele>
        <time>2021-04-29T11:19:51Z</time>
      </trkpt>
      <trkpt lat="44.90281" lon="4.13678">
        <ele>1339</ele>
        <time>2021-04-29T11:19:54Z</time>
      </trkpt>
      <trkpt lat="44.90277" lon="4.13663">
        <ele>1340</ele>
        <time>2021-04-29T11:19:58Z</time>
      </trkpt>
      <trkpt lat="44.90275" lon="4.13651">
        <ele>1341</ele>
        <time>2021-04-29T11:20:01Z</time>
      </trkpt>
      <trkpt lat="44.90275" lon="4.13636">
        <ele>1341</ele>
        <time>2021-04-29T11:20:03Z</time>
      </trkpt>
      <trkpt lat="44.90273" lon="4.13623">
        <ele>1341</ele>
        <time>2021-04-29T11:20:06Z</time>
      </trkpt>
      <trkpt lat="44.90268" lon="4.13611">
        <ele>1342</ele>
        <time>2021-04-29T11:20:11Z</time>
      </trkpt>
      <trkpt lat="44.90266" lon="4.13609">
        <ele>1343</ele>
        <time>2021-04-29T11:20:15Z</time>
      </trkpt>
      <trkpt lat="44.90261" lon="4.13598">
        <ele>1345</ele>
        <time>2021-04-29T11:20:24Z</time>
      </trkpt>
      <trkpt lat="44.90256" lon="4.13597">
        <ele>1346</ele>
        <time>2021-04-29T11:20:26Z</time>
      </trkpt>
      <trkpt lat="44.90254" lon="4.13597">
        <ele>1347</ele>
        <time>2021-04-29T11:20:27Z</time>
      </trkpt>
      <trkpt lat="44.90251" lon="4.13599">
        <ele>1348</ele>
        <time>2021-04-29T11:20:29Z</time>
      </trkpt>
      <trkpt lat="44.90249" lon="4.13598">
        <ele>1348</ele>
        <time>2021-04-29T11:20:31Z</time>
      </trkpt>
      <trkpt lat="44.90247" lon="4.13598">
        <ele>1349</ele>
        <time>2021-04-29T11:20:32Z</time>
      </trkpt>
      <trkpt lat="44.90244" lon="4.13596">
        <ele>1350</ele>
        <time>2021-04-29T11:20:34Z</time>
      </trkpt>
      <trkpt lat="44.90242" lon="4.13595">
        <ele>1350</ele>
        <time>2021-04-29T11:20:35Z</time>
      </trkpt>
      <trkpt lat="44.9024" lon="4.13595">
        <ele>1350</ele>
        <time>2021-04-29T11:20:36Z</time>
      </trkpt>
      <trkpt lat="44.90237" lon="4.13593">
        <ele>1351</ele>
        <time>2021-04-29T11:20:37Z</time>
      </trkpt>
      <trkpt lat="44.90233" lon="4.13592">
        <ele>1352</ele>
        <time>2021-04-29T11:20:40Z</time>
      </trkpt>
      <trkpt lat="44.90229" lon="4.13591">
        <ele>1352</ele>
        <time>2021-04-29T11:20:42Z</time>
      </trkpt>
      <trkpt lat="44.90227" lon="4.1359">
        <ele>1352</ele>
        <time>2021-04-29T11:20:43Z</time>
      </trkpt>
      <trkpt lat="44.90226" lon="4.13589">
        <ele>1353</ele>
        <time>2021-04-29T11:20:44Z</time>
      </trkpt>
      <trkpt lat="44.90217" lon="4.1359">
        <ele>1353</ele>
        <time>2021-04-29T11:20:48Z</time>
      </trkpt>
      <trkpt lat="44.90207" lon="4.13591">
        <ele>1355</ele>
        <time>2021-04-29T11:20:53Z</time>
      </trkpt>
      <trkpt lat="44.90201" lon="4.1359">
        <ele>1355</ele>
        <time>2021-04-29T11:20:56Z</time>
      </trkpt>
      <trkpt lat="44.90191" lon="4.13597">
        <ele>1357</ele>
        <time>2021-04-29T11:21:02Z</time>
      </trkpt>
      <trkpt lat="44.90181" lon="4.13605">
        <ele>1358</ele>
        <time>2021-04-29T11:21:08Z</time>
      </trkpt>
      <trkpt lat="44.90172" lon="4.13611">
        <ele>1358</ele>
        <time>2021-04-29T11:21:10Z</time>
      </trkpt>
      <trkpt lat="44.90162" lon="4.13617">
        <ele>1359</ele>
        <time>2021-04-29T11:21:13Z</time>
      </trkpt>
      <trkpt lat="44.90152" lon="4.13624">
        <ele>1359</ele>
        <time>2021-04-29T11:21:16Z</time>
      </trkpt>
      <trkpt lat="44.90145" lon="4.13633">
        <ele>1360</ele>
        <time>2021-04-29T11:21:20Z</time>
      </trkpt>
      <trkpt lat="44.90134" lon="4.13639">
        <ele>1361</ele>
        <time>2021-04-29T11:21:24Z</time>
      </trkpt>
      <trkpt lat="44.90127" lon="4.13648">
        <ele>1362</ele>
        <time>2021-04-29T11:21:28Z</time>
      </trkpt>
      <trkpt lat="44.90121" lon="4.1366">
        <ele>1364</ele>
        <time>2021-04-29T11:21:34Z</time>
      </trkpt>
      <trkpt lat="44.90115" lon="4.13672">
        <ele>1365</ele>
        <time>2021-04-29T11:21:37Z</time>
      </trkpt>
      <trkpt lat="44.90112" lon="4.13684">
        <ele>1366</ele>
        <time>2021-04-29T11:21:41Z</time>
      </trkpt>
      <trkpt lat="44.90107" lon="4.13694">
        <ele>1367</ele>
        <time>2021-04-29T11:21:45Z</time>
      </trkpt>
      <trkpt lat="44.90105" lon="4.13697">
        <ele>1368</ele>
        <time>2021-04-29T11:21:47Z</time>
      </trkpt>
      <trkpt lat="44.90103" lon="4.137">
        <ele>1368</ele>
        <time>2021-04-29T11:21:48Z</time>
      </trkpt>
      <trkpt lat="44.901" lon="4.13707">
        <ele>1369</ele>
        <time>2021-04-29T11:21:50Z</time>
      </trkpt>
      <trkpt lat="44.90098" lon="4.13713">
        <ele>1370</ele>
        <time>2021-04-29T11:21:52Z</time>
      </trkpt>
      <trkpt lat="44.90096" lon="4.13716">
        <ele>1370</ele>
        <time>2021-04-29T11:21:53Z</time>
      </trkpt>
      <trkpt lat="44.90093" lon="4.13729">
        <ele>1371</ele>
        <time>2021-04-29T11:21:56Z</time>
      </trkpt>
      <trkpt lat="44.90092" lon="4.13733">
        <ele>1371</ele>
        <time>2021-04-29T11:21:57Z</time>
      </trkpt>
      <trkpt lat="44.90091" lon="4.13736">
        <ele>1372</ele>
        <time>2021-04-29T11:21:59Z</time>
      </trkpt>
      <trkpt lat="44.90088" lon="4.13742">
        <ele>1372</ele>
        <time>2021-04-29T11:22:01Z</time>
      </trkpt>
      <trkpt lat="44.90087" lon="4.13745">
        <ele>1372</ele>
        <time>2021-04-29T11:22:02Z</time>
      </trkpt>
      <trkpt lat="44.90086" lon="4.13749">
        <ele>1372</ele>
        <time>2021-04-29T11:22:03Z</time>
      </trkpt>
      <trkpt lat="44.90085" lon="4.13756">
        <ele>1373</ele>
        <time>2021-04-29T11:22:04Z</time>
      </trkpt>
      <trkpt lat="44.90084" lon="4.1376">
        <ele>1373</ele>
        <time>2021-04-29T11:22:05Z</time>
      </trkpt>
      <trkpt lat="44.90084" lon="4.13763">
        <ele>1373</ele>
        <time>2021-04-29T11:22:06Z</time>
      </trkpt>
      <trkpt lat="44.90082" lon="4.13767">
        <ele>1373</ele>
        <time>2021-04-29T11:22:07Z</time>
      </trkpt>
      <trkpt lat="44.90081" lon="4.13771">
        <ele>1374</ele>
        <time>2021-04-29T11:22:08Z</time>
      </trkpt>
      <trkpt lat="44.90077" lon="4.13781">
        <ele>1375</ele>
        <time>2021-04-29T11:22:11Z</time>
      </trkpt>
      <trkpt lat="44.90076" lon="4.13785">
        <ele>1375</ele>
        <time>2021-04-29T11:22:12Z</time>
      </trkpt>
      <trkpt lat="44.90075" lon="4.13788">
        <ele>1375</ele>
        <time>2021-04-29T11:22:13Z</time>
      </trkpt>
      <trkpt lat="44.90073" lon="4.13792">
        <ele>1376</ele>
        <time>2021-04-29T11:22:14Z</time>
      </trkpt>
      <trkpt lat="44.90072" lon="4.13796">
        <ele>1376</ele>
        <time>2021-04-29T11:22:15Z</time>
      </trkpt>
      <trkpt lat="44.90071" lon="4.138">
        <ele>1377</ele>
        <time>2021-04-29T11:22:16Z</time>
      </trkpt>
      <trkpt lat="44.90069" lon="4.13803">
        <ele>1377</ele>
        <time>2021-04-29T11:22:17Z</time>
      </trkpt>
      <trkpt lat="44.90068" lon="4.13808">
        <ele>1377</ele>
        <time>2021-04-29T11:22:18Z</time>
      </trkpt>
      <trkpt lat="44.90067" lon="4.13812">
        <ele>1377</ele>
        <time>2021-04-29T11:22:19Z</time>
      </trkpt>
      <trkpt lat="44.90066" lon="4.13816">
        <ele>1378</ele>
        <time>2021-04-29T11:22:20Z</time>
      </trkpt>
      <trkpt lat="44.90066" lon="4.1382">
        <ele>1378</ele>
        <time>2021-04-29T11:22:21Z</time>
      </trkpt>
      <trkpt lat="44.90066" lon="4.13825">
        <ele>1378</ele>
        <time>2021-04-29T11:22:22Z</time>
      </trkpt>
      <trkpt lat="44.90063" lon="4.13842">
        <ele>1379</ele>
        <time>2021-04-29T11:22:25Z</time>
      </trkpt>
      <trkpt lat="44.90063" lon="4.13858">
        <ele>1379</ele>
        <time>2021-04-29T11:22:28Z</time>
      </trkpt>
      <trkpt lat="44.90063" lon="4.13874">
        <ele>1379</ele>
        <time>2021-04-29T11:22:31Z</time>
      </trkpt>
      <trkpt lat="44.90061" lon="4.13888">
        <ele>1380</ele>
        <time>2021-04-29T11:22:35Z</time>
      </trkpt>
      <trkpt lat="44.90058" lon="4.13902">
        <ele>1381</ele>
        <time>2021-04-29T11:22:38Z</time>
      </trkpt>
      <trkpt lat="44.90052" lon="4.13915">
        <ele>1382</ele>
        <time>2021-04-29T11:22:41Z</time>
      </trkpt>
      <trkpt lat="44.90045" lon="4.13931">
        <ele>1383</ele>
        <time>2021-04-29T11:22:44Z</time>
      </trkpt>
      <trkpt lat="44.9004" lon="4.13942">
        <ele>1383</ele>
        <time>2021-04-29T11:22:46Z</time>
      </trkpt>
      <trkpt lat="44.90034" lon="4.13952">
        <ele>1383</ele>
        <time>2021-04-29T11:22:48Z</time>
      </trkpt>
      <trkpt lat="44.90034" lon="4.13968">
        <ele>1384</ele>
        <time>2021-04-29T11:22:50Z</time>
      </trkpt>
      <trkpt lat="44.90035" lon="4.13981">
        <ele>1384</ele>
        <time>2021-04-29T11:22:52Z</time>
      </trkpt>
      <trkpt lat="44.90034" lon="4.13996">
        <ele>1385</ele>
        <time>2021-04-29T11:22:55Z</time>
      </trkpt>
      <trkpt lat="44.9003" lon="4.14009">
        <ele>1386</ele>
        <time>2021-04-29T11:22:57Z</time>
      </trkpt>
      <trkpt lat="44.90021" lon="4.14021">
        <ele>1387</ele>
        <time>2021-04-29T11:23:01Z</time>
      </trkpt>
      <trkpt lat="44.90013" lon="4.1403">
        <ele>1388</ele>
        <time>2021-04-29T11:23:04Z</time>
      </trkpt>
      <trkpt lat="44.90002" lon="4.14037">
        <ele>1389</ele>
        <time>2021-04-29T11:23:07Z</time>
      </trkpt>
      <trkpt lat="44.8999" lon="4.14039">
        <ele>1388</ele>
        <time>2021-04-29T11:23:09Z</time>
      </trkpt>
      <trkpt lat="44.8998" lon="4.14041">
        <ele>1388</ele>
        <time>2021-04-29T11:23:11Z</time>
      </trkpt>
      <trkpt lat="44.89968" lon="4.14045">
        <ele>1390</ele>
        <time>2021-04-29T11:23:14Z</time>
      </trkpt>
      <trkpt lat="44.89955" lon="4.14049">
        <ele>1391</ele>
        <time>2021-04-29T11:23:17Z</time>
      </trkpt>
      <trkpt lat="44.89945" lon="4.14053">
        <ele>1391</ele>
        <time>2021-04-29T11:23:19Z</time>
      </trkpt>
      <trkpt lat="44.89935" lon="4.14058">
        <ele>1393</ele>
        <time>2021-04-29T11:23:25Z</time>
      </trkpt>
      <trkpt lat="44.89926" lon="4.14064">
        <ele>1393</ele>
        <time>2021-04-29T11:23:27Z</time>
      </trkpt>
      <trkpt lat="44.89915" lon="4.14067">
        <ele>1393</ele>
        <time>2021-04-29T11:23:29Z</time>
      </trkpt>
      <trkpt lat="44.89903" lon="4.1407">
        <ele>1393</ele>
        <time>2021-04-29T11:23:31Z</time>
      </trkpt>
      <trkpt lat="44.89898" lon="4.1407">
        <ele>1393</ele>
        <time>2021-04-29T11:23:32Z</time>
      </trkpt>
      <trkpt lat="44.89894" lon="4.14069">
        <ele>1393</ele>
        <time>2021-04-29T11:23:33Z</time>
      </trkpt>
      <trkpt lat="44.8989" lon="4.14068">
        <ele>1393</ele>
        <time>2021-04-29T11:23:34Z</time>
      </trkpt>
      <trkpt lat="44.89888" lon="4.14066">
        <ele>1393</ele>
        <time>2021-04-29T11:23:35Z</time>
      </trkpt>
      <trkpt lat="44.89885" lon="4.14065">
        <ele>1394</ele>
        <time>2021-04-29T11:23:36Z</time>
      </trkpt>
      <trkpt lat="44.89883" lon="4.14064">
        <ele>1394</ele>
        <time>2021-04-29T11:23:37Z</time>
      </trkpt>
      <trkpt lat="44.8988" lon="4.14062">
        <ele>1394</ele>
        <time>2021-04-29T11:23:38Z</time>
      </trkpt>
      <trkpt lat="44.89879" lon="4.14062">
        <ele>1395</ele>
        <time>2021-04-29T11:23:39Z</time>
      </trkpt>
      <trkpt lat="44.89876" lon="4.1406">
        <ele>1395</ele>
        <time>2021-04-29T11:23:41Z</time>
      </trkpt>
      <trkpt lat="44.89872" lon="4.14056">
        <ele>1396</ele>
        <time>2021-04-29T11:23:43Z</time>
      </trkpt>
      <trkpt lat="44.89863" lon="4.1405">
        <ele>1397</ele>
        <time>2021-04-29T11:23:47Z</time>
      </trkpt>
      <trkpt lat="44.89862" lon="4.14048">
        <ele>1398</ele>
        <time>2021-04-29T11:23:48Z</time>
      </trkpt>
      <trkpt lat="44.89861" lon="4.14045">
        <ele>1398</ele>
        <time>2021-04-29T11:23:49Z</time>
      </trkpt>
      <trkpt lat="44.8986" lon="4.14043">
        <ele>1399</ele>
        <time>2021-04-29T11:23:50Z</time>
      </trkpt>
      <trkpt lat="44.89858" lon="4.1404">
        <ele>1399</ele>
        <time>2021-04-29T11:23:51Z</time>
      </trkpt>
      <trkpt lat="44.89855" lon="4.14037">
        <ele>1399</ele>
        <time>2021-04-29T11:23:52Z</time>
      </trkpt>
      <trkpt lat="44.8985" lon="4.14031">
        <ele>1400</ele>
        <time>2021-04-29T11:23:54Z</time>
      </trkpt>
      <trkpt lat="44.89847" lon="4.14029">
        <ele>1400</ele>
        <time>2021-04-29T11:23:55Z</time>
      </trkpt>
      <trkpt lat="44.89845" lon="4.14027">
        <ele>1401</ele>
        <time>2021-04-29T11:23:56Z</time>
      </trkpt>
      <trkpt lat="44.89842" lon="4.14025">
        <ele>1401</ele>
        <time>2021-04-29T11:23:57Z</time>
      </trkpt>
      <trkpt lat="44.89837" lon="4.14023">
        <ele>1402</ele>
        <time>2021-04-29T11:23:59Z</time>
      </trkpt>
      <trkpt lat="44.89835" lon="4.14023">
        <ele>1402</ele>
        <time>2021-04-29T11:24:01Z</time>
      </trkpt>
      <trkpt lat="44.89832" lon="4.14023">
        <ele>1402</ele>
        <time>2021-04-29T11:24:02Z</time>
      </trkpt>
      <trkpt lat="44.89829" lon="4.14023">
        <ele>1403</ele>
        <time>2021-04-29T11:24:04Z</time>
      </trkpt>
      <trkpt lat="44.89819" lon="4.14025">
        <ele>1403</ele>
        <time>2021-04-29T11:24:06Z</time>
      </trkpt>
      <trkpt lat="44.89807" lon="4.14028">
        <ele>1402</ele>
        <time>2021-04-29T11:24:10Z</time>
      </trkpt>
      <trkpt lat="44.89794" lon="4.14029">
        <ele>1402</ele>
        <time>2021-04-29T11:24:13Z</time>
      </trkpt>
      <trkpt lat="44.89785" lon="4.14026">
        <ele>1402</ele>
        <time>2021-04-29T11:24:15Z</time>
      </trkpt>
      <trkpt lat="44.89775" lon="4.14022">
        <ele>1402</ele>
        <time>2021-04-29T11:24:17Z</time>
      </trkpt>
      <trkpt lat="44.89762" lon="4.14016">
        <ele>1402</ele>
        <time>2021-04-29T11:24:19Z</time>
      </trkpt>
      <trkpt lat="44.8975" lon="4.14005">
        <ele>1401</ele>
        <time>2021-04-29T11:24:21Z</time>
      </trkpt>
      <trkpt lat="44.89741" lon="4.13993">
        <ele>1401</ele>
        <time>2021-04-29T11:24:22Z</time>
      </trkpt>
      <trkpt lat="44.8973" lon="4.13985">
        <ele>1401</ele>
        <time>2021-04-29T11:24:24Z</time>
      </trkpt>
      <trkpt lat="44.89721" lon="4.13979">
        <ele>1401</ele>
        <time>2021-04-29T11:24:26Z</time>
      </trkpt>
      <trkpt lat="44.89715" lon="4.13967">
        <ele>1401</ele>
        <time>2021-04-29T11:24:31Z</time>
      </trkpt>
      <trkpt lat="44.89713" lon="4.13964">
        <ele>1401</ele>
        <time>2021-04-29T11:24:33Z</time>
      </trkpt>
      <trkpt lat="44.89711" lon="4.1396">
        <ele>1401</ele>
        <time>2021-04-29T11:24:35Z</time>
      </trkpt>
      <trkpt lat="44.89709" lon="4.13957">
        <ele>1401</ele>
        <time>2021-04-29T11:24:37Z</time>
      </trkpt>
      <trkpt lat="44.89707" lon="4.13954">
        <ele>1402</ele>
        <time>2021-04-29T11:24:38Z</time>
      </trkpt>
      <trkpt lat="44.89704" lon="4.13951">
        <ele>1402</ele>
        <time>2021-04-29T11:24:39Z</time>
      </trkpt>
      <trkpt lat="44.89701" lon="4.13947">
        <ele>1402</ele>
        <time>2021-04-29T11:24:40Z</time>
      </trkpt>
      <trkpt lat="44.89696" lon="4.13929">
        <ele>1402</ele>
        <time>2021-04-29T11:24:42Z</time>
      </trkpt>
      <trkpt lat="44.89695" lon="4.1392">
        <ele>1402</ele>
        <time>2021-04-29T11:24:43Z</time>
      </trkpt>
      <trkpt lat="44.89694" lon="4.13906">
        <ele>1402</ele>
        <time>2021-04-29T11:24:44Z</time>
      </trkpt>
      <trkpt lat="44.89694" lon="4.13894">
        <ele>1402</ele>
        <time>2021-04-29T11:24:46Z</time>
      </trkpt>
      <trkpt lat="44.89694" lon="4.13888">
        <ele>1403</ele>
        <time>2021-04-29T11:24:47Z</time>
      </trkpt>
      <trkpt lat="44.89694" lon="4.13882">
        <ele>1402</ele>
        <time>2021-04-29T11:24:48Z</time>
      </trkpt>
      <trkpt lat="44.89695" lon="4.13876">
        <ele>1403</ele>
        <time>2021-04-29T11:24:49Z</time>
      </trkpt>
      <trkpt lat="44.89696" lon="4.1387">
        <ele>1403</ele>
        <time>2021-04-29T11:24:50Z</time>
      </trkpt>
      <trkpt lat="44.89698" lon="4.13864">
        <ele>1403</ele>
        <time>2021-04-29T11:24:51Z</time>
      </trkpt>
      <trkpt lat="44.897" lon="4.13858">
        <ele>1403</ele>
        <time>2021-04-29T11:24:52Z</time>
      </trkpt>
      <trkpt lat="44.89703" lon="4.13853">
        <ele>1403</ele>
        <time>2021-04-29T11:24:53Z</time>
      </trkpt>
      <trkpt lat="44.89705" lon="4.13848">
        <ele>1403</ele>
        <time>2021-04-29T11:24:54Z</time>
      </trkpt>
      <trkpt lat="44.89708" lon="4.13843">
        <ele>1402</ele>
        <time>2021-04-29T11:24:55Z</time>
      </trkpt>
      <trkpt lat="44.89714" lon="4.13834">
        <ele>1402</ele>
        <time>2021-04-29T11:24:57Z</time>
      </trkpt>
      <trkpt lat="44.89719" lon="4.13824">
        <ele>1402</ele>
        <time>2021-04-29T11:24:59Z</time>
      </trkpt>
      <trkpt lat="44.89719" lon="4.13819">
        <ele>1402</ele>
        <time>2021-04-29T11:25:00Z</time>
      </trkpt>
      <trkpt lat="44.89718" lon="4.13813">
        <ele>1402</ele>
        <time>2021-04-29T11:25:01Z</time>
      </trkpt>
      <trkpt lat="44.89717" lon="4.13808">
        <ele>1402</ele>
        <time>2021-04-29T11:25:02Z</time>
      </trkpt>
      <trkpt lat="44.89715" lon="4.13802">
        <ele>1402</ele>
        <time>2021-04-29T11:25:03Z</time>
      </trkpt>
      <trkpt lat="44.89713" lon="4.13797">
        <ele>1402</ele>
        <time>2021-04-29T11:25:04Z</time>
      </trkpt>
      <trkpt lat="44.89711" lon="4.13793">
        <ele>1402</ele>
        <time>2021-04-29T11:25:05Z</time>
      </trkpt>
      <trkpt lat="44.89707" lon="4.13783">
        <ele>1402</ele>
        <time>2021-04-29T11:25:07Z</time>
      </trkpt>
      <trkpt lat="44.89706" lon="4.13779">
        <ele>1402</ele>
        <time>2021-04-29T11:25:08Z</time>
      </trkpt>
      <trkpt lat="44.89705" lon="4.13776">
        <ele>1402</ele>
        <time>2021-04-29T11:25:10Z</time>
      </trkpt>
      <trkpt lat="44.89704" lon="4.13774">
        <ele>1402</ele>
        <time>2021-04-29T11:25:13Z</time>
      </trkpt>
      <trkpt lat="44.89701" lon="4.1377">
        <ele>1403</ele>
        <time>2021-04-29T11:25:16Z</time>
      </trkpt>
      <trkpt lat="44.897" lon="4.13767">
        <ele>1403</ele>
        <time>2021-04-29T11:25:17Z</time>
      </trkpt>
      <trkpt lat="44.89699" lon="4.13764">
        <ele>1403</ele>
        <time>2021-04-29T11:25:18Z</time>
      </trkpt>
      <trkpt lat="44.89698" lon="4.13762">
        <ele>1403</ele>
        <time>2021-04-29T11:25:19Z</time>
      </trkpt>
      <trkpt lat="44.89697" lon="4.13759">
        <ele>1403</ele>
        <time>2021-04-29T11:25:20Z</time>
      </trkpt>
      <trkpt lat="44.89696" lon="4.13757">
        <ele>1403</ele>
        <time>2021-04-29T11:25:21Z</time>
      </trkpt>
      <trkpt lat="44.89695" lon="4.13751">
        <ele>1403</ele>
        <time>2021-04-29T11:25:22Z</time>
      </trkpt>
      <trkpt lat="44.89695" lon="4.13748">
        <ele>1403</ele>
        <time>2021-04-29T11:25:24Z</time>
      </trkpt>
      <trkpt lat="44.89694" lon="4.13745">
        <ele>1403</ele>
        <time>2021-04-29T11:25:25Z</time>
      </trkpt>
      <trkpt lat="44.89694" lon="4.13743">
        <ele>1402</ele>
        <time>2021-04-29T11:25:26Z</time>
      </trkpt>
      <trkpt lat="44.89693" lon="4.1374">
        <ele>1402</ele>
        <time>2021-04-29T11:25:27Z</time>
      </trkpt>
      <trkpt lat="44.89692" lon="4.13736">
        <ele>1402</ele>
        <time>2021-04-29T11:25:28Z</time>
      </trkpt>
      <trkpt lat="44.89691" lon="4.13733">
        <ele>1402</ele>
        <time>2021-04-29T11:25:29Z</time>
      </trkpt>
      <trkpt lat="44.8969" lon="4.13728">
        <ele>1401</ele>
        <time>2021-04-29T11:25:30Z</time>
      </trkpt>
      <trkpt lat="44.89689" lon="4.13724">
        <ele>1401</ele>
        <time>2021-04-29T11:25:31Z</time>
      </trkpt>
      <trkpt lat="44.89689" lon="4.13718">
        <ele>1401</ele>
        <time>2021-04-29T11:25:32Z</time>
      </trkpt>
      <trkpt lat="44.89689" lon="4.13711">
        <ele>1401</ele>
        <time>2021-04-29T11:25:33Z</time>
      </trkpt>
      <trkpt lat="44.89688" lon="4.13696">
        <ele>1401</ele>
        <time>2021-04-29T11:25:34Z</time>
      </trkpt>
      <trkpt lat="44.89688" lon="4.13688">
        <ele>1401</ele>
        <time>2021-04-29T11:25:35Z</time>
      </trkpt>
      <trkpt lat="44.89688" lon="4.1368">
        <ele>1401</ele>
        <time>2021-04-29T11:25:36Z</time>
      </trkpt>
      <trkpt lat="44.89688" lon="4.13673">
        <ele>1400</ele>
        <time>2021-04-29T11:25:37Z</time>
      </trkpt>
      <trkpt lat="44.89687" lon="4.13666">
        <ele>1400</ele>
        <time>2021-04-29T11:25:38Z</time>
      </trkpt>
      <trkpt lat="44.89687" lon="4.13658">
        <ele>1400</ele>
        <time>2021-04-29T11:25:39Z</time>
      </trkpt>
      <trkpt lat="44.89685" lon="4.13651">
        <ele>1400</ele>
        <time>2021-04-29T11:25:40Z</time>
      </trkpt>
      <trkpt lat="44.89684" lon="4.13644">
        <ele>1400</ele>
        <time>2021-04-29T11:25:41Z</time>
      </trkpt>
      <trkpt lat="44.89682" lon="4.13638">
        <ele>1400</ele>
        <time>2021-04-29T11:25:42Z</time>
      </trkpt>
      <trkpt lat="44.89681" lon="4.1363">
        <ele>1400</ele>
        <time>2021-04-29T11:25:44Z</time>
      </trkpt>
      <trkpt lat="44.89679" lon="4.13621">
        <ele>1400</ele>
        <time>2021-04-29T11:25:45Z</time>
      </trkpt>
      <trkpt lat="44.89675" lon="4.13613">
        <ele>1400</ele>
        <time>2021-04-29T11:25:46Z</time>
      </trkpt>
      <trkpt lat="44.89672" lon="4.13604">
        <ele>1400</ele>
        <time>2021-04-29T11:25:47Z</time>
      </trkpt>
      <trkpt lat="44.89669" lon="4.13595">
        <ele>1400</ele>
        <time>2021-04-29T11:25:48Z</time>
      </trkpt>
      <trkpt lat="44.89665" lon="4.13586">
        <ele>1400</ele>
        <time>2021-04-29T11:25:49Z</time>
      </trkpt>
      <trkpt lat="44.89663" lon="4.13577">
        <ele>1400</ele>
        <time>2021-04-29T11:25:50Z</time>
      </trkpt>
      <trkpt lat="44.89656" lon="4.13559">
        <ele>1400</ele>
        <time>2021-04-29T11:25:51Z</time>
      </trkpt>
      <trkpt lat="44.89652" lon="4.13551">
        <ele>1400</ele>
        <time>2021-04-29T11:25:52Z</time>
      </trkpt>
      <trkpt lat="44.89649" lon="4.13543">
        <ele>1399</ele>
        <time>2021-04-29T11:25:53Z</time>
      </trkpt>
      <trkpt lat="44.89646" lon="4.13535">
        <ele>1399</ele>
        <time>2021-04-29T11:25:54Z</time>
      </trkpt>
      <trkpt lat="44.89643" lon="4.13526">
        <ele>1399</ele>
        <time>2021-04-29T11:25:55Z</time>
      </trkpt>
      <trkpt lat="44.89639" lon="4.13518">
        <ele>1399</ele>
        <time>2021-04-29T11:25:56Z</time>
      </trkpt>
      <trkpt lat="44.89637" lon="4.13509">
        <ele>1398</ele>
        <time>2021-04-29T11:25:58Z</time>
      </trkpt>
      <trkpt lat="44.89635" lon="4.135">
        <ele>1398</ele>
        <time>2021-04-29T11:25:59Z</time>
      </trkpt>
      <trkpt lat="44.8963" lon="4.13482">
        <ele>1398</ele>
        <time>2021-04-29T11:26:00Z</time>
      </trkpt>
      <trkpt lat="44.89628" lon="4.13473">
        <ele>1397</ele>
        <time>2021-04-29T11:26:02Z</time>
      </trkpt>
      <trkpt lat="44.89625" lon="4.13465">
        <ele>1397</ele>
        <time>2021-04-29T11:26:03Z</time>
      </trkpt>
      <trkpt lat="44.89623" lon="4.13457">
        <ele>1397</ele>
        <time>2021-04-29T11:26:04Z</time>
      </trkpt>
      <trkpt lat="44.89618" lon="4.1344">
        <ele>1396</ele>
        <time>2021-04-29T11:26:05Z</time>
      </trkpt>
      <trkpt lat="44.89615" lon="4.13431">
        <ele>1396</ele>
        <time>2021-04-29T11:26:06Z</time>
      </trkpt>
      <trkpt lat="44.89612" lon="4.13423">
        <ele>1396</ele>
        <time>2021-04-29T11:26:07Z</time>
      </trkpt>
      <trkpt lat="44.89609" lon="4.13414">
        <ele>1395</ele>
        <time>2021-04-29T11:26:08Z</time>
      </trkpt>
      <trkpt lat="44.89607" lon="4.13405">
        <ele>1395</ele>
        <time>2021-04-29T11:26:09Z</time>
      </trkpt>
      <trkpt lat="44.89604" lon="4.13395">
        <ele>1394</ele>
        <time>2021-04-29T11:26:10Z</time>
      </trkpt>
      <trkpt lat="44.89601" lon="4.13386">
        <ele>1394</ele>
        <time>2021-04-29T11:26:11Z</time>
      </trkpt>
      <trkpt lat="44.89599" lon="4.13376">
        <ele>1394</ele>
        <time>2021-04-29T11:26:12Z</time>
      </trkpt>
      <trkpt lat="44.89597" lon="4.13368">
        <ele>1393</ele>
        <time>2021-04-29T11:26:14Z</time>
      </trkpt>
      <trkpt lat="44.89595" lon="4.13359">
        <ele>1392</ele>
        <time>2021-04-29T11:26:15Z</time>
      </trkpt>
      <trkpt lat="44.89592" lon="4.1335">
        <ele>1392</ele>
        <time>2021-04-29T11:26:16Z</time>
      </trkpt>
      <trkpt lat="44.89591" lon="4.13341">
        <ele>1392</ele>
        <time>2021-04-29T11:26:17Z</time>
      </trkpt>
      <trkpt lat="44.8959" lon="4.13333">
        <ele>1391</ele>
        <time>2021-04-29T11:26:18Z</time>
      </trkpt>
      <trkpt lat="44.89586" lon="4.13316">
        <ele>1391</ele>
        <time>2021-04-29T11:26:19Z</time>
      </trkpt>
      <trkpt lat="44.89584" lon="4.13307">
        <ele>1391</ele>
        <time>2021-04-29T11:26:20Z</time>
      </trkpt>
      <trkpt lat="44.89583" lon="4.13298">
        <ele>1390</ele>
        <time>2021-04-29T11:26:21Z</time>
      </trkpt>
      <trkpt lat="44.89582" lon="4.1329">
        <ele>1390</ele>
        <time>2021-04-29T11:26:22Z</time>
      </trkpt>
      <trkpt lat="44.8958" lon="4.13272">
        <ele>1389</ele>
        <time>2021-04-29T11:26:24Z</time>
      </trkpt>
      <trkpt lat="44.89578" lon="4.13263">
        <ele>1388</ele>
        <time>2021-04-29T11:26:25Z</time>
      </trkpt>
      <trkpt lat="44.89577" lon="4.13254">
        <ele>1388</ele>
        <time>2021-04-29T11:26:26Z</time>
      </trkpt>
      <trkpt lat="44.89575" lon="4.13236">
        <ele>1387</ele>
        <time>2021-04-29T11:26:28Z</time>
      </trkpt>
      <trkpt lat="44.89573" lon="4.13227">
        <ele>1387</ele>
        <time>2021-04-29T11:26:30Z</time>
      </trkpt>
      <trkpt lat="44.89572" lon="4.13219">
        <ele>1386</ele>
        <time>2021-04-29T11:26:31Z</time>
      </trkpt>
      <trkpt lat="44.8957" lon="4.1321">
        <ele>1386</ele>
        <time>2021-04-29T11:26:32Z</time>
      </trkpt>
      <trkpt lat="44.89569" lon="4.13201">
        <ele>1386</ele>
        <time>2021-04-29T11:26:33Z</time>
      </trkpt>
      <trkpt lat="44.89568" lon="4.13192">
        <ele>1385</ele>
        <time>2021-04-29T11:26:34Z</time>
      </trkpt>
      <trkpt lat="44.89567" lon="4.13184">
        <ele>1385</ele>
        <time>2021-04-29T11:26:35Z</time>
      </trkpt>
      <trkpt lat="44.89566" lon="4.13175">
        <ele>1385</ele>
        <time>2021-04-29T11:26:36Z</time>
      </trkpt>
      <trkpt lat="44.89564" lon="4.13166">
        <ele>1384</ele>
        <time>2021-04-29T11:26:37Z</time>
      </trkpt>
      <trkpt lat="44.89561" lon="4.1315">
        <ele>1384</ele>
        <time>2021-04-29T11:26:38Z</time>
      </trkpt>
      <trkpt lat="44.8956" lon="4.13142">
        <ele>1383</ele>
        <time>2021-04-29T11:26:40Z</time>
      </trkpt>
      <trkpt lat="44.89559" lon="4.13135">
        <ele>1382</ele>
        <time>2021-04-29T11:26:41Z</time>
      </trkpt>
      <trkpt lat="44.89558" lon="4.13126">
        <ele>1382</ele>
        <time>2021-04-29T11:26:42Z</time>
      </trkpt>
      <trkpt lat="44.89556" lon="4.13118">
        <ele>1381</ele>
        <time>2021-04-29T11:26:43Z</time>
      </trkpt>
      <trkpt lat="44.89555" lon="4.13103">
        <ele>1381</ele>
        <time>2021-04-29T11:26:44Z</time>
      </trkpt>
      <trkpt lat="44.89554" lon="4.13096">
        <ele>1380</ele>
        <time>2021-04-29T11:26:45Z</time>
      </trkpt>
      <trkpt lat="44.89551" lon="4.13092">
        <ele>1380</ele>
        <time>2021-04-29T11:26:46Z</time>
      </trkpt>
      <trkpt lat="44.89549" lon="4.13089">
        <ele>1380</ele>
        <time>2021-04-29T11:26:47Z</time>
      </trkpt>
      <trkpt lat="44.89548" lon="4.13086">
        <ele>1380</ele>
        <time>2021-04-29T11:26:50Z</time>
      </trkpt>
      <trkpt lat="44.89548" lon="4.13086">
        <ele>1380</ele>
        <time>2021-04-29T11:26:56Z</time>
      </trkpt>
      <trkpt lat="44.89546" lon="4.13086">
        <ele>1381</ele>
        <time>2021-04-29T11:28:15Z</time>
      </trkpt>
      <trkpt lat="44.89544" lon="4.13086">
        <ele>1381</ele>
        <time>2021-04-29T11:28:20Z</time>
      </trkpt>
      <trkpt lat="44.89541" lon="4.13089">
        <ele>1380</ele>
        <time>2021-04-29T11:28:22Z</time>
      </trkpt>
      <trkpt lat="44.8954" lon="4.13092">
        <ele>1380</ele>
        <time>2021-04-29T11:28:23Z</time>
      </trkpt>
      <trkpt lat="44.89539" lon="4.13095">
        <ele>1380</ele>
        <time>2021-04-29T11:28:24Z</time>
      </trkpt>
      <trkpt lat="44.89538" lon="4.13099">
        <ele>1380</ele>
        <time>2021-04-29T11:28:25Z</time>
      </trkpt>
      <trkpt lat="44.89536" lon="4.13103">
        <ele>1380</ele>
        <time>2021-04-29T11:28:26Z</time>
      </trkpt>
      <trkpt lat="44.89534" lon="4.13107">
        <ele>1380</ele>
        <time>2021-04-29T11:28:27Z</time>
      </trkpt>
      <trkpt lat="44.89532" lon="4.13112">
        <ele>1380</ele>
        <time>2021-04-29T11:28:28Z</time>
      </trkpt>
      <trkpt lat="44.8953" lon="4.13117">
        <ele>1380</ele>
        <time>2021-04-29T11:28:29Z</time>
      </trkpt>
      <trkpt lat="44.89524" lon="4.13127">
        <ele>1380</ele>
        <time>2021-04-29T11:28:30Z</time>
      </trkpt>
      <trkpt lat="44.89518" lon="4.13138">
        <ele>1380</ele>
        <time>2021-04-29T11:28:32Z</time>
      </trkpt>
      <trkpt lat="44.89514" lon="4.13143">
        <ele>1380</ele>
        <time>2021-04-29T11:28:33Z</time>
      </trkpt>
      <trkpt lat="44.89508" lon="4.13158">
        <ele>1380</ele>
        <time>2021-04-29T11:28:37Z</time>
      </trkpt>
      <trkpt lat="44.89503" lon="4.1317">
        <ele>1381</ele>
        <time>2021-04-29T11:28:39Z</time>
      </trkpt>
      <trkpt lat="44.89496" lon="4.13183">
        <ele>1381</ele>
        <time>2021-04-29T11:28:41Z</time>
      </trkpt>
      <trkpt lat="44.89488" lon="4.13196">
        <ele>1381</ele>
        <time>2021-04-29T11:28:43Z</time>
      </trkpt>
      <trkpt lat="44.89482" lon="4.13209">
        <ele>1381</ele>
        <time>2021-04-29T11:28:45Z</time>
      </trkpt>
      <trkpt lat="44.89476" lon="4.13221">
        <ele>1382</ele>
        <time>2021-04-29T11:28:47Z</time>
      </trkpt>
      <trkpt lat="44.89471" lon="4.13234">
        <ele>1382</ele>
        <time>2021-04-29T11:28:49Z</time>
      </trkpt>
      <trkpt lat="44.89465" lon="4.13247">
        <ele>1382</ele>
        <time>2021-04-29T11:28:50Z</time>
      </trkpt>
      <trkpt lat="44.8946" lon="4.1326">
        <ele>1382</ele>
        <time>2021-04-29T11:28:52Z</time>
      </trkpt>
      <trkpt lat="44.89454" lon="4.13271">
        <ele>1383</ele>
        <time>2021-04-29T11:28:54Z</time>
      </trkpt>
      <trkpt lat="44.89448" lon="4.13282">
        <ele>1383</ele>
        <time>2021-04-29T11:28:56Z</time>
      </trkpt>
      <trkpt lat="44.89442" lon="4.13293">
        <ele>1383</ele>
        <time>2021-04-29T11:28:58Z</time>
      </trkpt>
      <trkpt lat="44.89437" lon="4.13304">
        <ele>1384</ele>
        <time>2021-04-29T11:29:01Z</time>
      </trkpt>
      <trkpt lat="44.89431" lon="4.13315">
        <ele>1385</ele>
        <time>2021-04-29T11:29:03Z</time>
      </trkpt>
      <trkpt lat="44.89428" lon="4.13321">
        <ele>1385</ele>
        <time>2021-04-29T11:29:04Z</time>
      </trkpt>
      <trkpt lat="44.89425" lon="4.13326">
        <ele>1385</ele>
        <time>2021-04-29T11:29:05Z</time>
      </trkpt>
      <trkpt lat="44.89422" lon="4.13331">
        <ele>1385</ele>
        <time>2021-04-29T11:29:06Z</time>
      </trkpt>
      <trkpt lat="44.8942" lon="4.13337">
        <ele>1385</ele>
        <time>2021-04-29T11:29:07Z</time>
      </trkpt>
      <trkpt lat="44.89417" lon="4.13342">
        <ele>1385</ele>
        <time>2021-04-29T11:29:08Z</time>
      </trkpt>
      <trkpt lat="44.89414" lon="4.13347">
        <ele>1386</ele>
        <time>2021-04-29T11:29:09Z</time>
      </trkpt>
      <trkpt lat="44.89408" lon="4.13355">
        <ele>1386</ele>
        <time>2021-04-29T11:29:10Z</time>
      </trkpt>
      <trkpt lat="44.89406" lon="4.13356">
        <ele>1386</ele>
        <time>2021-04-29T11:29:11Z</time>
      </trkpt>
      <trkpt lat="44.89405" lon="4.13353">
        <ele>1386</ele>
        <time>2021-04-29T11:29:13Z</time>
      </trkpt>
      <trkpt lat="44.89405" lon="4.1335">
        <ele>1386</ele>
        <time>2021-04-29T11:29:14Z</time>
      </trkpt>
      <trkpt lat="44.89403" lon="4.13346">
        <ele>1386</ele>
        <time>2021-04-29T11:29:15Z</time>
      </trkpt>
      <trkpt lat="44.89401" lon="4.13342">
        <ele>1386</ele>
        <time>2021-04-29T11:29:16Z</time>
      </trkpt>
      <trkpt lat="44.89399" lon="4.13339">
        <ele>1386</ele>
        <time>2021-04-29T11:29:17Z</time>
      </trkpt>
      <trkpt lat="44.89397" lon="4.13335">
        <ele>1386</ele>
        <time>2021-04-29T11:29:18Z</time>
      </trkpt>
      <trkpt lat="44.89394" lon="4.13332">
        <ele>1386</ele>
        <time>2021-04-29T11:29:19Z</time>
      </trkpt>
      <trkpt lat="44.89389" lon="4.13329">
        <ele>1386</ele>
        <time>2021-04-29T11:29:20Z</time>
      </trkpt>
      <trkpt lat="44.89385" lon="4.13326">
        <ele>1386</ele>
        <time>2021-04-29T11:29:21Z</time>
      </trkpt>
      <trkpt lat="44.89374" lon="4.13317">
        <ele>1387</ele>
        <time>2021-04-29T11:29:23Z</time>
      </trkpt>
      <trkpt lat="44.89368" lon="4.13312">
        <ele>1387</ele>
        <time>2021-04-29T11:29:25Z</time>
      </trkpt>
      <trkpt lat="44.89363" lon="4.13307">
        <ele>1387</ele>
        <time>2021-04-29T11:29:26Z</time>
      </trkpt>
      <trkpt lat="44.89358" lon="4.13302">
        <ele>1387</ele>
        <time>2021-04-29T11:29:27Z</time>
      </trkpt>
      <trkpt lat="44.89352" lon="4.13297">
        <ele>1386</ele>
        <time>2021-04-29T11:29:28Z</time>
      </trkpt>
      <trkpt lat="44.89347" lon="4.13292">
        <ele>1386</ele>
        <time>2021-04-29T11:29:29Z</time>
      </trkpt>
      <trkpt lat="44.89341" lon="4.13287">
        <ele>1386</ele>
        <time>2021-04-29T11:29:30Z</time>
      </trkpt>
      <trkpt lat="44.89336" lon="4.13282">
        <ele>1386</ele>
        <time>2021-04-29T11:29:31Z</time>
      </trkpt>
      <trkpt lat="44.89331" lon="4.13277">
        <ele>1386</ele>
        <time>2021-04-29T11:29:32Z</time>
      </trkpt>
      <trkpt lat="44.89325" lon="4.13273">
        <ele>1386</ele>
        <time>2021-04-29T11:29:33Z</time>
      </trkpt>
      <trkpt lat="44.89319" lon="4.13268">
        <ele>1386</ele>
        <time>2021-04-29T11:29:34Z</time>
      </trkpt>
      <trkpt lat="44.89313" lon="4.13264">
        <ele>1385</ele>
        <time>2021-04-29T11:29:35Z</time>
      </trkpt>
      <trkpt lat="44.89307" lon="4.1326">
        <ele>1385</ele>
        <time>2021-04-29T11:29:36Z</time>
      </trkpt>
      <trkpt lat="44.89303" lon="4.13254">
        <ele>1385</ele>
        <time>2021-04-29T11:29:37Z</time>
      </trkpt>
      <trkpt lat="44.89298" lon="4.13249">
        <ele>1385</ele>
        <time>2021-04-29T11:29:38Z</time>
      </trkpt>
      <trkpt lat="44.89289" lon="4.13237">
        <ele>1385</ele>
        <time>2021-04-29T11:29:39Z</time>
      </trkpt>
      <trkpt lat="44.89285" lon="4.1323">
        <ele>1385</ele>
        <time>2021-04-29T11:29:40Z</time>
      </trkpt>
      <trkpt lat="44.89281" lon="4.13223">
        <ele>1385</ele>
        <time>2021-04-29T11:29:41Z</time>
      </trkpt>
      <trkpt lat="44.89278" lon="4.13217">
        <ele>1385</ele>
        <time>2021-04-29T11:29:42Z</time>
      </trkpt>
      <trkpt lat="44.89274" lon="4.1321">
        <ele>1385</ele>
        <time>2021-04-29T11:29:43Z</time>
      </trkpt>
      <trkpt lat="44.89268" lon="4.13197">
        <ele>1385</ele>
        <time>2021-04-29T11:29:45Z</time>
      </trkpt>
      <trkpt lat="44.89263" lon="4.13185">
        <ele>1385</ele>
        <time>2021-04-29T11:29:47Z</time>
      </trkpt>
      <trkpt lat="44.89259" lon="4.1317">
        <ele>1385</ele>
        <time>2021-04-29T11:29:50Z</time>
      </trkpt>
      <trkpt lat="44.89258" lon="4.13153">
        <ele>1385</ele>
        <time>2021-04-29T11:29:51Z</time>
      </trkpt>
      <trkpt lat="44.89258" lon="4.13135">
        <ele>1385</ele>
        <time>2021-04-29T11:29:54Z</time>
      </trkpt>
      <trkpt lat="44.89258" lon="4.13121">
        <ele>1385</ele>
        <time>2021-04-29T11:29:56Z</time>
      </trkpt>
      <trkpt lat="44.89258" lon="4.13105">
        <ele>1385</ele>
        <time>2021-04-29T11:29:58Z</time>
      </trkpt>
      <trkpt lat="44.89257" lon="4.13087">
        <ele>1386</ele>
        <time>2021-04-29T11:29:59Z</time>
      </trkpt>
      <trkpt lat="44.89257" lon="4.1307">
        <ele>1386</ele>
        <time>2021-04-29T11:30:02Z</time>
      </trkpt>
      <trkpt lat="44.89256" lon="4.13056">
        <ele>1386</ele>
        <time>2021-04-29T11:30:04Z</time>
      </trkpt>
      <trkpt lat="44.89256" lon="4.13042">
        <ele>1387</ele>
        <time>2021-04-29T11:30:06Z</time>
      </trkpt>
      <trkpt lat="44.89254" lon="4.13029">
        <ele>1387</ele>
        <time>2021-04-29T11:30:07Z</time>
      </trkpt>
      <trkpt lat="44.89253" lon="4.13015">
        <ele>1387</ele>
        <time>2021-04-29T11:30:09Z</time>
      </trkpt>
      <trkpt lat="44.89252" lon="4.13001">
        <ele>1388</ele>
        <time>2021-04-29T11:30:11Z</time>
      </trkpt>
      <trkpt lat="44.89251" lon="4.12987">
        <ele>1389</ele>
        <time>2021-04-29T11:30:14Z</time>
      </trkpt>
      <trkpt lat="44.89252" lon="4.12974">
        <ele>1389</ele>
        <time>2021-04-29T11:30:15Z</time>
      </trkpt>
      <trkpt lat="44.89252" lon="4.12961">
        <ele>1389</ele>
        <time>2021-04-29T11:30:17Z</time>
      </trkpt>
      <trkpt lat="44.89252" lon="4.12948">
        <ele>1390</ele>
        <time>2021-04-29T11:30:19Z</time>
      </trkpt>
      <trkpt lat="44.89253" lon="4.12941">
        <ele>1390</ele>
        <time>2021-04-29T11:30:20Z</time>
      </trkpt>
      <trkpt lat="44.89253" lon="4.12934">
        <ele>1390</ele>
        <time>2021-04-29T11:30:21Z</time>
      </trkpt>
      <trkpt lat="44.89251" lon="4.12928">
        <ele>1390</ele>
        <time>2021-04-29T11:30:22Z</time>
      </trkpt>
      <trkpt lat="44.8925" lon="4.12922">
        <ele>1390</ele>
        <time>2021-04-29T11:30:23Z</time>
      </trkpt>
      <trkpt lat="44.89248" lon="4.12916">
        <ele>1390</ele>
        <time>2021-04-29T11:30:24Z</time>
      </trkpt>
      <trkpt lat="44.89247" lon="4.12909">
        <ele>1391</ele>
        <time>2021-04-29T11:30:25Z</time>
      </trkpt>
      <trkpt lat="44.89243" lon="4.12903">
        <ele>1391</ele>
        <time>2021-04-29T11:30:26Z</time>
      </trkpt>
      <trkpt lat="44.89238" lon="4.12891">
        <ele>1392</ele>
        <time>2021-04-29T11:30:29Z</time>
      </trkpt>
      <trkpt lat="44.89232" lon="4.12878">
        <ele>1393</ele>
        <time>2021-04-29T11:30:31Z</time>
      </trkpt>
      <trkpt lat="44.8923" lon="4.12872">
        <ele>1393</ele>
        <time>2021-04-29T11:30:32Z</time>
      </trkpt>
      <trkpt lat="44.89229" lon="4.12866">
        <ele>1393</ele>
        <time>2021-04-29T11:30:33Z</time>
      </trkpt>
      <trkpt lat="44.89228" lon="4.1286">
        <ele>1393</ele>
        <time>2021-04-29T11:30:34Z</time>
      </trkpt>
      <trkpt lat="44.89227" lon="4.12853">
        <ele>1394</ele>
        <time>2021-04-29T11:30:35Z</time>
      </trkpt>
      <trkpt lat="44.89226" lon="4.1284">
        <ele>1394</ele>
        <time>2021-04-29T11:30:37Z</time>
      </trkpt>
      <trkpt lat="44.89226" lon="4.12833">
        <ele>1395</ele>
        <time>2021-04-29T11:30:38Z</time>
      </trkpt>
      <trkpt lat="44.89225" lon="4.12827">
        <ele>1395</ele>
        <time>2021-04-29T11:30:39Z</time>
      </trkpt>
      <trkpt lat="44.89225" lon="4.1282">
        <ele>1395</ele>
        <time>2021-04-29T11:30:40Z</time>
      </trkpt>
      <trkpt lat="44.89224" lon="4.12806">
        <ele>1396</ele>
        <time>2021-04-29T11:30:42Z</time>
      </trkpt>
      <trkpt lat="44.89224" lon="4.12798">
        <ele>1396</ele>
        <time>2021-04-29T11:30:43Z</time>
      </trkpt>
      <trkpt lat="44.89225" lon="4.12784">
        <ele>1397</ele>
        <time>2021-04-29T11:30:45Z</time>
      </trkpt>
      <trkpt lat="44.89227" lon="4.12769">
        <ele>1397</ele>
        <time>2021-04-29T11:30:47Z</time>
      </trkpt>
      <trkpt lat="44.89228" lon="4.12754">
        <ele>1397</ele>
        <time>2021-04-29T11:30:48Z</time>
      </trkpt>
      <trkpt lat="44.89228" lon="4.12739">
        <ele>1398</ele>
        <time>2021-04-29T11:30:51Z</time>
      </trkpt>
      <trkpt lat="44.89229" lon="4.12724">
        <ele>1398</ele>
        <time>2021-04-29T11:30:52Z</time>
      </trkpt>
      <trkpt lat="44.8923" lon="4.1271">
        <ele>1398</ele>
        <time>2021-04-29T11:30:54Z</time>
      </trkpt>
      <trkpt lat="44.89232" lon="4.12696">
        <ele>1398</ele>
        <time>2021-04-29T11:30:56Z</time>
      </trkpt>
      <trkpt lat="44.89235" lon="4.12683">
        <ele>1399</ele>
        <time>2021-04-29T11:30:59Z</time>
      </trkpt>
      <trkpt lat="44.8924" lon="4.12671">
        <ele>1399</ele>
        <time>2021-04-29T11:31:01Z</time>
      </trkpt>
      <trkpt lat="44.89248" lon="4.12658">
        <ele>1400</ele>
        <time>2021-04-29T11:31:04Z</time>
      </trkpt>
      <trkpt lat="44.89258" lon="4.12644">
        <ele>1400</ele>
        <time>2021-04-29T11:31:07Z</time>
      </trkpt>
      <trkpt lat="44.89265" lon="4.12636">
        <ele>1402</ele>
        <time>2021-04-29T11:31:09Z</time>
      </trkpt>
      <trkpt lat="44.89269" lon="4.12633">
        <ele>1403</ele>
        <time>2021-04-29T11:31:10Z</time>
      </trkpt>
      <trkpt lat="44.89273" lon="4.1263">
        <ele>1403</ele>
        <time>2021-04-29T11:31:11Z</time>
      </trkpt>
      <trkpt lat="44.89278" lon="4.12627">
        <ele>1403</ele>
        <time>2021-04-29T11:31:12Z</time>
      </trkpt>
      <trkpt lat="44.89282" lon="4.12624">
        <ele>1404</ele>
        <time>2021-04-29T11:31:13Z</time>
      </trkpt>
      <trkpt lat="44.89286" lon="4.12622">
        <ele>1404</ele>
        <time>2021-04-29T11:31:14Z</time>
      </trkpt>
      <trkpt lat="44.89292" lon="4.12619">
        <ele>1405</ele>
        <time>2021-04-29T11:31:15Z</time>
      </trkpt>
      <trkpt lat="44.89298" lon="4.12614">
        <ele>1405</ele>
        <time>2021-04-29T11:31:16Z</time>
      </trkpt>
      <trkpt lat="44.89302" lon="4.12608">
        <ele>1405</ele>
        <time>2021-04-29T11:31:17Z</time>
      </trkpt>
      <trkpt lat="44.89306" lon="4.12602">
        <ele>1406</ele>
        <time>2021-04-29T11:31:18Z</time>
      </trkpt>
      <trkpt lat="44.89308" lon="4.12594">
        <ele>1406</ele>
        <time>2021-04-29T11:31:19Z</time>
      </trkpt>
      <trkpt lat="44.89311" lon="4.12587">
        <ele>1406</ele>
        <time>2021-04-29T11:31:20Z</time>
      </trkpt>
      <trkpt lat="44.89316" lon="4.12572">
        <ele>1407</ele>
        <time>2021-04-29T11:31:22Z</time>
      </trkpt>
      <trkpt lat="44.89317" lon="4.12564">
        <ele>1407</ele>
        <time>2021-04-29T11:31:23Z</time>
      </trkpt>
      <trkpt lat="44.89319" lon="4.12557">
        <ele>1408</ele>
        <time>2021-04-29T11:31:24Z</time>
      </trkpt>
      <trkpt lat="44.89322" lon="4.1255">
        <ele>1408</ele>
        <time>2021-04-29T11:31:25Z</time>
      </trkpt>
      <trkpt lat="44.89323" lon="4.12544">
        <ele>1408</ele>
        <time>2021-04-29T11:31:26Z</time>
      </trkpt>
      <trkpt lat="44.89325" lon="4.12538">
        <ele>1409</ele>
        <time>2021-04-29T11:31:27Z</time>
      </trkpt>
      <trkpt lat="44.89328" lon="4.1252">
        <ele>1410</ele>
        <time>2021-04-29T11:31:30Z</time>
      </trkpt>
      <trkpt lat="44.8933" lon="4.12503">
        <ele>1411</ele>
        <time>2021-04-29T11:31:33Z</time>
      </trkpt>
      <trkpt lat="44.89334" lon="4.12488">
        <ele>1411</ele>
        <time>2021-04-29T11:31:36Z</time>
      </trkpt>
      <trkpt lat="44.89333" lon="4.12471">
        <ele>1412</ele>
        <time>2021-04-29T11:31:39Z</time>
      </trkpt>
      <trkpt lat="44.89334" lon="4.12454">
        <ele>1414</ele>
        <time>2021-04-29T11:31:42Z</time>
      </trkpt>
      <trkpt lat="44.89337" lon="4.12439">
        <ele>1415</ele>
        <time>2021-04-29T11:31:45Z</time>
      </trkpt>
      <trkpt lat="44.89344" lon="4.12424">
        <ele>1415</ele>
        <time>2021-04-29T11:31:48Z</time>
      </trkpt>
      <trkpt lat="44.89351" lon="4.1241">
        <ele>1416</ele>
        <time>2021-04-29T11:31:51Z</time>
      </trkpt>
      <trkpt lat="44.89352" lon="4.12393">
        <ele>1417</ele>
        <time>2021-04-29T11:31:54Z</time>
      </trkpt>
      <trkpt lat="44.89346" lon="4.12382">
        <ele>1418</ele>
        <time>2021-04-29T11:31:57Z</time>
      </trkpt>
      <trkpt lat="44.89335" lon="4.12383">
        <ele>1418</ele>
        <time>2021-04-29T11:32:00Z</time>
      </trkpt>
      <trkpt lat="44.89326" lon="4.12384">
        <ele>1419</ele>
        <time>2021-04-29T11:32:03Z</time>
      </trkpt>
      <trkpt lat="44.89314" lon="4.12379">
        <ele>1419</ele>
        <time>2021-04-29T11:32:07Z</time>
      </trkpt>
      <trkpt lat="44.89302" lon="4.12378">
        <ele>1419</ele>
        <time>2021-04-29T11:32:09Z</time>
      </trkpt>
      <trkpt lat="44.89291" lon="4.1238">
        <ele>1419</ele>
        <time>2021-04-29T11:32:11Z</time>
      </trkpt>
      <trkpt lat="44.89279" lon="4.12382">
        <ele>1419</ele>
        <time>2021-04-29T11:32:13Z</time>
      </trkpt>
      <trkpt lat="44.89269" lon="4.12381">
        <ele>1420</ele>
        <time>2021-04-29T11:32:15Z</time>
      </trkpt>
      <trkpt lat="44.89259" lon="4.12375">
        <ele>1421</ele>
        <time>2021-04-29T11:32:19Z</time>
      </trkpt>
      <trkpt lat="44.89249" lon="4.12365">
        <ele>1422</ele>
        <time>2021-04-29T11:32:22Z</time>
      </trkpt>
      <trkpt lat="44.89239" lon="4.12358">
        <ele>1423</ele>
        <time>2021-04-29T11:32:23Z</time>
      </trkpt>
      <trkpt lat="44.89231" lon="4.12351">
        <ele>1423</ele>
        <time>2021-04-29T11:32:26Z</time>
      </trkpt>
      <trkpt lat="44.89223" lon="4.12339">
        <ele>1424</ele>
        <time>2021-04-29T11:32:28Z</time>
      </trkpt>
      <trkpt lat="44.89219" lon="4.12327">
        <ele>1425</ele>
        <time>2021-04-29T11:32:30Z</time>
      </trkpt>
      <trkpt lat="44.89212" lon="4.12312">
        <ele>1426</ele>
        <time>2021-04-29T11:32:33Z</time>
      </trkpt>
      <trkpt lat="44.89203" lon="4.12299">
        <ele>1427</ele>
        <time>2021-04-29T11:32:36Z</time>
      </trkpt>
      <trkpt lat="44.89195" lon="4.12291">
        <ele>1428</ele>
        <time>2021-04-29T11:32:38Z</time>
      </trkpt>
      <trkpt lat="44.89187" lon="4.12282">
        <ele>1428</ele>
        <time>2021-04-29T11:32:39Z</time>
      </trkpt>
      <trkpt lat="44.89175" lon="4.12272">
        <ele>1429</ele>
        <time>2021-04-29T11:32:42Z</time>
      </trkpt>
      <trkpt lat="44.89165" lon="4.12263">
        <ele>1429</ele>
        <time>2021-04-29T11:32:43Z</time>
      </trkpt>
      <trkpt lat="44.89162" lon="4.12257">
        <ele>1430</ele>
        <time>2021-04-29T11:32:44Z</time>
      </trkpt>
      <trkpt lat="44.89159" lon="4.1225">
        <ele>1430</ele>
        <time>2021-04-29T11:32:45Z</time>
      </trkpt>
      <trkpt lat="44.89159" lon="4.12244">
        <ele>1431</ele>
        <time>2021-04-29T11:32:47Z</time>
      </trkpt>
      <trkpt lat="44.8916" lon="4.12238">
        <ele>1431</ele>
        <time>2021-04-29T11:32:48Z</time>
      </trkpt>
      <trkpt lat="44.89162" lon="4.12232">
        <ele>1431</ele>
        <time>2021-04-29T11:32:49Z</time>
      </trkpt>
      <trkpt lat="44.89165" lon="4.12227">
        <ele>1432</ele>
        <time>2021-04-29T11:32:50Z</time>
      </trkpt>
      <trkpt lat="44.89168" lon="4.12222">
        <ele>1432</ele>
        <time>2021-04-29T11:32:51Z</time>
      </trkpt>
      <trkpt lat="44.89171" lon="4.12218">
        <ele>1432</ele>
        <time>2021-04-29T11:32:52Z</time>
      </trkpt>
      <trkpt lat="44.89174" lon="4.12214">
        <ele>1432</ele>
        <time>2021-04-29T11:32:53Z</time>
      </trkpt>
      <trkpt lat="44.89177" lon="4.1221">
        <ele>1433</ele>
        <time>2021-04-29T11:32:54Z</time>
      </trkpt>
      <trkpt lat="44.8918" lon="4.12204">
        <ele>1433</ele>
        <time>2021-04-29T11:32:55Z</time>
      </trkpt>
      <trkpt lat="44.89183" lon="4.12199">
        <ele>1433</ele>
        <time>2021-04-29T11:32:56Z</time>
      </trkpt>
      <trkpt lat="44.89185" lon="4.12193">
        <ele>1433</ele>
        <time>2021-04-29T11:32:57Z</time>
      </trkpt>
      <trkpt lat="44.89187" lon="4.12186">
        <ele>1434</ele>
        <time>2021-04-29T11:32:58Z</time>
      </trkpt>
      <trkpt lat="44.89188" lon="4.1218">
        <ele>1434</ele>
        <time>2021-04-29T11:32:59Z</time>
      </trkpt>
      <trkpt lat="44.89189" lon="4.12174">
        <ele>1434</ele>
        <time>2021-04-29T11:33:00Z</time>
      </trkpt>
      <trkpt lat="44.89189" lon="4.1216">
        <ele>1435</ele>
        <time>2021-04-29T11:33:01Z</time>
      </trkpt>
      <trkpt lat="44.89189" lon="4.12153">
        <ele>1437</ele>
        <time>2021-04-29T11:33:03Z</time>
      </trkpt>
      <trkpt lat="44.8919" lon="4.12145">
        <ele>1437</ele>
        <time>2021-04-29T11:33:04Z</time>
      </trkpt>
      <trkpt lat="44.89191" lon="4.12138">
        <ele>1438</ele>
        <time>2021-04-29T11:33:05Z</time>
      </trkpt>
      <trkpt lat="44.89191" lon="4.1213">
        <ele>1438</ele>
        <time>2021-04-29T11:33:06Z</time>
      </trkpt>
      <trkpt lat="44.89192" lon="4.12122">
        <ele>1439</ele>
        <time>2021-04-29T11:33:07Z</time>
      </trkpt>
      <trkpt lat="44.89192" lon="4.12107">
        <ele>1440</ele>
        <time>2021-04-29T11:33:08Z</time>
      </trkpt>
      <trkpt lat="44.89193" lon="4.121">
        <ele>1441</ele>
        <time>2021-04-29T11:33:09Z</time>
      </trkpt>
      <trkpt lat="44.89194" lon="4.12085">
        <ele>1441</ele>
        <time>2021-04-29T11:33:11Z</time>
      </trkpt>
      <trkpt lat="44.89195" lon="4.12077">
        <ele>1442</ele>
        <time>2021-04-29T11:33:13Z</time>
      </trkpt>
      <trkpt lat="44.89195" lon="4.1207">
        <ele>1443</ele>
        <time>2021-04-29T11:33:14Z</time>
      </trkpt>
      <trkpt lat="44.89196" lon="4.12062">
        <ele>1444</ele>
        <time>2021-04-29T11:33:15Z</time>
      </trkpt>
      <trkpt lat="44.89197" lon="4.12056">
        <ele>1444</ele>
        <time>2021-04-29T11:33:16Z</time>
      </trkpt>
      <trkpt lat="44.89198" lon="4.12049">
        <ele>1445</ele>
        <time>2021-04-29T11:33:17Z</time>
      </trkpt>
      <trkpt lat="44.89199" lon="4.12042">
        <ele>1445</ele>
        <time>2021-04-29T11:33:18Z</time>
      </trkpt>
      <trkpt lat="44.892" lon="4.12035">
        <ele>1445</ele>
        <time>2021-04-29T11:33:19Z</time>
      </trkpt>
      <trkpt lat="44.89201" lon="4.12021">
        <ele>1446</ele>
        <time>2021-04-29T11:33:20Z</time>
      </trkpt>
      <trkpt lat="44.89202" lon="4.12014">
        <ele>1447</ele>
        <time>2021-04-29T11:33:22Z</time>
      </trkpt>
      <trkpt lat="44.89203" lon="4.12007">
        <ele>1447</ele>
        <time>2021-04-29T11:33:23Z</time>
      </trkpt>
      <trkpt lat="44.89204" lon="4.11999">
        <ele>1447</ele>
        <time>2021-04-29T11:33:24Z</time>
      </trkpt>
      <trkpt lat="44.89205" lon="4.11992">
        <ele>1448</ele>
        <time>2021-04-29T11:33:25Z</time>
      </trkpt>
      <trkpt lat="44.89206" lon="4.11984">
        <ele>1448</ele>
        <time>2021-04-29T11:33:26Z</time>
      </trkpt>
      <trkpt lat="44.89206" lon="4.11976">
        <ele>1449</ele>
        <time>2021-04-29T11:33:27Z</time>
      </trkpt>
      <trkpt lat="44.89206" lon="4.11968">
        <ele>1450</ele>
        <time>2021-04-29T11:33:28Z</time>
      </trkpt>
      <trkpt lat="44.89207" lon="4.1196">
        <ele>1450</ele>
        <time>2021-04-29T11:33:29Z</time>
      </trkpt>
      <trkpt lat="44.89208" lon="4.11945">
        <ele>1451</ele>
        <time>2021-04-29T11:33:30Z</time>
      </trkpt>
      <trkpt lat="44.89209" lon="4.11937">
        <ele>1452</ele>
        <time>2021-04-29T11:33:32Z</time>
      </trkpt>
      <trkpt lat="44.89209" lon="4.11929">
        <ele>1452</ele>
        <time>2021-04-29T11:33:33Z</time>
      </trkpt>
      <trkpt lat="44.8921" lon="4.11922">
        <ele>1452</ele>
        <time>2021-04-29T11:33:34Z</time>
      </trkpt>
      <trkpt lat="44.89211" lon="4.11914">
        <ele>1453</ele>
        <time>2021-04-29T11:33:35Z</time>
      </trkpt>
      <trkpt lat="44.89211" lon="4.11906">
        <ele>1453</ele>
        <time>2021-04-29T11:33:36Z</time>
      </trkpt>
      <trkpt lat="44.89212" lon="4.11899">
        <ele>1453</ele>
        <time>2021-04-29T11:33:37Z</time>
      </trkpt>
      <trkpt lat="44.89212" lon="4.11882">
        <ele>1453</ele>
        <time>2021-04-29T11:33:38Z</time>
      </trkpt>
      <trkpt lat="44.89211" lon="4.11874">
        <ele>1454</ele>
        <time>2021-04-29T11:33:39Z</time>
      </trkpt>
      <trkpt lat="44.8921" lon="4.11865">
        <ele>1453</ele>
        <time>2021-04-29T11:33:41Z</time>
      </trkpt>
      <trkpt lat="44.89209" lon="4.11856">
        <ele>1453</ele>
        <time>2021-04-29T11:33:42Z</time>
      </trkpt>
      <trkpt lat="44.89206" lon="4.11839">
        <ele>1453</ele>
        <time>2021-04-29T11:33:43Z</time>
      </trkpt>
      <trkpt lat="44.89205" lon="4.1183">
        <ele>1453</ele>
        <time>2021-04-29T11:33:45Z</time>
      </trkpt>
      <trkpt lat="44.89204" lon="4.11822">
        <ele>1453</ele>
        <time>2021-04-29T11:33:46Z</time>
      </trkpt>
      <trkpt lat="44.89203" lon="4.11813">
        <ele>1453</ele>
        <time>2021-04-29T11:33:47Z</time>
      </trkpt>
      <trkpt lat="44.89202" lon="4.11804">
        <ele>1453</ele>
        <time>2021-04-29T11:33:48Z</time>
      </trkpt>
      <trkpt lat="44.89201" lon="4.11795">
        <ele>1453</ele>
        <time>2021-04-29T11:33:49Z</time>
      </trkpt>
      <trkpt lat="44.892" lon="4.11786">
        <ele>1453</ele>
        <time>2021-04-29T11:33:50Z</time>
      </trkpt>
      <trkpt lat="44.89199" lon="4.11777">
        <ele>1453</ele>
        <time>2021-04-29T11:33:51Z</time>
      </trkpt>
      <trkpt lat="44.89198" lon="4.11769">
        <ele>1453</ele>
        <time>2021-04-29T11:33:52Z</time>
      </trkpt>
      <trkpt lat="44.89198" lon="4.1176">
        <ele>1453</ele>
        <time>2021-04-29T11:33:53Z</time>
      </trkpt>
      <trkpt lat="44.89197" lon="4.11751">
        <ele>1454</ele>
        <time>2021-04-29T11:33:54Z</time>
      </trkpt>
      <trkpt lat="44.89197" lon="4.11742">
        <ele>1454</ele>
        <time>2021-04-29T11:33:55Z</time>
      </trkpt>
      <trkpt lat="44.89197" lon="4.11734">
        <ele>1454</ele>
        <time>2021-04-29T11:33:56Z</time>
      </trkpt>
      <trkpt lat="44.89199" lon="4.11726">
        <ele>1454</ele>
        <time>2021-04-29T11:33:57Z</time>
      </trkpt>
      <trkpt lat="44.89205" lon="4.11713">
        <ele>1454</ele>
        <time>2021-04-29T11:33:58Z</time>
      </trkpt>
      <trkpt lat="44.89208" lon="4.11708">
        <ele>1454</ele>
        <time>2021-04-29T11:33:59Z</time>
      </trkpt>
      <trkpt lat="44.89211" lon="4.11701">
        <ele>1455</ele>
        <time>2021-04-29T11:34:01Z</time>
      </trkpt>
      <trkpt lat="44.89213" lon="4.11696">
        <ele>1455</ele>
        <time>2021-04-29T11:34:02Z</time>
      </trkpt>
      <trkpt lat="44.89215" lon="4.11691">
        <ele>1455</ele>
        <time>2021-04-29T11:34:03Z</time>
      </trkpt>
      <trkpt lat="44.89214" lon="4.11687">
        <ele>1455</ele>
        <time>2021-04-29T11:34:04Z</time>
      </trkpt>
      <trkpt lat="44.89213" lon="4.11682">
        <ele>1455</ele>
        <time>2021-04-29T11:34:05Z</time>
      </trkpt>
      <trkpt lat="44.89211" lon="4.11678">
        <ele>1455</ele>
        <time>2021-04-29T11:34:06Z</time>
      </trkpt>
      <trkpt lat="44.89207" lon="4.11673">
        <ele>1455</ele>
        <time>2021-04-29T11:34:07Z</time>
      </trkpt>
      <trkpt lat="44.89203" lon="4.11668">
        <ele>1455</ele>
        <time>2021-04-29T11:34:08Z</time>
      </trkpt>
      <trkpt lat="44.89196" lon="4.11661">
        <ele>1455</ele>
        <time>2021-04-29T11:34:09Z</time>
      </trkpt>
      <trkpt lat="44.89189" lon="4.11653">
        <ele>1454</ele>
        <time>2021-04-29T11:34:10Z</time>
      </trkpt>
      <trkpt lat="44.89182" lon="4.11646">
        <ele>1454</ele>
        <time>2021-04-29T11:34:11Z</time>
      </trkpt>
      <trkpt lat="44.89176" lon="4.11639">
        <ele>1454</ele>
        <time>2021-04-29T11:34:12Z</time>
      </trkpt>
      <trkpt lat="44.89168" lon="4.11632">
        <ele>1454</ele>
        <time>2021-04-29T11:34:13Z</time>
      </trkpt>
      <trkpt lat="44.89161" lon="4.11625">
        <ele>1453</ele>
        <time>2021-04-29T11:34:14Z</time>
      </trkpt>
      <trkpt lat="44.89154" lon="4.11618">
        <ele>1453</ele>
        <time>2021-04-29T11:34:15Z</time>
      </trkpt>
      <trkpt lat="44.89145" lon="4.1161">
        <ele>1453</ele>
        <time>2021-04-29T11:34:16Z</time>
      </trkpt>
      <trkpt lat="44.89128" lon="4.11597">
        <ele>1453</ele>
        <time>2021-04-29T11:34:17Z</time>
      </trkpt>
      <trkpt lat="44.89114" lon="4.11594">
        <ele>1453</ele>
        <time>2021-04-29T11:34:20Z</time>
      </trkpt>
      <trkpt lat="44.89101" lon="4.11603">
        <ele>1453</ele>
        <time>2021-04-29T11:34:22Z</time>
      </trkpt>
      <trkpt lat="44.89092" lon="4.11607">
        <ele>1453</ele>
        <time>2021-04-29T11:34:24Z</time>
      </trkpt>
      <trkpt lat="44.89091" lon="4.11606">
        <ele>1454</ele>
        <time>2021-04-29T11:34:28Z</time>
      </trkpt>
      <trkpt lat="44.89087" lon="4.11607">
        <ele>1455</ele>
        <time>2021-04-29T11:34:45Z</time>
      </trkpt>
      <trkpt lat="44.89085" lon="4.11609">
        <ele>1455</ele>
        <time>2021-04-29T11:34:46Z</time>
      </trkpt>
      <trkpt lat="44.89083" lon="4.11609">
        <ele>1455</ele>
        <time>2021-04-29T11:34:51Z</time>
      </trkpt>
      <trkpt lat="44.8908" lon="4.11611">
        <ele>1454</ele>
        <time>2021-04-29T11:34:53Z</time>
      </trkpt>
      <trkpt lat="44.89078" lon="4.11613">
        <ele>1454</ele>
        <time>2021-04-29T11:34:54Z</time>
      </trkpt>
      <trkpt lat="44.89072" lon="4.11615">
        <ele>1454</ele>
        <time>2021-04-29T11:34:55Z</time>
      </trkpt>
      <trkpt lat="44.89068" lon="4.11616">
        <ele>1454</ele>
        <time>2021-04-29T11:34:57Z</time>
      </trkpt>
      <trkpt lat="44.89064" lon="4.11616">
        <ele>1454</ele>
        <time>2021-04-29T11:34:58Z</time>
      </trkpt>
      <trkpt lat="44.89062" lon="4.11617">
        <ele>1454</ele>
        <time>2021-04-29T11:34:59Z</time>
      </trkpt>
      <trkpt lat="44.89059" lon="4.11617">
        <ele>1453</ele>
        <time>2021-04-29T11:35:00Z</time>
      </trkpt>
      <trkpt lat="44.89057" lon="4.11618">
        <ele>1453</ele>
        <time>2021-04-29T11:35:01Z</time>
      </trkpt>
      <trkpt lat="44.89054" lon="4.11617">
        <ele>1453</ele>
        <time>2021-04-29T11:35:02Z</time>
      </trkpt>
      <trkpt lat="44.89051" lon="4.11616">
        <ele>1453</ele>
        <time>2021-04-29T11:35:03Z</time>
      </trkpt>
      <trkpt lat="44.89042" lon="4.11613">
        <ele>1453</ele>
        <time>2021-04-29T11:35:05Z</time>
      </trkpt>
      <trkpt lat="44.89027" lon="4.11611">
        <ele>1452</ele>
        <time>2021-04-29T11:35:07Z</time>
      </trkpt>
      <trkpt lat="44.89011" lon="4.11601">
        <ele>1451</ele>
        <time>2021-04-29T11:35:09Z</time>
      </trkpt>
      <trkpt lat="44.89001" lon="4.11586">
        <ele>1450</ele>
        <time>2021-04-29T11:35:11Z</time>
      </trkpt>
      <trkpt lat="44.8899" lon="4.11569">
        <ele>1450</ele>
        <time>2021-04-29T11:35:13Z</time>
      </trkpt>
      <trkpt lat="44.88981" lon="4.11549">
        <ele>1449</ele>
        <time>2021-04-29T11:35:15Z</time>
      </trkpt>
      <trkpt lat="44.88978" lon="4.11539">
        <ele>1448</ele>
        <time>2021-04-29T11:35:16Z</time>
      </trkpt>
      <trkpt lat="44.88976" lon="4.11528">
        <ele>1447</ele>
        <time>2021-04-29T11:35:17Z</time>
      </trkpt>
      <trkpt lat="44.88974" lon="4.11518">
        <ele>1446</ele>
        <time>2021-04-29T11:35:18Z</time>
      </trkpt>
      <trkpt lat="44.88972" lon="4.11507">
        <ele>1445</ele>
        <time>2021-04-29T11:35:19Z</time>
      </trkpt>
      <trkpt lat="44.88972" lon="4.11496">
        <ele>1444</ele>
        <time>2021-04-29T11:35:20Z</time>
      </trkpt>
      <trkpt lat="44.8897" lon="4.11477">
        <ele>1443</ele>
        <time>2021-04-29T11:35:22Z</time>
      </trkpt>
      <trkpt lat="44.88967" lon="4.1146">
        <ele>1443</ele>
        <time>2021-04-29T11:35:24Z</time>
      </trkpt>
      <trkpt lat="44.88962" lon="4.11442">
        <ele>1441</ele>
        <time>2021-04-29T11:35:25Z</time>
      </trkpt>
      <trkpt lat="44.88957" lon="4.11427">
        <ele>1439</ele>
        <time>2021-04-29T11:35:28Z</time>
      </trkpt>
      <trkpt lat="44.88946" lon="4.114">
        <ele>1438</ele>
        <time>2021-04-29T11:35:30Z</time>
      </trkpt>
      <trkpt lat="44.88941" lon="4.11383">
        <ele>1437</ele>
        <time>2021-04-29T11:35:33Z</time>
      </trkpt>
      <trkpt lat="44.88937" lon="4.11365">
        <ele>1435</ele>
        <time>2021-04-29T11:35:35Z</time>
      </trkpt>
      <trkpt lat="44.88932" lon="4.11347">
        <ele>1434</ele>
        <time>2021-04-29T11:35:37Z</time>
      </trkpt>
      <trkpt lat="44.88928" lon="4.11327">
        <ele>1433</ele>
        <time>2021-04-29T11:35:39Z</time>
      </trkpt>
      <trkpt lat="44.8892" lon="4.11308">
        <ele>1432</ele>
        <time>2021-04-29T11:35:41Z</time>
      </trkpt>
      <trkpt lat="44.88913" lon="4.11287">
        <ele>1432</ele>
        <time>2021-04-29T11:35:42Z</time>
      </trkpt>
      <trkpt lat="44.88907" lon="4.11264">
        <ele>1430</ele>
        <time>2021-04-29T11:35:44Z</time>
      </trkpt>
      <trkpt lat="44.88904" lon="4.11252">
        <ele>1429</ele>
        <time>2021-04-29T11:35:46Z</time>
      </trkpt>
      <trkpt lat="44.88901" lon="4.11229">
        <ele>1429</ele>
        <time>2021-04-29T11:35:48Z</time>
      </trkpt>
      <trkpt lat="44.88897" lon="4.11199">
        <ele>1428</ele>
        <time>2021-04-29T11:35:50Z</time>
      </trkpt>
      <trkpt lat="44.88893" lon="4.11181">
        <ele>1427</ele>
        <time>2021-04-29T11:35:52Z</time>
      </trkpt>
      <trkpt lat="44.88891" lon="4.11172">
        <ele>1427</ele>
        <time>2021-04-29T11:35:53Z</time>
      </trkpt>
      <trkpt lat="44.88883" lon="4.11147">
        <ele>1425</ele>
        <time>2021-04-29T11:35:56Z</time>
      </trkpt>
      <trkpt lat="44.8888" lon="4.11139">
        <ele>1425</ele>
        <time>2021-04-29T11:35:57Z</time>
      </trkpt>
      <trkpt lat="44.88876" lon="4.1113">
        <ele>1424</ele>
        <time>2021-04-29T11:35:59Z</time>
      </trkpt>
      <trkpt lat="44.88873" lon="4.11121">
        <ele>1424</ele>
        <time>2021-04-29T11:36:00Z</time>
      </trkpt>
      <trkpt lat="44.88871" lon="4.11111">
        <ele>1424</ele>
        <time>2021-04-29T11:36:01Z</time>
      </trkpt>
      <trkpt lat="44.88865" lon="4.11094">
        <ele>1423</ele>
        <time>2021-04-29T11:36:03Z</time>
      </trkpt>
      <trkpt lat="44.88859" lon="4.11076">
        <ele>1422</ele>
        <time>2021-04-29T11:36:05Z</time>
      </trkpt>
      <trkpt lat="44.88854" lon="4.11058">
        <ele>1422</ele>
        <time>2021-04-29T11:36:07Z</time>
      </trkpt>
      <trkpt lat="44.88848" lon="4.11041">
        <ele>1421</ele>
        <time>2021-04-29T11:36:08Z</time>
      </trkpt>
      <trkpt lat="44.88839" lon="4.11028">
        <ele>1420</ele>
        <time>2021-04-29T11:36:11Z</time>
      </trkpt>
      <trkpt lat="44.88826" lon="4.11014">
        <ele>1418</ele>
        <time>2021-04-29T11:36:13Z</time>
      </trkpt>
      <trkpt lat="44.88819" lon="4.11008">
        <ele>1418</ele>
        <time>2021-04-29T11:36:14Z</time>
      </trkpt>
      <trkpt lat="44.88813" lon="4.11005">
        <ele>1417</ele>
        <time>2021-04-29T11:36:15Z</time>
      </trkpt>
      <trkpt lat="44.88809" lon="4.11002">
        <ele>1417</ele>
        <time>2021-04-29T11:36:16Z</time>
      </trkpt>
      <trkpt lat="44.88807" lon="4.11">
        <ele>1416</ele>
        <time>2021-04-29T11:36:17Z</time>
      </trkpt>
      <trkpt lat="44.88798" lon="4.11">
        <ele>1412</ele>
        <time>2021-04-29T11:36:24Z</time>
      </trkpt>
      <trkpt lat="44.88793" lon="4.11011">
        <ele>1412</ele>
        <time>2021-04-29T11:36:26Z</time>
      </trkpt>
      <trkpt lat="44.88782" lon="4.11016">
        <ele>1411</ele>
        <time>2021-04-29T11:36:28Z</time>
      </trkpt>
      <trkpt lat="44.88768" lon="4.11018">
        <ele>1410</ele>
        <time>2021-04-29T11:36:30Z</time>
      </trkpt>
      <trkpt lat="44.88755" lon="4.11024">
        <ele>1408</ele>
        <time>2021-04-29T11:36:32Z</time>
      </trkpt>
      <trkpt lat="44.88741" lon="4.11029">
        <ele>1407</ele>
        <time>2021-04-29T11:36:34Z</time>
      </trkpt>
      <trkpt lat="44.88729" lon="4.11025">
        <ele>1406</ele>
        <time>2021-04-29T11:36:36Z</time>
      </trkpt>
      <trkpt lat="44.88718" lon="4.11019">
        <ele>1405</ele>
        <time>2021-04-29T11:36:38Z</time>
      </trkpt>
      <trkpt lat="44.88706" lon="4.11014">
        <ele>1404</ele>
        <time>2021-04-29T11:36:40Z</time>
      </trkpt>
      <trkpt lat="44.88692" lon="4.11013">
        <ele>1402</ele>
        <time>2021-04-29T11:36:42Z</time>
      </trkpt>
      <trkpt lat="44.88679" lon="4.11018">
        <ele>1400</ele>
        <time>2021-04-29T11:36:44Z</time>
      </trkpt>
      <trkpt lat="44.88667" lon="4.1102">
        <ele>1398</ele>
        <time>2021-04-29T11:36:46Z</time>
      </trkpt>
      <trkpt lat="44.88652" lon="4.1102">
        <ele>1397</ele>
        <time>2021-04-29T11:36:48Z</time>
      </trkpt>
      <trkpt lat="44.88638" lon="4.1102">
        <ele>1395</ele>
        <time>2021-04-29T11:36:50Z</time>
      </trkpt>
      <trkpt lat="44.88627" lon="4.11022">
        <ele>1391</ele>
        <time>2021-04-29T11:36:52Z</time>
      </trkpt>
      <trkpt lat="44.88614" lon="4.11024">
        <ele>1387</ele>
        <time>2021-04-29T11:36:54Z</time>
      </trkpt>
      <trkpt lat="44.88597" lon="4.11019">
        <ele>1383</ele>
        <time>2021-04-29T11:36:56Z</time>
      </trkpt>
      <trkpt lat="44.8859" lon="4.11014">
        <ele>1381</ele>
        <time>2021-04-29T11:36:57Z</time>
      </trkpt>
      <trkpt lat="44.88584" lon="4.11007">
        <ele>1380</ele>
        <time>2021-04-29T11:36:58Z</time>
      </trkpt>
      <trkpt lat="44.88578" lon="4.11001">
        <ele>1379</ele>
        <time>2021-04-29T11:36:59Z</time>
      </trkpt>
      <trkpt lat="44.88567" lon="4.10987">
        <ele>1378</ele>
        <time>2021-04-29T11:37:01Z</time>
      </trkpt>
      <trkpt lat="44.88557" lon="4.10973">
        <ele>1376</ele>
        <time>2021-04-29T11:37:03Z</time>
      </trkpt>
      <trkpt lat="44.88549" lon="4.10959">
        <ele>1375</ele>
        <time>2021-04-29T11:37:05Z</time>
      </trkpt>
      <trkpt lat="44.88542" lon="4.10942">
        <ele>1374</ele>
        <time>2021-04-29T11:37:07Z</time>
      </trkpt>
      <trkpt lat="44.88537" lon="4.10925">
        <ele>1373</ele>
        <time>2021-04-29T11:37:09Z</time>
      </trkpt>
      <trkpt lat="44.88529" lon="4.10907">
        <ele>1372</ele>
        <time>2021-04-29T11:37:11Z</time>
      </trkpt>
      <trkpt lat="44.88521" lon="4.10888">
        <ele>1372</ele>
        <time>2021-04-29T11:37:13Z</time>
      </trkpt>
      <trkpt lat="44.88517" lon="4.10868">
        <ele>1370</ele>
        <time>2021-04-29T11:37:15Z</time>
      </trkpt>
      <trkpt lat="44.88513" lon="4.1085">
        <ele>1370</ele>
        <time>2021-04-29T11:37:16Z</time>
      </trkpt>
      <trkpt lat="44.8851" lon="4.1084">
        <ele>1365</ele>
        <time>2021-04-29T11:37:20Z</time>
      </trkpt>
      <trkpt lat="44.8851" lon="4.10836">
        <ele>1364</ele>
        <time>2021-04-29T11:37:21Z</time>
      </trkpt>
      <trkpt lat="44.88511" lon="4.10833">
        <ele>1364</ele>
        <time>2021-04-29T11:37:22Z</time>
      </trkpt>
      <trkpt lat="44.88511" lon="4.10829">
        <ele>1362</ele>
        <time>2021-04-29T11:37:24Z</time>
      </trkpt>
      <trkpt lat="44.88512" lon="4.10825">
        <ele>1361</ele>
        <time>2021-04-29T11:37:26Z</time>
      </trkpt>
      <trkpt lat="44.88513" lon="4.10819">
        <ele>1361</ele>
        <time>2021-04-29T11:37:28Z</time>
      </trkpt>
      <trkpt lat="44.88514" lon="4.10817">
        <ele>1359</ele>
        <time>2021-04-29T11:37:30Z</time>
      </trkpt>
      <trkpt lat="44.88515" lon="4.10812">
        <ele>1358</ele>
        <time>2021-04-29T11:37:32Z</time>
      </trkpt>
      <trkpt lat="44.88516" lon="4.10809">
        <ele>1357</ele>
        <time>2021-04-29T11:37:34Z</time>
      </trkpt>
      <trkpt lat="44.88516" lon="4.10804">
        <ele>1356</ele>
        <time>2021-04-29T11:37:36Z</time>
      </trkpt>
      <trkpt lat="44.88516" lon="4.10801">
        <ele>1356</ele>
        <time>2021-04-29T11:37:37Z</time>
      </trkpt>
      <trkpt lat="44.88517" lon="4.10798">
        <ele>1353</ele>
        <time>2021-04-29T11:37:40Z</time>
      </trkpt>
      <trkpt lat="44.88518" lon="4.10794">
        <ele>1352</ele>
        <time>2021-04-29T11:37:42Z</time>
      </trkpt>
      <trkpt lat="44.88519" lon="4.1079">
        <ele>1351</ele>
        <time>2021-04-29T11:37:43Z</time>
      </trkpt>
      <trkpt lat="44.8852" lon="4.10787">
        <ele>1350</ele>
        <time>2021-04-29T11:37:45Z</time>
      </trkpt>
      <trkpt lat="44.88521" lon="4.10784">
        <ele>1349</ele>
        <time>2021-04-29T11:37:48Z</time>
      </trkpt>
      <trkpt lat="44.88521" lon="4.10781">
        <ele>1349</ele>
        <time>2021-04-29T11:37:49Z</time>
      </trkpt>
      <trkpt lat="44.88522" lon="4.10777">
        <ele>1349</ele>
        <time>2021-04-29T11:37:50Z</time>
      </trkpt>
      <trkpt lat="44.88522" lon="4.10773">
        <ele>1349</ele>
        <time>2021-04-29T11:37:51Z</time>
      </trkpt>
      <trkpt lat="44.88523" lon="4.10768">
        <ele>1349</ele>
        <time>2021-04-29T11:37:52Z</time>
      </trkpt>
      <trkpt lat="44.88524" lon="4.10763">
        <ele>1348</ele>
        <time>2021-04-29T11:37:53Z</time>
      </trkpt>
      <trkpt lat="44.88524" lon="4.10757">
        <ele>1348</ele>
        <time>2021-04-29T11:37:54Z</time>
      </trkpt>
      <trkpt lat="44.88525" lon="4.10751">
        <ele>1348</ele>
        <time>2021-04-29T11:37:55Z</time>
      </trkpt>
      <trkpt lat="44.88526" lon="4.10738">
        <ele>1348</ele>
        <time>2021-04-29T11:37:56Z</time>
      </trkpt>
      <trkpt lat="44.88527" lon="4.10724">
        <ele>1347</ele>
        <time>2021-04-29T11:37:58Z</time>
      </trkpt>
      <trkpt lat="44.88528" lon="4.10717">
        <ele>1347</ele>
        <time>2021-04-29T11:37:59Z</time>
      </trkpt>
      <trkpt lat="44.88529" lon="4.10711">
        <ele>1347</ele>
        <time>2021-04-29T11:38:00Z</time>
      </trkpt>
      <trkpt lat="44.8853" lon="4.10704">
        <ele>1347</ele>
        <time>2021-04-29T11:38:01Z</time>
      </trkpt>
      <trkpt lat="44.88531" lon="4.10697">
        <ele>1347</ele>
        <time>2021-04-29T11:38:02Z</time>
      </trkpt>
      <trkpt lat="44.88532" lon="4.1069">
        <ele>1346</ele>
        <time>2021-04-29T11:38:03Z</time>
      </trkpt>
      <trkpt lat="44.88532" lon="4.10683">
        <ele>1346</ele>
        <time>2021-04-29T11:38:04Z</time>
      </trkpt>
      <trkpt lat="44.88533" lon="4.10675">
        <ele>1346</ele>
        <time>2021-04-29T11:38:05Z</time>
      </trkpt>
      <trkpt lat="44.88534" lon="4.10667">
        <ele>1346</ele>
        <time>2021-04-29T11:38:06Z</time>
      </trkpt>
      <trkpt lat="44.88534" lon="4.10659">
        <ele>1346</ele>
        <time>2021-04-29T11:38:07Z</time>
      </trkpt>
      <trkpt lat="44.88537" lon="4.10644">
        <ele>1345</ele>
        <time>2021-04-29T11:38:09Z</time>
      </trkpt>
      <trkpt lat="44.88539" lon="4.10637">
        <ele>1344</ele>
        <time>2021-04-29T11:38:11Z</time>
      </trkpt>
      <trkpt lat="44.8854" lon="4.10629">
        <ele>1344</ele>
        <time>2021-04-29T11:38:12Z</time>
      </trkpt>
      <trkpt lat="44.88541" lon="4.10621">
        <ele>1343</ele>
        <time>2021-04-29T11:38:13Z</time>
      </trkpt>
      <trkpt lat="44.88543" lon="4.10613">
        <ele>1343</ele>
        <time>2021-04-29T11:38:14Z</time>
      </trkpt>
      <trkpt lat="44.88545" lon="4.10598">
        <ele>1342</ele>
        <time>2021-04-29T11:38:15Z</time>
      </trkpt>
      <trkpt lat="44.88547" lon="4.1059">
        <ele>1341</ele>
        <time>2021-04-29T11:38:17Z</time>
      </trkpt>
      <trkpt lat="44.88549" lon="4.10582">
        <ele>1341</ele>
        <time>2021-04-29T11:38:18Z</time>
      </trkpt>
      <trkpt lat="44.88555" lon="4.10569">
        <ele>1341</ele>
        <time>2021-04-29T11:38:19Z</time>
      </trkpt>
      <trkpt lat="44.88557" lon="4.10563">
        <ele>1341</ele>
        <time>2021-04-29T11:38:20Z</time>
      </trkpt>
      <trkpt lat="44.88559" lon="4.10556">
        <ele>1341</ele>
        <time>2021-04-29T11:38:21Z</time>
      </trkpt>
      <trkpt lat="44.8856" lon="4.10548">
        <ele>1341</ele>
        <time>2021-04-29T11:38:22Z</time>
      </trkpt>
      <trkpt lat="44.88561" lon="4.10541">
        <ele>1340</ele>
        <time>2021-04-29T11:38:23Z</time>
      </trkpt>
      <trkpt lat="44.88563" lon="4.10533">
        <ele>1340</ele>
        <time>2021-04-29T11:38:24Z</time>
      </trkpt>
      <trkpt lat="44.88564" lon="4.10526">
        <ele>1340</ele>
        <time>2021-04-29T11:38:25Z</time>
      </trkpt>
      <trkpt lat="44.88566" lon="4.10518">
        <ele>1339</ele>
        <time>2021-04-29T11:38:26Z</time>
      </trkpt>
      <trkpt lat="44.88568" lon="4.10511">
        <ele>1339</ele>
        <time>2021-04-29T11:38:27Z</time>
      </trkpt>
      <trkpt lat="44.88571" lon="4.10495">
        <ele>1339</ele>
        <time>2021-04-29T11:38:29Z</time>
      </trkpt>
      <trkpt lat="44.88573" lon="4.10487">
        <ele>1338</ele>
        <time>2021-04-29T11:38:30Z</time>
      </trkpt>
      <trkpt lat="44.88574" lon="4.10479">
        <ele>1338</ele>
        <time>2021-04-29T11:38:31Z</time>
      </trkpt>
      <trkpt lat="44.88574" lon="4.1047">
        <ele>1338</ele>
        <time>2021-04-29T11:38:32Z</time>
      </trkpt>
      <trkpt lat="44.88574" lon="4.10461">
        <ele>1338</ele>
        <time>2021-04-29T11:38:33Z</time>
      </trkpt>
      <trkpt lat="44.88574" lon="4.1045">
        <ele>1337</ele>
        <time>2021-04-29T11:38:34Z</time>
      </trkpt>
      <trkpt lat="44.88575" lon="4.10441">
        <ele>1337</ele>
        <time>2021-04-29T11:38:35Z</time>
      </trkpt>
      <trkpt lat="44.88576" lon="4.10431">
        <ele>1337</ele>
        <time>2021-04-29T11:38:37Z</time>
      </trkpt>
      <trkpt lat="44.88576" lon="4.1042">
        <ele>1336</ele>
        <time>2021-04-29T11:38:38Z</time>
      </trkpt>
      <trkpt lat="44.88578" lon="4.1041">
        <ele>1336</ele>
        <time>2021-04-29T11:38:39Z</time>
      </trkpt>
      <trkpt lat="44.8858" lon="4.104">
        <ele>1336</ele>
        <time>2021-04-29T11:38:40Z</time>
      </trkpt>
      <trkpt lat="44.88583" lon="4.1039">
        <ele>1335</ele>
        <time>2021-04-29T11:38:41Z</time>
      </trkpt>
      <trkpt lat="44.88586" lon="4.1038">
        <ele>1335</ele>
        <time>2021-04-29T11:38:42Z</time>
      </trkpt>
      <trkpt lat="44.88591" lon="4.1036">
        <ele>1334</ele>
        <time>2021-04-29T11:38:43Z</time>
      </trkpt>
      <trkpt lat="44.88594" lon="4.1035">
        <ele>1334</ele>
        <time>2021-04-29T11:38:44Z</time>
      </trkpt>
      <trkpt lat="44.88597" lon="4.10341">
        <ele>1334</ele>
        <time>2021-04-29T11:38:45Z</time>
      </trkpt>
      <trkpt lat="44.88604" lon="4.10322">
        <ele>1333</ele>
        <time>2021-04-29T11:38:47Z</time>
      </trkpt>
      <trkpt lat="44.88607" lon="4.10314">
        <ele>1332</ele>
        <time>2021-04-29T11:38:48Z</time>
      </trkpt>
      <trkpt lat="44.88611" lon="4.10305">
        <ele>1332</ele>
        <time>2021-04-29T11:38:49Z</time>
      </trkpt>
      <trkpt lat="44.88616" lon="4.10297">
        <ele>1331</ele>
        <time>2021-04-29T11:38:50Z</time>
      </trkpt>
      <trkpt lat="44.8862" lon="4.10289">
        <ele>1331</ele>
        <time>2021-04-29T11:38:51Z</time>
      </trkpt>
      <trkpt lat="44.88624" lon="4.10281">
        <ele>1331</ele>
        <time>2021-04-29T11:38:52Z</time>
      </trkpt>
      <trkpt lat="44.88627" lon="4.10272">
        <ele>1331</ele>
        <time>2021-04-29T11:38:53Z</time>
      </trkpt>
      <trkpt lat="44.8863" lon="4.10263">
        <ele>1330</ele>
        <time>2021-04-29T11:38:54Z</time>
      </trkpt>
      <trkpt lat="44.88635" lon="4.10244">
        <ele>1329</ele>
        <time>2021-04-29T11:38:56Z</time>
      </trkpt>
      <trkpt lat="44.88638" lon="4.10235">
        <ele>1328</ele>
        <time>2021-04-29T11:38:58Z</time>
      </trkpt>
      <trkpt lat="44.88642" lon="4.10226">
        <ele>1327</ele>
        <time>2021-04-29T11:38:59Z</time>
      </trkpt>
      <trkpt lat="44.88645" lon="4.10217">
        <ele>1327</ele>
        <time>2021-04-29T11:39:00Z</time>
      </trkpt>
      <trkpt lat="44.88649" lon="4.10208">
        <ele>1326</ele>
        <time>2021-04-29T11:39:01Z</time>
      </trkpt>
      <trkpt lat="44.88657" lon="4.10191">
        <ele>1325</ele>
        <time>2021-04-29T11:39:03Z</time>
      </trkpt>
      <trkpt lat="44.8867" lon="4.1017">
        <ele>1324</ele>
        <time>2021-04-29T11:39:05Z</time>
      </trkpt>
      <trkpt lat="44.88674" lon="4.10162">
        <ele>1324</ele>
        <time>2021-04-29T11:39:06Z</time>
      </trkpt>
      <trkpt lat="44.88677" lon="4.10154">
        <ele>1323</ele>
        <time>2021-04-29T11:39:07Z</time>
      </trkpt>
      <trkpt lat="44.8868" lon="4.10145">
        <ele>1323</ele>
        <time>2021-04-29T11:39:08Z</time>
      </trkpt>
      <trkpt lat="44.88682" lon="4.10137">
        <ele>1323</ele>
        <time>2021-04-29T11:39:09Z</time>
      </trkpt>
      <trkpt lat="44.88684" lon="4.10129">
        <ele>1322</ele>
        <time>2021-04-29T11:39:10Z</time>
      </trkpt>
      <trkpt lat="44.88689" lon="4.10111">
        <ele>1322</ele>
        <time>2021-04-29T11:39:12Z</time>
      </trkpt>
      <trkpt lat="44.88691" lon="4.10103">
        <ele>1321</ele>
        <time>2021-04-29T11:39:14Z</time>
      </trkpt>
      <trkpt lat="44.88693" lon="4.10094">
        <ele>1321</ele>
        <time>2021-04-29T11:39:15Z</time>
      </trkpt>
      <trkpt lat="44.88695" lon="4.10084">
        <ele>1321</ele>
        <time>2021-04-29T11:39:16Z</time>
      </trkpt>
      <trkpt lat="44.88696" lon="4.10074">
        <ele>1320</ele>
        <time>2021-04-29T11:39:17Z</time>
      </trkpt>
      <trkpt lat="44.88697" lon="4.10064">
        <ele>1320</ele>
        <time>2021-04-29T11:39:18Z</time>
      </trkpt>
      <trkpt lat="44.88699" lon="4.10053">
        <ele>1319</ele>
        <time>2021-04-29T11:39:19Z</time>
      </trkpt>
      <trkpt lat="44.88703" lon="4.10032">
        <ele>1318</ele>
        <time>2021-04-29T11:39:20Z</time>
      </trkpt>
      <trkpt lat="44.88705" lon="4.1002">
        <ele>1317</ele>
        <time>2021-04-29T11:39:21Z</time>
      </trkpt>
      <trkpt lat="44.88706" lon="4.10008">
        <ele>1317</ele>
        <time>2021-04-29T11:39:22Z</time>
      </trkpt>
      <trkpt lat="44.88708" lon="4.09996">
        <ele>1316</ele>
        <time>2021-04-29T11:39:23Z</time>
      </trkpt>
      <trkpt lat="44.8871" lon="4.09983">
        <ele>1315</ele>
        <time>2021-04-29T11:39:24Z</time>
      </trkpt>
      <trkpt lat="44.88712" lon="4.09971">
        <ele>1313</ele>
        <time>2021-04-29T11:39:26Z</time>
      </trkpt>
      <trkpt lat="44.88714" lon="4.09959">
        <ele>1313</ele>
        <time>2021-04-29T11:39:27Z</time>
      </trkpt>
      <trkpt lat="44.88717" lon="4.09947">
        <ele>1312</ele>
        <time>2021-04-29T11:39:28Z</time>
      </trkpt>
      <trkpt lat="44.88721" lon="4.09936">
        <ele>1311</ele>
        <time>2021-04-29T11:39:29Z</time>
      </trkpt>
      <trkpt lat="44.8873" lon="4.09915">
        <ele>1311</ele>
        <time>2021-04-29T11:39:30Z</time>
      </trkpt>
      <trkpt lat="44.88735" lon="4.09905">
        <ele>1310</ele>
        <time>2021-04-29T11:39:31Z</time>
      </trkpt>
      <trkpt lat="44.88739" lon="4.09894">
        <ele>1309</ele>
        <time>2021-04-29T11:39:32Z</time>
      </trkpt>
      <trkpt lat="44.88743" lon="4.09884">
        <ele>1309</ele>
        <time>2021-04-29T11:39:33Z</time>
      </trkpt>
      <trkpt lat="44.88747" lon="4.09874">
        <ele>1308</ele>
        <time>2021-04-29T11:39:34Z</time>
      </trkpt>
      <trkpt lat="44.88751" lon="4.09864">
        <ele>1308</ele>
        <time>2021-04-29T11:39:35Z</time>
      </trkpt>
      <trkpt lat="44.88755" lon="4.09854">
        <ele>1306</ele>
        <time>2021-04-29T11:39:37Z</time>
      </trkpt>
      <trkpt lat="44.88759" lon="4.09844">
        <ele>1306</ele>
        <time>2021-04-29T11:39:38Z</time>
      </trkpt>
      <trkpt lat="44.88763" lon="4.09834">
        <ele>1306</ele>
        <time>2021-04-29T11:39:39Z</time>
      </trkpt>
      <trkpt lat="44.88767" lon="4.09825">
        <ele>1306</ele>
        <time>2021-04-29T11:39:40Z</time>
      </trkpt>
      <trkpt lat="44.8877" lon="4.09816">
        <ele>1305</ele>
        <time>2021-04-29T11:39:41Z</time>
      </trkpt>
      <trkpt lat="44.88778" lon="4.09799">
        <ele>1305</ele>
        <time>2021-04-29T11:39:43Z</time>
      </trkpt>
      <trkpt lat="44.88784" lon="4.09785">
        <ele>1305</ele>
        <time>2021-04-29T11:39:44Z</time>
      </trkpt>
      <trkpt lat="44.88793" lon="4.09766">
        <ele>1305</ele>
        <time>2021-04-29T11:39:46Z</time>
      </trkpt>
      <trkpt lat="44.88801" lon="4.09757">
        <ele>1305</ele>
        <time>2021-04-29T11:39:47Z</time>
      </trkpt>
      <trkpt lat="44.88814" lon="4.09743">
        <ele>1304</ele>
        <time>2021-04-29T11:39:49Z</time>
      </trkpt>
      <trkpt lat="44.88825" lon="4.0973">
        <ele>1303</ele>
        <time>2021-04-29T11:39:51Z</time>
      </trkpt>
      <trkpt lat="44.88834" lon="4.0972">
        <ele>1302</ele>
        <time>2021-04-29T11:39:53Z</time>
      </trkpt>
      <trkpt lat="44.88845" lon="4.09712">
        <ele>1302</ele>
        <time>2021-04-29T11:39:55Z</time>
      </trkpt>
      <trkpt lat="44.88856" lon="4.09705">
        <ele>1301</ele>
        <time>2021-04-29T11:39:57Z</time>
      </trkpt>
      <trkpt lat="44.88867" lon="4.09698">
        <ele>1300</ele>
        <time>2021-04-29T11:39:59Z</time>
      </trkpt>
      <trkpt lat="44.88877" lon="4.0969">
        <ele>1299</ele>
        <time>2021-04-29T11:40:02Z</time>
      </trkpt>
      <trkpt lat="44.88888" lon="4.09683">
        <ele>1299</ele>
        <time>2021-04-29T11:40:04Z</time>
      </trkpt>
      <trkpt lat="44.88895" lon="4.09676">
        <ele>1298</ele>
        <time>2021-04-29T11:40:06Z</time>
      </trkpt>
      <trkpt lat="44.88903" lon="4.09668">
        <ele>1298</ele>
        <time>2021-04-29T11:40:07Z</time>
      </trkpt>
      <trkpt lat="44.88911" lon="4.09656">
        <ele>1298</ele>
        <time>2021-04-29T11:40:11Z</time>
      </trkpt>
      <trkpt lat="44.8892" lon="4.09644">
        <ele>1298</ele>
        <time>2021-04-29T11:40:13Z</time>
      </trkpt>
      <trkpt lat="44.88928" lon="4.09638">
        <ele>1298</ele>
        <time>2021-04-29T11:40:15Z</time>
      </trkpt>
      <trkpt lat="44.88939" lon="4.09635">
        <ele>1297</ele>
        <time>2021-04-29T11:40:18Z</time>
      </trkpt>
      <trkpt lat="44.88952" lon="4.09629">
        <ele>1297</ele>
        <time>2021-04-29T11:40:20Z</time>
      </trkpt>
      <trkpt lat="44.88965" lon="4.09623">
        <ele>1296</ele>
        <time>2021-04-29T11:40:22Z</time>
      </trkpt>
      <trkpt lat="44.88997" lon="4.09613">
        <ele>1294</ele>
        <time>2021-04-29T11:40:24Z</time>
      </trkpt>
      <trkpt lat="44.89007" lon="4.09611">
        <ele>1293</ele>
        <time>2021-04-29T11:40:25Z</time>
      </trkpt>
      <trkpt lat="44.89024" lon="4.09608">
        <ele>1291</ele>
        <time>2021-04-29T11:40:28Z</time>
      </trkpt>
      <trkpt lat="44.89039" lon="4.09604">
        <ele>1291</ele>
        <time>2021-04-29T11:40:29Z</time>
      </trkpt>
      <trkpt lat="44.89044" lon="4.09602">
        <ele>1291</ele>
        <time>2021-04-29T11:40:31Z</time>
      </trkpt>
      <trkpt lat="44.89049" lon="4.096">
        <ele>1291</ele>
        <time>2021-04-29T11:40:32Z</time>
      </trkpt>
      <trkpt lat="44.89052" lon="4.096">
        <ele>1291</ele>
        <time>2021-04-29T11:40:33Z</time>
      </trkpt>
      <trkpt lat="44.89055" lon="4.096">
        <ele>1291</ele>
        <time>2021-04-29T11:40:34Z</time>
      </trkpt>
      <trkpt lat="44.89057" lon="4.096">
        <ele>1291</ele>
        <time>2021-04-29T11:40:35Z</time>
      </trkpt>
      <trkpt lat="44.89062" lon="4.096">
        <ele>1291</ele>
        <time>2021-04-29T11:40:36Z</time>
      </trkpt>
      <trkpt lat="44.89065" lon="4.096">
        <ele>1291</ele>
        <time>2021-04-29T11:40:38Z</time>
      </trkpt>
      <trkpt lat="44.89067" lon="4.096">
        <ele>1290</ele>
        <time>2021-04-29T11:40:39Z</time>
      </trkpt>
      <trkpt lat="44.89069" lon="4.09599">
        <ele>1291</ele>
        <time>2021-04-29T11:40:40Z</time>
      </trkpt>
      <trkpt lat="44.89072" lon="4.09598">
        <ele>1291</ele>
        <time>2021-04-29T11:40:41Z</time>
      </trkpt>
      <trkpt lat="44.89075" lon="4.09598">
        <ele>1291</ele>
        <time>2021-04-29T11:40:42Z</time>
      </trkpt>
      <trkpt lat="44.89077" lon="4.09597">
        <ele>1291</ele>
        <time>2021-04-29T11:40:43Z</time>
      </trkpt>
      <trkpt lat="44.8908" lon="4.09597">
        <ele>1291</ele>
        <time>2021-04-29T11:40:44Z</time>
      </trkpt>
      <trkpt lat="44.89083" lon="4.09596">
        <ele>1291</ele>
        <time>2021-04-29T11:40:45Z</time>
      </trkpt>
      <trkpt lat="44.89085" lon="4.09595">
        <ele>1290</ele>
        <time>2021-04-29T11:40:46Z</time>
      </trkpt>
      <trkpt lat="44.89092" lon="4.09595">
        <ele>1290</ele>
        <time>2021-04-29T11:40:47Z</time>
      </trkpt>
      <trkpt lat="44.89095" lon="4.09595">
        <ele>1290</ele>
        <time>2021-04-29T11:40:49Z</time>
      </trkpt>
      <trkpt lat="44.89099" lon="4.09595">
        <ele>1290</ele>
        <time>2021-04-29T11:40:50Z</time>
      </trkpt>
      <trkpt lat="44.89103" lon="4.09595">
        <ele>1290</ele>
        <time>2021-04-29T11:40:51Z</time>
      </trkpt>
      <trkpt lat="44.89107" lon="4.09595">
        <ele>1290</ele>
        <time>2021-04-29T11:40:52Z</time>
      </trkpt>
      <trkpt lat="44.8911" lon="4.09596">
        <ele>1290</ele>
        <time>2021-04-29T11:40:53Z</time>
      </trkpt>
      <trkpt lat="44.89114" lon="4.09596">
        <ele>1290</ele>
        <time>2021-04-29T11:40:54Z</time>
      </trkpt>
      <trkpt lat="44.89117" lon="4.09595">
        <ele>1290</ele>
        <time>2021-04-29T11:40:55Z</time>
      </trkpt>
      <trkpt lat="44.8912" lon="4.09594">
        <ele>1290</ele>
        <time>2021-04-29T11:40:56Z</time>
      </trkpt>
      <trkpt lat="44.89124" lon="4.09594">
        <ele>1290</ele>
        <time>2021-04-29T11:40:57Z</time>
      </trkpt>
      <trkpt lat="44.89127" lon="4.09593">
        <ele>1290</ele>
        <time>2021-04-29T11:40:58Z</time>
      </trkpt>
      <trkpt lat="44.89136" lon="4.09591">
        <ele>1290</ele>
        <time>2021-04-29T11:40:59Z</time>
      </trkpt>
      <trkpt lat="44.8914" lon="4.0959">
        <ele>1290</ele>
        <time>2021-04-29T11:41:00Z</time>
      </trkpt>
      <trkpt lat="44.89151" lon="4.09587">
        <ele>1290</ele>
        <time>2021-04-29T11:41:02Z</time>
      </trkpt>
      <trkpt lat="44.89156" lon="4.09586">
        <ele>1290</ele>
        <time>2021-04-29T11:41:03Z</time>
      </trkpt>
      <trkpt lat="44.89161" lon="4.09584">
        <ele>1290</ele>
        <time>2021-04-29T11:41:04Z</time>
      </trkpt>
      <trkpt lat="44.89167" lon="4.09583">
        <ele>1290</ele>
        <time>2021-04-29T11:41:05Z</time>
      </trkpt>
      <trkpt lat="44.89173" lon="4.09582">
        <ele>1290</ele>
        <time>2021-04-29T11:41:06Z</time>
      </trkpt>
      <trkpt lat="44.89179" lon="4.09581">
        <ele>1289</ele>
        <time>2021-04-29T11:41:08Z</time>
      </trkpt>
      <trkpt lat="44.89186" lon="4.09581">
        <ele>1290</ele>
        <time>2021-04-29T11:41:09Z</time>
      </trkpt>
      <trkpt lat="44.89192" lon="4.09579">
        <ele>1290</ele>
        <time>2021-04-29T11:41:10Z</time>
      </trkpt>
      <trkpt lat="44.89198" lon="4.09577">
        <ele>1289</ele>
        <time>2021-04-29T11:41:11Z</time>
      </trkpt>
      <trkpt lat="44.89203" lon="4.09573">
        <ele>1289</ele>
        <time>2021-04-29T11:41:12Z</time>
      </trkpt>
      <trkpt lat="44.89206" lon="4.09567">
        <ele>1289</ele>
        <time>2021-04-29T11:41:13Z</time>
      </trkpt>
      <trkpt lat="44.8921" lon="4.0956">
        <ele>1289</ele>
        <time>2021-04-29T11:41:14Z</time>
      </trkpt>
      <trkpt lat="44.89214" lon="4.09552">
        <ele>1288</ele>
        <time>2021-04-29T11:41:15Z</time>
      </trkpt>
      <trkpt lat="44.89219" lon="4.09545">
        <ele>1288</ele>
        <time>2021-04-29T11:41:16Z</time>
      </trkpt>
      <trkpt lat="44.89223" lon="4.09538">
        <ele>1288</ele>
        <time>2021-04-29T11:41:17Z</time>
      </trkpt>
      <trkpt lat="44.89228" lon="4.09531">
        <ele>1287</ele>
        <time>2021-04-29T11:41:18Z</time>
      </trkpt>
      <trkpt lat="44.89232" lon="4.09524">
        <ele>1287</ele>
        <time>2021-04-29T11:41:19Z</time>
      </trkpt>
      <trkpt lat="44.89243" lon="4.09512">
        <ele>1286</ele>
        <time>2021-04-29T11:41:20Z</time>
      </trkpt>
      <trkpt lat="44.8925" lon="4.09506">
        <ele>1285</ele>
        <time>2021-04-29T11:41:22Z</time>
      </trkpt>
      <trkpt lat="44.89256" lon="4.09501">
        <ele>1285</ele>
        <time>2021-04-29T11:41:23Z</time>
      </trkpt>
      <trkpt lat="44.89263" lon="4.09496">
        <ele>1284</ele>
        <time>2021-04-29T11:41:24Z</time>
      </trkpt>
      <trkpt lat="44.89278" lon="4.09486">
        <ele>1283</ele>
        <time>2021-04-29T11:41:25Z</time>
      </trkpt>
      <trkpt lat="44.89284" lon="4.09482">
        <ele>1282</ele>
        <time>2021-04-29T11:41:27Z</time>
      </trkpt>
      <trkpt lat="44.89289" lon="4.09477">
        <ele>1282</ele>
        <time>2021-04-29T11:41:28Z</time>
      </trkpt>
      <trkpt lat="44.8929" lon="4.0947">
        <ele>1281</ele>
        <time>2021-04-29T11:41:29Z</time>
      </trkpt>
      <trkpt lat="44.89288" lon="4.09464">
        <ele>1280</ele>
        <time>2021-04-29T11:41:30Z</time>
      </trkpt>
      <trkpt lat="44.89284" lon="4.09458">
        <ele>1279</ele>
        <time>2021-04-29T11:41:31Z</time>
      </trkpt>
      <trkpt lat="44.89279" lon="4.09453">
        <ele>1279</ele>
        <time>2021-04-29T11:41:32Z</time>
      </trkpt>
      <trkpt lat="44.89274" lon="4.09448">
        <ele>1279</ele>
        <time>2021-04-29T11:41:33Z</time>
      </trkpt>
      <trkpt lat="44.89268" lon="4.09443">
        <ele>1278</ele>
        <time>2021-04-29T11:41:34Z</time>
      </trkpt>
      <trkpt lat="44.89261" lon="4.09438">
        <ele>1277</ele>
        <time>2021-04-29T11:41:35Z</time>
      </trkpt>
      <trkpt lat="44.89254" lon="4.09433">
        <ele>1277</ele>
        <time>2021-04-29T11:41:36Z</time>
      </trkpt>
      <trkpt lat="44.89247" lon="4.09429">
        <ele>1276</ele>
        <time>2021-04-29T11:41:37Z</time>
      </trkpt>
      <trkpt lat="44.89239" lon="4.09424">
        <ele>1275</ele>
        <time>2021-04-29T11:41:38Z</time>
      </trkpt>
      <trkpt lat="44.89231" lon="4.09419">
        <ele>1275</ele>
        <time>2021-04-29T11:41:39Z</time>
      </trkpt>
      <trkpt lat="44.89223" lon="4.09415">
        <ele>1274</ele>
        <time>2021-04-29T11:41:40Z</time>
      </trkpt>
      <trkpt lat="44.89215" lon="4.09412">
        <ele>1273</ele>
        <time>2021-04-29T11:41:41Z</time>
      </trkpt>
      <trkpt lat="44.89209" lon="4.09409">
        <ele>1273</ele>
        <time>2021-04-29T11:41:42Z</time>
      </trkpt>
      <trkpt lat="44.89204" lon="4.09406">
        <ele>1272</ele>
        <time>2021-04-29T11:41:43Z</time>
      </trkpt>
      <trkpt lat="44.89203" lon="4.09397">
        <ele>1272</ele>
        <time>2021-04-29T11:41:44Z</time>
      </trkpt>
      <trkpt lat="44.89205" lon="4.09393">
        <ele>1271</ele>
        <time>2021-04-29T11:41:46Z</time>
      </trkpt>
      <trkpt lat="44.89209" lon="4.09389">
        <ele>1271</ele>
        <time>2021-04-29T11:41:47Z</time>
      </trkpt>
      <trkpt lat="44.89212" lon="4.09385">
        <ele>1270</ele>
        <time>2021-04-29T11:41:48Z</time>
      </trkpt>
      <trkpt lat="44.89215" lon="4.09382">
        <ele>1270</ele>
        <time>2021-04-29T11:41:49Z</time>
      </trkpt>
      <trkpt lat="44.89217" lon="4.09379">
        <ele>1269</ele>
        <time>2021-04-29T11:41:50Z</time>
      </trkpt>
      <trkpt lat="44.8922" lon="4.09376">
        <ele>1269</ele>
        <time>2021-04-29T11:41:51Z</time>
      </trkpt>
      <trkpt lat="44.89223" lon="4.09372">
        <ele>1268</ele>
        <time>2021-04-29T11:41:52Z</time>
      </trkpt>
      <trkpt lat="44.89225" lon="4.09368">
        <ele>1268</ele>
        <time>2021-04-29T11:41:53Z</time>
      </trkpt>
      <trkpt lat="44.89228" lon="4.09365">
        <ele>1267</ele>
        <time>2021-04-29T11:41:54Z</time>
      </trkpt>
      <trkpt lat="44.89231" lon="4.09362">
        <ele>1267</ele>
        <time>2021-04-29T11:41:55Z</time>
      </trkpt>
      <trkpt lat="44.89233" lon="4.0936">
        <ele>1267</ele>
        <time>2021-04-29T11:41:56Z</time>
      </trkpt>
      <trkpt lat="44.89235" lon="4.09358">
        <ele>1266</ele>
        <time>2021-04-29T11:41:57Z</time>
      </trkpt>
      <trkpt lat="44.89236" lon="4.09356">
        <ele>1266</ele>
        <time>2021-04-29T11:41:58Z</time>
      </trkpt>
      <trkpt lat="44.89238" lon="4.09353">
        <ele>1266</ele>
        <time>2021-04-29T11:41:59Z</time>
      </trkpt>
      <trkpt lat="44.89241" lon="4.09351">
        <ele>1265</ele>
        <time>2021-04-29T11:42:00Z</time>
      </trkpt>
      <trkpt lat="44.89244" lon="4.09348">
        <ele>1265</ele>
        <time>2021-04-29T11:42:01Z</time>
      </trkpt>
      <trkpt lat="44.89247" lon="4.09345">
        <ele>1265</ele>
        <time>2021-04-29T11:42:02Z</time>
      </trkpt>
      <trkpt lat="44.89255" lon="4.09341">
        <ele>1264</ele>
        <time>2021-04-29T11:42:03Z</time>
      </trkpt>
      <trkpt lat="44.89259" lon="4.09339">
        <ele>1264</ele>
        <time>2021-04-29T11:42:05Z</time>
      </trkpt>
      <trkpt lat="44.89263" lon="4.09337">
        <ele>1263</ele>
        <time>2021-04-29T11:42:06Z</time>
      </trkpt>
      <trkpt lat="44.89267" lon="4.09335">
        <ele>1263</ele>
        <time>2021-04-29T11:42:07Z</time>
      </trkpt>
      <trkpt lat="44.89267" lon="4.09331">
        <ele>1263</ele>
        <time>2021-04-29T11:42:08Z</time>
      </trkpt>
      <trkpt lat="44.89266" lon="4.09327">
        <ele>1262</ele>
        <time>2021-04-29T11:42:09Z</time>
      </trkpt>
      <trkpt lat="44.89263" lon="4.09324">
        <ele>1262</ele>
        <time>2021-04-29T11:42:10Z</time>
      </trkpt>
      <trkpt lat="44.89259" lon="4.09322">
        <ele>1262</ele>
        <time>2021-04-29T11:42:11Z</time>
      </trkpt>
      <trkpt lat="44.89255" lon="4.0932">
        <ele>1261</ele>
        <time>2021-04-29T11:42:12Z</time>
      </trkpt>
      <trkpt lat="44.8925" lon="4.09318">
        <ele>1261</ele>
        <time>2021-04-29T11:42:13Z</time>
      </trkpt>
      <trkpt lat="44.89245" lon="4.09316">
        <ele>1260</ele>
        <time>2021-04-29T11:42:14Z</time>
      </trkpt>
      <trkpt lat="44.89239" lon="4.09313">
        <ele>1260</ele>
        <time>2021-04-29T11:42:15Z</time>
      </trkpt>
      <trkpt lat="44.89234" lon="4.0931">
        <ele>1259</ele>
        <time>2021-04-29T11:42:16Z</time>
      </trkpt>
      <trkpt lat="44.8923" lon="4.09307">
        <ele>1259</ele>
        <time>2021-04-29T11:42:17Z</time>
      </trkpt>
      <trkpt lat="44.89227" lon="4.09301">
        <ele>1258</ele>
        <time>2021-04-29T11:42:18Z</time>
      </trkpt>
      <trkpt lat="44.89225" lon="4.09293">
        <ele>1257</ele>
        <time>2021-04-29T11:42:19Z</time>
      </trkpt>
      <trkpt lat="44.89226" lon="4.09284">
        <ele>1256</ele>
        <time>2021-04-29T11:42:20Z</time>
      </trkpt>
      <trkpt lat="44.89229" lon="4.09274">
        <ele>1256</ele>
        <time>2021-04-29T11:42:21Z</time>
      </trkpt>
      <trkpt lat="44.89235" lon="4.09256">
        <ele>1254</ele>
        <time>2021-04-29T11:42:22Z</time>
      </trkpt>
      <trkpt lat="44.89238" lon="4.09247">
        <ele>1252</ele>
        <time>2021-04-29T11:42:24Z</time>
      </trkpt>
      <trkpt lat="44.8924" lon="4.09238">
        <ele>1251</ele>
        <time>2021-04-29T11:42:25Z</time>
      </trkpt>
      <trkpt lat="44.89242" lon="4.09229">
        <ele>1250</ele>
        <time>2021-04-29T11:42:26Z</time>
      </trkpt>
      <trkpt lat="44.89243" lon="4.09219">
        <ele>1249</ele>
        <time>2021-04-29T11:42:27Z</time>
      </trkpt>
      <trkpt lat="44.89243" lon="4.09208">
        <ele>1248</ele>
        <time>2021-04-29T11:42:28Z</time>
      </trkpt>
      <trkpt lat="44.89243" lon="4.09196">
        <ele>1246</ele>
        <time>2021-04-29T11:42:29Z</time>
      </trkpt>
      <trkpt lat="44.89243" lon="4.09185">
        <ele>1245</ele>
        <time>2021-04-29T11:42:30Z</time>
      </trkpt>
      <trkpt lat="44.89243" lon="4.09173">
        <ele>1243</ele>
        <time>2021-04-29T11:42:31Z</time>
      </trkpt>
      <trkpt lat="44.89243" lon="4.09162">
        <ele>1241</ele>
        <time>2021-04-29T11:42:32Z</time>
      </trkpt>
      <trkpt lat="44.89243" lon="4.09151">
        <ele>1240</ele>
        <time>2021-04-29T11:42:33Z</time>
      </trkpt>
      <trkpt lat="44.89243" lon="4.0914">
        <ele>1238</ele>
        <time>2021-04-29T11:42:34Z</time>
      </trkpt>
      <trkpt lat="44.89238" lon="4.09122">
        <ele>1236</ele>
        <time>2021-04-29T11:42:35Z</time>
      </trkpt>
      <trkpt lat="44.89232" lon="4.09115">
        <ele>1234</ele>
        <time>2021-04-29T11:42:37Z</time>
      </trkpt>
      <trkpt lat="44.89226" lon="4.09111">
        <ele>1233</ele>
        <time>2021-04-29T11:42:38Z</time>
      </trkpt>
      <trkpt lat="44.89219" lon="4.09109">
        <ele>1232</ele>
        <time>2021-04-29T11:42:39Z</time>
      </trkpt>
      <trkpt lat="44.89213" lon="4.09106">
        <ele>1232</ele>
        <time>2021-04-29T11:42:40Z</time>
      </trkpt>
      <trkpt lat="44.89203" lon="4.09103">
        <ele>1231</ele>
        <time>2021-04-29T11:42:41Z</time>
      </trkpt>
      <trkpt lat="44.89197" lon="4.09104">
        <ele>1231</ele>
        <time>2021-04-29T11:42:43Z</time>
      </trkpt>
      <trkpt lat="44.89192" lon="4.09107">
        <ele>1231</ele>
        <time>2021-04-29T11:42:44Z</time>
      </trkpt>
      <trkpt lat="44.89187" lon="4.09111">
        <ele>1231</ele>
        <time>2021-04-29T11:42:45Z</time>
      </trkpt>
      <trkpt lat="44.89183" lon="4.09117">
        <ele>1231</ele>
        <time>2021-04-29T11:42:46Z</time>
      </trkpt>
      <trkpt lat="44.89179" lon="4.09121">
        <ele>1231</ele>
        <time>2021-04-29T11:42:47Z</time>
      </trkpt>
      <trkpt lat="44.89176" lon="4.09126">
        <ele>1231</ele>
        <time>2021-04-29T11:42:48Z</time>
      </trkpt>
      <trkpt lat="44.89172" lon="4.0913">
        <ele>1231</ele>
        <time>2021-04-29T11:42:49Z</time>
      </trkpt>
      <trkpt lat="44.89168" lon="4.09134">
        <ele>1231</ele>
        <time>2021-04-29T11:42:50Z</time>
      </trkpt>
      <trkpt lat="44.89164" lon="4.09138">
        <ele>1231</ele>
        <time>2021-04-29T11:42:51Z</time>
      </trkpt>
      <trkpt lat="44.8916" lon="4.09141">
        <ele>1231</ele>
        <time>2021-04-29T11:42:52Z</time>
      </trkpt>
      <trkpt lat="44.89157" lon="4.09145">
        <ele>1232</ele>
        <time>2021-04-29T11:42:53Z</time>
      </trkpt>
      <trkpt lat="44.89153" lon="4.09148">
        <ele>1232</ele>
        <time>2021-04-29T11:42:54Z</time>
      </trkpt>
      <trkpt lat="44.89149" lon="4.09151">
        <ele>1232</ele>
        <time>2021-04-29T11:42:55Z</time>
      </trkpt>
      <trkpt lat="44.89145" lon="4.09154">
        <ele>1232</ele>
        <time>2021-04-29T11:42:56Z</time>
      </trkpt>
      <trkpt lat="44.89142" lon="4.09156">
        <ele>1232</ele>
        <time>2021-04-29T11:42:57Z</time>
      </trkpt>
      <trkpt lat="44.89138" lon="4.09159">
        <ele>1232</ele>
        <time>2021-04-29T11:42:58Z</time>
      </trkpt>
      <trkpt lat="44.89134" lon="4.09162">
        <ele>1232</ele>
        <time>2021-04-29T11:42:59Z</time>
      </trkpt>
      <trkpt lat="44.89126" lon="4.09168">
        <ele>1232</ele>
        <time>2021-04-29T11:43:00Z</time>
      </trkpt>
      <trkpt lat="44.89122" lon="4.09171">
        <ele>1232</ele>
        <time>2021-04-29T11:43:02Z</time>
      </trkpt>
      <trkpt lat="44.89118" lon="4.09173">
        <ele>1232</ele>
        <time>2021-04-29T11:43:03Z</time>
      </trkpt>
      <trkpt lat="44.89114" lon="4.09176">
        <ele>1232</ele>
        <time>2021-04-29T11:43:04Z</time>
      </trkpt>
      <trkpt lat="44.89109" lon="4.09179">
        <ele>1233</ele>
        <time>2021-04-29T11:43:05Z</time>
      </trkpt>
      <trkpt lat="44.89105" lon="4.09182">
        <ele>1233</ele>
        <time>2021-04-29T11:43:06Z</time>
      </trkpt>
      <trkpt lat="44.89101" lon="4.09185">
        <ele>1233</ele>
        <time>2021-04-29T11:43:07Z</time>
      </trkpt>
      <trkpt lat="44.89097" lon="4.09188">
        <ele>1233</ele>
        <time>2021-04-29T11:43:08Z</time>
      </trkpt>
      <trkpt lat="44.89092" lon="4.0919">
        <ele>1233</ele>
        <time>2021-04-29T11:43:09Z</time>
      </trkpt>
      <trkpt lat="44.89088" lon="4.09193">
        <ele>1234</ele>
        <time>2021-04-29T11:43:10Z</time>
      </trkpt>
      <trkpt lat="44.89084" lon="4.09196">
        <ele>1234</ele>
        <time>2021-04-29T11:43:11Z</time>
      </trkpt>
      <trkpt lat="44.89079" lon="4.09198">
        <ele>1234</ele>
        <time>2021-04-29T11:43:12Z</time>
      </trkpt>
      <trkpt lat="44.89075" lon="4.092">
        <ele>1234</ele>
        <time>2021-04-29T11:43:13Z</time>
      </trkpt>
      <trkpt lat="44.8907" lon="4.09202">
        <ele>1235</ele>
        <time>2021-04-29T11:43:14Z</time>
      </trkpt>
      <trkpt lat="44.89066" lon="4.09204">
        <ele>1235</ele>
        <time>2021-04-29T11:43:15Z</time>
      </trkpt>
      <trkpt lat="44.89061" lon="4.09206">
        <ele>1235</ele>
        <time>2021-04-29T11:43:16Z</time>
      </trkpt>
      <trkpt lat="44.89057" lon="4.09208">
        <ele>1235</ele>
        <time>2021-04-29T11:43:17Z</time>
      </trkpt>
      <trkpt lat="44.89052" lon="4.0921">
        <ele>1236</ele>
        <time>2021-04-29T11:43:18Z</time>
      </trkpt>
      <trkpt lat="44.89043" lon="4.09215">
        <ele>1236</ele>
        <time>2021-04-29T11:43:19Z</time>
      </trkpt>
      <trkpt lat="44.89038" lon="4.09217">
        <ele>1237</ele>
        <time>2021-04-29T11:43:21Z</time>
      </trkpt>
      <trkpt lat="44.89033" lon="4.09219">
        <ele>1237</ele>
        <time>2021-04-29T11:43:22Z</time>
      </trkpt>
      <trkpt lat="44.89028" lon="4.09221">
        <ele>1237</ele>
        <time>2021-04-29T11:43:23Z</time>
      </trkpt>
      <trkpt lat="44.89023" lon="4.09224">
        <ele>1237</ele>
        <time>2021-04-29T11:43:24Z</time>
      </trkpt>
      <trkpt lat="44.89019" lon="4.09227">
        <ele>1238</ele>
        <time>2021-04-29T11:43:25Z</time>
      </trkpt>
      <trkpt lat="44.89014" lon="4.09229">
        <ele>1238</ele>
        <time>2021-04-29T11:43:26Z</time>
      </trkpt>
      <trkpt lat="44.89009" lon="4.09232">
        <ele>1238</ele>
        <time>2021-04-29T11:43:27Z</time>
      </trkpt>
      <trkpt lat="44.89005" lon="4.09235">
        <ele>1238</ele>
        <time>2021-04-29T11:43:28Z</time>
      </trkpt>
      <trkpt lat="44.89" lon="4.09238">
        <ele>1238</ele>
        <time>2021-04-29T11:43:29Z</time>
      </trkpt>
      <trkpt lat="44.88995" lon="4.09241">
        <ele>1239</ele>
        <time>2021-04-29T11:43:30Z</time>
      </trkpt>
      <trkpt lat="44.88991" lon="4.09244">
        <ele>1239</ele>
        <time>2021-04-29T11:43:31Z</time>
      </trkpt>
      <trkpt lat="44.88986" lon="4.09247">
        <ele>1239</ele>
        <time>2021-04-29T11:43:32Z</time>
      </trkpt>
      <trkpt lat="44.88981" lon="4.0925">
        <ele>1240</ele>
        <time>2021-04-29T11:43:33Z</time>
      </trkpt>
      <trkpt lat="44.88977" lon="4.09253">
        <ele>1240</ele>
        <time>2021-04-29T11:43:34Z</time>
      </trkpt>
      <trkpt lat="44.88972" lon="4.09256">
        <ele>1241</ele>
        <time>2021-04-29T11:43:35Z</time>
      </trkpt>
      <trkpt lat="44.88967" lon="4.09258">
        <ele>1241</ele>
        <time>2021-04-29T11:43:36Z</time>
      </trkpt>
      <trkpt lat="44.88962" lon="4.09261">
        <ele>1242</ele>
        <time>2021-04-29T11:43:37Z</time>
      </trkpt>
      <trkpt lat="44.88953" lon="4.09266">
        <ele>1242</ele>
        <time>2021-04-29T11:43:38Z</time>
      </trkpt>
      <trkpt lat="44.88948" lon="4.09269">
        <ele>1243</ele>
        <time>2021-04-29T11:43:40Z</time>
      </trkpt>
      <trkpt lat="44.88943" lon="4.09272">
        <ele>1243</ele>
        <time>2021-04-29T11:43:41Z</time>
      </trkpt>
      <trkpt lat="44.88939" lon="4.09274">
        <ele>1243</ele>
        <time>2021-04-29T11:43:42Z</time>
      </trkpt>
      <trkpt lat="44.88934" lon="4.09277">
        <ele>1244</ele>
        <time>2021-04-29T11:43:43Z</time>
      </trkpt>
      <trkpt lat="44.88929" lon="4.09279">
        <ele>1244</ele>
        <time>2021-04-29T11:43:44Z</time>
      </trkpt>
      <trkpt lat="44.88925" lon="4.09282">
        <ele>1244</ele>
        <time>2021-04-29T11:43:45Z</time>
      </trkpt>
      <trkpt lat="44.8892" lon="4.09284">
        <ele>1244</ele>
        <time>2021-04-29T11:43:46Z</time>
      </trkpt>
      <trkpt lat="44.88915" lon="4.09287">
        <ele>1244</ele>
        <time>2021-04-29T11:43:47Z</time>
      </trkpt>
      <trkpt lat="44.88911" lon="4.09289">
        <ele>1245</ele>
        <time>2021-04-29T11:43:48Z</time>
      </trkpt>
      <trkpt lat="44.88906" lon="4.09292">
        <ele>1245</ele>
        <time>2021-04-29T11:43:49Z</time>
      </trkpt>
      <trkpt lat="44.88901" lon="4.09294">
        <ele>1245</ele>
        <time>2021-04-29T11:43:50Z</time>
      </trkpt>
      <trkpt lat="44.88897" lon="4.09296">
        <ele>1245</ele>
        <time>2021-04-29T11:43:51Z</time>
      </trkpt>
      <trkpt lat="44.88892" lon="4.09299">
        <ele>1245</ele>
        <time>2021-04-29T11:43:52Z</time>
      </trkpt>
      <trkpt lat="44.88888" lon="4.09301">
        <ele>1246</ele>
        <time>2021-04-29T11:43:53Z</time>
      </trkpt>
      <trkpt lat="44.88883" lon="4.09303">
        <ele>1246</ele>
        <time>2021-04-29T11:43:54Z</time>
      </trkpt>
      <trkpt lat="44.88879" lon="4.09305">
        <ele>1246</ele>
        <time>2021-04-29T11:43:55Z</time>
      </trkpt>
      <trkpt lat="44.88875" lon="4.09308">
        <ele>1246</ele>
        <time>2021-04-29T11:43:56Z</time>
      </trkpt>
      <trkpt lat="44.88867" lon="4.09311">
        <ele>1247</ele>
        <time>2021-04-29T11:43:57Z</time>
      </trkpt>
      <trkpt lat="44.88863" lon="4.09311">
        <ele>1247</ele>
        <time>2021-04-29T11:43:59Z</time>
      </trkpt>
      <trkpt lat="44.8886" lon="4.09309">
        <ele>1247</ele>
        <time>2021-04-29T11:44:00Z</time>
      </trkpt>
      <trkpt lat="44.88858" lon="4.09305">
        <ele>1247</ele>
        <time>2021-04-29T11:44:01Z</time>
      </trkpt>
      <trkpt lat="44.88856" lon="4.09299">
        <ele>1247</ele>
        <time>2021-04-29T11:44:02Z</time>
      </trkpt>
      <trkpt lat="44.88855" lon="4.09291">
        <ele>1247</ele>
        <time>2021-04-29T11:44:03Z</time>
      </trkpt>
      <trkpt lat="44.88855" lon="4.09283">
        <ele>1247</ele>
        <time>2021-04-29T11:44:04Z</time>
      </trkpt>
      <trkpt lat="44.88857" lon="4.09274">
        <ele>1246</ele>
        <time>2021-04-29T11:44:05Z</time>
      </trkpt>
      <trkpt lat="44.88859" lon="4.09264">
        <ele>1246</ele>
        <time>2021-04-29T11:44:06Z</time>
      </trkpt>
      <trkpt lat="44.88861" lon="4.09254">
        <ele>1245</ele>
        <time>2021-04-29T11:44:07Z</time>
      </trkpt>
      <trkpt lat="44.88863" lon="4.09244">
        <ele>1244</ele>
        <time>2021-04-29T11:44:08Z</time>
      </trkpt>
      <trkpt lat="44.88864" lon="4.09233">
        <ele>1244</ele>
        <time>2021-04-29T11:44:09Z</time>
      </trkpt>
      <trkpt lat="44.88863" lon="4.09222">
        <ele>1243</ele>
        <time>2021-04-29T11:44:10Z</time>
      </trkpt>
      <trkpt lat="44.8886" lon="4.09212">
        <ele>1242</ele>
        <time>2021-04-29T11:44:11Z</time>
      </trkpt>
      <trkpt lat="44.88856" lon="4.09201">
        <ele>1241</ele>
        <time>2021-04-29T11:44:12Z</time>
      </trkpt>
      <trkpt lat="44.88852" lon="4.0919">
        <ele>1241</ele>
        <time>2021-04-29T11:44:13Z</time>
      </trkpt>
      <trkpt lat="44.88847" lon="4.0918">
        <ele>1241</ele>
        <time>2021-04-29T11:44:14Z</time>
      </trkpt>
      <trkpt lat="44.88842" lon="4.0917">
        <ele>1240</ele>
        <time>2021-04-29T11:44:15Z</time>
      </trkpt>
      <trkpt lat="44.88833" lon="4.0915">
        <ele>1240</ele>
        <time>2021-04-29T11:44:16Z</time>
      </trkpt>
      <trkpt lat="44.88829" lon="4.09141">
        <ele>1240</ele>
        <time>2021-04-29T11:44:18Z</time>
      </trkpt>
      <trkpt lat="44.88824" lon="4.09133">
        <ele>1239</ele>
        <time>2021-04-29T11:44:19Z</time>
      </trkpt>
      <trkpt lat="44.88819" lon="4.09125">
        <ele>1239</ele>
        <time>2021-04-29T11:44:20Z</time>
      </trkpt>
      <trkpt lat="44.88807" lon="4.09109">
        <ele>1239</ele>
        <time>2021-04-29T11:44:21Z</time>
      </trkpt>
      <trkpt lat="44.88801" lon="4.09102">
        <ele>1239</ele>
        <time>2021-04-29T11:44:23Z</time>
      </trkpt>
      <trkpt lat="44.88795" lon="4.09096">
        <ele>1239</ele>
        <time>2021-04-29T11:44:24Z</time>
      </trkpt>
      <trkpt lat="44.88789" lon="4.0909">
        <ele>1239</ele>
        <time>2021-04-29T11:44:25Z</time>
      </trkpt>
      <trkpt lat="44.88784" lon="4.09085">
        <ele>1239</ele>
        <time>2021-04-29T11:44:26Z</time>
      </trkpt>
      <trkpt lat="44.88778" lon="4.0908">
        <ele>1239</ele>
        <time>2021-04-29T11:44:27Z</time>
      </trkpt>
      <trkpt lat="44.88768" lon="4.09071">
        <ele>1240</ele>
        <time>2021-04-29T11:44:28Z</time>
      </trkpt>
      <trkpt lat="44.88763" lon="4.09067">
        <ele>1240</ele>
        <time>2021-04-29T11:44:30Z</time>
      </trkpt>
      <trkpt lat="44.88758" lon="4.09063">
        <ele>1240</ele>
        <time>2021-04-29T11:44:31Z</time>
      </trkpt>
      <trkpt lat="44.88753" lon="4.09059">
        <ele>1241</ele>
        <time>2021-04-29T11:44:32Z</time>
      </trkpt>
      <trkpt lat="44.88748" lon="4.09056">
        <ele>1241</ele>
        <time>2021-04-29T11:44:33Z</time>
      </trkpt>
      <trkpt lat="44.88744" lon="4.09053">
        <ele>1241</ele>
        <time>2021-04-29T11:44:34Z</time>
      </trkpt>
      <trkpt lat="44.88734" lon="4.09047">
        <ele>1241</ele>
        <time>2021-04-29T11:44:35Z</time>
      </trkpt>
      <trkpt lat="44.88729" lon="4.09045">
        <ele>1241</ele>
        <time>2021-04-29T11:44:37Z</time>
      </trkpt>
      <trkpt lat="44.88725" lon="4.09042">
        <ele>1241</ele>
        <time>2021-04-29T11:44:38Z</time>
      </trkpt>
      <trkpt lat="44.8872" lon="4.09039">
        <ele>1241</ele>
        <time>2021-04-29T11:44:39Z</time>
      </trkpt>
      <trkpt lat="44.88715" lon="4.09035">
        <ele>1240</ele>
        <time>2021-04-29T11:44:40Z</time>
      </trkpt>
      <trkpt lat="44.8871" lon="4.0903">
        <ele>1240</ele>
        <time>2021-04-29T11:44:41Z</time>
      </trkpt>
      <trkpt lat="44.88704" lon="4.09024">
        <ele>1239</ele>
        <time>2021-04-29T11:44:42Z</time>
      </trkpt>
      <trkpt lat="44.88698" lon="4.09017">
        <ele>1238</ele>
        <time>2021-04-29T11:44:43Z</time>
      </trkpt>
      <trkpt lat="44.88691" lon="4.09009">
        <ele>1237</ele>
        <time>2021-04-29T11:44:44Z</time>
      </trkpt>
      <trkpt lat="44.88676" lon="4.08992">
        <ele>1236</ele>
        <time>2021-04-29T11:44:45Z</time>
      </trkpt>
      <trkpt lat="44.88669" lon="4.08981">
        <ele>1234</ele>
        <time>2021-04-29T11:44:47Z</time>
      </trkpt>
      <trkpt lat="44.88661" lon="4.0897">
        <ele>1232</ele>
        <time>2021-04-29T11:44:48Z</time>
      </trkpt>
      <trkpt lat="44.88652" lon="4.08959">
        <ele>1231</ele>
        <time>2021-04-29T11:44:49Z</time>
      </trkpt>
      <trkpt lat="44.88644" lon="4.08948">
        <ele>1230</ele>
        <time>2021-04-29T11:44:50Z</time>
      </trkpt>
      <trkpt lat="44.88635" lon="4.08937">
        <ele>1229</ele>
        <time>2021-04-29T11:44:51Z</time>
      </trkpt>
      <trkpt lat="44.88626" lon="4.08929">
        <ele>1228</ele>
        <time>2021-04-29T11:44:52Z</time>
      </trkpt>
      <trkpt lat="44.88618" lon="4.08922">
        <ele>1227</ele>
        <time>2021-04-29T11:44:53Z</time>
      </trkpt>
      <trkpt lat="44.886" lon="4.08907">
        <ele>1225</ele>
        <time>2021-04-29T11:44:54Z</time>
      </trkpt>
      <trkpt lat="44.88591" lon="4.08898">
        <ele>1223</ele>
        <time>2021-04-29T11:44:55Z</time>
      </trkpt>
      <trkpt lat="44.8858" lon="4.08889">
        <ele>1219</ele>
        <time>2021-04-29T11:44:57Z</time>
      </trkpt>
      <trkpt lat="44.8857" lon="4.0888">
        <ele>1217</ele>
        <time>2021-04-29T11:44:58Z</time>
      </trkpt>
      <trkpt lat="44.88559" lon="4.0887">
        <ele>1215</ele>
        <time>2021-04-29T11:44:59Z</time>
      </trkpt>
      <trkpt lat="44.88549" lon="4.08862">
        <ele>1213</ele>
        <time>2021-04-29T11:45:00Z</time>
      </trkpt>
      <trkpt lat="44.88541" lon="4.08854">
        <ele>1212</ele>
        <time>2021-04-29T11:45:01Z</time>
      </trkpt>
      <trkpt lat="44.88534" lon="4.08846">
        <ele>1211</ele>
        <time>2021-04-29T11:45:02Z</time>
      </trkpt>
      <trkpt lat="44.88528" lon="4.08838">
        <ele>1209</ele>
        <time>2021-04-29T11:45:03Z</time>
      </trkpt>
      <trkpt lat="44.88522" lon="4.08829">
        <ele>1208</ele>
        <time>2021-04-29T11:45:04Z</time>
      </trkpt>
      <trkpt lat="44.88517" lon="4.08819">
        <ele>1207</ele>
        <time>2021-04-29T11:45:05Z</time>
      </trkpt>
      <trkpt lat="44.88513" lon="4.08808">
        <ele>1207</ele>
        <time>2021-04-29T11:45:06Z</time>
      </trkpt>
      <trkpt lat="44.8851" lon="4.08796">
        <ele>1206</ele>
        <time>2021-04-29T11:45:07Z</time>
      </trkpt>
      <trkpt lat="44.88507" lon="4.08785">
        <ele>1206</ele>
        <time>2021-04-29T11:45:08Z</time>
      </trkpt>
      <trkpt lat="44.88504" lon="4.08773">
        <ele>1205</ele>
        <time>2021-04-29T11:45:09Z</time>
      </trkpt>
      <trkpt lat="44.88501" lon="4.0876">
        <ele>1204</ele>
        <time>2021-04-29T11:45:10Z</time>
      </trkpt>
      <trkpt lat="44.88497" lon="4.08748">
        <ele>1203</ele>
        <time>2021-04-29T11:45:11Z</time>
      </trkpt>
      <trkpt lat="44.88494" lon="4.08736">
        <ele>1202</ele>
        <time>2021-04-29T11:45:12Z</time>
      </trkpt>
      <trkpt lat="44.88487" lon="4.08715">
        <ele>1202</ele>
        <time>2021-04-29T11:45:13Z</time>
      </trkpt>
      <trkpt lat="44.88484" lon="4.08706">
        <ele>1200</ele>
        <time>2021-04-29T11:45:15Z</time>
      </trkpt>
      <trkpt lat="44.88481" lon="4.08696">
        <ele>1200</ele>
        <time>2021-04-29T11:45:16Z</time>
      </trkpt>
      <trkpt lat="44.88479" lon="4.08687">
        <ele>1200</ele>
        <time>2021-04-29T11:45:17Z</time>
      </trkpt>
      <trkpt lat="44.88477" lon="4.08677">
        <ele>1199</ele>
        <time>2021-04-29T11:45:18Z</time>
      </trkpt>
      <trkpt lat="44.88475" lon="4.08667">
        <ele>1198</ele>
        <time>2021-04-29T11:45:19Z</time>
      </trkpt>
      <trkpt lat="44.88473" lon="4.08657">
        <ele>1198</ele>
        <time>2021-04-29T11:45:20Z</time>
      </trkpt>
      <trkpt lat="44.8847" lon="4.08647">
        <ele>1198</ele>
        <time>2021-04-29T11:45:21Z</time>
      </trkpt>
      <trkpt lat="44.88467" lon="4.08638">
        <ele>1197</ele>
        <time>2021-04-29T11:45:22Z</time>
      </trkpt>
      <trkpt lat="44.88464" lon="4.08629">
        <ele>1197</ele>
        <time>2021-04-29T11:45:23Z</time>
      </trkpt>
      <trkpt lat="44.88461" lon="4.08619">
        <ele>1196</ele>
        <time>2021-04-29T11:45:24Z</time>
      </trkpt>
      <trkpt lat="44.88461" lon="4.08609">
        <ele>1196</ele>
        <time>2021-04-29T11:45:25Z</time>
      </trkpt>
      <trkpt lat="44.8846" lon="4.08599">
        <ele>1196</ele>
        <time>2021-04-29T11:45:26Z</time>
      </trkpt>
      <trkpt lat="44.88461" lon="4.08589">
        <ele>1195</ele>
        <time>2021-04-29T11:45:27Z</time>
      </trkpt>
      <trkpt lat="44.88463" lon="4.08579">
        <ele>1195</ele>
        <time>2021-04-29T11:45:28Z</time>
      </trkpt>
      <trkpt lat="44.88465" lon="4.08569">
        <ele>1195</ele>
        <time>2021-04-29T11:45:29Z</time>
      </trkpt>
      <trkpt lat="44.88467" lon="4.08561">
        <ele>1194</ele>
        <time>2021-04-29T11:45:30Z</time>
      </trkpt>
      <trkpt lat="44.88469" lon="4.08555">
        <ele>1193</ele>
        <time>2021-04-29T11:45:31Z</time>
      </trkpt>
      <trkpt lat="44.8847" lon="4.08549">
        <ele>1193</ele>
        <time>2021-04-29T11:45:32Z</time>
      </trkpt>
      <trkpt lat="44.8847" lon="4.08542">
        <ele>1192</ele>
        <time>2021-04-29T11:45:33Z</time>
      </trkpt>
      <trkpt lat="44.8847" lon="4.08534">
        <ele>1192</ele>
        <time>2021-04-29T11:45:34Z</time>
      </trkpt>
      <trkpt lat="44.8847" lon="4.08525">
        <ele>1190</ele>
        <time>2021-04-29T11:45:35Z</time>
      </trkpt>
      <trkpt lat="44.88471" lon="4.08515">
        <ele>1189</ele>
        <time>2021-04-29T11:45:36Z</time>
      </trkpt>
      <trkpt lat="44.88471" lon="4.08504">
        <ele>1189</ele>
        <time>2021-04-29T11:45:37Z</time>
      </trkpt>
      <trkpt lat="44.88472" lon="4.08492">
        <ele>1188</ele>
        <time>2021-04-29T11:45:38Z</time>
      </trkpt>
      <trkpt lat="44.88472" lon="4.08481">
        <ele>1186</ele>
        <time>2021-04-29T11:45:39Z</time>
      </trkpt>
      <trkpt lat="44.88471" lon="4.08471">
        <ele>1185</ele>
        <time>2021-04-29T11:45:40Z</time>
      </trkpt>
      <trkpt lat="44.88469" lon="4.08462">
        <ele>1184</ele>
        <time>2021-04-29T11:45:41Z</time>
      </trkpt>
      <trkpt lat="44.88465" lon="4.08453">
        <ele>1183</ele>
        <time>2021-04-29T11:45:42Z</time>
      </trkpt>
      <trkpt lat="44.8846" lon="4.08446">
        <ele>1182</ele>
        <time>2021-04-29T11:45:43Z</time>
      </trkpt>
      <trkpt lat="44.88454" lon="4.08439">
        <ele>1180</ele>
        <time>2021-04-29T11:45:44Z</time>
      </trkpt>
      <trkpt lat="44.88449" lon="4.08434">
        <ele>1180</ele>
        <time>2021-04-29T11:45:45Z</time>
      </trkpt>
      <trkpt lat="44.88445" lon="4.08429">
        <ele>1179</ele>
        <time>2021-04-29T11:45:46Z</time>
      </trkpt>
      <trkpt lat="44.88441" lon="4.08426">
        <ele>1178</ele>
        <time>2021-04-29T11:45:47Z</time>
      </trkpt>
      <trkpt lat="44.88438" lon="4.08422">
        <ele>1178</ele>
        <time>2021-04-29T11:45:48Z</time>
      </trkpt>
      <trkpt lat="44.88434" lon="4.08417">
        <ele>1177</ele>
        <time>2021-04-29T11:45:49Z</time>
      </trkpt>
      <trkpt lat="44.8843" lon="4.08412">
        <ele>1176</ele>
        <time>2021-04-29T11:45:50Z</time>
      </trkpt>
      <trkpt lat="44.88421" lon="4.08402">
        <ele>1175</ele>
        <time>2021-04-29T11:45:51Z</time>
      </trkpt>
      <trkpt lat="44.88417" lon="4.08397">
        <ele>1173</ele>
        <time>2021-04-29T11:45:53Z</time>
      </trkpt>
      <trkpt lat="44.88412" lon="4.08391">
        <ele>1173</ele>
        <time>2021-04-29T11:45:54Z</time>
      </trkpt>
      <trkpt lat="44.88408" lon="4.08385">
        <ele>1171</ele>
        <time>2021-04-29T11:45:55Z</time>
      </trkpt>
      <trkpt lat="44.88405" lon="4.08379">
        <ele>1170</ele>
        <time>2021-04-29T11:45:56Z</time>
      </trkpt>
      <trkpt lat="44.88402" lon="4.08375">
        <ele>1170</ele>
        <time>2021-04-29T11:45:57Z</time>
      </trkpt>
      <trkpt lat="44.88401" lon="4.08371">
        <ele>1169</ele>
        <time>2021-04-29T11:45:58Z</time>
      </trkpt>
      <trkpt lat="44.88399" lon="4.08369">
        <ele>1169</ele>
        <time>2021-04-29T11:45:59Z</time>
      </trkpt>
      <trkpt lat="44.88398" lon="4.08367">
        <ele>1169</ele>
        <time>2021-04-29T11:46:00Z</time>
      </trkpt>
      <trkpt lat="44.88395" lon="4.08364">
        <ele>1168</ele>
        <time>2021-04-29T11:46:01Z</time>
      </trkpt>
      <trkpt lat="44.88393" lon="4.08359">
        <ele>1168</ele>
        <time>2021-04-29T11:46:02Z</time>
      </trkpt>
      <trkpt lat="44.8839" lon="4.08354">
        <ele>1167</ele>
        <time>2021-04-29T11:46:03Z</time>
      </trkpt>
      <trkpt lat="44.88387" lon="4.08348">
        <ele>1167</ele>
        <time>2021-04-29T11:46:04Z</time>
      </trkpt>
      <trkpt lat="44.88384" lon="4.08343">
        <ele>1167</ele>
        <time>2021-04-29T11:46:05Z</time>
      </trkpt>
      <trkpt lat="44.8838" lon="4.08338">
        <ele>1167</ele>
        <time>2021-04-29T11:46:06Z</time>
      </trkpt>
      <trkpt lat="44.88377" lon="4.08333">
        <ele>1166</ele>
        <time>2021-04-29T11:46:07Z</time>
      </trkpt>
      <trkpt lat="44.88374" lon="4.08327">
        <ele>1166</ele>
        <time>2021-04-29T11:46:08Z</time>
      </trkpt>
      <trkpt lat="44.8837" lon="4.08322">
        <ele>1166</ele>
        <time>2021-04-29T11:46:09Z</time>
      </trkpt>
      <trkpt lat="44.88364" lon="4.08314">
        <ele>1165</ele>
        <time>2021-04-29T11:46:10Z</time>
      </trkpt>
      <trkpt lat="44.88361" lon="4.08311">
        <ele>1165</ele>
        <time>2021-04-29T11:46:12Z</time>
      </trkpt>
      <trkpt lat="44.88358" lon="4.08308">
        <ele>1165</ele>
        <time>2021-04-29T11:46:13Z</time>
      </trkpt>
      <trkpt lat="44.88356" lon="4.08305">
        <ele>1165</ele>
        <time>2021-04-29T11:46:14Z</time>
      </trkpt>
      <trkpt lat="44.88354" lon="4.08303">
        <ele>1165</ele>
        <time>2021-04-29T11:46:15Z</time>
      </trkpt>
      <trkpt lat="44.88352" lon="4.08299">
        <ele>1165</ele>
        <time>2021-04-29T11:46:16Z</time>
      </trkpt>
      <trkpt lat="44.8835" lon="4.08296">
        <ele>1165</ele>
        <time>2021-04-29T11:46:17Z</time>
      </trkpt>
      <trkpt lat="44.88349" lon="4.08292">
        <ele>1165</ele>
        <time>2021-04-29T11:46:18Z</time>
      </trkpt>
      <trkpt lat="44.88347" lon="4.08289">
        <ele>1165</ele>
        <time>2021-04-29T11:46:19Z</time>
      </trkpt>
      <trkpt lat="44.88346" lon="4.08285">
        <ele>1165</ele>
        <time>2021-04-29T11:46:20Z</time>
      </trkpt>
      <trkpt lat="44.88346" lon="4.08281">
        <ele>1165</ele>
        <time>2021-04-29T11:46:21Z</time>
      </trkpt>
      <trkpt lat="44.88346" lon="4.08278">
        <ele>1165</ele>
        <time>2021-04-29T11:46:22Z</time>
      </trkpt>
      <trkpt lat="44.88346" lon="4.08274">
        <ele>1165</ele>
        <time>2021-04-29T11:46:23Z</time>
      </trkpt>
      <trkpt lat="44.88346" lon="4.08271">
        <ele>1165</ele>
        <time>2021-04-29T11:46:24Z</time>
      </trkpt>
      <trkpt lat="44.88347" lon="4.08267">
        <ele>1165</ele>
        <time>2021-04-29T11:46:25Z</time>
      </trkpt>
      <trkpt lat="44.88348" lon="4.08264">
        <ele>1165</ele>
        <time>2021-04-29T11:46:26Z</time>
      </trkpt>
      <trkpt lat="44.88349" lon="4.08261">
        <ele>1166</ele>
        <time>2021-04-29T11:46:27Z</time>
      </trkpt>
      <trkpt lat="44.88351" lon="4.08259">
        <ele>1166</ele>
        <time>2021-04-29T11:46:28Z</time>
      </trkpt>
      <trkpt lat="44.88355" lon="4.08255">
        <ele>1166</ele>
        <time>2021-04-29T11:46:29Z</time>
      </trkpt>
      <trkpt lat="44.88357" lon="4.08253">
        <ele>1166</ele>
        <time>2021-04-29T11:46:31Z</time>
      </trkpt>
      <trkpt lat="44.88362" lon="4.08249">
        <ele>1166</ele>
        <time>2021-04-29T11:46:32Z</time>
      </trkpt>
      <trkpt lat="44.88364" lon="4.08247">
        <ele>1166</ele>
        <time>2021-04-29T11:46:34Z</time>
      </trkpt>
      <trkpt lat="44.88366" lon="4.08245">
        <ele>1166</ele>
        <time>2021-04-29T11:46:35Z</time>
      </trkpt>
      <trkpt lat="44.88368" lon="4.08242">
        <ele>1166</ele>
        <time>2021-04-29T11:46:36Z</time>
      </trkpt>
      <trkpt lat="44.8837" lon="4.08239">
        <ele>1167</ele>
        <time>2021-04-29T11:46:37Z</time>
      </trkpt>
      <trkpt lat="44.88372" lon="4.08237">
        <ele>1167</ele>
        <time>2021-04-29T11:46:38Z</time>
      </trkpt>
      <trkpt lat="44.88373" lon="4.08234">
        <ele>1167</ele>
        <time>2021-04-29T11:46:39Z</time>
      </trkpt>
      <trkpt lat="44.88375" lon="4.08231">
        <ele>1167</ele>
        <time>2021-04-29T11:46:40Z</time>
      </trkpt>
      <trkpt lat="44.88376" lon="4.08228">
        <ele>1167</ele>
        <time>2021-04-29T11:46:41Z</time>
      </trkpt>
      <trkpt lat="44.88378" lon="4.08225">
        <ele>1167</ele>
        <time>2021-04-29T11:46:42Z</time>
      </trkpt>
      <trkpt lat="44.88379" lon="4.08221">
        <ele>1167</ele>
        <time>2021-04-29T11:46:43Z</time>
      </trkpt>
      <trkpt lat="44.88381" lon="4.08218">
        <ele>1167</ele>
        <time>2021-04-29T11:46:44Z</time>
      </trkpt>
      <trkpt lat="44.88382" lon="4.08214">
        <ele>1167</ele>
        <time>2021-04-29T11:46:45Z</time>
      </trkpt>
      <trkpt lat="44.88383" lon="4.0821">
        <ele>1167</ele>
        <time>2021-04-29T11:46:46Z</time>
      </trkpt>
      <trkpt lat="44.88384" lon="4.08206">
        <ele>1167</ele>
        <time>2021-04-29T11:46:47Z</time>
      </trkpt>
      <trkpt lat="44.88385" lon="4.08198">
        <ele>1167</ele>
        <time>2021-04-29T11:46:48Z</time>
      </trkpt>
      <trkpt lat="44.88386" lon="4.08194">
        <ele>1167</ele>
        <time>2021-04-29T11:46:50Z</time>
      </trkpt>
      <trkpt lat="44.88387" lon="4.08189">
        <ele>1167</ele>
        <time>2021-04-29T11:46:51Z</time>
      </trkpt>
      <trkpt lat="44.88387" lon="4.08185">
        <ele>1167</ele>
        <time>2021-04-29T11:46:52Z</time>
      </trkpt>
      <trkpt lat="44.88387" lon="4.08181">
        <ele>1167</ele>
        <time>2021-04-29T11:46:53Z</time>
      </trkpt>
      <trkpt lat="44.88387" lon="4.08176">
        <ele>1167</ele>
        <time>2021-04-29T11:46:54Z</time>
      </trkpt>
      <trkpt lat="44.88387" lon="4.08171">
        <ele>1167</ele>
        <time>2021-04-29T11:46:55Z</time>
      </trkpt>
      <trkpt lat="44.88387" lon="4.08166">
        <ele>1167</ele>
        <time>2021-04-29T11:46:56Z</time>
      </trkpt>
      <trkpt lat="44.88387" lon="4.08161">
        <ele>1167</ele>
        <time>2021-04-29T11:46:57Z</time>
      </trkpt>
      <trkpt lat="44.88387" lon="4.08155">
        <ele>1167</ele>
        <time>2021-04-29T11:46:58Z</time>
      </trkpt>
      <trkpt lat="44.88386" lon="4.0815">
        <ele>1167</ele>
        <time>2021-04-29T11:46:59Z</time>
      </trkpt>
      <trkpt lat="44.88386" lon="4.08145">
        <ele>1167</ele>
        <time>2021-04-29T11:47:00Z</time>
      </trkpt>
      <trkpt lat="44.88386" lon="4.08139">
        <ele>1168</ele>
        <time>2021-04-29T11:47:01Z</time>
      </trkpt>
      <trkpt lat="44.88386" lon="4.08134">
        <ele>1168</ele>
        <time>2021-04-29T11:47:02Z</time>
      </trkpt>
      <trkpt lat="44.88385" lon="4.08129">
        <ele>1168</ele>
        <time>2021-04-29T11:47:03Z</time>
      </trkpt>
      <trkpt lat="44.88385" lon="4.08123">
        <ele>1168</ele>
        <time>2021-04-29T11:47:04Z</time>
      </trkpt>
      <trkpt lat="44.88385" lon="4.08117">
        <ele>1168</ele>
        <time>2021-04-29T11:47:05Z</time>
      </trkpt>
      <trkpt lat="44.88384" lon="4.08112">
        <ele>1168</ele>
        <time>2021-04-29T11:47:06Z</time>
      </trkpt>
      <trkpt lat="44.88383" lon="4.08101">
        <ele>1168</ele>
        <time>2021-04-29T11:47:07Z</time>
      </trkpt>
      <trkpt lat="44.88383" lon="4.08096">
        <ele>1169</ele>
        <time>2021-04-29T11:47:09Z</time>
      </trkpt>
      <trkpt lat="44.88382" lon="4.08092">
        <ele>1169</ele>
        <time>2021-04-29T11:47:10Z</time>
      </trkpt>
      <trkpt lat="44.88381" lon="4.08088">
        <ele>1169</ele>
        <time>2021-04-29T11:47:11Z</time>
      </trkpt>
      <trkpt lat="44.8838" lon="4.08084">
        <ele>1169</ele>
        <time>2021-04-29T11:47:12Z</time>
      </trkpt>
      <trkpt lat="44.88379" lon="4.08081">
        <ele>1170</ele>
        <time>2021-04-29T11:47:13Z</time>
      </trkpt>
      <trkpt lat="44.88379" lon="4.08077">
        <ele>1170</ele>
        <time>2021-04-29T11:47:14Z</time>
      </trkpt>
      <trkpt lat="44.88378" lon="4.08072">
        <ele>1170</ele>
        <time>2021-04-29T11:47:15Z</time>
      </trkpt>
      <trkpt lat="44.88377" lon="4.08068">
        <ele>1170</ele>
        <time>2021-04-29T11:47:16Z</time>
      </trkpt>
      <trkpt lat="44.88377" lon="4.08063">
        <ele>1171</ele>
        <time>2021-04-29T11:47:17Z</time>
      </trkpt>
      <trkpt lat="44.88377" lon="4.08058">
        <ele>1171</ele>
        <time>2021-04-29T11:47:18Z</time>
      </trkpt>
      <trkpt lat="44.88377" lon="4.08053">
        <ele>1171</ele>
        <time>2021-04-29T11:47:19Z</time>
      </trkpt>
      <trkpt lat="44.88377" lon="4.08047">
        <ele>1172</ele>
        <time>2021-04-29T11:47:20Z</time>
      </trkpt>
      <trkpt lat="44.88377" lon="4.08042">
        <ele>1172</ele>
        <time>2021-04-29T11:47:21Z</time>
      </trkpt>
      <trkpt lat="44.88378" lon="4.08038">
        <ele>1172</ele>
        <time>2021-04-29T11:47:22Z</time>
      </trkpt>
      <trkpt lat="44.88379" lon="4.08028">
        <ele>1172</ele>
        <time>2021-04-29T11:47:23Z</time>
      </trkpt>
      <trkpt lat="44.88381" lon="4.08024">
        <ele>1173</ele>
        <time>2021-04-29T11:47:25Z</time>
      </trkpt>
      <trkpt lat="44.88387" lon="4.08016">
        <ele>1173</ele>
        <time>2021-04-29T11:47:26Z</time>
      </trkpt>
      <trkpt lat="44.88391" lon="4.08014">
        <ele>1173</ele>
        <time>2021-04-29T11:47:28Z</time>
      </trkpt>
      <trkpt lat="44.88395" lon="4.08014">
        <ele>1173</ele>
        <time>2021-04-29T11:47:29Z</time>
      </trkpt>
      <trkpt lat="44.884" lon="4.08014">
        <ele>1173</ele>
        <time>2021-04-29T11:47:30Z</time>
      </trkpt>
      <trkpt lat="44.88404" lon="4.08016">
        <ele>1174</ele>
        <time>2021-04-29T11:47:31Z</time>
      </trkpt>
      <trkpt lat="44.88408" lon="4.08017">
        <ele>1174</ele>
        <time>2021-04-29T11:47:32Z</time>
      </trkpt>
      <trkpt lat="44.88413" lon="4.0802">
        <ele>1174</ele>
        <time>2021-04-29T11:47:33Z</time>
      </trkpt>
      <trkpt lat="44.88417" lon="4.08022">
        <ele>1174</ele>
        <time>2021-04-29T11:47:34Z</time>
      </trkpt>
      <trkpt lat="44.88421" lon="4.08025">
        <ele>1174</ele>
        <time>2021-04-29T11:47:35Z</time>
      </trkpt>
      <trkpt lat="44.88425" lon="4.08027">
        <ele>1174</ele>
        <time>2021-04-29T11:47:36Z</time>
      </trkpt>
      <trkpt lat="44.8843" lon="4.08029">
        <ele>1174</ele>
        <time>2021-04-29T11:47:37Z</time>
      </trkpt>
      <trkpt lat="44.88434" lon="4.0803">
        <ele>1174</ele>
        <time>2021-04-29T11:47:38Z</time>
      </trkpt>
      <trkpt lat="44.88439" lon="4.08031">
        <ele>1174</ele>
        <time>2021-04-29T11:47:39Z</time>
      </trkpt>
      <trkpt lat="44.88443" lon="4.08031">
        <ele>1174</ele>
        <time>2021-04-29T11:47:40Z</time>
      </trkpt>
      <trkpt lat="44.88447" lon="4.08031">
        <ele>1174</ele>
        <time>2021-04-29T11:47:41Z</time>
      </trkpt>
      <trkpt lat="44.88451" lon="4.08031">
        <ele>1174</ele>
        <time>2021-04-29T11:47:42Z</time>
      </trkpt>
      <trkpt lat="44.88455" lon="4.0803">
        <ele>1174</ele>
        <time>2021-04-29T11:47:43Z</time>
      </trkpt>
      <trkpt lat="44.88459" lon="4.08029">
        <ele>1175</ele>
        <time>2021-04-29T11:47:44Z</time>
      </trkpt>
      <trkpt lat="44.88467" lon="4.08027">
        <ele>1175</ele>
        <time>2021-04-29T11:47:45Z</time>
      </trkpt>
      <trkpt lat="44.88471" lon="4.08025">
        <ele>1175</ele>
        <time>2021-04-29T11:47:47Z</time>
      </trkpt>
      <trkpt lat="44.88475" lon="4.08024">
        <ele>1176</ele>
        <time>2021-04-29T11:47:48Z</time>
      </trkpt>
      <trkpt lat="44.88479" lon="4.08023">
        <ele>1176</ele>
        <time>2021-04-29T11:47:49Z</time>
      </trkpt>
      <trkpt lat="44.88483" lon="4.08022">
        <ele>1176</ele>
        <time>2021-04-29T11:47:50Z</time>
      </trkpt>
      <trkpt lat="44.88488" lon="4.08021">
        <ele>1176</ele>
        <time>2021-04-29T11:47:51Z</time>
      </trkpt>
      <trkpt lat="44.88492" lon="4.08019">
        <ele>1176</ele>
        <time>2021-04-29T11:47:52Z</time>
      </trkpt>
      <trkpt lat="44.88496" lon="4.08015">
        <ele>1176</ele>
        <time>2021-04-29T11:47:53Z</time>
      </trkpt>
      <trkpt lat="44.885" lon="4.08012">
        <ele>1176</ele>
        <time>2021-04-29T11:47:54Z</time>
      </trkpt>
      <trkpt lat="44.88504" lon="4.08008">
        <ele>1176</ele>
        <time>2021-04-29T11:47:55Z</time>
      </trkpt>
      <trkpt lat="44.88508" lon="4.08005">
        <ele>1177</ele>
        <time>2021-04-29T11:47:56Z</time>
      </trkpt>
      <trkpt lat="44.88512" lon="4.08003">
        <ele>1177</ele>
        <time>2021-04-29T11:47:57Z</time>
      </trkpt>
      <trkpt lat="44.88516" lon="4.08">
        <ele>1177</ele>
        <time>2021-04-29T11:47:58Z</time>
      </trkpt>
      <trkpt lat="44.8852" lon="4.07998">
        <ele>1177</ele>
        <time>2021-04-29T11:47:59Z</time>
      </trkpt>
      <trkpt lat="44.88524" lon="4.07996">
        <ele>1177</ele>
        <time>2021-04-29T11:48:00Z</time>
      </trkpt>
      <trkpt lat="44.88528" lon="4.07994">
        <ele>1177</ele>
        <time>2021-04-29T11:48:01Z</time>
      </trkpt>
      <trkpt lat="44.88532" lon="4.07991">
        <ele>1177</ele>
        <time>2021-04-29T11:48:02Z</time>
      </trkpt>
      <trkpt lat="44.88536" lon="4.07988">
        <ele>1177</ele>
        <time>2021-04-29T11:48:03Z</time>
      </trkpt>
      <trkpt lat="44.88544" lon="4.07978">
        <ele>1178</ele>
        <time>2021-04-29T11:48:04Z</time>
      </trkpt>
      <trkpt lat="44.88547" lon="4.07973">
        <ele>1178</ele>
        <time>2021-04-29T11:48:06Z</time>
      </trkpt>
      <trkpt lat="44.8855" lon="4.07969">
        <ele>1179</ele>
        <time>2021-04-29T11:48:07Z</time>
      </trkpt>
      <trkpt lat="44.88553" lon="4.07965">
        <ele>1179</ele>
        <time>2021-04-29T11:48:08Z</time>
      </trkpt>
      <trkpt lat="44.88557" lon="4.07961">
        <ele>1179</ele>
        <time>2021-04-29T11:48:09Z</time>
      </trkpt>
      <trkpt lat="44.88561" lon="4.07958">
        <ele>1180</ele>
        <time>2021-04-29T11:48:10Z</time>
      </trkpt>
      <trkpt lat="44.88564" lon="4.07954">
        <ele>1180</ele>
        <time>2021-04-29T11:48:11Z</time>
      </trkpt>
      <trkpt lat="44.88568" lon="4.0795">
        <ele>1180</ele>
        <time>2021-04-29T11:48:12Z</time>
      </trkpt>
      <trkpt lat="44.88572" lon="4.07947">
        <ele>1180</ele>
        <time>2021-04-29T11:48:13Z</time>
      </trkpt>
      <trkpt lat="44.88576" lon="4.07943">
        <ele>1181</ele>
        <time>2021-04-29T11:48:14Z</time>
      </trkpt>
      <trkpt lat="44.8858" lon="4.0794">
        <ele>1181</ele>
        <time>2021-04-29T11:48:15Z</time>
      </trkpt>
      <trkpt lat="44.88588" lon="4.07934">
        <ele>1181</ele>
        <time>2021-04-29T11:48:16Z</time>
      </trkpt>
      <trkpt lat="44.88592" lon="4.07932">
        <ele>1182</ele>
        <time>2021-04-29T11:48:18Z</time>
      </trkpt>
      <trkpt lat="44.88596" lon="4.07929">
        <ele>1182</ele>
        <time>2021-04-29T11:48:19Z</time>
      </trkpt>
      <trkpt lat="44.88601" lon="4.07926">
        <ele>1182</ele>
        <time>2021-04-29T11:48:20Z</time>
      </trkpt>
      <trkpt lat="44.88605" lon="4.07922">
        <ele>1182</ele>
        <time>2021-04-29T11:48:21Z</time>
      </trkpt>
      <trkpt lat="44.88609" lon="4.07919">
        <ele>1182</ele>
        <time>2021-04-29T11:48:22Z</time>
      </trkpt>
      <trkpt lat="44.88612" lon="4.07914">
        <ele>1182</ele>
        <time>2021-04-29T11:48:23Z</time>
      </trkpt>
      <trkpt lat="44.88616" lon="4.0791">
        <ele>1183</ele>
        <time>2021-04-29T11:48:24Z</time>
      </trkpt>
      <trkpt lat="44.88619" lon="4.07906">
        <ele>1183</ele>
        <time>2021-04-29T11:48:25Z</time>
      </trkpt>
      <trkpt lat="44.88623" lon="4.07902">
        <ele>1183</ele>
        <time>2021-04-29T11:48:26Z</time>
      </trkpt>
      <trkpt lat="44.88627" lon="4.07897">
        <ele>1183</ele>
        <time>2021-04-29T11:48:27Z</time>
      </trkpt>
      <trkpt lat="44.8863" lon="4.07891">
        <ele>1183</ele>
        <time>2021-04-29T11:48:28Z</time>
      </trkpt>
      <trkpt lat="44.88633" lon="4.07886">
        <ele>1184</ele>
        <time>2021-04-29T11:48:29Z</time>
      </trkpt>
      <trkpt lat="44.88637" lon="4.07882">
        <ele>1184</ele>
        <time>2021-04-29T11:48:30Z</time>
      </trkpt>
      <trkpt lat="44.88645" lon="4.07875">
        <ele>1184</ele>
        <time>2021-04-29T11:48:31Z</time>
      </trkpt>
      <trkpt lat="44.8865" lon="4.07871">
        <ele>1184</ele>
        <time>2021-04-29T11:48:33Z</time>
      </trkpt>
      <trkpt lat="44.88654" lon="4.07867">
        <ele>1184</ele>
        <time>2021-04-29T11:48:34Z</time>
      </trkpt>
      <trkpt lat="44.88659" lon="4.07864">
        <ele>1184</ele>
        <time>2021-04-29T11:48:35Z</time>
      </trkpt>
      <trkpt lat="44.88663" lon="4.0786">
        <ele>1185</ele>
        <time>2021-04-29T11:48:36Z</time>
      </trkpt>
      <trkpt lat="44.88667" lon="4.07855">
        <ele>1185</ele>
        <time>2021-04-29T11:48:37Z</time>
      </trkpt>
      <trkpt lat="44.8867" lon="4.07851">
        <ele>1185</ele>
        <time>2021-04-29T11:48:38Z</time>
      </trkpt>
      <trkpt lat="44.88674" lon="4.07846">
        <ele>1185</ele>
        <time>2021-04-29T11:48:39Z</time>
      </trkpt>
      <trkpt lat="44.88677" lon="4.07841">
        <ele>1185</ele>
        <time>2021-04-29T11:48:40Z</time>
      </trkpt>
      <trkpt lat="44.8868" lon="4.07836">
        <ele>1186</ele>
        <time>2021-04-29T11:48:41Z</time>
      </trkpt>
      <trkpt lat="44.88686" lon="4.07827">
        <ele>1186</ele>
        <time>2021-04-29T11:48:42Z</time>
      </trkpt>
      <trkpt lat="44.8869" lon="4.07822">
        <ele>1186</ele>
        <time>2021-04-29T11:48:44Z</time>
      </trkpt>
      <trkpt lat="44.88693" lon="4.07818">
        <ele>1187</ele>
        <time>2021-04-29T11:48:45Z</time>
      </trkpt>
      <trkpt lat="44.88696" lon="4.07814">
        <ele>1187</ele>
        <time>2021-04-29T11:48:46Z</time>
      </trkpt>
      <trkpt lat="44.88699" lon="4.0781">
        <ele>1188</ele>
        <time>2021-04-29T11:48:47Z</time>
      </trkpt>
      <trkpt lat="44.88703" lon="4.07806">
        <ele>1188</ele>
        <time>2021-04-29T11:48:48Z</time>
      </trkpt>
      <trkpt lat="44.88705" lon="4.07802">
        <ele>1188</ele>
        <time>2021-04-29T11:48:49Z</time>
      </trkpt>
      <trkpt lat="44.88708" lon="4.07797">
        <ele>1189</ele>
        <time>2021-04-29T11:48:50Z</time>
      </trkpt>
      <trkpt lat="44.88711" lon="4.07792">
        <ele>1190</ele>
        <time>2021-04-29T11:48:51Z</time>
      </trkpt>
      <trkpt lat="44.88714" lon="4.07788">
        <ele>1190</ele>
        <time>2021-04-29T11:48:52Z</time>
      </trkpt>
      <trkpt lat="44.88716" lon="4.07783">
        <ele>1191</ele>
        <time>2021-04-29T11:48:53Z</time>
      </trkpt>
      <trkpt lat="44.88718" lon="4.07778">
        <ele>1191</ele>
        <time>2021-04-29T11:48:54Z</time>
      </trkpt>
      <trkpt lat="44.88721" lon="4.07774">
        <ele>1192</ele>
        <time>2021-04-29T11:48:55Z</time>
      </trkpt>
      <trkpt lat="44.88724" lon="4.07769">
        <ele>1192</ele>
        <time>2021-04-29T11:48:56Z</time>
      </trkpt>
      <trkpt lat="44.88727" lon="4.07765">
        <ele>1193</ele>
        <time>2021-04-29T11:48:57Z</time>
      </trkpt>
      <trkpt lat="44.88729" lon="4.07761">
        <ele>1193</ele>
        <time>2021-04-29T11:48:58Z</time>
      </trkpt>
      <trkpt lat="44.88732" lon="4.07757">
        <ele>1194</ele>
        <time>2021-04-29T11:48:59Z</time>
      </trkpt>
      <trkpt lat="44.88735" lon="4.07752">
        <ele>1194</ele>
        <time>2021-04-29T11:49:00Z</time>
      </trkpt>
      <trkpt lat="44.88741" lon="4.07743">
        <ele>1195</ele>
        <time>2021-04-29T11:49:01Z</time>
      </trkpt>
      <trkpt lat="44.88744" lon="4.07738">
        <ele>1196</ele>
        <time>2021-04-29T11:49:03Z</time>
      </trkpt>
      <trkpt lat="44.88746" lon="4.07734">
        <ele>1196</ele>
        <time>2021-04-29T11:49:04Z</time>
      </trkpt>
      <trkpt lat="44.88749" lon="4.07729">
        <ele>1197</ele>
        <time>2021-04-29T11:49:05Z</time>
      </trkpt>
      <trkpt lat="44.88751" lon="4.07724">
        <ele>1197</ele>
        <time>2021-04-29T11:49:06Z</time>
      </trkpt>
      <trkpt lat="44.88754" lon="4.0772">
        <ele>1198</ele>
        <time>2021-04-29T11:49:07Z</time>
      </trkpt>
      <trkpt lat="44.88757" lon="4.07716">
        <ele>1198</ele>
        <time>2021-04-29T11:49:08Z</time>
      </trkpt>
      <trkpt lat="44.88759" lon="4.07711">
        <ele>1199</ele>
        <time>2021-04-29T11:49:09Z</time>
      </trkpt>
      <trkpt lat="44.88762" lon="4.07707">
        <ele>1199</ele>
        <time>2021-04-29T11:49:10Z</time>
      </trkpt>
      <trkpt lat="44.88764" lon="4.07704">
        <ele>1200</ele>
        <time>2021-04-29T11:49:11Z</time>
      </trkpt>
      <trkpt lat="44.88767" lon="4.077">
        <ele>1200</ele>
        <time>2021-04-29T11:49:12Z</time>
      </trkpt>
      <trkpt lat="44.8877" lon="4.07696">
        <ele>1201</ele>
        <time>2021-04-29T11:49:13Z</time>
      </trkpt>
      <trkpt lat="44.88773" lon="4.07692">
        <ele>1201</ele>
        <time>2021-04-29T11:49:14Z</time>
      </trkpt>
      <trkpt lat="44.88776" lon="4.07689">
        <ele>1202</ele>
        <time>2021-04-29T11:49:15Z</time>
      </trkpt>
      <trkpt lat="44.88778" lon="4.07685">
        <ele>1202</ele>
        <time>2021-04-29T11:49:16Z</time>
      </trkpt>
      <trkpt lat="44.88781" lon="4.07682">
        <ele>1203</ele>
        <time>2021-04-29T11:49:17Z</time>
      </trkpt>
      <trkpt lat="44.88784" lon="4.07678">
        <ele>1203</ele>
        <time>2021-04-29T11:49:18Z</time>
      </trkpt>
      <trkpt lat="44.88787" lon="4.07675">
        <ele>1204</ele>
        <time>2021-04-29T11:49:19Z</time>
      </trkpt>
      <trkpt lat="44.8879" lon="4.07672">
        <ele>1204</ele>
        <time>2021-04-29T11:49:20Z</time>
      </trkpt>
      <trkpt lat="44.88795" lon="4.07664">
        <ele>1205</ele>
        <time>2021-04-29T11:49:21Z</time>
      </trkpt>
      <trkpt lat="44.88797" lon="4.0766">
        <ele>1206</ele>
        <time>2021-04-29T11:49:23Z</time>
      </trkpt>
      <trkpt lat="44.88799" lon="4.07656">
        <ele>1206</ele>
        <time>2021-04-29T11:49:24Z</time>
      </trkpt>
      <trkpt lat="44.88801" lon="4.07652">
        <ele>1207</ele>
        <time>2021-04-29T11:49:25Z</time>
      </trkpt>
      <trkpt lat="44.88805" lon="4.07643">
        <ele>1207</ele>
        <time>2021-04-29T11:49:26Z</time>
      </trkpt>
      <trkpt lat="44.88806" lon="4.07638">
        <ele>1208</ele>
        <time>2021-04-29T11:49:28Z</time>
      </trkpt>
      <trkpt lat="44.88808" lon="4.07632">
        <ele>1208</ele>
        <time>2021-04-29T11:49:29Z</time>
      </trkpt>
      <trkpt lat="44.88809" lon="4.07626">
        <ele>1208</ele>
        <time>2021-04-29T11:49:30Z</time>
      </trkpt>
      <trkpt lat="44.88808" lon="4.07612">
        <ele>1208</ele>
        <time>2021-04-29T11:49:31Z</time>
      </trkpt>
      <trkpt lat="44.88807" lon="4.07605">
        <ele>1208</ele>
        <time>2021-04-29T11:49:33Z</time>
      </trkpt>
      <trkpt lat="44.88806" lon="4.07598">
        <ele>1208</ele>
        <time>2021-04-29T11:49:34Z</time>
      </trkpt>
      <trkpt lat="44.88805" lon="4.0759">
        <ele>1208</ele>
        <time>2021-04-29T11:49:35Z</time>
      </trkpt>
      <trkpt lat="44.88804" lon="4.07583">
        <ele>1208</ele>
        <time>2021-04-29T11:49:36Z</time>
      </trkpt>
      <trkpt lat="44.88804" lon="4.07576">
        <ele>1209</ele>
        <time>2021-04-29T11:49:37Z</time>
      </trkpt>
      <trkpt lat="44.88804" lon="4.07569">
        <ele>1209</ele>
        <time>2021-04-29T11:49:38Z</time>
      </trkpt>
      <trkpt lat="44.88805" lon="4.07557">
        <ele>1209</ele>
        <time>2021-04-29T11:49:39Z</time>
      </trkpt>
      <trkpt lat="44.88806" lon="4.07551">
        <ele>1209</ele>
        <time>2021-04-29T11:49:41Z</time>
      </trkpt>
      <trkpt lat="44.88808" lon="4.07545">
        <ele>1209</ele>
        <time>2021-04-29T11:49:42Z</time>
      </trkpt>
      <trkpt lat="44.88811" lon="4.0754">
        <ele>1209</ele>
        <time>2021-04-29T11:49:43Z</time>
      </trkpt>
      <trkpt lat="44.88815" lon="4.07536">
        <ele>1210</ele>
        <time>2021-04-29T11:49:44Z</time>
      </trkpt>
      <trkpt lat="44.8882" lon="4.07534">
        <ele>1210</ele>
        <time>2021-04-29T11:49:45Z</time>
      </trkpt>
      <trkpt lat="44.88825" lon="4.07533">
        <ele>1210</ele>
        <time>2021-04-29T11:49:46Z</time>
      </trkpt>
      <trkpt lat="44.88829" lon="4.07534">
        <ele>1210</ele>
        <time>2021-04-29T11:49:47Z</time>
      </trkpt>
      <trkpt lat="44.88834" lon="4.07535">
        <ele>1210</ele>
        <time>2021-04-29T11:49:48Z</time>
      </trkpt>
      <trkpt lat="44.88839" lon="4.07537">
        <ele>1211</ele>
        <time>2021-04-29T11:49:49Z</time>
      </trkpt>
      <trkpt lat="44.88843" lon="4.07539">
        <ele>1211</ele>
        <time>2021-04-29T11:49:50Z</time>
      </trkpt>
      <trkpt lat="44.88847" lon="4.0754">
        <ele>1211</ele>
        <time>2021-04-29T11:49:51Z</time>
      </trkpt>
      <trkpt lat="44.88851" lon="4.07541">
        <ele>1212</ele>
        <time>2021-04-29T11:49:52Z</time>
      </trkpt>
      <trkpt lat="44.88855" lon="4.07541">
        <ele>1212</ele>
        <time>2021-04-29T11:49:53Z</time>
      </trkpt>
      <trkpt lat="44.88859" lon="4.07542">
        <ele>1212</ele>
        <time>2021-04-29T11:49:54Z</time>
      </trkpt>
      <trkpt lat="44.88863" lon="4.07542">
        <ele>1213</ele>
        <time>2021-04-29T11:49:55Z</time>
      </trkpt>
      <trkpt lat="44.88868" lon="4.07543">
        <ele>1213</ele>
        <time>2021-04-29T11:49:56Z</time>
      </trkpt>
      <trkpt lat="44.88872" lon="4.07543">
        <ele>1213</ele>
        <time>2021-04-29T11:49:57Z</time>
      </trkpt>
      <trkpt lat="44.8888" lon="4.07541">
        <ele>1213</ele>
        <time>2021-04-29T11:49:58Z</time>
      </trkpt>
      <trkpt lat="44.88884" lon="4.07538">
        <ele>1214</ele>
        <time>2021-04-29T11:49:59Z</time>
      </trkpt>
      <trkpt lat="44.88888" lon="4.07535">
        <ele>1214</ele>
        <time>2021-04-29T11:50:01Z</time>
      </trkpt>
      <trkpt lat="44.88891" lon="4.07532">
        <ele>1215</ele>
        <time>2021-04-29T11:50:02Z</time>
      </trkpt>
      <trkpt lat="44.88895" lon="4.07529">
        <ele>1215</ele>
        <time>2021-04-29T11:50:03Z</time>
      </trkpt>
      <trkpt lat="44.88899" lon="4.07527">
        <ele>1215</ele>
        <time>2021-04-29T11:50:04Z</time>
      </trkpt>
      <trkpt lat="44.88903" lon="4.07526">
        <ele>1216</ele>
        <time>2021-04-29T11:50:05Z</time>
      </trkpt>
      <trkpt lat="44.88908" lon="4.07524">
        <ele>1216</ele>
        <time>2021-04-29T11:50:06Z</time>
      </trkpt>
      <trkpt lat="44.88912" lon="4.07523">
        <ele>1217</ele>
        <time>2021-04-29T11:50:07Z</time>
      </trkpt>
      <trkpt lat="44.88917" lon="4.07521">
        <ele>1217</ele>
        <time>2021-04-29T11:50:08Z</time>
      </trkpt>
      <trkpt lat="44.88921" lon="4.0752">
        <ele>1217</ele>
        <time>2021-04-29T11:50:09Z</time>
      </trkpt>
      <trkpt lat="44.88926" lon="4.07518">
        <ele>1217</ele>
        <time>2021-04-29T11:50:10Z</time>
      </trkpt>
      <trkpt lat="44.88931" lon="4.07517">
        <ele>1217</ele>
        <time>2021-04-29T11:50:11Z</time>
      </trkpt>
      <trkpt lat="44.88936" lon="4.07514">
        <ele>1217</ele>
        <time>2021-04-29T11:50:12Z</time>
      </trkpt>
      <trkpt lat="44.88941" lon="4.07512">
        <ele>1217</ele>
        <time>2021-04-29T11:50:13Z</time>
      </trkpt>
      <trkpt lat="44.88946" lon="4.07509">
        <ele>1217</ele>
        <time>2021-04-29T11:50:14Z</time>
      </trkpt>
      <trkpt lat="44.88952" lon="4.07505">
        <ele>1216</ele>
        <time>2021-04-29T11:50:15Z</time>
      </trkpt>
      <trkpt lat="44.88957" lon="4.07502">
        <ele>1216</ele>
        <time>2021-04-29T11:50:16Z</time>
      </trkpt>
      <trkpt lat="44.88966" lon="4.07495">
        <ele>1216</ele>
        <time>2021-04-29T11:50:17Z</time>
      </trkpt>
      <trkpt lat="44.88971" lon="4.07492">
        <ele>1216</ele>
        <time>2021-04-29T11:50:19Z</time>
      </trkpt>
      <trkpt lat="44.88976" lon="4.07488">
        <ele>1216</ele>
        <time>2021-04-29T11:50:20Z</time>
      </trkpt>
      <trkpt lat="44.88981" lon="4.07484">
        <ele>1216</ele>
        <time>2021-04-29T11:50:21Z</time>
      </trkpt>
      <trkpt lat="44.88986" lon="4.0748">
        <ele>1215</ele>
        <time>2021-04-29T11:50:22Z</time>
      </trkpt>
      <trkpt lat="44.88991" lon="4.07476">
        <ele>1215</ele>
        <time>2021-04-29T11:50:23Z</time>
      </trkpt>
      <trkpt lat="44.88996" lon="4.07472">
        <ele>1215</ele>
        <time>2021-04-29T11:50:24Z</time>
      </trkpt>
      <trkpt lat="44.89002" lon="4.07469">
        <ele>1215</ele>
        <time>2021-04-29T11:50:25Z</time>
      </trkpt>
      <trkpt lat="44.89007" lon="4.07466">
        <ele>1215</ele>
        <time>2021-04-29T11:50:26Z</time>
      </trkpt>
      <trkpt lat="44.89013" lon="4.07464">
        <ele>1215</ele>
        <time>2021-04-29T11:50:27Z</time>
      </trkpt>
      <trkpt lat="44.89018" lon="4.07463">
        <ele>1215</ele>
        <time>2021-04-29T11:50:28Z</time>
      </trkpt>
      <trkpt lat="44.89023" lon="4.07462">
        <ele>1215</ele>
        <time>2021-04-29T11:50:29Z</time>
      </trkpt>
      <trkpt lat="44.89028" lon="4.07461">
        <ele>1215</ele>
        <time>2021-04-29T11:50:30Z</time>
      </trkpt>
      <trkpt lat="44.89034" lon="4.07461">
        <ele>1214</ele>
        <time>2021-04-29T11:50:31Z</time>
      </trkpt>
      <trkpt lat="44.8904" lon="4.07461">
        <ele>1214</ele>
        <time>2021-04-29T11:50:32Z</time>
      </trkpt>
      <trkpt lat="44.89046" lon="4.07461">
        <ele>1214</ele>
        <time>2021-04-29T11:50:33Z</time>
      </trkpt>
      <trkpt lat="44.89051" lon="4.07462">
        <ele>1213</ele>
        <time>2021-04-29T11:50:34Z</time>
      </trkpt>
      <trkpt lat="44.89057" lon="4.07464">
        <ele>1213</ele>
        <time>2021-04-29T11:50:35Z</time>
      </trkpt>
      <trkpt lat="44.89067" lon="4.07469">
        <ele>1213</ele>
        <time>2021-04-29T11:50:36Z</time>
      </trkpt>
      <trkpt lat="44.89071" lon="4.07473">
        <ele>1213</ele>
        <time>2021-04-29T11:50:38Z</time>
      </trkpt>
      <trkpt lat="44.89076" lon="4.07476">
        <ele>1212</ele>
        <time>2021-04-29T11:50:39Z</time>
      </trkpt>
      <trkpt lat="44.89081" lon="4.07478">
        <ele>1212</ele>
        <time>2021-04-29T11:50:40Z</time>
      </trkpt>
      <trkpt lat="44.89086" lon="4.07479">
        <ele>1212</ele>
        <time>2021-04-29T11:50:41Z</time>
      </trkpt>
      <trkpt lat="44.8909" lon="4.07478">
        <ele>1212</ele>
        <time>2021-04-29T11:50:42Z</time>
      </trkpt>
      <trkpt lat="44.89095" lon="4.07477">
        <ele>1212</ele>
        <time>2021-04-29T11:50:43Z</time>
      </trkpt>
      <trkpt lat="44.891" lon="4.07475">
        <ele>1212</ele>
        <time>2021-04-29T11:50:44Z</time>
      </trkpt>
      <trkpt lat="44.89104" lon="4.07472">
        <ele>1212</ele>
        <time>2021-04-29T11:50:45Z</time>
      </trkpt>
      <trkpt lat="44.89109" lon="4.0747">
        <ele>1212</ele>
        <time>2021-04-29T11:50:46Z</time>
      </trkpt>
      <trkpt lat="44.89114" lon="4.07467">
        <ele>1212</ele>
        <time>2021-04-29T11:50:47Z</time>
      </trkpt>
      <trkpt lat="44.89118" lon="4.07466">
        <ele>1212</ele>
        <time>2021-04-29T11:50:48Z</time>
      </trkpt>
      <trkpt lat="44.89123" lon="4.07464">
        <ele>1212</ele>
        <time>2021-04-29T11:50:49Z</time>
      </trkpt>
      <trkpt lat="44.89127" lon="4.07462">
        <ele>1212</ele>
        <time>2021-04-29T11:50:50Z</time>
      </trkpt>
      <trkpt lat="44.89132" lon="4.0746">
        <ele>1212</ele>
        <time>2021-04-29T11:50:51Z</time>
      </trkpt>
      <trkpt lat="44.89136" lon="4.07458">
        <ele>1212</ele>
        <time>2021-04-29T11:50:52Z</time>
      </trkpt>
      <trkpt lat="44.8914" lon="4.07455">
        <ele>1212</ele>
        <time>2021-04-29T11:50:53Z</time>
      </trkpt>
      <trkpt lat="44.89145" lon="4.07453">
        <ele>1212</ele>
        <time>2021-04-29T11:50:54Z</time>
      </trkpt>
      <trkpt lat="44.89152" lon="4.07449">
        <ele>1212</ele>
        <time>2021-04-29T11:50:55Z</time>
      </trkpt>
      <trkpt lat="44.89156" lon="4.07446">
        <ele>1212</ele>
        <time>2021-04-29T11:50:57Z</time>
      </trkpt>
      <trkpt lat="44.89159" lon="4.07443">
        <ele>1212</ele>
        <time>2021-04-29T11:50:58Z</time>
      </trkpt>
      <trkpt lat="44.89161" lon="4.0744">
        <ele>1212</ele>
        <time>2021-04-29T11:50:59Z</time>
      </trkpt>
      <trkpt lat="44.89164" lon="4.07436">
        <ele>1212</ele>
        <time>2021-04-29T11:51:00Z</time>
      </trkpt>
      <trkpt lat="44.89167" lon="4.07431">
        <ele>1212</ele>
        <time>2021-04-29T11:51:01Z</time>
      </trkpt>
      <trkpt lat="44.89176" lon="4.07423">
        <ele>1212</ele>
        <time>2021-04-29T11:51:03Z</time>
      </trkpt>
      <trkpt lat="44.8918" lon="4.0742">
        <ele>1212</ele>
        <time>2021-04-29T11:51:04Z</time>
      </trkpt>
      <trkpt lat="44.89184" lon="4.07417">
        <ele>1212</ele>
        <time>2021-04-29T11:51:05Z</time>
      </trkpt>
      <trkpt lat="44.89188" lon="4.07415">
        <ele>1212</ele>
        <time>2021-04-29T11:51:06Z</time>
      </trkpt>
      <trkpt lat="44.89193" lon="4.07413">
        <ele>1212</ele>
        <time>2021-04-29T11:51:07Z</time>
      </trkpt>
      <trkpt lat="44.89197" lon="4.07411">
        <ele>1212</ele>
        <time>2021-04-29T11:51:08Z</time>
      </trkpt>
      <trkpt lat="44.89201" lon="4.0741">
        <ele>1213</ele>
        <time>2021-04-29T11:51:09Z</time>
      </trkpt>
      <trkpt lat="44.89204" lon="4.07408">
        <ele>1213</ele>
        <time>2021-04-29T11:51:10Z</time>
      </trkpt>
      <trkpt lat="44.89212" lon="4.07402">
        <ele>1213</ele>
        <time>2021-04-29T11:51:12Z</time>
      </trkpt>
      <trkpt lat="44.89216" lon="4.07399">
        <ele>1213</ele>
        <time>2021-04-29T11:51:13Z</time>
      </trkpt>
      <trkpt lat="44.89224" lon="4.07392">
        <ele>1213</ele>
        <time>2021-04-29T11:51:14Z</time>
      </trkpt>
      <trkpt lat="44.89234" lon="4.07386">
        <ele>1213</ele>
        <time>2021-04-29T11:51:17Z</time>
      </trkpt>
      <trkpt lat="44.89244" lon="4.07382">
        <ele>1213</ele>
        <time>2021-04-29T11:51:19Z</time>
      </trkpt>
      <trkpt lat="44.89253" lon="4.07378">
        <ele>1214</ele>
        <time>2021-04-29T11:51:21Z</time>
      </trkpt>
      <trkpt lat="44.89264" lon="4.07375">
        <ele>1214</ele>
        <time>2021-04-29T11:51:23Z</time>
      </trkpt>
      <trkpt lat="44.8927" lon="4.07375">
        <ele>1214</ele>
        <time>2021-04-29T11:51:24Z</time>
      </trkpt>
      <trkpt lat="44.89282" lon="4.07373">
        <ele>1214</ele>
        <time>2021-04-29T11:51:26Z</time>
      </trkpt>
      <trkpt lat="44.89294" lon="4.07371">
        <ele>1214</ele>
        <time>2021-04-29T11:51:28Z</time>
      </trkpt>
      <trkpt lat="44.89306" lon="4.07366">
        <ele>1214</ele>
        <time>2021-04-29T11:51:30Z</time>
      </trkpt>
      <trkpt lat="44.89318" lon="4.07362">
        <ele>1214</ele>
        <time>2021-04-29T11:51:32Z</time>
      </trkpt>
      <trkpt lat="44.89323" lon="4.0736">
        <ele>1214</ele>
        <time>2021-04-29T11:51:33Z</time>
      </trkpt>
      <trkpt lat="44.89333" lon="4.07358">
        <ele>1214</ele>
        <time>2021-04-29T11:51:34Z</time>
      </trkpt>
      <trkpt lat="44.89338" lon="4.07357">
        <ele>1214</ele>
        <time>2021-04-29T11:51:36Z</time>
      </trkpt>
      <trkpt lat="44.89344" lon="4.07356">
        <ele>1214</ele>
        <time>2021-04-29T11:51:37Z</time>
      </trkpt>
      <trkpt lat="44.89349" lon="4.07355">
        <ele>1214</ele>
        <time>2021-04-29T11:51:38Z</time>
      </trkpt>
      <trkpt lat="44.89361" lon="4.07356">
        <ele>1214</ele>
        <time>2021-04-29T11:51:39Z</time>
      </trkpt>
      <trkpt lat="44.89369" lon="4.07357">
        <ele>1213</ele>
        <time>2021-04-29T11:51:41Z</time>
      </trkpt>
      <trkpt lat="44.89376" lon="4.07357">
        <ele>1213</ele>
        <time>2021-04-29T11:51:42Z</time>
      </trkpt>
      <trkpt lat="44.89382" lon="4.0736">
        <ele>1212</ele>
        <time>2021-04-29T11:51:43Z</time>
      </trkpt>
      <trkpt lat="44.89388" lon="4.07362">
        <ele>1212</ele>
        <time>2021-04-29T11:51:44Z</time>
      </trkpt>
      <trkpt lat="44.89393" lon="4.07365">
        <ele>1212</ele>
        <time>2021-04-29T11:51:45Z</time>
      </trkpt>
      <trkpt lat="44.89399" lon="4.07368">
        <ele>1212</ele>
        <time>2021-04-29T11:51:46Z</time>
      </trkpt>
      <trkpt lat="44.89412" lon="4.07372">
        <ele>1211</ele>
        <time>2021-04-29T11:51:48Z</time>
      </trkpt>
      <trkpt lat="44.89418" lon="4.07375">
        <ele>1211</ele>
        <time>2021-04-29T11:51:49Z</time>
      </trkpt>
      <trkpt lat="44.89425" lon="4.07378">
        <ele>1210</ele>
        <time>2021-04-29T11:51:50Z</time>
      </trkpt>
      <trkpt lat="44.89432" lon="4.07381">
        <ele>1210</ele>
        <time>2021-04-29T11:51:51Z</time>
      </trkpt>
      <trkpt lat="44.89444" lon="4.07389">
        <ele>1210</ele>
        <time>2021-04-29T11:51:52Z</time>
      </trkpt>
      <trkpt lat="44.89449" lon="4.07393">
        <ele>1209</ele>
        <time>2021-04-29T11:51:54Z</time>
      </trkpt>
      <trkpt lat="44.89454" lon="4.07395">
        <ele>1209</ele>
        <time>2021-04-29T11:51:55Z</time>
      </trkpt>
      <trkpt lat="44.8946" lon="4.07398">
        <ele>1209</ele>
        <time>2021-04-29T11:51:56Z</time>
      </trkpt>
      <trkpt lat="44.89465" lon="4.07401">
        <ele>1209</ele>
        <time>2021-04-29T11:51:57Z</time>
      </trkpt>
      <trkpt lat="44.89471" lon="4.07404">
        <ele>1209</ele>
        <time>2021-04-29T11:51:58Z</time>
      </trkpt>
      <trkpt lat="44.89477" lon="4.07406">
        <ele>1208</ele>
        <time>2021-04-29T11:51:59Z</time>
      </trkpt>
      <trkpt lat="44.89484" lon="4.07408">
        <ele>1208</ele>
        <time>2021-04-29T11:52:00Z</time>
      </trkpt>
      <trkpt lat="44.89491" lon="4.07411">
        <ele>1207</ele>
        <time>2021-04-29T11:52:01Z</time>
      </trkpt>
      <trkpt lat="44.89498" lon="4.07412">
        <ele>1207</ele>
        <time>2021-04-29T11:52:02Z</time>
      </trkpt>
      <trkpt lat="44.89511" lon="4.07412">
        <ele>1206</ele>
        <time>2021-04-29T11:52:04Z</time>
      </trkpt>
      <trkpt lat="44.89517" lon="4.07411">
        <ele>1206</ele>
        <time>2021-04-29T11:52:05Z</time>
      </trkpt>
      <trkpt lat="44.89524" lon="4.0741">
        <ele>1206</ele>
        <time>2021-04-29T11:52:06Z</time>
      </trkpt>
      <trkpt lat="44.8953" lon="4.0741">
        <ele>1206</ele>
        <time>2021-04-29T11:52:07Z</time>
      </trkpt>
      <trkpt lat="44.89536" lon="4.07409">
        <ele>1206</ele>
        <time>2021-04-29T11:52:08Z</time>
      </trkpt>
      <trkpt lat="44.89542" lon="4.07408">
        <ele>1206</ele>
        <time>2021-04-29T11:52:09Z</time>
      </trkpt>
      <trkpt lat="44.89548" lon="4.07409">
        <ele>1206</ele>
        <time>2021-04-29T11:52:10Z</time>
      </trkpt>
      <trkpt lat="44.89559" lon="4.07409">
        <ele>1206</ele>
        <time>2021-04-29T11:52:11Z</time>
      </trkpt>
      <trkpt lat="44.89569" lon="4.07406">
        <ele>1206</ele>
        <time>2021-04-29T11:52:14Z</time>
      </trkpt>
      <trkpt lat="44.89575" lon="4.07404">
        <ele>1206</ele>
        <time>2021-04-29T11:52:15Z</time>
      </trkpt>
      <trkpt lat="44.8958" lon="4.074">
        <ele>1206</ele>
        <time>2021-04-29T11:52:16Z</time>
      </trkpt>
      <trkpt lat="44.89583" lon="4.07396">
        <ele>1206</ele>
        <time>2021-04-29T11:52:17Z</time>
      </trkpt>
      <trkpt lat="44.89584" lon="4.07391">
        <ele>1206</ele>
        <time>2021-04-29T11:52:18Z</time>
      </trkpt>
      <trkpt lat="44.89583" lon="4.07385">
        <ele>1206</ele>
        <time>2021-04-29T11:52:19Z</time>
      </trkpt>
      <trkpt lat="44.89582" lon="4.07378">
        <ele>1206</ele>
        <time>2021-04-29T11:52:20Z</time>
      </trkpt>
      <trkpt lat="44.89582" lon="4.07371">
        <ele>1206</ele>
        <time>2021-04-29T11:52:21Z</time>
      </trkpt>
      <trkpt lat="44.89582" lon="4.07364">
        <ele>1206</ele>
        <time>2021-04-29T11:52:22Z</time>
      </trkpt>
      <trkpt lat="44.89581" lon="4.07357">
        <ele>1206</ele>
        <time>2021-04-29T11:52:23Z</time>
      </trkpt>
      <trkpt lat="44.89582" lon="4.07349">
        <ele>1206</ele>
        <time>2021-04-29T11:52:24Z</time>
      </trkpt>
      <trkpt lat="44.89583" lon="4.07341">
        <ele>1206</ele>
        <time>2021-04-29T11:52:25Z</time>
      </trkpt>
      <trkpt lat="44.89582" lon="4.07333">
        <ele>1206</ele>
        <time>2021-04-29T11:52:26Z</time>
      </trkpt>
      <trkpt lat="44.89579" lon="4.07327">
        <ele>1206</ele>
        <time>2021-04-29T11:52:27Z</time>
      </trkpt>
      <trkpt lat="44.89578" lon="4.07321">
        <ele>1206</ele>
        <time>2021-04-29T11:52:28Z</time>
      </trkpt>
      <trkpt lat="44.89578" lon="4.07314">
        <ele>1206</ele>
        <time>2021-04-29T11:52:29Z</time>
      </trkpt>
      <trkpt lat="44.89578" lon="4.07301">
        <ele>1206</ele>
        <time>2021-04-29T11:52:30Z</time>
      </trkpt>
      <trkpt lat="44.89579" lon="4.07295">
        <ele>1206</ele>
        <time>2021-04-29T11:52:32Z</time>
      </trkpt>
      <trkpt lat="44.8958" lon="4.07289">
        <ele>1206</ele>
        <time>2021-04-29T11:52:33Z</time>
      </trkpt>
      <trkpt lat="44.89581" lon="4.07283">
        <ele>1206</ele>
        <time>2021-04-29T11:52:34Z</time>
      </trkpt>
      <trkpt lat="44.89581" lon="4.07272">
        <ele>1205</ele>
        <time>2021-04-29T11:52:35Z</time>
      </trkpt>
      <trkpt lat="44.89582" lon="4.07267">
        <ele>1204</ele>
        <time>2021-04-29T11:52:37Z</time>
      </trkpt>
      <trkpt lat="44.89582" lon="4.07263">
        <ele>1204</ele>
        <time>2021-04-29T11:52:38Z</time>
      </trkpt>
      <trkpt lat="44.89582" lon="4.07258">
        <ele>1204</ele>
        <time>2021-04-29T11:52:39Z</time>
      </trkpt>
      <trkpt lat="44.89583" lon="4.07254">
        <ele>1204</ele>
        <time>2021-04-29T11:52:40Z</time>
      </trkpt>
      <trkpt lat="44.89584" lon="4.0725">
        <ele>1203</ele>
        <time>2021-04-29T11:52:41Z</time>
      </trkpt>
      <trkpt lat="44.89585" lon="4.07246">
        <ele>1203</ele>
        <time>2021-04-29T11:52:42Z</time>
      </trkpt>
      <trkpt lat="44.89586" lon="4.07242">
        <ele>1203</ele>
        <time>2021-04-29T11:52:43Z</time>
      </trkpt>
      <trkpt lat="44.89588" lon="4.07239">
        <ele>1203</ele>
        <time>2021-04-29T11:52:44Z</time>
      </trkpt>
      <trkpt lat="44.89589" lon="4.07235">
        <ele>1203</ele>
        <time>2021-04-29T11:52:45Z</time>
      </trkpt>
      <trkpt lat="44.89591" lon="4.07231">
        <ele>1203</ele>
        <time>2021-04-29T11:52:46Z</time>
      </trkpt>
      <trkpt lat="44.89592" lon="4.07228">
        <ele>1203</ele>
        <time>2021-04-29T11:52:47Z</time>
      </trkpt>
      <trkpt lat="44.89594" lon="4.07225">
        <ele>1203</ele>
        <time>2021-04-29T11:52:48Z</time>
      </trkpt>
      <trkpt lat="44.89596" lon="4.07223">
        <ele>1203</ele>
        <time>2021-04-29T11:52:49Z</time>
      </trkpt>
      <trkpt lat="44.89597" lon="4.07219">
        <ele>1203</ele>
        <time>2021-04-29T11:52:51Z</time>
      </trkpt>
      <trkpt lat="44.89601" lon="4.07215">
        <ele>1202</ele>
        <time>2021-04-29T11:53:22Z</time>
      </trkpt>
      <trkpt lat="44.89604" lon="4.07206">
        <ele>1202</ele>
        <time>2021-04-29T11:53:23Z</time>
      </trkpt>
      <trkpt lat="44.89605" lon="4.07201">
        <ele>1201</ele>
        <time>2021-04-29T11:53:25Z</time>
      </trkpt>
      <trkpt lat="44.89607" lon="4.07195">
        <ele>1201</ele>
        <time>2021-04-29T11:53:26Z</time>
      </trkpt>
      <trkpt lat="44.89608" lon="4.0719">
        <ele>1201</ele>
        <time>2021-04-29T11:53:27Z</time>
      </trkpt>
      <trkpt lat="44.89608" lon="4.07185">
        <ele>1201</ele>
        <time>2021-04-29T11:53:28Z</time>
      </trkpt>
      <trkpt lat="44.89608" lon="4.07179">
        <ele>1201</ele>
        <time>2021-04-29T11:53:29Z</time>
      </trkpt>
      <trkpt lat="44.89608" lon="4.07173">
        <ele>1201</ele>
        <time>2021-04-29T11:53:30Z</time>
      </trkpt>
      <trkpt lat="44.89606" lon="4.07167">
        <ele>1201</ele>
        <time>2021-04-29T11:53:31Z</time>
      </trkpt>
      <trkpt lat="44.89604" lon="4.07162">
        <ele>1201</ele>
        <time>2021-04-29T11:53:32Z</time>
      </trkpt>
      <trkpt lat="44.89602" lon="4.07157">
        <ele>1201</ele>
        <time>2021-04-29T11:53:33Z</time>
      </trkpt>
      <trkpt lat="44.89599" lon="4.07153">
        <ele>1201</ele>
        <time>2021-04-29T11:53:34Z</time>
      </trkpt>
      <trkpt lat="44.89597" lon="4.07148">
        <ele>1201</ele>
        <time>2021-04-29T11:53:35Z</time>
      </trkpt>
      <trkpt lat="44.89596" lon="4.07143">
        <ele>1201</ele>
        <time>2021-04-29T11:53:36Z</time>
      </trkpt>
      <trkpt lat="44.89595" lon="4.07137">
        <ele>1201</ele>
        <time>2021-04-29T11:53:37Z</time>
      </trkpt>
      <trkpt lat="44.89595" lon="4.07132">
        <ele>1201</ele>
        <time>2021-04-29T11:53:38Z</time>
      </trkpt>
      <trkpt lat="44.89596" lon="4.07126">
        <ele>1201</ele>
        <time>2021-04-29T11:53:39Z</time>
      </trkpt>
      <trkpt lat="44.89596" lon="4.0712">
        <ele>1201</ele>
        <time>2021-04-29T11:53:40Z</time>
      </trkpt>
      <trkpt lat="44.89597" lon="4.07114">
        <ele>1201</ele>
        <time>2021-04-29T11:53:41Z</time>
      </trkpt>
      <trkpt lat="44.89599" lon="4.07102">
        <ele>1201</ele>
        <time>2021-04-29T11:53:42Z</time>
      </trkpt>
      <trkpt lat="44.896" lon="4.07096">
        <ele>1201</ele>
        <time>2021-04-29T11:53:44Z</time>
      </trkpt>
      <trkpt lat="44.89601" lon="4.0709">
        <ele>1202</ele>
        <time>2021-04-29T11:53:45Z</time>
      </trkpt>
      <trkpt lat="44.89602" lon="4.07083">
        <ele>1202</ele>
        <time>2021-04-29T11:53:46Z</time>
      </trkpt>
      <trkpt lat="44.89603" lon="4.07077">
        <ele>1202</ele>
        <time>2021-04-29T11:53:47Z</time>
      </trkpt>
      <trkpt lat="44.89604" lon="4.07071">
        <ele>1202</ele>
        <time>2021-04-29T11:53:48Z</time>
      </trkpt>
      <trkpt lat="44.89606" lon="4.07064">
        <ele>1202</ele>
        <time>2021-04-29T11:53:49Z</time>
      </trkpt>
      <trkpt lat="44.89607" lon="4.07058">
        <ele>1202</ele>
        <time>2021-04-29T11:53:50Z</time>
      </trkpt>
      <trkpt lat="44.89608" lon="4.07052">
        <ele>1202</ele>
        <time>2021-04-29T11:53:51Z</time>
      </trkpt>
      <trkpt lat="44.89609" lon="4.07045">
        <ele>1202</ele>
        <time>2021-04-29T11:53:52Z</time>
      </trkpt>
      <trkpt lat="44.8961" lon="4.07039">
        <ele>1202</ele>
        <time>2021-04-29T11:53:53Z</time>
      </trkpt>
      <trkpt lat="44.89611" lon="4.07033">
        <ele>1202</ele>
        <time>2021-04-29T11:53:54Z</time>
      </trkpt>
      <trkpt lat="44.89613" lon="4.07027">
        <ele>1202</ele>
        <time>2021-04-29T11:53:55Z</time>
      </trkpt>
      <trkpt lat="44.89615" lon="4.07021">
        <ele>1202</ele>
        <time>2021-04-29T11:53:56Z</time>
      </trkpt>
      <trkpt lat="44.89617" lon="4.07015">
        <ele>1203</ele>
        <time>2021-04-29T11:53:57Z</time>
      </trkpt>
      <trkpt lat="44.89619" lon="4.07009">
        <ele>1203</ele>
        <time>2021-04-29T11:53:58Z</time>
      </trkpt>
      <trkpt lat="44.89621" lon="4.07003">
        <ele>1203</ele>
        <time>2021-04-29T11:53:59Z</time>
      </trkpt>
      <trkpt lat="44.89624" lon="4.06999">
        <ele>1203</ele>
        <time>2021-04-29T11:54:00Z</time>
      </trkpt>
      <trkpt lat="44.89632" lon="4.06992">
        <ele>1203</ele>
        <time>2021-04-29T11:54:01Z</time>
      </trkpt>
      <trkpt lat="44.89636" lon="4.0699">
        <ele>1203</ele>
        <time>2021-04-29T11:54:03Z</time>
      </trkpt>
      <trkpt lat="44.89641" lon="4.06989">
        <ele>1202</ele>
        <time>2021-04-29T11:54:04Z</time>
      </trkpt>
      <trkpt lat="44.89647" lon="4.06988">
        <ele>1202</ele>
        <time>2021-04-29T11:54:05Z</time>
      </trkpt>
      <trkpt lat="44.89652" lon="4.06986">
        <ele>1202</ele>
        <time>2021-04-29T11:54:06Z</time>
      </trkpt>
      <trkpt lat="44.89658" lon="4.06983">
        <ele>1202</ele>
        <time>2021-04-29T11:54:07Z</time>
      </trkpt>
      <trkpt lat="44.89664" lon="4.0698">
        <ele>1202</ele>
        <time>2021-04-29T11:54:08Z</time>
      </trkpt>
      <trkpt lat="44.89669" lon="4.06977">
        <ele>1202</ele>
        <time>2021-04-29T11:54:09Z</time>
      </trkpt>
      <trkpt lat="44.89675" lon="4.06973">
        <ele>1201</ele>
        <time>2021-04-29T11:54:10Z</time>
      </trkpt>
      <trkpt lat="44.89681" lon="4.06968">
        <ele>1201</ele>
        <time>2021-04-29T11:54:11Z</time>
      </trkpt>
      <trkpt lat="44.89686" lon="4.06962">
        <ele>1201</ele>
        <time>2021-04-29T11:54:12Z</time>
      </trkpt>
      <trkpt lat="44.89691" lon="4.06956">
        <ele>1201</ele>
        <time>2021-04-29T11:54:13Z</time>
      </trkpt>
      <trkpt lat="44.89696" lon="4.0695">
        <ele>1200</ele>
        <time>2021-04-29T11:54:14Z</time>
      </trkpt>
      <trkpt lat="44.897" lon="4.06943">
        <ele>1200</ele>
        <time>2021-04-29T11:54:15Z</time>
      </trkpt>
      <trkpt lat="44.89704" lon="4.06937">
        <ele>1200</ele>
        <time>2021-04-29T11:54:16Z</time>
      </trkpt>
      <trkpt lat="44.89708" lon="4.06931">
        <ele>1200</ele>
        <time>2021-04-29T11:54:17Z</time>
      </trkpt>
      <trkpt lat="44.89712" lon="4.06925">
        <ele>1200</ele>
        <time>2021-04-29T11:54:18Z</time>
      </trkpt>
      <trkpt lat="44.89717" lon="4.0692">
        <ele>1200</ele>
        <time>2021-04-29T11:54:19Z</time>
      </trkpt>
      <trkpt lat="44.89728" lon="4.06912">
        <ele>1200</ele>
        <time>2021-04-29T11:54:20Z</time>
      </trkpt>
      <trkpt lat="44.89734" lon="4.06907">
        <ele>1199</ele>
        <time>2021-04-29T11:54:22Z</time>
      </trkpt>
      <trkpt lat="44.8974" lon="4.06901">
        <ele>1199</ele>
        <time>2021-04-29T11:54:23Z</time>
      </trkpt>
      <trkpt lat="44.89746" lon="4.06896">
        <ele>1199</ele>
        <time>2021-04-29T11:54:24Z</time>
      </trkpt>
      <trkpt lat="44.89752" lon="4.0689">
        <ele>1198</ele>
        <time>2021-04-29T11:54:25Z</time>
      </trkpt>
      <trkpt lat="44.89759" lon="4.06885">
        <ele>1198</ele>
        <time>2021-04-29T11:54:26Z</time>
      </trkpt>
      <trkpt lat="44.89765" lon="4.0688">
        <ele>1198</ele>
        <time>2021-04-29T11:54:27Z</time>
      </trkpt>
      <trkpt lat="44.89772" lon="4.06875">
        <ele>1197</ele>
        <time>2021-04-29T11:54:28Z</time>
      </trkpt>
      <trkpt lat="44.89778" lon="4.0687">
        <ele>1197</ele>
        <time>2021-04-29T11:54:29Z</time>
      </trkpt>
      <trkpt lat="44.89785" lon="4.06864">
        <ele>1196</ele>
        <time>2021-04-29T11:54:30Z</time>
      </trkpt>
      <trkpt lat="44.89791" lon="4.06859">
        <ele>1196</ele>
        <time>2021-04-29T11:54:31Z</time>
      </trkpt>
      <trkpt lat="44.89798" lon="4.06854">
        <ele>1195</ele>
        <time>2021-04-29T11:54:32Z</time>
      </trkpt>
      <trkpt lat="44.89805" lon="4.06849">
        <ele>1195</ele>
        <time>2021-04-29T11:54:33Z</time>
      </trkpt>
      <trkpt lat="44.89811" lon="4.06844">
        <ele>1195</ele>
        <time>2021-04-29T11:54:34Z</time>
      </trkpt>
      <trkpt lat="44.89818" lon="4.0684">
        <ele>1195</ele>
        <time>2021-04-29T11:54:35Z</time>
      </trkpt>
      <trkpt lat="44.89825" lon="4.06835">
        <ele>1195</ele>
        <time>2021-04-29T11:54:36Z</time>
      </trkpt>
      <trkpt lat="44.89831" lon="4.06829">
        <ele>1194</ele>
        <time>2021-04-29T11:54:37Z</time>
      </trkpt>
      <trkpt lat="44.89838" lon="4.06824">
        <ele>1194</ele>
        <time>2021-04-29T11:54:38Z</time>
      </trkpt>
      <trkpt lat="44.89849" lon="4.0681">
        <ele>1193</ele>
        <time>2021-04-29T11:54:39Z</time>
      </trkpt>
      <trkpt lat="44.89854" lon="4.06802">
        <ele>1192</ele>
        <time>2021-04-29T11:54:41Z</time>
      </trkpt>
      <trkpt lat="44.89859" lon="4.06795">
        <ele>1192</ele>
        <time>2021-04-29T11:54:42Z</time>
      </trkpt>
      <trkpt lat="44.89864" lon="4.06789">
        <ele>1192</ele>
        <time>2021-04-29T11:54:43Z</time>
      </trkpt>
      <trkpt lat="44.89868" lon="4.06782">
        <ele>1192</ele>
        <time>2021-04-29T11:54:44Z</time>
      </trkpt>
      <trkpt lat="44.89873" lon="4.06776">
        <ele>1192</ele>
        <time>2021-04-29T11:54:45Z</time>
      </trkpt>
      <trkpt lat="44.89877" lon="4.0677">
        <ele>1192</ele>
        <time>2021-04-29T11:54:46Z</time>
      </trkpt>
      <trkpt lat="44.89882" lon="4.06765">
        <ele>1191</ele>
        <time>2021-04-29T11:54:47Z</time>
      </trkpt>
      <trkpt lat="44.89887" lon="4.06759">
        <ele>1191</ele>
        <time>2021-04-29T11:54:48Z</time>
      </trkpt>
      <trkpt lat="44.89891" lon="4.06754">
        <ele>1191</ele>
        <time>2021-04-29T11:54:49Z</time>
      </trkpt>
      <trkpt lat="44.89896" lon="4.06748">
        <ele>1191</ele>
        <time>2021-04-29T11:54:50Z</time>
      </trkpt>
      <trkpt lat="44.899" lon="4.06743">
        <ele>1191</ele>
        <time>2021-04-29T11:54:51Z</time>
      </trkpt>
      <trkpt lat="44.89905" lon="4.06738">
        <ele>1191</ele>
        <time>2021-04-29T11:54:52Z</time>
      </trkpt>
      <trkpt lat="44.89914" lon="4.06727">
        <ele>1191</ele>
        <time>2021-04-29T11:54:53Z</time>
      </trkpt>
      <trkpt lat="44.89919" lon="4.06722">
        <ele>1191</ele>
        <time>2021-04-29T11:54:55Z</time>
      </trkpt>
      <trkpt lat="44.89928" lon="4.06712">
        <ele>1191</ele>
        <time>2021-04-29T11:54:56Z</time>
      </trkpt>
      <trkpt lat="44.89938" lon="4.06701">
        <ele>1190</ele>
        <time>2021-04-29T11:54:58Z</time>
      </trkpt>
      <trkpt lat="44.89943" lon="4.06696">
        <ele>1190</ele>
        <time>2021-04-29T11:54:59Z</time>
      </trkpt>
      <trkpt lat="44.89948" lon="4.06692">
        <ele>1190</ele>
        <time>2021-04-29T11:55:01Z</time>
      </trkpt>
      <trkpt lat="44.89953" lon="4.06688">
        <ele>1190</ele>
        <time>2021-04-29T11:55:02Z</time>
      </trkpt>
      <trkpt lat="44.89959" lon="4.06684">
        <ele>1190</ele>
        <time>2021-04-29T11:55:03Z</time>
      </trkpt>
      <trkpt lat="44.89964" lon="4.06681">
        <ele>1190</ele>
        <time>2021-04-29T11:55:04Z</time>
      </trkpt>
      <trkpt lat="44.8997" lon="4.06679">
        <ele>1190</ele>
        <time>2021-04-29T11:55:05Z</time>
      </trkpt>
      <trkpt lat="44.89976" lon="4.06677">
        <ele>1190</ele>
        <time>2021-04-29T11:55:06Z</time>
      </trkpt>
      <trkpt lat="44.89982" lon="4.06675">
        <ele>1189</ele>
        <time>2021-04-29T11:55:07Z</time>
      </trkpt>
      <trkpt lat="44.89988" lon="4.06674">
        <ele>1189</ele>
        <time>2021-04-29T11:55:08Z</time>
      </trkpt>
      <trkpt lat="44.89994" lon="4.06674">
        <ele>1189</ele>
        <time>2021-04-29T11:55:09Z</time>
      </trkpt>
      <trkpt lat="44.9" lon="4.06674">
        <ele>1189</ele>
        <time>2021-04-29T11:55:10Z</time>
      </trkpt>
      <trkpt lat="44.90006" lon="4.06674">
        <ele>1189</ele>
        <time>2021-04-29T11:55:11Z</time>
      </trkpt>
      <trkpt lat="44.90012" lon="4.06674">
        <ele>1189</ele>
        <time>2021-04-29T11:55:12Z</time>
      </trkpt>
      <trkpt lat="44.90018" lon="4.06674">
        <ele>1188</ele>
        <time>2021-04-29T11:55:13Z</time>
      </trkpt>
      <trkpt lat="44.90024" lon="4.06675">
        <ele>1188</ele>
        <time>2021-04-29T11:55:14Z</time>
      </trkpt>
      <trkpt lat="44.9003" lon="4.06676">
        <ele>1188</ele>
        <time>2021-04-29T11:55:15Z</time>
      </trkpt>
      <trkpt lat="44.90036" lon="4.06676">
        <ele>1188</ele>
        <time>2021-04-29T11:55:16Z</time>
      </trkpt>
      <trkpt lat="44.90042" lon="4.06677">
        <ele>1188</ele>
        <time>2021-04-29T11:55:17Z</time>
      </trkpt>
      <trkpt lat="44.90048" lon="4.06678">
        <ele>1188</ele>
        <time>2021-04-29T11:55:18Z</time>
      </trkpt>
      <trkpt lat="44.90052" lon="4.06679">
        <ele>1188</ele>
        <time>2021-04-29T11:55:19Z</time>
      </trkpt>
      <trkpt lat="44.90056" lon="4.06679">
        <ele>1188</ele>
        <time>2021-04-29T11:55:20Z</time>
      </trkpt>
      <trkpt lat="44.90062" lon="4.0668">
        <ele>1188</ele>
        <time>2021-04-29T11:55:21Z</time>
      </trkpt>
      <trkpt lat="44.90074" lon="4.0668">
        <ele>1188</ele>
        <time>2021-04-29T11:55:23Z</time>
      </trkpt>
      <trkpt lat="44.9008" lon="4.06679">
        <ele>1188</ele>
        <time>2021-04-29T11:55:24Z</time>
      </trkpt>
      <trkpt lat="44.90086" lon="4.06679">
        <ele>1188</ele>
        <time>2021-04-29T11:55:25Z</time>
      </trkpt>
      <trkpt lat="44.90101" lon="4.06676">
        <ele>1188</ele>
        <time>2021-04-29T11:55:27Z</time>
      </trkpt>
      <trkpt lat="44.90107" lon="4.06673">
        <ele>1187</ele>
        <time>2021-04-29T11:55:28Z</time>
      </trkpt>
      <trkpt lat="44.90112" lon="4.0667">
        <ele>1187</ele>
        <time>2021-04-29T11:55:29Z</time>
      </trkpt>
      <trkpt lat="44.90118" lon="4.06666">
        <ele>1187</ele>
        <time>2021-04-29T11:55:30Z</time>
      </trkpt>
      <trkpt lat="44.90122" lon="4.06662">
        <ele>1187</ele>
        <time>2021-04-29T11:55:31Z</time>
      </trkpt>
      <trkpt lat="44.90127" lon="4.06658">
        <ele>1187</ele>
        <time>2021-04-29T11:55:32Z</time>
      </trkpt>
      <trkpt lat="44.90132" lon="4.06654">
        <ele>1187</ele>
        <time>2021-04-29T11:55:33Z</time>
      </trkpt>
      <trkpt lat="44.90137" lon="4.0665">
        <ele>1187</ele>
        <time>2021-04-29T11:55:34Z</time>
      </trkpt>
      <trkpt lat="44.90141" lon="4.06645">
        <ele>1186</ele>
        <time>2021-04-29T11:55:35Z</time>
      </trkpt>
      <trkpt lat="44.90152" lon="4.06635">
        <ele>1186</ele>
        <time>2021-04-29T11:55:36Z</time>
      </trkpt>
      <trkpt lat="44.90157" lon="4.0663">
        <ele>1186</ele>
        <time>2021-04-29T11:55:38Z</time>
      </trkpt>
      <trkpt lat="44.90162" lon="4.06624">
        <ele>1185</ele>
        <time>2021-04-29T11:55:39Z</time>
      </trkpt>
      <trkpt lat="44.90164" lon="4.06616">
        <ele>1185</ele>
        <time>2021-04-29T11:55:40Z</time>
      </trkpt>
      <trkpt lat="44.90164" lon="4.0661">
        <ele>1185</ele>
        <time>2021-04-29T11:55:41Z</time>
      </trkpt>
      <trkpt lat="44.90161" lon="4.06603">
        <ele>1185</ele>
        <time>2021-04-29T11:55:42Z</time>
      </trkpt>
      <trkpt lat="44.90159" lon="4.06597">
        <ele>1185</ele>
        <time>2021-04-29T11:55:43Z</time>
      </trkpt>
      <trkpt lat="44.90156" lon="4.06591">
        <ele>1184</ele>
        <time>2021-04-29T11:55:44Z</time>
      </trkpt>
      <trkpt lat="44.90153" lon="4.06584">
        <ele>1184</ele>
        <time>2021-04-29T11:55:45Z</time>
      </trkpt>
      <trkpt lat="44.90146" lon="4.06569">
        <ele>1184</ele>
        <time>2021-04-29T11:55:46Z</time>
      </trkpt>
      <trkpt lat="44.90142" lon="4.06561">
        <ele>1184</ele>
        <time>2021-04-29T11:55:48Z</time>
      </trkpt>
      <trkpt lat="44.90139" lon="4.06553">
        <ele>1183</ele>
        <time>2021-04-29T11:55:49Z</time>
      </trkpt>
      <trkpt lat="44.90135" lon="4.06545">
        <ele>1183</ele>
        <time>2021-04-29T11:55:50Z</time>
      </trkpt>
      <trkpt lat="44.90132" lon="4.06536">
        <ele>1183</ele>
        <time>2021-04-29T11:55:51Z</time>
      </trkpt>
      <trkpt lat="44.90129" lon="4.06526">
        <ele>1182</ele>
        <time>2021-04-29T11:55:52Z</time>
      </trkpt>
      <trkpt lat="44.90127" lon="4.06516">
        <ele>1182</ele>
        <time>2021-04-29T11:55:53Z</time>
      </trkpt>
      <trkpt lat="44.90124" lon="4.06506">
        <ele>1182</ele>
        <time>2021-04-29T11:55:54Z</time>
      </trkpt>
      <trkpt lat="44.90121" lon="4.06485">
        <ele>1181</ele>
        <time>2021-04-29T11:55:55Z</time>
      </trkpt>
      <trkpt lat="44.90122" lon="4.06476">
        <ele>1181</ele>
        <time>2021-04-29T11:55:57Z</time>
      </trkpt>
      <trkpt lat="44.90125" lon="4.06468">
        <ele>1181</ele>
        <time>2021-04-29T11:55:58Z</time>
      </trkpt>
      <trkpt lat="44.9013" lon="4.06461">
        <ele>1181</ele>
        <time>2021-04-29T11:55:59Z</time>
      </trkpt>
      <trkpt lat="44.90135" lon="4.06457">
        <ele>1181</ele>
        <time>2021-04-29T11:56:00Z</time>
      </trkpt>
      <trkpt lat="44.90141" lon="4.06453">
        <ele>1181</ele>
        <time>2021-04-29T11:56:01Z</time>
      </trkpt>
      <trkpt lat="44.90146" lon="4.06449">
        <ele>1181</ele>
        <time>2021-04-29T11:56:02Z</time>
      </trkpt>
      <trkpt lat="44.90152" lon="4.06445">
        <ele>1182</ele>
        <time>2021-04-29T11:56:03Z</time>
      </trkpt>
      <trkpt lat="44.90157" lon="4.06442">
        <ele>1182</ele>
        <time>2021-04-29T11:56:04Z</time>
      </trkpt>
      <trkpt lat="44.90163" lon="4.0644">
        <ele>1182</ele>
        <time>2021-04-29T11:56:05Z</time>
      </trkpt>
      <trkpt lat="44.90168" lon="4.06438">
        <ele>1182</ele>
        <time>2021-04-29T11:56:06Z</time>
      </trkpt>
      <trkpt lat="44.90173" lon="4.06436">
        <ele>1182</ele>
        <time>2021-04-29T11:56:07Z</time>
      </trkpt>
      <trkpt lat="44.90178" lon="4.06433">
        <ele>1182</ele>
        <time>2021-04-29T11:56:08Z</time>
      </trkpt>
      <trkpt lat="44.90183" lon="4.0643">
        <ele>1182</ele>
        <time>2021-04-29T11:56:09Z</time>
      </trkpt>
      <trkpt lat="44.90187" lon="4.06426">
        <ele>1183</ele>
        <time>2021-04-29T11:56:10Z</time>
      </trkpt>
      <trkpt lat="44.90191" lon="4.06421">
        <ele>1183</ele>
        <time>2021-04-29T11:56:11Z</time>
      </trkpt>
      <trkpt lat="44.90195" lon="4.06416">
        <ele>1183</ele>
        <time>2021-04-29T11:56:12Z</time>
      </trkpt>
      <trkpt lat="44.90198" lon="4.0641">
        <ele>1183</ele>
        <time>2021-04-29T11:56:13Z</time>
      </trkpt>
      <trkpt lat="44.90204" lon="4.06397">
        <ele>1183</ele>
        <time>2021-04-29T11:56:14Z</time>
      </trkpt>
      <trkpt lat="44.90206" lon="4.0639">
        <ele>1183</ele>
        <time>2021-04-29T11:56:16Z</time>
      </trkpt>
      <trkpt lat="44.90207" lon="4.06383">
        <ele>1183</ele>
        <time>2021-04-29T11:56:17Z</time>
      </trkpt>
      <trkpt lat="44.90208" lon="4.06376">
        <ele>1183</ele>
        <time>2021-04-29T11:56:18Z</time>
      </trkpt>
      <trkpt lat="44.90209" lon="4.06369">
        <ele>1183</ele>
        <time>2021-04-29T11:56:19Z</time>
      </trkpt>
      <trkpt lat="44.9021" lon="4.06362">
        <ele>1183</ele>
        <time>2021-04-29T11:56:20Z</time>
      </trkpt>
      <trkpt lat="44.90212" lon="4.06354">
        <ele>1183</ele>
        <time>2021-04-29T11:56:21Z</time>
      </trkpt>
      <trkpt lat="44.90213" lon="4.06347">
        <ele>1183</ele>
        <time>2021-04-29T11:56:22Z</time>
      </trkpt>
      <trkpt lat="44.90215" lon="4.0634">
        <ele>1183</ele>
        <time>2021-04-29T11:56:23Z</time>
      </trkpt>
      <trkpt lat="44.90217" lon="4.06333">
        <ele>1183</ele>
        <time>2021-04-29T11:56:24Z</time>
      </trkpt>
      <trkpt lat="44.90219" lon="4.06326">
        <ele>1183</ele>
        <time>2021-04-29T11:56:25Z</time>
      </trkpt>
      <trkpt lat="44.90222" lon="4.06319">
        <ele>1184</ele>
        <time>2021-04-29T11:56:26Z</time>
      </trkpt>
      <trkpt lat="44.90224" lon="4.06312">
        <ele>1184</ele>
        <time>2021-04-29T11:56:27Z</time>
      </trkpt>
      <trkpt lat="44.90226" lon="4.06305">
        <ele>1184</ele>
        <time>2021-04-29T11:56:28Z</time>
      </trkpt>
      <trkpt lat="44.90228" lon="4.06298">
        <ele>1184</ele>
        <time>2021-04-29T11:56:29Z</time>
      </trkpt>
      <trkpt lat="44.90231" lon="4.06291">
        <ele>1184</ele>
        <time>2021-04-29T11:56:30Z</time>
      </trkpt>
      <trkpt lat="44.90233" lon="4.06283">
        <ele>1184</ele>
        <time>2021-04-29T11:56:31Z</time>
      </trkpt>
      <trkpt lat="44.90236" lon="4.06276">
        <ele>1184</ele>
        <time>2021-04-29T11:56:32Z</time>
      </trkpt>
      <trkpt lat="44.90239" lon="4.06268">
        <ele>1184</ele>
        <time>2021-04-29T11:56:33Z</time>
      </trkpt>
      <trkpt lat="44.90241" lon="4.0626">
        <ele>1184</ele>
        <time>2021-04-29T11:56:34Z</time>
      </trkpt>
      <trkpt lat="44.90244" lon="4.06253">
        <ele>1184</ele>
        <time>2021-04-29T11:56:35Z</time>
      </trkpt>
      <trkpt lat="44.90247" lon="4.06245">
        <ele>1184</ele>
        <time>2021-04-29T11:56:36Z</time>
      </trkpt>
      <trkpt lat="44.9025" lon="4.06237">
        <ele>1183</ele>
        <time>2021-04-29T11:56:37Z</time>
      </trkpt>
      <trkpt lat="44.90253" lon="4.06229">
        <ele>1183</ele>
        <time>2021-04-29T11:56:38Z</time>
      </trkpt>
      <trkpt lat="44.90256" lon="4.06221">
        <ele>1183</ele>
        <time>2021-04-29T11:56:39Z</time>
      </trkpt>
      <trkpt lat="44.90259" lon="4.06213">
        <ele>1183</ele>
        <time>2021-04-29T11:56:40Z</time>
      </trkpt>
      <trkpt lat="44.90262" lon="4.06205">
        <ele>1183</ele>
        <time>2021-04-29T11:56:41Z</time>
      </trkpt>
      <trkpt lat="44.90265" lon="4.06198">
        <ele>1183</ele>
        <time>2021-04-29T11:56:42Z</time>
      </trkpt>
      <trkpt lat="44.90268" lon="4.0619">
        <ele>1183</ele>
        <time>2021-04-29T11:56:43Z</time>
      </trkpt>
      <trkpt lat="44.90271" lon="4.06182">
        <ele>1183</ele>
        <time>2021-04-29T11:56:44Z</time>
      </trkpt>
      <trkpt lat="44.90274" lon="4.06174">
        <ele>1182</ele>
        <time>2021-04-29T11:56:45Z</time>
      </trkpt>
      <trkpt lat="44.90277" lon="4.06166">
        <ele>1182</ele>
        <time>2021-04-29T11:56:46Z</time>
      </trkpt>
      <trkpt lat="44.90281" lon="4.06158">
        <ele>1182</ele>
        <time>2021-04-29T11:56:47Z</time>
      </trkpt>
      <trkpt lat="44.90284" lon="4.0615">
        <ele>1181</ele>
        <time>2021-04-29T11:56:48Z</time>
      </trkpt>
      <trkpt lat="44.90287" lon="4.06142">
        <ele>1181</ele>
        <time>2021-04-29T11:56:49Z</time>
      </trkpt>
      <trkpt lat="44.90291" lon="4.06135">
        <ele>1181</ele>
        <time>2021-04-29T11:56:50Z</time>
      </trkpt>
      <trkpt lat="44.90294" lon="4.06127">
        <ele>1181</ele>
        <time>2021-04-29T11:56:51Z</time>
      </trkpt>
      <trkpt lat="44.90301" lon="4.06111">
        <ele>1181</ele>
        <time>2021-04-29T11:56:52Z</time>
      </trkpt>
      <trkpt lat="44.90305" lon="4.06104">
        <ele>1180</ele>
        <time>2021-04-29T11:56:54Z</time>
      </trkpt>
      <trkpt lat="44.90308" lon="4.06096">
        <ele>1180</ele>
        <time>2021-04-29T11:56:55Z</time>
      </trkpt>
      <trkpt lat="44.90315" lon="4.06081">
        <ele>1180</ele>
        <time>2021-04-29T11:56:56Z</time>
      </trkpt>
      <trkpt lat="44.90319" lon="4.06074">
        <ele>1180</ele>
        <time>2021-04-29T11:56:58Z</time>
      </trkpt>
      <trkpt lat="44.90323" lon="4.06067">
        <ele>1180</ele>
        <time>2021-04-29T11:56:59Z</time>
      </trkpt>
      <trkpt lat="44.90327" lon="4.0606">
        <ele>1180</ele>
        <time>2021-04-29T11:57:00Z</time>
      </trkpt>
      <trkpt lat="44.9033" lon="4.06052">
        <ele>1180</ele>
        <time>2021-04-29T11:57:01Z</time>
      </trkpt>
      <trkpt lat="44.90334" lon="4.06045">
        <ele>1180</ele>
        <time>2021-04-29T11:57:02Z</time>
      </trkpt>
      <trkpt lat="44.90338" lon="4.06038">
        <ele>1180</ele>
        <time>2021-04-29T11:57:03Z</time>
      </trkpt>
      <trkpt lat="44.90341" lon="4.0603">
        <ele>1180</ele>
        <time>2021-04-29T11:57:04Z</time>
      </trkpt>
      <trkpt lat="44.90345" lon="4.06023">
        <ele>1180</ele>
        <time>2021-04-29T11:57:05Z</time>
      </trkpt>
      <trkpt lat="44.90348" lon="4.06015">
        <ele>1180</ele>
        <time>2021-04-29T11:57:06Z</time>
      </trkpt>
      <trkpt lat="44.90351" lon="4.06008">
        <ele>1180</ele>
        <time>2021-04-29T11:57:07Z</time>
      </trkpt>
      <trkpt lat="44.90355" lon="4.06001">
        <ele>1180</ele>
        <time>2021-04-29T11:57:08Z</time>
      </trkpt>
      <trkpt lat="44.90358" lon="4.05993">
        <ele>1180</ele>
        <time>2021-04-29T11:57:09Z</time>
      </trkpt>
      <trkpt lat="44.90362" lon="4.05986">
        <ele>1180</ele>
        <time>2021-04-29T11:57:10Z</time>
      </trkpt>
      <trkpt lat="44.90368" lon="4.05971">
        <ele>1180</ele>
        <time>2021-04-29T11:57:11Z</time>
      </trkpt>
      <trkpt lat="44.90372" lon="4.05964">
        <ele>1180</ele>
        <time>2021-04-29T11:57:13Z</time>
      </trkpt>
      <trkpt lat="44.90375" lon="4.05957">
        <ele>1180</ele>
        <time>2021-04-29T11:57:14Z</time>
      </trkpt>
      <trkpt lat="44.90378" lon="4.0595">
        <ele>1180</ele>
        <time>2021-04-29T11:57:15Z</time>
      </trkpt>
      <trkpt lat="44.90382" lon="4.05943">
        <ele>1180</ele>
        <time>2021-04-29T11:57:16Z</time>
      </trkpt>
      <trkpt lat="44.90385" lon="4.05937">
        <ele>1180</ele>
        <time>2021-04-29T11:57:17Z</time>
      </trkpt>
      <trkpt lat="44.90388" lon="4.05931">
        <ele>1180</ele>
        <time>2021-04-29T11:57:18Z</time>
      </trkpt>
      <trkpt lat="44.90391" lon="4.05924">
        <ele>1180</ele>
        <time>2021-04-29T11:57:19Z</time>
      </trkpt>
      <trkpt lat="44.90394" lon="4.05918">
        <ele>1180</ele>
        <time>2021-04-29T11:57:20Z</time>
      </trkpt>
      <trkpt lat="44.90395" lon="4.05911">
        <ele>1180</ele>
        <time>2021-04-29T11:57:21Z</time>
      </trkpt>
      <trkpt lat="44.90395" lon="4.05904">
        <ele>1180</ele>
        <time>2021-04-29T11:57:22Z</time>
      </trkpt>
      <trkpt lat="44.90393" lon="4.05898">
        <ele>1180</ele>
        <time>2021-04-29T11:57:23Z</time>
      </trkpt>
      <trkpt lat="44.90389" lon="4.05894">
        <ele>1180</ele>
        <time>2021-04-29T11:57:24Z</time>
      </trkpt>
      <trkpt lat="44.90383" lon="4.05891">
        <ele>1181</ele>
        <time>2021-04-29T11:57:25Z</time>
      </trkpt>
      <trkpt lat="44.90378" lon="4.0589">
        <ele>1181</ele>
        <time>2021-04-29T11:57:26Z</time>
      </trkpt>
      <trkpt lat="44.90372" lon="4.05888">
        <ele>1181</ele>
        <time>2021-04-29T11:57:27Z</time>
      </trkpt>
      <trkpt lat="44.90366" lon="4.05887">
        <ele>1181</ele>
        <time>2021-04-29T11:57:28Z</time>
      </trkpt>
      <trkpt lat="44.90361" lon="4.05886">
        <ele>1181</ele>
        <time>2021-04-29T11:57:29Z</time>
      </trkpt>
      <trkpt lat="44.90349" lon="4.05884">
        <ele>1181</ele>
        <time>2021-04-29T11:57:30Z</time>
      </trkpt>
      <trkpt lat="44.90343" lon="4.05882">
        <ele>1181</ele>
        <time>2021-04-29T11:57:32Z</time>
      </trkpt>
      <trkpt lat="44.90337" lon="4.05881">
        <ele>1181</ele>
        <time>2021-04-29T11:57:33Z</time>
      </trkpt>
      <trkpt lat="44.90331" lon="4.05879">
        <ele>1181</ele>
        <time>2021-04-29T11:57:34Z</time>
      </trkpt>
      <trkpt lat="44.90326" lon="4.05876">
        <ele>1181</ele>
        <time>2021-04-29T11:57:35Z</time>
      </trkpt>
      <trkpt lat="44.90322" lon="4.05872">
        <ele>1181</ele>
        <time>2021-04-29T11:57:36Z</time>
      </trkpt>
      <trkpt lat="44.90319" lon="4.05866">
        <ele>1181</ele>
        <time>2021-04-29T11:57:37Z</time>
      </trkpt>
      <trkpt lat="44.90319" lon="4.05859">
        <ele>1181</ele>
        <time>2021-04-29T11:57:38Z</time>
      </trkpt>
      <trkpt lat="44.9032" lon="4.05851">
        <ele>1181</ele>
        <time>2021-04-29T11:57:39Z</time>
      </trkpt>
      <trkpt lat="44.90322" lon="4.05844">
        <ele>1180</ele>
        <time>2021-04-29T11:57:40Z</time>
      </trkpt>
      <trkpt lat="44.90324" lon="4.05836">
        <ele>1180</ele>
        <time>2021-04-29T11:57:41Z</time>
      </trkpt>
      <trkpt lat="44.90325" lon="4.05828">
        <ele>1180</ele>
        <time>2021-04-29T11:57:42Z</time>
      </trkpt>
      <trkpt lat="44.90327" lon="4.0582">
        <ele>1180</ele>
        <time>2021-04-29T11:57:43Z</time>
      </trkpt>
      <trkpt lat="44.90329" lon="4.05812">
        <ele>1180</ele>
        <time>2021-04-29T11:57:44Z</time>
      </trkpt>
      <trkpt lat="44.90331" lon="4.05803">
        <ele>1180</ele>
        <time>2021-04-29T11:57:45Z</time>
      </trkpt>
      <trkpt lat="44.90333" lon="4.05795">
        <ele>1180</ele>
        <time>2021-04-29T11:57:46Z</time>
      </trkpt>
      <trkpt lat="44.90335" lon="4.05787">
        <ele>1180</ele>
        <time>2021-04-29T11:57:47Z</time>
      </trkpt>
      <trkpt lat="44.90336" lon="4.05778">
        <ele>1180</ele>
        <time>2021-04-29T11:57:48Z</time>
      </trkpt>
      <trkpt lat="44.90338" lon="4.05761">
        <ele>1180</ele>
        <time>2021-04-29T11:57:49Z</time>
      </trkpt>
      <trkpt lat="44.90337" lon="4.05753">
        <ele>1179</ele>
        <time>2021-04-29T11:57:51Z</time>
      </trkpt>
      <trkpt lat="44.90336" lon="4.05744">
        <ele>1179</ele>
        <time>2021-04-29T11:57:52Z</time>
      </trkpt>
      <trkpt lat="44.90335" lon="4.05735">
        <ele>1179</ele>
        <time>2021-04-29T11:57:53Z</time>
      </trkpt>
      <trkpt lat="44.90334" lon="4.05726">
        <ele>1179</ele>
        <time>2021-04-29T11:57:54Z</time>
      </trkpt>
      <trkpt lat="44.90333" lon="4.05717">
        <ele>1178</ele>
        <time>2021-04-29T11:57:55Z</time>
      </trkpt>
      <trkpt lat="44.90332" lon="4.05708">
        <ele>1178</ele>
        <time>2021-04-29T11:57:56Z</time>
      </trkpt>
      <trkpt lat="44.90331" lon="4.057">
        <ele>1178</ele>
        <time>2021-04-29T11:57:57Z</time>
      </trkpt>
      <trkpt lat="44.9033" lon="4.05691">
        <ele>1178</ele>
        <time>2021-04-29T11:57:58Z</time>
      </trkpt>
      <trkpt lat="44.90329" lon="4.05682">
        <ele>1178</ele>
        <time>2021-04-29T11:57:59Z</time>
      </trkpt>
      <trkpt lat="44.90328" lon="4.05673">
        <ele>1178</ele>
        <time>2021-04-29T11:58:00Z</time>
      </trkpt>
      <trkpt lat="44.90328" lon="4.05664">
        <ele>1178</ele>
        <time>2021-04-29T11:58:01Z</time>
      </trkpt>
      <trkpt lat="44.90327" lon="4.05655">
        <ele>1178</ele>
        <time>2021-04-29T11:58:02Z</time>
      </trkpt>
      <trkpt lat="44.90326" lon="4.05645">
        <ele>1177</ele>
        <time>2021-04-29T11:58:03Z</time>
      </trkpt>
      <trkpt lat="44.90324" lon="4.05636">
        <ele>1177</ele>
        <time>2021-04-29T11:58:04Z</time>
      </trkpt>
      <trkpt lat="44.90323" lon="4.05628">
        <ele>1177</ele>
        <time>2021-04-29T11:58:05Z</time>
      </trkpt>
      <trkpt lat="44.90323" lon="4.05619">
        <ele>1177</ele>
        <time>2021-04-29T11:58:06Z</time>
      </trkpt>
      <trkpt lat="44.90322" lon="4.0561">
        <ele>1177</ele>
        <time>2021-04-29T11:58:07Z</time>
      </trkpt>
      <trkpt lat="44.9032" lon="4.05592">
        <ele>1176</ele>
        <time>2021-04-29T11:58:08Z</time>
      </trkpt>
      <trkpt lat="44.90319" lon="4.05583">
        <ele>1176</ele>
        <time>2021-04-29T11:58:10Z</time>
      </trkpt>
      <trkpt lat="44.90318" lon="4.05574">
        <ele>1176</ele>
        <time>2021-04-29T11:58:11Z</time>
      </trkpt>
      <trkpt lat="44.90318" lon="4.05565">
        <ele>1176</ele>
        <time>2021-04-29T11:58:12Z</time>
      </trkpt>
      <trkpt lat="44.90316" lon="4.05556">
        <ele>1176</ele>
        <time>2021-04-29T11:58:13Z</time>
      </trkpt>
      <trkpt lat="44.90315" lon="4.05548">
        <ele>1175</ele>
        <time>2021-04-29T11:58:14Z</time>
      </trkpt>
      <trkpt lat="44.90313" lon="4.05539">
        <ele>1175</ele>
        <time>2021-04-29T11:58:15Z</time>
      </trkpt>
      <trkpt lat="44.90312" lon="4.0553">
        <ele>1175</ele>
        <time>2021-04-29T11:58:16Z</time>
      </trkpt>
      <trkpt lat="44.9031" lon="4.05522">
        <ele>1175</ele>
        <time>2021-04-29T11:58:17Z</time>
      </trkpt>
      <trkpt lat="44.90309" lon="4.05513">
        <ele>1175</ele>
        <time>2021-04-29T11:58:18Z</time>
      </trkpt>
      <trkpt lat="44.90309" lon="4.05504">
        <ele>1175</ele>
        <time>2021-04-29T11:58:19Z</time>
      </trkpt>
      <trkpt lat="44.90308" lon="4.05495">
        <ele>1175</ele>
        <time>2021-04-29T11:58:20Z</time>
      </trkpt>
      <trkpt lat="44.90308" lon="4.05487">
        <ele>1174</ele>
        <time>2021-04-29T11:58:21Z</time>
      </trkpt>
      <trkpt lat="44.90308" lon="4.05478">
        <ele>1174</ele>
        <time>2021-04-29T11:58:22Z</time>
      </trkpt>
      <trkpt lat="44.90307" lon="4.05469">
        <ele>1174</ele>
        <time>2021-04-29T11:58:23Z</time>
      </trkpt>
      <trkpt lat="44.90306" lon="4.0546">
        <ele>1174</ele>
        <time>2021-04-29T11:58:24Z</time>
      </trkpt>
      <trkpt lat="44.90306" lon="4.05451">
        <ele>1174</ele>
        <time>2021-04-29T11:58:25Z</time>
      </trkpt>
      <trkpt lat="44.90305" lon="4.05443">
        <ele>1174</ele>
        <time>2021-04-29T11:58:26Z</time>
      </trkpt>
      <trkpt lat="44.90304" lon="4.05434">
        <ele>1174</ele>
        <time>2021-04-29T11:58:27Z</time>
      </trkpt>
      <trkpt lat="44.90303" lon="4.05425">
        <ele>1173</ele>
        <time>2021-04-29T11:58:28Z</time>
      </trkpt>
      <trkpt lat="44.90302" lon="4.05416">
        <ele>1173</ele>
        <time>2021-04-29T11:58:29Z</time>
      </trkpt>
      <trkpt lat="44.90301" lon="4.05407">
        <ele>1173</ele>
        <time>2021-04-29T11:58:30Z</time>
      </trkpt>
      <trkpt lat="44.90301" lon="4.05399">
        <ele>1173</ele>
        <time>2021-04-29T11:58:31Z</time>
      </trkpt>
      <trkpt lat="44.903" lon="4.0539">
        <ele>1173</ele>
        <time>2021-04-29T11:58:32Z</time>
      </trkpt>
      <trkpt lat="44.90299" lon="4.05381">
        <ele>1172</ele>
        <time>2021-04-29T11:58:33Z</time>
      </trkpt>
      <trkpt lat="44.90299" lon="4.05372">
        <ele>1172</ele>
        <time>2021-04-29T11:58:34Z</time>
      </trkpt>
      <trkpt lat="44.90298" lon="4.05363">
        <ele>1172</ele>
        <time>2021-04-29T11:58:35Z</time>
      </trkpt>
      <trkpt lat="44.90297" lon="4.05354">
        <ele>1172</ele>
        <time>2021-04-29T11:58:36Z</time>
      </trkpt>
      <trkpt lat="44.90296" lon="4.05346">
        <ele>1172</ele>
        <time>2021-04-29T11:58:37Z</time>
      </trkpt>
      <trkpt lat="44.90295" lon="4.05337">
        <ele>1172</ele>
        <time>2021-04-29T11:58:38Z</time>
      </trkpt>
      <trkpt lat="44.90294" lon="4.05329">
        <ele>1172</ele>
        <time>2021-04-29T11:58:39Z</time>
      </trkpt>
      <trkpt lat="44.90291" lon="4.0532">
        <ele>1172</ele>
        <time>2021-04-29T11:58:40Z</time>
      </trkpt>
      <trkpt lat="44.90289" lon="4.05313">
        <ele>1171</ele>
        <time>2021-04-29T11:58:41Z</time>
      </trkpt>
      <trkpt lat="44.90286" lon="4.05305">
        <ele>1171</ele>
        <time>2021-04-29T11:58:42Z</time>
      </trkpt>
      <trkpt lat="44.90283" lon="4.05298">
        <ele>1171</ele>
        <time>2021-04-29T11:58:43Z</time>
      </trkpt>
      <trkpt lat="44.9028" lon="4.05291">
        <ele>1171</ele>
        <time>2021-04-29T11:58:44Z</time>
      </trkpt>
      <trkpt lat="44.90278" lon="4.05283">
        <ele>1171</ele>
        <time>2021-04-29T11:58:45Z</time>
      </trkpt>
      <trkpt lat="44.90277" lon="4.05268">
        <ele>1171</ele>
        <time>2021-04-29T11:58:46Z</time>
      </trkpt>
      <trkpt lat="44.90278" lon="4.0526">
        <ele>1170</ele>
        <time>2021-04-29T11:58:48Z</time>
      </trkpt>
      <trkpt lat="44.9028" lon="4.05253">
        <ele>1170</ele>
        <time>2021-04-29T11:58:49Z</time>
      </trkpt>
      <trkpt lat="44.90282" lon="4.05246">
        <ele>1170</ele>
        <time>2021-04-29T11:58:50Z</time>
      </trkpt>
      <trkpt lat="44.90286" lon="4.0524">
        <ele>1170</ele>
        <time>2021-04-29T11:58:51Z</time>
      </trkpt>
      <trkpt lat="44.90289" lon="4.05234">
        <ele>1169</ele>
        <time>2021-04-29T11:58:52Z</time>
      </trkpt>
      <trkpt lat="44.90293" lon="4.05228">
        <ele>1169</ele>
        <time>2021-04-29T11:58:53Z</time>
      </trkpt>
      <trkpt lat="44.90298" lon="4.05223">
        <ele>1169</ele>
        <time>2021-04-29T11:58:54Z</time>
      </trkpt>
      <trkpt lat="44.90303" lon="4.05218">
        <ele>1169</ele>
        <time>2021-04-29T11:58:55Z</time>
      </trkpt>
      <trkpt lat="44.90307" lon="4.05213">
        <ele>1168</ele>
        <time>2021-04-29T11:58:56Z</time>
      </trkpt>
      <trkpt lat="44.90312" lon="4.05207">
        <ele>1168</ele>
        <time>2021-04-29T11:58:57Z</time>
      </trkpt>
      <trkpt lat="44.90316" lon="4.05202">
        <ele>1168</ele>
        <time>2021-04-29T11:58:58Z</time>
      </trkpt>
      <trkpt lat="44.9032" lon="4.05196">
        <ele>1168</ele>
        <time>2021-04-29T11:58:59Z</time>
      </trkpt>
      <trkpt lat="44.90325" lon="4.0519">
        <ele>1167</ele>
        <time>2021-04-29T11:59:00Z</time>
      </trkpt>
      <trkpt lat="44.9033" lon="4.05185">
        <ele>1167</ele>
        <time>2021-04-29T11:59:01Z</time>
      </trkpt>
      <trkpt lat="44.90335" lon="4.0518">
        <ele>1167</ele>
        <time>2021-04-29T11:59:02Z</time>
      </trkpt>
      <trkpt lat="44.9034" lon="4.05175">
        <ele>1167</ele>
        <time>2021-04-29T11:59:03Z</time>
      </trkpt>
      <trkpt lat="44.90344" lon="4.05169">
        <ele>1167</ele>
        <time>2021-04-29T11:59:04Z</time>
      </trkpt>
      <trkpt lat="44.90351" lon="4.05156">
        <ele>1166</ele>
        <time>2021-04-29T11:59:05Z</time>
      </trkpt>
      <trkpt lat="44.90356" lon="4.0515">
        <ele>1166</ele>
        <time>2021-04-29T11:59:07Z</time>
      </trkpt>
      <trkpt lat="44.9036" lon="4.05143">
        <ele>1165</ele>
        <time>2021-04-29T11:59:08Z</time>
      </trkpt>
      <trkpt lat="44.90363" lon="4.05135">
        <ele>1165</ele>
        <time>2021-04-29T11:59:09Z</time>
      </trkpt>
      <trkpt lat="44.90364" lon="4.05126">
        <ele>1165</ele>
        <time>2021-04-29T11:59:10Z</time>
      </trkpt>
      <trkpt lat="44.90364" lon="4.05117">
        <ele>1165</ele>
        <time>2021-04-29T11:59:11Z</time>
      </trkpt>
      <trkpt lat="44.90363" lon="4.05109">
        <ele>1165</ele>
        <time>2021-04-29T11:59:12Z</time>
      </trkpt>
      <trkpt lat="44.90362" lon="4.05102">
        <ele>1165</ele>
        <time>2021-04-29T11:59:13Z</time>
      </trkpt>
      <trkpt lat="44.9036" lon="4.05095">
        <ele>1165</ele>
        <time>2021-04-29T11:59:14Z</time>
      </trkpt>
      <trkpt lat="44.90357" lon="4.05089">
        <ele>1165</ele>
        <time>2021-04-29T11:59:15Z</time>
      </trkpt>
      <trkpt lat="44.90354" lon="4.05083">
        <ele>1165</ele>
        <time>2021-04-29T11:59:16Z</time>
      </trkpt>
      <trkpt lat="44.9035" lon="4.05079">
        <ele>1165</ele>
        <time>2021-04-29T11:59:17Z</time>
      </trkpt>
      <trkpt lat="44.90346" lon="4.05075">
        <ele>1165</ele>
        <time>2021-04-29T11:59:18Z</time>
      </trkpt>
      <trkpt lat="44.90342" lon="4.05072">
        <ele>1165</ele>
        <time>2021-04-29T11:59:19Z</time>
      </trkpt>
      <trkpt lat="44.90338" lon="4.05069">
        <ele>1165</ele>
        <time>2021-04-29T11:59:20Z</time>
      </trkpt>
      <trkpt lat="44.90333" lon="4.05066">
        <ele>1165</ele>
        <time>2021-04-29T11:59:21Z</time>
      </trkpt>
      <trkpt lat="44.90328" lon="4.05062">
        <ele>1165</ele>
        <time>2021-04-29T11:59:22Z</time>
      </trkpt>
      <trkpt lat="44.90323" lon="4.05059">
        <ele>1165</ele>
        <time>2021-04-29T11:59:23Z</time>
      </trkpt>
      <trkpt lat="44.90312" lon="4.05052">
        <ele>1165</ele>
        <time>2021-04-29T11:59:24Z</time>
      </trkpt>
      <trkpt lat="44.90306" lon="4.05048">
        <ele>1165</ele>
        <time>2021-04-29T11:59:26Z</time>
      </trkpt>
      <trkpt lat="44.90301" lon="4.05044">
        <ele>1165</ele>
        <time>2021-04-29T11:59:27Z</time>
      </trkpt>
      <trkpt lat="44.90296" lon="4.05041">
        <ele>1165</ele>
        <time>2021-04-29T11:59:28Z</time>
      </trkpt>
      <trkpt lat="44.90291" lon="4.05037">
        <ele>1165</ele>
        <time>2021-04-29T11:59:29Z</time>
      </trkpt>
      <trkpt lat="44.90285" lon="4.05033">
        <ele>1165</ele>
        <time>2021-04-29T11:59:30Z</time>
      </trkpt>
      <trkpt lat="44.9028" lon="4.05029">
        <ele>1165</ele>
        <time>2021-04-29T11:59:31Z</time>
      </trkpt>
      <trkpt lat="44.90275" lon="4.05025">
        <ele>1165</ele>
        <time>2021-04-29T11:59:32Z</time>
      </trkpt>
      <trkpt lat="44.90269" lon="4.05021">
        <ele>1165</ele>
        <time>2021-04-29T11:59:33Z</time>
      </trkpt>
      <trkpt lat="44.90264" lon="4.05016">
        <ele>1165</ele>
        <time>2021-04-29T11:59:34Z</time>
      </trkpt>
      <trkpt lat="44.90259" lon="4.05011">
        <ele>1164</ele>
        <time>2021-04-29T11:59:35Z</time>
      </trkpt>
      <trkpt lat="44.90254" lon="4.05006">
        <ele>1164</ele>
        <time>2021-04-29T11:59:36Z</time>
      </trkpt>
      <trkpt lat="44.90249" lon="4.05">
        <ele>1164</ele>
        <time>2021-04-29T11:59:37Z</time>
      </trkpt>
      <trkpt lat="44.90244" lon="4.04995">
        <ele>1163</ele>
        <time>2021-04-29T11:59:38Z</time>
      </trkpt>
      <trkpt lat="44.90239" lon="4.0499">
        <ele>1163</ele>
        <time>2021-04-29T11:59:39Z</time>
      </trkpt>
      <trkpt lat="44.90234" lon="4.04984">
        <ele>1163</ele>
        <time>2021-04-29T11:59:40Z</time>
      </trkpt>
      <trkpt lat="44.90229" lon="4.04978">
        <ele>1163</ele>
        <time>2021-04-29T11:59:41Z</time>
      </trkpt>
      <trkpt lat="44.90225" lon="4.04972">
        <ele>1162</ele>
        <time>2021-04-29T11:59:42Z</time>
      </trkpt>
      <trkpt lat="44.9022" lon="4.04965">
        <ele>1162</ele>
        <time>2021-04-29T11:59:43Z</time>
      </trkpt>
      <trkpt lat="44.90216" lon="4.04957">
        <ele>1162</ele>
        <time>2021-04-29T11:59:44Z</time>
      </trkpt>
      <trkpt lat="44.90211" lon="4.04948">
        <ele>1161</ele>
        <time>2021-04-29T11:59:45Z</time>
      </trkpt>
      <trkpt lat="44.90207" lon="4.04939">
        <ele>1161</ele>
        <time>2021-04-29T11:59:46Z</time>
      </trkpt>
      <trkpt lat="44.90203" lon="4.0493">
        <ele>1160</ele>
        <time>2021-04-29T11:59:47Z</time>
      </trkpt>
      <trkpt lat="44.90199" lon="4.04921">
        <ele>1160</ele>
        <time>2021-04-29T11:59:48Z</time>
      </trkpt>
      <trkpt lat="44.90195" lon="4.04911">
        <ele>1159</ele>
        <time>2021-04-29T11:59:49Z</time>
      </trkpt>
      <trkpt lat="44.90191" lon="4.04901">
        <ele>1159</ele>
        <time>2021-04-29T11:59:50Z</time>
      </trkpt>
      <trkpt lat="44.90186" lon="4.04891">
        <ele>1158</ele>
        <time>2021-04-29T11:59:51Z</time>
      </trkpt>
      <trkpt lat="44.90182" lon="4.04881">
        <ele>1158</ele>
        <time>2021-04-29T11:59:52Z</time>
      </trkpt>
      <trkpt lat="44.90177" lon="4.04871">
        <ele>1158</ele>
        <time>2021-04-29T11:59:53Z</time>
      </trkpt>
      <trkpt lat="44.90173" lon="4.0486">
        <ele>1157</ele>
        <time>2021-04-29T11:59:54Z</time>
      </trkpt>
      <trkpt lat="44.90169" lon="4.0485">
        <ele>1156</ele>
        <time>2021-04-29T11:59:55Z</time>
      </trkpt>
      <trkpt lat="44.90164" lon="4.04839">
        <ele>1156</ele>
        <time>2021-04-29T11:59:56Z</time>
      </trkpt>
      <trkpt lat="44.9016" lon="4.04828">
        <ele>1155</ele>
        <time>2021-04-29T11:59:57Z</time>
      </trkpt>
      <trkpt lat="44.90155" lon="4.04817">
        <ele>1154</ele>
        <time>2021-04-29T11:59:58Z</time>
      </trkpt>
      <trkpt lat="44.90151" lon="4.04806">
        <ele>1154</ele>
        <time>2021-04-29T11:59:59Z</time>
      </trkpt>
      <trkpt lat="44.90147" lon="4.04795">
        <ele>1153</ele>
        <time>2021-04-29T12:00:00Z</time>
      </trkpt>
      <trkpt lat="44.90142" lon="4.04784">
        <ele>1153</ele>
        <time>2021-04-29T12:00:01Z</time>
      </trkpt>
      <trkpt lat="44.90133" lon="4.04762">
        <ele>1153</ele>
        <time>2021-04-29T12:00:02Z</time>
      </trkpt>
      <trkpt lat="44.90128" lon="4.04749">
        <ele>1151</ele>
        <time>2021-04-29T12:00:04Z</time>
      </trkpt>
      <trkpt lat="44.90122" lon="4.04736">
        <ele>1151</ele>
        <time>2021-04-29T12:00:05Z</time>
      </trkpt>
      <trkpt lat="44.90116" lon="4.04723">
        <ele>1150</ele>
        <time>2021-04-29T12:00:06Z</time>
      </trkpt>
      <trkpt lat="44.90111" lon="4.0471">
        <ele>1149</ele>
        <time>2021-04-29T12:00:07Z</time>
      </trkpt>
      <trkpt lat="44.90105" lon="4.04698">
        <ele>1148</ele>
        <time>2021-04-29T12:00:08Z</time>
      </trkpt>
      <trkpt lat="44.901" lon="4.04685">
        <ele>1148</ele>
        <time>2021-04-29T12:00:09Z</time>
      </trkpt>
      <trkpt lat="44.90095" lon="4.04673">
        <ele>1147</ele>
        <time>2021-04-29T12:00:10Z</time>
      </trkpt>
      <trkpt lat="44.9009" lon="4.04661">
        <ele>1147</ele>
        <time>2021-04-29T12:00:11Z</time>
      </trkpt>
      <trkpt lat="44.90085" lon="4.04649">
        <ele>1146</ele>
        <time>2021-04-29T12:00:12Z</time>
      </trkpt>
      <trkpt lat="44.9008" lon="4.04638">
        <ele>1146</ele>
        <time>2021-04-29T12:00:13Z</time>
      </trkpt>
      <trkpt lat="44.90075" lon="4.04626">
        <ele>1146</ele>
        <time>2021-04-29T12:00:14Z</time>
      </trkpt>
      <trkpt lat="44.9007" lon="4.04615">
        <ele>1145</ele>
        <time>2021-04-29T12:00:15Z</time>
      </trkpt>
      <trkpt lat="44.90065" lon="4.04605">
        <ele>1145</ele>
        <time>2021-04-29T12:00:16Z</time>
      </trkpt>
      <trkpt lat="44.90061" lon="4.04595">
        <ele>1144</ele>
        <time>2021-04-29T12:00:17Z</time>
      </trkpt>
      <trkpt lat="44.90057" lon="4.04585">
        <ele>1144</ele>
        <time>2021-04-29T12:00:18Z</time>
      </trkpt>
      <trkpt lat="44.90053" lon="4.04576">
        <ele>1144</ele>
        <time>2021-04-29T12:00:19Z</time>
      </trkpt>
      <trkpt lat="44.90049" lon="4.04567">
        <ele>1143</ele>
        <time>2021-04-29T12:00:20Z</time>
      </trkpt>
      <trkpt lat="44.90042" lon="4.04551">
        <ele>1144</ele>
        <time>2021-04-29T12:00:21Z</time>
      </trkpt>
      <trkpt lat="44.90039" lon="4.04543">
        <ele>1144</ele>
        <time>2021-04-29T12:00:23Z</time>
      </trkpt>
      <trkpt lat="44.90036" lon="4.04536">
        <ele>1144</ele>
        <time>2021-04-29T12:00:24Z</time>
      </trkpt>
      <trkpt lat="44.90033" lon="4.0453">
        <ele>1145</ele>
        <time>2021-04-29T12:00:25Z</time>
      </trkpt>
      <trkpt lat="44.9003" lon="4.04523">
        <ele>1145</ele>
        <time>2021-04-29T12:00:26Z</time>
      </trkpt>
      <trkpt lat="44.90027" lon="4.04517">
        <ele>1146</ele>
        <time>2021-04-29T12:00:27Z</time>
      </trkpt>
      <trkpt lat="44.90024" lon="4.0451">
        <ele>1146</ele>
        <time>2021-04-29T12:00:28Z</time>
      </trkpt>
      <trkpt lat="44.90022" lon="4.04504">
        <ele>1146</ele>
        <time>2021-04-29T12:00:29Z</time>
      </trkpt>
      <trkpt lat="44.90019" lon="4.04497">
        <ele>1147</ele>
        <time>2021-04-29T12:00:30Z</time>
      </trkpt>
      <trkpt lat="44.90016" lon="4.04491">
        <ele>1147</ele>
        <time>2021-04-29T12:00:31Z</time>
      </trkpt>
      <trkpt lat="44.90014" lon="4.04485">
        <ele>1147</ele>
        <time>2021-04-29T12:00:32Z</time>
      </trkpt>
      <trkpt lat="44.90011" lon="4.04479">
        <ele>1148</ele>
        <time>2021-04-29T12:00:33Z</time>
      </trkpt>
      <trkpt lat="44.90009" lon="4.04473">
        <ele>1148</ele>
        <time>2021-04-29T12:00:34Z</time>
      </trkpt>
      <trkpt lat="44.90006" lon="4.04467">
        <ele>1148</ele>
        <time>2021-04-29T12:00:35Z</time>
      </trkpt>
      <trkpt lat="44.90003" lon="4.04461">
        <ele>1149</ele>
        <time>2021-04-29T12:00:36Z</time>
      </trkpt>
      <trkpt lat="44.90001" lon="4.04455">
        <ele>1149</ele>
        <time>2021-04-29T12:00:37Z</time>
      </trkpt>
      <trkpt lat="44.89998" lon="4.04449">
        <ele>1149</ele>
        <time>2021-04-29T12:00:38Z</time>
      </trkpt>
      <trkpt lat="44.89996" lon="4.04444">
        <ele>1149</ele>
        <time>2021-04-29T12:00:39Z</time>
      </trkpt>
      <trkpt lat="44.89991" lon="4.04432">
        <ele>1150</ele>
        <time>2021-04-29T12:00:40Z</time>
      </trkpt>
      <trkpt lat="44.89988" lon="4.04426">
        <ele>1150</ele>
        <time>2021-04-29T12:00:42Z</time>
      </trkpt>
      <trkpt lat="44.89985" lon="4.0442">
        <ele>1151</ele>
        <time>2021-04-29T12:00:43Z</time>
      </trkpt>
      <trkpt lat="44.89983" lon="4.04414">
        <ele>1151</ele>
        <time>2021-04-29T12:00:44Z</time>
      </trkpt>
      <trkpt lat="44.8998" lon="4.04408">
        <ele>1151</ele>
        <time>2021-04-29T12:00:45Z</time>
      </trkpt>
      <trkpt lat="44.89977" lon="4.04402">
        <ele>1152</ele>
        <time>2021-04-29T12:00:46Z</time>
      </trkpt>
      <trkpt lat="44.89975" lon="4.04395">
        <ele>1152</ele>
        <time>2021-04-29T12:00:47Z</time>
      </trkpt>
      <trkpt lat="44.89972" lon="4.04389">
        <ele>1152</ele>
        <time>2021-04-29T12:00:48Z</time>
      </trkpt>
      <trkpt lat="44.8997" lon="4.04383">
        <ele>1152</ele>
        <time>2021-04-29T12:00:49Z</time>
      </trkpt>
      <trkpt lat="44.89967" lon="4.04377">
        <ele>1153</ele>
        <time>2021-04-29T12:00:50Z</time>
      </trkpt>
      <trkpt lat="44.89965" lon="4.04371">
        <ele>1153</ele>
        <time>2021-04-29T12:00:51Z</time>
      </trkpt>
      <trkpt lat="44.89961" lon="4.04358">
        <ele>1153</ele>
        <time>2021-04-29T12:00:52Z</time>
      </trkpt>
      <trkpt lat="44.89959" lon="4.04351">
        <ele>1154</ele>
        <time>2021-04-29T12:00:53Z</time>
      </trkpt>
      <trkpt lat="44.89957" lon="4.04344">
        <ele>1154</ele>
        <time>2021-04-29T12:00:55Z</time>
      </trkpt>
      <trkpt lat="44.89956" lon="4.04338">
        <ele>1155</ele>
        <time>2021-04-29T12:00:56Z</time>
      </trkpt>
      <trkpt lat="44.89954" lon="4.04331">
        <ele>1155</ele>
        <time>2021-04-29T12:00:57Z</time>
      </trkpt>
      <trkpt lat="44.89953" lon="4.04324">
        <ele>1155</ele>
        <time>2021-04-29T12:00:58Z</time>
      </trkpt>
      <trkpt lat="44.8995" lon="4.04311">
        <ele>1155</ele>
        <time>2021-04-29T12:00:59Z</time>
      </trkpt>
      <trkpt lat="44.89949" lon="4.04305">
        <ele>1156</ele>
        <time>2021-04-29T12:01:01Z</time>
      </trkpt>
      <trkpt lat="44.89947" lon="4.04298">
        <ele>1156</ele>
        <time>2021-04-29T12:01:02Z</time>
      </trkpt>
      <trkpt lat="44.89945" lon="4.04292">
        <ele>1156</ele>
        <time>2021-04-29T12:01:03Z</time>
      </trkpt>
      <trkpt lat="44.89944" lon="4.04285">
        <ele>1156</ele>
        <time>2021-04-29T12:01:04Z</time>
      </trkpt>
      <trkpt lat="44.89942" lon="4.04278">
        <ele>1156</ele>
        <time>2021-04-29T12:01:05Z</time>
      </trkpt>
      <trkpt lat="44.8994" lon="4.04272">
        <ele>1156</ele>
        <time>2021-04-29T12:01:06Z</time>
      </trkpt>
      <trkpt lat="44.89938" lon="4.04268">
        <ele>1156</ele>
        <time>2021-04-29T12:01:07Z</time>
      </trkpt>
      <trkpt lat="44.89934" lon="4.04265">
        <ele>1157</ele>
        <time>2021-04-29T12:01:08Z</time>
      </trkpt>
      <trkpt lat="44.8993" lon="4.04265">
        <ele>1157</ele>
        <time>2021-04-29T12:01:09Z</time>
      </trkpt>
      <trkpt lat="44.89926" lon="4.04269">
        <ele>1157</ele>
        <time>2021-04-29T12:01:10Z</time>
      </trkpt>
      <trkpt lat="44.89922" lon="4.04273">
        <ele>1157</ele>
        <time>2021-04-29T12:01:11Z</time>
      </trkpt>
      <trkpt lat="44.89919" lon="4.04278">
        <ele>1158</ele>
        <time>2021-04-29T12:01:12Z</time>
      </trkpt>
      <trkpt lat="44.89915" lon="4.04283">
        <ele>1158</ele>
        <time>2021-04-29T12:01:13Z</time>
      </trkpt>
      <trkpt lat="44.89911" lon="4.04288">
        <ele>1158</ele>
        <time>2021-04-29T12:01:14Z</time>
      </trkpt>
      <trkpt lat="44.89907" lon="4.04293">
        <ele>1158</ele>
        <time>2021-04-29T12:01:15Z</time>
      </trkpt>
      <trkpt lat="44.89904" lon="4.04298">
        <ele>1158</ele>
        <time>2021-04-29T12:01:16Z</time>
      </trkpt>
      <trkpt lat="44.899" lon="4.04303">
        <ele>1159</ele>
        <time>2021-04-29T12:01:17Z</time>
      </trkpt>
      <trkpt lat="44.89893" lon="4.04313">
        <ele>1159</ele>
        <time>2021-04-29T12:01:18Z</time>
      </trkpt>
      <trkpt lat="44.89889" lon="4.04318">
        <ele>1159</ele>
        <time>2021-04-29T12:01:20Z</time>
      </trkpt>
      <trkpt lat="44.89885" lon="4.04323">
        <ele>1159</ele>
        <time>2021-04-29T12:01:21Z</time>
      </trkpt>
      <trkpt lat="44.89881" lon="4.04327">
        <ele>1159</ele>
        <time>2021-04-29T12:01:22Z</time>
      </trkpt>
      <trkpt lat="44.89877" lon="4.04332">
        <ele>1159</ele>
        <time>2021-04-29T12:01:23Z</time>
      </trkpt>
      <trkpt lat="44.89873" lon="4.04337">
        <ele>1159</ele>
        <time>2021-04-29T12:01:24Z</time>
      </trkpt>
      <trkpt lat="44.89868" lon="4.04341">
        <ele>1159</ele>
        <time>2021-04-29T12:01:25Z</time>
      </trkpt>
      <trkpt lat="44.89864" lon="4.04346">
        <ele>1160</ele>
        <time>2021-04-29T12:01:26Z</time>
      </trkpt>
      <trkpt lat="44.89859" lon="4.0435">
        <ele>1160</ele>
        <time>2021-04-29T12:01:27Z</time>
      </trkpt>
      <trkpt lat="44.89854" lon="4.04354">
        <ele>1160</ele>
        <time>2021-04-29T12:01:28Z</time>
      </trkpt>
      <trkpt lat="44.89849" lon="4.04358">
        <ele>1160</ele>
        <time>2021-04-29T12:01:29Z</time>
      </trkpt>
      <trkpt lat="44.89844" lon="4.04362">
        <ele>1160</ele>
        <time>2021-04-29T12:01:30Z</time>
      </trkpt>
      <trkpt lat="44.89839" lon="4.04367">
        <ele>1160</ele>
        <time>2021-04-29T12:01:31Z</time>
      </trkpt>
      <trkpt lat="44.89834" lon="4.04371">
        <ele>1161</ele>
        <time>2021-04-29T12:01:32Z</time>
      </trkpt>
      <trkpt lat="44.8983" lon="4.04375">
        <ele>1161</ele>
        <time>2021-04-29T12:01:33Z</time>
      </trkpt>
      <trkpt lat="44.89825" lon="4.0438">
        <ele>1162</ele>
        <time>2021-04-29T12:01:34Z</time>
      </trkpt>
      <trkpt lat="44.8982" lon="4.04384">
        <ele>1162</ele>
        <time>2021-04-29T12:01:35Z</time>
      </trkpt>
      <trkpt lat="44.89815" lon="4.04389">
        <ele>1162</ele>
        <time>2021-04-29T12:01:36Z</time>
      </trkpt>
      <trkpt lat="44.89806" lon="4.04399">
        <ele>1162</ele>
        <time>2021-04-29T12:01:37Z</time>
      </trkpt>
      <trkpt lat="44.89801" lon="4.04404">
        <ele>1163</ele>
        <time>2021-04-29T12:01:39Z</time>
      </trkpt>
      <trkpt lat="44.89796" lon="4.04409">
        <ele>1163</ele>
        <time>2021-04-29T12:01:40Z</time>
      </trkpt>
      <trkpt lat="44.89792" lon="4.04415">
        <ele>1163</ele>
        <time>2021-04-29T12:01:41Z</time>
      </trkpt>
      <trkpt lat="44.89788" lon="4.0442">
        <ele>1164</ele>
        <time>2021-04-29T12:01:42Z</time>
      </trkpt>
      <trkpt lat="44.89783" lon="4.04426">
        <ele>1164</ele>
        <time>2021-04-29T12:01:43Z</time>
      </trkpt>
      <trkpt lat="44.89774" lon="4.04436">
        <ele>1164</ele>
        <time>2021-04-29T12:01:44Z</time>
      </trkpt>
      <trkpt lat="44.8977" lon="4.04441">
        <ele>1164</ele>
        <time>2021-04-29T12:01:46Z</time>
      </trkpt>
      <trkpt lat="44.89765" lon="4.04444">
        <ele>1164</ele>
        <time>2021-04-29T12:01:47Z</time>
      </trkpt>
      <trkpt lat="44.8976" lon="4.04447">
        <ele>1164</ele>
        <time>2021-04-29T12:01:48Z</time>
      </trkpt>
      <trkpt lat="44.89754" lon="4.04449">
        <ele>1164</ele>
        <time>2021-04-29T12:01:49Z</time>
      </trkpt>
      <trkpt lat="44.89749" lon="4.04449">
        <ele>1165</ele>
        <time>2021-04-29T12:01:50Z</time>
      </trkpt>
      <trkpt lat="44.89744" lon="4.04448">
        <ele>1165</ele>
        <time>2021-04-29T12:01:51Z</time>
      </trkpt>
      <trkpt lat="44.89739" lon="4.04446">
        <ele>1166</ele>
        <time>2021-04-29T12:01:52Z</time>
      </trkpt>
      <trkpt lat="44.89734" lon="4.04444">
        <ele>1167</ele>
        <time>2021-04-29T12:01:53Z</time>
      </trkpt>
      <trkpt lat="44.8973" lon="4.04441">
        <ele>1167</ele>
        <time>2021-04-29T12:01:54Z</time>
      </trkpt>
      <trkpt lat="44.89725" lon="4.04438">
        <ele>1167</ele>
        <time>2021-04-29T12:01:55Z</time>
      </trkpt>
      <trkpt lat="44.89717" lon="4.04431">
        <ele>1168</ele>
        <time>2021-04-29T12:01:56Z</time>
      </trkpt>
      <trkpt lat="44.89714" lon="4.04426">
        <ele>1168</ele>
        <time>2021-04-29T12:01:58Z</time>
      </trkpt>
      <trkpt lat="44.8971" lon="4.0442">
        <ele>1168</ele>
        <time>2021-04-29T12:01:59Z</time>
      </trkpt>
      <trkpt lat="44.89707" lon="4.04414">
        <ele>1167</ele>
        <time>2021-04-29T12:02:00Z</time>
      </trkpt>
      <trkpt lat="44.89701" lon="4.04401">
        <ele>1167</ele>
        <time>2021-04-29T12:02:01Z</time>
      </trkpt>
      <trkpt lat="44.89698" lon="4.04393">
        <ele>1167</ele>
        <time>2021-04-29T12:02:03Z</time>
      </trkpt>
      <trkpt lat="44.89695" lon="4.04386">
        <ele>1166</ele>
        <time>2021-04-29T12:02:04Z</time>
      </trkpt>
      <trkpt lat="44.89692" lon="4.04378">
        <ele>1166</ele>
        <time>2021-04-29T12:02:05Z</time>
      </trkpt>
      <trkpt lat="44.89687" lon="4.04361">
        <ele>1166</ele>
        <time>2021-04-29T12:02:06Z</time>
      </trkpt>
      <trkpt lat="44.89684" lon="4.04353">
        <ele>1166</ele>
        <time>2021-04-29T12:02:08Z</time>
      </trkpt>
      <trkpt lat="44.89681" lon="4.04345">
        <ele>1165</ele>
        <time>2021-04-29T12:02:09Z</time>
      </trkpt>
      <trkpt lat="44.89678" lon="4.04337">
        <ele>1165</ele>
        <time>2021-04-29T12:02:10Z</time>
      </trkpt>
      <trkpt lat="44.89674" lon="4.0433">
        <ele>1165</ele>
        <time>2021-04-29T12:02:11Z</time>
      </trkpt>
      <trkpt lat="44.89669" lon="4.04322">
        <ele>1165</ele>
        <time>2021-04-29T12:02:12Z</time>
      </trkpt>
      <trkpt lat="44.89665" lon="4.04314">
        <ele>1165</ele>
        <time>2021-04-29T12:02:13Z</time>
      </trkpt>
      <trkpt lat="44.89661" lon="4.04305">
        <ele>1164</ele>
        <time>2021-04-29T12:02:14Z</time>
      </trkpt>
      <trkpt lat="44.89656" lon="4.04297">
        <ele>1164</ele>
        <time>2021-04-29T12:02:15Z</time>
      </trkpt>
      <trkpt lat="44.8965" lon="4.04289">
        <ele>1163</ele>
        <time>2021-04-29T12:02:16Z</time>
      </trkpt>
      <trkpt lat="44.89643" lon="4.04281">
        <ele>1163</ele>
        <time>2021-04-29T12:02:17Z</time>
      </trkpt>
      <trkpt lat="44.89637" lon="4.04274">
        <ele>1162</ele>
        <time>2021-04-29T12:02:18Z</time>
      </trkpt>
      <trkpt lat="44.8963" lon="4.04267">
        <ele>1161</ele>
        <time>2021-04-29T12:02:19Z</time>
      </trkpt>
      <trkpt lat="44.89623" lon="4.04261">
        <ele>1161</ele>
        <time>2021-04-29T12:02:20Z</time>
      </trkpt>
      <trkpt lat="44.89617" lon="4.04254">
        <ele>1161</ele>
        <time>2021-04-29T12:02:21Z</time>
      </trkpt>
      <trkpt lat="44.89612" lon="4.04246">
        <ele>1160</ele>
        <time>2021-04-29T12:02:22Z</time>
      </trkpt>
      <trkpt lat="44.89603" lon="4.04231">
        <ele>1160</ele>
        <time>2021-04-29T12:02:23Z</time>
      </trkpt>
      <trkpt lat="44.896" lon="4.04223">
        <ele>1160</ele>
        <time>2021-04-29T12:02:25Z</time>
      </trkpt>
      <trkpt lat="44.89597" lon="4.04215">
        <ele>1160</ele>
        <time>2021-04-29T12:02:26Z</time>
      </trkpt>
      <trkpt lat="44.89595" lon="4.04207">
        <ele>1160</ele>
        <time>2021-04-29T12:02:27Z</time>
      </trkpt>
      <trkpt lat="44.89592" lon="4.04199">
        <ele>1160</ele>
        <time>2021-04-29T12:02:28Z</time>
      </trkpt>
      <trkpt lat="44.8959" lon="4.04191">
        <ele>1161</ele>
        <time>2021-04-29T12:02:29Z</time>
      </trkpt>
      <trkpt lat="44.89588" lon="4.04183">
        <ele>1161</ele>
        <time>2021-04-29T12:02:30Z</time>
      </trkpt>
      <trkpt lat="44.89586" lon="4.04175">
        <ele>1161</ele>
        <time>2021-04-29T12:02:31Z</time>
      </trkpt>
      <trkpt lat="44.89583" lon="4.04167">
        <ele>1161</ele>
        <time>2021-04-29T12:02:32Z</time>
      </trkpt>
      <trkpt lat="44.8958" lon="4.0416">
        <ele>1161</ele>
        <time>2021-04-29T12:02:33Z</time>
      </trkpt>
      <trkpt lat="44.89574" lon="4.04146">
        <ele>1161</ele>
        <time>2021-04-29T12:02:34Z</time>
      </trkpt>
      <trkpt lat="44.89571" lon="4.04139">
        <ele>1161</ele>
        <time>2021-04-29T12:02:36Z</time>
      </trkpt>
      <trkpt lat="44.89567" lon="4.04132">
        <ele>1162</ele>
        <time>2021-04-29T12:02:37Z</time>
      </trkpt>
      <trkpt lat="44.89563" lon="4.04125">
        <ele>1162</ele>
        <time>2021-04-29T12:02:38Z</time>
      </trkpt>
      <trkpt lat="44.89559" lon="4.04119">
        <ele>1162</ele>
        <time>2021-04-29T12:02:39Z</time>
      </trkpt>
      <trkpt lat="44.89556" lon="4.04112">
        <ele>1162</ele>
        <time>2021-04-29T12:02:40Z</time>
      </trkpt>
      <trkpt lat="44.89551" lon="4.04106">
        <ele>1162</ele>
        <time>2021-04-29T12:02:41Z</time>
      </trkpt>
      <trkpt lat="44.89547" lon="4.04099">
        <ele>1163</ele>
        <time>2021-04-29T12:02:42Z</time>
      </trkpt>
      <trkpt lat="44.89543" lon="4.04093">
        <ele>1163</ele>
        <time>2021-04-29T12:02:43Z</time>
      </trkpt>
      <trkpt lat="44.89539" lon="4.04087">
        <ele>1163</ele>
        <time>2021-04-29T12:02:44Z</time>
      </trkpt>
      <trkpt lat="44.89535" lon="4.04081">
        <ele>1163</ele>
        <time>2021-04-29T12:02:45Z</time>
      </trkpt>
      <trkpt lat="44.89531" lon="4.04075">
        <ele>1164</ele>
        <time>2021-04-29T12:02:46Z</time>
      </trkpt>
      <trkpt lat="44.89528" lon="4.04068">
        <ele>1164</ele>
        <time>2021-04-29T12:02:47Z</time>
      </trkpt>
      <trkpt lat="44.89524" lon="4.04061">
        <ele>1164</ele>
        <time>2021-04-29T12:02:48Z</time>
      </trkpt>
      <trkpt lat="44.89521" lon="4.04054">
        <ele>1164</ele>
        <time>2021-04-29T12:02:49Z</time>
      </trkpt>
      <trkpt lat="44.89518" lon="4.04047">
        <ele>1164</ele>
        <time>2021-04-29T12:02:50Z</time>
      </trkpt>
      <trkpt lat="44.89515" lon="4.0404">
        <ele>1165</ele>
        <time>2021-04-29T12:02:51Z</time>
      </trkpt>
      <trkpt lat="44.89509" lon="4.04026">
        <ele>1165</ele>
        <time>2021-04-29T12:02:52Z</time>
      </trkpt>
      <trkpt lat="44.89506" lon="4.04019">
        <ele>1165</ele>
        <time>2021-04-29T12:02:54Z</time>
      </trkpt>
      <trkpt lat="44.89504" lon="4.04013">
        <ele>1165</ele>
        <time>2021-04-29T12:02:55Z</time>
      </trkpt>
      <trkpt lat="44.89501" lon="4.04006">
        <ele>1165</ele>
        <time>2021-04-29T12:02:56Z</time>
      </trkpt>
      <trkpt lat="44.89499" lon="4.04">
        <ele>1165</ele>
        <time>2021-04-29T12:02:57Z</time>
      </trkpt>
      <trkpt lat="44.89499" lon="4.03993">
        <ele>1164</ele>
        <time>2021-04-29T12:02:58Z</time>
      </trkpt>
      <trkpt lat="44.89501" lon="4.03987">
        <ele>1164</ele>
        <time>2021-04-29T12:02:59Z</time>
      </trkpt>
      <trkpt lat="44.89504" lon="4.03981">
        <ele>1164</ele>
        <time>2021-04-29T12:03:00Z</time>
      </trkpt>
      <trkpt lat="44.89508" lon="4.03975">
        <ele>1164</ele>
        <time>2021-04-29T12:03:01Z</time>
      </trkpt>
      <trkpt lat="44.89512" lon="4.03968">
        <ele>1163</ele>
        <time>2021-04-29T12:03:02Z</time>
      </trkpt>
      <trkpt lat="44.89517" lon="4.03961">
        <ele>1163</ele>
        <time>2021-04-29T12:03:03Z</time>
      </trkpt>
      <trkpt lat="44.89521" lon="4.03954">
        <ele>1163</ele>
        <time>2021-04-29T12:03:04Z</time>
      </trkpt>
      <trkpt lat="44.89526" lon="4.03946">
        <ele>1162</ele>
        <time>2021-04-29T12:03:05Z</time>
      </trkpt>
      <trkpt lat="44.89532" lon="4.03939">
        <ele>1161</ele>
        <time>2021-04-29T12:03:06Z</time>
      </trkpt>
      <trkpt lat="44.89537" lon="4.0393">
        <ele>1161</ele>
        <time>2021-04-29T12:03:07Z</time>
      </trkpt>
      <trkpt lat="44.89543" lon="4.03921">
        <ele>1160</ele>
        <time>2021-04-29T12:03:08Z</time>
      </trkpt>
      <trkpt lat="44.89548" lon="4.03912">
        <ele>1159</ele>
        <time>2021-04-29T12:03:09Z</time>
      </trkpt>
      <trkpt lat="44.89554" lon="4.03902">
        <ele>1159</ele>
        <time>2021-04-29T12:03:10Z</time>
      </trkpt>
      <trkpt lat="44.8956" lon="4.03893">
        <ele>1158</ele>
        <time>2021-04-29T12:03:11Z</time>
      </trkpt>
      <trkpt lat="44.89572" lon="4.03873">
        <ele>1157</ele>
        <time>2021-04-29T12:03:12Z</time>
      </trkpt>
      <trkpt lat="44.89578" lon="4.03863">
        <ele>1156</ele>
        <time>2021-04-29T12:03:14Z</time>
      </trkpt>
      <trkpt lat="44.89584" lon="4.03853">
        <ele>1155</ele>
        <time>2021-04-29T12:03:15Z</time>
      </trkpt>
      <trkpt lat="44.8959" lon="4.03842">
        <ele>1153</ele>
        <time>2021-04-29T12:03:16Z</time>
      </trkpt>
      <trkpt lat="44.89597" lon="4.03832">
        <ele>1153</ele>
        <time>2021-04-29T12:03:17Z</time>
      </trkpt>
      <trkpt lat="44.89604" lon="4.03821">
        <ele>1151</ele>
        <time>2021-04-29T12:03:18Z</time>
      </trkpt>
      <trkpt lat="44.89611" lon="4.0381">
        <ele>1150</ele>
        <time>2021-04-29T12:03:19Z</time>
      </trkpt>
      <trkpt lat="44.89618" lon="4.03799">
        <ele>1149</ele>
        <time>2021-04-29T12:03:20Z</time>
      </trkpt>
      <trkpt lat="44.89625" lon="4.03787">
        <ele>1149</ele>
        <time>2021-04-29T12:03:21Z</time>
      </trkpt>
      <trkpt lat="44.89632" lon="4.03775">
        <ele>1147</ele>
        <time>2021-04-29T12:03:22Z</time>
      </trkpt>
      <trkpt lat="44.89638" lon="4.03763">
        <ele>1146</ele>
        <time>2021-04-29T12:03:23Z</time>
      </trkpt>
      <trkpt lat="44.89645" lon="4.03751">
        <ele>1145</ele>
        <time>2021-04-29T12:03:24Z</time>
      </trkpt>
      <trkpt lat="44.89651" lon="4.0374">
        <ele>1144</ele>
        <time>2021-04-29T12:03:25Z</time>
      </trkpt>
      <trkpt lat="44.89658" lon="4.03729">
        <ele>1144</ele>
        <time>2021-04-29T12:03:26Z</time>
      </trkpt>
      <trkpt lat="44.89664" lon="4.03718">
        <ele>1143</ele>
        <time>2021-04-29T12:03:27Z</time>
      </trkpt>
      <trkpt lat="44.8967" lon="4.03708">
        <ele>1142</ele>
        <time>2021-04-29T12:03:28Z</time>
      </trkpt>
      <trkpt lat="44.89676" lon="4.03698">
        <ele>1142</ele>
        <time>2021-04-29T12:03:29Z</time>
      </trkpt>
      <trkpt lat="44.89682" lon="4.03688">
        <ele>1142</ele>
        <time>2021-04-29T12:03:30Z</time>
      </trkpt>
      <trkpt lat="44.89692" lon="4.0367">
        <ele>1141</ele>
        <time>2021-04-29T12:03:31Z</time>
      </trkpt>
      <trkpt lat="44.89697" lon="4.03661">
        <ele>1141</ele>
        <time>2021-04-29T12:03:33Z</time>
      </trkpt>
      <trkpt lat="44.89701" lon="4.03653">
        <ele>1141</ele>
        <time>2021-04-29T12:03:34Z</time>
      </trkpt>
      <trkpt lat="44.89705" lon="4.03645">
        <ele>1141</ele>
        <time>2021-04-29T12:03:35Z</time>
      </trkpt>
      <trkpt lat="44.8971" lon="4.03637">
        <ele>1140</ele>
        <time>2021-04-29T12:03:36Z</time>
      </trkpt>
      <trkpt lat="44.89714" lon="4.03631">
        <ele>1140</ele>
        <time>2021-04-29T12:03:37Z</time>
      </trkpt>
      <trkpt lat="44.89718" lon="4.03624">
        <ele>1140</ele>
        <time>2021-04-29T12:03:38Z</time>
      </trkpt>
      <trkpt lat="44.89722" lon="4.03618">
        <ele>1140</ele>
        <time>2021-04-29T12:03:39Z</time>
      </trkpt>
      <trkpt lat="44.89726" lon="4.03611">
        <ele>1141</ele>
        <time>2021-04-29T12:03:40Z</time>
      </trkpt>
      <trkpt lat="44.8973" lon="4.03605">
        <ele>1141</ele>
        <time>2021-04-29T12:03:41Z</time>
      </trkpt>
      <trkpt lat="44.89733" lon="4.03599">
        <ele>1141</ele>
        <time>2021-04-29T12:03:42Z</time>
      </trkpt>
      <trkpt lat="44.89737" lon="4.03592">
        <ele>1141</ele>
        <time>2021-04-29T12:03:43Z</time>
      </trkpt>
      <trkpt lat="44.89741" lon="4.03586">
        <ele>1141</ele>
        <time>2021-04-29T12:03:44Z</time>
      </trkpt>
      <trkpt lat="44.89745" lon="4.0358">
        <ele>1141</ele>
        <time>2021-04-29T12:03:45Z</time>
      </trkpt>
      <trkpt lat="44.89748" lon="4.03574">
        <ele>1141</ele>
        <time>2021-04-29T12:03:46Z</time>
      </trkpt>
      <trkpt lat="44.89751" lon="4.03567">
        <ele>1141</ele>
        <time>2021-04-29T12:03:47Z</time>
      </trkpt>
      <trkpt lat="44.89755" lon="4.03561">
        <ele>1141</ele>
        <time>2021-04-29T12:03:48Z</time>
      </trkpt>
      <trkpt lat="44.89759" lon="4.03555">
        <ele>1141</ele>
        <time>2021-04-29T12:03:49Z</time>
      </trkpt>
      <trkpt lat="44.89766" lon="4.03542">
        <ele>1141</ele>
        <time>2021-04-29T12:03:50Z</time>
      </trkpt>
      <trkpt lat="44.8977" lon="4.03536">
        <ele>1141</ele>
        <time>2021-04-29T12:03:52Z</time>
      </trkpt>
      <trkpt lat="44.89774" lon="4.0353">
        <ele>1141</ele>
        <time>2021-04-29T12:03:53Z</time>
      </trkpt>
      <trkpt lat="44.89778" lon="4.03524">
        <ele>1141</ele>
        <time>2021-04-29T12:03:54Z</time>
      </trkpt>
      <trkpt lat="44.89781" lon="4.03518">
        <ele>1141</ele>
        <time>2021-04-29T12:03:55Z</time>
      </trkpt>
      <trkpt lat="44.89785" lon="4.03512">
        <ele>1141</ele>
        <time>2021-04-29T12:03:56Z</time>
      </trkpt>
      <trkpt lat="44.89789" lon="4.03506">
        <ele>1141</ele>
        <time>2021-04-29T12:03:57Z</time>
      </trkpt>
      <trkpt lat="44.89792" lon="4.035">
        <ele>1141</ele>
        <time>2021-04-29T12:03:58Z</time>
      </trkpt>
      <trkpt lat="44.89796" lon="4.03493">
        <ele>1141</ele>
        <time>2021-04-29T12:03:59Z</time>
      </trkpt>
      <trkpt lat="44.89799" lon="4.03487">
        <ele>1141</ele>
        <time>2021-04-29T12:04:00Z</time>
      </trkpt>
      <trkpt lat="44.89803" lon="4.0348">
        <ele>1141</ele>
        <time>2021-04-29T12:04:01Z</time>
      </trkpt>
      <trkpt lat="44.89806" lon="4.03474">
        <ele>1141</ele>
        <time>2021-04-29T12:04:02Z</time>
      </trkpt>
      <trkpt lat="44.8981" lon="4.03467">
        <ele>1141</ele>
        <time>2021-04-29T12:04:03Z</time>
      </trkpt>
      <trkpt lat="44.89814" lon="4.03461">
        <ele>1141</ele>
        <time>2021-04-29T12:04:04Z</time>
      </trkpt>
      <trkpt lat="44.89818" lon="4.03454">
        <ele>1141</ele>
        <time>2021-04-29T12:04:05Z</time>
      </trkpt>
      <trkpt lat="44.89822" lon="4.03448">
        <ele>1141</ele>
        <time>2021-04-29T12:04:06Z</time>
      </trkpt>
      <trkpt lat="44.89825" lon="4.03442">
        <ele>1141</ele>
        <time>2021-04-29T12:04:07Z</time>
      </trkpt>
      <trkpt lat="44.89829" lon="4.03436">
        <ele>1141</ele>
        <time>2021-04-29T12:04:08Z</time>
      </trkpt>
      <trkpt lat="44.89837" lon="4.03423">
        <ele>1141</ele>
        <time>2021-04-29T12:04:09Z</time>
      </trkpt>
      <trkpt lat="44.89841" lon="4.03417">
        <ele>1141</ele>
        <time>2021-04-29T12:04:11Z</time>
      </trkpt>
      <trkpt lat="44.89845" lon="4.03411">
        <ele>1141</ele>
        <time>2021-04-29T12:04:12Z</time>
      </trkpt>
      <trkpt lat="44.8985" lon="4.03405">
        <ele>1141</ele>
        <time>2021-04-29T12:04:13Z</time>
      </trkpt>
      <trkpt lat="44.89854" lon="4.03399">
        <ele>1140</ele>
        <time>2021-04-29T12:04:14Z</time>
      </trkpt>
      <trkpt lat="44.89859" lon="4.03392">
        <ele>1140</ele>
        <time>2021-04-29T12:04:15Z</time>
      </trkpt>
      <trkpt lat="44.89863" lon="4.03385">
        <ele>1140</ele>
        <time>2021-04-29T12:04:16Z</time>
      </trkpt>
      <trkpt lat="44.89867" lon="4.03377">
        <ele>1140</ele>
        <time>2021-04-29T12:04:17Z</time>
      </trkpt>
      <trkpt lat="44.89871" lon="4.0337">
        <ele>1140</ele>
        <time>2021-04-29T12:04:18Z</time>
      </trkpt>
      <trkpt lat="44.89875" lon="4.03362">
        <ele>1139</ele>
        <time>2021-04-29T12:04:19Z</time>
      </trkpt>
      <trkpt lat="44.8988" lon="4.03354">
        <ele>1139</ele>
        <time>2021-04-29T12:04:20Z</time>
      </trkpt>
      <trkpt lat="44.89884" lon="4.03347">
        <ele>1139</ele>
        <time>2021-04-29T12:04:21Z</time>
      </trkpt>
      <trkpt lat="44.89888" lon="4.03339">
        <ele>1139</ele>
        <time>2021-04-29T12:04:22Z</time>
      </trkpt>
      <trkpt lat="44.89893" lon="4.03331">
        <ele>1138</ele>
        <time>2021-04-29T12:04:23Z</time>
      </trkpt>
      <trkpt lat="44.89898" lon="4.03323">
        <ele>1138</ele>
        <time>2021-04-29T12:04:24Z</time>
      </trkpt>
      <trkpt lat="44.89903" lon="4.03316">
        <ele>1138</ele>
        <time>2021-04-29T12:04:25Z</time>
      </trkpt>
      <trkpt lat="44.89908" lon="4.03307">
        <ele>1138</ele>
        <time>2021-04-29T12:04:26Z</time>
      </trkpt>
      <trkpt lat="44.89913" lon="4.033">
        <ele>1137</ele>
        <time>2021-04-29T12:04:27Z</time>
      </trkpt>
      <trkpt lat="44.89923" lon="4.03284">
        <ele>1137</ele>
        <time>2021-04-29T12:04:28Z</time>
      </trkpt>
      <trkpt lat="44.89928" lon="4.03277">
        <ele>1136</ele>
        <time>2021-04-29T12:04:30Z</time>
      </trkpt>
      <trkpt lat="44.89933" lon="4.03269">
        <ele>1136</ele>
        <time>2021-04-29T12:04:31Z</time>
      </trkpt>
      <trkpt lat="44.89938" lon="4.03261">
        <ele>1136</ele>
        <time>2021-04-29T12:04:32Z</time>
      </trkpt>
      <trkpt lat="44.89943" lon="4.03253">
        <ele>1135</ele>
        <time>2021-04-29T12:04:33Z</time>
      </trkpt>
      <trkpt lat="44.89947" lon="4.03245">
        <ele>1135</ele>
        <time>2021-04-29T12:04:34Z</time>
      </trkpt>
      <trkpt lat="44.89957" lon="4.03229">
        <ele>1134</ele>
        <time>2021-04-29T12:04:35Z</time>
      </trkpt>
      <trkpt lat="44.89962" lon="4.0322">
        <ele>1133</ele>
        <time>2021-04-29T12:04:37Z</time>
      </trkpt>
      <trkpt lat="44.89968" lon="4.03212">
        <ele>1132</ele>
        <time>2021-04-29T12:04:38Z</time>
      </trkpt>
      <trkpt lat="44.89973" lon="4.03203">
        <ele>1132</ele>
        <time>2021-04-29T12:04:39Z</time>
      </trkpt>
      <trkpt lat="44.89979" lon="4.03194">
        <ele>1131</ele>
        <time>2021-04-29T12:04:40Z</time>
      </trkpt>
      <trkpt lat="44.89984" lon="4.03185">
        <ele>1130</ele>
        <time>2021-04-29T12:04:41Z</time>
      </trkpt>
      <trkpt lat="44.8999" lon="4.03176">
        <ele>1130</ele>
        <time>2021-04-29T12:04:42Z</time>
      </trkpt>
      <trkpt lat="44.89996" lon="4.03167">
        <ele>1129</ele>
        <time>2021-04-29T12:04:43Z</time>
      </trkpt>
      <trkpt lat="44.90001" lon="4.03158">
        <ele>1128</ele>
        <time>2021-04-29T12:04:44Z</time>
      </trkpt>
      <trkpt lat="44.90007" lon="4.03148">
        <ele>1128</ele>
        <time>2021-04-29T12:04:45Z</time>
      </trkpt>
      <trkpt lat="44.90013" lon="4.03139">
        <ele>1127</ele>
        <time>2021-04-29T12:04:46Z</time>
      </trkpt>
      <trkpt lat="44.90025" lon="4.03118">
        <ele>1126</ele>
        <time>2021-04-29T12:04:47Z</time>
      </trkpt>
      <trkpt lat="44.90031" lon="4.03108">
        <ele>1124</ele>
        <time>2021-04-29T12:04:49Z</time>
      </trkpt>
      <trkpt lat="44.90037" lon="4.03097">
        <ele>1123</ele>
        <time>2021-04-29T12:04:50Z</time>
      </trkpt>
      <trkpt lat="44.90043" lon="4.03087">
        <ele>1122</ele>
        <time>2021-04-29T12:04:51Z</time>
      </trkpt>
      <trkpt lat="44.90048" lon="4.03077">
        <ele>1122</ele>
        <time>2021-04-29T12:04:52Z</time>
      </trkpt>
      <trkpt lat="44.90053" lon="4.03069">
        <ele>1121</ele>
        <time>2021-04-29T12:04:53Z</time>
      </trkpt>
      <trkpt lat="44.90058" lon="4.03062">
        <ele>1120</ele>
        <time>2021-04-29T12:04:54Z</time>
      </trkpt>
      <trkpt lat="44.90061" lon="4.03055">
        <ele>1120</ele>
        <time>2021-04-29T12:04:55Z</time>
      </trkpt>
      <trkpt lat="44.90063" lon="4.03049">
        <ele>1119</ele>
        <time>2021-04-29T12:04:56Z</time>
      </trkpt>
      <trkpt lat="44.90065" lon="4.03043">
        <ele>1119</ele>
        <time>2021-04-29T12:04:57Z</time>
      </trkpt>
      <trkpt lat="44.90068" lon="4.03038">
        <ele>1119</ele>
        <time>2021-04-29T12:04:58Z</time>
      </trkpt>
      <trkpt lat="44.90071" lon="4.03033">
        <ele>1118</ele>
        <time>2021-04-29T12:04:59Z</time>
      </trkpt>
      <trkpt lat="44.90075" lon="4.03027">
        <ele>1118</ele>
        <time>2021-04-29T12:05:00Z</time>
      </trkpt>
      <trkpt lat="44.90079" lon="4.03022">
        <ele>1117</ele>
        <time>2021-04-29T12:05:01Z</time>
      </trkpt>
      <trkpt lat="44.90083" lon="4.03018">
        <ele>1117</ele>
        <time>2021-04-29T12:05:02Z</time>
      </trkpt>
      <trkpt lat="44.90086" lon="4.03016">
        <ele>1116</ele>
        <time>2021-04-29T12:05:03Z</time>
      </trkpt>
      <trkpt lat="44.90088" lon="4.03014">
        <ele>1116</ele>
        <time>2021-04-29T12:05:04Z</time>
      </trkpt>
      <trkpt lat="44.9009" lon="4.03012">
        <ele>1115</ele>
        <time>2021-04-29T12:05:05Z</time>
      </trkpt>
      <trkpt lat="44.90093" lon="4.03008">
        <ele>1114</ele>
        <time>2021-04-29T12:05:06Z</time>
      </trkpt>
      <trkpt lat="44.90094" lon="4.03005">
        <ele>1113</ele>
        <time>2021-04-29T12:05:08Z</time>
      </trkpt>
      <trkpt lat="44.90094" lon="4.03002">
        <ele>1113</ele>
        <time>2021-04-29T12:05:09Z</time>
      </trkpt>
      <trkpt lat="44.90095" lon="4.02998">
        <ele>1112</ele>
        <time>2021-04-29T12:05:10Z</time>
      </trkpt>
      <trkpt lat="44.90096" lon="4.02994">
        <ele>1112</ele>
        <time>2021-04-29T12:05:11Z</time>
      </trkpt>
      <trkpt lat="44.90098" lon="4.02989">
        <ele>1112</ele>
        <time>2021-04-29T12:05:12Z</time>
      </trkpt>
      <trkpt lat="44.90101" lon="4.02983">
        <ele>1111</ele>
        <time>2021-04-29T12:05:13Z</time>
      </trkpt>
      <trkpt lat="44.90105" lon="4.02977">
        <ele>1111</ele>
        <time>2021-04-29T12:05:14Z</time>
      </trkpt>
      <trkpt lat="44.9011" lon="4.02969">
        <ele>1110</ele>
        <time>2021-04-29T12:05:15Z</time>
      </trkpt>
      <trkpt lat="44.90114" lon="4.02961">
        <ele>1110</ele>
        <time>2021-04-29T12:05:16Z</time>
      </trkpt>
      <trkpt lat="44.90119" lon="4.02953">
        <ele>1110</ele>
        <time>2021-04-29T12:05:17Z</time>
      </trkpt>
      <trkpt lat="44.90124" lon="4.02945">
        <ele>1109</ele>
        <time>2021-04-29T12:05:18Z</time>
      </trkpt>
      <trkpt lat="44.90129" lon="4.02937">
        <ele>1109</ele>
        <time>2021-04-29T12:05:19Z</time>
      </trkpt>
      <trkpt lat="44.90134" lon="4.02928">
        <ele>1108</ele>
        <time>2021-04-29T12:05:20Z</time>
      </trkpt>
      <trkpt lat="44.9014" lon="4.02919">
        <ele>1108</ele>
        <time>2021-04-29T12:05:21Z</time>
      </trkpt>
      <trkpt lat="44.90146" lon="4.02911">
        <ele>1108</ele>
        <time>2021-04-29T12:05:22Z</time>
      </trkpt>
      <trkpt lat="44.90152" lon="4.02903">
        <ele>1107</ele>
        <time>2021-04-29T12:05:23Z</time>
      </trkpt>
      <trkpt lat="44.90157" lon="4.02895">
        <ele>1107</ele>
        <time>2021-04-29T12:05:24Z</time>
      </trkpt>
      <trkpt lat="44.90162" lon="4.02886">
        <ele>1107</ele>
        <time>2021-04-29T12:05:25Z</time>
      </trkpt>
      <trkpt lat="44.90167" lon="4.02879">
        <ele>1106</ele>
        <time>2021-04-29T12:05:26Z</time>
      </trkpt>
      <trkpt lat="44.90171" lon="4.02871">
        <ele>1106</ele>
        <time>2021-04-29T12:05:27Z</time>
      </trkpt>
      <trkpt lat="44.90176" lon="4.02865">
        <ele>1106</ele>
        <time>2021-04-29T12:05:28Z</time>
      </trkpt>
      <trkpt lat="44.9018" lon="4.02858">
        <ele>1106</ele>
        <time>2021-04-29T12:05:29Z</time>
      </trkpt>
      <trkpt lat="44.90184" lon="4.02851">
        <ele>1105</ele>
        <time>2021-04-29T12:05:30Z</time>
      </trkpt>
      <trkpt lat="44.90188" lon="4.02844">
        <ele>1105</ele>
        <time>2021-04-29T12:05:31Z</time>
      </trkpt>
      <trkpt lat="44.90192" lon="4.02838">
        <ele>1104</ele>
        <time>2021-04-29T12:05:32Z</time>
      </trkpt>
      <trkpt lat="44.90196" lon="4.02831">
        <ele>1104</ele>
        <time>2021-04-29T12:05:33Z</time>
      </trkpt>
      <trkpt lat="44.902" lon="4.02824">
        <ele>1104</ele>
        <time>2021-04-29T12:05:34Z</time>
      </trkpt>
      <trkpt lat="44.90205" lon="4.02817">
        <ele>1104</ele>
        <time>2021-04-29T12:05:35Z</time>
      </trkpt>
      <trkpt lat="44.90208" lon="4.0281">
        <ele>1104</ele>
        <time>2021-04-29T12:05:36Z</time>
      </trkpt>
      <trkpt lat="44.90212" lon="4.02803">
        <ele>1104</ele>
        <time>2021-04-29T12:05:37Z</time>
      </trkpt>
      <trkpt lat="44.90216" lon="4.02796">
        <ele>1104</ele>
        <time>2021-04-29T12:05:38Z</time>
      </trkpt>
      <trkpt lat="44.9022" lon="4.02789">
        <ele>1104</ele>
        <time>2021-04-29T12:05:39Z</time>
      </trkpt>
      <trkpt lat="44.90224" lon="4.02783">
        <ele>1104</ele>
        <time>2021-04-29T12:05:40Z</time>
      </trkpt>
      <trkpt lat="44.90228" lon="4.02776">
        <ele>1104</ele>
        <time>2021-04-29T12:05:41Z</time>
      </trkpt>
      <trkpt lat="44.90232" lon="4.02769">
        <ele>1104</ele>
        <time>2021-04-29T12:05:42Z</time>
      </trkpt>
      <trkpt lat="44.90236" lon="4.02762">
        <ele>1103</ele>
        <time>2021-04-29T12:05:43Z</time>
      </trkpt>
      <trkpt lat="44.90244" lon="4.02748">
        <ele>1103</ele>
        <time>2021-04-29T12:05:44Z</time>
      </trkpt>
      <trkpt lat="44.90249" lon="4.02742">
        <ele>1103</ele>
        <time>2021-04-29T12:05:46Z</time>
      </trkpt>
      <trkpt lat="44.90253" lon="4.02735">
        <ele>1102</ele>
        <time>2021-04-29T12:05:47Z</time>
      </trkpt>
      <trkpt lat="44.90257" lon="4.02728">
        <ele>1102</ele>
        <time>2021-04-29T12:05:48Z</time>
      </trkpt>
      <trkpt lat="44.90261" lon="4.02722">
        <ele>1102</ele>
        <time>2021-04-29T12:05:49Z</time>
      </trkpt>
      <trkpt lat="44.90265" lon="4.02716">
        <ele>1102</ele>
        <time>2021-04-29T12:05:50Z</time>
      </trkpt>
      <trkpt lat="44.90268" lon="4.0271">
        <ele>1102</ele>
        <time>2021-04-29T12:05:51Z</time>
      </trkpt>
      <trkpt lat="44.90271" lon="4.02704">
        <ele>1102</ele>
        <time>2021-04-29T12:05:52Z</time>
      </trkpt>
      <trkpt lat="44.90275" lon="4.02699">
        <ele>1101</ele>
        <time>2021-04-29T12:05:53Z</time>
      </trkpt>
      <trkpt lat="44.90278" lon="4.02695">
        <ele>1101</ele>
        <time>2021-04-29T12:05:54Z</time>
      </trkpt>
      <trkpt lat="44.90282" lon="4.02693">
        <ele>1101</ele>
        <time>2021-04-29T12:05:55Z</time>
      </trkpt>
      <trkpt lat="44.90284" lon="4.02692">
        <ele>1101</ele>
        <time>2021-04-29T12:05:56Z</time>
      </trkpt>
      <trkpt lat="44.90286" lon="4.0269">
        <ele>1101</ele>
        <time>2021-04-29T12:05:57Z</time>
      </trkpt>
      <trkpt lat="44.90288" lon="4.02689">
        <ele>1102</ele>
        <time>2021-04-29T12:06:02Z</time>
      </trkpt>
      <trkpt lat="44.90284" lon="4.02692">
        <ele>1103</ele>
        <time>2021-04-29T12:06:41Z</time>
      </trkpt>
      <trkpt lat="44.90287" lon="4.02693">
        <ele>1103</ele>
        <time>2021-04-29T12:06:44Z</time>
      </trkpt>
      <trkpt lat="44.90289" lon="4.02694">
        <ele>1103</ele>
        <time>2021-04-29T12:06:46Z</time>
      </trkpt>
      <trkpt lat="44.90291" lon="4.02685">
        <ele>1103</ele>
        <time>2021-04-29T12:07:07Z</time>
      </trkpt>
      <trkpt lat="44.90288" lon="4.02682">
        <ele>1102</ele>
        <time>2021-04-29T12:07:17Z</time>
      </trkpt>
      <trkpt lat="44.90286" lon="4.02686">
        <ele>1102</ele>
        <time>2021-04-29T12:08:07Z</time>
      </trkpt>
      <trkpt lat="44.90285" lon="4.02682">
        <ele>1100</ele>
        <time>2021-04-29T12:12:19Z</time>
      </trkpt>
      <trkpt lat="44.90287" lon="4.0268">
        <ele>1100</ele>
        <time>2021-04-29T12:12:22Z</time>
      </trkpt>
      <trkpt lat="44.9029" lon="4.02684">
        <ele>1101</ele>
        <time>2021-04-29T12:12:25Z</time>
      </trkpt>
      <trkpt lat="44.90292" lon="4.02685">
        <ele>1102</ele>
        <time>2021-04-29T12:12:27Z</time>
      </trkpt>
      <trkpt lat="44.90293" lon="4.02684">
        <ele>1102</ele>
        <time>2021-04-29T12:12:30Z</time>
      </trkpt>
      <trkpt lat="44.90293" lon="4.02679">
        <ele>1102</ele>
        <time>2021-04-29T12:12:32Z</time>
      </trkpt>
      <trkpt lat="44.90293" lon="4.02676">
        <ele>1102</ele>
        <time>2021-04-29T12:12:33Z</time>
      </trkpt>
      <trkpt lat="44.90293" lon="4.02672">
        <ele>1103</ele>
        <time>2021-04-29T12:12:34Z</time>
      </trkpt>
      <trkpt lat="44.90295" lon="4.02668">
        <ele>1103</ele>
        <time>2021-04-29T12:12:35Z</time>
      </trkpt>
      <trkpt lat="44.90298" lon="4.02664">
        <ele>1103</ele>
        <time>2021-04-29T12:12:36Z</time>
      </trkpt>
      <trkpt lat="44.903" lon="4.02661">
        <ele>1104</ele>
        <time>2021-04-29T12:12:37Z</time>
      </trkpt>
      <trkpt lat="44.90303" lon="4.02656">
        <ele>1104</ele>
        <time>2021-04-29T12:12:38Z</time>
      </trkpt>
      <trkpt lat="44.90307" lon="4.02648">
        <ele>1105</ele>
        <time>2021-04-29T12:12:39Z</time>
      </trkpt>
      <trkpt lat="44.9031" lon="4.02644">
        <ele>1105</ele>
        <time>2021-04-29T12:12:41Z</time>
      </trkpt>
      <trkpt lat="44.90312" lon="4.0264">
        <ele>1105</ele>
        <time>2021-04-29T12:12:42Z</time>
      </trkpt>
      <trkpt lat="44.90314" lon="4.02636">
        <ele>1105</ele>
        <time>2021-04-29T12:12:43Z</time>
      </trkpt>
      <trkpt lat="44.90316" lon="4.02631">
        <ele>1106</ele>
        <time>2021-04-29T12:12:44Z</time>
      </trkpt>
      <trkpt lat="44.90318" lon="4.02627">
        <ele>1106</ele>
        <time>2021-04-29T12:12:45Z</time>
      </trkpt>
      <trkpt lat="44.9032" lon="4.02622">
        <ele>1106</ele>
        <time>2021-04-29T12:12:46Z</time>
      </trkpt>
      <trkpt lat="44.9032" lon="4.02616">
        <ele>1106</ele>
        <time>2021-04-29T12:12:47Z</time>
      </trkpt>
      <trkpt lat="44.90321" lon="4.02611">
        <ele>1106</ele>
        <time>2021-04-29T12:12:48Z</time>
      </trkpt>
      <trkpt lat="44.9032" lon="4.02605">
        <ele>1107</ele>
        <time>2021-04-29T12:12:49Z</time>
      </trkpt>
      <trkpt lat="44.90319" lon="4.02599">
        <ele>1107</ele>
        <time>2021-04-29T12:12:50Z</time>
      </trkpt>
      <trkpt lat="44.90317" lon="4.02594">
        <ele>1107</ele>
        <time>2021-04-29T12:12:51Z</time>
      </trkpt>
      <trkpt lat="44.90315" lon="4.02588">
        <ele>1107</ele>
        <time>2021-04-29T12:12:52Z</time>
      </trkpt>
      <trkpt lat="44.90314" lon="4.02583">
        <ele>1107</ele>
        <time>2021-04-29T12:12:53Z</time>
      </trkpt>
      <trkpt lat="44.90312" lon="4.02577">
        <ele>1107</ele>
        <time>2021-04-29T12:12:54Z</time>
      </trkpt>
      <trkpt lat="44.9031" lon="4.02572">
        <ele>1107</ele>
        <time>2021-04-29T12:12:55Z</time>
      </trkpt>
      <trkpt lat="44.90307" lon="4.02566">
        <ele>1107</ele>
        <time>2021-04-29T12:12:56Z</time>
      </trkpt>
      <trkpt lat="44.90306" lon="4.02561">
        <ele>1108</ele>
        <time>2021-04-29T12:12:57Z</time>
      </trkpt>
      <trkpt lat="44.90302" lon="4.02549">
        <ele>1108</ele>
        <time>2021-04-29T12:12:58Z</time>
      </trkpt>
      <trkpt lat="44.90301" lon="4.02543">
        <ele>1108</ele>
        <time>2021-04-29T12:12:59Z</time>
      </trkpt>
      <trkpt lat="44.903" lon="4.02537">
        <ele>1108</ele>
        <time>2021-04-29T12:13:01Z</time>
      </trkpt>
      <trkpt lat="44.90299" lon="4.02532">
        <ele>1108</ele>
        <time>2021-04-29T12:13:02Z</time>
      </trkpt>
      <trkpt lat="44.90298" lon="4.02525">
        <ele>1108</ele>
        <time>2021-04-29T12:13:03Z</time>
      </trkpt>
      <trkpt lat="44.90298" lon="4.02519">
        <ele>1108</ele>
        <time>2021-04-29T12:13:04Z</time>
      </trkpt>
      <trkpt lat="44.90298" lon="4.02513">
        <ele>1108</ele>
        <time>2021-04-29T12:13:05Z</time>
      </trkpt>
      <trkpt lat="44.90298" lon="4.02507">
        <ele>1109</ele>
        <time>2021-04-29T12:13:06Z</time>
      </trkpt>
      <trkpt lat="44.90298" lon="4.02501">
        <ele>1109</ele>
        <time>2021-04-29T12:13:07Z</time>
      </trkpt>
      <trkpt lat="44.90298" lon="4.02495">
        <ele>1109</ele>
        <time>2021-04-29T12:13:08Z</time>
      </trkpt>
      <trkpt lat="44.90298" lon="4.02489">
        <ele>1109</ele>
        <time>2021-04-29T12:13:09Z</time>
      </trkpt>
      <trkpt lat="44.90298" lon="4.02483">
        <ele>1110</ele>
        <time>2021-04-29T12:13:10Z</time>
      </trkpt>
      <trkpt lat="44.90297" lon="4.02477">
        <ele>1110</ele>
        <time>2021-04-29T12:13:11Z</time>
      </trkpt>
      <trkpt lat="44.90296" lon="4.02472">
        <ele>1110</ele>
        <time>2021-04-29T12:13:12Z</time>
      </trkpt>
      <trkpt lat="44.90296" lon="4.02466">
        <ele>1110</ele>
        <time>2021-04-29T12:13:13Z</time>
      </trkpt>
      <trkpt lat="44.90295" lon="4.0246">
        <ele>1111</ele>
        <time>2021-04-29T12:13:14Z</time>
      </trkpt>
      <trkpt lat="44.90293" lon="4.02455">
        <ele>1111</ele>
        <time>2021-04-29T12:13:15Z</time>
      </trkpt>
      <trkpt lat="44.90292" lon="4.02449">
        <ele>1111</ele>
        <time>2021-04-29T12:13:16Z</time>
      </trkpt>
      <trkpt lat="44.90288" lon="4.02439">
        <ele>1112</ele>
        <time>2021-04-29T12:13:17Z</time>
      </trkpt>
      <trkpt lat="44.90286" lon="4.02434">
        <ele>1112</ele>
        <time>2021-04-29T12:13:19Z</time>
      </trkpt>
      <trkpt lat="44.90284" lon="4.02429">
        <ele>1113</ele>
        <time>2021-04-29T12:13:20Z</time>
      </trkpt>
      <trkpt lat="44.90283" lon="4.02424">
        <ele>1113</ele>
        <time>2021-04-29T12:13:21Z</time>
      </trkpt>
      <trkpt lat="44.90281" lon="4.02419">
        <ele>1113</ele>
        <time>2021-04-29T12:13:22Z</time>
      </trkpt>
      <trkpt lat="44.90279" lon="4.02414">
        <ele>1114</ele>
        <time>2021-04-29T12:13:23Z</time>
      </trkpt>
      <trkpt lat="44.90277" lon="4.0241">
        <ele>1114</ele>
        <time>2021-04-29T12:13:24Z</time>
      </trkpt>
      <trkpt lat="44.90276" lon="4.02405">
        <ele>1114</ele>
        <time>2021-04-29T12:13:25Z</time>
      </trkpt>
      <trkpt lat="44.90274" lon="4.024">
        <ele>1115</ele>
        <time>2021-04-29T12:13:26Z</time>
      </trkpt>
      <trkpt lat="44.90273" lon="4.02395">
        <ele>1115</ele>
        <time>2021-04-29T12:13:27Z</time>
      </trkpt>
      <trkpt lat="44.90272" lon="4.02389">
        <ele>1115</ele>
        <time>2021-04-29T12:13:28Z</time>
      </trkpt>
      <trkpt lat="44.90271" lon="4.02384">
        <ele>1116</ele>
        <time>2021-04-29T12:13:29Z</time>
      </trkpt>
      <trkpt lat="44.9027" lon="4.02379">
        <ele>1116</ele>
        <time>2021-04-29T12:13:30Z</time>
      </trkpt>
      <trkpt lat="44.90269" lon="4.02374">
        <ele>1116</ele>
        <time>2021-04-29T12:13:31Z</time>
      </trkpt>
      <trkpt lat="44.90268" lon="4.02369">
        <ele>1117</ele>
        <time>2021-04-29T12:13:32Z</time>
      </trkpt>
      <trkpt lat="44.90268" lon="4.02364">
        <ele>1117</ele>
        <time>2021-04-29T12:13:33Z</time>
      </trkpt>
      <trkpt lat="44.90267" lon="4.02359">
        <ele>1117</ele>
        <time>2021-04-29T12:13:34Z</time>
      </trkpt>
      <trkpt lat="44.90266" lon="4.02354">
        <ele>1118</ele>
        <time>2021-04-29T12:13:35Z</time>
      </trkpt>
      <trkpt lat="44.90265" lon="4.02344">
        <ele>1118</ele>
        <time>2021-04-29T12:13:36Z</time>
      </trkpt>
      <trkpt lat="44.90264" lon="4.0234">
        <ele>1119</ele>
        <time>2021-04-29T12:13:38Z</time>
      </trkpt>
      <trkpt lat="44.90263" lon="4.02335">
        <ele>1119</ele>
        <time>2021-04-29T12:13:39Z</time>
      </trkpt>
      <trkpt lat="44.90263" lon="4.0233">
        <ele>1119</ele>
        <time>2021-04-29T12:13:40Z</time>
      </trkpt>
      <trkpt lat="44.90262" lon="4.02325">
        <ele>1120</ele>
        <time>2021-04-29T12:13:41Z</time>
      </trkpt>
      <trkpt lat="44.90262" lon="4.0232">
        <ele>1120</ele>
        <time>2021-04-29T12:13:42Z</time>
      </trkpt>
      <trkpt lat="44.90261" lon="4.02315">
        <ele>1120</ele>
        <time>2021-04-29T12:13:43Z</time>
      </trkpt>
      <trkpt lat="44.90261" lon="4.0231">
        <ele>1121</ele>
        <time>2021-04-29T12:13:44Z</time>
      </trkpt>
      <trkpt lat="44.90261" lon="4.02305">
        <ele>1121</ele>
        <time>2021-04-29T12:13:45Z</time>
      </trkpt>
      <trkpt lat="44.90261" lon="4.023">
        <ele>1121</ele>
        <time>2021-04-29T12:13:46Z</time>
      </trkpt>
      <trkpt lat="44.90261" lon="4.02295">
        <ele>1122</ele>
        <time>2021-04-29T12:13:47Z</time>
      </trkpt>
      <trkpt lat="44.9026" lon="4.02289">
        <ele>1122</ele>
        <time>2021-04-29T12:13:48Z</time>
      </trkpt>
      <trkpt lat="44.9026" lon="4.02284">
        <ele>1122</ele>
        <time>2021-04-29T12:13:49Z</time>
      </trkpt>
      <trkpt lat="44.9026" lon="4.02279">
        <ele>1123</ele>
        <time>2021-04-29T12:13:50Z</time>
      </trkpt>
      <trkpt lat="44.9026" lon="4.02274">
        <ele>1123</ele>
        <time>2021-04-29T12:13:51Z</time>
      </trkpt>
      <trkpt lat="44.9026" lon="4.02269">
        <ele>1123</ele>
        <time>2021-04-29T12:13:52Z</time>
      </trkpt>
      <trkpt lat="44.9026" lon="4.02264">
        <ele>1123</ele>
        <time>2021-04-29T12:13:53Z</time>
      </trkpt>
      <trkpt lat="44.9026" lon="4.02259">
        <ele>1123</ele>
        <time>2021-04-29T12:13:54Z</time>
      </trkpt>
      <trkpt lat="44.9026" lon="4.02248">
        <ele>1123</ele>
        <time>2021-04-29T12:13:55Z</time>
      </trkpt>
      <trkpt lat="44.90261" lon="4.02243">
        <ele>1124</ele>
        <time>2021-04-29T12:13:57Z</time>
      </trkpt>
      <trkpt lat="44.90261" lon="4.02238">
        <ele>1124</ele>
        <time>2021-04-29T12:13:58Z</time>
      </trkpt>
      <trkpt lat="44.90262" lon="4.02232">
        <ele>1124</ele>
        <time>2021-04-29T12:13:59Z</time>
      </trkpt>
      <trkpt lat="44.90262" lon="4.02227">
        <ele>1125</ele>
        <time>2021-04-29T12:14:00Z</time>
      </trkpt>
      <trkpt lat="44.90263" lon="4.02222">
        <ele>1125</ele>
        <time>2021-04-29T12:14:01Z</time>
      </trkpt>
      <trkpt lat="44.90264" lon="4.02217">
        <ele>1125</ele>
        <time>2021-04-29T12:14:02Z</time>
      </trkpt>
      <trkpt lat="44.90266" lon="4.02212">
        <ele>1126</ele>
        <time>2021-04-29T12:14:03Z</time>
      </trkpt>
      <trkpt lat="44.90267" lon="4.02207">
        <ele>1126</ele>
        <time>2021-04-29T12:14:04Z</time>
      </trkpt>
      <trkpt lat="44.90268" lon="4.02202">
        <ele>1126</ele>
        <time>2021-04-29T12:14:05Z</time>
      </trkpt>
      <trkpt lat="44.90269" lon="4.02197">
        <ele>1126</ele>
        <time>2021-04-29T12:14:06Z</time>
      </trkpt>
      <trkpt lat="44.90271" lon="4.02192">
        <ele>1126</ele>
        <time>2021-04-29T12:14:07Z</time>
      </trkpt>
      <trkpt lat="44.90272" lon="4.02186">
        <ele>1127</ele>
        <time>2021-04-29T12:14:08Z</time>
      </trkpt>
      <trkpt lat="44.90273" lon="4.02181">
        <ele>1127</ele>
        <time>2021-04-29T12:14:09Z</time>
      </trkpt>
      <trkpt lat="44.90274" lon="4.02176">
        <ele>1127</ele>
        <time>2021-04-29T12:14:10Z</time>
      </trkpt>
      <trkpt lat="44.90276" lon="4.02171">
        <ele>1128</ele>
        <time>2021-04-29T12:14:11Z</time>
      </trkpt>
      <trkpt lat="44.90277" lon="4.02165">
        <ele>1128</ele>
        <time>2021-04-29T12:14:12Z</time>
      </trkpt>
      <trkpt lat="44.90279" lon="4.02159">
        <ele>1128</ele>
        <time>2021-04-29T12:14:13Z</time>
      </trkpt>
      <trkpt lat="44.90282" lon="4.02147">
        <ele>1129</ele>
        <time>2021-04-29T12:14:14Z</time>
      </trkpt>
      <trkpt lat="44.90283" lon="4.02142">
        <ele>1129</ele>
        <time>2021-04-29T12:14:16Z</time>
      </trkpt>
      <trkpt lat="44.90285" lon="4.02136">
        <ele>1129</ele>
        <time>2021-04-29T12:14:17Z</time>
      </trkpt>
      <trkpt lat="44.9029" lon="4.02123">
        <ele>1129</ele>
        <time>2021-04-29T12:14:18Z</time>
      </trkpt>
      <trkpt lat="44.90291" lon="4.02116">
        <ele>1129</ele>
        <time>2021-04-29T12:14:20Z</time>
      </trkpt>
      <trkpt lat="44.90292" lon="4.02109">
        <ele>1130</ele>
        <time>2021-04-29T12:14:21Z</time>
      </trkpt>
      <trkpt lat="44.90293" lon="4.02103">
        <ele>1130</ele>
        <time>2021-04-29T12:14:22Z</time>
      </trkpt>
      <trkpt lat="44.90295" lon="4.02096">
        <ele>1130</ele>
        <time>2021-04-29T12:14:23Z</time>
      </trkpt>
      <trkpt lat="44.90296" lon="4.02089">
        <ele>1130</ele>
        <time>2021-04-29T12:14:24Z</time>
      </trkpt>
      <trkpt lat="44.90297" lon="4.02082">
        <ele>1130</ele>
        <time>2021-04-29T12:14:25Z</time>
      </trkpt>
      <trkpt lat="44.90299" lon="4.02075">
        <ele>1130</ele>
        <time>2021-04-29T12:14:26Z</time>
      </trkpt>
      <trkpt lat="44.90301" lon="4.02069">
        <ele>1130</ele>
        <time>2021-04-29T12:14:27Z</time>
      </trkpt>
      <trkpt lat="44.90302" lon="4.02062">
        <ele>1130</ele>
        <time>2021-04-29T12:14:28Z</time>
      </trkpt>
      <trkpt lat="44.90305" lon="4.02055">
        <ele>1131</ele>
        <time>2021-04-29T12:14:29Z</time>
      </trkpt>
      <trkpt lat="44.90306" lon="4.02049">
        <ele>1131</ele>
        <time>2021-04-29T12:14:30Z</time>
      </trkpt>
      <trkpt lat="44.90308" lon="4.02042">
        <ele>1131</ele>
        <time>2021-04-29T12:14:31Z</time>
      </trkpt>
      <trkpt lat="44.90309" lon="4.02035">
        <ele>1132</ele>
        <time>2021-04-29T12:14:32Z</time>
      </trkpt>
      <trkpt lat="44.90313" lon="4.02022">
        <ele>1132</ele>
        <time>2021-04-29T12:14:33Z</time>
      </trkpt>
      <trkpt lat="44.90314" lon="4.02016">
        <ele>1132</ele>
        <time>2021-04-29T12:14:35Z</time>
      </trkpt>
      <trkpt lat="44.90318" lon="4.02003">
        <ele>1132</ele>
        <time>2021-04-29T12:14:37Z</time>
      </trkpt>
      <trkpt lat="44.90322" lon="4.01988">
        <ele>1132</ele>
        <time>2021-04-29T12:14:39Z</time>
      </trkpt>
      <trkpt lat="44.90326" lon="4.01975">
        <ele>1132</ele>
        <time>2021-04-29T12:14:41Z</time>
      </trkpt>
      <trkpt lat="44.90329" lon="4.01961">
        <ele>1133</ele>
        <time>2021-04-29T12:14:43Z</time>
      </trkpt>
      <trkpt lat="44.90331" lon="4.01955">
        <ele>1133</ele>
        <time>2021-04-29T12:14:44Z</time>
      </trkpt>
      <trkpt lat="44.90334" lon="4.01948">
        <ele>1133</ele>
        <time>2021-04-29T12:14:45Z</time>
      </trkpt>
      <trkpt lat="44.90336" lon="4.01942">
        <ele>1133</ele>
        <time>2021-04-29T12:14:46Z</time>
      </trkpt>
      <trkpt lat="44.90339" lon="4.01935">
        <ele>1133</ele>
        <time>2021-04-29T12:14:47Z</time>
      </trkpt>
      <trkpt lat="44.90341" lon="4.0193">
        <ele>1133</ele>
        <time>2021-04-29T12:14:48Z</time>
      </trkpt>
      <trkpt lat="44.90343" lon="4.01923">
        <ele>1133</ele>
        <time>2021-04-29T12:14:49Z</time>
      </trkpt>
      <trkpt lat="44.90346" lon="4.01918">
        <ele>1134</ele>
        <time>2021-04-29T12:14:50Z</time>
      </trkpt>
      <trkpt lat="44.90349" lon="4.01911">
        <ele>1134</ele>
        <time>2021-04-29T12:14:51Z</time>
      </trkpt>
      <trkpt lat="44.90351" lon="4.01905">
        <ele>1134</ele>
        <time>2021-04-29T12:14:52Z</time>
      </trkpt>
      <trkpt lat="44.90354" lon="4.01899">
        <ele>1134</ele>
        <time>2021-04-29T12:14:53Z</time>
      </trkpt>
      <trkpt lat="44.90355" lon="4.01893">
        <ele>1134</ele>
        <time>2021-04-29T12:14:54Z</time>
      </trkpt>
      <trkpt lat="44.90357" lon="4.01886">
        <ele>1135</ele>
        <time>2021-04-29T12:14:55Z</time>
      </trkpt>
      <trkpt lat="44.90358" lon="4.0188">
        <ele>1135</ele>
        <time>2021-04-29T12:14:56Z</time>
      </trkpt>
      <trkpt lat="44.9036" lon="4.01873">
        <ele>1135</ele>
        <time>2021-04-29T12:14:57Z</time>
      </trkpt>
      <trkpt lat="44.90362" lon="4.01867">
        <ele>1136</ele>
        <time>2021-04-29T12:14:58Z</time>
      </trkpt>
      <trkpt lat="44.90364" lon="4.01861">
        <ele>1136</ele>
        <time>2021-04-29T12:14:59Z</time>
      </trkpt>
      <trkpt lat="44.90366" lon="4.01855">
        <ele>1136</ele>
        <time>2021-04-29T12:15:00Z</time>
      </trkpt>
      <trkpt lat="44.90367" lon="4.01849">
        <ele>1137</ele>
        <time>2021-04-29T12:15:01Z</time>
      </trkpt>
      <trkpt lat="44.90369" lon="4.01843">
        <ele>1137</ele>
        <time>2021-04-29T12:15:02Z</time>
      </trkpt>
      <trkpt lat="44.9037" lon="4.01837">
        <ele>1137</ele>
        <time>2021-04-29T12:15:03Z</time>
      </trkpt>
      <trkpt lat="44.90372" lon="4.01831">
        <ele>1138</ele>
        <time>2021-04-29T12:15:04Z</time>
      </trkpt>
      <trkpt lat="44.90373" lon="4.01824">
        <ele>1138</ele>
        <time>2021-04-29T12:15:05Z</time>
      </trkpt>
      <trkpt lat="44.90374" lon="4.01817">
        <ele>1139</ele>
        <time>2021-04-29T12:15:06Z</time>
      </trkpt>
      <trkpt lat="44.90375" lon="4.01811">
        <ele>1139</ele>
        <time>2021-04-29T12:15:07Z</time>
      </trkpt>
      <trkpt lat="44.90375" lon="4.01804">
        <ele>1139</ele>
        <time>2021-04-29T12:15:08Z</time>
      </trkpt>
      <trkpt lat="44.90375" lon="4.01797">
        <ele>1140</ele>
        <time>2021-04-29T12:15:09Z</time>
      </trkpt>
      <trkpt lat="44.90376" lon="4.01791">
        <ele>1140</ele>
        <time>2021-04-29T12:15:10Z</time>
      </trkpt>
      <trkpt lat="44.90375" lon="4.01777">
        <ele>1140</ele>
        <time>2021-04-29T12:15:11Z</time>
      </trkpt>
      <trkpt lat="44.90375" lon="4.0177">
        <ele>1141</ele>
        <time>2021-04-29T12:15:13Z</time>
      </trkpt>
      <trkpt lat="44.90375" lon="4.01763">
        <ele>1141</ele>
        <time>2021-04-29T12:15:14Z</time>
      </trkpt>
      <trkpt lat="44.90375" lon="4.01755">
        <ele>1141</ele>
        <time>2021-04-29T12:15:15Z</time>
      </trkpt>
      <trkpt lat="44.90376" lon="4.01747">
        <ele>1142</ele>
        <time>2021-04-29T12:15:16Z</time>
      </trkpt>
      <trkpt lat="44.90377" lon="4.0174">
        <ele>1142</ele>
        <time>2021-04-29T12:15:17Z</time>
      </trkpt>
      <trkpt lat="44.90378" lon="4.01732">
        <ele>1142</ele>
        <time>2021-04-29T12:15:18Z</time>
      </trkpt>
      <trkpt lat="44.90379" lon="4.01725">
        <ele>1142</ele>
        <time>2021-04-29T12:15:19Z</time>
      </trkpt>
      <trkpt lat="44.9038" lon="4.01717">
        <ele>1142</ele>
        <time>2021-04-29T12:15:20Z</time>
      </trkpt>
      <trkpt lat="44.90381" lon="4.01709">
        <ele>1143</ele>
        <time>2021-04-29T12:15:21Z</time>
      </trkpt>
      <trkpt lat="44.90383" lon="4.01701">
        <ele>1143</ele>
        <time>2021-04-29T12:15:22Z</time>
      </trkpt>
      <trkpt lat="44.90385" lon="4.01693">
        <ele>1143</ele>
        <time>2021-04-29T12:15:23Z</time>
      </trkpt>
      <trkpt lat="44.90388" lon="4.01685">
        <ele>1143</ele>
        <time>2021-04-29T12:15:24Z</time>
      </trkpt>
      <trkpt lat="44.90391" lon="4.01678">
        <ele>1143</ele>
        <time>2021-04-29T12:15:25Z</time>
      </trkpt>
      <trkpt lat="44.90394" lon="4.01671">
        <ele>1143</ele>
        <time>2021-04-29T12:15:26Z</time>
      </trkpt>
      <trkpt lat="44.90397" lon="4.01663">
        <ele>1143</ele>
        <time>2021-04-29T12:15:27Z</time>
      </trkpt>
      <trkpt lat="44.904" lon="4.01656">
        <ele>1143</ele>
        <time>2021-04-29T12:15:28Z</time>
      </trkpt>
      <trkpt lat="44.90402" lon="4.01649">
        <ele>1143</ele>
        <time>2021-04-29T12:15:29Z</time>
      </trkpt>
      <trkpt lat="44.90408" lon="4.01636">
        <ele>1143</ele>
        <time>2021-04-29T12:15:30Z</time>
      </trkpt>
      <trkpt lat="44.90412" lon="4.01629">
        <ele>1144</ele>
        <time>2021-04-29T12:15:32Z</time>
      </trkpt>
      <trkpt lat="44.90415" lon="4.01622">
        <ele>1144</ele>
        <time>2021-04-29T12:15:33Z</time>
      </trkpt>
      <trkpt lat="44.90418" lon="4.01615">
        <ele>1144</ele>
        <time>2021-04-29T12:15:34Z</time>
      </trkpt>
      <trkpt lat="44.90422" lon="4.01608">
        <ele>1144</ele>
        <time>2021-04-29T12:15:35Z</time>
      </trkpt>
      <trkpt lat="44.90425" lon="4.01601">
        <ele>1144</ele>
        <time>2021-04-29T12:15:36Z</time>
      </trkpt>
      <trkpt lat="44.90428" lon="4.01594">
        <ele>1145</ele>
        <time>2021-04-29T12:15:37Z</time>
      </trkpt>
      <trkpt lat="44.90431" lon="4.01587">
        <ele>1145</ele>
        <time>2021-04-29T12:15:38Z</time>
      </trkpt>
      <trkpt lat="44.90434" lon="4.0158">
        <ele>1145</ele>
        <time>2021-04-29T12:15:39Z</time>
      </trkpt>
      <trkpt lat="44.90437" lon="4.01573">
        <ele>1145</ele>
        <time>2021-04-29T12:15:40Z</time>
      </trkpt>
      <trkpt lat="44.9044" lon="4.01566">
        <ele>1145</ele>
        <time>2021-04-29T12:15:41Z</time>
      </trkpt>
      <trkpt lat="44.90443" lon="4.01559">
        <ele>1145</ele>
        <time>2021-04-29T12:15:42Z</time>
      </trkpt>
      <trkpt lat="44.90446" lon="4.01552">
        <ele>1146</ele>
        <time>2021-04-29T12:15:43Z</time>
      </trkpt>
      <trkpt lat="44.90448" lon="4.01545">
        <ele>1146</ele>
        <time>2021-04-29T12:15:44Z</time>
      </trkpt>
      <trkpt lat="44.90451" lon="4.01538">
        <ele>1146</ele>
        <time>2021-04-29T12:15:45Z</time>
      </trkpt>
      <trkpt lat="44.90456" lon="4.01524">
        <ele>1146</ele>
        <time>2021-04-29T12:15:47Z</time>
      </trkpt>
      <trkpt lat="44.90461" lon="4.01509">
        <ele>1146</ele>
        <time>2021-04-29T12:15:49Z</time>
      </trkpt>
      <trkpt lat="44.90464" lon="4.01502">
        <ele>1146</ele>
        <time>2021-04-29T12:15:50Z</time>
      </trkpt>
      <trkpt lat="44.90466" lon="4.01494">
        <ele>1146</ele>
        <time>2021-04-29T12:15:51Z</time>
      </trkpt>
      <trkpt lat="44.90469" lon="4.01487">
        <ele>1146</ele>
        <time>2021-04-29T12:15:52Z</time>
      </trkpt>
      <trkpt lat="44.9047" lon="4.01479">
        <ele>1146</ele>
        <time>2021-04-29T12:15:53Z</time>
      </trkpt>
      <trkpt lat="44.90472" lon="4.01471">
        <ele>1146</ele>
        <time>2021-04-29T12:15:54Z</time>
      </trkpt>
      <trkpt lat="44.90474" lon="4.01464">
        <ele>1146</ele>
        <time>2021-04-29T12:15:55Z</time>
      </trkpt>
      <trkpt lat="44.90477" lon="4.01457">
        <ele>1146</ele>
        <time>2021-04-29T12:15:56Z</time>
      </trkpt>
      <trkpt lat="44.90479" lon="4.0145">
        <ele>1147</ele>
        <time>2021-04-29T12:15:57Z</time>
      </trkpt>
      <trkpt lat="44.9048" lon="4.01443">
        <ele>1147</ele>
        <time>2021-04-29T12:15:58Z</time>
      </trkpt>
      <trkpt lat="44.90481" lon="4.01435">
        <ele>1147</ele>
        <time>2021-04-29T12:15:59Z</time>
      </trkpt>
      <trkpt lat="44.90483" lon="4.01428">
        <ele>1147</ele>
        <time>2021-04-29T12:16:00Z</time>
      </trkpt>
      <trkpt lat="44.90485" lon="4.01421">
        <ele>1147</ele>
        <time>2021-04-29T12:16:01Z</time>
      </trkpt>
      <trkpt lat="44.90486" lon="4.01414">
        <ele>1147</ele>
        <time>2021-04-29T12:16:02Z</time>
      </trkpt>
      <trkpt lat="44.90489" lon="4.01409">
        <ele>1148</ele>
        <time>2021-04-29T12:16:03Z</time>
      </trkpt>
      <trkpt lat="44.90491" lon="4.01405">
        <ele>1148</ele>
        <time>2021-04-29T12:16:04Z</time>
      </trkpt>
      <trkpt lat="44.90492" lon="4.01401">
        <ele>1148</ele>
        <time>2021-04-29T12:16:05Z</time>
      </trkpt>
      <trkpt lat="44.90493" lon="4.01397">
        <ele>1148</ele>
        <time>2021-04-29T12:16:06Z</time>
      </trkpt>
      <trkpt lat="44.90494" lon="4.01393">
        <ele>1149</ele>
        <time>2021-04-29T12:16:07Z</time>
      </trkpt>
      <trkpt lat="44.90496" lon="4.01389">
        <ele>1149</ele>
        <time>2021-04-29T12:16:08Z</time>
      </trkpt>
      <trkpt lat="44.90498" lon="4.01385">
        <ele>1149</ele>
        <time>2021-04-29T12:16:09Z</time>
      </trkpt>
      <trkpt lat="44.90499" lon="4.01382">
        <ele>1149</ele>
        <time>2021-04-29T12:16:10Z</time>
      </trkpt>
      <trkpt lat="44.905" lon="4.0138">
        <ele>1149</ele>
        <time>2021-04-29T12:16:11Z</time>
      </trkpt>
      <trkpt lat="44.90501" lon="4.01376">
        <ele>1149</ele>
        <time>2021-04-29T12:16:13Z</time>
      </trkpt>
      <trkpt lat="44.90501" lon="4.01372">
        <ele>1150</ele>
        <time>2021-04-29T12:16:16Z</time>
      </trkpt>
      <trkpt lat="44.90503" lon="4.0137">
        <ele>1152</ele>
        <time>2021-04-29T12:16:28Z</time>
      </trkpt>
      <trkpt lat="44.90505" lon="4.01365">
        <ele>1152</ele>
        <time>2021-04-29T12:16:30Z</time>
      </trkpt>
      <trkpt lat="44.90507" lon="4.01363">
        <ele>1152</ele>
        <time>2021-04-29T12:16:31Z</time>
      </trkpt>
      <trkpt lat="44.9051" lon="4.01362">
        <ele>1152</ele>
        <time>2021-04-29T12:16:32Z</time>
      </trkpt>
      <trkpt lat="44.90513" lon="4.01361">
        <ele>1152</ele>
        <time>2021-04-29T12:16:33Z</time>
      </trkpt>
      <trkpt lat="44.90517" lon="4.01359">
        <ele>1152</ele>
        <time>2021-04-29T12:16:34Z</time>
      </trkpt>
      <trkpt lat="44.90524" lon="4.01354">
        <ele>1153</ele>
        <time>2021-04-29T12:16:36Z</time>
      </trkpt>
      <trkpt lat="44.9053" lon="4.01352">
        <ele>1153</ele>
        <time>2021-04-29T12:16:37Z</time>
      </trkpt>
      <trkpt lat="44.90539" lon="4.01344">
        <ele>1153</ele>
        <time>2021-04-29T12:16:39Z</time>
      </trkpt>
      <trkpt lat="44.90548" lon="4.01336">
        <ele>1154</ele>
        <time>2021-04-29T12:16:41Z</time>
      </trkpt>
      <trkpt lat="44.90561" lon="4.01325">
        <ele>1154</ele>
        <time>2021-04-29T12:16:43Z</time>
      </trkpt>
      <trkpt lat="44.90571" lon="4.01314">
        <ele>1154</ele>
        <time>2021-04-29T12:16:45Z</time>
      </trkpt>
      <trkpt lat="44.9058" lon="4.01304">
        <ele>1154</ele>
        <time>2021-04-29T12:16:47Z</time>
      </trkpt>
      <trkpt lat="44.90588" lon="4.01294">
        <ele>1154</ele>
        <time>2021-04-29T12:16:49Z</time>
      </trkpt>
      <trkpt lat="44.90598" lon="4.01284">
        <ele>1155</ele>
        <time>2021-04-29T12:16:51Z</time>
      </trkpt>
      <trkpt lat="44.90606" lon="4.01273">
        <ele>1155</ele>
        <time>2021-04-29T12:16:53Z</time>
      </trkpt>
      <trkpt lat="44.90619" lon="4.0126">
        <ele>1155</ele>
        <time>2021-04-29T12:16:55Z</time>
      </trkpt>
      <trkpt lat="44.90628" lon="4.01248">
        <ele>1155</ele>
        <time>2021-04-29T12:16:57Z</time>
      </trkpt>
      <trkpt lat="44.90637" lon="4.01235">
        <ele>1155</ele>
        <time>2021-04-29T12:16:59Z</time>
      </trkpt>
      <trkpt lat="44.90647" lon="4.01224">
        <ele>1155</ele>
        <time>2021-04-29T12:17:01Z</time>
      </trkpt>
      <trkpt lat="44.90657" lon="4.0121">
        <ele>1156</ele>
        <time>2021-04-29T12:17:03Z</time>
      </trkpt>
      <trkpt lat="44.90668" lon="4.01195">
        <ele>1156</ele>
        <time>2021-04-29T12:17:05Z</time>
      </trkpt>
      <trkpt lat="44.9068" lon="4.01181">
        <ele>1156</ele>
        <time>2021-04-29T12:17:07Z</time>
      </trkpt>
      <trkpt lat="44.9069" lon="4.01168">
        <ele>1156</ele>
        <time>2021-04-29T12:17:09Z</time>
      </trkpt>
      <trkpt lat="44.90701" lon="4.01157">
        <ele>1156</ele>
        <time>2021-04-29T12:17:11Z</time>
      </trkpt>
      <trkpt lat="44.90715" lon="4.01145">
        <ele>1156</ele>
        <time>2021-04-29T12:17:13Z</time>
      </trkpt>
      <trkpt lat="44.90726" lon="4.01135">
        <ele>1156</ele>
        <time>2021-04-29T12:17:15Z</time>
      </trkpt>
      <trkpt lat="44.90734" lon="4.01125">
        <ele>1156</ele>
        <time>2021-04-29T12:17:17Z</time>
      </trkpt>
      <trkpt lat="44.90745" lon="4.01112">
        <ele>1156</ele>
        <time>2021-04-29T12:17:19Z</time>
      </trkpt>
      <trkpt lat="44.90757" lon="4.01095">
        <ele>1156</ele>
        <time>2021-04-29T12:17:21Z</time>
      </trkpt>
      <trkpt lat="44.90767" lon="4.0108">
        <ele>1156</ele>
        <time>2021-04-29T12:17:23Z</time>
      </trkpt>
      <trkpt lat="44.90776" lon="4.01064">
        <ele>1155</ele>
        <time>2021-04-29T12:17:25Z</time>
      </trkpt>
      <trkpt lat="44.90785" lon="4.01049">
        <ele>1155</ele>
        <time>2021-04-29T12:17:26Z</time>
      </trkpt>
      <trkpt lat="44.90788" lon="4.01043">
        <ele>1154</ele>
        <time>2021-04-29T12:17:28Z</time>
      </trkpt>
      <trkpt lat="44.90789" lon="4.01029">
        <ele>1154</ele>
        <time>2021-04-29T12:17:30Z</time>
      </trkpt>
      <trkpt lat="44.90791" lon="4.01014">
        <ele>1153</ele>
        <time>2021-04-29T12:17:32Z</time>
      </trkpt>
      <trkpt lat="44.9079" lon="4.00998">
        <ele>1153</ele>
        <time>2021-04-29T12:17:34Z</time>
      </trkpt>
      <trkpt lat="44.90789" lon="4.0098">
        <ele>1153</ele>
        <time>2021-04-29T12:17:36Z</time>
      </trkpt>
      <trkpt lat="44.90786" lon="4.00963">
        <ele>1153</ele>
        <time>2021-04-29T12:17:38Z</time>
      </trkpt>
      <trkpt lat="44.90786" lon="4.00947">
        <ele>1153</ele>
        <time>2021-04-29T12:17:40Z</time>
      </trkpt>
      <trkpt lat="44.90787" lon="4.00932">
        <ele>1153</ele>
        <time>2021-04-29T12:17:42Z</time>
      </trkpt>
      <trkpt lat="44.90788" lon="4.00915">
        <ele>1154</ele>
        <time>2021-04-29T12:17:45Z</time>
      </trkpt>
      <trkpt lat="44.90791" lon="4.00899">
        <ele>1154</ele>
        <time>2021-04-29T12:17:48Z</time>
      </trkpt>
      <trkpt lat="44.90793" lon="4.00882">
        <ele>1154</ele>
        <time>2021-04-29T12:17:51Z</time>
      </trkpt>
      <trkpt lat="44.90798" lon="4.00867">
        <ele>1154</ele>
        <time>2021-04-29T12:17:53Z</time>
      </trkpt>
      <trkpt lat="44.90803" lon="4.00855">
        <ele>1154</ele>
        <time>2021-04-29T12:17:55Z</time>
      </trkpt>
      <trkpt lat="44.90809" lon="4.00846">
        <ele>1154</ele>
        <time>2021-04-29T12:17:57Z</time>
      </trkpt>
      <trkpt lat="44.90818" lon="4.00836">
        <ele>1154</ele>
        <time>2021-04-29T12:17:59Z</time>
      </trkpt>
      <trkpt lat="44.90827" lon="4.00827">
        <ele>1154</ele>
        <time>2021-04-29T12:18:03Z</time>
      </trkpt>
      <trkpt lat="44.90836" lon="4.00817">
        <ele>1153</ele>
        <time>2021-04-29T12:18:04Z</time>
      </trkpt>
      <trkpt lat="44.90843" lon="4.0081">
        <ele>1153</ele>
        <time>2021-04-29T12:18:06Z</time>
      </trkpt>
      <trkpt lat="44.90848" lon="4.00805">
        <ele>1153</ele>
        <time>2021-04-29T12:18:07Z</time>
      </trkpt>
      <trkpt lat="44.90854" lon="4.00801">
        <ele>1153</ele>
        <time>2021-04-29T12:18:08Z</time>
      </trkpt>
      <trkpt lat="44.90859" lon="4.00797">
        <ele>1152</ele>
        <time>2021-04-29T12:18:09Z</time>
      </trkpt>
      <trkpt lat="44.90864" lon="4.00793">
        <ele>1152</ele>
        <time>2021-04-29T12:18:10Z</time>
      </trkpt>
      <trkpt lat="44.9087" lon="4.00789">
        <ele>1152</ele>
        <time>2021-04-29T12:18:11Z</time>
      </trkpt>
      <trkpt lat="44.90875" lon="4.00785">
        <ele>1153</ele>
        <time>2021-04-29T12:18:12Z</time>
      </trkpt>
      <trkpt lat="44.90881" lon="4.00782">
        <ele>1153</ele>
        <time>2021-04-29T12:18:13Z</time>
      </trkpt>
      <trkpt lat="44.90887" lon="4.00778">
        <ele>1153</ele>
        <time>2021-04-29T12:18:14Z</time>
      </trkpt>
      <trkpt lat="44.90892" lon="4.00775">
        <ele>1153</ele>
        <time>2021-04-29T12:18:15Z</time>
      </trkpt>
      <trkpt lat="44.90897" lon="4.00771">
        <ele>1153</ele>
        <time>2021-04-29T12:18:16Z</time>
      </trkpt>
      <trkpt lat="44.90902" lon="4.00767">
        <ele>1153</ele>
        <time>2021-04-29T12:18:17Z</time>
      </trkpt>
      <trkpt lat="44.90905" lon="4.00763">
        <ele>1153</ele>
        <time>2021-04-29T12:18:18Z</time>
      </trkpt>
      <trkpt lat="44.90907" lon="4.00759">
        <ele>1153</ele>
        <time>2021-04-29T12:18:19Z</time>
      </trkpt>
      <trkpt lat="44.90916" lon="4.00751">
        <ele>1154</ele>
        <time>2021-04-29T12:18:21Z</time>
      </trkpt>
      <trkpt lat="44.90926" lon="4.00744">
        <ele>1153</ele>
        <time>2021-04-29T12:18:23Z</time>
      </trkpt>
      <trkpt lat="44.90935" lon="4.00735">
        <ele>1153</ele>
        <time>2021-04-29T12:18:25Z</time>
      </trkpt>
      <trkpt lat="44.90945" lon="4.0073">
        <ele>1152</ele>
        <time>2021-04-29T12:18:27Z</time>
      </trkpt>
      <trkpt lat="44.90957" lon="4.00728">
        <ele>1152</ele>
        <time>2021-04-29T12:18:29Z</time>
      </trkpt>
      <trkpt lat="44.90968" lon="4.00727">
        <ele>1151</ele>
        <time>2021-04-29T12:18:31Z</time>
      </trkpt>
      <trkpt lat="44.90977" lon="4.00724">
        <ele>1151</ele>
        <time>2021-04-29T12:18:33Z</time>
      </trkpt>
      <trkpt lat="44.90982" lon="4.00722">
        <ele>1151</ele>
        <time>2021-04-29T12:18:34Z</time>
      </trkpt>
      <trkpt lat="44.90991" lon="4.00718">
        <ele>1151</ele>
        <time>2021-04-29T12:18:36Z</time>
      </trkpt>
      <trkpt lat="44.90994" lon="4.00716">
        <ele>1151</ele>
        <time>2021-04-29T12:18:37Z</time>
      </trkpt>
      <trkpt lat="44.90999" lon="4.00709">
        <ele>1151</ele>
        <time>2021-04-29T12:18:39Z</time>
      </trkpt>
      <trkpt lat="44.91006" lon="4.00701">
        <ele>1151</ele>
        <time>2021-04-29T12:18:41Z</time>
      </trkpt>
      <trkpt lat="44.91018" lon="4.00692">
        <ele>1151</ele>
        <time>2021-04-29T12:18:44Z</time>
      </trkpt>
      <trkpt lat="44.91023" lon="4.0069">
        <ele>1151</ele>
        <time>2021-04-29T12:18:45Z</time>
      </trkpt>
      <trkpt lat="44.91034" lon="4.00682">
        <ele>1152</ele>
        <time>2021-04-29T12:18:48Z</time>
      </trkpt>
      <trkpt lat="44.91039" lon="4.00676">
        <ele>1153</ele>
        <time>2021-04-29T12:18:51Z</time>
      </trkpt>
      <trkpt lat="44.91039" lon="4.00671">
        <ele>1153</ele>
        <time>2021-04-29T12:18:53Z</time>
      </trkpt>
      <trkpt lat="44.91037" lon="4.00668">
        <ele>1153</ele>
        <time>2021-04-29T12:18:55Z</time>
      </trkpt>
      <trkpt lat="44.91033" lon="4.00658">
        <ele>1153</ele>
        <time>2021-04-29T12:18:58Z</time>
      </trkpt>
      <trkpt lat="44.91033" lon="4.00654">
        <ele>1153</ele>
        <time>2021-04-29T12:18:59Z</time>
      </trkpt>
      <trkpt lat="44.91033" lon="4.0065">
        <ele>1153</ele>
        <time>2021-04-29T12:19:00Z</time>
      </trkpt>
      <trkpt lat="44.91035" lon="4.0064">
        <ele>1153</ele>
        <time>2021-04-29T12:19:01Z</time>
      </trkpt>
      <trkpt lat="44.91037" lon="4.00635">
        <ele>1153</ele>
        <time>2021-04-29T12:19:03Z</time>
      </trkpt>
      <trkpt lat="44.91038" lon="4.00631">
        <ele>1153</ele>
        <time>2021-04-29T12:19:04Z</time>
      </trkpt>
      <trkpt lat="44.91041" lon="4.00629">
        <ele>1153</ele>
        <time>2021-04-29T12:19:05Z</time>
      </trkpt>
      <trkpt lat="44.91045" lon="4.00622">
        <ele>1153</ele>
        <time>2021-04-29T12:19:07Z</time>
      </trkpt>
      <trkpt lat="44.91052" lon="4.00612">
        <ele>1154</ele>
        <time>2021-04-29T12:19:10Z</time>
      </trkpt>
      <trkpt lat="44.91062" lon="4.00599">
        <ele>1154</ele>
        <time>2021-04-29T12:19:13Z</time>
      </trkpt>
      <trkpt lat="44.91069" lon="4.00585">
        <ele>1155</ele>
        <time>2021-04-29T12:19:16Z</time>
      </trkpt>
      <trkpt lat="44.91075" lon="4.00575">
        <ele>1155</ele>
        <time>2021-04-29T12:19:19Z</time>
      </trkpt>
      <trkpt lat="44.91084" lon="4.00564">
        <ele>1155</ele>
        <time>2021-04-29T12:19:22Z</time>
      </trkpt>
      <trkpt lat="44.91091" lon="4.00556">
        <ele>1155</ele>
        <time>2021-04-29T12:19:24Z</time>
      </trkpt>
      <trkpt lat="44.91099" lon="4.00548">
        <ele>1155</ele>
        <time>2021-04-29T12:19:26Z</time>
      </trkpt>
      <trkpt lat="44.91106" lon="4.00538">
        <ele>1156</ele>
        <time>2021-04-29T12:19:28Z</time>
      </trkpt>
      <trkpt lat="44.91114" lon="4.00526">
        <ele>1156</ele>
        <time>2021-04-29T12:19:30Z</time>
      </trkpt>
      <trkpt lat="44.91122" lon="4.00515">
        <ele>1156</ele>
        <time>2021-04-29T12:19:32Z</time>
      </trkpt>
      <trkpt lat="44.91128" lon="4.00505">
        <ele>1156</ele>
        <time>2021-04-29T12:19:34Z</time>
      </trkpt>
      <trkpt lat="44.91135" lon="4.00495">
        <ele>1156</ele>
        <time>2021-04-29T12:19:36Z</time>
      </trkpt>
      <trkpt lat="44.9114" lon="4.0049">
        <ele>1156</ele>
        <time>2021-04-29T12:19:37Z</time>
      </trkpt>
      <trkpt lat="44.91144" lon="4.00486">
        <ele>1156</ele>
        <time>2021-04-29T12:19:38Z</time>
      </trkpt>
      <trkpt lat="44.91151" lon="4.00477">
        <ele>1156</ele>
        <time>2021-04-29T12:19:39Z</time>
      </trkpt>
      <trkpt lat="44.91155" lon="4.00473">
        <ele>1156</ele>
        <time>2021-04-29T12:19:41Z</time>
      </trkpt>
      <trkpt lat="44.91158" lon="4.00469">
        <ele>1156</ele>
        <time>2021-04-29T12:19:42Z</time>
      </trkpt>
      <trkpt lat="44.91165" lon="4.00458">
        <ele>1156</ele>
        <time>2021-04-29T12:19:44Z</time>
      </trkpt>
      <trkpt lat="44.91168" lon="4.00452">
        <ele>1156</ele>
        <time>2021-04-29T12:19:45Z</time>
      </trkpt>
      <trkpt lat="44.91171" lon="4.00446">
        <ele>1156</ele>
        <time>2021-04-29T12:19:46Z</time>
      </trkpt>
      <trkpt lat="44.91172" lon="4.0044">
        <ele>1156</ele>
        <time>2021-04-29T12:19:47Z</time>
      </trkpt>
      <trkpt lat="44.91173" lon="4.00434">
        <ele>1157</ele>
        <time>2021-04-29T12:19:48Z</time>
      </trkpt>
      <trkpt lat="44.91173" lon="4.00427">
        <ele>1157</ele>
        <time>2021-04-29T12:19:49Z</time>
      </trkpt>
      <trkpt lat="44.91175" lon="4.0042">
        <ele>1157</ele>
        <time>2021-04-29T12:19:50Z</time>
      </trkpt>
      <trkpt lat="44.91177" lon="4.00413">
        <ele>1157</ele>
        <time>2021-04-29T12:19:51Z</time>
      </trkpt>
      <trkpt lat="44.9118" lon="4.00398">
        <ele>1157</ele>
        <time>2021-04-29T12:19:53Z</time>
      </trkpt>
      <trkpt lat="44.91181" lon="4.00382">
        <ele>1157</ele>
        <time>2021-04-29T12:19:55Z</time>
      </trkpt>
      <trkpt lat="44.91184" lon="4.00367">
        <ele>1158</ele>
        <time>2021-04-29T12:19:57Z</time>
      </trkpt>
      <trkpt lat="44.91186" lon="4.00354">
        <ele>1158</ele>
        <time>2021-04-29T12:19:59Z</time>
      </trkpt>
      <trkpt lat="44.91189" lon="4.0034">
        <ele>1158</ele>
        <time>2021-04-29T12:20:01Z</time>
      </trkpt>
      <trkpt lat="44.91192" lon="4.00327">
        <ele>1159</ele>
        <time>2021-04-29T12:20:03Z</time>
      </trkpt>
      <trkpt lat="44.91194" lon="4.00314">
        <ele>1159</ele>
        <time>2021-04-29T12:20:05Z</time>
      </trkpt>
      <trkpt lat="44.91196" lon="4.003">
        <ele>1159</ele>
        <time>2021-04-29T12:20:07Z</time>
      </trkpt>
      <trkpt lat="44.91197" lon="4.00287">
        <ele>1159</ele>
        <time>2021-04-29T12:20:09Z</time>
      </trkpt>
      <trkpt lat="44.912" lon="4.00273">
        <ele>1159</ele>
        <time>2021-04-29T12:20:11Z</time>
      </trkpt>
      <trkpt lat="44.91204" lon="4.00258">
        <ele>1160</ele>
        <time>2021-04-29T12:20:13Z</time>
      </trkpt>
      <trkpt lat="44.91209" lon="4.00243">
        <ele>1160</ele>
        <time>2021-04-29T12:20:15Z</time>
      </trkpt>
      <trkpt lat="44.91216" lon="4.00231">
        <ele>1160</ele>
        <time>2021-04-29T12:20:17Z</time>
      </trkpt>
      <trkpt lat="44.91224" lon="4.00222">
        <ele>1160</ele>
        <time>2021-04-29T12:20:19Z</time>
      </trkpt>
      <trkpt lat="44.91231" lon="4.00214">
        <ele>1160</ele>
        <time>2021-04-29T12:20:21Z</time>
      </trkpt>
      <trkpt lat="44.91238" lon="4.00202">
        <ele>1161</ele>
        <time>2021-04-29T12:20:24Z</time>
      </trkpt>
      <trkpt lat="44.9124" lon="4.00186">
        <ele>1161</ele>
        <time>2021-04-29T12:20:27Z</time>
      </trkpt>
      <trkpt lat="44.9124" lon="4.00179">
        <ele>1161</ele>
        <time>2021-04-29T12:20:28Z</time>
      </trkpt>
      <trkpt lat="44.91241" lon="4.00172">
        <ele>1161</ele>
        <time>2021-04-29T12:20:29Z</time>
      </trkpt>
      <trkpt lat="44.9124" lon="4.00165">
        <ele>1161</ele>
        <time>2021-04-29T12:20:30Z</time>
      </trkpt>
      <trkpt lat="44.91241" lon="4.00158">
        <ele>1161</ele>
        <time>2021-04-29T12:20:31Z</time>
      </trkpt>
      <trkpt lat="44.91241" lon="4.0015">
        <ele>1161</ele>
        <time>2021-04-29T12:20:32Z</time>
      </trkpt>
      <trkpt lat="44.91243" lon="4.00132">
        <ele>1161</ele>
        <time>2021-04-29T12:20:34Z</time>
      </trkpt>
      <trkpt lat="44.91243" lon="4.00111">
        <ele>1160</ele>
        <time>2021-04-29T12:20:36Z</time>
      </trkpt>
      <trkpt lat="44.91244" lon="4.00091">
        <ele>1160</ele>
        <time>2021-04-29T12:20:38Z</time>
      </trkpt>
      <trkpt lat="44.91243" lon="4.00073">
        <ele>1160</ele>
        <time>2021-04-29T12:20:40Z</time>
      </trkpt>
      <trkpt lat="44.91246" lon="4.00054">
        <ele>1159</ele>
        <time>2021-04-29T12:20:42Z</time>
      </trkpt>
      <trkpt lat="44.91252" lon="4.00041">
        <ele>1159</ele>
        <time>2021-04-29T12:20:44Z</time>
      </trkpt>
      <trkpt lat="44.91255" lon="4.00023">
        <ele>1158</ele>
        <time>2021-04-29T12:20:47Z</time>
      </trkpt>
      <trkpt lat="44.91263" lon="4.00006">
        <ele>1158</ele>
        <time>2021-04-29T12:20:49Z</time>
      </trkpt>
      <trkpt lat="44.91269" lon="3.99997">
        <ele>1157</ele>
        <time>2021-04-29T12:20:50Z</time>
      </trkpt>
      <trkpt lat="44.91275" lon="3.99988">
        <ele>1157</ele>
        <time>2021-04-29T12:20:51Z</time>
      </trkpt>
      <trkpt lat="44.91283" lon="3.99978">
        <ele>1156</ele>
        <time>2021-04-29T12:20:52Z</time>
      </trkpt>
      <trkpt lat="44.91291" lon="3.99962">
        <ele>1156</ele>
        <time>2021-04-29T12:20:54Z</time>
      </trkpt>
      <trkpt lat="44.91292" lon="3.99954">
        <ele>1156</ele>
        <time>2021-04-29T12:20:55Z</time>
      </trkpt>
      <trkpt lat="44.91293" lon="3.99949">
        <ele>1155</ele>
        <time>2021-04-29T12:20:56Z</time>
      </trkpt>
      <trkpt lat="44.91292" lon="3.99945">
        <ele>1155</ele>
        <time>2021-04-29T12:20:57Z</time>
      </trkpt>
      <trkpt lat="44.9129" lon="3.99941">
        <ele>1156</ele>
        <time>2021-04-29T12:20:58Z</time>
      </trkpt>
      <trkpt lat="44.91289" lon="3.99936">
        <ele>1155</ele>
        <time>2021-04-29T12:20:59Z</time>
      </trkpt>
      <trkpt lat="44.91287" lon="3.99931">
        <ele>1155</ele>
        <time>2021-04-29T12:21:00Z</time>
      </trkpt>
      <trkpt lat="44.91282" lon="3.99918">
        <ele>1155</ele>
        <time>2021-04-29T12:21:01Z</time>
      </trkpt>
      <trkpt lat="44.9128" lon="3.99913">
        <ele>1155</ele>
        <time>2021-04-29T12:21:03Z</time>
      </trkpt>
      <trkpt lat="44.91278" lon="3.99908">
        <ele>1155</ele>
        <time>2021-04-29T12:21:04Z</time>
      </trkpt>
      <trkpt lat="44.91276" lon="3.99904">
        <ele>1155</ele>
        <time>2021-04-29T12:21:05Z</time>
      </trkpt>
      <trkpt lat="44.91275" lon="3.999">
        <ele>1155</ele>
        <time>2021-04-29T12:21:06Z</time>
      </trkpt>
      <trkpt lat="44.91273" lon="3.99897">
        <ele>1155</ele>
        <time>2021-04-29T12:21:07Z</time>
      </trkpt>
      <trkpt lat="44.91272" lon="3.99893">
        <ele>1154</ele>
        <time>2021-04-29T12:21:08Z</time>
      </trkpt>
      <trkpt lat="44.91271" lon="3.99888">
        <ele>1154</ele>
        <time>2021-04-29T12:21:09Z</time>
      </trkpt>
      <trkpt lat="44.91269" lon="3.99883">
        <ele>1154</ele>
        <time>2021-04-29T12:21:10Z</time>
      </trkpt>
      <trkpt lat="44.91267" lon="3.99879">
        <ele>1154</ele>
        <time>2021-04-29T12:21:11Z</time>
      </trkpt>
      <trkpt lat="44.91265" lon="3.99875">
        <ele>1154</ele>
        <time>2021-04-29T12:21:12Z</time>
      </trkpt>
      <trkpt lat="44.91263" lon="3.99871">
        <ele>1154</ele>
        <time>2021-04-29T12:21:13Z</time>
      </trkpt>
      <trkpt lat="44.91259" lon="3.99861">
        <ele>1154</ele>
        <time>2021-04-29T12:21:14Z</time>
      </trkpt>
      <trkpt lat="44.91257" lon="3.99856">
        <ele>1154</ele>
        <time>2021-04-29T12:21:16Z</time>
      </trkpt>
      <trkpt lat="44.91255" lon="3.9985">
        <ele>1154</ele>
        <time>2021-04-29T12:21:17Z</time>
      </trkpt>
      <trkpt lat="44.91253" lon="3.99845">
        <ele>1154</ele>
        <time>2021-04-29T12:21:18Z</time>
      </trkpt>
      <trkpt lat="44.91252" lon="3.9984">
        <ele>1153</ele>
        <time>2021-04-29T12:21:19Z</time>
      </trkpt>
      <trkpt lat="44.9125" lon="3.99835">
        <ele>1153</ele>
        <time>2021-04-29T12:21:20Z</time>
      </trkpt>
      <trkpt lat="44.91246" lon="3.99823">
        <ele>1153</ele>
        <time>2021-04-29T12:21:22Z</time>
      </trkpt>
      <trkpt lat="44.91241" lon="3.9981">
        <ele>1153</ele>
        <time>2021-04-29T12:21:24Z</time>
      </trkpt>
      <trkpt lat="44.91235" lon="3.99796">
        <ele>1153</ele>
        <time>2021-04-29T12:21:26Z</time>
      </trkpt>
      <trkpt lat="44.91232" lon="3.99787">
        <ele>1152</ele>
        <time>2021-04-29T12:21:27Z</time>
      </trkpt>
      <trkpt lat="44.9123" lon="3.99779">
        <ele>1152</ele>
        <time>2021-04-29T12:21:28Z</time>
      </trkpt>
      <trkpt lat="44.91228" lon="3.99764">
        <ele>1152</ele>
        <time>2021-04-29T12:21:30Z</time>
      </trkpt>
      <trkpt lat="44.91225" lon="3.99748">
        <ele>1152</ele>
        <time>2021-04-29T12:21:32Z</time>
      </trkpt>
      <trkpt lat="44.91224" lon="3.99733">
        <ele>1152</ele>
        <time>2021-04-29T12:21:33Z</time>
      </trkpt>
      <trkpt lat="44.91222" lon="3.99718">
        <ele>1151</ele>
        <time>2021-04-29T12:21:36Z</time>
      </trkpt>
      <trkpt lat="44.91217" lon="3.99702">
        <ele>1150</ele>
        <time>2021-04-29T12:21:38Z</time>
      </trkpt>
      <trkpt lat="44.91209" lon="3.99685">
        <ele>1150</ele>
        <time>2021-04-29T12:21:40Z</time>
      </trkpt>
      <trkpt lat="44.91202" lon="3.99669">
        <ele>1149</ele>
        <time>2021-04-29T12:21:42Z</time>
      </trkpt>
      <trkpt lat="44.91195" lon="3.9965">
        <ele>1149</ele>
        <time>2021-04-29T12:21:44Z</time>
      </trkpt>
      <trkpt lat="44.91189" lon="3.99634">
        <ele>1148</ele>
        <time>2021-04-29T12:21:46Z</time>
      </trkpt>
      <trkpt lat="44.91181" lon="3.99619">
        <ele>1147</ele>
        <time>2021-04-29T12:21:48Z</time>
      </trkpt>
      <trkpt lat="44.91175" lon="3.99606">
        <ele>1146</ele>
        <time>2021-04-29T12:21:50Z</time>
      </trkpt>
      <trkpt lat="44.91168" lon="3.99591">
        <ele>1146</ele>
        <time>2021-04-29T12:21:52Z</time>
      </trkpt>
      <trkpt lat="44.91162" lon="3.99572">
        <ele>1145</ele>
        <time>2021-04-29T12:21:54Z</time>
      </trkpt>
      <trkpt lat="44.91158" lon="3.99554">
        <ele>1144</ele>
        <time>2021-04-29T12:21:56Z</time>
      </trkpt>
      <trkpt lat="44.91154" lon="3.99537">
        <ele>1143</ele>
        <time>2021-04-29T12:21:58Z</time>
      </trkpt>
      <trkpt lat="44.91149" lon="3.99521">
        <ele>1143</ele>
        <time>2021-04-29T12:21:59Z</time>
      </trkpt>
      <trkpt lat="44.91146" lon="3.99503">
        <ele>1141</ele>
        <time>2021-04-29T12:22:02Z</time>
      </trkpt>
      <trkpt lat="44.91143" lon="3.99487">
        <ele>1140</ele>
        <time>2021-04-29T12:22:04Z</time>
      </trkpt>
      <trkpt lat="44.91137" lon="3.99473">
        <ele>1140</ele>
        <time>2021-04-29T12:22:06Z</time>
      </trkpt>
      <trkpt lat="44.91129" lon="3.9946">
        <ele>1140</ele>
        <time>2021-04-29T12:22:08Z</time>
      </trkpt>
      <trkpt lat="44.91121" lon="3.99448">
        <ele>1140</ele>
        <time>2021-04-29T12:22:10Z</time>
      </trkpt>
      <trkpt lat="44.91115" lon="3.99437">
        <ele>1139</ele>
        <time>2021-04-29T12:22:11Z</time>
      </trkpt>
      <trkpt lat="44.91107" lon="3.99423">
        <ele>1139</ele>
        <time>2021-04-29T12:22:14Z</time>
      </trkpt>
      <trkpt lat="44.91099" lon="3.9941">
        <ele>1139</ele>
        <time>2021-04-29T12:22:16Z</time>
      </trkpt>
      <trkpt lat="44.91092" lon="3.994">
        <ele>1139</ele>
        <time>2021-04-29T12:22:18Z</time>
      </trkpt>
      <trkpt lat="44.91082" lon="3.99386">
        <ele>1138</ele>
        <time>2021-04-29T12:22:21Z</time>
      </trkpt>
      <trkpt lat="44.91073" lon="3.99373">
        <ele>1138</ele>
        <time>2021-04-29T12:22:23Z</time>
      </trkpt>
      <trkpt lat="44.91069" lon="3.99367">
        <ele>1138</ele>
        <time>2021-04-29T12:22:24Z</time>
      </trkpt>
      <trkpt lat="44.91065" lon="3.99361">
        <ele>1138</ele>
        <time>2021-04-29T12:22:25Z</time>
      </trkpt>
      <trkpt lat="44.91062" lon="3.99357">
        <ele>1138</ele>
        <time>2021-04-29T12:22:26Z</time>
      </trkpt>
      <trkpt lat="44.91059" lon="3.99353">
        <ele>1138</ele>
        <time>2021-04-29T12:22:27Z</time>
      </trkpt>
      <trkpt lat="44.91055" lon="3.99347">
        <ele>1138</ele>
        <time>2021-04-29T12:22:28Z</time>
      </trkpt>
      <trkpt lat="44.91052" lon="3.99341">
        <ele>1137</ele>
        <time>2021-04-29T12:22:29Z</time>
      </trkpt>
      <trkpt lat="44.91046" lon="3.9933">
        <ele>1137</ele>
        <time>2021-04-29T12:22:30Z</time>
      </trkpt>
      <trkpt lat="44.91041" lon="3.99324">
        <ele>1137</ele>
        <time>2021-04-29T12:22:32Z</time>
      </trkpt>
      <trkpt lat="44.91037" lon="3.99318">
        <ele>1137</ele>
        <time>2021-04-29T12:22:33Z</time>
      </trkpt>
      <trkpt lat="44.91032" lon="3.99313">
        <ele>1137</ele>
        <time>2021-04-29T12:22:34Z</time>
      </trkpt>
      <trkpt lat="44.91028" lon="3.99307">
        <ele>1136</ele>
        <time>2021-04-29T12:22:35Z</time>
      </trkpt>
      <trkpt lat="44.91024" lon="3.99302">
        <ele>1136</ele>
        <time>2021-04-29T12:22:36Z</time>
      </trkpt>
      <trkpt lat="44.9102" lon="3.99296">
        <ele>1136</ele>
        <time>2021-04-29T12:22:37Z</time>
      </trkpt>
      <trkpt lat="44.91016" lon="3.99289">
        <ele>1136</ele>
        <time>2021-04-29T12:22:38Z</time>
      </trkpt>
      <trkpt lat="44.91005" lon="3.99277">
        <ele>1135</ele>
        <time>2021-04-29T12:22:40Z</time>
      </trkpt>
      <trkpt lat="44.90996" lon="3.99265">
        <ele>1135</ele>
        <time>2021-04-29T12:22:42Z</time>
      </trkpt>
      <trkpt lat="44.90992" lon="3.99258">
        <ele>1135</ele>
        <time>2021-04-29T12:22:43Z</time>
      </trkpt>
      <trkpt lat="44.90988" lon="3.99251">
        <ele>1134</ele>
        <time>2021-04-29T12:22:44Z</time>
      </trkpt>
      <trkpt lat="44.90983" lon="3.99243">
        <ele>1134</ele>
        <time>2021-04-29T12:22:45Z</time>
      </trkpt>
      <trkpt lat="44.90978" lon="3.99236">
        <ele>1134</ele>
        <time>2021-04-29T12:22:46Z</time>
      </trkpt>
      <trkpt lat="44.90974" lon="3.99228">
        <ele>1134</ele>
        <time>2021-04-29T12:22:47Z</time>
      </trkpt>
      <trkpt lat="44.9097" lon="3.9922">
        <ele>1134</ele>
        <time>2021-04-29T12:22:48Z</time>
      </trkpt>
      <trkpt lat="44.90965" lon="3.99202">
        <ele>1133</ele>
        <time>2021-04-29T12:22:49Z</time>
      </trkpt>
      <trkpt lat="44.90961" lon="3.99193">
        <ele>1133</ele>
        <time>2021-04-29T12:22:51Z</time>
      </trkpt>
      <trkpt lat="44.90957" lon="3.99185">
        <ele>1133</ele>
        <time>2021-04-29T12:22:52Z</time>
      </trkpt>
      <trkpt lat="44.90954" lon="3.99177">
        <ele>1133</ele>
        <time>2021-04-29T12:22:53Z</time>
      </trkpt>
      <trkpt lat="44.90945" lon="3.99159">
        <ele>1132</ele>
        <time>2021-04-29T12:22:55Z</time>
      </trkpt>
      <trkpt lat="44.90937" lon="3.99144">
        <ele>1131</ele>
        <time>2021-04-29T12:22:57Z</time>
      </trkpt>
      <trkpt lat="44.90929" lon="3.9913">
        <ele>1131</ele>
        <time>2021-04-29T12:22:59Z</time>
      </trkpt>
      <trkpt lat="44.90926" lon="3.99122">
        <ele>1130</ele>
        <time>2021-04-29T12:23:00Z</time>
      </trkpt>
      <trkpt lat="44.90926" lon="3.99114">
        <ele>1129</ele>
        <time>2021-04-29T12:23:01Z</time>
      </trkpt>
      <trkpt lat="44.90927" lon="3.99106">
        <ele>1128</ele>
        <time>2021-04-29T12:23:02Z</time>
      </trkpt>
      <trkpt lat="44.90927" lon="3.99097">
        <ele>1126</ele>
        <time>2021-04-29T12:23:03Z</time>
      </trkpt>
      <trkpt lat="44.90927" lon="3.99091">
        <ele>1125</ele>
        <time>2021-04-29T12:23:04Z</time>
      </trkpt>
      <trkpt lat="44.90926" lon="3.99087">
        <ele>1124</ele>
        <time>2021-04-29T12:23:05Z</time>
      </trkpt>
      <trkpt lat="44.90924" lon="3.99084">
        <ele>1123</ele>
        <time>2021-04-29T12:23:07Z</time>
      </trkpt>
      <trkpt lat="44.90922" lon="3.99082">
        <ele>1121</ele>
        <time>2021-04-29T12:23:12Z</time>
      </trkpt>
      <trkpt lat="44.9092" lon="3.99079">
        <ele>1120</ele>
        <time>2021-04-29T12:23:14Z</time>
      </trkpt>
      <trkpt lat="44.90919" lon="3.99077">
        <ele>1120</ele>
        <time>2021-04-29T12:23:15Z</time>
      </trkpt>
      <trkpt lat="44.90917" lon="3.99074">
        <ele>1120</ele>
        <time>2021-04-29T12:23:16Z</time>
      </trkpt>
      <trkpt lat="44.90916" lon="3.99071">
        <ele>1119</ele>
        <time>2021-04-29T12:23:17Z</time>
      </trkpt>
      <trkpt lat="44.90913" lon="3.99068">
        <ele>1119</ele>
        <time>2021-04-29T12:23:18Z</time>
      </trkpt>
      <trkpt lat="44.90911" lon="3.99064">
        <ele>1119</ele>
        <time>2021-04-29T12:23:19Z</time>
      </trkpt>
      <trkpt lat="44.90908" lon="3.9906">
        <ele>1119</ele>
        <time>2021-04-29T12:23:20Z</time>
      </trkpt>
      <trkpt lat="44.90905" lon="3.99057">
        <ele>1119</ele>
        <time>2021-04-29T12:23:21Z</time>
      </trkpt>
      <trkpt lat="44.90902" lon="3.99053">
        <ele>1118</ele>
        <time>2021-04-29T12:23:22Z</time>
      </trkpt>
      <trkpt lat="44.90899" lon="3.99049">
        <ele>1118</ele>
        <time>2021-04-29T12:23:23Z</time>
      </trkpt>
      <trkpt lat="44.90896" lon="3.99045">
        <ele>1118</ele>
        <time>2021-04-29T12:23:24Z</time>
      </trkpt>
      <trkpt lat="44.90893" lon="3.99042">
        <ele>1118</ele>
        <time>2021-04-29T12:23:25Z</time>
      </trkpt>
      <trkpt lat="44.9089" lon="3.99038">
        <ele>1118</ele>
        <time>2021-04-29T12:23:26Z</time>
      </trkpt>
      <trkpt lat="44.90883" lon="3.9903">
        <ele>1118</ele>
        <time>2021-04-29T12:23:27Z</time>
      </trkpt>
      <trkpt lat="44.9088" lon="3.99026">
        <ele>1118</ele>
        <time>2021-04-29T12:23:29Z</time>
      </trkpt>
      <trkpt lat="44.90876" lon="3.99022">
        <ele>1118</ele>
        <time>2021-04-29T12:23:30Z</time>
      </trkpt>
      <trkpt lat="44.90873" lon="3.99018">
        <ele>1118</ele>
        <time>2021-04-29T12:23:31Z</time>
      </trkpt>
      <trkpt lat="44.9087" lon="3.99013">
        <ele>1118</ele>
        <time>2021-04-29T12:23:32Z</time>
      </trkpt>
      <trkpt lat="44.90863" lon="3.99005">
        <ele>1118</ele>
        <time>2021-04-29T12:23:33Z</time>
      </trkpt>
      <trkpt lat="44.9086" lon="3.99001">
        <ele>1118</ele>
        <time>2021-04-29T12:23:35Z</time>
      </trkpt>
      <trkpt lat="44.90856" lon="3.98997">
        <ele>1118</ele>
        <time>2021-04-29T12:23:36Z</time>
      </trkpt>
      <trkpt lat="44.90853" lon="3.98993">
        <ele>1118</ele>
        <time>2021-04-29T12:23:37Z</time>
      </trkpt>
      <trkpt lat="44.90849" lon="3.98988">
        <ele>1118</ele>
        <time>2021-04-29T12:23:38Z</time>
      </trkpt>
      <trkpt lat="44.90842" lon="3.9898">
        <ele>1118</ele>
        <time>2021-04-29T12:23:39Z</time>
      </trkpt>
      <trkpt lat="44.90839" lon="3.98975">
        <ele>1118</ele>
        <time>2021-04-29T12:23:41Z</time>
      </trkpt>
      <trkpt lat="44.90835" lon="3.98971">
        <ele>1118</ele>
        <time>2021-04-29T12:23:42Z</time>
      </trkpt>
      <trkpt lat="44.90831" lon="3.98967">
        <ele>1118</ele>
        <time>2021-04-29T12:23:43Z</time>
      </trkpt>
      <trkpt lat="44.90828" lon="3.98963">
        <ele>1118</ele>
        <time>2021-04-29T12:23:44Z</time>
      </trkpt>
      <trkpt lat="44.90824" lon="3.98958">
        <ele>1118</ele>
        <time>2021-04-29T12:23:45Z</time>
      </trkpt>
      <trkpt lat="44.90816" lon="3.9895">
        <ele>1118</ele>
        <time>2021-04-29T12:23:46Z</time>
      </trkpt>
      <trkpt lat="44.90812" lon="3.98946">
        <ele>1118</ele>
        <time>2021-04-29T12:23:48Z</time>
      </trkpt>
      <trkpt lat="44.90808" lon="3.98942">
        <ele>1118</ele>
        <time>2021-04-29T12:23:49Z</time>
      </trkpt>
      <trkpt lat="44.90804" lon="3.98938">
        <ele>1118</ele>
        <time>2021-04-29T12:23:50Z</time>
      </trkpt>
      <trkpt lat="44.908" lon="3.98933">
        <ele>1118</ele>
        <time>2021-04-29T12:23:51Z</time>
      </trkpt>
      <trkpt lat="44.90795" lon="3.98929">
        <ele>1118</ele>
        <time>2021-04-29T12:23:52Z</time>
      </trkpt>
      <trkpt lat="44.90791" lon="3.98925">
        <ele>1118</ele>
        <time>2021-04-29T12:23:53Z</time>
      </trkpt>
      <trkpt lat="44.90787" lon="3.98921">
        <ele>1118</ele>
        <time>2021-04-29T12:23:54Z</time>
      </trkpt>
      <trkpt lat="44.90782" lon="3.98916">
        <ele>1118</ele>
        <time>2021-04-29T12:23:55Z</time>
      </trkpt>
      <trkpt lat="44.90778" lon="3.98912">
        <ele>1118</ele>
        <time>2021-04-29T12:23:56Z</time>
      </trkpt>
      <trkpt lat="44.90774" lon="3.98908">
        <ele>1118</ele>
        <time>2021-04-29T12:23:57Z</time>
      </trkpt>
      <trkpt lat="44.90769" lon="3.98904">
        <ele>1118</ele>
        <time>2021-04-29T12:23:58Z</time>
      </trkpt>
      <trkpt lat="44.90765" lon="3.989">
        <ele>1118</ele>
        <time>2021-04-29T12:23:59Z</time>
      </trkpt>
      <trkpt lat="44.90761" lon="3.98895">
        <ele>1118</ele>
        <time>2021-04-29T12:24:00Z</time>
      </trkpt>
      <trkpt lat="44.90757" lon="3.9889">
        <ele>1118</ele>
        <time>2021-04-29T12:24:01Z</time>
      </trkpt>
      <trkpt lat="44.90753" lon="3.98886">
        <ele>1119</ele>
        <time>2021-04-29T12:24:02Z</time>
      </trkpt>
      <trkpt lat="44.9075" lon="3.98881">
        <ele>1119</ele>
        <time>2021-04-29T12:24:03Z</time>
      </trkpt>
      <trkpt lat="44.90746" lon="3.98876">
        <ele>1119</ele>
        <time>2021-04-29T12:24:04Z</time>
      </trkpt>
      <trkpt lat="44.90739" lon="3.98866">
        <ele>1119</ele>
        <time>2021-04-29T12:24:05Z</time>
      </trkpt>
      <trkpt lat="44.90735" lon="3.98861">
        <ele>1119</ele>
        <time>2021-04-29T12:24:07Z</time>
      </trkpt>
      <trkpt lat="44.90731" lon="3.98856">
        <ele>1120</ele>
        <time>2021-04-29T12:24:08Z</time>
      </trkpt>
      <trkpt lat="44.90727" lon="3.98851">
        <ele>1120</ele>
        <time>2021-04-29T12:24:09Z</time>
      </trkpt>
      <trkpt lat="44.90724" lon="3.98845">
        <ele>1120</ele>
        <time>2021-04-29T12:24:10Z</time>
      </trkpt>
      <trkpt lat="44.9072" lon="3.9884">
        <ele>1120</ele>
        <time>2021-04-29T12:24:11Z</time>
      </trkpt>
      <trkpt lat="44.90717" lon="3.98834">
        <ele>1120</ele>
        <time>2021-04-29T12:24:12Z</time>
      </trkpt>
      <trkpt lat="44.90714" lon="3.98828">
        <ele>1121</ele>
        <time>2021-04-29T12:24:13Z</time>
      </trkpt>
      <trkpt lat="44.9071" lon="3.98822">
        <ele>1121</ele>
        <time>2021-04-29T12:24:14Z</time>
      </trkpt>
      <trkpt lat="44.90704" lon="3.9881">
        <ele>1121</ele>
        <time>2021-04-29T12:24:15Z</time>
      </trkpt>
      <trkpt lat="44.907" lon="3.98803">
        <ele>1121</ele>
        <time>2021-04-29T12:24:17Z</time>
      </trkpt>
      <trkpt lat="44.90697" lon="3.98797">
        <ele>1122</ele>
        <time>2021-04-29T12:24:18Z</time>
      </trkpt>
      <trkpt lat="44.90694" lon="3.9879">
        <ele>1122</ele>
        <time>2021-04-29T12:24:19Z</time>
      </trkpt>
      <trkpt lat="44.90691" lon="3.98784">
        <ele>1122</ele>
        <time>2021-04-29T12:24:20Z</time>
      </trkpt>
      <trkpt lat="44.90689" lon="3.98777">
        <ele>1122</ele>
        <time>2021-04-29T12:24:21Z</time>
      </trkpt>
      <trkpt lat="44.90686" lon="3.98771">
        <ele>1122</ele>
        <time>2021-04-29T12:24:22Z</time>
      </trkpt>
      <trkpt lat="44.90684" lon="3.98764">
        <ele>1122</ele>
        <time>2021-04-29T12:24:23Z</time>
      </trkpt>
      <trkpt lat="44.90679" lon="3.98751">
        <ele>1122</ele>
        <time>2021-04-29T12:24:24Z</time>
      </trkpt>
      <trkpt lat="44.90677" lon="3.98744">
        <ele>1123</ele>
        <time>2021-04-29T12:24:26Z</time>
      </trkpt>
      <trkpt lat="44.90676" lon="3.98738">
        <ele>1123</ele>
        <time>2021-04-29T12:24:27Z</time>
      </trkpt>
      <trkpt lat="44.90674" lon="3.98731">
        <ele>1123</ele>
        <time>2021-04-29T12:24:28Z</time>
      </trkpt>
      <trkpt lat="44.90673" lon="3.98725">
        <ele>1124</ele>
        <time>2021-04-29T12:24:29Z</time>
      </trkpt>
      <trkpt lat="44.90672" lon="3.98718">
        <ele>1124</ele>
        <time>2021-04-29T12:24:30Z</time>
      </trkpt>
      <trkpt lat="44.90672" lon="3.98712">
        <ele>1124</ele>
        <time>2021-04-29T12:24:31Z</time>
      </trkpt>
      <trkpt lat="44.90671" lon="3.98706">
        <ele>1125</ele>
        <time>2021-04-29T12:24:32Z</time>
      </trkpt>
      <trkpt lat="44.9067" lon="3.987">
        <ele>1125</ele>
        <time>2021-04-29T12:24:33Z</time>
      </trkpt>
      <trkpt lat="44.9067" lon="3.98694">
        <ele>1125</ele>
        <time>2021-04-29T12:24:34Z</time>
      </trkpt>
      <trkpt lat="44.90669" lon="3.98689">
        <ele>1125</ele>
        <time>2021-04-29T12:24:35Z</time>
      </trkpt>
      <trkpt lat="44.90669" lon="3.98683">
        <ele>1126</ele>
        <time>2021-04-29T12:24:36Z</time>
      </trkpt>
      <trkpt lat="44.90668" lon="3.98677">
        <ele>1126</ele>
        <time>2021-04-29T12:24:37Z</time>
      </trkpt>
      <trkpt lat="44.90667" lon="3.98672">
        <ele>1126</ele>
        <time>2021-04-29T12:24:38Z</time>
      </trkpt>
      <trkpt lat="44.90666" lon="3.98667">
        <ele>1127</ele>
        <time>2021-04-29T12:24:39Z</time>
      </trkpt>
      <trkpt lat="44.90665" lon="3.98662">
        <ele>1127</ele>
        <time>2021-04-29T12:24:40Z</time>
      </trkpt>
      <trkpt lat="44.90664" lon="3.98657">
        <ele>1127</ele>
        <time>2021-04-29T12:24:41Z</time>
      </trkpt>
      <trkpt lat="44.90663" lon="3.98652">
        <ele>1127</ele>
        <time>2021-04-29T12:24:42Z</time>
      </trkpt>
      <trkpt lat="44.90661" lon="3.98642">
        <ele>1127</ele>
        <time>2021-04-29T12:24:43Z</time>
      </trkpt>
      <trkpt lat="44.90659" lon="3.98637">
        <ele>1128</ele>
        <time>2021-04-29T12:24:45Z</time>
      </trkpt>
      <trkpt lat="44.90657" lon="3.98632">
        <ele>1129</ele>
        <time>2021-04-29T12:24:46Z</time>
      </trkpt>
      <trkpt lat="44.90656" lon="3.98628">
        <ele>1129</ele>
        <time>2021-04-29T12:24:47Z</time>
      </trkpt>
      <trkpt lat="44.90654" lon="3.98623">
        <ele>1130</ele>
        <time>2021-04-29T12:24:48Z</time>
      </trkpt>
      <trkpt lat="44.90652" lon="3.98618">
        <ele>1130</ele>
        <time>2021-04-29T12:24:49Z</time>
      </trkpt>
      <trkpt lat="44.9065" lon="3.98614">
        <ele>1130</ele>
        <time>2021-04-29T12:24:50Z</time>
      </trkpt>
      <trkpt lat="44.90648" lon="3.98609">
        <ele>1131</ele>
        <time>2021-04-29T12:24:51Z</time>
      </trkpt>
      <trkpt lat="44.90646" lon="3.98604">
        <ele>1131</ele>
        <time>2021-04-29T12:24:52Z</time>
      </trkpt>
      <trkpt lat="44.90642" lon="3.98595">
        <ele>1132</ele>
        <time>2021-04-29T12:24:53Z</time>
      </trkpt>
      <trkpt lat="44.90641" lon="3.9859">
        <ele>1133</ele>
        <time>2021-04-29T12:24:55Z</time>
      </trkpt>
      <trkpt lat="44.90639" lon="3.98585">
        <ele>1133</ele>
        <time>2021-04-29T12:24:56Z</time>
      </trkpt>
      <trkpt lat="44.90637" lon="3.9858">
        <ele>1133</ele>
        <time>2021-04-29T12:24:57Z</time>
      </trkpt>
      <trkpt lat="44.90635" lon="3.98576">
        <ele>1134</ele>
        <time>2021-04-29T12:24:58Z</time>
      </trkpt>
      <trkpt lat="44.90633" lon="3.98571">
        <ele>1134</ele>
        <time>2021-04-29T12:24:59Z</time>
      </trkpt>
      <trkpt lat="44.90631" lon="3.98566">
        <ele>1134</ele>
        <time>2021-04-29T12:25:00Z</time>
      </trkpt>
      <trkpt lat="44.90629" lon="3.98561">
        <ele>1135</ele>
        <time>2021-04-29T12:25:01Z</time>
      </trkpt>
      <trkpt lat="44.90624" lon="3.98552">
        <ele>1135</ele>
        <time>2021-04-29T12:25:02Z</time>
      </trkpt>
      <trkpt lat="44.90622" lon="3.98547">
        <ele>1136</ele>
        <time>2021-04-29T12:25:04Z</time>
      </trkpt>
      <trkpt lat="44.90619" lon="3.98542">
        <ele>1136</ele>
        <time>2021-04-29T12:25:05Z</time>
      </trkpt>
      <trkpt lat="44.90616" lon="3.98538">
        <ele>1136</ele>
        <time>2021-04-29T12:25:06Z</time>
      </trkpt>
      <trkpt lat="44.90614" lon="3.98533">
        <ele>1137</ele>
        <time>2021-04-29T12:25:07Z</time>
      </trkpt>
      <trkpt lat="44.90611" lon="3.98529">
        <ele>1137</ele>
        <time>2021-04-29T12:25:08Z</time>
      </trkpt>
      <trkpt lat="44.90608" lon="3.98524">
        <ele>1137</ele>
        <time>2021-04-29T12:25:09Z</time>
      </trkpt>
      <trkpt lat="44.90605" lon="3.98519">
        <ele>1137</ele>
        <time>2021-04-29T12:25:10Z</time>
      </trkpt>
      <trkpt lat="44.90603" lon="3.98513">
        <ele>1138</ele>
        <time>2021-04-29T12:25:11Z</time>
      </trkpt>
      <trkpt lat="44.906" lon="3.98508">
        <ele>1138</ele>
        <time>2021-04-29T12:25:12Z</time>
      </trkpt>
      <trkpt lat="44.90598" lon="3.98502">
        <ele>1138</ele>
        <time>2021-04-29T12:25:13Z</time>
      </trkpt>
      <trkpt lat="44.90596" lon="3.98497">
        <ele>1138</ele>
        <time>2021-04-29T12:25:14Z</time>
      </trkpt>
      <trkpt lat="44.90594" lon="3.98491">
        <ele>1139</ele>
        <time>2021-04-29T12:25:15Z</time>
      </trkpt>
      <trkpt lat="44.90592" lon="3.98485">
        <ele>1139</ele>
        <time>2021-04-29T12:25:16Z</time>
      </trkpt>
      <trkpt lat="44.9059" lon="3.98479">
        <ele>1139</ele>
        <time>2021-04-29T12:25:17Z</time>
      </trkpt>
      <trkpt lat="44.90587" lon="3.98474">
        <ele>1139</ele>
        <time>2021-04-29T12:25:18Z</time>
      </trkpt>
      <trkpt lat="44.90585" lon="3.98469">
        <ele>1140</ele>
        <time>2021-04-29T12:25:19Z</time>
      </trkpt>
      <trkpt lat="44.90583" lon="3.98464">
        <ele>1140</ele>
        <time>2021-04-29T12:25:20Z</time>
      </trkpt>
      <trkpt lat="44.90577" lon="3.98454">
        <ele>1140</ele>
        <time>2021-04-29T12:25:21Z</time>
      </trkpt>
      <trkpt lat="44.90574" lon="3.9845">
        <ele>1141</ele>
        <time>2021-04-29T12:25:23Z</time>
      </trkpt>
      <trkpt lat="44.90571" lon="3.98446">
        <ele>1141</ele>
        <time>2021-04-29T12:25:24Z</time>
      </trkpt>
      <trkpt lat="44.90568" lon="3.98442">
        <ele>1141</ele>
        <time>2021-04-29T12:25:25Z</time>
      </trkpt>
      <trkpt lat="44.90565" lon="3.98438">
        <ele>1141</ele>
        <time>2021-04-29T12:25:26Z</time>
      </trkpt>
      <trkpt lat="44.90562" lon="3.98434">
        <ele>1141</ele>
        <time>2021-04-29T12:25:27Z</time>
      </trkpt>
      <trkpt lat="44.90559" lon="3.9843">
        <ele>1141</ele>
        <time>2021-04-29T12:25:28Z</time>
      </trkpt>
      <trkpt lat="44.90555" lon="3.98426">
        <ele>1141</ele>
        <time>2021-04-29T12:25:29Z</time>
      </trkpt>
      <trkpt lat="44.90552" lon="3.98422">
        <ele>1141</ele>
        <time>2021-04-29T12:25:30Z</time>
      </trkpt>
      <trkpt lat="44.90549" lon="3.98417">
        <ele>1141</ele>
        <time>2021-04-29T12:25:31Z</time>
      </trkpt>
      <trkpt lat="44.90546" lon="3.98412">
        <ele>1141</ele>
        <time>2021-04-29T12:25:32Z</time>
      </trkpt>
      <trkpt lat="44.90543" lon="3.98408">
        <ele>1141</ele>
        <time>2021-04-29T12:25:33Z</time>
      </trkpt>
      <trkpt lat="44.9054" lon="3.98403">
        <ele>1141</ele>
        <time>2021-04-29T12:25:34Z</time>
      </trkpt>
      <trkpt lat="44.90537" lon="3.98397">
        <ele>1141</ele>
        <time>2021-04-29T12:25:35Z</time>
      </trkpt>
      <trkpt lat="44.90533" lon="3.98392">
        <ele>1141</ele>
        <time>2021-04-29T12:25:36Z</time>
      </trkpt>
      <trkpt lat="44.9053" lon="3.98386">
        <ele>1140</ele>
        <time>2021-04-29T12:25:37Z</time>
      </trkpt>
      <trkpt lat="44.90527" lon="3.9838">
        <ele>1140</ele>
        <time>2021-04-29T12:25:38Z</time>
      </trkpt>
      <trkpt lat="44.90524" lon="3.98374">
        <ele>1140</ele>
        <time>2021-04-29T12:25:39Z</time>
      </trkpt>
      <trkpt lat="44.90521" lon="3.98368">
        <ele>1140</ele>
        <time>2021-04-29T12:25:40Z</time>
      </trkpt>
      <trkpt lat="44.90518" lon="3.98362">
        <ele>1139</ele>
        <time>2021-04-29T12:25:41Z</time>
      </trkpt>
      <trkpt lat="44.90515" lon="3.98355">
        <ele>1139</ele>
        <time>2021-04-29T12:25:42Z</time>
      </trkpt>
      <trkpt lat="44.90512" lon="3.98348">
        <ele>1139</ele>
        <time>2021-04-29T12:25:43Z</time>
      </trkpt>
      <trkpt lat="44.90508" lon="3.98342">
        <ele>1139</ele>
        <time>2021-04-29T12:25:44Z</time>
      </trkpt>
      <trkpt lat="44.90505" lon="3.98335">
        <ele>1138</ele>
        <time>2021-04-29T12:25:45Z</time>
      </trkpt>
      <trkpt lat="44.90503" lon="3.98329">
        <ele>1138</ele>
        <time>2021-04-29T12:25:46Z</time>
      </trkpt>
      <trkpt lat="44.905" lon="3.98323">
        <ele>1138</ele>
        <time>2021-04-29T12:25:47Z</time>
      </trkpt>
      <trkpt lat="44.90497" lon="3.98318">
        <ele>1138</ele>
        <time>2021-04-29T12:25:48Z</time>
      </trkpt>
      <trkpt lat="44.90493" lon="3.98313">
        <ele>1138</ele>
        <time>2021-04-29T12:25:49Z</time>
      </trkpt>
      <trkpt lat="44.9049" lon="3.98308">
        <ele>1138</ele>
        <time>2021-04-29T12:25:50Z</time>
      </trkpt>
      <trkpt lat="44.90486" lon="3.98304">
        <ele>1138</ele>
        <time>2021-04-29T12:25:51Z</time>
      </trkpt>
      <trkpt lat="44.90483" lon="3.98301">
        <ele>1138</ele>
        <time>2021-04-29T12:25:52Z</time>
      </trkpt>
      <trkpt lat="44.90479" lon="3.98296">
        <ele>1137</ele>
        <time>2021-04-29T12:25:53Z</time>
      </trkpt>
      <trkpt lat="44.90475" lon="3.98292">
        <ele>1137</ele>
        <time>2021-04-29T12:25:54Z</time>
      </trkpt>
      <trkpt lat="44.90471" lon="3.98287">
        <ele>1137</ele>
        <time>2021-04-29T12:25:55Z</time>
      </trkpt>
      <trkpt lat="44.90467" lon="3.98283">
        <ele>1137</ele>
        <time>2021-04-29T12:25:56Z</time>
      </trkpt>
      <trkpt lat="44.90462" lon="3.98278">
        <ele>1136</ele>
        <time>2021-04-29T12:25:57Z</time>
      </trkpt>
      <trkpt lat="44.90457" lon="3.98274">
        <ele>1136</ele>
        <time>2021-04-29T12:25:58Z</time>
      </trkpt>
      <trkpt lat="44.90452" lon="3.98269">
        <ele>1136</ele>
        <time>2021-04-29T12:25:59Z</time>
      </trkpt>
      <trkpt lat="44.9044" lon="3.98261">
        <ele>1135</ele>
        <time>2021-04-29T12:26:00Z</time>
      </trkpt>
      <trkpt lat="44.90433" lon="3.98257">
        <ele>1134</ele>
        <time>2021-04-29T12:26:02Z</time>
      </trkpt>
      <trkpt lat="44.90427" lon="3.98253">
        <ele>1133</ele>
        <time>2021-04-29T12:26:03Z</time>
      </trkpt>
      <trkpt lat="44.90419" lon="3.98251">
        <ele>1132</ele>
        <time>2021-04-29T12:26:04Z</time>
      </trkpt>
      <trkpt lat="44.90411" lon="3.98249">
        <ele>1131</ele>
        <time>2021-04-29T12:26:05Z</time>
      </trkpt>
      <trkpt lat="44.90404" lon="3.98246">
        <ele>1130</ele>
        <time>2021-04-29T12:26:06Z</time>
      </trkpt>
      <trkpt lat="44.90396" lon="3.98243">
        <ele>1130</ele>
        <time>2021-04-29T12:26:07Z</time>
      </trkpt>
      <trkpt lat="44.90389" lon="3.98239">
        <ele>1129</ele>
        <time>2021-04-29T12:26:08Z</time>
      </trkpt>
      <trkpt lat="44.90382" lon="3.98234">
        <ele>1128</ele>
        <time>2021-04-29T12:26:09Z</time>
      </trkpt>
      <trkpt lat="44.90376" lon="3.98228">
        <ele>1127</ele>
        <time>2021-04-29T12:26:10Z</time>
      </trkpt>
      <trkpt lat="44.9037" lon="3.98221">
        <ele>1127</ele>
        <time>2021-04-29T12:26:11Z</time>
      </trkpt>
      <trkpt lat="44.90365" lon="3.98214">
        <ele>1126</ele>
        <time>2021-04-29T12:26:12Z</time>
      </trkpt>
      <trkpt lat="44.90359" lon="3.98207">
        <ele>1125</ele>
        <time>2021-04-29T12:26:13Z</time>
      </trkpt>
      <trkpt lat="44.90354" lon="3.982">
        <ele>1124</ele>
        <time>2021-04-29T12:26:14Z</time>
      </trkpt>
      <trkpt lat="44.90349" lon="3.98195">
        <ele>1123</ele>
        <time>2021-04-29T12:26:15Z</time>
      </trkpt>
      <trkpt lat="44.90342" lon="3.98191">
        <ele>1123</ele>
        <time>2021-04-29T12:26:16Z</time>
      </trkpt>
      <trkpt lat="44.90336" lon="3.9819">
        <ele>1122</ele>
        <time>2021-04-29T12:26:17Z</time>
      </trkpt>
      <trkpt lat="44.90322" lon="3.98193">
        <ele>1122</ele>
        <time>2021-04-29T12:26:18Z</time>
      </trkpt>
      <trkpt lat="44.90315" lon="3.98197">
        <ele>1121</ele>
        <time>2021-04-29T12:26:20Z</time>
      </trkpt>
      <trkpt lat="44.90305" lon="3.982">
        <ele>1121</ele>
        <time>2021-04-29T12:26:21Z</time>
      </trkpt>
      <trkpt lat="44.90296" lon="3.98202">
        <ele>1120</ele>
        <time>2021-04-29T12:26:22Z</time>
      </trkpt>
      <trkpt lat="44.90288" lon="3.98203">
        <ele>1119</ele>
        <time>2021-04-29T12:26:23Z</time>
      </trkpt>
      <trkpt lat="44.9028" lon="3.98203">
        <ele>1119</ele>
        <time>2021-04-29T12:26:24Z</time>
      </trkpt>
      <trkpt lat="44.90273" lon="3.982">
        <ele>1119</ele>
        <time>2021-04-29T12:26:25Z</time>
      </trkpt>
      <trkpt lat="44.90266" lon="3.98197">
        <ele>1119</ele>
        <time>2021-04-29T12:26:26Z</time>
      </trkpt>
      <trkpt lat="44.9026" lon="3.98192">
        <ele>1118</ele>
        <time>2021-04-29T12:26:27Z</time>
      </trkpt>
      <trkpt lat="44.90256" lon="3.98186">
        <ele>1118</ele>
        <time>2021-04-29T12:26:28Z</time>
      </trkpt>
      <trkpt lat="44.90252" lon="3.9818">
        <ele>1118</ele>
        <time>2021-04-29T12:26:29Z</time>
      </trkpt>
      <trkpt lat="44.90248" lon="3.98175">
        <ele>1118</ele>
        <time>2021-04-29T12:26:30Z</time>
      </trkpt>
      <trkpt lat="44.90244" lon="3.9817">
        <ele>1117</ele>
        <time>2021-04-29T12:26:31Z</time>
      </trkpt>
      <trkpt lat="44.9024" lon="3.98165">
        <ele>1116</ele>
        <time>2021-04-29T12:26:32Z</time>
      </trkpt>
      <trkpt lat="44.90237" lon="3.98158">
        <ele>1115</ele>
        <time>2021-04-29T12:26:33Z</time>
      </trkpt>
      <trkpt lat="44.90236" lon="3.9815">
        <ele>1114</ele>
        <time>2021-04-29T12:26:34Z</time>
      </trkpt>
      <trkpt lat="44.90235" lon="3.98141">
        <ele>1113</ele>
        <time>2021-04-29T12:26:35Z</time>
      </trkpt>
      <trkpt lat="44.90232" lon="3.98134">
        <ele>1112</ele>
        <time>2021-04-29T12:26:36Z</time>
      </trkpt>
      <trkpt lat="44.90221" lon="3.98125">
        <ele>1112</ele>
        <time>2021-04-29T12:26:37Z</time>
      </trkpt>
      <trkpt lat="44.90215" lon="3.9812">
        <ele>1111</ele>
        <time>2021-04-29T12:26:39Z</time>
      </trkpt>
      <trkpt lat="44.90209" lon="3.98116">
        <ele>1111</ele>
        <time>2021-04-29T12:26:40Z</time>
      </trkpt>
      <trkpt lat="44.90205" lon="3.98114">
        <ele>1110</ele>
        <time>2021-04-29T12:26:41Z</time>
      </trkpt>
      <trkpt lat="44.90201" lon="3.98113">
        <ele>1110</ele>
        <time>2021-04-29T12:26:42Z</time>
      </trkpt>
      <trkpt lat="44.90196" lon="3.98114">
        <ele>1110</ele>
        <time>2021-04-29T12:26:43Z</time>
      </trkpt>
      <trkpt lat="44.90191" lon="3.98116">
        <ele>1109</ele>
        <time>2021-04-29T12:26:44Z</time>
      </trkpt>
      <trkpt lat="44.90187" lon="3.98119">
        <ele>1109</ele>
        <time>2021-04-29T12:26:45Z</time>
      </trkpt>
      <trkpt lat="44.90184" lon="3.98122">
        <ele>1109</ele>
        <time>2021-04-29T12:26:46Z</time>
      </trkpt>
      <trkpt lat="44.9018" lon="3.98125">
        <ele>1108</ele>
        <time>2021-04-29T12:26:47Z</time>
      </trkpt>
      <trkpt lat="44.90177" lon="3.98127">
        <ele>1107</ele>
        <time>2021-04-29T12:26:48Z</time>
      </trkpt>
      <trkpt lat="44.90173" lon="3.98131">
        <ele>1107</ele>
        <time>2021-04-29T12:26:49Z</time>
      </trkpt>
      <trkpt lat="44.90169" lon="3.98134">
        <ele>1107</ele>
        <time>2021-04-29T12:26:50Z</time>
      </trkpt>
      <trkpt lat="44.90165" lon="3.98137">
        <ele>1106</ele>
        <time>2021-04-29T12:26:51Z</time>
      </trkpt>
      <trkpt lat="44.9016" lon="3.98139">
        <ele>1106</ele>
        <time>2021-04-29T12:26:52Z</time>
      </trkpt>
      <trkpt lat="44.90155" lon="3.9814">
        <ele>1106</ele>
        <time>2021-04-29T12:26:53Z</time>
      </trkpt>
      <trkpt lat="44.9015" lon="3.9814">
        <ele>1106</ele>
        <time>2021-04-29T12:26:54Z</time>
      </trkpt>
      <trkpt lat="44.90146" lon="3.9814">
        <ele>1105</ele>
        <time>2021-04-29T12:26:55Z</time>
      </trkpt>
      <trkpt lat="44.90136" lon="3.9814">
        <ele>1105</ele>
        <time>2021-04-29T12:26:56Z</time>
      </trkpt>
      <trkpt lat="44.90131" lon="3.9814">
        <ele>1105</ele>
        <time>2021-04-29T12:26:58Z</time>
      </trkpt>
      <trkpt lat="44.90126" lon="3.9814">
        <ele>1105</ele>
        <time>2021-04-29T12:26:59Z</time>
      </trkpt>
      <trkpt lat="44.90121" lon="3.9814">
        <ele>1105</ele>
        <time>2021-04-29T12:27:00Z</time>
      </trkpt>
      <trkpt lat="44.90116" lon="3.9814">
        <ele>1105</ele>
        <time>2021-04-29T12:27:01Z</time>
      </trkpt>
      <trkpt lat="44.90111" lon="3.98139">
        <ele>1104</ele>
        <time>2021-04-29T12:27:02Z</time>
      </trkpt>
      <trkpt lat="44.90106" lon="3.98139">
        <ele>1104</ele>
        <time>2021-04-29T12:27:03Z</time>
      </trkpt>
      <trkpt lat="44.90101" lon="3.9814">
        <ele>1103</ele>
        <time>2021-04-29T12:27:04Z</time>
      </trkpt>
      <trkpt lat="44.90096" lon="3.98141">
        <ele>1102</ele>
        <time>2021-04-29T12:27:05Z</time>
      </trkpt>
      <trkpt lat="44.90091" lon="3.98143">
        <ele>1101</ele>
        <time>2021-04-29T12:27:06Z</time>
      </trkpt>
      <trkpt lat="44.90085" lon="3.98145">
        <ele>1101</ele>
        <time>2021-04-29T12:27:07Z</time>
      </trkpt>
      <trkpt lat="44.90079" lon="3.98147">
        <ele>1100</ele>
        <time>2021-04-29T12:27:08Z</time>
      </trkpt>
      <trkpt lat="44.90072" lon="3.9815">
        <ele>1100</ele>
        <time>2021-04-29T12:27:09Z</time>
      </trkpt>
      <trkpt lat="44.90065" lon="3.98153">
        <ele>1099</ele>
        <time>2021-04-29T12:27:10Z</time>
      </trkpt>
      <trkpt lat="44.90058" lon="3.98155">
        <ele>1098</ele>
        <time>2021-04-29T12:27:11Z</time>
      </trkpt>
      <trkpt lat="44.9005" lon="3.98158">
        <ele>1097</ele>
        <time>2021-04-29T12:27:12Z</time>
      </trkpt>
      <trkpt lat="44.90044" lon="3.98161">
        <ele>1097</ele>
        <time>2021-04-29T12:27:13Z</time>
      </trkpt>
      <trkpt lat="44.90038" lon="3.98163">
        <ele>1097</ele>
        <time>2021-04-29T12:27:14Z</time>
      </trkpt>
      <trkpt lat="44.90031" lon="3.9817">
        <ele>1096</ele>
        <time>2021-04-29T12:27:15Z</time>
      </trkpt>
      <trkpt lat="44.90028" lon="3.98174">
        <ele>1096</ele>
        <time>2021-04-29T12:27:17Z</time>
      </trkpt>
      <trkpt lat="44.90027" lon="3.98179">
        <ele>1095</ele>
        <time>2021-04-29T12:27:18Z</time>
      </trkpt>
      <trkpt lat="44.90026" lon="3.98184">
        <ele>1095</ele>
        <time>2021-04-29T12:27:19Z</time>
      </trkpt>
      <trkpt lat="44.90026" lon="3.9819">
        <ele>1095</ele>
        <time>2021-04-29T12:27:20Z</time>
      </trkpt>
      <trkpt lat="44.90027" lon="3.98195">
        <ele>1095</ele>
        <time>2021-04-29T12:27:21Z</time>
      </trkpt>
      <trkpt lat="44.90028" lon="3.98201">
        <ele>1095</ele>
        <time>2021-04-29T12:27:22Z</time>
      </trkpt>
      <trkpt lat="44.90029" lon="3.98206">
        <ele>1094</ele>
        <time>2021-04-29T12:27:23Z</time>
      </trkpt>
      <trkpt lat="44.90029" lon="3.98212">
        <ele>1094</ele>
        <time>2021-04-29T12:27:24Z</time>
      </trkpt>
      <trkpt lat="44.90029" lon="3.98218">
        <ele>1094</ele>
        <time>2021-04-29T12:27:25Z</time>
      </trkpt>
      <trkpt lat="44.90029" lon="3.98224">
        <ele>1094</ele>
        <time>2021-04-29T12:27:26Z</time>
      </trkpt>
      <trkpt lat="44.90029" lon="3.98231">
        <ele>1094</ele>
        <time>2021-04-29T12:27:27Z</time>
      </trkpt>
      <trkpt lat="44.90029" lon="3.98237">
        <ele>1094</ele>
        <time>2021-04-29T12:27:28Z</time>
      </trkpt>
      <trkpt lat="44.9003" lon="3.98243">
        <ele>1093</ele>
        <time>2021-04-29T12:27:29Z</time>
      </trkpt>
      <trkpt lat="44.90029" lon="3.98257">
        <ele>1093</ele>
        <time>2021-04-29T12:27:30Z</time>
      </trkpt>
      <trkpt lat="44.90028" lon="3.98264">
        <ele>1093</ele>
        <time>2021-04-29T12:27:32Z</time>
      </trkpt>
      <trkpt lat="44.90027" lon="3.98271">
        <ele>1093</ele>
        <time>2021-04-29T12:27:33Z</time>
      </trkpt>
      <trkpt lat="44.90026" lon="3.98279">
        <ele>1093</ele>
        <time>2021-04-29T12:27:34Z</time>
      </trkpt>
      <trkpt lat="44.90024" lon="3.98286">
        <ele>1093</ele>
        <time>2021-04-29T12:27:35Z</time>
      </trkpt>
      <trkpt lat="44.90022" lon="3.98294">
        <ele>1093</ele>
        <time>2021-04-29T12:27:36Z</time>
      </trkpt>
      <trkpt lat="44.9002" lon="3.98301">
        <ele>1092</ele>
        <time>2021-04-29T12:27:37Z</time>
      </trkpt>
      <trkpt lat="44.90018" lon="3.98308">
        <ele>1092</ele>
        <time>2021-04-29T12:27:38Z</time>
      </trkpt>
      <trkpt lat="44.90015" lon="3.98315">
        <ele>1092</ele>
        <time>2021-04-29T12:27:39Z</time>
      </trkpt>
      <trkpt lat="44.90009" lon="3.98325">
        <ele>1092</ele>
        <time>2021-04-29T12:27:40Z</time>
      </trkpt>
      <trkpt lat="44.90004" lon="3.98329">
        <ele>1092</ele>
        <time>2021-04-29T12:27:42Z</time>
      </trkpt>
      <trkpt lat="44.89999" lon="3.98331">
        <ele>1092</ele>
        <time>2021-04-29T12:27:43Z</time>
      </trkpt>
      <trkpt lat="44.89994" lon="3.98332">
        <ele>1092</ele>
        <time>2021-04-29T12:27:44Z</time>
      </trkpt>
      <trkpt lat="44.89989" lon="3.98332">
        <ele>1091</ele>
        <time>2021-04-29T12:27:45Z</time>
      </trkpt>
      <trkpt lat="44.89983" lon="3.98331">
        <ele>1091</ele>
        <time>2021-04-29T12:27:46Z</time>
      </trkpt>
      <trkpt lat="44.89978" lon="3.9833">
        <ele>1091</ele>
        <time>2021-04-29T12:27:47Z</time>
      </trkpt>
      <trkpt lat="44.89972" lon="3.98326">
        <ele>1091</ele>
        <time>2021-04-29T12:27:48Z</time>
      </trkpt>
      <trkpt lat="44.89967" lon="3.98323">
        <ele>1091</ele>
        <time>2021-04-29T12:27:49Z</time>
      </trkpt>
      <trkpt lat="44.89961" lon="3.98321">
        <ele>1091</ele>
        <time>2021-04-29T12:27:50Z</time>
      </trkpt>
      <trkpt lat="44.89955" lon="3.98322">
        <ele>1091</ele>
        <time>2021-04-29T12:27:51Z</time>
      </trkpt>
      <trkpt lat="44.8995" lon="3.98326">
        <ele>1091</ele>
        <time>2021-04-29T12:27:52Z</time>
      </trkpt>
      <trkpt lat="44.89938" lon="3.98332">
        <ele>1090</ele>
        <time>2021-04-29T12:27:53Z</time>
      </trkpt>
      <trkpt lat="44.89931" lon="3.98334">
        <ele>1089</ele>
        <time>2021-04-29T12:27:55Z</time>
      </trkpt>
      <trkpt lat="44.89925" lon="3.98334">
        <ele>1089</ele>
        <time>2021-04-29T12:27:56Z</time>
      </trkpt>
      <trkpt lat="44.89918" lon="3.98335">
        <ele>1089</ele>
        <time>2021-04-29T12:27:57Z</time>
      </trkpt>
      <trkpt lat="44.89912" lon="3.98335">
        <ele>1089</ele>
        <time>2021-04-29T12:27:58Z</time>
      </trkpt>
      <trkpt lat="44.89906" lon="3.98336">
        <ele>1089</ele>
        <time>2021-04-29T12:27:59Z</time>
      </trkpt>
      <trkpt lat="44.899" lon="3.98335">
        <ele>1089</ele>
        <time>2021-04-29T12:28:00Z</time>
      </trkpt>
      <trkpt lat="44.89894" lon="3.98333">
        <ele>1089</ele>
        <time>2021-04-29T12:28:01Z</time>
      </trkpt>
      <trkpt lat="44.89888" lon="3.98332">
        <ele>1089</ele>
        <time>2021-04-29T12:28:02Z</time>
      </trkpt>
      <trkpt lat="44.89882" lon="3.9833">
        <ele>1088</ele>
        <time>2021-04-29T12:28:03Z</time>
      </trkpt>
      <trkpt lat="44.89876" lon="3.98328">
        <ele>1088</ele>
        <time>2021-04-29T12:28:04Z</time>
      </trkpt>
      <trkpt lat="44.8987" lon="3.98327">
        <ele>1088</ele>
        <time>2021-04-29T12:28:05Z</time>
      </trkpt>
      <trkpt lat="44.89864" lon="3.98325">
        <ele>1088</ele>
        <time>2021-04-29T12:28:06Z</time>
      </trkpt>
      <trkpt lat="44.89859" lon="3.98323">
        <ele>1088</ele>
        <time>2021-04-29T12:28:07Z</time>
      </trkpt>
      <trkpt lat="44.89853" lon="3.9832">
        <ele>1088</ele>
        <time>2021-04-29T12:28:08Z</time>
      </trkpt>
      <trkpt lat="44.89848" lon="3.98318">
        <ele>1088</ele>
        <time>2021-04-29T12:28:09Z</time>
      </trkpt>
      <trkpt lat="44.89842" lon="3.98315">
        <ele>1088</ele>
        <time>2021-04-29T12:28:10Z</time>
      </trkpt>
      <trkpt lat="44.89837" lon="3.9831">
        <ele>1088</ele>
        <time>2021-04-29T12:28:11Z</time>
      </trkpt>
      <trkpt lat="44.8983" lon="3.98299">
        <ele>1088</ele>
        <time>2021-04-29T12:28:12Z</time>
      </trkpt>
      <trkpt lat="44.89828" lon="3.98292">
        <ele>1087</ele>
        <time>2021-04-29T12:28:14Z</time>
      </trkpt>
      <trkpt lat="44.89826" lon="3.98284">
        <ele>1087</ele>
        <time>2021-04-29T12:28:15Z</time>
      </trkpt>
      <trkpt lat="44.89824" lon="3.98275">
        <ele>1087</ele>
        <time>2021-04-29T12:28:16Z</time>
      </trkpt>
      <trkpt lat="44.89822" lon="3.98267">
        <ele>1086</ele>
        <time>2021-04-29T12:28:17Z</time>
      </trkpt>
      <trkpt lat="44.8982" lon="3.98259">
        <ele>1086</ele>
        <time>2021-04-29T12:28:18Z</time>
      </trkpt>
      <trkpt lat="44.89817" lon="3.98251">
        <ele>1086</ele>
        <time>2021-04-29T12:28:19Z</time>
      </trkpt>
      <trkpt lat="44.89814" lon="3.98244">
        <ele>1085</ele>
        <time>2021-04-29T12:28:20Z</time>
      </trkpt>
      <trkpt lat="44.89811" lon="3.98237">
        <ele>1085</ele>
        <time>2021-04-29T12:28:21Z</time>
      </trkpt>
      <trkpt lat="44.89807" lon="3.98231">
        <ele>1085</ele>
        <time>2021-04-29T12:28:22Z</time>
      </trkpt>
      <trkpt lat="44.89803" lon="3.98225">
        <ele>1085</ele>
        <time>2021-04-29T12:28:23Z</time>
      </trkpt>
      <trkpt lat="44.89799" lon="3.9822">
        <ele>1085</ele>
        <time>2021-04-29T12:28:24Z</time>
      </trkpt>
      <trkpt lat="44.89795" lon="3.98215">
        <ele>1085</ele>
        <time>2021-04-29T12:28:25Z</time>
      </trkpt>
      <trkpt lat="44.89791" lon="3.98211">
        <ele>1085</ele>
        <time>2021-04-29T12:28:26Z</time>
      </trkpt>
      <trkpt lat="44.89788" lon="3.98207">
        <ele>1085</ele>
        <time>2021-04-29T12:28:27Z</time>
      </trkpt>
      <trkpt lat="44.89784" lon="3.98204">
        <ele>1085</ele>
        <time>2021-04-29T12:28:28Z</time>
      </trkpt>
      <trkpt lat="44.89779" lon="3.98203">
        <ele>1085</ele>
        <time>2021-04-29T12:28:29Z</time>
      </trkpt>
      <trkpt lat="44.89774" lon="3.98203">
        <ele>1085</ele>
        <time>2021-04-29T12:28:30Z</time>
      </trkpt>
      <trkpt lat="44.89764" lon="3.98206">
        <ele>1085</ele>
        <time>2021-04-29T12:28:31Z</time>
      </trkpt>
      <trkpt lat="44.8976" lon="3.9821">
        <ele>1085</ele>
        <time>2021-04-29T12:28:33Z</time>
      </trkpt>
      <trkpt lat="44.89756" lon="3.98215">
        <ele>1085</ele>
        <time>2021-04-29T12:28:34Z</time>
      </trkpt>
      <trkpt lat="44.89753" lon="3.98221">
        <ele>1085</ele>
        <time>2021-04-29T12:28:35Z</time>
      </trkpt>
      <trkpt lat="44.8975" lon="3.98226">
        <ele>1086</ele>
        <time>2021-04-29T12:28:36Z</time>
      </trkpt>
      <trkpt lat="44.89746" lon="3.9823">
        <ele>1086</ele>
        <time>2021-04-29T12:28:37Z</time>
      </trkpt>
      <trkpt lat="44.89743" lon="3.98235">
        <ele>1086</ele>
        <time>2021-04-29T12:28:38Z</time>
      </trkpt>
      <trkpt lat="44.8974" lon="3.9824">
        <ele>1086</ele>
        <time>2021-04-29T12:28:39Z</time>
      </trkpt>
      <trkpt lat="44.89737" lon="3.98245">
        <ele>1086</ele>
        <time>2021-04-29T12:28:40Z</time>
      </trkpt>
      <trkpt lat="44.89734" lon="3.98249">
        <ele>1086</ele>
        <time>2021-04-29T12:28:41Z</time>
      </trkpt>
      <trkpt lat="44.89731" lon="3.98254">
        <ele>1086</ele>
        <time>2021-04-29T12:28:42Z</time>
      </trkpt>
      <trkpt lat="44.89728" lon="3.98258">
        <ele>1087</ele>
        <time>2021-04-29T12:28:43Z</time>
      </trkpt>
      <trkpt lat="44.89725" lon="3.98263">
        <ele>1087</ele>
        <time>2021-04-29T12:28:44Z</time>
      </trkpt>
      <trkpt lat="44.89722" lon="3.98268">
        <ele>1087</ele>
        <time>2021-04-29T12:28:45Z</time>
      </trkpt>
      <trkpt lat="44.89719" lon="3.98273">
        <ele>1087</ele>
        <time>2021-04-29T12:28:46Z</time>
      </trkpt>
      <trkpt lat="44.89716" lon="3.98278">
        <ele>1087</ele>
        <time>2021-04-29T12:28:47Z</time>
      </trkpt>
      <trkpt lat="44.89713" lon="3.98283">
        <ele>1088</ele>
        <time>2021-04-29T12:28:48Z</time>
      </trkpt>
      <trkpt lat="44.89709" lon="3.98287">
        <ele>1088</ele>
        <time>2021-04-29T12:28:49Z</time>
      </trkpt>
      <trkpt lat="44.89702" lon="3.98295">
        <ele>1088</ele>
        <time>2021-04-29T12:28:50Z</time>
      </trkpt>
      <trkpt lat="44.89699" lon="3.983">
        <ele>1088</ele>
        <time>2021-04-29T12:28:52Z</time>
      </trkpt>
      <trkpt lat="44.89695" lon="3.98304">
        <ele>1089</ele>
        <time>2021-04-29T12:28:53Z</time>
      </trkpt>
      <trkpt lat="44.89691" lon="3.98308">
        <ele>1089</ele>
        <time>2021-04-29T12:28:54Z</time>
      </trkpt>
      <trkpt lat="44.89688" lon="3.98312">
        <ele>1089</ele>
        <time>2021-04-29T12:28:55Z</time>
      </trkpt>
      <trkpt lat="44.89684" lon="3.98316">
        <ele>1089</ele>
        <time>2021-04-29T12:28:56Z</time>
      </trkpt>
      <trkpt lat="44.8968" lon="3.9832">
        <ele>1089</ele>
        <time>2021-04-29T12:28:57Z</time>
      </trkpt>
      <trkpt lat="44.89677" lon="3.98325">
        <ele>1090</ele>
        <time>2021-04-29T12:28:58Z</time>
      </trkpt>
      <trkpt lat="44.89673" lon="3.9833">
        <ele>1090</ele>
        <time>2021-04-29T12:28:59Z</time>
      </trkpt>
      <trkpt lat="44.89669" lon="3.98334">
        <ele>1090</ele>
        <time>2021-04-29T12:29:00Z</time>
      </trkpt>
      <trkpt lat="44.89665" lon="3.98339">
        <ele>1090</ele>
        <time>2021-04-29T12:29:01Z</time>
      </trkpt>
      <trkpt lat="44.89662" lon="3.98344">
        <ele>1091</ele>
        <time>2021-04-29T12:29:02Z</time>
      </trkpt>
      <trkpt lat="44.89659" lon="3.98349">
        <ele>1091</ele>
        <time>2021-04-29T12:29:03Z</time>
      </trkpt>
      <trkpt lat="44.89655" lon="3.98354">
        <ele>1091</ele>
        <time>2021-04-29T12:29:04Z</time>
      </trkpt>
      <trkpt lat="44.89652" lon="3.98359">
        <ele>1092</ele>
        <time>2021-04-29T12:29:05Z</time>
      </trkpt>
      <trkpt lat="44.89649" lon="3.98364">
        <ele>1092</ele>
        <time>2021-04-29T12:29:06Z</time>
      </trkpt>
      <trkpt lat="44.89647" lon="3.9837">
        <ele>1092</ele>
        <time>2021-04-29T12:29:07Z</time>
      </trkpt>
      <trkpt lat="44.89644" lon="3.98375">
        <ele>1092</ele>
        <time>2021-04-29T12:29:08Z</time>
      </trkpt>
      <trkpt lat="44.89636" lon="3.98383">
        <ele>1093</ele>
        <time>2021-04-29T12:29:09Z</time>
      </trkpt>
      <trkpt lat="44.89633" lon="3.98386">
        <ele>1093</ele>
        <time>2021-04-29T12:29:11Z</time>
      </trkpt>
      <trkpt lat="44.89628" lon="3.98389">
        <ele>1093</ele>
        <time>2021-04-29T12:29:12Z</time>
      </trkpt>
      <trkpt lat="44.89624" lon="3.9839">
        <ele>1093</ele>
        <time>2021-04-29T12:29:13Z</time>
      </trkpt>
      <trkpt lat="44.89619" lon="3.98392">
        <ele>1094</ele>
        <time>2021-04-29T12:29:14Z</time>
      </trkpt>
      <trkpt lat="44.89614" lon="3.98393">
        <ele>1094</ele>
        <time>2021-04-29T12:29:15Z</time>
      </trkpt>
      <trkpt lat="44.8961" lon="3.98393">
        <ele>1094</ele>
        <time>2021-04-29T12:29:16Z</time>
      </trkpt>
      <trkpt lat="44.89605" lon="3.98391">
        <ele>1094</ele>
        <time>2021-04-29T12:29:17Z</time>
      </trkpt>
      <trkpt lat="44.89601" lon="3.98387">
        <ele>1094</ele>
        <time>2021-04-29T12:29:18Z</time>
      </trkpt>
      <trkpt lat="44.89598" lon="3.98382">
        <ele>1094</ele>
        <time>2021-04-29T12:29:19Z</time>
      </trkpt>
      <trkpt lat="44.89596" lon="3.98376">
        <ele>1094</ele>
        <time>2021-04-29T12:29:20Z</time>
      </trkpt>
      <trkpt lat="44.89593" lon="3.98369">
        <ele>1094</ele>
        <time>2021-04-29T12:29:21Z</time>
      </trkpt>
      <trkpt lat="44.8959" lon="3.98363">
        <ele>1094</ele>
        <time>2021-04-29T12:29:22Z</time>
      </trkpt>
      <trkpt lat="44.89587" lon="3.98358">
        <ele>1094</ele>
        <time>2021-04-29T12:29:23Z</time>
      </trkpt>
      <trkpt lat="44.89582" lon="3.98356">
        <ele>1094</ele>
        <time>2021-04-29T12:29:24Z</time>
      </trkpt>
      <trkpt lat="44.89577" lon="3.98356">
        <ele>1094</ele>
        <time>2021-04-29T12:29:25Z</time>
      </trkpt>
      <trkpt lat="44.89572" lon="3.98359">
        <ele>1094</ele>
        <time>2021-04-29T12:29:26Z</time>
      </trkpt>
      <trkpt lat="44.89568" lon="3.98362">
        <ele>1094</ele>
        <time>2021-04-29T12:29:27Z</time>
      </trkpt>
      <trkpt lat="44.89564" lon="3.98366">
        <ele>1094</ele>
        <time>2021-04-29T12:29:28Z</time>
      </trkpt>
      <trkpt lat="44.89555" lon="3.98373">
        <ele>1094</ele>
        <time>2021-04-29T12:29:29Z</time>
      </trkpt>
      <trkpt lat="44.89551" lon="3.98376">
        <ele>1094</ele>
        <time>2021-04-29T12:29:31Z</time>
      </trkpt>
      <trkpt lat="44.89547" lon="3.98377">
        <ele>1094</ele>
        <time>2021-04-29T12:29:32Z</time>
      </trkpt>
      <trkpt lat="44.89542" lon="3.98376">
        <ele>1094</ele>
        <time>2021-04-29T12:29:33Z</time>
      </trkpt>
      <trkpt lat="44.89538" lon="3.98373">
        <ele>1094</ele>
        <time>2021-04-29T12:29:34Z</time>
      </trkpt>
      <trkpt lat="44.89534" lon="3.98369">
        <ele>1094</ele>
        <time>2021-04-29T12:29:35Z</time>
      </trkpt>
      <trkpt lat="44.8953" lon="3.98366">
        <ele>1094</ele>
        <time>2021-04-29T12:29:36Z</time>
      </trkpt>
      <trkpt lat="44.89525" lon="3.98363">
        <ele>1094</ele>
        <time>2021-04-29T12:29:37Z</time>
      </trkpt>
      <trkpt lat="44.8952" lon="3.98362">
        <ele>1094</ele>
        <time>2021-04-29T12:29:38Z</time>
      </trkpt>
      <trkpt lat="44.89515" lon="3.98362">
        <ele>1095</ele>
        <time>2021-04-29T12:29:39Z</time>
      </trkpt>
      <trkpt lat="44.89511" lon="3.98362">
        <ele>1095</ele>
        <time>2021-04-29T12:29:40Z</time>
      </trkpt>
      <trkpt lat="44.89506" lon="3.98362">
        <ele>1095</ele>
        <time>2021-04-29T12:29:41Z</time>
      </trkpt>
      <trkpt lat="44.89502" lon="3.98361">
        <ele>1095</ele>
        <time>2021-04-29T12:29:42Z</time>
      </trkpt>
      <trkpt lat="44.89498" lon="3.9836">
        <ele>1095</ele>
        <time>2021-04-29T12:29:43Z</time>
      </trkpt>
      <trkpt lat="44.89494" lon="3.98359">
        <ele>1096</ele>
        <time>2021-04-29T12:29:44Z</time>
      </trkpt>
      <trkpt lat="44.8949" lon="3.98358">
        <ele>1096</ele>
        <time>2021-04-29T12:29:45Z</time>
      </trkpt>
      <trkpt lat="44.89486" lon="3.98357">
        <ele>1096</ele>
        <time>2021-04-29T12:29:46Z</time>
      </trkpt>
      <trkpt lat="44.89479" lon="3.98356">
        <ele>1096</ele>
        <time>2021-04-29T12:29:47Z</time>
      </trkpt>
      <trkpt lat="44.89475" lon="3.98357">
        <ele>1097</ele>
        <time>2021-04-29T12:29:49Z</time>
      </trkpt>
      <trkpt lat="44.89472" lon="3.98358">
        <ele>1097</ele>
        <time>2021-04-29T12:29:50Z</time>
      </trkpt>
      <trkpt lat="44.89468" lon="3.9836">
        <ele>1097</ele>
        <time>2021-04-29T12:29:51Z</time>
      </trkpt>
      <trkpt lat="44.89465" lon="3.98362">
        <ele>1097</ele>
        <time>2021-04-29T12:29:52Z</time>
      </trkpt>
      <trkpt lat="44.89462" lon="3.98364">
        <ele>1097</ele>
        <time>2021-04-29T12:29:53Z</time>
      </trkpt>
      <trkpt lat="44.89459" lon="3.98367">
        <ele>1098</ele>
        <time>2021-04-29T12:29:54Z</time>
      </trkpt>
      <trkpt lat="44.89456" lon="3.9837">
        <ele>1098</ele>
        <time>2021-04-29T12:29:55Z</time>
      </trkpt>
      <trkpt lat="44.89453" lon="3.98373">
        <ele>1098</ele>
        <time>2021-04-29T12:29:56Z</time>
      </trkpt>
      <trkpt lat="44.8945" lon="3.98377">
        <ele>1099</ele>
        <time>2021-04-29T12:29:57Z</time>
      </trkpt>
      <trkpt lat="44.89447" lon="3.9838">
        <ele>1099</ele>
        <time>2021-04-29T12:29:58Z</time>
      </trkpt>
      <trkpt lat="44.89443" lon="3.98384">
        <ele>1099</ele>
        <time>2021-04-29T12:29:59Z</time>
      </trkpt>
      <trkpt lat="44.8944" lon="3.98387">
        <ele>1100</ele>
        <time>2021-04-29T12:30:00Z</time>
      </trkpt>
      <trkpt lat="44.89436" lon="3.9839">
        <ele>1100</ele>
        <time>2021-04-29T12:30:01Z</time>
      </trkpt>
      <trkpt lat="44.89433" lon="3.98394">
        <ele>1100</ele>
        <time>2021-04-29T12:30:02Z</time>
      </trkpt>
      <trkpt lat="44.89429" lon="3.98398">
        <ele>1100</ele>
        <time>2021-04-29T12:30:03Z</time>
      </trkpt>
      <trkpt lat="44.89426" lon="3.98403">
        <ele>1100</ele>
        <time>2021-04-29T12:30:04Z</time>
      </trkpt>
      <trkpt lat="44.89424" lon="3.98409">
        <ele>1100</ele>
        <time>2021-04-29T12:30:05Z</time>
      </trkpt>
      <trkpt lat="44.8942" lon="3.98423">
        <ele>1101</ele>
        <time>2021-04-29T12:30:06Z</time>
      </trkpt>
      <trkpt lat="44.89419" lon="3.98431">
        <ele>1101</ele>
        <time>2021-04-29T12:30:08Z</time>
      </trkpt>
      <trkpt lat="44.89418" lon="3.98438">
        <ele>1101</ele>
        <time>2021-04-29T12:30:09Z</time>
      </trkpt>
      <trkpt lat="44.89417" lon="3.98445">
        <ele>1101</ele>
        <time>2021-04-29T12:30:10Z</time>
      </trkpt>
      <trkpt lat="44.89415" lon="3.98453">
        <ele>1101</ele>
        <time>2021-04-29T12:30:11Z</time>
      </trkpt>
      <trkpt lat="44.89413" lon="3.9846">
        <ele>1101</ele>
        <time>2021-04-29T12:30:12Z</time>
      </trkpt>
      <trkpt lat="44.8941" lon="3.98466">
        <ele>1101</ele>
        <time>2021-04-29T12:30:13Z</time>
      </trkpt>
      <trkpt lat="44.89406" lon="3.98472">
        <ele>1101</ele>
        <time>2021-04-29T12:30:14Z</time>
      </trkpt>
      <trkpt lat="44.89402" lon="3.98478">
        <ele>1101</ele>
        <time>2021-04-29T12:30:15Z</time>
      </trkpt>
      <trkpt lat="44.89398" lon="3.98482">
        <ele>1102</ele>
        <time>2021-04-29T12:30:16Z</time>
      </trkpt>
      <trkpt lat="44.89393" lon="3.98487">
        <ele>1102</ele>
        <time>2021-04-29T12:30:17Z</time>
      </trkpt>
      <trkpt lat="44.89388" lon="3.98491">
        <ele>1102</ele>
        <time>2021-04-29T12:30:18Z</time>
      </trkpt>
      <trkpt lat="44.89383" lon="3.98494">
        <ele>1102</ele>
        <time>2021-04-29T12:30:19Z</time>
      </trkpt>
      <trkpt lat="44.89379" lon="3.98499">
        <ele>1102</ele>
        <time>2021-04-29T12:30:20Z</time>
      </trkpt>
      <trkpt lat="44.89374" lon="3.98503">
        <ele>1102</ele>
        <time>2021-04-29T12:30:21Z</time>
      </trkpt>
      <trkpt lat="44.8937" lon="3.98508">
        <ele>1102</ele>
        <time>2021-04-29T12:30:22Z</time>
      </trkpt>
      <trkpt lat="44.89366" lon="3.98513">
        <ele>1102</ele>
        <time>2021-04-29T12:30:23Z</time>
      </trkpt>
      <trkpt lat="44.89361" lon="3.98518">
        <ele>1102</ele>
        <time>2021-04-29T12:30:24Z</time>
      </trkpt>
      <trkpt lat="44.89352" lon="3.98528">
        <ele>1102</ele>
        <time>2021-04-29T12:30:25Z</time>
      </trkpt>
      <trkpt lat="44.89347" lon="3.98533">
        <ele>1103</ele>
        <time>2021-04-29T12:30:27Z</time>
      </trkpt>
      <trkpt lat="44.89343" lon="3.98537">
        <ele>1103</ele>
        <time>2021-04-29T12:30:28Z</time>
      </trkpt>
      <trkpt lat="44.89338" lon="3.9854">
        <ele>1104</ele>
        <time>2021-04-29T12:30:29Z</time>
      </trkpt>
      <trkpt lat="44.89333" lon="3.98543">
        <ele>1104</ele>
        <time>2021-04-29T12:30:30Z</time>
      </trkpt>
      <trkpt lat="44.89327" lon="3.98545">
        <ele>1104</ele>
        <time>2021-04-29T12:30:31Z</time>
      </trkpt>
      <trkpt lat="44.89322" lon="3.98547">
        <ele>1104</ele>
        <time>2021-04-29T12:30:32Z</time>
      </trkpt>
      <trkpt lat="44.89317" lon="3.98549">
        <ele>1104</ele>
        <time>2021-04-29T12:30:33Z</time>
      </trkpt>
      <trkpt lat="44.89312" lon="3.98551">
        <ele>1105</ele>
        <time>2021-04-29T12:30:34Z</time>
      </trkpt>
      <trkpt lat="44.89306" lon="3.98551">
        <ele>1105</ele>
        <time>2021-04-29T12:30:35Z</time>
      </trkpt>
      <trkpt lat="44.89301" lon="3.98551">
        <ele>1105</ele>
        <time>2021-04-29T12:30:36Z</time>
      </trkpt>
      <trkpt lat="44.89296" lon="3.9855">
        <ele>1104</ele>
        <time>2021-04-29T12:30:37Z</time>
      </trkpt>
      <trkpt lat="44.89291" lon="3.98548">
        <ele>1104</ele>
        <time>2021-04-29T12:30:38Z</time>
      </trkpt>
      <trkpt lat="44.89286" lon="3.98546">
        <ele>1104</ele>
        <time>2021-04-29T12:30:39Z</time>
      </trkpt>
      <trkpt lat="44.8928" lon="3.98544">
        <ele>1104</ele>
        <time>2021-04-29T12:30:40Z</time>
      </trkpt>
      <trkpt lat="44.89275" lon="3.98542">
        <ele>1104</ele>
        <time>2021-04-29T12:30:41Z</time>
      </trkpt>
      <trkpt lat="44.8927" lon="3.98541">
        <ele>1104</ele>
        <time>2021-04-29T12:30:42Z</time>
      </trkpt>
      <trkpt lat="44.89264" lon="3.9854">
        <ele>1104</ele>
        <time>2021-04-29T12:30:43Z</time>
      </trkpt>
      <trkpt lat="44.89254" lon="3.98537">
        <ele>1104</ele>
        <time>2021-04-29T12:30:44Z</time>
      </trkpt>
      <trkpt lat="44.89249" lon="3.98535">
        <ele>1104</ele>
        <time>2021-04-29T12:30:46Z</time>
      </trkpt>
      <trkpt lat="44.89244" lon="3.98533">
        <ele>1104</ele>
        <time>2021-04-29T12:30:47Z</time>
      </trkpt>
      <trkpt lat="44.89239" lon="3.98532">
        <ele>1104</ele>
        <time>2021-04-29T12:30:48Z</time>
      </trkpt>
      <trkpt lat="44.89234" lon="3.98531">
        <ele>1104</ele>
        <time>2021-04-29T12:30:49Z</time>
      </trkpt>
      <trkpt lat="44.89228" lon="3.9853">
        <ele>1104</ele>
        <time>2021-04-29T12:30:50Z</time>
      </trkpt>
      <trkpt lat="44.89223" lon="3.9853">
        <ele>1104</ele>
        <time>2021-04-29T12:30:51Z</time>
      </trkpt>
      <trkpt lat="44.89218" lon="3.9853">
        <ele>1104</ele>
        <time>2021-04-29T12:30:52Z</time>
      </trkpt>
      <trkpt lat="44.89213" lon="3.9853">
        <ele>1104</ele>
        <time>2021-04-29T12:30:53Z</time>
      </trkpt>
      <trkpt lat="44.89208" lon="3.98531">
        <ele>1104</ele>
        <time>2021-04-29T12:30:54Z</time>
      </trkpt>
      <trkpt lat="44.89204" lon="3.98534">
        <ele>1104</ele>
        <time>2021-04-29T12:30:55Z</time>
      </trkpt>
      <trkpt lat="44.89199" lon="3.98537">
        <ele>1104</ele>
        <time>2021-04-29T12:30:56Z</time>
      </trkpt>
      <trkpt lat="44.89194" lon="3.9854">
        <ele>1104</ele>
        <time>2021-04-29T12:30:57Z</time>
      </trkpt>
      <trkpt lat="44.89188" lon="3.98543">
        <ele>1103</ele>
        <time>2021-04-29T12:30:58Z</time>
      </trkpt>
      <trkpt lat="44.89183" lon="3.98545">
        <ele>1103</ele>
        <time>2021-04-29T12:30:59Z</time>
      </trkpt>
      <trkpt lat="44.89177" lon="3.98547">
        <ele>1103</ele>
        <time>2021-04-29T12:31:00Z</time>
      </trkpt>
      <trkpt lat="44.89172" lon="3.98548">
        <ele>1103</ele>
        <time>2021-04-29T12:31:01Z</time>
      </trkpt>
      <trkpt lat="44.89167" lon="3.98548">
        <ele>1103</ele>
        <time>2021-04-29T12:31:02Z</time>
      </trkpt>
      <trkpt lat="44.89158" lon="3.98543">
        <ele>1103</ele>
        <time>2021-04-29T12:31:03Z</time>
      </trkpt>
      <trkpt lat="44.89155" lon="3.98536">
        <ele>1102</ele>
        <time>2021-04-29T12:31:05Z</time>
      </trkpt>
      <trkpt lat="44.89153" lon="3.98528">
        <ele>1102</ele>
        <time>2021-04-29T12:31:06Z</time>
      </trkpt>
      <trkpt lat="44.89151" lon="3.98522">
        <ele>1101</ele>
        <time>2021-04-29T12:31:07Z</time>
      </trkpt>
      <trkpt lat="44.89149" lon="3.98518">
        <ele>1101</ele>
        <time>2021-04-29T12:31:08Z</time>
      </trkpt>
      <trkpt lat="44.89147" lon="3.98515">
        <ele>1101</ele>
        <time>2021-04-29T12:31:09Z</time>
      </trkpt>
      <trkpt lat="44.89143" lon="3.98513">
        <ele>1101</ele>
        <time>2021-04-29T12:31:10Z</time>
      </trkpt>
      <trkpt lat="44.89138" lon="3.98514">
        <ele>1101</ele>
        <time>2021-04-29T12:31:11Z</time>
      </trkpt>
      <trkpt lat="44.89132" lon="3.98515">
        <ele>1101</ele>
        <time>2021-04-29T12:31:12Z</time>
      </trkpt>
      <trkpt lat="44.89125" lon="3.98515">
        <ele>1100</ele>
        <time>2021-04-29T12:31:13Z</time>
      </trkpt>
      <trkpt lat="44.89119" lon="3.98515">
        <ele>1100</ele>
        <time>2021-04-29T12:31:14Z</time>
      </trkpt>
      <trkpt lat="44.89112" lon="3.98516">
        <ele>1100</ele>
        <time>2021-04-29T12:31:15Z</time>
      </trkpt>
      <trkpt lat="44.89106" lon="3.98518">
        <ele>1100</ele>
        <time>2021-04-29T12:31:16Z</time>
      </trkpt>
      <trkpt lat="44.891" lon="3.9852">
        <ele>1100</ele>
        <time>2021-04-29T12:31:17Z</time>
      </trkpt>
      <trkpt lat="44.89095" lon="3.98521">
        <ele>1100</ele>
        <time>2021-04-29T12:31:18Z</time>
      </trkpt>
      <trkpt lat="44.89092" lon="3.98519">
        <ele>1100</ele>
        <time>2021-04-29T12:31:19Z</time>
      </trkpt>
      <trkpt lat="44.89088" lon="3.98517">
        <ele>1100</ele>
        <time>2021-04-29T12:31:20Z</time>
      </trkpt>
      <trkpt lat="44.89084" lon="3.98519">
        <ele>1100</ele>
        <time>2021-04-29T12:31:21Z</time>
      </trkpt>
      <trkpt lat="44.89077" lon="3.98527">
        <ele>1099</ele>
        <time>2021-04-29T12:31:22Z</time>
      </trkpt>
      <trkpt lat="44.89073" lon="3.98532">
        <ele>1099</ele>
        <time>2021-04-29T12:31:24Z</time>
      </trkpt>
      <trkpt lat="44.89068" lon="3.98537">
        <ele>1099</ele>
        <time>2021-04-29T12:31:25Z</time>
      </trkpt>
      <trkpt lat="44.89064" lon="3.98542">
        <ele>1098</ele>
        <time>2021-04-29T12:31:26Z</time>
      </trkpt>
      <trkpt lat="44.8906" lon="3.98547">
        <ele>1098</ele>
        <time>2021-04-29T12:31:27Z</time>
      </trkpt>
      <trkpt lat="44.89052" lon="3.98555">
        <ele>1098</ele>
        <time>2021-04-29T12:31:28Z</time>
      </trkpt>
      <trkpt lat="44.89047" lon="3.9856">
        <ele>1098</ele>
        <time>2021-04-29T12:31:30Z</time>
      </trkpt>
      <trkpt lat="44.89043" lon="3.98563">
        <ele>1098</ele>
        <time>2021-04-29T12:31:31Z</time>
      </trkpt>
      <trkpt lat="44.89038" lon="3.98565">
        <ele>1098</ele>
        <time>2021-04-29T12:31:32Z</time>
      </trkpt>
      <trkpt lat="44.89033" lon="3.98567">
        <ele>1098</ele>
        <time>2021-04-29T12:31:33Z</time>
      </trkpt>
      <trkpt lat="44.89028" lon="3.98568">
        <ele>1098</ele>
        <time>2021-04-29T12:31:34Z</time>
      </trkpt>
      <trkpt lat="44.89023" lon="3.98572">
        <ele>1098</ele>
        <time>2021-04-29T12:31:35Z</time>
      </trkpt>
      <trkpt lat="44.89019" lon="3.98578">
        <ele>1098</ele>
        <time>2021-04-29T12:31:36Z</time>
      </trkpt>
      <trkpt lat="44.89016" lon="3.98585">
        <ele>1097</ele>
        <time>2021-04-29T12:31:37Z</time>
      </trkpt>
      <trkpt lat="44.89011" lon="3.9859">
        <ele>1097</ele>
        <time>2021-04-29T12:31:38Z</time>
      </trkpt>
      <trkpt lat="44.89006" lon="3.98591">
        <ele>1097</ele>
        <time>2021-04-29T12:31:39Z</time>
      </trkpt>
      <trkpt lat="44.89001" lon="3.98588">
        <ele>1096</ele>
        <time>2021-04-29T12:31:40Z</time>
      </trkpt>
      <trkpt lat="44.88994" lon="3.98575">
        <ele>1096</ele>
        <time>2021-04-29T12:31:41Z</time>
      </trkpt>
      <trkpt lat="44.88993" lon="3.98568">
        <ele>1096</ele>
        <time>2021-04-29T12:31:43Z</time>
      </trkpt>
      <trkpt lat="44.88992" lon="3.98561">
        <ele>1096</ele>
        <time>2021-04-29T12:31:44Z</time>
      </trkpt>
      <trkpt lat="44.88992" lon="3.98553">
        <ele>1095</ele>
        <time>2021-04-29T12:31:45Z</time>
      </trkpt>
      <trkpt lat="44.88992" lon="3.98546">
        <ele>1095</ele>
        <time>2021-04-29T12:31:46Z</time>
      </trkpt>
      <trkpt lat="44.88993" lon="3.98538">
        <ele>1095</ele>
        <time>2021-04-29T12:31:47Z</time>
      </trkpt>
      <trkpt lat="44.88994" lon="3.98529">
        <ele>1094</ele>
        <time>2021-04-29T12:31:48Z</time>
      </trkpt>
      <trkpt lat="44.88995" lon="3.98521">
        <ele>1094</ele>
        <time>2021-04-29T12:31:49Z</time>
      </trkpt>
      <trkpt lat="44.88995" lon="3.98512">
        <ele>1093</ele>
        <time>2021-04-29T12:31:50Z</time>
      </trkpt>
      <trkpt lat="44.88995" lon="3.98503">
        <ele>1093</ele>
        <time>2021-04-29T12:31:51Z</time>
      </trkpt>
      <trkpt lat="44.88995" lon="3.98494">
        <ele>1093</ele>
        <time>2021-04-29T12:31:52Z</time>
      </trkpt>
      <trkpt lat="44.88993" lon="3.98486">
        <ele>1092</ele>
        <time>2021-04-29T12:31:53Z</time>
      </trkpt>
      <trkpt lat="44.8899" lon="3.98478">
        <ele>1092</ele>
        <time>2021-04-29T12:31:54Z</time>
      </trkpt>
      <trkpt lat="44.88985" lon="3.98471">
        <ele>1092</ele>
        <time>2021-04-29T12:31:55Z</time>
      </trkpt>
      <trkpt lat="44.88979" lon="3.98465">
        <ele>1092</ele>
        <time>2021-04-29T12:31:56Z</time>
      </trkpt>
      <trkpt lat="44.88972" lon="3.98458">
        <ele>1092</ele>
        <time>2021-04-29T12:31:57Z</time>
      </trkpt>
      <trkpt lat="44.88965" lon="3.98452">
        <ele>1092</ele>
        <time>2021-04-29T12:31:58Z</time>
      </trkpt>
      <trkpt lat="44.88958" lon="3.98446">
        <ele>1091</ele>
        <time>2021-04-29T12:31:59Z</time>
      </trkpt>
      <trkpt lat="44.8894" lon="3.98438">
        <ele>1091</ele>
        <time>2021-04-29T12:32:00Z</time>
      </trkpt>
      <trkpt lat="44.8893" lon="3.98438">
        <ele>1090</ele>
        <time>2021-04-29T12:32:02Z</time>
      </trkpt>
      <trkpt lat="44.8892" lon="3.98439">
        <ele>1089</ele>
        <time>2021-04-29T12:32:03Z</time>
      </trkpt>
      <trkpt lat="44.8891" lon="3.98441">
        <ele>1087</ele>
        <time>2021-04-29T12:32:04Z</time>
      </trkpt>
      <trkpt lat="44.88899" lon="3.98443">
        <ele>1087</ele>
        <time>2021-04-29T12:32:05Z</time>
      </trkpt>
      <trkpt lat="44.88889" lon="3.98445">
        <ele>1086</ele>
        <time>2021-04-29T12:32:06Z</time>
      </trkpt>
      <trkpt lat="44.88879" lon="3.98447">
        <ele>1085</ele>
        <time>2021-04-29T12:32:07Z</time>
      </trkpt>
      <trkpt lat="44.88869" lon="3.98448">
        <ele>1084</ele>
        <time>2021-04-29T12:32:08Z</time>
      </trkpt>
      <trkpt lat="44.88859" lon="3.98449">
        <ele>1084</ele>
        <time>2021-04-29T12:32:09Z</time>
      </trkpt>
      <trkpt lat="44.88849" lon="3.98449">
        <ele>1083</ele>
        <time>2021-04-29T12:32:10Z</time>
      </trkpt>
      <trkpt lat="44.8884" lon="3.98447">
        <ele>1082</ele>
        <time>2021-04-29T12:32:11Z</time>
      </trkpt>
      <trkpt lat="44.88831" lon="3.98445">
        <ele>1082</ele>
        <time>2021-04-29T12:32:12Z</time>
      </trkpt>
      <trkpt lat="44.88822" lon="3.98441">
        <ele>1081</ele>
        <time>2021-04-29T12:32:13Z</time>
      </trkpt>
      <trkpt lat="44.88814" lon="3.98438">
        <ele>1081</ele>
        <time>2021-04-29T12:32:14Z</time>
      </trkpt>
      <trkpt lat="44.88806" lon="3.98434">
        <ele>1080</ele>
        <time>2021-04-29T12:32:15Z</time>
      </trkpt>
      <trkpt lat="44.88799" lon="3.9843">
        <ele>1080</ele>
        <time>2021-04-29T12:32:16Z</time>
      </trkpt>
      <trkpt lat="44.88792" lon="3.98426">
        <ele>1080</ele>
        <time>2021-04-29T12:32:17Z</time>
      </trkpt>
      <trkpt lat="44.88786" lon="3.98422">
        <ele>1079</ele>
        <time>2021-04-29T12:32:18Z</time>
      </trkpt>
      <trkpt lat="44.88775" lon="3.98413">
        <ele>1079</ele>
        <time>2021-04-29T12:32:19Z</time>
      </trkpt>
      <trkpt lat="44.8877" lon="3.98408">
        <ele>1078</ele>
        <time>2021-04-29T12:32:21Z</time>
      </trkpt>
      <trkpt lat="44.88766" lon="3.98404">
        <ele>1078</ele>
        <time>2021-04-29T12:32:22Z</time>
      </trkpt>
      <trkpt lat="44.88757" lon="3.98394">
        <ele>1078</ele>
        <time>2021-04-29T12:32:23Z</time>
      </trkpt>
      <trkpt lat="44.88753" lon="3.98389">
        <ele>1078</ele>
        <time>2021-04-29T12:32:25Z</time>
      </trkpt>
      <trkpt lat="44.88749" lon="3.98384">
        <ele>1078</ele>
        <time>2021-04-29T12:32:26Z</time>
      </trkpt>
      <trkpt lat="44.88745" lon="3.9838">
        <ele>1078</ele>
        <time>2021-04-29T12:32:27Z</time>
      </trkpt>
      <trkpt lat="44.88741" lon="3.98376">
        <ele>1078</ele>
        <time>2021-04-29T12:32:28Z</time>
      </trkpt>
      <trkpt lat="44.88737" lon="3.98372">
        <ele>1078</ele>
        <time>2021-04-29T12:32:29Z</time>
      </trkpt>
      <trkpt lat="44.88733" lon="3.98367">
        <ele>1078</ele>
        <time>2021-04-29T12:32:30Z</time>
      </trkpt>
      <trkpt lat="44.8873" lon="3.98363">
        <ele>1079</ele>
        <time>2021-04-29T12:32:31Z</time>
      </trkpt>
      <trkpt lat="44.88726" lon="3.98358">
        <ele>1079</ele>
        <time>2021-04-29T12:32:32Z</time>
      </trkpt>
      <trkpt lat="44.88721" lon="3.98354">
        <ele>1078</ele>
        <time>2021-04-29T12:32:33Z</time>
      </trkpt>
      <trkpt lat="44.88717" lon="3.9835">
        <ele>1078</ele>
        <time>2021-04-29T12:32:34Z</time>
      </trkpt>
      <trkpt lat="44.88712" lon="3.98346">
        <ele>1078</ele>
        <time>2021-04-29T12:32:35Z</time>
      </trkpt>
      <trkpt lat="44.88706" lon="3.98342">
        <ele>1077</ele>
        <time>2021-04-29T12:32:36Z</time>
      </trkpt>
      <trkpt lat="44.88701" lon="3.98338">
        <ele>1077</ele>
        <time>2021-04-29T12:32:37Z</time>
      </trkpt>
      <trkpt lat="44.88689" lon="3.98331">
        <ele>1077</ele>
        <time>2021-04-29T12:32:38Z</time>
      </trkpt>
      <trkpt lat="44.88683" lon="3.98328">
        <ele>1076</ele>
        <time>2021-04-29T12:32:40Z</time>
      </trkpt>
      <trkpt lat="44.88676" lon="3.98324">
        <ele>1076</ele>
        <time>2021-04-29T12:32:41Z</time>
      </trkpt>
      <trkpt lat="44.8867" lon="3.98321">
        <ele>1076</ele>
        <time>2021-04-29T12:32:42Z</time>
      </trkpt>
      <trkpt lat="44.88664" lon="3.98317">
        <ele>1076</ele>
        <time>2021-04-29T12:32:43Z</time>
      </trkpt>
      <trkpt lat="44.88658" lon="3.98312">
        <ele>1076</ele>
        <time>2021-04-29T12:32:44Z</time>
      </trkpt>
      <trkpt lat="44.88652" lon="3.98308">
        <ele>1076</ele>
        <time>2021-04-29T12:32:45Z</time>
      </trkpt>
      <trkpt lat="44.88646" lon="3.98303">
        <ele>1076</ele>
        <time>2021-04-29T12:32:46Z</time>
      </trkpt>
      <trkpt lat="44.8864" lon="3.98298">
        <ele>1075</ele>
        <time>2021-04-29T12:32:47Z</time>
      </trkpt>
      <trkpt lat="44.88634" lon="3.98293">
        <ele>1075</ele>
        <time>2021-04-29T12:32:48Z</time>
      </trkpt>
      <trkpt lat="44.88628" lon="3.98289">
        <ele>1075</ele>
        <time>2021-04-29T12:32:49Z</time>
      </trkpt>
      <trkpt lat="44.88621" lon="3.98284">
        <ele>1075</ele>
        <time>2021-04-29T12:32:50Z</time>
      </trkpt>
      <trkpt lat="44.88614" lon="3.98278">
        <ele>1075</ele>
        <time>2021-04-29T12:32:51Z</time>
      </trkpt>
      <trkpt lat="44.88608" lon="3.98272">
        <ele>1075</ele>
        <time>2021-04-29T12:32:52Z</time>
      </trkpt>
      <trkpt lat="44.88601" lon="3.98266">
        <ele>1075</ele>
        <time>2021-04-29T12:32:53Z</time>
      </trkpt>
      <trkpt lat="44.88595" lon="3.98258">
        <ele>1074</ele>
        <time>2021-04-29T12:32:54Z</time>
      </trkpt>
      <trkpt lat="44.88589" lon="3.98251">
        <ele>1074</ele>
        <time>2021-04-29T12:32:55Z</time>
      </trkpt>
      <trkpt lat="44.88583" lon="3.98244">
        <ele>1074</ele>
        <time>2021-04-29T12:32:56Z</time>
      </trkpt>
      <trkpt lat="44.88572" lon="3.98229">
        <ele>1073</ele>
        <time>2021-04-29T12:32:57Z</time>
      </trkpt>
      <trkpt lat="44.88566" lon="3.98222">
        <ele>1073</ele>
        <time>2021-04-29T12:32:59Z</time>
      </trkpt>
      <trkpt lat="44.8856" lon="3.98215">
        <ele>1072</ele>
        <time>2021-04-29T12:33:00Z</time>
      </trkpt>
      <trkpt lat="44.88555" lon="3.98208">
        <ele>1072</ele>
        <time>2021-04-29T12:33:01Z</time>
      </trkpt>
      <trkpt lat="44.88549" lon="3.98202">
        <ele>1072</ele>
        <time>2021-04-29T12:33:02Z</time>
      </trkpt>
      <trkpt lat="44.88544" lon="3.98195">
        <ele>1071</ele>
        <time>2021-04-29T12:33:03Z</time>
      </trkpt>
      <trkpt lat="44.88539" lon="3.98189">
        <ele>1071</ele>
        <time>2021-04-29T12:33:04Z</time>
      </trkpt>
      <trkpt lat="44.88534" lon="3.98182">
        <ele>1071</ele>
        <time>2021-04-29T12:33:05Z</time>
      </trkpt>
      <trkpt lat="44.88529" lon="3.98176">
        <ele>1071</ele>
        <time>2021-04-29T12:33:06Z</time>
      </trkpt>
      <trkpt lat="44.88524" lon="3.98171">
        <ele>1071</ele>
        <time>2021-04-29T12:33:07Z</time>
      </trkpt>
      <trkpt lat="44.8852" lon="3.98165">
        <ele>1071</ele>
        <time>2021-04-29T12:33:08Z</time>
      </trkpt>
      <trkpt lat="44.88516" lon="3.9816">
        <ele>1071</ele>
        <time>2021-04-29T12:33:09Z</time>
      </trkpt>
      <trkpt lat="44.88512" lon="3.98154">
        <ele>1071</ele>
        <time>2021-04-29T12:33:10Z</time>
      </trkpt>
      <trkpt lat="44.88509" lon="3.98148">
        <ele>1071</ele>
        <time>2021-04-29T12:33:11Z</time>
      </trkpt>
      <trkpt lat="44.88508" lon="3.9814">
        <ele>1071</ele>
        <time>2021-04-29T12:33:12Z</time>
      </trkpt>
      <trkpt lat="44.88509" lon="3.98131">
        <ele>1070</ele>
        <time>2021-04-29T12:33:13Z</time>
      </trkpt>
      <trkpt lat="44.88509" lon="3.98122">
        <ele>1070</ele>
        <time>2021-04-29T12:33:14Z</time>
      </trkpt>
      <trkpt lat="44.8851" lon="3.98112">
        <ele>1069</ele>
        <time>2021-04-29T12:33:15Z</time>
      </trkpt>
      <trkpt lat="44.88508" lon="3.98092">
        <ele>1069</ele>
        <time>2021-04-29T12:33:16Z</time>
      </trkpt>
      <trkpt lat="44.88506" lon="3.98082">
        <ele>1069</ele>
        <time>2021-04-29T12:33:18Z</time>
      </trkpt>
      <trkpt lat="44.88504" lon="3.98073">
        <ele>1068</ele>
        <time>2021-04-29T12:33:19Z</time>
      </trkpt>
      <trkpt lat="44.88502" lon="3.98063">
        <ele>1068</ele>
        <time>2021-04-29T12:33:20Z</time>
      </trkpt>
      <trkpt lat="44.88499" lon="3.98053">
        <ele>1068</ele>
        <time>2021-04-29T12:33:21Z</time>
      </trkpt>
      <trkpt lat="44.88496" lon="3.98044">
        <ele>1067</ele>
        <time>2021-04-29T12:33:22Z</time>
      </trkpt>
      <trkpt lat="44.88492" lon="3.98036">
        <ele>1067</ele>
        <time>2021-04-29T12:33:23Z</time>
      </trkpt>
      <trkpt lat="44.88487" lon="3.98028">
        <ele>1066</ele>
        <time>2021-04-29T12:33:24Z</time>
      </trkpt>
      <trkpt lat="44.88482" lon="3.98021">
        <ele>1066</ele>
        <time>2021-04-29T12:33:25Z</time>
      </trkpt>
      <trkpt lat="44.88473" lon="3.98005">
        <ele>1066</ele>
        <time>2021-04-29T12:33:26Z</time>
      </trkpt>
      <trkpt lat="44.88469" lon="3.97996">
        <ele>1065</ele>
        <time>2021-04-29T12:33:28Z</time>
      </trkpt>
      <trkpt lat="44.88467" lon="3.97987">
        <ele>1065</ele>
        <time>2021-04-29T12:33:29Z</time>
      </trkpt>
      <trkpt lat="44.88465" lon="3.97977">
        <ele>1065</ele>
        <time>2021-04-29T12:33:30Z</time>
      </trkpt>
      <trkpt lat="44.88464" lon="3.97967">
        <ele>1065</ele>
        <time>2021-04-29T12:33:31Z</time>
      </trkpt>
      <trkpt lat="44.88463" lon="3.97956">
        <ele>1065</ele>
        <time>2021-04-29T12:33:32Z</time>
      </trkpt>
      <trkpt lat="44.88461" lon="3.97945">
        <ele>1064</ele>
        <time>2021-04-29T12:33:33Z</time>
      </trkpt>
      <trkpt lat="44.8846" lon="3.97934">
        <ele>1064</ele>
        <time>2021-04-29T12:33:34Z</time>
      </trkpt>
      <trkpt lat="44.88454" lon="3.97915">
        <ele>1063</ele>
        <time>2021-04-29T12:33:35Z</time>
      </trkpt>
      <trkpt lat="44.88451" lon="3.97905">
        <ele>1063</ele>
        <time>2021-04-29T12:33:37Z</time>
      </trkpt>
      <trkpt lat="44.88448" lon="3.97895">
        <ele>1063</ele>
        <time>2021-04-29T12:33:38Z</time>
      </trkpt>
      <trkpt lat="44.88447" lon="3.97886">
        <ele>1063</ele>
        <time>2021-04-29T12:33:39Z</time>
      </trkpt>
      <trkpt lat="44.88448" lon="3.97876">
        <ele>1063</ele>
        <time>2021-04-29T12:33:40Z</time>
      </trkpt>
      <trkpt lat="44.88449" lon="3.97867">
        <ele>1062</ele>
        <time>2021-04-29T12:33:41Z</time>
      </trkpt>
      <trkpt lat="44.8845" lon="3.97858">
        <ele>1062</ele>
        <time>2021-04-29T12:33:42Z</time>
      </trkpt>
      <trkpt lat="44.88453" lon="3.9785">
        <ele>1062</ele>
        <time>2021-04-29T12:33:43Z</time>
      </trkpt>
      <trkpt lat="44.88456" lon="3.97842">
        <ele>1062</ele>
        <time>2021-04-29T12:33:44Z</time>
      </trkpt>
      <trkpt lat="44.88459" lon="3.97835">
        <ele>1062</ele>
        <time>2021-04-29T12:33:45Z</time>
      </trkpt>
      <trkpt lat="44.88464" lon="3.97828">
        <ele>1062</ele>
        <time>2021-04-29T12:33:46Z</time>
      </trkpt>
      <trkpt lat="44.88469" lon="3.97823">
        <ele>1062</ele>
        <time>2021-04-29T12:33:47Z</time>
      </trkpt>
      <trkpt lat="44.88474" lon="3.97819">
        <ele>1062</ele>
        <time>2021-04-29T12:33:48Z</time>
      </trkpt>
      <trkpt lat="44.88481" lon="3.97816">
        <ele>1062</ele>
        <time>2021-04-29T12:33:49Z</time>
      </trkpt>
      <trkpt lat="44.88487" lon="3.97813">
        <ele>1062</ele>
        <time>2021-04-29T12:33:50Z</time>
      </trkpt>
      <trkpt lat="44.88494" lon="3.97812">
        <ele>1061</ele>
        <time>2021-04-29T12:33:51Z</time>
      </trkpt>
      <trkpt lat="44.88501" lon="3.9781">
        <ele>1061</ele>
        <time>2021-04-29T12:33:52Z</time>
      </trkpt>
      <trkpt lat="44.88507" lon="3.97809">
        <ele>1061</ele>
        <time>2021-04-29T12:33:53Z</time>
      </trkpt>
      <trkpt lat="44.88515" lon="3.97803">
        <ele>1061</ele>
        <time>2021-04-29T12:33:54Z</time>
      </trkpt>
      <trkpt lat="44.88516" lon="3.97798">
        <ele>1061</ele>
        <time>2021-04-29T12:33:56Z</time>
      </trkpt>
      <trkpt lat="44.88516" lon="3.97792">
        <ele>1061</ele>
        <time>2021-04-29T12:33:57Z</time>
      </trkpt>
      <trkpt lat="44.88515" lon="3.97786">
        <ele>1061</ele>
        <time>2021-04-29T12:33:58Z</time>
      </trkpt>
      <trkpt lat="44.88514" lon="3.9778">
        <ele>1061</ele>
        <time>2021-04-29T12:33:59Z</time>
      </trkpt>
      <trkpt lat="44.88513" lon="3.97773">
        <ele>1060</ele>
        <time>2021-04-29T12:34:00Z</time>
      </trkpt>
      <trkpt lat="44.88511" lon="3.97766">
        <ele>1060</ele>
        <time>2021-04-29T12:34:01Z</time>
      </trkpt>
      <trkpt lat="44.8851" lon="3.97759">
        <ele>1060</ele>
        <time>2021-04-29T12:34:02Z</time>
      </trkpt>
      <trkpt lat="44.88509" lon="3.97751">
        <ele>1060</ele>
        <time>2021-04-29T12:34:03Z</time>
      </trkpt>
      <trkpt lat="44.88508" lon="3.97743">
        <ele>1060</ele>
        <time>2021-04-29T12:34:04Z</time>
      </trkpt>
      <trkpt lat="44.88509" lon="3.97735">
        <ele>1059</ele>
        <time>2021-04-29T12:34:05Z</time>
      </trkpt>
      <trkpt lat="44.88511" lon="3.97727">
        <ele>1059</ele>
        <time>2021-04-29T12:34:06Z</time>
      </trkpt>
      <trkpt lat="44.88513" lon="3.97719">
        <ele>1059</ele>
        <time>2021-04-29T12:34:07Z</time>
      </trkpt>
      <trkpt lat="44.88515" lon="3.97711">
        <ele>1059</ele>
        <time>2021-04-29T12:34:08Z</time>
      </trkpt>
      <trkpt lat="44.88515" lon="3.97703">
        <ele>1058</ele>
        <time>2021-04-29T12:34:09Z</time>
      </trkpt>
      <trkpt lat="44.88515" lon="3.97694">
        <ele>1058</ele>
        <time>2021-04-29T12:34:10Z</time>
      </trkpt>
      <trkpt lat="44.88514" lon="3.97685">
        <ele>1058</ele>
        <time>2021-04-29T12:34:11Z</time>
      </trkpt>
      <trkpt lat="44.88513" lon="3.97676">
        <ele>1058</ele>
        <time>2021-04-29T12:34:12Z</time>
      </trkpt>
      <trkpt lat="44.88511" lon="3.97656">
        <ele>1057</ele>
        <time>2021-04-29T12:34:13Z</time>
      </trkpt>
      <trkpt lat="44.88511" lon="3.97647">
        <ele>1057</ele>
        <time>2021-04-29T12:34:15Z</time>
      </trkpt>
      <trkpt lat="44.8851" lon="3.97637">
        <ele>1057</ele>
        <time>2021-04-29T12:34:16Z</time>
      </trkpt>
      <trkpt lat="44.88509" lon="3.97626">
        <ele>1057</ele>
        <time>2021-04-29T12:34:17Z</time>
      </trkpt>
      <trkpt lat="44.88508" lon="3.97617">
        <ele>1057</ele>
        <time>2021-04-29T12:34:18Z</time>
      </trkpt>
      <trkpt lat="44.88508" lon="3.97608">
        <ele>1056</ele>
        <time>2021-04-29T12:34:19Z</time>
      </trkpt>
      <trkpt lat="44.88509" lon="3.97599">
        <ele>1056</ele>
        <time>2021-04-29T12:34:20Z</time>
      </trkpt>
      <trkpt lat="44.8851" lon="3.97591">
        <ele>1056</ele>
        <time>2021-04-29T12:34:21Z</time>
      </trkpt>
      <trkpt lat="44.88512" lon="3.97583">
        <ele>1056</ele>
        <time>2021-04-29T12:34:22Z</time>
      </trkpt>
      <trkpt lat="44.88514" lon="3.97575">
        <ele>1056</ele>
        <time>2021-04-29T12:34:23Z</time>
      </trkpt>
      <trkpt lat="44.88517" lon="3.97568">
        <ele>1056</ele>
        <time>2021-04-29T12:34:24Z</time>
      </trkpt>
      <trkpt lat="44.88519" lon="3.9756">
        <ele>1056</ele>
        <time>2021-04-29T12:34:25Z</time>
      </trkpt>
      <trkpt lat="44.8852" lon="3.97552">
        <ele>1056</ele>
        <time>2021-04-29T12:34:26Z</time>
      </trkpt>
      <trkpt lat="44.8852" lon="3.97543">
        <ele>1055</ele>
        <time>2021-04-29T12:34:27Z</time>
      </trkpt>
      <trkpt lat="44.8852" lon="3.97535">
        <ele>1055</ele>
        <time>2021-04-29T12:34:28Z</time>
      </trkpt>
      <trkpt lat="44.88519" lon="3.97527">
        <ele>1055</ele>
        <time>2021-04-29T12:34:29Z</time>
      </trkpt>
      <trkpt lat="44.88517" lon="3.97519">
        <ele>1055</ele>
        <time>2021-04-29T12:34:30Z</time>
      </trkpt>
      <trkpt lat="44.88515" lon="3.97511">
        <ele>1055</ele>
        <time>2021-04-29T12:34:31Z</time>
      </trkpt>
      <trkpt lat="44.88512" lon="3.97497">
        <ele>1055</ele>
        <time>2021-04-29T12:34:32Z</time>
      </trkpt>
      <trkpt lat="44.8851" lon="3.9749">
        <ele>1054</ele>
        <time>2021-04-29T12:34:34Z</time>
      </trkpt>
      <trkpt lat="44.88509" lon="3.97483">
        <ele>1054</ele>
        <time>2021-04-29T12:34:35Z</time>
      </trkpt>
      <trkpt lat="44.88509" lon="3.97476">
        <ele>1054</ele>
        <time>2021-04-29T12:34:36Z</time>
      </trkpt>
      <trkpt lat="44.8851" lon="3.9747">
        <ele>1054</ele>
        <time>2021-04-29T12:34:37Z</time>
      </trkpt>
      <trkpt lat="44.88512" lon="3.97464">
        <ele>1054</ele>
        <time>2021-04-29T12:34:38Z</time>
      </trkpt>
      <trkpt lat="44.88515" lon="3.97458">
        <ele>1054</ele>
        <time>2021-04-29T12:34:39Z</time>
      </trkpt>
      <trkpt lat="44.88519" lon="3.97453">
        <ele>1055</ele>
        <time>2021-04-29T12:34:40Z</time>
      </trkpt>
      <trkpt lat="44.88523" lon="3.97449">
        <ele>1055</ele>
        <time>2021-04-29T12:34:41Z</time>
      </trkpt>
      <trkpt lat="44.88528" lon="3.97445">
        <ele>1055</ele>
        <time>2021-04-29T12:34:42Z</time>
      </trkpt>
      <trkpt lat="44.88533" lon="3.97441">
        <ele>1056</ele>
        <time>2021-04-29T12:34:43Z</time>
      </trkpt>
      <trkpt lat="44.88538" lon="3.97438">
        <ele>1056</ele>
        <time>2021-04-29T12:34:44Z</time>
      </trkpt>
      <trkpt lat="44.88543" lon="3.97435">
        <ele>1056</ele>
        <time>2021-04-29T12:34:45Z</time>
      </trkpt>
      <trkpt lat="44.88547" lon="3.97429">
        <ele>1055</ele>
        <time>2021-04-29T12:34:46Z</time>
      </trkpt>
      <trkpt lat="44.8855" lon="3.97423">
        <ele>1055</ele>
        <time>2021-04-29T12:34:47Z</time>
      </trkpt>
      <trkpt lat="44.88551" lon="3.97415">
        <ele>1055</ele>
        <time>2021-04-29T12:34:48Z</time>
      </trkpt>
      <trkpt lat="44.88551" lon="3.97406">
        <ele>1054</ele>
        <time>2021-04-29T12:34:49Z</time>
      </trkpt>
      <trkpt lat="44.8855" lon="3.97397">
        <ele>1054</ele>
        <time>2021-04-29T12:34:50Z</time>
      </trkpt>
      <trkpt lat="44.88548" lon="3.97379">
        <ele>1053</ele>
        <time>2021-04-29T12:34:51Z</time>
      </trkpt>
      <trkpt lat="44.88546" lon="3.97371">
        <ele>1053</ele>
        <time>2021-04-29T12:34:53Z</time>
      </trkpt>
      <trkpt lat="44.88543" lon="3.97365">
        <ele>1053</ele>
        <time>2021-04-29T12:34:54Z</time>
      </trkpt>
      <trkpt lat="44.8854" lon="3.97358">
        <ele>1053</ele>
        <time>2021-04-29T12:34:55Z</time>
      </trkpt>
      <trkpt lat="44.88536" lon="3.9735">
        <ele>1053</ele>
        <time>2021-04-29T12:34:56Z</time>
      </trkpt>
      <trkpt lat="44.88534" lon="3.97342">
        <ele>1053</ele>
        <time>2021-04-29T12:34:57Z</time>
      </trkpt>
      <trkpt lat="44.88532" lon="3.97335">
        <ele>1054</ele>
        <time>2021-04-29T12:34:58Z</time>
      </trkpt>
      <trkpt lat="44.8853" lon="3.97326">
        <ele>1054</ele>
        <time>2021-04-29T12:34:59Z</time>
      </trkpt>
      <trkpt lat="44.88531" lon="3.97317">
        <ele>1054</ele>
        <time>2021-04-29T12:35:00Z</time>
      </trkpt>
      <trkpt lat="44.88533" lon="3.9731">
        <ele>1054</ele>
        <time>2021-04-29T12:35:01Z</time>
      </trkpt>
      <trkpt lat="44.88538" lon="3.97304">
        <ele>1054</ele>
        <time>2021-04-29T12:35:02Z</time>
      </trkpt>
      <trkpt lat="44.88543" lon="3.973">
        <ele>1054</ele>
        <time>2021-04-29T12:35:03Z</time>
      </trkpt>
      <trkpt lat="44.8855" lon="3.97297">
        <ele>1054</ele>
        <time>2021-04-29T12:35:04Z</time>
      </trkpt>
      <trkpt lat="44.88556" lon="3.97295">
        <ele>1054</ele>
        <time>2021-04-29T12:35:05Z</time>
      </trkpt>
      <trkpt lat="44.88562" lon="3.97291">
        <ele>1054</ele>
        <time>2021-04-29T12:35:06Z</time>
      </trkpt>
      <trkpt lat="44.88567" lon="3.97287">
        <ele>1054</ele>
        <time>2021-04-29T12:35:07Z</time>
      </trkpt>
      <trkpt lat="44.88571" lon="3.97282">
        <ele>1054</ele>
        <time>2021-04-29T12:35:08Z</time>
      </trkpt>
      <trkpt lat="44.88574" lon="3.97276">
        <ele>1053</ele>
        <time>2021-04-29T12:35:09Z</time>
      </trkpt>
      <trkpt lat="44.88579" lon="3.97264">
        <ele>1053</ele>
        <time>2021-04-29T12:35:10Z</time>
      </trkpt>
      <trkpt lat="44.88582" lon="3.97258">
        <ele>1053</ele>
        <time>2021-04-29T12:35:12Z</time>
      </trkpt>
      <trkpt lat="44.88584" lon="3.97252">
        <ele>1052</ele>
        <time>2021-04-29T12:35:13Z</time>
      </trkpt>
      <trkpt lat="44.88584" lon="3.97246">
        <ele>1052</ele>
        <time>2021-04-29T12:35:14Z</time>
      </trkpt>
      <trkpt lat="44.88583" lon="3.97241">
        <ele>1053</ele>
        <time>2021-04-29T12:35:15Z</time>
      </trkpt>
      <trkpt lat="44.88581" lon="3.97235">
        <ele>1053</ele>
        <time>2021-04-29T12:35:16Z</time>
      </trkpt>
      <trkpt lat="44.88578" lon="3.97229">
        <ele>1053</ele>
        <time>2021-04-29T12:35:17Z</time>
      </trkpt>
      <trkpt lat="44.88576" lon="3.97224">
        <ele>1053</ele>
        <time>2021-04-29T12:35:18Z</time>
      </trkpt>
      <trkpt lat="44.88573" lon="3.97218">
        <ele>1053</ele>
        <time>2021-04-29T12:35:19Z</time>
      </trkpt>
      <trkpt lat="44.88571" lon="3.97212">
        <ele>1053</ele>
        <time>2021-04-29T12:35:20Z</time>
      </trkpt>
      <trkpt lat="44.88568" lon="3.97206">
        <ele>1053</ele>
        <time>2021-04-29T12:35:21Z</time>
      </trkpt>
      <trkpt lat="44.88567" lon="3.972">
        <ele>1053</ele>
        <time>2021-04-29T12:35:22Z</time>
      </trkpt>
      <trkpt lat="44.88564" lon="3.97195">
        <ele>1053</ele>
        <time>2021-04-29T12:35:23Z</time>
      </trkpt>
      <trkpt lat="44.88562" lon="3.97189">
        <ele>1053</ele>
        <time>2021-04-29T12:35:24Z</time>
      </trkpt>
      <trkpt lat="44.88556" lon="3.97178">
        <ele>1053</ele>
        <time>2021-04-29T12:35:25Z</time>
      </trkpt>
      <trkpt lat="44.88554" lon="3.97173">
        <ele>1053</ele>
        <time>2021-04-29T12:35:27Z</time>
      </trkpt>
      <trkpt lat="44.8855" lon="3.9716">
        <ele>1053</ele>
        <time>2021-04-29T12:35:29Z</time>
      </trkpt>
      <trkpt lat="44.88547" lon="3.97145">
        <ele>1053</ele>
        <time>2021-04-29T12:35:31Z</time>
      </trkpt>
      <trkpt lat="44.88541" lon="3.97128">
        <ele>1053</ele>
        <time>2021-04-29T12:35:33Z</time>
      </trkpt>
      <trkpt lat="44.88538" lon="3.97119">
        <ele>1053</ele>
        <time>2021-04-29T12:35:34Z</time>
      </trkpt>
      <trkpt lat="44.88535" lon="3.97109">
        <ele>1052</ele>
        <time>2021-04-29T12:35:35Z</time>
      </trkpt>
      <trkpt lat="44.88534" lon="3.97098">
        <ele>1052</ele>
        <time>2021-04-29T12:35:36Z</time>
      </trkpt>
      <trkpt lat="44.88533" lon="3.97087">
        <ele>1052</ele>
        <time>2021-04-29T12:35:37Z</time>
      </trkpt>
      <trkpt lat="44.88533" lon="3.97077">
        <ele>1052</ele>
        <time>2021-04-29T12:35:38Z</time>
      </trkpt>
      <trkpt lat="44.88533" lon="3.97069">
        <ele>1052</ele>
        <time>2021-04-29T12:35:39Z</time>
      </trkpt>
      <trkpt lat="44.88534" lon="3.9706">
        <ele>1052</ele>
        <time>2021-04-29T12:35:40Z</time>
      </trkpt>
      <trkpt lat="44.88535" lon="3.97051">
        <ele>1052</ele>
        <time>2021-04-29T12:35:41Z</time>
      </trkpt>
      <trkpt lat="44.8854" lon="3.97031">
        <ele>1052</ele>
        <time>2021-04-29T12:35:43Z</time>
      </trkpt>
      <trkpt lat="44.88544" lon="3.9702">
        <ele>1052</ele>
        <time>2021-04-29T12:35:44Z</time>
      </trkpt>
      <trkpt lat="44.88552" lon="3.97">
        <ele>1051</ele>
        <time>2021-04-29T12:35:46Z</time>
      </trkpt>
      <trkpt lat="44.88561" lon="3.9698">
        <ele>1051</ele>
        <time>2021-04-29T12:35:48Z</time>
      </trkpt>
      <trkpt lat="44.88568" lon="3.96957">
        <ele>1051</ele>
        <time>2021-04-29T12:35:50Z</time>
      </trkpt>
      <trkpt lat="44.88575" lon="3.96936">
        <ele>1050</ele>
        <time>2021-04-29T12:35:52Z</time>
      </trkpt>
      <trkpt lat="44.8858" lon="3.96925">
        <ele>1050</ele>
        <time>2021-04-29T12:35:53Z</time>
      </trkpt>
      <trkpt lat="44.88587" lon="3.96913">
        <ele>1048</ele>
        <time>2021-04-29T12:35:54Z</time>
      </trkpt>
      <trkpt lat="44.88595" lon="3.96898">
        <ele>1047</ele>
        <time>2021-04-29T12:35:55Z</time>
      </trkpt>
      <trkpt lat="44.88599" lon="3.96887">
        <ele>1046</ele>
        <time>2021-04-29T12:35:56Z</time>
      </trkpt>
      <trkpt lat="44.88603" lon="3.96875">
        <ele>1045</ele>
        <time>2021-04-29T12:35:57Z</time>
      </trkpt>
      <trkpt lat="44.88606" lon="3.96866">
        <ele>1044</ele>
        <time>2021-04-29T12:35:58Z</time>
      </trkpt>
      <trkpt lat="44.8861" lon="3.96858">
        <ele>1043</ele>
        <time>2021-04-29T12:35:59Z</time>
      </trkpt>
      <trkpt lat="44.88613" lon="3.96851">
        <ele>1042</ele>
        <time>2021-04-29T12:36:00Z</time>
      </trkpt>
      <trkpt lat="44.88616" lon="3.96845">
        <ele>1041</ele>
        <time>2021-04-29T12:36:01Z</time>
      </trkpt>
      <trkpt lat="44.88619" lon="3.96839">
        <ele>1040</ele>
        <time>2021-04-29T12:36:02Z</time>
      </trkpt>
      <trkpt lat="44.88622" lon="3.96834">
        <ele>1040</ele>
        <time>2021-04-29T12:36:03Z</time>
      </trkpt>
      <trkpt lat="44.88625" lon="3.96828">
        <ele>1039</ele>
        <time>2021-04-29T12:36:04Z</time>
      </trkpt>
      <trkpt lat="44.88628" lon="3.96821">
        <ele>1038</ele>
        <time>2021-04-29T12:36:05Z</time>
      </trkpt>
      <trkpt lat="44.8863" lon="3.96815">
        <ele>1038</ele>
        <time>2021-04-29T12:36:06Z</time>
      </trkpt>
      <trkpt lat="44.88628" lon="3.96803">
        <ele>1037</ele>
        <time>2021-04-29T12:36:07Z</time>
      </trkpt>
      <trkpt lat="44.88624" lon="3.96802">
        <ele>1035</ele>
        <time>2021-04-29T12:36:09Z</time>
      </trkpt>
      <trkpt lat="44.8862" lon="3.96805">
        <ele>1035</ele>
        <time>2021-04-29T12:36:10Z</time>
      </trkpt>
      <trkpt lat="44.88615" lon="3.96809">
        <ele>1034</ele>
        <time>2021-04-29T12:36:11Z</time>
      </trkpt>
      <trkpt lat="44.8861" lon="3.96814">
        <ele>1033</ele>
        <time>2021-04-29T12:36:12Z</time>
      </trkpt>
      <trkpt lat="44.88604" lon="3.96819">
        <ele>1032</ele>
        <time>2021-04-29T12:36:13Z</time>
      </trkpt>
      <trkpt lat="44.88598" lon="3.96823">
        <ele>1031</ele>
        <time>2021-04-29T12:36:14Z</time>
      </trkpt>
      <trkpt lat="44.88592" lon="3.96825">
        <ele>1031</ele>
        <time>2021-04-29T12:36:15Z</time>
      </trkpt>
      <trkpt lat="44.88567" lon="3.96825">
        <ele>1018.3</ele>
        <time>2021-04-29T12:36:58Z</time>
      </trkpt>
      <trkpt lat="44.88556" lon="3.96821">
        <ele>1018.7</ele>
        <time>2021-04-29T12:37:01Z</time>
      </trkpt>
      <trkpt lat="44.88546" lon="3.96815">
        <ele>1019</ele>
      </trkpt>
      <trkpt lat="44.88547" lon="3.96784">
        <ele>1025</ele>
        <time>2021-04-29T12:37:12Z</time>
      </trkpt>
      <trkpt lat="44.88547" lon="3.96776">
        <ele>1025</ele>
        <time>2021-04-29T12:37:13Z</time>
      </trkpt>
      <trkpt lat="44.88546" lon="3.96769">
        <ele>1025</ele>
        <time>2021-04-29T12:37:14Z</time>
      </trkpt>
      <trkpt lat="44.88545" lon="3.96761">
        <ele>1025</ele>
        <time>2021-04-29T12:37:15Z</time>
      </trkpt>
      <trkpt lat="44.88544" lon="3.96753">
        <ele>1025</ele>
        <time>2021-04-29T12:37:16Z</time>
      </trkpt>
      <trkpt lat="44.88544" lon="3.96745">
        <ele>1025</ele>
        <time>2021-04-29T12:37:17Z</time>
      </trkpt>
      <trkpt lat="44.88543" lon="3.96736">
        <ele>1025</ele>
        <time>2021-04-29T12:37:18Z</time>
      </trkpt>
      <trkpt lat="44.88542" lon="3.96727">
        <ele>1025</ele>
        <time>2021-04-29T12:37:19Z</time>
      </trkpt>
      <trkpt lat="44.88541" lon="3.96718">
        <ele>1025</ele>
        <time>2021-04-29T12:37:20Z</time>
      </trkpt>
      <trkpt lat="44.88541" lon="3.96709">
        <ele>1025</ele>
        <time>2021-04-29T12:37:21Z</time>
      </trkpt>
      <trkpt lat="44.88542" lon="3.967">
        <ele>1024</ele>
        <time>2021-04-29T12:37:22Z</time>
      </trkpt>
      <trkpt lat="44.88545" lon="3.96692">
        <ele>1024</ele>
        <time>2021-04-29T12:37:23Z</time>
      </trkpt>
      <trkpt lat="44.8855" lon="3.96685">
        <ele>1023</ele>
        <time>2021-04-29T12:37:24Z</time>
      </trkpt>
      <trkpt lat="44.88555" lon="3.96679">
        <ele>1023</ele>
        <time>2021-04-29T12:37:25Z</time>
      </trkpt>
      <trkpt lat="44.8856" lon="3.96672">
        <ele>1023</ele>
        <time>2021-04-29T12:37:26Z</time>
      </trkpt>
      <trkpt lat="44.88568" lon="3.96658">
        <ele>1023</ele>
        <time>2021-04-29T12:37:27Z</time>
      </trkpt>
      <trkpt lat="44.88571" lon="3.96651">
        <ele>1023</ele>
        <time>2021-04-29T12:37:29Z</time>
      </trkpt>
      <trkpt lat="44.88575" lon="3.96644">
        <ele>1023</ele>
        <time>2021-04-29T12:37:30Z</time>
      </trkpt>
      <trkpt lat="44.88579" lon="3.96638">
        <ele>1023</ele>
        <time>2021-04-29T12:37:31Z</time>
      </trkpt>
      <trkpt lat="44.88587" lon="3.96625">
        <ele>1023</ele>
        <time>2021-04-29T12:37:32Z</time>
      </trkpt>
      <trkpt lat="44.88591" lon="3.96619">
        <ele>1023</ele>
        <time>2021-04-29T12:37:34Z</time>
      </trkpt>
      <trkpt lat="44.88595" lon="3.96612">
        <ele>1023</ele>
        <time>2021-04-29T12:37:35Z</time>
      </trkpt>
      <trkpt lat="44.88598" lon="3.96606">
        <ele>1023</ele>
        <time>2021-04-29T12:37:36Z</time>
      </trkpt>
      <trkpt lat="44.88602" lon="3.96599">
        <ele>1023</ele>
        <time>2021-04-29T12:37:37Z</time>
      </trkpt>
      <trkpt lat="44.88605" lon="3.96591">
        <ele>1022</ele>
        <time>2021-04-29T12:37:38Z</time>
      </trkpt>
      <trkpt lat="44.88609" lon="3.96583">
        <ele>1022</ele>
        <time>2021-04-29T12:37:39Z</time>
      </trkpt>
      <trkpt lat="44.88612" lon="3.96575">
        <ele>1022</ele>
        <time>2021-04-29T12:37:40Z</time>
      </trkpt>
      <trkpt lat="44.88615" lon="3.96567">
        <ele>1022</ele>
        <time>2021-04-29T12:37:41Z</time>
      </trkpt>
      <trkpt lat="44.88618" lon="3.96559">
        <ele>1022</ele>
        <time>2021-04-29T12:37:42Z</time>
      </trkpt>
      <trkpt lat="44.88621" lon="3.96551">
        <ele>1022</ele>
        <time>2021-04-29T12:37:43Z</time>
      </trkpt>
      <trkpt lat="44.88624" lon="3.96543">
        <ele>1022</ele>
        <time>2021-04-29T12:37:44Z</time>
      </trkpt>
      <trkpt lat="44.88627" lon="3.96536">
        <ele>1022</ele>
        <time>2021-04-29T12:37:45Z</time>
      </trkpt>
      <trkpt lat="44.8863" lon="3.96528">
        <ele>1021</ele>
        <time>2021-04-29T12:37:46Z</time>
      </trkpt>
      <trkpt lat="44.88633" lon="3.96519">
        <ele>1021</ele>
        <time>2021-04-29T12:37:47Z</time>
      </trkpt>
      <trkpt lat="44.88634" lon="3.9651">
        <ele>1021</ele>
        <time>2021-04-29T12:37:48Z</time>
      </trkpt>
      <trkpt lat="44.88636" lon="3.96501">
        <ele>1020</ele>
        <time>2021-04-29T12:37:49Z</time>
      </trkpt>
      <trkpt lat="44.88637" lon="3.96492">
        <ele>1019</ele>
        <time>2021-04-29T12:37:50Z</time>
      </trkpt>
      <trkpt lat="44.88639" lon="3.96473">
        <ele>1018</ele>
        <time>2021-04-29T12:37:51Z</time>
      </trkpt>
      <trkpt lat="44.8864" lon="3.96464">
        <ele>1018</ele>
        <time>2021-04-29T12:37:53Z</time>
      </trkpt>
      <trkpt lat="44.88642" lon="3.96455">
        <ele>1017</ele>
        <time>2021-04-29T12:37:54Z</time>
      </trkpt>
      <trkpt lat="44.88645" lon="3.96447">
        <ele>1017</ele>
        <time>2021-04-29T12:37:55Z</time>
      </trkpt>
      <trkpt lat="44.88648" lon="3.96439">
        <ele>1017</ele>
        <time>2021-04-29T12:37:56Z</time>
      </trkpt>
      <trkpt lat="44.88651" lon="3.96431">
        <ele>1017</ele>
        <time>2021-04-29T12:37:57Z</time>
      </trkpt>
      <trkpt lat="44.88654" lon="3.96422">
        <ele>1016</ele>
        <time>2021-04-29T12:37:58Z</time>
      </trkpt>
      <trkpt lat="44.88656" lon="3.96414">
        <ele>1016</ele>
        <time>2021-04-29T12:37:59Z</time>
      </trkpt>
      <trkpt lat="44.88659" lon="3.96406">
        <ele>1016</ele>
        <time>2021-04-29T12:38:00Z</time>
      </trkpt>
      <trkpt lat="44.88662" lon="3.96397">
        <ele>1016</ele>
        <time>2021-04-29T12:38:01Z</time>
      </trkpt>
      <trkpt lat="44.88664" lon="3.96389">
        <ele>1015</ele>
        <time>2021-04-29T12:38:02Z</time>
      </trkpt>
      <trkpt lat="44.88667" lon="3.96381">
        <ele>1015</ele>
        <time>2021-04-29T12:38:03Z</time>
      </trkpt>
      <trkpt lat="44.88671" lon="3.96373">
        <ele>1014</ele>
        <time>2021-04-29T12:38:04Z</time>
      </trkpt>
      <trkpt lat="44.88675" lon="3.96365">
        <ele>1014</ele>
        <time>2021-04-29T12:38:05Z</time>
      </trkpt>
      <trkpt lat="44.88679" lon="3.96357">
        <ele>1013</ele>
        <time>2021-04-29T12:38:06Z</time>
      </trkpt>
      <trkpt lat="44.88683" lon="3.96348">
        <ele>1013</ele>
        <time>2021-04-29T12:38:07Z</time>
      </trkpt>
      <trkpt lat="44.88688" lon="3.9634">
        <ele>1013</ele>
        <time>2021-04-29T12:38:08Z</time>
      </trkpt>
      <trkpt lat="44.88693" lon="3.96332">
        <ele>1012</ele>
        <time>2021-04-29T12:38:09Z</time>
      </trkpt>
      <trkpt lat="44.88703" lon="3.96315">
        <ele>1012</ele>
        <time>2021-04-29T12:38:10Z</time>
      </trkpt>
      <trkpt lat="44.88707" lon="3.96307">
        <ele>1011</ele>
        <time>2021-04-29T12:38:12Z</time>
      </trkpt>
      <trkpt lat="44.88712" lon="3.96298">
        <ele>1011</ele>
        <time>2021-04-29T12:38:13Z</time>
      </trkpt>
      <trkpt lat="44.88716" lon="3.96289">
        <ele>1011</ele>
        <time>2021-04-29T12:38:14Z</time>
      </trkpt>
      <trkpt lat="44.8872" lon="3.9628">
        <ele>1011</ele>
        <time>2021-04-29T12:38:15Z</time>
      </trkpt>
      <trkpt lat="44.88725" lon="3.96271">
        <ele>1011</ele>
        <time>2021-04-29T12:38:16Z</time>
      </trkpt>
      <trkpt lat="44.88729" lon="3.96263">
        <ele>1011</ele>
        <time>2021-04-29T12:38:17Z</time>
      </trkpt>
      <trkpt lat="44.88734" lon="3.96256">
        <ele>1010</ele>
        <time>2021-04-29T12:38:18Z</time>
      </trkpt>
      <trkpt lat="44.88738" lon="3.96249">
        <ele>1010</ele>
        <time>2021-04-29T12:38:19Z</time>
      </trkpt>
      <trkpt lat="44.88743" lon="3.96242">
        <ele>1010</ele>
        <time>2021-04-29T12:38:20Z</time>
      </trkpt>
      <trkpt lat="44.88748" lon="3.96236">
        <ele>1010</ele>
        <time>2021-04-29T12:38:21Z</time>
      </trkpt>
      <trkpt lat="44.88753" lon="3.9623">
        <ele>1009</ele>
        <time>2021-04-29T12:38:22Z</time>
      </trkpt>
      <trkpt lat="44.88759" lon="3.96224">
        <ele>1009</ele>
        <time>2021-04-29T12:38:23Z</time>
      </trkpt>
      <trkpt lat="44.88764" lon="3.96218">
        <ele>1009</ele>
        <time>2021-04-29T12:38:24Z</time>
      </trkpt>
      <trkpt lat="44.88769" lon="3.96211">
        <ele>1009</ele>
        <time>2021-04-29T12:38:25Z</time>
      </trkpt>
      <trkpt lat="44.88775" lon="3.96205">
        <ele>1009</ele>
        <time>2021-04-29T12:38:26Z</time>
      </trkpt>
      <trkpt lat="44.88781" lon="3.96199">
        <ele>1008</ele>
        <time>2021-04-29T12:38:27Z</time>
      </trkpt>
      <trkpt lat="44.88788" lon="3.96193">
        <ele>1008</ele>
        <time>2021-04-29T12:38:28Z</time>
      </trkpt>
      <trkpt lat="44.88802" lon="3.96183">
        <ele>1008</ele>
        <time>2021-04-29T12:38:29Z</time>
      </trkpt>
      <trkpt lat="44.88808" lon="3.96177">
        <ele>1007</ele>
        <time>2021-04-29T12:38:31Z</time>
      </trkpt>
      <trkpt lat="44.88815" lon="3.96172">
        <ele>1007</ele>
        <time>2021-04-29T12:38:32Z</time>
      </trkpt>
      <trkpt lat="44.88821" lon="3.96167">
        <ele>1006</ele>
        <time>2021-04-29T12:38:33Z</time>
      </trkpt>
      <trkpt lat="44.88827" lon="3.96163">
        <ele>1006</ele>
        <time>2021-04-29T12:38:34Z</time>
      </trkpt>
      <trkpt lat="44.88833" lon="3.96159">
        <ele>1006</ele>
        <time>2021-04-29T12:38:35Z</time>
      </trkpt>
      <trkpt lat="44.8884" lon="3.96157">
        <ele>1005</ele>
        <time>2021-04-29T12:38:36Z</time>
      </trkpt>
      <trkpt lat="44.88846" lon="3.96155">
        <ele>1005</ele>
        <time>2021-04-29T12:38:37Z</time>
      </trkpt>
      <trkpt lat="44.88853" lon="3.96154">
        <ele>1005</ele>
        <time>2021-04-29T12:38:38Z</time>
      </trkpt>
      <trkpt lat="44.88858" lon="3.96152">
        <ele>1004</ele>
        <time>2021-04-29T12:38:39Z</time>
      </trkpt>
      <trkpt lat="44.88863" lon="3.96148">
        <ele>1004</ele>
        <time>2021-04-29T12:38:40Z</time>
      </trkpt>
      <trkpt lat="44.88866" lon="3.96141">
        <ele>1004</ele>
        <time>2021-04-29T12:38:41Z</time>
      </trkpt>
      <trkpt lat="44.88868" lon="3.96135">
        <ele>1004</ele>
        <time>2021-04-29T12:38:42Z</time>
      </trkpt>
      <trkpt lat="44.88869" lon="3.96128">
        <ele>1004</ele>
        <time>2021-04-29T12:38:43Z</time>
      </trkpt>
      <trkpt lat="44.88871" lon="3.9612">
        <ele>1004</ele>
        <time>2021-04-29T12:38:44Z</time>
      </trkpt>
      <trkpt lat="44.88872" lon="3.96113">
        <ele>1003</ele>
        <time>2021-04-29T12:38:45Z</time>
      </trkpt>
      <trkpt lat="44.88873" lon="3.96105">
        <ele>1003</ele>
        <time>2021-04-29T12:38:46Z</time>
      </trkpt>
      <trkpt lat="44.88874" lon="3.96096">
        <ele>1003</ele>
        <time>2021-04-29T12:38:47Z</time>
      </trkpt>
      <trkpt lat="44.88875" lon="3.96079">
        <ele>1003</ele>
        <time>2021-04-29T12:38:48Z</time>
      </trkpt>
      <trkpt lat="44.88876" lon="3.9607">
        <ele>1003</ele>
        <time>2021-04-29T12:38:50Z</time>
      </trkpt>
      <trkpt lat="44.88876" lon="3.96061">
        <ele>1002</ele>
        <time>2021-04-29T12:38:51Z</time>
      </trkpt>
      <trkpt lat="44.88877" lon="3.96052">
        <ele>1002</ele>
        <time>2021-04-29T12:38:52Z</time>
      </trkpt>
      <trkpt lat="44.88878" lon="3.96044">
        <ele>1002</ele>
        <time>2021-04-29T12:38:53Z</time>
      </trkpt>
      <trkpt lat="44.88879" lon="3.96035">
        <ele>1002</ele>
        <time>2021-04-29T12:38:54Z</time>
      </trkpt>
      <trkpt lat="44.8888" lon="3.96026">
        <ele>1002</ele>
        <time>2021-04-29T12:38:55Z</time>
      </trkpt>
      <trkpt lat="44.88882" lon="3.96018">
        <ele>1002</ele>
        <time>2021-04-29T12:38:56Z</time>
      </trkpt>
      <trkpt lat="44.88884" lon="3.96011">
        <ele>1001</ele>
        <time>2021-04-29T12:38:57Z</time>
      </trkpt>
      <trkpt lat="44.88887" lon="3.96003">
        <ele>1001</ele>
        <time>2021-04-29T12:38:58Z</time>
      </trkpt>
      <trkpt lat="44.8889" lon="3.95996">
        <ele>1001</ele>
        <time>2021-04-29T12:38:59Z</time>
      </trkpt>
      <trkpt lat="44.88893" lon="3.95989">
        <ele>1001</ele>
        <time>2021-04-29T12:39:00Z</time>
      </trkpt>
      <trkpt lat="44.88895" lon="3.95981">
        <ele>1001</ele>
        <time>2021-04-29T12:39:01Z</time>
      </trkpt>
      <trkpt lat="44.88897" lon="3.95972">
        <ele>1000</ele>
        <time>2021-04-29T12:39:02Z</time>
      </trkpt>
      <trkpt lat="44.88897" lon="3.95963">
        <ele>1000</ele>
        <time>2021-04-29T12:39:03Z</time>
      </trkpt>
      <trkpt lat="44.88897" lon="3.95954">
        <ele>999</ele>
        <time>2021-04-29T12:39:04Z</time>
      </trkpt>
      <trkpt lat="44.88898" lon="3.95945">
        <ele>998</ele>
        <time>2021-04-29T12:39:05Z</time>
      </trkpt>
      <trkpt lat="44.88899" lon="3.95936">
        <ele>998</ele>
        <time>2021-04-29T12:39:06Z</time>
      </trkpt>
      <trkpt lat="44.88903" lon="3.95918">
        <ele>998</ele>
        <time>2021-04-29T12:39:07Z</time>
      </trkpt>
      <trkpt lat="44.88905" lon="3.95911">
        <ele>997</ele>
        <time>2021-04-29T12:39:09Z</time>
      </trkpt>
      <trkpt lat="44.88908" lon="3.95903">
        <ele>997</ele>
        <time>2021-04-29T12:39:10Z</time>
      </trkpt>
      <trkpt lat="44.88911" lon="3.95895">
        <ele>997</ele>
        <time>2021-04-29T12:39:11Z</time>
      </trkpt>
      <trkpt lat="44.88914" lon="3.95886">
        <ele>996</ele>
        <time>2021-04-29T12:39:12Z</time>
      </trkpt>
      <trkpt lat="44.88917" lon="3.95876">
        <ele>996</ele>
        <time>2021-04-29T12:39:13Z</time>
      </trkpt>
      <trkpt lat="44.88921" lon="3.95866">
        <ele>996</ele>
        <time>2021-04-29T12:39:14Z</time>
      </trkpt>
      <trkpt lat="44.88924" lon="3.95856">
        <ele>996</ele>
        <time>2021-04-29T12:39:15Z</time>
      </trkpt>
      <trkpt lat="44.88928" lon="3.95847">
        <ele>995</ele>
        <time>2021-04-29T12:39:16Z</time>
      </trkpt>
      <trkpt lat="44.88932" lon="3.95837">
        <ele>995</ele>
        <time>2021-04-29T12:39:17Z</time>
      </trkpt>
      <trkpt lat="44.88935" lon="3.95828">
        <ele>995</ele>
        <time>2021-04-29T12:39:18Z</time>
      </trkpt>
      <trkpt lat="44.88938" lon="3.95819">
        <ele>995</ele>
        <time>2021-04-29T12:39:19Z</time>
      </trkpt>
      <trkpt lat="44.88941" lon="3.95809">
        <ele>994</ele>
        <time>2021-04-29T12:39:20Z</time>
      </trkpt>
      <trkpt lat="44.88943" lon="3.95799">
        <ele>993</ele>
        <time>2021-04-29T12:39:21Z</time>
      </trkpt>
      <trkpt lat="44.88945" lon="3.95791">
        <ele>993</ele>
        <time>2021-04-29T12:39:22Z</time>
      </trkpt>
      <trkpt lat="44.88946" lon="3.95782">
        <ele>993</ele>
        <time>2021-04-29T12:39:23Z</time>
      </trkpt>
      <trkpt lat="44.88946" lon="3.95775">
        <ele>993</ele>
        <time>2021-04-29T12:39:24Z</time>
      </trkpt>
      <trkpt lat="44.88947" lon="3.95769">
        <ele>993</ele>
        <time>2021-04-29T12:39:25Z</time>
      </trkpt>
      <trkpt lat="44.88951" lon="3.95768">
        <ele>992</ele>
        <time>2021-04-29T12:39:26Z</time>
      </trkpt>
      <trkpt lat="44.88953" lon="3.95771">
        <ele>991</ele>
        <time>2021-04-29T12:39:28Z</time>
      </trkpt>
      <trkpt lat="44.88953" lon="3.95777">
        <ele>991</ele>
        <time>2021-04-29T12:39:29Z</time>
      </trkpt>
      <trkpt lat="44.88953" lon="3.95783">
        <ele>990</ele>
        <time>2021-04-29T12:39:30Z</time>
      </trkpt>
      <trkpt lat="44.88952" lon="3.95789">
        <ele>990</ele>
        <time>2021-04-29T12:39:31Z</time>
      </trkpt>
      <trkpt lat="44.8895" lon="3.95795">
        <ele>989</ele>
        <time>2021-04-29T12:39:32Z</time>
      </trkpt>
      <trkpt lat="44.88949" lon="3.95801">
        <ele>989</ele>
        <time>2021-04-29T12:39:33Z</time>
      </trkpt>
      <trkpt lat="44.88948" lon="3.95807">
        <ele>989</ele>
        <time>2021-04-29T12:39:34Z</time>
      </trkpt>
      <trkpt lat="44.88947" lon="3.95813">
        <ele>989</ele>
        <time>2021-04-29T12:39:35Z</time>
      </trkpt>
      <trkpt lat="44.88947" lon="3.95817">
        <ele>988</ele>
        <time>2021-04-29T12:39:36Z</time>
      </trkpt>
      <trkpt lat="44.88948" lon="3.9582">
        <ele>988</ele>
        <time>2021-04-29T12:39:37Z</time>
      </trkpt>
      <trkpt lat="44.88951" lon="3.95821">
        <ele>986</ele>
        <time>2021-04-29T12:39:39Z</time>
      </trkpt>
      <trkpt lat="44.88953" lon="3.95818">
        <ele>986</ele>
        <time>2021-04-29T12:39:40Z</time>
      </trkpt>
      <trkpt lat="44.88954" lon="3.95814">
        <ele>985</ele>
        <time>2021-04-29T12:39:41Z</time>
      </trkpt>
      <trkpt lat="44.88955" lon="3.95808">
        <ele>985</ele>
        <time>2021-04-29T12:39:42Z</time>
      </trkpt>
      <trkpt lat="44.88957" lon="3.95801">
        <ele>984</ele>
        <time>2021-04-29T12:39:43Z</time>
      </trkpt>
      <trkpt lat="44.88959" lon="3.95793">
        <ele>984</ele>
        <time>2021-04-29T12:39:44Z</time>
      </trkpt>
      <trkpt lat="44.88961" lon="3.95774">
        <ele>984</ele>
        <time>2021-04-29T12:39:45Z</time>
      </trkpt>
      <trkpt lat="44.88963" lon="3.95765">
        <ele>982</ele>
        <time>2021-04-29T12:39:47Z</time>
      </trkpt>
      <trkpt lat="44.88965" lon="3.95755">
        <ele>981</ele>
        <time>2021-04-29T12:39:48Z</time>
      </trkpt>
      <trkpt lat="44.88968" lon="3.95745">
        <ele>980</ele>
        <time>2021-04-29T12:39:49Z</time>
      </trkpt>
      <trkpt lat="44.8897" lon="3.95735">
        <ele>979</ele>
        <time>2021-04-29T12:39:50Z</time>
      </trkpt>
      <trkpt lat="44.88973" lon="3.95726">
        <ele>978</ele>
        <time>2021-04-29T12:39:51Z</time>
      </trkpt>
      <trkpt lat="44.88976" lon="3.95719">
        <ele>977</ele>
        <time>2021-04-29T12:39:52Z</time>
      </trkpt>
      <trkpt lat="44.88981" lon="3.95708">
        <ele>976</ele>
        <time>2021-04-29T12:39:53Z</time>
      </trkpt>
      <trkpt lat="44.88989" lon="3.95702">
        <ele>974</ele>
        <time>2021-04-29T12:39:56Z</time>
      </trkpt>
      <trkpt lat="44.88999" lon="3.95703">
        <ele>972</ele>
        <time>2021-04-29T12:39:59Z</time>
      </trkpt>
      <trkpt lat="44.89003" lon="3.95703">
        <ele>972</ele>
        <time>2021-04-29T12:40:00Z</time>
      </trkpt>
      <trkpt lat="44.89008" lon="3.957">
        <ele>971</ele>
        <time>2021-04-29T12:40:02Z</time>
      </trkpt>
      <trkpt lat="44.8901" lon="3.95698">
        <ele>970</ele>
        <time>2021-04-29T12:40:03Z</time>
      </trkpt>
      <trkpt lat="44.89015" lon="3.95694">
        <ele>970</ele>
        <time>2021-04-29T12:40:04Z</time>
      </trkpt>
      <trkpt lat="44.89017" lon="3.95693">
        <ele>969</ele>
        <time>2021-04-29T12:40:06Z</time>
      </trkpt>
      <trkpt lat="44.8902" lon="3.95692">
        <ele>969</ele>
        <time>2021-04-29T12:40:07Z</time>
      </trkpt>
      <trkpt lat="44.89023" lon="3.95691">
        <ele>969</ele>
        <time>2021-04-29T12:40:08Z</time>
      </trkpt>
      <trkpt lat="44.89025" lon="3.95691">
        <ele>968</ele>
        <time>2021-04-29T12:40:09Z</time>
      </trkpt>
      <trkpt lat="44.89028" lon="3.9569">
        <ele>968</ele>
        <time>2021-04-29T12:40:10Z</time>
      </trkpt>
      <trkpt lat="44.8903" lon="3.95689">
        <ele>968</ele>
        <time>2021-04-29T12:40:11Z</time>
      </trkpt>
      <trkpt lat="44.89032" lon="3.95689">
        <ele>968</ele>
        <time>2021-04-29T12:40:12Z</time>
      </trkpt>
      <trkpt lat="44.89035" lon="3.95689">
        <ele>967</ele>
        <time>2021-04-29T12:40:13Z</time>
      </trkpt>
      <trkpt lat="44.89037" lon="3.9569">
        <ele>967</ele>
        <time>2021-04-29T12:40:14Z</time>
      </trkpt>
      <trkpt lat="44.8904" lon="3.95691">
        <ele>967</ele>
        <time>2021-04-29T12:40:16Z</time>
      </trkpt>
      <trkpt lat="44.89043" lon="3.95689">
        <ele>967</ele>
        <time>2021-04-29T12:40:18Z</time>
      </trkpt>
      <trkpt lat="44.89044" lon="3.95687">
        <ele>968</ele>
        <time>2021-04-29T12:40:19Z</time>
      </trkpt>
      <trkpt lat="44.89046" lon="3.95683">
        <ele>968</ele>
        <time>2021-04-29T12:40:20Z</time>
      </trkpt>
      <trkpt lat="44.89046" lon="3.9568">
        <ele>968</ele>
        <time>2021-04-29T12:40:21Z</time>
      </trkpt>
      <trkpt lat="44.89047" lon="3.95677">
        <ele>968</ele>
        <time>2021-04-29T12:40:22Z</time>
      </trkpt>
      <trkpt lat="44.89047" lon="3.95671">
        <ele>968</ele>
        <time>2021-04-29T12:40:23Z</time>
      </trkpt>
      <trkpt lat="44.89046" lon="3.95669">
        <ele>967</ele>
        <time>2021-04-29T12:40:25Z</time>
      </trkpt>
      <trkpt lat="44.89045" lon="3.95666">
        <ele>967</ele>
        <time>2021-04-29T12:40:26Z</time>
      </trkpt>
      <trkpt lat="44.89045" lon="3.95663">
        <ele>968</ele>
        <time>2021-04-29T12:40:27Z</time>
      </trkpt>
      <trkpt lat="44.89044" lon="3.9566">
        <ele>967</ele>
        <time>2021-04-29T12:40:28Z</time>
      </trkpt>
      <trkpt lat="44.89044" lon="3.95658">
        <ele>968</ele>
        <time>2021-04-29T12:40:29Z</time>
      </trkpt>
      <trkpt lat="44.89045" lon="3.95653">
        <ele>968</ele>
        <time>2021-04-29T12:40:31Z</time>
      </trkpt>
      <trkpt lat="44.89046" lon="3.9565">
        <ele>968</ele>
        <time>2021-04-29T12:40:32Z</time>
      </trkpt>
      <trkpt lat="44.89047" lon="3.95648">
        <ele>968</ele>
        <time>2021-04-29T12:40:33Z</time>
      </trkpt>
      <trkpt lat="44.89048" lon="3.95646">
        <ele>968</ele>
        <time>2021-04-29T12:40:34Z</time>
      </trkpt>
      <trkpt lat="44.89048" lon="3.95643">
        <ele>968</ele>
        <time>2021-04-29T12:40:35Z</time>
      </trkpt>
      <trkpt lat="44.89049" lon="3.95641">
        <ele>968</ele>
        <time>2021-04-29T12:40:36Z</time>
      </trkpt>
      <trkpt lat="44.8905" lon="3.95638">
        <ele>968</ele>
        <time>2021-04-29T12:40:37Z</time>
      </trkpt>
      <trkpt lat="44.8905" lon="3.95635">
        <ele>969</ele>
        <time>2021-04-29T12:40:38Z</time>
      </trkpt>
      <trkpt lat="44.89051" lon="3.95633">
        <ele>969</ele>
        <time>2021-04-29T12:40:39Z</time>
      </trkpt>
      <trkpt lat="44.89052" lon="3.9563">
        <ele>969</ele>
        <time>2021-04-29T12:40:40Z</time>
      </trkpt>
      <trkpt lat="44.89053" lon="3.95628">
        <ele>969</ele>
        <time>2021-04-29T12:40:41Z</time>
      </trkpt>
      <trkpt lat="44.89057" lon="3.95622">
        <ele>969</ele>
        <time>2021-04-29T12:40:42Z</time>
      </trkpt>
      <trkpt lat="44.89059" lon="3.9562">
        <ele>969</ele>
        <time>2021-04-29T12:40:44Z</time>
      </trkpt>
      <trkpt lat="44.89061" lon="3.95618">
        <ele>969</ele>
        <time>2021-04-29T12:40:45Z</time>
      </trkpt>
      <trkpt lat="44.89062" lon="3.95615">
        <ele>970</ele>
        <time>2021-04-29T12:40:46Z</time>
      </trkpt>
      <trkpt lat="44.89063" lon="3.95612">
        <ele>970</ele>
        <time>2021-04-29T12:40:47Z</time>
      </trkpt>
      <trkpt lat="44.89063" lon="3.95609">
        <ele>970</ele>
        <time>2021-04-29T12:40:48Z</time>
      </trkpt>
      <trkpt lat="44.89064" lon="3.95606">
        <ele>971</ele>
        <time>2021-04-29T12:40:49Z</time>
      </trkpt>
      <trkpt lat="44.89065" lon="3.95603">
        <ele>971</ele>
        <time>2021-04-29T12:40:50Z</time>
      </trkpt>
      <trkpt lat="44.89066" lon="3.956">
        <ele>971</ele>
        <time>2021-04-29T12:40:51Z</time>
      </trkpt>
      <trkpt lat="44.89068" lon="3.95597">
        <ele>971</ele>
        <time>2021-04-29T12:40:52Z</time>
      </trkpt>
      <trkpt lat="44.89069" lon="3.95595">
        <ele>972</ele>
        <time>2021-04-29T12:40:53Z</time>
      </trkpt>
      <trkpt lat="44.89069" lon="3.95592">
        <ele>972</ele>
        <time>2021-04-29T12:40:54Z</time>
      </trkpt>
      <trkpt lat="44.89069" lon="3.95588">
        <ele>972</ele>
        <time>2021-04-29T12:40:55Z</time>
      </trkpt>
      <trkpt lat="44.8907" lon="3.95586">
        <ele>972</ele>
        <time>2021-04-29T12:40:56Z</time>
      </trkpt>
      <trkpt lat="44.8907" lon="3.95583">
        <ele>972</ele>
        <time>2021-04-29T12:40:57Z</time>
      </trkpt>
      <trkpt lat="44.8907" lon="3.95579">
        <ele>972</ele>
        <time>2021-04-29T12:40:58Z</time>
      </trkpt>
      <trkpt lat="44.8907" lon="3.95576">
        <ele>972</ele>
        <time>2021-04-29T12:40:59Z</time>
      </trkpt>
      <trkpt lat="44.89071" lon="3.95569">
        <ele>973</ele>
        <time>2021-04-29T12:41:01Z</time>
      </trkpt>
      <trkpt lat="44.89072" lon="3.95566">
        <ele>973</ele>
        <time>2021-04-29T12:41:03Z</time>
      </trkpt>
      <trkpt lat="44.89073" lon="3.95564">
        <ele>973</ele>
        <time>2021-04-29T12:41:04Z</time>
      </trkpt>
      <trkpt lat="44.89074" lon="3.9556">
        <ele>973</ele>
        <time>2021-04-29T12:41:05Z</time>
      </trkpt>
      <trkpt lat="44.89074" lon="3.95557">
        <ele>973</ele>
        <time>2021-04-29T12:41:06Z</time>
      </trkpt>
      <trkpt lat="44.89075" lon="3.95554">
        <ele>974</ele>
        <time>2021-04-29T12:41:07Z</time>
      </trkpt>
      <trkpt lat="44.89075" lon="3.95551">
        <ele>974</ele>
        <time>2021-04-29T12:41:08Z</time>
      </trkpt>
      <trkpt lat="44.89075" lon="3.95548">
        <ele>974</ele>
        <time>2021-04-29T12:41:09Z</time>
      </trkpt>
      <trkpt lat="44.89075" lon="3.95545">
        <ele>974</ele>
        <time>2021-04-29T12:41:10Z</time>
      </trkpt>
      <trkpt lat="44.89075" lon="3.95541">
        <ele>974</ele>
        <time>2021-04-29T12:41:11Z</time>
      </trkpt>
      <trkpt lat="44.89075" lon="3.95538">
        <ele>975</ele>
        <time>2021-04-29T12:41:12Z</time>
      </trkpt>
      <trkpt lat="44.89075" lon="3.95534">
        <ele>975</ele>
        <time>2021-04-29T12:41:13Z</time>
      </trkpt>
      <trkpt lat="44.89075" lon="3.95531">
        <ele>975</ele>
        <time>2021-04-29T12:41:14Z</time>
      </trkpt>
      <trkpt lat="44.89076" lon="3.95526">
        <ele>976</ele>
        <time>2021-04-29T12:41:16Z</time>
      </trkpt>
      <trkpt lat="44.89077" lon="3.95524">
        <ele>976</ele>
        <time>2021-04-29T12:41:17Z</time>
      </trkpt>
      <trkpt lat="44.89078" lon="3.95521">
        <ele>976</ele>
        <time>2021-04-29T12:41:18Z</time>
      </trkpt>
      <trkpt lat="44.89078" lon="3.95517">
        <ele>976</ele>
        <time>2021-04-29T12:41:20Z</time>
      </trkpt>
      <trkpt lat="44.8908" lon="3.95513">
        <ele>977</ele>
        <time>2021-04-29T12:41:22Z</time>
      </trkpt>
      <trkpt lat="44.8908" lon="3.9551">
        <ele>977</ele>
        <time>2021-04-29T12:41:23Z</time>
      </trkpt>
      <trkpt lat="44.89081" lon="3.95507">
        <ele>977</ele>
        <time>2021-04-29T12:41:24Z</time>
      </trkpt>
      <trkpt lat="44.89082" lon="3.95503">
        <ele>978</ele>
        <time>2021-04-29T12:41:25Z</time>
      </trkpt>
      <trkpt lat="44.89082" lon="3.95499">
        <ele>978</ele>
        <time>2021-04-29T12:41:26Z</time>
      </trkpt>
      <trkpt lat="44.89082" lon="3.95495">
        <ele>978</ele>
        <time>2021-04-29T12:41:27Z</time>
      </trkpt>
      <trkpt lat="44.89082" lon="3.9549">
        <ele>979</ele>
        <time>2021-04-29T12:41:28Z</time>
      </trkpt>
      <trkpt lat="44.89082" lon="3.95487">
        <ele>979</ele>
        <time>2021-04-29T12:41:29Z</time>
      </trkpt>
      <trkpt lat="44.89084" lon="3.9548">
        <ele>979</ele>
        <time>2021-04-29T12:41:30Z</time>
      </trkpt>
      <trkpt lat="44.89085" lon="3.95478">
        <ele>980</ele>
        <time>2021-04-29T12:41:32Z</time>
      </trkpt>
      <trkpt lat="44.89085" lon="3.95472">
        <ele>980</ele>
        <time>2021-04-29T12:41:34Z</time>
      </trkpt>
      <trkpt lat="44.89087" lon="3.95465">
        <ele>980</ele>
        <time>2021-04-29T12:41:36Z</time>
      </trkpt>
      <trkpt lat="44.89089" lon="3.95461">
        <ele>981</ele>
        <time>2021-04-29T12:41:37Z</time>
      </trkpt>
      <trkpt lat="44.8909" lon="3.95457">
        <ele>981</ele>
        <time>2021-04-29T12:41:38Z</time>
      </trkpt>
      <trkpt lat="44.89091" lon="3.95453">
        <ele>981</ele>
        <time>2021-04-29T12:41:39Z</time>
      </trkpt>
      <trkpt lat="44.89092" lon="3.95437">
        <ele>982</ele>
        <time>2021-04-29T12:41:43Z</time>
      </trkpt>
      <trkpt lat="44.89091" lon="3.95422">
        <ele>983</ele>
        <time>2021-04-29T12:41:47Z</time>
      </trkpt>
      <trkpt lat="44.89088" lon="3.95409">
        <ele>984</ele>
        <time>2021-04-29T12:41:50Z</time>
      </trkpt>
      <trkpt lat="44.89088" lon="3.95395">
        <ele>984</ele>
        <time>2021-04-29T12:41:53Z</time>
      </trkpt>
      <trkpt lat="44.89085" lon="3.95378">
        <ele>985</ele>
        <time>2021-04-29T12:41:56Z</time>
      </trkpt>
      <trkpt lat="44.89086" lon="3.95363">
        <ele>985</ele>
        <time>2021-04-29T12:41:59Z</time>
      </trkpt>
      <trkpt lat="44.89085" lon="3.95347">
        <ele>986</ele>
        <time>2021-04-29T12:42:02Z</time>
      </trkpt>
      <trkpt lat="44.89084" lon="3.95331">
        <ele>986</ele>
        <time>2021-04-29T12:42:06Z</time>
      </trkpt>
      <trkpt lat="44.89084" lon="3.95318">
        <ele>987</ele>
        <time>2021-04-29T12:42:10Z</time>
      </trkpt>
      <trkpt lat="44.8909" lon="3.95307">
        <ele>988</ele>
        <time>2021-04-29T12:42:13Z</time>
      </trkpt>
      <trkpt lat="44.89092" lon="3.95293">
        <ele>989</ele>
        <time>2021-04-29T12:42:17Z</time>
      </trkpt>
      <trkpt lat="44.8909" lon="3.95276">
        <ele>991</ele>
        <time>2021-04-29T12:42:22Z</time>
      </trkpt>
      <trkpt lat="44.89088" lon="3.95265">
        <ele>992</ele>
        <time>2021-04-29T12:42:24Z</time>
      </trkpt>
      <trkpt lat="44.89087" lon="3.9526">
        <ele>992</ele>
        <time>2021-04-29T12:42:25Z</time>
      </trkpt>
      <trkpt lat="44.89085" lon="3.95255">
        <ele>992</ele>
        <time>2021-04-29T12:42:26Z</time>
      </trkpt>
      <trkpt lat="44.89084" lon="3.95249">
        <ele>992</ele>
        <time>2021-04-29T12:42:27Z</time>
      </trkpt>
      <trkpt lat="44.89083" lon="3.95243">
        <ele>993</ele>
        <time>2021-04-29T12:42:28Z</time>
      </trkpt>
      <trkpt lat="44.89082" lon="3.95237">
        <ele>993</ele>
        <time>2021-04-29T12:42:29Z</time>
      </trkpt>
      <trkpt lat="44.89082" lon="3.95225">
        <ele>994</ele>
        <time>2021-04-29T12:42:32Z</time>
      </trkpt>
      <trkpt lat="44.89084" lon="3.95221">
        <ele>994</ele>
        <time>2021-04-29T12:42:33Z</time>
      </trkpt>
      <trkpt lat="44.89088" lon="3.95208">
        <ele>996</ele>
        <time>2021-04-29T12:42:36Z</time>
      </trkpt>
      <trkpt lat="44.8909" lon="3.95194">
        <ele>997</ele>
        <time>2021-04-29T12:42:39Z</time>
      </trkpt>
      <trkpt lat="44.89088" lon="3.95174">
        <ele>998</ele>
        <time>2021-04-29T12:42:42Z</time>
      </trkpt>
      <trkpt lat="44.89087" lon="3.95169">
        <ele>998</ele>
        <time>2021-04-29T12:42:43Z</time>
      </trkpt>
      <trkpt lat="44.89087" lon="3.95165">
        <ele>999</ele>
        <time>2021-04-29T12:42:44Z</time>
      </trkpt>
      <trkpt lat="44.89087" lon="3.95162">
        <ele>999</ele>
        <time>2021-04-29T12:42:45Z</time>
      </trkpt>
      <trkpt lat="44.89087" lon="3.95158">
        <ele>999</ele>
        <time>2021-04-29T12:42:46Z</time>
      </trkpt>
      <trkpt lat="44.89088" lon="3.95155">
        <ele>1000</ele>
        <time>2021-04-29T12:42:47Z</time>
      </trkpt>
      <trkpt lat="44.8909" lon="3.95151">
        <ele>1000</ele>
        <time>2021-04-29T12:42:48Z</time>
      </trkpt>
      <trkpt lat="44.89092" lon="3.95144">
        <ele>1001</ele>
        <time>2021-04-29T12:42:50Z</time>
      </trkpt>
      <trkpt lat="44.89094" lon="3.95141">
        <ele>1001</ele>
        <time>2021-04-29T12:42:51Z</time>
      </trkpt>
      <trkpt lat="44.89097" lon="3.95134">
        <ele>1002</ele>
        <time>2021-04-29T12:42:53Z</time>
      </trkpt>
      <trkpt lat="44.89098" lon="3.9513">
        <ele>1002</ele>
        <time>2021-04-29T12:42:54Z</time>
      </trkpt>
      <trkpt lat="44.89102" lon="3.95124">
        <ele>1003</ele>
        <time>2021-04-29T12:42:55Z</time>
      </trkpt>
      <trkpt lat="44.89103" lon="3.95121">
        <ele>1003</ele>
        <time>2021-04-29T12:42:57Z</time>
      </trkpt>
      <trkpt lat="44.89105" lon="3.95107">
        <ele>1004</ele>
        <time>2021-04-29T12:42:59Z</time>
      </trkpt>
      <trkpt lat="44.89102" lon="3.95095">
        <ele>1005</ele>
        <time>2021-04-29T12:43:03Z</time>
      </trkpt>
      <trkpt lat="44.89102" lon="3.95091">
        <ele>1005</ele>
        <time>2021-04-29T12:43:04Z</time>
      </trkpt>
      <trkpt lat="44.89099" lon="3.95078">
        <ele>1006</ele>
        <time>2021-04-29T12:43:07Z</time>
      </trkpt>
      <trkpt lat="44.89099" lon="3.95072">
        <ele>1006</ele>
        <time>2021-04-29T12:43:08Z</time>
      </trkpt>
      <trkpt lat="44.891" lon="3.95058">
        <ele>1007</ele>
        <time>2021-04-29T12:43:11Z</time>
      </trkpt>
      <trkpt lat="44.89101" lon="3.95041">
        <ele>1007</ele>
        <time>2021-04-29T12:43:14Z</time>
      </trkpt>
      <trkpt lat="44.89103" lon="3.95025">
        <ele>1009</ele>
        <time>2021-04-29T12:43:17Z</time>
      </trkpt>
      <trkpt lat="44.89106" lon="3.95012">
        <ele>1010</ele>
        <time>2021-04-29T12:43:20Z</time>
      </trkpt>
      <trkpt lat="44.89106" lon="3.94997">
        <ele>1010</ele>
        <time>2021-04-29T12:43:23Z</time>
      </trkpt>
      <trkpt lat="44.89105" lon="3.94991">
        <ele>1010</ele>
        <time>2021-04-29T12:43:24Z</time>
      </trkpt>
      <trkpt lat="44.89104" lon="3.94986">
        <ele>1010</ele>
        <time>2021-04-29T12:43:25Z</time>
      </trkpt>
      <trkpt lat="44.89101" lon="3.94982">
        <ele>1011</ele>
        <time>2021-04-29T12:43:26Z</time>
      </trkpt>
      <trkpt lat="44.891" lon="3.94978">
        <ele>1011</ele>
        <time>2021-04-29T12:43:27Z</time>
      </trkpt>
      <trkpt lat="44.89098" lon="3.94974">
        <ele>1011</ele>
        <time>2021-04-29T12:43:28Z</time>
      </trkpt>
      <trkpt lat="44.89096" lon="3.9497">
        <ele>1011</ele>
        <time>2021-04-29T12:43:29Z</time>
      </trkpt>
      <trkpt lat="44.89094" lon="3.94967">
        <ele>1012</ele>
        <time>2021-04-29T12:43:30Z</time>
      </trkpt>
      <trkpt lat="44.89092" lon="3.94963">
        <ele>1012</ele>
        <time>2021-04-29T12:43:31Z</time>
      </trkpt>
      <trkpt lat="44.89091" lon="3.9496">
        <ele>1012</ele>
        <time>2021-04-29T12:43:32Z</time>
      </trkpt>
      <trkpt lat="44.89088" lon="3.94955">
        <ele>1012</ele>
        <time>2021-04-29T12:43:33Z</time>
      </trkpt>
      <trkpt lat="44.89086" lon="3.94952">
        <ele>1013</ele>
        <time>2021-04-29T12:43:35Z</time>
      </trkpt>
      <trkpt lat="44.89084" lon="3.94949">
        <ele>1014</ele>
        <time>2021-04-29T12:43:36Z</time>
      </trkpt>
      <trkpt lat="44.89083" lon="3.94946">
        <ele>1014</ele>
        <time>2021-04-29T12:43:37Z</time>
      </trkpt>
      <trkpt lat="44.89082" lon="3.94943">
        <ele>1014</ele>
        <time>2021-04-29T12:43:38Z</time>
      </trkpt>
      <trkpt lat="44.89081" lon="3.9494">
        <ele>1015</ele>
        <time>2021-04-29T12:43:39Z</time>
      </trkpt>
      <trkpt lat="44.89081" lon="3.94937">
        <ele>1015</ele>
        <time>2021-04-29T12:43:40Z</time>
      </trkpt>
      <trkpt lat="44.89081" lon="3.94934">
        <ele>1016</ele>
        <time>2021-04-29T12:43:41Z</time>
      </trkpt>
      <trkpt lat="44.89081" lon="3.94931">
        <ele>1016</ele>
        <time>2021-04-29T12:43:42Z</time>
      </trkpt>
      <trkpt lat="44.89081" lon="3.94928">
        <ele>1016</ele>
        <time>2021-04-29T12:43:43Z</time>
      </trkpt>
      <trkpt lat="44.89081" lon="3.94925">
        <ele>1017</ele>
        <time>2021-04-29T12:43:44Z</time>
      </trkpt>
      <trkpt lat="44.89082" lon="3.94922">
        <ele>1017</ele>
        <time>2021-04-29T12:43:45Z</time>
      </trkpt>
      <trkpt lat="44.89081" lon="3.94919">
        <ele>1017</ele>
        <time>2021-04-29T12:43:46Z</time>
      </trkpt>
      <trkpt lat="44.89081" lon="3.94915">
        <ele>1017</ele>
        <time>2021-04-29T12:43:47Z</time>
      </trkpt>
      <trkpt lat="44.89082" lon="3.94912">
        <ele>1018</ele>
        <time>2021-04-29T12:43:48Z</time>
      </trkpt>
      <trkpt lat="44.89082" lon="3.94909">
        <ele>1018</ele>
        <time>2021-04-29T12:43:49Z</time>
      </trkpt>
      <trkpt lat="44.8908" lon="3.94892">
        <ele>1020</ele>
        <time>2021-04-29T12:43:54Z</time>
      </trkpt>
      <trkpt lat="44.8908" lon="3.94888">
        <ele>1020</ele>
        <time>2021-04-29T12:43:55Z</time>
      </trkpt>
      <trkpt lat="44.89079" lon="3.9488">
        <ele>1020</ele>
        <time>2021-04-29T12:43:57Z</time>
      </trkpt>
      <trkpt lat="44.89078" lon="3.94875">
        <ele>1021</ele>
        <time>2021-04-29T12:43:58Z</time>
      </trkpt>
      <trkpt lat="44.89077" lon="3.94871">
        <ele>1021</ele>
        <time>2021-04-29T12:43:59Z</time>
      </trkpt>
      <trkpt lat="44.89076" lon="3.94867">
        <ele>1021</ele>
        <time>2021-04-29T12:44:00Z</time>
      </trkpt>
      <trkpt lat="44.89076" lon="3.94864">
        <ele>1021</ele>
        <time>2021-04-29T12:44:01Z</time>
      </trkpt>
      <trkpt lat="44.89076" lon="3.94854">
        <ele>1022</ele>
        <time>2021-04-29T12:44:03Z</time>
      </trkpt>
      <trkpt lat="44.89078" lon="3.94849">
        <ele>1022</ele>
        <time>2021-04-29T12:44:04Z</time>
      </trkpt>
      <trkpt lat="44.8908" lon="3.94845">
        <ele>1022</ele>
        <time>2021-04-29T12:44:05Z</time>
      </trkpt>
      <trkpt lat="44.89082" lon="3.94842">
        <ele>1022</ele>
        <time>2021-04-29T12:44:06Z</time>
      </trkpt>
      <trkpt lat="44.89084" lon="3.94839">
        <ele>1023</ele>
        <time>2021-04-29T12:44:07Z</time>
      </trkpt>
      <trkpt lat="44.89086" lon="3.94836">
        <ele>1023</ele>
        <time>2021-04-29T12:44:08Z</time>
      </trkpt>
      <trkpt lat="44.89087" lon="3.94831">
        <ele>1023</ele>
        <time>2021-04-29T12:44:09Z</time>
      </trkpt>
      <trkpt lat="44.89088" lon="3.94828">
        <ele>1023</ele>
        <time>2021-04-29T12:44:10Z</time>
      </trkpt>
      <trkpt lat="44.89091" lon="3.94819">
        <ele>1024</ele>
        <time>2021-04-29T12:44:11Z</time>
      </trkpt>
      <trkpt lat="44.89092" lon="3.94815">
        <ele>1024</ele>
        <time>2021-04-29T12:44:13Z</time>
      </trkpt>
      <trkpt lat="44.89094" lon="3.9481">
        <ele>1025</ele>
        <time>2021-04-29T12:44:14Z</time>
      </trkpt>
      <trkpt lat="44.89095" lon="3.94807">
        <ele>1025</ele>
        <time>2021-04-29T12:44:15Z</time>
      </trkpt>
      <trkpt lat="44.89096" lon="3.94804">
        <ele>1025</ele>
        <time>2021-04-29T12:44:16Z</time>
      </trkpt>
      <trkpt lat="44.89098" lon="3.948">
        <ele>1025</ele>
        <time>2021-04-29T12:44:17Z</time>
      </trkpt>
      <trkpt lat="44.89099" lon="3.94796">
        <ele>1026</ele>
        <time>2021-04-29T12:44:18Z</time>
      </trkpt>
      <trkpt lat="44.891" lon="3.94793">
        <ele>1026</ele>
        <time>2021-04-29T12:44:19Z</time>
      </trkpt>
      <trkpt lat="44.89101" lon="3.9479">
        <ele>1026</ele>
        <time>2021-04-29T12:44:20Z</time>
      </trkpt>
      <trkpt lat="44.89102" lon="3.94787">
        <ele>1027</ele>
        <time>2021-04-29T12:44:21Z</time>
      </trkpt>
      <trkpt lat="44.89103" lon="3.94784">
        <ele>1027</ele>
        <time>2021-04-29T12:44:22Z</time>
      </trkpt>
      <trkpt lat="44.89104" lon="3.94781">
        <ele>1028</ele>
        <time>2021-04-29T12:44:23Z</time>
      </trkpt>
      <trkpt lat="44.89105" lon="3.94777">
        <ele>1028</ele>
        <time>2021-04-29T12:44:24Z</time>
      </trkpt>
      <trkpt lat="44.89106" lon="3.94773">
        <ele>1029</ele>
        <time>2021-04-29T12:44:25Z</time>
      </trkpt>
      <trkpt lat="44.89106" lon="3.9477">
        <ele>1029</ele>
        <time>2021-04-29T12:44:26Z</time>
      </trkpt>
      <trkpt lat="44.89107" lon="3.94767">
        <ele>1029</ele>
        <time>2021-04-29T12:44:27Z</time>
      </trkpt>
      <trkpt lat="44.89107" lon="3.94763">
        <ele>1030</ele>
        <time>2021-04-29T12:44:28Z</time>
      </trkpt>
      <trkpt lat="44.89107" lon="3.94759">
        <ele>1030</ele>
        <time>2021-04-29T12:44:29Z</time>
      </trkpt>
      <trkpt lat="44.89108" lon="3.94752">
        <ele>1031</ele>
        <time>2021-04-29T12:44:30Z</time>
      </trkpt>
      <trkpt lat="44.89108" lon="3.94748">
        <ele>1031</ele>
        <time>2021-04-29T12:44:32Z</time>
      </trkpt>
      <trkpt lat="44.89108" lon="3.94745">
        <ele>1032</ele>
        <time>2021-04-29T12:44:33Z</time>
      </trkpt>
      <trkpt lat="44.89108" lon="3.94741">
        <ele>1032</ele>
        <time>2021-04-29T12:44:34Z</time>
      </trkpt>
      <trkpt lat="44.89108" lon="3.94737">
        <ele>1032</ele>
        <time>2021-04-29T12:44:35Z</time>
      </trkpt>
      <trkpt lat="44.89108" lon="3.94734">
        <ele>1033</ele>
        <time>2021-04-29T12:44:36Z</time>
      </trkpt>
      <trkpt lat="44.89108" lon="3.9473">
        <ele>1033</ele>
        <time>2021-04-29T12:44:37Z</time>
      </trkpt>
      <trkpt lat="44.89108" lon="3.94726">
        <ele>1033</ele>
        <time>2021-04-29T12:44:38Z</time>
      </trkpt>
      <trkpt lat="44.89108" lon="3.94723">
        <ele>1034</ele>
        <time>2021-04-29T12:44:39Z</time>
      </trkpt>
      <trkpt lat="44.89108" lon="3.9472">
        <ele>1034</ele>
        <time>2021-04-29T12:44:40Z</time>
      </trkpt>
      <trkpt lat="44.89107" lon="3.94716">
        <ele>1034</ele>
        <time>2021-04-29T12:44:41Z</time>
      </trkpt>
      <trkpt lat="44.89107" lon="3.94713">
        <ele>1035</ele>
        <time>2021-04-29T12:44:42Z</time>
      </trkpt>
      <trkpt lat="44.89106" lon="3.94709">
        <ele>1035</ele>
        <time>2021-04-29T12:44:43Z</time>
      </trkpt>
      <trkpt lat="44.89105" lon="3.94706">
        <ele>1036</ele>
        <time>2021-04-29T12:44:44Z</time>
      </trkpt>
      <trkpt lat="44.89105" lon="3.94702">
        <ele>1036</ele>
        <time>2021-04-29T12:44:45Z</time>
      </trkpt>
      <trkpt lat="44.89104" lon="3.94698">
        <ele>1037</ele>
        <time>2021-04-29T12:44:46Z</time>
      </trkpt>
      <trkpt lat="44.89104" lon="3.94694">
        <ele>1037</ele>
        <time>2021-04-29T12:44:47Z</time>
      </trkpt>
      <trkpt lat="44.89104" lon="3.94691">
        <ele>1038</ele>
        <time>2021-04-29T12:44:48Z</time>
      </trkpt>
      <trkpt lat="44.89104" lon="3.94688">
        <ele>1039</ele>
        <time>2021-04-29T12:44:49Z</time>
      </trkpt>
      <trkpt lat="44.89104" lon="3.94684">
        <ele>1040</ele>
        <time>2021-04-29T12:44:50Z</time>
      </trkpt>
      <trkpt lat="44.89103" lon="3.94682">
        <ele>1040</ele>
        <time>2021-04-29T12:44:51Z</time>
      </trkpt>
      <trkpt lat="44.89102" lon="3.94679">
        <ele>1040</ele>
        <time>2021-04-29T12:44:52Z</time>
      </trkpt>
      <trkpt lat="44.89102" lon="3.94676">
        <ele>1041</ele>
        <time>2021-04-29T12:44:53Z</time>
      </trkpt>
      <trkpt lat="44.89101" lon="3.94673">
        <ele>1041</ele>
        <time>2021-04-29T12:44:54Z</time>
      </trkpt>
      <trkpt lat="44.89101" lon="3.9467">
        <ele>1041</ele>
        <time>2021-04-29T12:44:55Z</time>
      </trkpt>
      <trkpt lat="44.89101" lon="3.94667">
        <ele>1042</ele>
        <time>2021-04-29T12:44:56Z</time>
      </trkpt>
      <trkpt lat="44.891" lon="3.94663">
        <ele>1042</ele>
        <time>2021-04-29T12:44:57Z</time>
      </trkpt>
      <trkpt lat="44.891" lon="3.94659">
        <ele>1042</ele>
        <time>2021-04-29T12:44:58Z</time>
      </trkpt>
      <trkpt lat="44.891" lon="3.94655">
        <ele>1042</ele>
        <time>2021-04-29T12:44:59Z</time>
      </trkpt>
      <trkpt lat="44.89099" lon="3.94651">
        <ele>1042</ele>
        <time>2021-04-29T12:45:00Z</time>
      </trkpt>
      <trkpt lat="44.89099" lon="3.94647">
        <ele>1042</ele>
        <time>2021-04-29T12:45:01Z</time>
      </trkpt>
      <trkpt lat="44.89099" lon="3.94643">
        <ele>1042</ele>
        <time>2021-04-29T12:45:02Z</time>
      </trkpt>
      <trkpt lat="44.891" lon="3.94639">
        <ele>1042</ele>
        <time>2021-04-29T12:45:03Z</time>
      </trkpt>
      <trkpt lat="44.89101" lon="3.94635">
        <ele>1042</ele>
        <time>2021-04-29T12:45:04Z</time>
      </trkpt>
      <trkpt lat="44.89101" lon="3.9463">
        <ele>1042</ele>
        <time>2021-04-29T12:45:05Z</time>
      </trkpt>
      <trkpt lat="44.89102" lon="3.94625">
        <ele>1042</ele>
        <time>2021-04-29T12:45:06Z</time>
      </trkpt>
      <trkpt lat="44.89102" lon="3.9462">
        <ele>1042</ele>
        <time>2021-04-29T12:45:07Z</time>
      </trkpt>
      <trkpt lat="44.89105" lon="3.9461">
        <ele>1042</ele>
        <time>2021-04-29T12:45:08Z</time>
      </trkpt>
      <trkpt lat="44.89107" lon="3.94606">
        <ele>1042</ele>
        <time>2021-04-29T12:45:10Z</time>
      </trkpt>
      <trkpt lat="44.89109" lon="3.94601">
        <ele>1042</ele>
        <time>2021-04-29T12:45:11Z</time>
      </trkpt>
      <trkpt lat="44.89111" lon="3.94597">
        <ele>1042</ele>
        <time>2021-04-29T12:45:12Z</time>
      </trkpt>
      <trkpt lat="44.89114" lon="3.94593">
        <ele>1042</ele>
        <time>2021-04-29T12:45:13Z</time>
      </trkpt>
      <trkpt lat="44.89117" lon="3.9459">
        <ele>1042</ele>
        <time>2021-04-29T12:45:14Z</time>
      </trkpt>
      <trkpt lat="44.89119" lon="3.94586">
        <ele>1042</ele>
        <time>2021-04-29T12:45:15Z</time>
      </trkpt>
      <trkpt lat="44.89122" lon="3.94582">
        <ele>1042</ele>
        <time>2021-04-29T12:45:16Z</time>
      </trkpt>
      <trkpt lat="44.89126" lon="3.94579">
        <ele>1042</ele>
        <time>2021-04-29T12:45:17Z</time>
      </trkpt>
      <trkpt lat="44.89129" lon="3.94575">
        <ele>1042</ele>
        <time>2021-04-29T12:45:18Z</time>
      </trkpt>
      <trkpt lat="44.89133" lon="3.94572">
        <ele>1042</ele>
        <time>2021-04-29T12:45:19Z</time>
      </trkpt>
      <trkpt lat="44.89137" lon="3.9457">
        <ele>1041</ele>
        <time>2021-04-29T12:45:20Z</time>
      </trkpt>
      <trkpt lat="44.89141" lon="3.94567">
        <ele>1041</ele>
        <time>2021-04-29T12:45:21Z</time>
      </trkpt>
      <trkpt lat="44.89145" lon="3.94566">
        <ele>1041</ele>
        <time>2021-04-29T12:45:22Z</time>
      </trkpt>
      <trkpt lat="44.89149" lon="3.94564">
        <ele>1041</ele>
        <time>2021-04-29T12:45:23Z</time>
      </trkpt>
      <trkpt lat="44.89154" lon="3.94564">
        <ele>1041</ele>
        <time>2021-04-29T12:45:24Z</time>
      </trkpt>
      <trkpt lat="44.89158" lon="3.94564">
        <ele>1041</ele>
        <time>2021-04-29T12:45:25Z</time>
      </trkpt>
      <trkpt lat="44.89162" lon="3.94564">
        <ele>1041</ele>
        <time>2021-04-29T12:45:26Z</time>
      </trkpt>
      <trkpt lat="44.89166" lon="3.94564">
        <ele>1041</ele>
        <time>2021-04-29T12:45:27Z</time>
      </trkpt>
      <trkpt lat="44.8917" lon="3.94565">
        <ele>1041</ele>
        <time>2021-04-29T12:45:28Z</time>
      </trkpt>
      <trkpt lat="44.89174" lon="3.94565">
        <ele>1041</ele>
        <time>2021-04-29T12:45:29Z</time>
      </trkpt>
      <trkpt lat="44.89178" lon="3.94567">
        <ele>1041</ele>
        <time>2021-04-29T12:45:30Z</time>
      </trkpt>
      <trkpt lat="44.89183" lon="3.94568">
        <ele>1040</ele>
        <time>2021-04-29T12:45:31Z</time>
      </trkpt>
      <trkpt lat="44.89187" lon="3.9457">
        <ele>1040</ele>
        <time>2021-04-29T12:45:32Z</time>
      </trkpt>
      <trkpt lat="44.89192" lon="3.94572">
        <ele>1040</ele>
        <time>2021-04-29T12:45:33Z</time>
      </trkpt>
      <trkpt lat="44.89196" lon="3.94574">
        <ele>1039</ele>
        <time>2021-04-29T12:45:34Z</time>
      </trkpt>
      <trkpt lat="44.89201" lon="3.94577">
        <ele>1039</ele>
        <time>2021-04-29T12:45:35Z</time>
      </trkpt>
      <trkpt lat="44.89206" lon="3.94579">
        <ele>1039</ele>
        <time>2021-04-29T12:45:36Z</time>
      </trkpt>
      <trkpt lat="44.89211" lon="3.94582">
        <ele>1038</ele>
        <time>2021-04-29T12:45:37Z</time>
      </trkpt>
      <trkpt lat="44.89216" lon="3.94585">
        <ele>1038</ele>
        <time>2021-04-29T12:45:38Z</time>
      </trkpt>
      <trkpt lat="44.89221" lon="3.94587">
        <ele>1037</ele>
        <time>2021-04-29T12:45:39Z</time>
      </trkpt>
      <trkpt lat="44.89227" lon="3.94589">
        <ele>1037</ele>
        <time>2021-04-29T12:45:40Z</time>
      </trkpt>
      <trkpt lat="44.89232" lon="3.9459">
        <ele>1037</ele>
        <time>2021-04-29T12:45:41Z</time>
      </trkpt>
      <trkpt lat="44.89238" lon="3.94589">
        <ele>1036</ele>
        <time>2021-04-29T12:45:42Z</time>
      </trkpt>
      <trkpt lat="44.89244" lon="3.94586">
        <ele>1036</ele>
        <time>2021-04-29T12:45:43Z</time>
      </trkpt>
      <trkpt lat="44.89249" lon="3.94581">
        <ele>1036</ele>
        <time>2021-04-29T12:45:44Z</time>
      </trkpt>
      <trkpt lat="44.89254" lon="3.94574">
        <ele>1035</ele>
        <time>2021-04-29T12:45:45Z</time>
      </trkpt>
      <trkpt lat="44.89258" lon="3.94567">
        <ele>1035</ele>
        <time>2021-04-29T12:45:46Z</time>
      </trkpt>
      <trkpt lat="44.89263" lon="3.9456">
        <ele>1035</ele>
        <time>2021-04-29T12:45:47Z</time>
      </trkpt>
      <trkpt lat="44.89267" lon="3.94552">
        <ele>1035</ele>
        <time>2021-04-29T12:45:48Z</time>
      </trkpt>
      <trkpt lat="44.89272" lon="3.94545">
        <ele>1034</ele>
        <time>2021-04-29T12:45:49Z</time>
      </trkpt>
      <trkpt lat="44.89276" lon="3.94538">
        <ele>1034</ele>
        <time>2021-04-29T12:45:50Z</time>
      </trkpt>
      <trkpt lat="44.89281" lon="3.9453">
        <ele>1034</ele>
        <time>2021-04-29T12:45:51Z</time>
      </trkpt>
      <trkpt lat="44.89286" lon="3.94524">
        <ele>1034</ele>
        <time>2021-04-29T12:45:52Z</time>
      </trkpt>
      <trkpt lat="44.89291" lon="3.94517">
        <ele>1034</ele>
        <time>2021-04-29T12:45:53Z</time>
      </trkpt>
      <trkpt lat="44.89296" lon="3.9451">
        <ele>1034</ele>
        <time>2021-04-29T12:45:54Z</time>
      </trkpt>
      <trkpt lat="44.89301" lon="3.94504">
        <ele>1034</ele>
        <time>2021-04-29T12:45:55Z</time>
      </trkpt>
      <trkpt lat="44.89307" lon="3.94497">
        <ele>1034</ele>
        <time>2021-04-29T12:45:56Z</time>
      </trkpt>
      <trkpt lat="44.89312" lon="3.94491">
        <ele>1034</ele>
        <time>2021-04-29T12:45:57Z</time>
      </trkpt>
      <trkpt lat="44.89317" lon="3.94485">
        <ele>1034</ele>
        <time>2021-04-29T12:45:58Z</time>
      </trkpt>
      <trkpt lat="44.89322" lon="3.94479">
        <ele>1034</ele>
        <time>2021-04-29T12:45:59Z</time>
      </trkpt>
      <trkpt lat="44.89326" lon="3.94474">
        <ele>1034</ele>
        <time>2021-04-29T12:46:00Z</time>
      </trkpt>
      <trkpt lat="44.89331" lon="3.94468">
        <ele>1033</ele>
        <time>2021-04-29T12:46:01Z</time>
      </trkpt>
      <trkpt lat="44.89335" lon="3.94462">
        <ele>1033</ele>
        <time>2021-04-29T12:46:02Z</time>
      </trkpt>
      <trkpt lat="44.89339" lon="3.94457">
        <ele>1033</ele>
        <time>2021-04-29T12:46:03Z</time>
      </trkpt>
      <trkpt lat="44.89343" lon="3.94451">
        <ele>1033</ele>
        <time>2021-04-29T12:46:04Z</time>
      </trkpt>
      <trkpt lat="44.8935" lon="3.94439">
        <ele>1033</ele>
        <time>2021-04-29T12:46:05Z</time>
      </trkpt>
      <trkpt lat="44.89353" lon="3.94433">
        <ele>1033</ele>
        <time>2021-04-29T12:46:07Z</time>
      </trkpt>
      <trkpt lat="44.89356" lon="3.94426">
        <ele>1033</ele>
        <time>2021-04-29T12:46:08Z</time>
      </trkpt>
      <trkpt lat="44.89359" lon="3.94419">
        <ele>1033</ele>
        <time>2021-04-29T12:46:09Z</time>
      </trkpt>
      <trkpt lat="44.89363" lon="3.94413">
        <ele>1033</ele>
        <time>2021-04-29T12:46:10Z</time>
      </trkpt>
      <trkpt lat="44.89367" lon="3.94408">
        <ele>1033</ele>
        <time>2021-04-29T12:46:11Z</time>
      </trkpt>
      <trkpt lat="44.89371" lon="3.94403">
        <ele>1033</ele>
        <time>2021-04-29T12:46:12Z</time>
      </trkpt>
      <trkpt lat="44.89376" lon="3.94399">
        <ele>1032</ele>
        <time>2021-04-29T12:46:13Z</time>
      </trkpt>
      <trkpt lat="44.89381" lon="3.94397">
        <ele>1032</ele>
        <time>2021-04-29T12:46:14Z</time>
      </trkpt>
      <trkpt lat="44.89386" lon="3.94395">
        <ele>1032</ele>
        <time>2021-04-29T12:46:15Z</time>
      </trkpt>
      <trkpt lat="44.89391" lon="3.94394">
        <ele>1032</ele>
        <time>2021-04-29T12:46:16Z</time>
      </trkpt>
      <trkpt lat="44.89396" lon="3.94393">
        <ele>1032</ele>
        <time>2021-04-29T12:46:17Z</time>
      </trkpt>
      <trkpt lat="44.89402" lon="3.94392">
        <ele>1032</ele>
        <time>2021-04-29T12:46:18Z</time>
      </trkpt>
      <trkpt lat="44.89407" lon="3.94392">
        <ele>1032</ele>
        <time>2021-04-29T12:46:19Z</time>
      </trkpt>
      <trkpt lat="44.89411" lon="3.94391">
        <ele>1032</ele>
        <time>2021-04-29T12:46:20Z</time>
      </trkpt>
      <trkpt lat="44.89416" lon="3.9439">
        <ele>1032</ele>
        <time>2021-04-29T12:46:21Z</time>
      </trkpt>
      <trkpt lat="44.89421" lon="3.94389">
        <ele>1032</ele>
        <time>2021-04-29T12:46:22Z</time>
      </trkpt>
      <trkpt lat="44.89425" lon="3.94388">
        <ele>1032</ele>
        <time>2021-04-29T12:46:23Z</time>
      </trkpt>
      <trkpt lat="44.89434" lon="3.94386">
        <ele>1032</ele>
        <time>2021-04-29T12:46:24Z</time>
      </trkpt>
      <trkpt lat="44.8944" lon="3.94385">
        <ele>1032</ele>
        <time>2021-04-29T12:46:26Z</time>
      </trkpt>
      <trkpt lat="44.89445" lon="3.94382">
        <ele>1032</ele>
        <time>2021-04-29T12:46:27Z</time>
      </trkpt>
      <trkpt lat="44.89449" lon="3.94378">
        <ele>1032</ele>
        <time>2021-04-29T12:46:28Z</time>
      </trkpt>
      <trkpt lat="44.89454" lon="3.94375">
        <ele>1032</ele>
        <time>2021-04-29T12:46:29Z</time>
      </trkpt>
      <trkpt lat="44.8946" lon="3.94374">
        <ele>1031</ele>
        <time>2021-04-29T12:46:30Z</time>
      </trkpt>
      <trkpt lat="44.89466" lon="3.94374">
        <ele>1031</ele>
        <time>2021-04-29T12:46:31Z</time>
      </trkpt>
      <trkpt lat="44.89471" lon="3.94376">
        <ele>1031</ele>
        <time>2021-04-29T12:46:32Z</time>
      </trkpt>
      <trkpt lat="44.89476" lon="3.94379">
        <ele>1031</ele>
        <time>2021-04-29T12:46:33Z</time>
      </trkpt>
      <trkpt lat="44.89481" lon="3.94382">
        <ele>1031</ele>
        <time>2021-04-29T12:46:34Z</time>
      </trkpt>
      <trkpt lat="44.89485" lon="3.94387">
        <ele>1031</ele>
        <time>2021-04-29T12:46:35Z</time>
      </trkpt>
      <trkpt lat="44.89489" lon="3.94391">
        <ele>1030</ele>
        <time>2021-04-29T12:46:36Z</time>
      </trkpt>
      <trkpt lat="44.89494" lon="3.94395">
        <ele>1030</ele>
        <time>2021-04-29T12:46:37Z</time>
      </trkpt>
      <trkpt lat="44.89499" lon="3.94398">
        <ele>1030</ele>
        <time>2021-04-29T12:46:38Z</time>
      </trkpt>
      <trkpt lat="44.89504" lon="3.94399">
        <ele>1030</ele>
        <time>2021-04-29T12:46:39Z</time>
      </trkpt>
      <trkpt lat="44.8951" lon="3.94399">
        <ele>1029</ele>
        <time>2021-04-29T12:46:40Z</time>
      </trkpt>
      <trkpt lat="44.89515" lon="3.94397">
        <ele>1029</ele>
        <time>2021-04-29T12:46:41Z</time>
      </trkpt>
      <trkpt lat="44.8952" lon="3.94394">
        <ele>1029</ele>
        <time>2021-04-29T12:46:42Z</time>
      </trkpt>
      <trkpt lat="44.89528" lon="3.94386">
        <ele>1029</ele>
        <time>2021-04-29T12:46:43Z</time>
      </trkpt>
      <trkpt lat="44.89532" lon="3.94382">
        <ele>1030</ele>
        <time>2021-04-29T12:46:45Z</time>
      </trkpt>
      <trkpt lat="44.89535" lon="3.94377">
        <ele>1030</ele>
        <time>2021-04-29T12:46:46Z</time>
      </trkpt>
      <trkpt lat="44.89538" lon="3.94372">
        <ele>1030</ele>
        <time>2021-04-29T12:46:47Z</time>
      </trkpt>
      <trkpt lat="44.8954" lon="3.94367">
        <ele>1030</ele>
        <time>2021-04-29T12:46:48Z</time>
      </trkpt>
      <trkpt lat="44.89542" lon="3.94361">
        <ele>1030</ele>
        <time>2021-04-29T12:46:49Z</time>
      </trkpt>
      <trkpt lat="44.89543" lon="3.94355">
        <ele>1030</ele>
        <time>2021-04-29T12:46:50Z</time>
      </trkpt>
      <trkpt lat="44.89544" lon="3.94348">
        <ele>1030</ele>
        <time>2021-04-29T12:46:51Z</time>
      </trkpt>
      <trkpt lat="44.89544" lon="3.94342">
        <ele>1030</ele>
        <time>2021-04-29T12:46:52Z</time>
      </trkpt>
      <trkpt lat="44.89545" lon="3.94336">
        <ele>1030</ele>
        <time>2021-04-29T12:46:53Z</time>
      </trkpt>
      <trkpt lat="44.89547" lon="3.9433">
        <ele>1030</ele>
        <time>2021-04-29T12:46:54Z</time>
      </trkpt>
      <trkpt lat="44.8955" lon="3.94324">
        <ele>1030</ele>
        <time>2021-04-29T12:46:55Z</time>
      </trkpt>
      <trkpt lat="44.89553" lon="3.9432">
        <ele>1029</ele>
        <time>2021-04-29T12:46:56Z</time>
      </trkpt>
      <trkpt lat="44.89558" lon="3.94316">
        <ele>1029</ele>
        <time>2021-04-29T12:46:57Z</time>
      </trkpt>
      <trkpt lat="44.89562" lon="3.94314">
        <ele>1029</ele>
        <time>2021-04-29T12:46:58Z</time>
      </trkpt>
      <trkpt lat="44.89567" lon="3.94312">
        <ele>1029</ele>
        <time>2021-04-29T12:46:59Z</time>
      </trkpt>
      <trkpt lat="44.89572" lon="3.94311">
        <ele>1029</ele>
        <time>2021-04-29T12:47:00Z</time>
      </trkpt>
      <trkpt lat="44.89577" lon="3.9431">
        <ele>1029</ele>
        <time>2021-04-29T12:47:01Z</time>
      </trkpt>
      <trkpt lat="44.89588" lon="3.94309">
        <ele>1029</ele>
        <time>2021-04-29T12:47:02Z</time>
      </trkpt>
      <trkpt lat="44.89593" lon="3.94308">
        <ele>1029</ele>
        <time>2021-04-29T12:47:04Z</time>
      </trkpt>
      <trkpt lat="44.89598" lon="3.94306">
        <ele>1029</ele>
        <time>2021-04-29T12:47:05Z</time>
      </trkpt>
      <trkpt lat="44.89603" lon="3.94304">
        <ele>1029</ele>
        <time>2021-04-29T12:47:06Z</time>
      </trkpt>
      <trkpt lat="44.89608" lon="3.94302">
        <ele>1029</ele>
        <time>2021-04-29T12:47:07Z</time>
      </trkpt>
      <trkpt lat="44.89613" lon="3.943">
        <ele>1029</ele>
        <time>2021-04-29T12:47:08Z</time>
      </trkpt>
      <trkpt lat="44.89618" lon="3.94299">
        <ele>1030</ele>
        <time>2021-04-29T12:47:09Z</time>
      </trkpt>
      <trkpt lat="44.89622" lon="3.94296">
        <ele>1030</ele>
        <time>2021-04-29T12:47:10Z</time>
      </trkpt>
      <trkpt lat="44.89626" lon="3.94293">
        <ele>1030</ele>
        <time>2021-04-29T12:47:11Z</time>
      </trkpt>
      <trkpt lat="44.8963" lon="3.94292">
        <ele>1030</ele>
        <time>2021-04-29T12:47:12Z</time>
      </trkpt>
      <trkpt lat="44.89635" lon="3.94292">
        <ele>1030</ele>
        <time>2021-04-29T12:47:13Z</time>
      </trkpt>
      <trkpt lat="44.89639" lon="3.94294">
        <ele>1030</ele>
        <time>2021-04-29T12:47:14Z</time>
      </trkpt>
      <trkpt lat="44.89643" lon="3.94296">
        <ele>1030</ele>
        <time>2021-04-29T12:47:15Z</time>
      </trkpt>
      <trkpt lat="44.89647" lon="3.94298">
        <ele>1030</ele>
        <time>2021-04-29T12:47:16Z</time>
      </trkpt>
      <trkpt lat="44.89651" lon="3.94299">
        <ele>1030</ele>
        <time>2021-04-29T12:47:17Z</time>
      </trkpt>
      <trkpt lat="44.89655" lon="3.94299">
        <ele>1030</ele>
        <time>2021-04-29T12:47:18Z</time>
      </trkpt>
      <trkpt lat="44.8966" lon="3.943">
        <ele>1030</ele>
        <time>2021-04-29T12:47:19Z</time>
      </trkpt>
      <trkpt lat="44.89664" lon="3.943">
        <ele>1030</ele>
        <time>2021-04-29T12:47:20Z</time>
      </trkpt>
      <trkpt lat="44.89672" lon="3.943">
        <ele>1030</ele>
        <time>2021-04-29T12:47:21Z</time>
      </trkpt>
      <trkpt lat="44.89679" lon="3.94301">
        <ele>1031</ele>
        <time>2021-04-29T12:47:23Z</time>
      </trkpt>
      <trkpt lat="44.89683" lon="3.94302">
        <ele>1031</ele>
        <time>2021-04-29T12:47:25Z</time>
      </trkpt>
      <trkpt lat="44.89687" lon="3.94304">
        <ele>1031</ele>
        <time>2021-04-29T12:47:26Z</time>
      </trkpt>
      <trkpt lat="44.8969" lon="3.94306">
        <ele>1031</ele>
        <time>2021-04-29T12:47:27Z</time>
      </trkpt>
      <trkpt lat="44.89693" lon="3.94307">
        <ele>1031</ele>
        <time>2021-04-29T12:47:28Z</time>
      </trkpt>
      <trkpt lat="44.89697" lon="3.94309">
        <ele>1031</ele>
        <time>2021-04-29T12:47:29Z</time>
      </trkpt>
      <trkpt lat="44.897" lon="3.9431">
        <ele>1031</ele>
        <time>2021-04-29T12:47:30Z</time>
      </trkpt>
      <trkpt lat="44.89703" lon="3.94312">
        <ele>1032</ele>
        <time>2021-04-29T12:47:31Z</time>
      </trkpt>
      <trkpt lat="44.89707" lon="3.94314">
        <ele>1032</ele>
        <time>2021-04-29T12:47:32Z</time>
      </trkpt>
      <trkpt lat="44.8971" lon="3.94316">
        <ele>1032</ele>
        <time>2021-04-29T12:47:33Z</time>
      </trkpt>
      <trkpt lat="44.89713" lon="3.94317">
        <ele>1032</ele>
        <time>2021-04-29T12:47:34Z</time>
      </trkpt>
      <trkpt lat="44.89718" lon="3.94319">
        <ele>1032</ele>
        <time>2021-04-29T12:47:35Z</time>
      </trkpt>
      <trkpt lat="44.89722" lon="3.94322">
        <ele>1032</ele>
        <time>2021-04-29T12:47:36Z</time>
      </trkpt>
      <trkpt lat="44.89726" lon="3.94326">
        <ele>1032</ele>
        <time>2021-04-29T12:47:37Z</time>
      </trkpt>
      <trkpt lat="44.89729" lon="3.94329">
        <ele>1032</ele>
        <time>2021-04-29T12:47:38Z</time>
      </trkpt>
      <trkpt lat="44.89732" lon="3.94333">
        <ele>1032</ele>
        <time>2021-04-29T12:47:39Z</time>
      </trkpt>
      <trkpt lat="44.8974" lon="3.94339">
        <ele>1032</ele>
        <time>2021-04-29T12:47:40Z</time>
      </trkpt>
      <trkpt lat="44.89744" lon="3.94343">
        <ele>1033</ele>
        <time>2021-04-29T12:47:42Z</time>
      </trkpt>
      <trkpt lat="44.89747" lon="3.94347">
        <ele>1033</ele>
        <time>2021-04-29T12:47:43Z</time>
      </trkpt>
      <trkpt lat="44.89751" lon="3.9435">
        <ele>1033</ele>
        <time>2021-04-29T12:47:44Z</time>
      </trkpt>
      <trkpt lat="44.89754" lon="3.94353">
        <ele>1034</ele>
        <time>2021-04-29T12:47:45Z</time>
      </trkpt>
      <trkpt lat="44.89757" lon="3.94357">
        <ele>1034</ele>
        <time>2021-04-29T12:47:46Z</time>
      </trkpt>
      <trkpt lat="44.89761" lon="3.94361">
        <ele>1034</ele>
        <time>2021-04-29T12:47:47Z</time>
      </trkpt>
      <trkpt lat="44.89764" lon="3.94364">
        <ele>1035</ele>
        <time>2021-04-29T12:47:48Z</time>
      </trkpt>
      <trkpt lat="44.89767" lon="3.94368">
        <ele>1035</ele>
        <time>2021-04-29T12:47:49Z</time>
      </trkpt>
      <trkpt lat="44.89771" lon="3.94372">
        <ele>1035</ele>
        <time>2021-04-29T12:47:50Z</time>
      </trkpt>
      <trkpt lat="44.89775" lon="3.94376">
        <ele>1035</ele>
        <time>2021-04-29T12:47:51Z</time>
      </trkpt>
      <trkpt lat="44.89778" lon="3.9438">
        <ele>1036</ele>
        <time>2021-04-29T12:47:52Z</time>
      </trkpt>
      <trkpt lat="44.89782" lon="3.94385">
        <ele>1036</ele>
        <time>2021-04-29T12:47:53Z</time>
      </trkpt>
      <trkpt lat="44.89785" lon="3.94389">
        <ele>1036</ele>
        <time>2021-04-29T12:47:54Z</time>
      </trkpt>
      <trkpt lat="44.89789" lon="3.94393">
        <ele>1036</ele>
        <time>2021-04-29T12:47:55Z</time>
      </trkpt>
      <trkpt lat="44.89792" lon="3.94398">
        <ele>1036</ele>
        <time>2021-04-29T12:47:56Z</time>
      </trkpt>
      <trkpt lat="44.89795" lon="3.94402">
        <ele>1037</ele>
        <time>2021-04-29T12:47:57Z</time>
      </trkpt>
      <trkpt lat="44.89802" lon="3.9441">
        <ele>1037</ele>
        <time>2021-04-29T12:47:58Z</time>
      </trkpt>
      <trkpt lat="44.89805" lon="3.94413">
        <ele>1037</ele>
        <time>2021-04-29T12:47:59Z</time>
      </trkpt>
      <trkpt lat="44.89808" lon="3.94417">
        <ele>1038</ele>
        <time>2021-04-29T12:48:01Z</time>
      </trkpt>
      <trkpt lat="44.89811" lon="3.94421">
        <ele>1038</ele>
        <time>2021-04-29T12:48:02Z</time>
      </trkpt>
      <trkpt lat="44.89814" lon="3.94425">
        <ele>1039</ele>
        <time>2021-04-29T12:48:03Z</time>
      </trkpt>
      <trkpt lat="44.89817" lon="3.94429">
        <ele>1039</ele>
        <time>2021-04-29T12:48:04Z</time>
      </trkpt>
      <trkpt lat="44.89819" lon="3.94433">
        <ele>1039</ele>
        <time>2021-04-29T12:48:05Z</time>
      </trkpt>
      <trkpt lat="44.89822" lon="3.94437">
        <ele>1040</ele>
        <time>2021-04-29T12:48:06Z</time>
      </trkpt>
      <trkpt lat="44.89824" lon="3.94441">
        <ele>1040</ele>
        <time>2021-04-29T12:48:07Z</time>
      </trkpt>
      <trkpt lat="44.89827" lon="3.94445">
        <ele>1040</ele>
        <time>2021-04-29T12:48:08Z</time>
      </trkpt>
      <trkpt lat="44.89829" lon="3.94449">
        <ele>1040</ele>
        <time>2021-04-29T12:48:09Z</time>
      </trkpt>
      <trkpt lat="44.89831" lon="3.94452">
        <ele>1041</ele>
        <time>2021-04-29T12:48:10Z</time>
      </trkpt>
      <trkpt lat="44.89833" lon="3.94456">
        <ele>1041</ele>
        <time>2021-04-29T12:48:11Z</time>
      </trkpt>
      <trkpt lat="44.89836" lon="3.94459">
        <ele>1041</ele>
        <time>2021-04-29T12:48:12Z</time>
      </trkpt>
      <trkpt lat="44.89839" lon="3.94462">
        <ele>1042</ele>
        <time>2021-04-29T12:48:13Z</time>
      </trkpt>
      <trkpt lat="44.89842" lon="3.94465">
        <ele>1042</ele>
        <time>2021-04-29T12:48:14Z</time>
      </trkpt>
      <trkpt lat="44.89845" lon="3.94468">
        <ele>1042</ele>
        <time>2021-04-29T12:48:15Z</time>
      </trkpt>
      <trkpt lat="44.89848" lon="3.9447">
        <ele>1042</ele>
        <time>2021-04-29T12:48:16Z</time>
      </trkpt>
      <trkpt lat="44.89851" lon="3.94472">
        <ele>1042</ele>
        <time>2021-04-29T12:48:17Z</time>
      </trkpt>
      <trkpt lat="44.89854" lon="3.94475">
        <ele>1042</ele>
        <time>2021-04-29T12:48:18Z</time>
      </trkpt>
      <trkpt lat="44.89858" lon="3.94477">
        <ele>1042</ele>
        <time>2021-04-29T12:48:19Z</time>
      </trkpt>
      <trkpt lat="44.89861" lon="3.94479">
        <ele>1043</ele>
        <time>2021-04-29T12:48:20Z</time>
      </trkpt>
      <trkpt lat="44.89864" lon="3.94482">
        <ele>1043</ele>
        <time>2021-04-29T12:48:21Z</time>
      </trkpt>
      <trkpt lat="44.89868" lon="3.94484">
        <ele>1043</ele>
        <time>2021-04-29T12:48:22Z</time>
      </trkpt>
      <trkpt lat="44.89872" lon="3.94487">
        <ele>1044</ele>
        <time>2021-04-29T12:48:23Z</time>
      </trkpt>
      <trkpt lat="44.89876" lon="3.94489">
        <ele>1044</ele>
        <time>2021-04-29T12:48:24Z</time>
      </trkpt>
      <trkpt lat="44.8988" lon="3.94491">
        <ele>1044</ele>
        <time>2021-04-29T12:48:25Z</time>
      </trkpt>
      <trkpt lat="44.89884" lon="3.94493">
        <ele>1044</ele>
        <time>2021-04-29T12:48:26Z</time>
      </trkpt>
      <trkpt lat="44.89888" lon="3.94494">
        <ele>1045</ele>
        <time>2021-04-29T12:48:27Z</time>
      </trkpt>
      <trkpt lat="44.89891" lon="3.94496">
        <ele>1045</ele>
        <time>2021-04-29T12:48:28Z</time>
      </trkpt>
      <trkpt lat="44.89895" lon="3.94497">
        <ele>1045</ele>
        <time>2021-04-29T12:48:29Z</time>
      </trkpt>
      <trkpt lat="44.89898" lon="3.94498">
        <ele>1045</ele>
        <time>2021-04-29T12:48:30Z</time>
      </trkpt>
      <trkpt lat="44.89902" lon="3.94499">
        <ele>1046</ele>
        <time>2021-04-29T12:48:31Z</time>
      </trkpt>
      <trkpt lat="44.89906" lon="3.94501">
        <ele>1046</ele>
        <time>2021-04-29T12:48:32Z</time>
      </trkpt>
      <trkpt lat="44.8991" lon="3.94502">
        <ele>1046</ele>
        <time>2021-04-29T12:48:33Z</time>
      </trkpt>
      <trkpt lat="44.89913" lon="3.94504">
        <ele>1047</ele>
        <time>2021-04-29T12:48:34Z</time>
      </trkpt>
      <trkpt lat="44.89917" lon="3.94505">
        <ele>1047</ele>
        <time>2021-04-29T12:48:35Z</time>
      </trkpt>
      <trkpt lat="44.89921" lon="3.94507">
        <ele>1047</ele>
        <time>2021-04-29T12:48:36Z</time>
      </trkpt>
      <trkpt lat="44.89928" lon="3.94511">
        <ele>1048</ele>
        <time>2021-04-29T12:48:37Z</time>
      </trkpt>
      <trkpt lat="44.89932" lon="3.94514">
        <ele>1049</ele>
        <time>2021-04-29T12:48:39Z</time>
      </trkpt>
      <trkpt lat="44.89935" lon="3.94516">
        <ele>1050</ele>
        <time>2021-04-29T12:48:40Z</time>
      </trkpt>
      <trkpt lat="44.89938" lon="3.94519">
        <ele>1051</ele>
        <time>2021-04-29T12:48:41Z</time>
      </trkpt>
      <trkpt lat="44.89941" lon="3.94522">
        <ele>1051</ele>
        <time>2021-04-29T12:48:42Z</time>
      </trkpt>
      <trkpt lat="44.89944" lon="3.94525">
        <ele>1052</ele>
        <time>2021-04-29T12:48:43Z</time>
      </trkpt>
      <trkpt lat="44.89947" lon="3.94528">
        <ele>1052</ele>
        <time>2021-04-29T12:48:44Z</time>
      </trkpt>
      <trkpt lat="44.89949" lon="3.94531">
        <ele>1053</ele>
        <time>2021-04-29T12:48:45Z</time>
      </trkpt>
      <trkpt lat="44.89952" lon="3.94534">
        <ele>1053</ele>
        <time>2021-04-29T12:48:46Z</time>
      </trkpt>
      <trkpt lat="44.89955" lon="3.94537">
        <ele>1054</ele>
        <time>2021-04-29T12:48:47Z</time>
      </trkpt>
      <trkpt lat="44.89958" lon="3.9454">
        <ele>1054</ele>
        <time>2021-04-29T12:48:48Z</time>
      </trkpt>
      <trkpt lat="44.89961" lon="3.94543">
        <ele>1055</ele>
        <time>2021-04-29T12:48:49Z</time>
      </trkpt>
      <trkpt lat="44.89964" lon="3.94546">
        <ele>1055</ele>
        <time>2021-04-29T12:48:50Z</time>
      </trkpt>
      <trkpt lat="44.89967" lon="3.94548">
        <ele>1056</ele>
        <time>2021-04-29T12:48:51Z</time>
      </trkpt>
      <trkpt lat="44.89969" lon="3.94551">
        <ele>1056</ele>
        <time>2021-04-29T12:48:52Z</time>
      </trkpt>
      <trkpt lat="44.89972" lon="3.94554">
        <ele>1056</ele>
        <time>2021-04-29T12:48:53Z</time>
      </trkpt>
      <trkpt lat="44.89975" lon="3.94557">
        <ele>1057</ele>
        <time>2021-04-29T12:48:54Z</time>
      </trkpt>
      <trkpt lat="44.89978" lon="3.9456">
        <ele>1057</ele>
        <time>2021-04-29T12:48:55Z</time>
      </trkpt>
      <trkpt lat="44.89983" lon="3.94565">
        <ele>1058</ele>
        <time>2021-04-29T12:48:56Z</time>
      </trkpt>
      <trkpt lat="44.89986" lon="3.94568">
        <ele>1059</ele>
        <time>2021-04-29T12:48:58Z</time>
      </trkpt>
      <trkpt lat="44.89989" lon="3.94571">
        <ele>1059</ele>
        <time>2021-04-29T12:48:59Z</time>
      </trkpt>
      <trkpt lat="44.89992" lon="3.94574">
        <ele>1059</ele>
        <time>2021-04-29T12:49:00Z</time>
      </trkpt>
      <trkpt lat="44.89995" lon="3.94578">
        <ele>1060</ele>
        <time>2021-04-29T12:49:01Z</time>
      </trkpt>
      <trkpt lat="44.89997" lon="3.94581">
        <ele>1060</ele>
        <time>2021-04-29T12:49:02Z</time>
      </trkpt>
      <trkpt lat="44.9" lon="3.94584">
        <ele>1061</ele>
        <time>2021-04-29T12:49:03Z</time>
      </trkpt>
      <trkpt lat="44.90003" lon="3.94588">
        <ele>1061</ele>
        <time>2021-04-29T12:49:04Z</time>
      </trkpt>
      <trkpt lat="44.90005" lon="3.94591">
        <ele>1061</ele>
        <time>2021-04-29T12:49:05Z</time>
      </trkpt>
      <trkpt lat="44.90008" lon="3.94595">
        <ele>1062</ele>
        <time>2021-04-29T12:49:06Z</time>
      </trkpt>
      <trkpt lat="44.9001" lon="3.94599">
        <ele>1062</ele>
        <time>2021-04-29T12:49:07Z</time>
      </trkpt>
      <trkpt lat="44.90013" lon="3.94602">
        <ele>1062</ele>
        <time>2021-04-29T12:49:08Z</time>
      </trkpt>
      <trkpt lat="44.90016" lon="3.94606">
        <ele>1063</ele>
        <time>2021-04-29T12:49:09Z</time>
      </trkpt>
      <trkpt lat="44.90018" lon="3.9461">
        <ele>1063</ele>
        <time>2021-04-29T12:49:10Z</time>
      </trkpt>
      <trkpt lat="44.90021" lon="3.94613">
        <ele>1064</ele>
        <time>2021-04-29T12:49:11Z</time>
      </trkpt>
      <trkpt lat="44.90023" lon="3.94617">
        <ele>1064</ele>
        <time>2021-04-29T12:49:12Z</time>
      </trkpt>
      <trkpt lat="44.90026" lon="3.9462">
        <ele>1064</ele>
        <time>2021-04-29T12:49:13Z</time>
      </trkpt>
      <trkpt lat="44.90029" lon="3.94624">
        <ele>1065</ele>
        <time>2021-04-29T12:49:14Z</time>
      </trkpt>
      <trkpt lat="44.90033" lon="3.94631">
        <ele>1065</ele>
        <time>2021-04-29T12:49:15Z</time>
      </trkpt>
      <trkpt lat="44.90036" lon="3.94634">
        <ele>1066</ele>
        <time>2021-04-29T12:49:17Z</time>
      </trkpt>
      <trkpt lat="44.90039" lon="3.94638">
        <ele>1066</ele>
        <time>2021-04-29T12:49:18Z</time>
      </trkpt>
      <trkpt lat="44.90041" lon="3.94641">
        <ele>1067</ele>
        <time>2021-04-29T12:49:19Z</time>
      </trkpt>
      <trkpt lat="44.90043" lon="3.94645">
        <ele>1067</ele>
        <time>2021-04-29T12:49:20Z</time>
      </trkpt>
      <trkpt lat="44.90046" lon="3.94648">
        <ele>1068</ele>
        <time>2021-04-29T12:49:21Z</time>
      </trkpt>
      <trkpt lat="44.90048" lon="3.94651">
        <ele>1068</ele>
        <time>2021-04-29T12:49:22Z</time>
      </trkpt>
      <trkpt lat="44.9005" lon="3.94655">
        <ele>1069</ele>
        <time>2021-04-29T12:49:23Z</time>
      </trkpt>
      <trkpt lat="44.90053" lon="3.94658">
        <ele>1069</ele>
        <time>2021-04-29T12:49:24Z</time>
      </trkpt>
      <trkpt lat="44.90055" lon="3.94661">
        <ele>1069</ele>
        <time>2021-04-29T12:49:25Z</time>
      </trkpt>
      <trkpt lat="44.90057" lon="3.94664">
        <ele>1070</ele>
        <time>2021-04-29T12:49:26Z</time>
      </trkpt>
      <trkpt lat="44.9006" lon="3.94668">
        <ele>1070</ele>
        <time>2021-04-29T12:49:27Z</time>
      </trkpt>
      <trkpt lat="44.90062" lon="3.94671">
        <ele>1071</ele>
        <time>2021-04-29T12:49:28Z</time>
      </trkpt>
      <trkpt lat="44.90065" lon="3.94673">
        <ele>1071</ele>
        <time>2021-04-29T12:49:29Z</time>
      </trkpt>
      <trkpt lat="44.90067" lon="3.94676">
        <ele>1072</ele>
        <time>2021-04-29T12:49:30Z</time>
      </trkpt>
      <trkpt lat="44.9007" lon="3.94679">
        <ele>1072</ele>
        <time>2021-04-29T12:49:31Z</time>
      </trkpt>
      <trkpt lat="44.90072" lon="3.94681">
        <ele>1073</ele>
        <time>2021-04-29T12:49:32Z</time>
      </trkpt>
      <trkpt lat="44.90075" lon="3.94684">
        <ele>1073</ele>
        <time>2021-04-29T12:49:33Z</time>
      </trkpt>
      <trkpt lat="44.90078" lon="3.94687">
        <ele>1074</ele>
        <time>2021-04-29T12:49:34Z</time>
      </trkpt>
      <trkpt lat="44.9008" lon="3.94689">
        <ele>1074</ele>
        <time>2021-04-29T12:49:35Z</time>
      </trkpt>
      <trkpt lat="44.90083" lon="3.94691">
        <ele>1074</ele>
        <time>2021-04-29T12:49:36Z</time>
      </trkpt>
      <trkpt lat="44.90086" lon="3.94694">
        <ele>1075</ele>
        <time>2021-04-29T12:49:37Z</time>
      </trkpt>
      <trkpt lat="44.90089" lon="3.94696">
        <ele>1075</ele>
        <time>2021-04-29T12:49:38Z</time>
      </trkpt>
      <trkpt lat="44.90092" lon="3.94698">
        <ele>1075</ele>
        <time>2021-04-29T12:49:39Z</time>
      </trkpt>
      <trkpt lat="44.90095" lon="3.947">
        <ele>1076</ele>
        <time>2021-04-29T12:49:40Z</time>
      </trkpt>
      <trkpt lat="44.90098" lon="3.94703">
        <ele>1076</ele>
        <time>2021-04-29T12:49:41Z</time>
      </trkpt>
      <trkpt lat="44.90101" lon="3.94705">
        <ele>1076</ele>
        <time>2021-04-29T12:49:42Z</time>
      </trkpt>
      <trkpt lat="44.90104" lon="3.94707">
        <ele>1077</ele>
        <time>2021-04-29T12:49:43Z</time>
      </trkpt>
      <trkpt lat="44.90106" lon="3.9471">
        <ele>1077</ele>
        <time>2021-04-29T12:49:44Z</time>
      </trkpt>
      <trkpt lat="44.90109" lon="3.94712">
        <ele>1078</ele>
        <time>2021-04-29T12:49:45Z</time>
      </trkpt>
      <trkpt lat="44.90112" lon="3.94714">
        <ele>1078</ele>
        <time>2021-04-29T12:49:46Z</time>
      </trkpt>
      <trkpt lat="44.90116" lon="3.94717">
        <ele>1078</ele>
        <time>2021-04-29T12:49:47Z</time>
      </trkpt>
      <trkpt lat="44.90119" lon="3.94719">
        <ele>1079</ele>
        <time>2021-04-29T12:49:48Z</time>
      </trkpt>
      <trkpt lat="44.90122" lon="3.94721">
        <ele>1079</ele>
        <time>2021-04-29T12:49:49Z</time>
      </trkpt>
      <trkpt lat="44.90125" lon="3.94724">
        <ele>1079</ele>
        <time>2021-04-29T12:49:50Z</time>
      </trkpt>
      <trkpt lat="44.90128" lon="3.94726">
        <ele>1080</ele>
        <time>2021-04-29T12:49:51Z</time>
      </trkpt>
      <trkpt lat="44.90131" lon="3.94729">
        <ele>1080</ele>
        <time>2021-04-29T12:49:52Z</time>
      </trkpt>
      <trkpt lat="44.90136" lon="3.94735">
        <ele>1080</ele>
        <time>2021-04-29T12:49:53Z</time>
      </trkpt>
      <trkpt lat="44.90139" lon="3.94739">
        <ele>1081</ele>
        <time>2021-04-29T12:49:55Z</time>
      </trkpt>
      <trkpt lat="44.90142" lon="3.94742">
        <ele>1082</ele>
        <time>2021-04-29T12:49:56Z</time>
      </trkpt>
      <trkpt lat="44.90147" lon="3.94751">
        <ele>1082</ele>
        <time>2021-04-29T12:49:57Z</time>
      </trkpt>
      <trkpt lat="44.90149" lon="3.94755">
        <ele>1083</ele>
        <time>2021-04-29T12:49:59Z</time>
      </trkpt>
      <trkpt lat="44.90152" lon="3.94759">
        <ele>1083</ele>
        <time>2021-04-29T12:50:00Z</time>
      </trkpt>
      <trkpt lat="44.90155" lon="3.94764">
        <ele>1083</ele>
        <time>2021-04-29T12:50:01Z</time>
      </trkpt>
      <trkpt lat="44.90157" lon="3.94768">
        <ele>1083</ele>
        <time>2021-04-29T12:50:02Z</time>
      </trkpt>
      <trkpt lat="44.9016" lon="3.94772">
        <ele>1084</ele>
        <time>2021-04-29T12:50:03Z</time>
      </trkpt>
      <trkpt lat="44.90163" lon="3.94776">
        <ele>1084</ele>
        <time>2021-04-29T12:50:04Z</time>
      </trkpt>
      <trkpt lat="44.90166" lon="3.9478">
        <ele>1084</ele>
        <time>2021-04-29T12:50:05Z</time>
      </trkpt>
      <trkpt lat="44.90169" lon="3.94785">
        <ele>1084</ele>
        <time>2021-04-29T12:50:06Z</time>
      </trkpt>
      <trkpt lat="44.90172" lon="3.94789">
        <ele>1085</ele>
        <time>2021-04-29T12:50:07Z</time>
      </trkpt>
      <trkpt lat="44.90175" lon="3.94793">
        <ele>1085</ele>
        <time>2021-04-29T12:50:08Z</time>
      </trkpt>
      <trkpt lat="44.90178" lon="3.94798">
        <ele>1085</ele>
        <time>2021-04-29T12:50:09Z</time>
      </trkpt>
      <trkpt lat="44.90182" lon="3.94802">
        <ele>1085</ele>
        <time>2021-04-29T12:50:10Z</time>
      </trkpt>
      <trkpt lat="44.90185" lon="3.94806">
        <ele>1086</ele>
        <time>2021-04-29T12:50:11Z</time>
      </trkpt>
      <trkpt lat="44.90188" lon="3.9481">
        <ele>1086</ele>
        <time>2021-04-29T12:50:12Z</time>
      </trkpt>
      <trkpt lat="44.90192" lon="3.94814">
        <ele>1086</ele>
        <time>2021-04-29T12:50:13Z</time>
      </trkpt>
      <trkpt lat="44.90195" lon="3.94818">
        <ele>1086</ele>
        <time>2021-04-29T12:50:14Z</time>
      </trkpt>
      <trkpt lat="44.90199" lon="3.94822">
        <ele>1086</ele>
        <time>2021-04-29T12:50:15Z</time>
      </trkpt>
      <trkpt lat="44.90203" lon="3.94826">
        <ele>1086</ele>
        <time>2021-04-29T12:50:16Z</time>
      </trkpt>
      <trkpt lat="44.90207" lon="3.94829">
        <ele>1087</ele>
        <time>2021-04-29T12:50:17Z</time>
      </trkpt>
      <trkpt lat="44.90211" lon="3.94833">
        <ele>1087</ele>
        <time>2021-04-29T12:50:18Z</time>
      </trkpt>
      <trkpt lat="44.90215" lon="3.94836">
        <ele>1087</ele>
        <time>2021-04-29T12:50:19Z</time>
      </trkpt>
      <trkpt lat="44.90219" lon="3.94839">
        <ele>1087</ele>
        <time>2021-04-29T12:50:20Z</time>
      </trkpt>
      <trkpt lat="44.90223" lon="3.94843">
        <ele>1087</ele>
        <time>2021-04-29T12:50:21Z</time>
      </trkpt>
      <trkpt lat="44.90227" lon="3.94846">
        <ele>1087</ele>
        <time>2021-04-29T12:50:22Z</time>
      </trkpt>
      <trkpt lat="44.90232" lon="3.94849">
        <ele>1087</ele>
        <time>2021-04-29T12:50:23Z</time>
      </trkpt>
      <trkpt lat="44.90236" lon="3.94852">
        <ele>1088</ele>
        <time>2021-04-29T12:50:24Z</time>
      </trkpt>
      <trkpt lat="44.9024" lon="3.94855">
        <ele>1088</ele>
        <time>2021-04-29T12:50:25Z</time>
      </trkpt>
      <trkpt lat="44.90244" lon="3.94858">
        <ele>1088</ele>
        <time>2021-04-29T12:50:26Z</time>
      </trkpt>
      <trkpt lat="44.90248" lon="3.94861">
        <ele>1088</ele>
        <time>2021-04-29T12:50:27Z</time>
      </trkpt>
      <trkpt lat="44.90252" lon="3.94865">
        <ele>1088</ele>
        <time>2021-04-29T12:50:28Z</time>
      </trkpt>
      <trkpt lat="44.90256" lon="3.94868">
        <ele>1088</ele>
        <time>2021-04-29T12:50:29Z</time>
      </trkpt>
      <trkpt lat="44.90259" lon="3.94871">
        <ele>1088</ele>
        <time>2021-04-29T12:50:30Z</time>
      </trkpt>
      <trkpt lat="44.90263" lon="3.94874">
        <ele>1088</ele>
        <time>2021-04-29T12:50:31Z</time>
      </trkpt>
      <trkpt lat="44.90266" lon="3.94876">
        <ele>1088</ele>
        <time>2021-04-29T12:50:32Z</time>
      </trkpt>
      <trkpt lat="44.9027" lon="3.94875">
        <ele>1088</ele>
        <time>2021-04-29T12:50:33Z</time>
      </trkpt>
      <trkpt lat="44.90273" lon="3.94872">
        <ele>1088</ele>
        <time>2021-04-29T12:50:34Z</time>
      </trkpt>
      <trkpt lat="44.90275" lon="3.94867">
        <ele>1088</ele>
        <time>2021-04-29T12:50:35Z</time>
      </trkpt>
      <trkpt lat="44.90277" lon="3.94862">
        <ele>1088</ele>
        <time>2021-04-29T12:50:36Z</time>
      </trkpt>
      <trkpt lat="44.90279" lon="3.94856">
        <ele>1088</ele>
        <time>2021-04-29T12:50:37Z</time>
      </trkpt>
      <trkpt lat="44.90282" lon="3.9485">
        <ele>1088</ele>
        <time>2021-04-29T12:50:38Z</time>
      </trkpt>
      <trkpt lat="44.90284" lon="3.94844">
        <ele>1088</ele>
        <time>2021-04-29T12:50:39Z</time>
      </trkpt>
      <trkpt lat="44.90286" lon="3.94838">
        <ele>1088</ele>
        <time>2021-04-29T12:50:40Z</time>
      </trkpt>
      <trkpt lat="44.90287" lon="3.94831">
        <ele>1088</ele>
        <time>2021-04-29T12:50:41Z</time>
      </trkpt>
      <trkpt lat="44.9029" lon="3.94826">
        <ele>1088</ele>
        <time>2021-04-29T12:50:42Z</time>
      </trkpt>
      <trkpt lat="44.90293" lon="3.94824">
        <ele>1088</ele>
        <time>2021-04-29T12:50:43Z</time>
      </trkpt>
      <trkpt lat="44.90297" lon="3.94825">
        <ele>1088</ele>
        <time>2021-04-29T12:50:44Z</time>
      </trkpt>
      <trkpt lat="44.90299" lon="3.9483">
        <ele>1088</ele>
        <time>2021-04-29T12:50:45Z</time>
      </trkpt>
      <trkpt lat="44.903" lon="3.94835">
        <ele>1089</ele>
        <time>2021-04-29T12:50:46Z</time>
      </trkpt>
      <trkpt lat="44.90301" lon="3.9484">
        <ele>1089</ele>
        <time>2021-04-29T12:50:47Z</time>
      </trkpt>
      <trkpt lat="44.90303" lon="3.94846">
        <ele>1089</ele>
        <time>2021-04-29T12:50:48Z</time>
      </trkpt>
      <trkpt lat="44.90304" lon="3.94851">
        <ele>1089</ele>
        <time>2021-04-29T12:50:49Z</time>
      </trkpt>
      <trkpt lat="44.90307" lon="3.9486">
        <ele>1090</ele>
        <time>2021-04-29T12:50:50Z</time>
      </trkpt>
      <trkpt lat="44.90309" lon="3.94864">
        <ele>1090</ele>
        <time>2021-04-29T12:50:52Z</time>
      </trkpt>
      <trkpt lat="44.9031" lon="3.94869">
        <ele>1090</ele>
        <time>2021-04-29T12:50:53Z</time>
      </trkpt>
      <trkpt lat="44.90312" lon="3.94873">
        <ele>1090</ele>
        <time>2021-04-29T12:50:54Z</time>
      </trkpt>
      <trkpt lat="44.90313" lon="3.94877">
        <ele>1090</ele>
        <time>2021-04-29T12:50:55Z</time>
      </trkpt>
      <trkpt lat="44.90315" lon="3.94882">
        <ele>1091</ele>
        <time>2021-04-29T12:50:56Z</time>
      </trkpt>
      <trkpt lat="44.90316" lon="3.94887">
        <ele>1091</ele>
        <time>2021-04-29T12:50:57Z</time>
      </trkpt>
      <trkpt lat="44.90317" lon="3.94892">
        <ele>1091</ele>
        <time>2021-04-29T12:50:58Z</time>
      </trkpt>
      <trkpt lat="44.90318" lon="3.94897">
        <ele>1091</ele>
        <time>2021-04-29T12:50:59Z</time>
      </trkpt>
      <trkpt lat="44.9032" lon="3.94902">
        <ele>1091</ele>
        <time>2021-04-29T12:51:00Z</time>
      </trkpt>
      <trkpt lat="44.90321" lon="3.94907">
        <ele>1091</ele>
        <time>2021-04-29T12:51:01Z</time>
      </trkpt>
      <trkpt lat="44.90322" lon="3.94912">
        <ele>1091</ele>
        <time>2021-04-29T12:51:02Z</time>
      </trkpt>
      <trkpt lat="44.90324" lon="3.94917">
        <ele>1091</ele>
        <time>2021-04-29T12:51:03Z</time>
      </trkpt>
      <trkpt lat="44.90326" lon="3.94923">
        <ele>1091</ele>
        <time>2021-04-29T12:51:04Z</time>
      </trkpt>
      <trkpt lat="44.90327" lon="3.94928">
        <ele>1092</ele>
        <time>2021-04-29T12:51:05Z</time>
      </trkpt>
      <trkpt lat="44.90329" lon="3.94934">
        <ele>1092</ele>
        <time>2021-04-29T12:51:06Z</time>
      </trkpt>
      <trkpt lat="44.90331" lon="3.94939">
        <ele>1092</ele>
        <time>2021-04-29T12:51:07Z</time>
      </trkpt>
      <trkpt lat="44.90333" lon="3.94945">
        <ele>1092</ele>
        <time>2021-04-29T12:51:08Z</time>
      </trkpt>
      <trkpt lat="44.90335" lon="3.9495">
        <ele>1092</ele>
        <time>2021-04-29T12:51:09Z</time>
      </trkpt>
      <trkpt lat="44.90337" lon="3.94956">
        <ele>1092</ele>
        <time>2021-04-29T12:51:10Z</time>
      </trkpt>
      <trkpt lat="44.90339" lon="3.94962">
        <ele>1092</ele>
        <time>2021-04-29T12:51:11Z</time>
      </trkpt>
      <trkpt lat="44.90342" lon="3.94969">
        <ele>1092</ele>
        <time>2021-04-29T12:51:12Z</time>
      </trkpt>
      <trkpt lat="44.90344" lon="3.94975">
        <ele>1091</ele>
        <time>2021-04-29T12:51:13Z</time>
      </trkpt>
      <trkpt lat="44.90346" lon="3.94981">
        <ele>1091</ele>
        <time>2021-04-29T12:51:14Z</time>
      </trkpt>
      <trkpt lat="44.90348" lon="3.94988">
        <ele>1091</ele>
        <time>2021-04-29T12:51:15Z</time>
      </trkpt>
      <trkpt lat="44.9035" lon="3.94994">
        <ele>1091</ele>
        <time>2021-04-29T12:51:16Z</time>
      </trkpt>
      <trkpt lat="44.90352" lon="3.95">
        <ele>1091</ele>
        <time>2021-04-29T12:51:17Z</time>
      </trkpt>
      <trkpt lat="44.90355" lon="3.95006">
        <ele>1091</ele>
        <time>2021-04-29T12:51:18Z</time>
      </trkpt>
      <trkpt lat="44.90358" lon="3.95011">
        <ele>1091</ele>
        <time>2021-04-29T12:51:19Z</time>
      </trkpt>
      <trkpt lat="44.90362" lon="3.95016">
        <ele>1091</ele>
        <time>2021-04-29T12:51:20Z</time>
      </trkpt>
      <trkpt lat="44.90365" lon="3.95021">
        <ele>1091</ele>
        <time>2021-04-29T12:51:21Z</time>
      </trkpt>
      <trkpt lat="44.90369" lon="3.95026">
        <ele>1091</ele>
        <time>2021-04-29T12:51:22Z</time>
      </trkpt>
      <trkpt lat="44.90373" lon="3.9503">
        <ele>1091</ele>
        <time>2021-04-29T12:51:23Z</time>
      </trkpt>
      <trkpt lat="44.90377" lon="3.95035">
        <ele>1091</ele>
        <time>2021-04-29T12:51:24Z</time>
      </trkpt>
      <trkpt lat="44.90381" lon="3.95039">
        <ele>1091</ele>
        <time>2021-04-29T12:51:25Z</time>
      </trkpt>
      <trkpt lat="44.90385" lon="3.95043">
        <ele>1091</ele>
        <time>2021-04-29T12:51:26Z</time>
      </trkpt>
      <trkpt lat="44.90389" lon="3.95047">
        <ele>1091</ele>
        <time>2021-04-29T12:51:27Z</time>
      </trkpt>
      <trkpt lat="44.90393" lon="3.95051">
        <ele>1090</ele>
        <time>2021-04-29T12:51:28Z</time>
      </trkpt>
      <trkpt lat="44.90398" lon="3.95055">
        <ele>1090</ele>
        <time>2021-04-29T12:51:29Z</time>
      </trkpt>
      <trkpt lat="44.90403" lon="3.95058">
        <ele>1090</ele>
        <time>2021-04-29T12:51:30Z</time>
      </trkpt>
      <trkpt lat="44.90407" lon="3.95062">
        <ele>1090</ele>
        <time>2021-04-29T12:51:31Z</time>
      </trkpt>
      <trkpt lat="44.90412" lon="3.95065">
        <ele>1090</ele>
        <time>2021-04-29T12:51:32Z</time>
      </trkpt>
      <trkpt lat="44.90417" lon="3.95069">
        <ele>1090</ele>
        <time>2021-04-29T12:51:33Z</time>
      </trkpt>
      <trkpt lat="44.90422" lon="3.95072">
        <ele>1089</ele>
        <time>2021-04-29T12:51:34Z</time>
      </trkpt>
      <trkpt lat="44.90426" lon="3.95075">
        <ele>1089</ele>
        <time>2021-04-29T12:51:35Z</time>
      </trkpt>
      <trkpt lat="44.90431" lon="3.95078">
        <ele>1089</ele>
        <time>2021-04-29T12:51:36Z</time>
      </trkpt>
      <trkpt lat="44.90437" lon="3.9508">
        <ele>1088</ele>
        <time>2021-04-29T12:51:37Z</time>
      </trkpt>
      <trkpt lat="44.90442" lon="3.95083">
        <ele>1088</ele>
        <time>2021-04-29T12:51:38Z</time>
      </trkpt>
      <trkpt lat="44.90448" lon="3.95085">
        <ele>1088</ele>
        <time>2021-04-29T12:51:39Z</time>
      </trkpt>
      <trkpt lat="44.90454" lon="3.95087">
        <ele>1088</ele>
        <time>2021-04-29T12:51:40Z</time>
      </trkpt>
      <trkpt lat="44.9046" lon="3.95087">
        <ele>1087</ele>
        <time>2021-04-29T12:51:41Z</time>
      </trkpt>
      <trkpt lat="44.90466" lon="3.95085">
        <ele>1087</ele>
        <time>2021-04-29T12:51:42Z</time>
      </trkpt>
      <trkpt lat="44.90472" lon="3.95082">
        <ele>1087</ele>
        <time>2021-04-29T12:51:43Z</time>
      </trkpt>
      <trkpt lat="44.90478" lon="3.95079">
        <ele>1086</ele>
        <time>2021-04-29T12:51:44Z</time>
      </trkpt>
      <trkpt lat="44.90484" lon="3.95076">
        <ele>1087</ele>
        <time>2021-04-29T12:51:45Z</time>
      </trkpt>
      <trkpt lat="44.90489" lon="3.95073">
        <ele>1087</ele>
        <time>2021-04-29T12:51:46Z</time>
      </trkpt>
      <trkpt lat="44.905" lon="3.95067">
        <ele>1086</ele>
        <time>2021-04-29T12:51:47Z</time>
      </trkpt>
      <trkpt lat="44.90505" lon="3.95064">
        <ele>1086</ele>
        <time>2021-04-29T12:51:49Z</time>
      </trkpt>
      <trkpt lat="44.90511" lon="3.95061">
        <ele>1086</ele>
        <time>2021-04-29T12:51:50Z</time>
      </trkpt>
      <trkpt lat="44.90516" lon="3.95058">
        <ele>1086</ele>
        <time>2021-04-29T12:51:51Z</time>
      </trkpt>
      <trkpt lat="44.90522" lon="3.95056">
        <ele>1086</ele>
        <time>2021-04-29T12:51:52Z</time>
      </trkpt>
      <trkpt lat="44.90527" lon="3.95053">
        <ele>1086</ele>
        <time>2021-04-29T12:51:53Z</time>
      </trkpt>
      <trkpt lat="44.90532" lon="3.95049">
        <ele>1087</ele>
        <time>2021-04-29T12:51:54Z</time>
      </trkpt>
      <trkpt lat="44.90534" lon="3.95045">
        <ele>1087</ele>
        <time>2021-04-29T12:51:55Z</time>
      </trkpt>
      <trkpt lat="44.90536" lon="3.95039">
        <ele>1087</ele>
        <time>2021-04-29T12:51:56Z</time>
      </trkpt>
      <trkpt lat="44.90537" lon="3.95034">
        <ele>1086</ele>
        <time>2021-04-29T12:51:57Z</time>
      </trkpt>
      <trkpt lat="44.90538" lon="3.95028">
        <ele>1086</ele>
        <time>2021-04-29T12:51:58Z</time>
      </trkpt>
      <trkpt lat="44.90541" lon="3.95021">
        <ele>1086</ele>
        <time>2021-04-29T12:51:59Z</time>
      </trkpt>
      <trkpt lat="44.90543" lon="3.95016">
        <ele>1086</ele>
        <time>2021-04-29T12:52:00Z</time>
      </trkpt>
      <trkpt lat="44.90545" lon="3.95011">
        <ele>1086</ele>
        <time>2021-04-29T12:52:01Z</time>
      </trkpt>
      <trkpt lat="44.90549" lon="3.95007">
        <ele>1087</ele>
        <time>2021-04-29T12:52:02Z</time>
      </trkpt>
      <trkpt lat="44.90552" lon="3.95004">
        <ele>1087</ele>
        <time>2021-04-29T12:52:03Z</time>
      </trkpt>
      <trkpt lat="44.90557" lon="3.95001">
        <ele>1087</ele>
        <time>2021-04-29T12:52:04Z</time>
      </trkpt>
      <trkpt lat="44.90561" lon="3.94999">
        <ele>1087</ele>
        <time>2021-04-29T12:52:05Z</time>
      </trkpt>
      <trkpt lat="44.90571" lon="3.94995">
        <ele>1087</ele>
        <time>2021-04-29T12:52:06Z</time>
      </trkpt>
      <trkpt lat="44.90577" lon="3.94993">
        <ele>1087</ele>
        <time>2021-04-29T12:52:08Z</time>
      </trkpt>
      <trkpt lat="44.90583" lon="3.94992">
        <ele>1087</ele>
        <time>2021-04-29T12:52:09Z</time>
      </trkpt>
      <trkpt lat="44.90588" lon="3.94991">
        <ele>1087</ele>
        <time>2021-04-29T12:52:10Z</time>
      </trkpt>
      <trkpt lat="44.90594" lon="3.9499">
        <ele>1087</ele>
        <time>2021-04-29T12:52:11Z</time>
      </trkpt>
      <trkpt lat="44.906" lon="3.94987">
        <ele>1087</ele>
        <time>2021-04-29T12:52:12Z</time>
      </trkpt>
      <trkpt lat="44.90605" lon="3.94984">
        <ele>1087</ele>
        <time>2021-04-29T12:52:13Z</time>
      </trkpt>
      <trkpt lat="44.9061" lon="3.94981">
        <ele>1087</ele>
        <time>2021-04-29T12:52:14Z</time>
      </trkpt>
      <trkpt lat="44.90615" lon="3.94977">
        <ele>1087</ele>
        <time>2021-04-29T12:52:15Z</time>
      </trkpt>
      <trkpt lat="44.9062" lon="3.94973">
        <ele>1086</ele>
        <time>2021-04-29T12:52:16Z</time>
      </trkpt>
      <trkpt lat="44.90624" lon="3.94968">
        <ele>1086</ele>
        <time>2021-04-29T12:52:17Z</time>
      </trkpt>
      <trkpt lat="44.90628" lon="3.94963">
        <ele>1086</ele>
        <time>2021-04-29T12:52:18Z</time>
      </trkpt>
      <trkpt lat="44.9063" lon="3.94957">
        <ele>1086</ele>
        <time>2021-04-29T12:52:19Z</time>
      </trkpt>
      <trkpt lat="44.90631" lon="3.9495">
        <ele>1086</ele>
        <time>2021-04-29T12:52:20Z</time>
      </trkpt>
      <trkpt lat="44.9063" lon="3.94944">
        <ele>1086</ele>
        <time>2021-04-29T12:52:21Z</time>
      </trkpt>
      <trkpt lat="44.90628" lon="3.94937">
        <ele>1086</ele>
        <time>2021-04-29T12:52:22Z</time>
      </trkpt>
      <trkpt lat="44.90628" lon="3.9493">
        <ele>1086</ele>
        <time>2021-04-29T12:52:23Z</time>
      </trkpt>
      <trkpt lat="44.90629" lon="3.94924">
        <ele>1086</ele>
        <time>2021-04-29T12:52:24Z</time>
      </trkpt>
      <trkpt lat="44.90636" lon="3.94915">
        <ele>1086</ele>
        <time>2021-04-29T12:52:25Z</time>
      </trkpt>
      <trkpt lat="44.9064" lon="3.94912">
        <ele>1086</ele>
        <time>2021-04-29T12:52:27Z</time>
      </trkpt>
      <trkpt lat="44.90644" lon="3.94908">
        <ele>1086</ele>
        <time>2021-04-29T12:52:28Z</time>
      </trkpt>
      <trkpt lat="44.90647" lon="3.94904">
        <ele>1086</ele>
        <time>2021-04-29T12:52:29Z</time>
      </trkpt>
      <trkpt lat="44.90649" lon="3.94899">
        <ele>1086</ele>
        <time>2021-04-29T12:52:30Z</time>
      </trkpt>
      <trkpt lat="44.9065" lon="3.94894">
        <ele>1086</ele>
        <time>2021-04-29T12:52:31Z</time>
      </trkpt>
      <trkpt lat="44.9065" lon="3.94888">
        <ele>1086</ele>
        <time>2021-04-29T12:52:32Z</time>
      </trkpt>
      <trkpt lat="44.9065" lon="3.94882">
        <ele>1086</ele>
        <time>2021-04-29T12:52:33Z</time>
      </trkpt>
      <trkpt lat="44.9065" lon="3.94877">
        <ele>1086</ele>
        <time>2021-04-29T12:52:34Z</time>
      </trkpt>
      <trkpt lat="44.9065" lon="3.94871">
        <ele>1086</ele>
        <time>2021-04-29T12:52:35Z</time>
      </trkpt>
      <trkpt lat="44.9065" lon="3.94866">
        <ele>1086</ele>
        <time>2021-04-29T12:52:36Z</time>
      </trkpt>
      <trkpt lat="44.9065" lon="3.94862">
        <ele>1086</ele>
        <time>2021-04-29T12:52:37Z</time>
      </trkpt>
      <trkpt lat="44.90652" lon="3.94858">
        <ele>1086</ele>
        <time>2021-04-29T12:52:38Z</time>
      </trkpt>
      <trkpt lat="44.90654" lon="3.94854">
        <ele>1086</ele>
        <time>2021-04-29T12:52:39Z</time>
      </trkpt>
      <trkpt lat="44.90657" lon="3.9485">
        <ele>1086</ele>
        <time>2021-04-29T12:52:40Z</time>
      </trkpt>
      <trkpt lat="44.9066" lon="3.94846">
        <ele>1086</ele>
        <time>2021-04-29T12:52:41Z</time>
      </trkpt>
      <trkpt lat="44.90663" lon="3.94841">
        <ele>1087</ele>
        <time>2021-04-29T12:52:42Z</time>
      </trkpt>
      <trkpt lat="44.90671" lon="3.94828">
        <ele>1087</ele>
        <time>2021-04-29T12:52:44Z</time>
      </trkpt>
      <trkpt lat="44.90677" lon="3.94817">
        <ele>1087</ele>
        <time>2021-04-29T12:52:47Z</time>
      </trkpt>
      <trkpt lat="44.90682" lon="3.94804">
        <ele>1087</ele>
        <time>2021-04-29T12:52:49Z</time>
      </trkpt>
      <trkpt lat="44.90684" lon="3.94799">
        <ele>1087</ele>
        <time>2021-04-29T12:52:50Z</time>
      </trkpt>
      <trkpt lat="44.9069" lon="3.94784">
        <ele>1087</ele>
        <time>2021-04-29T12:52:53Z</time>
      </trkpt>
      <trkpt lat="44.90694" lon="3.94772">
        <ele>1087</ele>
        <time>2021-04-29T12:52:56Z</time>
      </trkpt>
      <trkpt lat="44.90699" lon="3.94755">
        <ele>1087</ele>
        <time>2021-04-29T12:52:59Z</time>
      </trkpt>
      <trkpt lat="44.90704" lon="3.94744">
        <ele>1087</ele>
        <time>2021-04-29T12:53:01Z</time>
      </trkpt>
      <trkpt lat="44.90709" lon="3.94733">
        <ele>1088</ele>
        <time>2021-04-29T12:53:03Z</time>
      </trkpt>
      <trkpt lat="44.90714" lon="3.94722">
        <ele>1088</ele>
        <time>2021-04-29T12:53:05Z</time>
      </trkpt>
      <trkpt lat="44.9072" lon="3.94712">
        <ele>1088</ele>
        <time>2021-04-29T12:53:07Z</time>
      </trkpt>
      <trkpt lat="44.90726" lon="3.94702">
        <ele>1089</ele>
        <time>2021-04-29T12:53:09Z</time>
      </trkpt>
      <trkpt lat="44.90733" lon="3.94691">
        <ele>1088</ele>
        <time>2021-04-29T12:53:11Z</time>
      </trkpt>
      <trkpt lat="44.9074" lon="3.94678">
        <ele>1088</ele>
        <time>2021-04-29T12:53:13Z</time>
      </trkpt>
      <trkpt lat="44.90743" lon="3.94672">
        <ele>1088</ele>
        <time>2021-04-29T12:53:14Z</time>
      </trkpt>
      <trkpt lat="44.90747" lon="3.94667">
        <ele>1088</ele>
        <time>2021-04-29T12:53:15Z</time>
      </trkpt>
      <trkpt lat="44.90749" lon="3.94661">
        <ele>1088</ele>
        <time>2021-04-29T12:53:16Z</time>
      </trkpt>
      <trkpt lat="44.90751" lon="3.94655">
        <ele>1088</ele>
        <time>2021-04-29T12:53:17Z</time>
      </trkpt>
      <trkpt lat="44.90756" lon="3.94644">
        <ele>1089</ele>
        <time>2021-04-29T12:53:19Z</time>
      </trkpt>
      <trkpt lat="44.90758" lon="3.94637">
        <ele>1089</ele>
        <time>2021-04-29T12:53:20Z</time>
      </trkpt>
      <trkpt lat="44.90761" lon="3.9463">
        <ele>1089</ele>
        <time>2021-04-29T12:53:21Z</time>
      </trkpt>
      <trkpt lat="44.90767" lon="3.94615">
        <ele>1089</ele>
        <time>2021-04-29T12:53:22Z</time>
      </trkpt>
      <trkpt lat="44.90773" lon="3.94602">
        <ele>1090</ele>
        <time>2021-04-29T12:53:25Z</time>
      </trkpt>
      <trkpt lat="44.90778" lon="3.94589">
        <ele>1090</ele>
        <time>2021-04-29T12:53:27Z</time>
      </trkpt>
      <trkpt lat="44.90783" lon="3.94574">
        <ele>1090</ele>
        <time>2021-04-29T12:53:29Z</time>
      </trkpt>
      <trkpt lat="44.90787" lon="3.94559">
        <ele>1090</ele>
        <time>2021-04-29T12:53:31Z</time>
      </trkpt>
      <trkpt lat="44.9079" lon="3.94542">
        <ele>1090</ele>
        <time>2021-04-29T12:53:33Z</time>
      </trkpt>
      <trkpt lat="44.90792" lon="3.94526">
        <ele>1090</ele>
        <time>2021-04-29T12:53:35Z</time>
      </trkpt>
      <trkpt lat="44.90796" lon="3.94508">
        <ele>1090</ele>
        <time>2021-04-29T12:53:37Z</time>
      </trkpt>
      <trkpt lat="44.90797" lon="3.94493">
        <ele>1090</ele>
        <time>2021-04-29T12:53:39Z</time>
      </trkpt>
      <trkpt lat="44.908" lon="3.94474">
        <ele>1090</ele>
        <time>2021-04-29T12:53:41Z</time>
      </trkpt>
      <trkpt lat="44.908" lon="3.94456">
        <ele>1091</ele>
        <time>2021-04-29T12:53:43Z</time>
      </trkpt>
      <trkpt lat="44.908" lon="3.94449">
        <ele>1091</ele>
        <time>2021-04-29T12:53:44Z</time>
      </trkpt>
      <trkpt lat="44.90798" lon="3.94442">
        <ele>1091</ele>
        <time>2021-04-29T12:53:45Z</time>
      </trkpt>
      <trkpt lat="44.90797" lon="3.94435">
        <ele>1091</ele>
        <time>2021-04-29T12:53:46Z</time>
      </trkpt>
      <trkpt lat="44.90796" lon="3.9442">
        <ele>1091</ele>
        <time>2021-04-29T12:53:48Z</time>
      </trkpt>
      <trkpt lat="44.90793" lon="3.94406">
        <ele>1091</ele>
        <time>2021-04-29T12:53:50Z</time>
      </trkpt>
      <trkpt lat="44.90791" lon="3.94391">
        <ele>1091</ele>
        <time>2021-04-29T12:53:52Z</time>
      </trkpt>
      <trkpt lat="44.90791" lon="3.94377">
        <ele>1091</ele>
        <time>2021-04-29T12:53:54Z</time>
      </trkpt>
      <trkpt lat="44.90791" lon="3.94363">
        <ele>1091</ele>
        <time>2021-04-29T12:53:56Z</time>
      </trkpt>
      <trkpt lat="44.90789" lon="3.94355">
        <ele>1091</ele>
        <time>2021-04-29T12:53:57Z</time>
      </trkpt>
      <trkpt lat="44.90787" lon="3.94339">
        <ele>1091</ele>
        <time>2021-04-29T12:53:59Z</time>
      </trkpt>
      <trkpt lat="44.90786" lon="3.94323">
        <ele>1091</ele>
        <time>2021-04-29T12:54:00Z</time>
      </trkpt>
      <trkpt lat="44.90786" lon="3.94308">
        <ele>1091</ele>
        <time>2021-04-29T12:54:03Z</time>
      </trkpt>
      <trkpt lat="44.90786" lon="3.94293">
        <ele>1091</ele>
        <time>2021-04-29T12:54:05Z</time>
      </trkpt>
      <trkpt lat="44.90788" lon="3.94278">
        <ele>1091</ele>
        <time>2021-04-29T12:54:07Z</time>
      </trkpt>
      <trkpt lat="44.90789" lon="3.94266">
        <ele>1092</ele>
        <time>2021-04-29T12:54:09Z</time>
      </trkpt>
      <trkpt lat="44.90787" lon="3.94252">
        <ele>1092</ele>
        <time>2021-04-29T12:54:10Z</time>
      </trkpt>
      <trkpt lat="44.90786" lon="3.94244">
        <ele>1092</ele>
        <time>2021-04-29T12:54:12Z</time>
      </trkpt>
      <trkpt lat="44.90785" lon="3.94236">
        <ele>1093</ele>
        <time>2021-04-29T12:54:13Z</time>
      </trkpt>
      <trkpt lat="44.90784" lon="3.94228">
        <ele>1093</ele>
        <time>2021-04-29T12:54:14Z</time>
      </trkpt>
      <trkpt lat="44.90784" lon="3.94221">
        <ele>1093</ele>
        <time>2021-04-29T12:54:15Z</time>
      </trkpt>
      <trkpt lat="44.90784" lon="3.94214">
        <ele>1094</ele>
        <time>2021-04-29T12:54:16Z</time>
      </trkpt>
      <trkpt lat="44.90784" lon="3.94207">
        <ele>1094</ele>
        <time>2021-04-29T12:54:17Z</time>
      </trkpt>
      <trkpt lat="44.90784" lon="3.94199">
        <ele>1094</ele>
        <time>2021-04-29T12:54:18Z</time>
      </trkpt>
      <trkpt lat="44.90783" lon="3.94191">
        <ele>1094</ele>
        <time>2021-04-29T12:54:19Z</time>
      </trkpt>
      <trkpt lat="44.90781" lon="3.94177">
        <ele>1093</ele>
        <time>2021-04-29T12:54:21Z</time>
      </trkpt>
      <trkpt lat="44.9078" lon="3.94161">
        <ele>1093</ele>
        <time>2021-04-29T12:54:23Z</time>
      </trkpt>
      <trkpt lat="44.90779" lon="3.94153">
        <ele>1093</ele>
        <time>2021-04-29T12:54:24Z</time>
      </trkpt>
      <trkpt lat="44.90777" lon="3.94144">
        <ele>1093</ele>
        <time>2021-04-29T12:54:25Z</time>
      </trkpt>
      <trkpt lat="44.90775" lon="3.94135">
        <ele>1093</ele>
        <time>2021-04-29T12:54:26Z</time>
      </trkpt>
      <trkpt lat="44.90774" lon="3.94126">
        <ele>1093</ele>
        <time>2021-04-29T12:54:27Z</time>
      </trkpt>
      <trkpt lat="44.90772" lon="3.94117">
        <ele>1093</ele>
        <time>2021-04-29T12:54:28Z</time>
      </trkpt>
      <trkpt lat="44.90769" lon="3.94107">
        <ele>1093</ele>
        <time>2021-04-29T12:54:29Z</time>
      </trkpt>
      <trkpt lat="44.90764" lon="3.94087">
        <ele>1092</ele>
        <time>2021-04-29T12:54:31Z</time>
      </trkpt>
      <trkpt lat="44.90759" lon="3.94069">
        <ele>1092</ele>
        <time>2021-04-29T12:54:33Z</time>
      </trkpt>
      <trkpt lat="44.90755" lon="3.9406">
        <ele>1092</ele>
        <time>2021-04-29T12:54:34Z</time>
      </trkpt>
      <trkpt lat="44.90752" lon="3.9405">
        <ele>1091</ele>
        <time>2021-04-29T12:54:35Z</time>
      </trkpt>
      <trkpt lat="44.9075" lon="3.9404">
        <ele>1091</ele>
        <time>2021-04-29T12:54:36Z</time>
      </trkpt>
      <trkpt lat="44.90747" lon="3.94021">
        <ele>1091</ele>
        <time>2021-04-29T12:54:38Z</time>
      </trkpt>
      <trkpt lat="44.90742" lon="3.94001">
        <ele>1091</ele>
        <time>2021-04-29T12:54:40Z</time>
      </trkpt>
      <trkpt lat="44.90738" lon="3.93993">
        <ele>1091</ele>
        <time>2021-04-29T12:54:41Z</time>
      </trkpt>
      <trkpt lat="44.90735" lon="3.93986">
        <ele>1091</ele>
        <time>2021-04-29T12:54:42Z</time>
      </trkpt>
      <trkpt lat="44.90732" lon="3.93979">
        <ele>1091</ele>
        <time>2021-04-29T12:54:43Z</time>
      </trkpt>
      <trkpt lat="44.9073" lon="3.93973">
        <ele>1090</ele>
        <time>2021-04-29T12:54:44Z</time>
      </trkpt>
      <trkpt lat="44.90728" lon="3.93967">
        <ele>1090</ele>
        <time>2021-04-29T12:54:45Z</time>
      </trkpt>
      <trkpt lat="44.90728" lon="3.9396">
        <ele>1089</ele>
        <time>2021-04-29T12:54:46Z</time>
      </trkpt>
      <trkpt lat="44.90726" lon="3.93953">
        <ele>1089</ele>
        <time>2021-04-29T12:54:47Z</time>
      </trkpt>
      <trkpt lat="44.90723" lon="3.93948">
        <ele>1088</ele>
        <time>2021-04-29T12:54:48Z</time>
      </trkpt>
      <trkpt lat="44.90719" lon="3.93942">
        <ele>1087</ele>
        <time>2021-04-29T12:54:49Z</time>
      </trkpt>
      <trkpt lat="44.90715" lon="3.93937">
        <ele>1087</ele>
        <time>2021-04-29T12:54:50Z</time>
      </trkpt>
      <trkpt lat="44.90711" lon="3.93931">
        <ele>1086</ele>
        <time>2021-04-29T12:54:51Z</time>
      </trkpt>
      <trkpt lat="44.90707" lon="3.93925">
        <ele>1085</ele>
        <time>2021-04-29T12:54:52Z</time>
      </trkpt>
      <trkpt lat="44.90703" lon="3.93919">
        <ele>1084</ele>
        <time>2021-04-29T12:54:53Z</time>
      </trkpt>
      <trkpt lat="44.907" lon="3.93914">
        <ele>1084</ele>
        <time>2021-04-29T12:54:54Z</time>
      </trkpt>
      <trkpt lat="44.90698" lon="3.93909">
        <ele>1083</ele>
        <time>2021-04-29T12:54:55Z</time>
      </trkpt>
      <trkpt lat="44.90695" lon="3.93904">
        <ele>1082</ele>
        <time>2021-04-29T12:54:56Z</time>
      </trkpt>
      <trkpt lat="44.9069" lon="3.93895">
        <ele>1081</ele>
        <time>2021-04-29T12:54:57Z</time>
      </trkpt>
      <trkpt lat="44.90687" lon="3.9389">
        <ele>1079</ele>
        <time>2021-04-29T12:54:59Z</time>
      </trkpt>
      <trkpt lat="44.90684" lon="3.93886">
        <ele>1078</ele>
        <time>2021-04-29T12:55:00Z</time>
      </trkpt>
      <trkpt lat="44.90682" lon="3.93882">
        <ele>1077</ele>
        <time>2021-04-29T12:55:01Z</time>
      </trkpt>
      <trkpt lat="44.9068" lon="3.93877">
        <ele>1076</ele>
        <time>2021-04-29T12:55:02Z</time>
      </trkpt>
      <trkpt lat="44.90678" lon="3.93872">
        <ele>1074</ele>
        <time>2021-04-29T12:55:03Z</time>
      </trkpt>
      <trkpt lat="44.90676" lon="3.93867">
        <ele>1073</ele>
        <time>2021-04-29T12:55:04Z</time>
      </trkpt>
      <trkpt lat="44.90675" lon="3.93862">
        <ele>1072</ele>
        <time>2021-04-29T12:55:05Z</time>
      </trkpt>
      <trkpt lat="44.90673" lon="3.93857">
        <ele>1071</ele>
        <time>2021-04-29T12:55:06Z</time>
      </trkpt>
      <trkpt lat="44.90671" lon="3.93853">
        <ele>1071</ele>
        <time>2021-04-29T12:55:07Z</time>
      </trkpt>
      <trkpt lat="44.9067" lon="3.93848">
        <ele>1070</ele>
        <time>2021-04-29T12:55:08Z</time>
      </trkpt>
      <trkpt lat="44.90669" lon="3.93843">
        <ele>1069</ele>
        <time>2021-04-29T12:55:09Z</time>
      </trkpt>
      <trkpt lat="44.9067" lon="3.93837">
        <ele>1069</ele>
        <time>2021-04-29T12:55:10Z</time>
      </trkpt>
      <trkpt lat="44.90672" lon="3.93831">
        <ele>1068</ele>
        <time>2021-04-29T12:55:11Z</time>
      </trkpt>
      <trkpt lat="44.90674" lon="3.93827">
        <ele>1067</ele>
        <time>2021-04-29T12:55:12Z</time>
      </trkpt>
      <trkpt lat="44.90676" lon="3.93824">
        <ele>1066</ele>
        <time>2021-04-29T12:55:13Z</time>
      </trkpt>
      <trkpt lat="44.90678" lon="3.93822">
        <ele>1065</ele>
        <time>2021-04-29T12:55:14Z</time>
      </trkpt>
      <trkpt lat="44.9068" lon="3.9382">
        <ele>1064</ele>
        <time>2021-04-29T12:55:15Z</time>
      </trkpt>
      <trkpt lat="44.90681" lon="3.93812">
        <ele>1064</ele>
        <time>2021-04-29T12:55:16Z</time>
      </trkpt>
      <trkpt lat="44.9068" lon="3.93806">
        <ele>1063</ele>
        <time>2021-04-29T12:55:18Z</time>
      </trkpt>
      <trkpt lat="44.90679" lon="3.938">
        <ele>1062</ele>
        <time>2021-04-29T12:55:19Z</time>
      </trkpt>
      <trkpt lat="44.90678" lon="3.93795">
        <ele>1061</ele>
        <time>2021-04-29T12:55:20Z</time>
      </trkpt>
      <trkpt lat="44.90677" lon="3.93791">
        <ele>1060</ele>
        <time>2021-04-29T12:55:21Z</time>
      </trkpt>
      <trkpt lat="44.90676" lon="3.93788">
        <ele>1060</ele>
        <time>2021-04-29T12:55:22Z</time>
      </trkpt>
      <trkpt lat="44.90674" lon="3.93785">
        <ele>1059</ele>
        <time>2021-04-29T12:55:23Z</time>
      </trkpt>
      <trkpt lat="44.90673" lon="3.93782">
        <ele>1058</ele>
        <time>2021-04-29T12:55:24Z</time>
      </trkpt>
      <trkpt lat="44.90673" lon="3.93778">
        <ele>1057</ele>
        <time>2021-04-29T12:55:25Z</time>
      </trkpt>
      <trkpt lat="44.90673" lon="3.93772">
        <ele>1056</ele>
        <time>2021-04-29T12:55:26Z</time>
      </trkpt>
      <trkpt lat="44.90673" lon="3.93764">
        <ele>1055</ele>
        <time>2021-04-29T12:55:27Z</time>
      </trkpt>
      <trkpt lat="44.90672" lon="3.93756">
        <ele>1053</ele>
        <time>2021-04-29T12:55:28Z</time>
      </trkpt>
      <trkpt lat="44.90672" lon="3.93748">
        <ele>1052</ele>
        <time>2021-04-29T12:55:29Z</time>
      </trkpt>
      <trkpt lat="44.90672" lon="3.93741">
        <ele>1051</ele>
        <time>2021-04-29T12:55:30Z</time>
      </trkpt>
      <trkpt lat="44.90674" lon="3.93734">
        <ele>1050</ele>
        <time>2021-04-29T12:55:31Z</time>
      </trkpt>
      <trkpt lat="44.90676" lon="3.93727">
        <ele>1048</ele>
        <time>2021-04-29T12:55:32Z</time>
      </trkpt>
      <trkpt lat="44.90678" lon="3.9372">
        <ele>1047</ele>
        <time>2021-04-29T12:55:33Z</time>
      </trkpt>
      <trkpt lat="44.90681" lon="3.93714">
        <ele>1046</ele>
        <time>2021-04-29T12:55:34Z</time>
      </trkpt>
      <trkpt lat="44.90684" lon="3.93702">
        <ele>1044</ele>
        <time>2021-04-29T12:55:35Z</time>
      </trkpt>
      <trkpt lat="44.90684" lon="3.93696">
        <ele>1042</ele>
        <time>2021-04-29T12:55:37Z</time>
      </trkpt>
      <trkpt lat="44.90685" lon="3.9369">
        <ele>1041</ele>
        <time>2021-04-29T12:55:38Z</time>
      </trkpt>
      <trkpt lat="44.90686" lon="3.93685">
        <ele>1040</ele>
        <time>2021-04-29T12:55:39Z</time>
      </trkpt>
      <trkpt lat="44.90688" lon="3.93679">
        <ele>1039</ele>
        <time>2021-04-29T12:55:40Z</time>
      </trkpt>
      <trkpt lat="44.9069" lon="3.93672">
        <ele>1038</ele>
        <time>2021-04-29T12:55:41Z</time>
      </trkpt>
      <trkpt lat="44.90692" lon="3.93664">
        <ele>1037</ele>
        <time>2021-04-29T12:55:42Z</time>
      </trkpt>
      <trkpt lat="44.90693" lon="3.93655">
        <ele>1035</ele>
        <time>2021-04-29T12:55:43Z</time>
      </trkpt>
      <trkpt lat="44.90694" lon="3.93644">
        <ele>1034</ele>
        <time>2021-04-29T12:55:44Z</time>
      </trkpt>
      <trkpt lat="44.90695" lon="3.93634">
        <ele>1032</ele>
        <time>2021-04-29T12:55:45Z</time>
      </trkpt>
      <trkpt lat="44.90695" lon="3.93625">
        <ele>1031</ele>
        <time>2021-04-29T12:55:46Z</time>
      </trkpt>
      <trkpt lat="44.90696" lon="3.93616">
        <ele>1030</ele>
        <time>2021-04-29T12:55:47Z</time>
      </trkpt>
      <trkpt lat="44.90697" lon="3.93608">
        <ele>1029</ele>
        <time>2021-04-29T12:55:48Z</time>
      </trkpt>
      <trkpt lat="44.90697" lon="3.93602">
        <ele>1029</ele>
        <time>2021-04-29T12:55:49Z</time>
      </trkpt>
      <trkpt lat="44.90696" lon="3.93596">
        <ele>1029</ele>
        <time>2021-04-29T12:55:50Z</time>
      </trkpt>
      <trkpt lat="44.90694" lon="3.93593">
        <ele>1028</ele>
        <time>2021-04-29T12:55:51Z</time>
      </trkpt>
      <trkpt lat="44.90691" lon="3.93591">
        <ele>1028</ele>
        <time>2021-04-29T12:55:52Z</time>
      </trkpt>
      <trkpt lat="44.90688" lon="3.93591">
        <ele>1028</ele>
        <time>2021-04-29T12:55:53Z</time>
      </trkpt>
      <trkpt lat="44.90684" lon="3.9359">
        <ele>1028</ele>
        <time>2021-04-29T12:55:54Z</time>
      </trkpt>
      <trkpt lat="44.9068" lon="3.93589">
        <ele>1027</ele>
        <time>2021-04-29T12:55:55Z</time>
      </trkpt>
      <trkpt lat="44.90675" lon="3.93588">
        <ele>1027</ele>
        <time>2021-04-29T12:55:56Z</time>
      </trkpt>
      <trkpt lat="44.90671" lon="3.93587">
        <ele>1027</ele>
        <time>2021-04-29T12:55:57Z</time>
      </trkpt>
      <trkpt lat="44.90666" lon="3.93587">
        <ele>1026</ele>
        <time>2021-04-29T12:55:58Z</time>
      </trkpt>
      <trkpt lat="44.90662" lon="3.93587">
        <ele>1026</ele>
        <time>2021-04-29T12:55:59Z</time>
      </trkpt>
      <trkpt lat="44.90658" lon="3.93587">
        <ele>1026</ele>
        <time>2021-04-29T12:56:00Z</time>
      </trkpt>
      <trkpt lat="44.90654" lon="3.93586">
        <ele>1026</ele>
        <time>2021-04-29T12:56:01Z</time>
      </trkpt>
      <trkpt lat="44.9065" lon="3.93586">
        <ele>1026</ele>
        <time>2021-04-29T12:56:02Z</time>
      </trkpt>
      <trkpt lat="44.90646" lon="3.93586">
        <ele>1025</ele>
        <time>2021-04-29T12:56:03Z</time>
      </trkpt>
      <trkpt lat="44.90641" lon="3.93586">
        <ele>1025</ele>
        <time>2021-04-29T12:56:04Z</time>
      </trkpt>
      <trkpt lat="44.90636" lon="3.93585">
        <ele>1025</ele>
        <time>2021-04-29T12:56:05Z</time>
      </trkpt>
      <trkpt lat="44.90631" lon="3.93585">
        <ele>1025</ele>
        <time>2021-04-29T12:56:06Z</time>
      </trkpt>
      <trkpt lat="44.90626" lon="3.93584">
        <ele>1025</ele>
        <time>2021-04-29T12:56:07Z</time>
      </trkpt>
      <trkpt lat="44.90621" lon="3.93584">
        <ele>1024</ele>
        <time>2021-04-29T12:56:08Z</time>
      </trkpt>
      <trkpt lat="44.90616" lon="3.93583">
        <ele>1024</ele>
        <time>2021-04-29T12:56:09Z</time>
      </trkpt>
      <trkpt lat="44.90611" lon="3.93583">
        <ele>1024</ele>
        <time>2021-04-29T12:56:10Z</time>
      </trkpt>
      <trkpt lat="44.90606" lon="3.93583">
        <ele>1024</ele>
        <time>2021-04-29T12:56:11Z</time>
      </trkpt>
      <trkpt lat="44.90601" lon="3.93583">
        <ele>1023</ele>
        <time>2021-04-29T12:56:12Z</time>
      </trkpt>
      <trkpt lat="44.90592" lon="3.93581">
        <ele>1023</ele>
        <time>2021-04-29T12:56:13Z</time>
      </trkpt>
      <trkpt lat="44.90588" lon="3.93578">
        <ele>1022</ele>
        <time>2021-04-29T12:56:15Z</time>
      </trkpt>
      <trkpt lat="44.90586" lon="3.93573">
        <ele>1021</ele>
        <time>2021-04-29T12:56:16Z</time>
      </trkpt>
      <trkpt lat="44.90583" lon="3.93566">
        <ele>1020</ele>
        <time>2021-04-29T12:56:17Z</time>
      </trkpt>
      <trkpt lat="44.90581" lon="3.93558">
        <ele>1020</ele>
        <time>2021-04-29T12:56:18Z</time>
      </trkpt>
      <trkpt lat="44.90578" lon="3.9355">
        <ele>1020</ele>
        <time>2021-04-29T12:56:19Z</time>
      </trkpt>
      <trkpt lat="44.90576" lon="3.93542">
        <ele>1020</ele>
        <time>2021-04-29T12:56:20Z</time>
      </trkpt>
      <trkpt lat="44.90574" lon="3.93534">
        <ele>1020</ele>
        <time>2021-04-29T12:56:21Z</time>
      </trkpt>
      <trkpt lat="44.9057" lon="3.93526">
        <ele>1020</ele>
        <time>2021-04-29T12:56:22Z</time>
      </trkpt>
      <trkpt lat="44.90566" lon="3.93519">
        <ele>1019</ele>
        <time>2021-04-29T12:56:23Z</time>
      </trkpt>
      <trkpt lat="44.90561" lon="3.93511">
        <ele>1019</ele>
        <time>2021-04-29T12:56:24Z</time>
      </trkpt>
      <trkpt lat="44.90558" lon="3.93504">
        <ele>1019</ele>
        <time>2021-04-29T12:56:25Z</time>
      </trkpt>
      <trkpt lat="44.90555" lon="3.93497">
        <ele>1018</ele>
        <time>2021-04-29T12:56:26Z</time>
      </trkpt>
      <trkpt lat="44.90554" lon="3.93489">
        <ele>1017</ele>
        <time>2021-04-29T12:56:27Z</time>
      </trkpt>
      <trkpt lat="44.90554" lon="3.9348">
        <ele>1017</ele>
        <time>2021-04-29T12:56:28Z</time>
      </trkpt>
      <trkpt lat="44.90556" lon="3.93471">
        <ele>1016</ele>
        <time>2021-04-29T12:56:29Z</time>
      </trkpt>
      <trkpt lat="44.90558" lon="3.93463">
        <ele>1016</ele>
        <time>2021-04-29T12:56:30Z</time>
      </trkpt>
      <trkpt lat="44.90559" lon="3.93454">
        <ele>1016</ele>
        <time>2021-04-29T12:56:31Z</time>
      </trkpt>
      <trkpt lat="44.90559" lon="3.93435">
        <ele>1016</ele>
        <time>2021-04-29T12:56:32Z</time>
      </trkpt>
      <trkpt lat="44.90557" lon="3.93426">
        <ele>1015</ele>
        <time>2021-04-29T12:56:34Z</time>
      </trkpt>
      <trkpt lat="44.90554" lon="3.93417">
        <ele>1014</ele>
        <time>2021-04-29T12:56:35Z</time>
      </trkpt>
      <trkpt lat="44.90551" lon="3.93408">
        <ele>1013</ele>
        <time>2021-04-29T12:56:36Z</time>
      </trkpt>
      <trkpt lat="44.90549" lon="3.93402">
        <ele>1012</ele>
        <time>2021-04-29T12:56:37Z</time>
      </trkpt>
      <trkpt lat="44.90548" lon="3.93397">
        <ele>1012</ele>
        <time>2021-04-29T12:56:38Z</time>
      </trkpt>
      <trkpt lat="44.90547" lon="3.93394">
        <ele>1011</ele>
        <time>2021-04-29T12:56:39Z</time>
      </trkpt>
      <trkpt lat="44.90546" lon="3.93389">
        <ele>1011</ele>
        <time>2021-04-29T12:56:41Z</time>
      </trkpt>
      <trkpt lat="44.90545" lon="3.93386">
        <ele>1010</ele>
        <time>2021-04-29T12:56:42Z</time>
      </trkpt>
      <trkpt lat="44.90544" lon="3.93383">
        <ele>1010</ele>
        <time>2021-04-29T12:56:43Z</time>
      </trkpt>
      <trkpt lat="44.90544" lon="3.93378">
        <ele>1009</ele>
        <time>2021-04-29T12:56:44Z</time>
      </trkpt>
      <trkpt lat="44.90544" lon="3.93373">
        <ele>1009</ele>
        <time>2021-04-29T12:56:45Z</time>
      </trkpt>
      <trkpt lat="44.90543" lon="3.93367">
        <ele>1008</ele>
        <time>2021-04-29T12:56:46Z</time>
      </trkpt>
      <trkpt lat="44.90543" lon="3.93361">
        <ele>1008</ele>
        <time>2021-04-29T12:56:47Z</time>
      </trkpt>
      <trkpt lat="44.90542" lon="3.93355">
        <ele>1008</ele>
        <time>2021-04-29T12:56:48Z</time>
      </trkpt>
      <trkpt lat="44.90542" lon="3.93347">
        <ele>1008</ele>
        <time>2021-04-29T12:56:49Z</time>
      </trkpt>
      <trkpt lat="44.90542" lon="3.93339">
        <ele>1007</ele>
        <time>2021-04-29T12:56:50Z</time>
      </trkpt>
      <trkpt lat="44.90543" lon="3.93322">
        <ele>1007</ele>
        <time>2021-04-29T12:56:51Z</time>
      </trkpt>
      <trkpt lat="44.90544" lon="3.93314">
        <ele>1005</ele>
        <time>2021-04-29T12:56:53Z</time>
      </trkpt>
      <trkpt lat="44.90546" lon="3.93306">
        <ele>1004</ele>
        <time>2021-04-29T12:56:54Z</time>
      </trkpt>
      <trkpt lat="44.90549" lon="3.93299">
        <ele>1003</ele>
        <time>2021-04-29T12:56:55Z</time>
      </trkpt>
      <trkpt lat="44.90554" lon="3.93292">
        <ele>1003</ele>
        <time>2021-04-29T12:56:56Z</time>
      </trkpt>
      <trkpt lat="44.90559" lon="3.93287">
        <ele>1002</ele>
        <time>2021-04-29T12:56:57Z</time>
      </trkpt>
      <trkpt lat="44.90565" lon="3.93282">
        <ele>1002</ele>
        <time>2021-04-29T12:56:58Z</time>
      </trkpt>
      <trkpt lat="44.9057" lon="3.93278">
        <ele>1002</ele>
        <time>2021-04-29T12:56:59Z</time>
      </trkpt>
      <trkpt lat="44.90576" lon="3.93274">
        <ele>1002</ele>
        <time>2021-04-29T12:57:00Z</time>
      </trkpt>
      <trkpt lat="44.90581" lon="3.9327">
        <ele>1001</ele>
        <time>2021-04-29T12:57:01Z</time>
      </trkpt>
      <trkpt lat="44.90587" lon="3.93266">
        <ele>1001</ele>
        <time>2021-04-29T12:57:02Z</time>
      </trkpt>
      <trkpt lat="44.90592" lon="3.93262">
        <ele>1001</ele>
        <time>2021-04-29T12:57:03Z</time>
      </trkpt>
      <trkpt lat="44.90598" lon="3.93258">
        <ele>1001</ele>
        <time>2021-04-29T12:57:04Z</time>
      </trkpt>
      <trkpt lat="44.90603" lon="3.93254">
        <ele>1001</ele>
        <time>2021-04-29T12:57:05Z</time>
      </trkpt>
      <trkpt lat="44.90608" lon="3.9325">
        <ele>1001</ele>
        <time>2021-04-29T12:57:06Z</time>
      </trkpt>
      <trkpt lat="44.90613" lon="3.93246">
        <ele>1001</ele>
        <time>2021-04-29T12:57:07Z</time>
      </trkpt>
      <trkpt lat="44.90618" lon="3.93243">
        <ele>1001</ele>
        <time>2021-04-29T12:57:08Z</time>
      </trkpt>
      <trkpt lat="44.90623" lon="3.9324">
        <ele>1001</ele>
        <time>2021-04-29T12:57:09Z</time>
      </trkpt>
      <trkpt lat="44.90634" lon="3.93233">
        <ele>1001</ele>
        <time>2021-04-29T12:57:10Z</time>
      </trkpt>
      <trkpt lat="44.90639" lon="3.9323">
        <ele>1000</ele>
        <time>2021-04-29T12:57:12Z</time>
      </trkpt>
      <trkpt lat="44.90645" lon="3.93227">
        <ele>1000</ele>
        <time>2021-04-29T12:57:13Z</time>
      </trkpt>
      <trkpt lat="44.90651" lon="3.93224">
        <ele>1000</ele>
        <time>2021-04-29T12:57:14Z</time>
      </trkpt>
      <trkpt lat="44.90657" lon="3.93221">
        <ele>1000</ele>
        <time>2021-04-29T12:57:15Z</time>
      </trkpt>
      <trkpt lat="44.90662" lon="3.93218">
        <ele>999</ele>
        <time>2021-04-29T12:57:16Z</time>
      </trkpt>
      <trkpt lat="44.90668" lon="3.93215">
        <ele>999</ele>
        <time>2021-04-29T12:57:17Z</time>
      </trkpt>
      <trkpt lat="44.90674" lon="3.93212">
        <ele>999</ele>
        <time>2021-04-29T12:57:18Z</time>
      </trkpt>
      <trkpt lat="44.9068" lon="3.93209">
        <ele>999</ele>
        <time>2021-04-29T12:57:19Z</time>
      </trkpt>
      <trkpt lat="44.90687" lon="3.93206">
        <ele>998</ele>
        <time>2021-04-29T12:57:20Z</time>
      </trkpt>
      <trkpt lat="44.90693" lon="3.93203">
        <ele>998</ele>
        <time>2021-04-29T12:57:21Z</time>
      </trkpt>
      <trkpt lat="44.90699" lon="3.93201">
        <ele>998</ele>
        <time>2021-04-29T12:57:22Z</time>
      </trkpt>
      <trkpt lat="44.90705" lon="3.93199">
        <ele>997</ele>
        <time>2021-04-29T12:57:23Z</time>
      </trkpt>
      <trkpt lat="44.90711" lon="3.93197">
        <ele>997</ele>
        <time>2021-04-29T12:57:24Z</time>
      </trkpt>
      <trkpt lat="44.90717" lon="3.93195">
        <ele>996</ele>
        <time>2021-04-29T12:57:25Z</time>
      </trkpt>
      <trkpt lat="44.90724" lon="3.93194">
        <ele>996</ele>
        <time>2021-04-29T12:57:26Z</time>
      </trkpt>
      <trkpt lat="44.9073" lon="3.93193">
        <ele>996</ele>
        <time>2021-04-29T12:57:27Z</time>
      </trkpt>
      <trkpt lat="44.90736" lon="3.93193">
        <ele>996</ele>
        <time>2021-04-29T12:57:28Z</time>
      </trkpt>
      <trkpt lat="44.90743" lon="3.93192">
        <ele>996</ele>
        <time>2021-04-29T12:57:29Z</time>
      </trkpt>
      <trkpt lat="44.90749" lon="3.9319">
        <ele>996</ele>
        <time>2021-04-29T12:57:30Z</time>
      </trkpt>
      <trkpt lat="44.90755" lon="3.93189">
        <ele>995</ele>
        <time>2021-04-29T12:57:31Z</time>
      </trkpt>
      <trkpt lat="44.90761" lon="3.93186">
        <ele>995</ele>
        <time>2021-04-29T12:57:32Z</time>
      </trkpt>
      <trkpt lat="44.90768" lon="3.93184">
        <ele>995</ele>
        <time>2021-04-29T12:57:33Z</time>
      </trkpt>
      <trkpt lat="44.90774" lon="3.93182">
        <ele>994</ele>
        <time>2021-04-29T12:57:34Z</time>
      </trkpt>
      <trkpt lat="44.90781" lon="3.9318">
        <ele>994</ele>
        <time>2021-04-29T12:57:35Z</time>
      </trkpt>
      <trkpt lat="44.90788" lon="3.93177">
        <ele>994</ele>
        <time>2021-04-29T12:57:36Z</time>
      </trkpt>
      <trkpt lat="44.90795" lon="3.93175">
        <ele>993</ele>
        <time>2021-04-29T12:57:37Z</time>
      </trkpt>
      <trkpt lat="44.90802" lon="3.93171">
        <ele>993</ele>
        <time>2021-04-29T12:57:38Z</time>
      </trkpt>
      <trkpt lat="44.90809" lon="3.93167">
        <ele>993</ele>
        <time>2021-04-29T12:57:39Z</time>
      </trkpt>
      <trkpt lat="44.90816" lon="3.93163">
        <ele>992</ele>
        <time>2021-04-29T12:57:40Z</time>
      </trkpt>
      <trkpt lat="44.90823" lon="3.93159">
        <ele>991</ele>
        <time>2021-04-29T12:57:41Z</time>
      </trkpt>
      <trkpt lat="44.9083" lon="3.93155">
        <ele>991</ele>
        <time>2021-04-29T12:57:42Z</time>
      </trkpt>
      <trkpt lat="44.90838" lon="3.93151">
        <ele>990</ele>
        <time>2021-04-29T12:57:43Z</time>
      </trkpt>
      <trkpt lat="44.90845" lon="3.93147">
        <ele>989</ele>
        <time>2021-04-29T12:57:44Z</time>
      </trkpt>
      <trkpt lat="44.90853" lon="3.93143">
        <ele>989</ele>
        <time>2021-04-29T12:57:45Z</time>
      </trkpt>
      <trkpt lat="44.90861" lon="3.93138">
        <ele>988</ele>
        <time>2021-04-29T12:57:46Z</time>
      </trkpt>
      <trkpt lat="44.90869" lon="3.93134">
        <ele>987</ele>
        <time>2021-04-29T12:57:47Z</time>
      </trkpt>
      <trkpt lat="44.90885" lon="3.93126">
        <ele>986</ele>
        <time>2021-04-29T12:57:48Z</time>
      </trkpt>
      <trkpt lat="44.90894" lon="3.93121">
        <ele>985</ele>
        <time>2021-04-29T12:57:50Z</time>
      </trkpt>
      <trkpt lat="44.90903" lon="3.93117">
        <ele>984</ele>
        <time>2021-04-29T12:57:51Z</time>
      </trkpt>
      <trkpt lat="44.90912" lon="3.93112">
        <ele>983</ele>
        <time>2021-04-29T12:57:52Z</time>
      </trkpt>
      <trkpt lat="44.90921" lon="3.93107">
        <ele>982</ele>
        <time>2021-04-29T12:57:53Z</time>
      </trkpt>
      <trkpt lat="44.90931" lon="3.93101">
        <ele>981</ele>
        <time>2021-04-29T12:57:54Z</time>
      </trkpt>
      <trkpt lat="44.9094" lon="3.93096">
        <ele>981</ele>
        <time>2021-04-29T12:57:55Z</time>
      </trkpt>
      <trkpt lat="44.9095" lon="3.93089">
        <ele>980</ele>
        <time>2021-04-29T12:57:56Z</time>
      </trkpt>
      <trkpt lat="44.9096" lon="3.93083">
        <ele>979</ele>
        <time>2021-04-29T12:57:57Z</time>
      </trkpt>
      <trkpt lat="44.9097" lon="3.93077">
        <ele>978</ele>
        <time>2021-04-29T12:57:58Z</time>
      </trkpt>
      <trkpt lat="44.9098" lon="3.93071">
        <ele>977</ele>
        <time>2021-04-29T12:57:59Z</time>
      </trkpt>
      <trkpt lat="44.9099" lon="3.93064">
        <ele>976</ele>
        <time>2021-04-29T12:58:00Z</time>
      </trkpt>
      <trkpt lat="44.91" lon="3.93058">
        <ele>976</ele>
        <time>2021-04-29T12:58:01Z</time>
      </trkpt>
      <trkpt lat="44.91009" lon="3.93051">
        <ele>975</ele>
        <time>2021-04-29T12:58:02Z</time>
      </trkpt>
      <trkpt lat="44.91019" lon="3.93045">
        <ele>974</ele>
        <time>2021-04-29T12:58:03Z</time>
      </trkpt>
      <trkpt lat="44.91028" lon="3.93039">
        <ele>973</ele>
        <time>2021-04-29T12:58:04Z</time>
      </trkpt>
      <trkpt lat="44.91038" lon="3.93033">
        <ele>972</ele>
        <time>2021-04-29T12:58:05Z</time>
      </trkpt>
      <trkpt lat="44.91048" lon="3.93027">
        <ele>971</ele>
        <time>2021-04-29T12:58:06Z</time>
      </trkpt>
      <trkpt lat="44.91067" lon="3.93016">
        <ele>970</ele>
        <time>2021-04-29T12:58:07Z</time>
      </trkpt>
      <trkpt lat="44.91078" lon="3.9301">
        <ele>969</ele>
        <time>2021-04-29T12:58:09Z</time>
      </trkpt>
      <trkpt lat="44.91088" lon="3.93005">
        <ele>968</ele>
        <time>2021-04-29T12:58:10Z</time>
      </trkpt>
      <trkpt lat="44.91098" lon="3.92999">
        <ele>967</ele>
        <time>2021-04-29T12:58:11Z</time>
      </trkpt>
      <trkpt lat="44.91108" lon="3.92992">
        <ele>966</ele>
        <time>2021-04-29T12:58:12Z</time>
      </trkpt>
      <trkpt lat="44.91118" lon="3.92984">
        <ele>965</ele>
        <time>2021-04-29T12:58:13Z</time>
      </trkpt>
      <trkpt lat="44.91129" lon="3.92977">
        <ele>964</ele>
        <time>2021-04-29T12:58:14Z</time>
      </trkpt>
      <trkpt lat="44.91139" lon="3.9297">
        <ele>963</ele>
        <time>2021-04-29T12:58:15Z</time>
      </trkpt>
      <trkpt lat="44.91149" lon="3.92962">
        <ele>961</ele>
        <time>2021-04-29T12:58:16Z</time>
      </trkpt>
      <trkpt lat="44.9116" lon="3.92955">
        <ele>960</ele>
        <time>2021-04-29T12:58:17Z</time>
      </trkpt>
      <trkpt lat="44.9117" lon="3.92947">
        <ele>959</ele>
        <time>2021-04-29T12:58:18Z</time>
      </trkpt>
      <trkpt lat="44.91181" lon="3.92938">
        <ele>958</ele>
        <time>2021-04-29T12:58:19Z</time>
      </trkpt>
      <trkpt lat="44.91191" lon="3.9293">
        <ele>957</ele>
        <time>2021-04-29T12:58:20Z</time>
      </trkpt>
      <trkpt lat="44.91201" lon="3.92921">
        <ele>957</ele>
        <time>2021-04-29T12:58:21Z</time>
      </trkpt>
      <trkpt lat="44.91211" lon="3.92912">
        <ele>956</ele>
        <time>2021-04-29T12:58:22Z</time>
      </trkpt>
      <trkpt lat="44.91221" lon="3.92904">
        <ele>955</ele>
        <time>2021-04-29T12:58:23Z</time>
      </trkpt>
      <trkpt lat="44.91231" lon="3.92896">
        <ele>955</ele>
        <time>2021-04-29T12:58:24Z</time>
      </trkpt>
      <trkpt lat="44.91241" lon="3.92888">
        <ele>955</ele>
        <time>2021-04-29T12:58:25Z</time>
      </trkpt>
      <trkpt lat="44.9125" lon="3.9288">
        <ele>955</ele>
        <time>2021-04-29T12:58:26Z</time>
      </trkpt>
      <trkpt lat="44.91259" lon="3.92872">
        <ele>954</ele>
        <time>2021-04-29T12:58:27Z</time>
      </trkpt>
      <trkpt lat="44.91267" lon="3.92865">
        <ele>954</ele>
        <time>2021-04-29T12:58:28Z</time>
      </trkpt>
      <trkpt lat="44.91275" lon="3.92858">
        <ele>954</ele>
        <time>2021-04-29T12:58:29Z</time>
      </trkpt>
      <trkpt lat="44.91284" lon="3.92852">
        <ele>954</ele>
        <time>2021-04-29T12:58:30Z</time>
      </trkpt>
      <trkpt lat="44.91292" lon="3.92846">
        <ele>954</ele>
        <time>2021-04-29T12:58:31Z</time>
      </trkpt>
      <trkpt lat="44.91299" lon="3.92841">
        <ele>954</ele>
        <time>2021-04-29T12:58:32Z</time>
      </trkpt>
      <trkpt lat="44.91306" lon="3.92835">
        <ele>954</ele>
        <time>2021-04-29T12:58:33Z</time>
      </trkpt>
      <trkpt lat="44.91312" lon="3.92826">
        <ele>954</ele>
        <time>2021-04-29T12:58:34Z</time>
      </trkpt>
      <trkpt lat="44.91316" lon="3.92816">
        <ele>953</ele>
        <time>2021-04-29T12:58:35Z</time>
      </trkpt>
      <trkpt lat="44.91317" lon="3.92806">
        <ele>953</ele>
        <time>2021-04-29T12:58:36Z</time>
      </trkpt>
      <trkpt lat="44.91318" lon="3.92795">
        <ele>953</ele>
        <time>2021-04-29T12:58:37Z</time>
      </trkpt>
      <trkpt lat="44.91319" lon="3.92785">
        <ele>953</ele>
        <time>2021-04-29T12:58:38Z</time>
      </trkpt>
      <trkpt lat="44.9132" lon="3.92775">
        <ele>952</ele>
        <time>2021-04-29T12:58:39Z</time>
      </trkpt>
      <trkpt lat="44.91322" lon="3.92767">
        <ele>952</ele>
        <time>2021-04-29T12:58:40Z</time>
      </trkpt>
      <trkpt lat="44.91325" lon="3.92759">
        <ele>952</ele>
        <time>2021-04-29T12:58:41Z</time>
      </trkpt>
      <trkpt lat="44.91329" lon="3.92752">
        <ele>952</ele>
        <time>2021-04-29T12:58:42Z</time>
      </trkpt>
      <trkpt lat="44.91333" lon="3.92746">
        <ele>951</ele>
        <time>2021-04-29T12:58:43Z</time>
      </trkpt>
      <trkpt lat="44.91338" lon="3.92741">
        <ele>951</ele>
        <time>2021-04-29T12:58:44Z</time>
      </trkpt>
      <trkpt lat="44.91345" lon="3.92729">
        <ele>951</ele>
        <time>2021-04-29T12:58:45Z</time>
      </trkpt>
      <trkpt lat="44.91349" lon="3.92723">
        <ele>950</ele>
        <time>2021-04-29T12:58:47Z</time>
      </trkpt>
      <trkpt lat="44.91353" lon="3.92717">
        <ele>950</ele>
        <time>2021-04-29T12:58:48Z</time>
      </trkpt>
      <trkpt lat="44.91357" lon="3.92712">
        <ele>950</ele>
        <time>2021-04-29T12:58:49Z</time>
      </trkpt>
      <trkpt lat="44.91361" lon="3.92707">
        <ele>950</ele>
        <time>2021-04-29T12:58:50Z</time>
      </trkpt>
      <trkpt lat="44.91365" lon="3.92702">
        <ele>950</ele>
        <time>2021-04-29T12:58:51Z</time>
      </trkpt>
      <trkpt lat="44.91369" lon="3.92697">
        <ele>950</ele>
        <time>2021-04-29T12:58:52Z</time>
      </trkpt>
      <trkpt lat="44.91372" lon="3.92692">
        <ele>950</ele>
        <time>2021-04-29T12:58:53Z</time>
      </trkpt>
      <trkpt lat="44.91376" lon="3.92687">
        <ele>950</ele>
        <time>2021-04-29T12:58:54Z</time>
      </trkpt>
      <trkpt lat="44.9138" lon="3.92682">
        <ele>950</ele>
        <time>2021-04-29T12:58:55Z</time>
      </trkpt>
      <trkpt lat="44.91383" lon="3.92677">
        <ele>950</ele>
        <time>2021-04-29T12:58:56Z</time>
      </trkpt>
      <trkpt lat="44.91387" lon="3.92673">
        <ele>950</ele>
        <time>2021-04-29T12:58:57Z</time>
      </trkpt>
      <trkpt lat="44.9139" lon="3.92668">
        <ele>950</ele>
        <time>2021-04-29T12:58:58Z</time>
      </trkpt>
      <trkpt lat="44.91394" lon="3.92663">
        <ele>950</ele>
        <time>2021-04-29T12:58:59Z</time>
      </trkpt>
      <trkpt lat="44.91397" lon="3.92659">
        <ele>950</ele>
        <time>2021-04-29T12:59:00Z</time>
      </trkpt>
      <trkpt lat="44.914" lon="3.92653">
        <ele>951</ele>
        <time>2021-04-29T12:59:01Z</time>
      </trkpt>
      <trkpt lat="44.91404" lon="3.92649">
        <ele>951</ele>
        <time>2021-04-29T12:59:02Z</time>
      </trkpt>
      <trkpt lat="44.91407" lon="3.92644">
        <ele>951</ele>
        <time>2021-04-29T12:59:03Z</time>
      </trkpt>
      <trkpt lat="44.91415" lon="3.92633">
        <ele>951</ele>
        <time>2021-04-29T12:59:04Z</time>
      </trkpt>
      <trkpt lat="44.91418" lon="3.92628">
        <ele>951</ele>
        <time>2021-04-29T12:59:06Z</time>
      </trkpt>
      <trkpt lat="44.91422" lon="3.92624">
        <ele>951</ele>
        <time>2021-04-29T12:59:07Z</time>
      </trkpt>
      <trkpt lat="44.91425" lon="3.92619">
        <ele>951</ele>
        <time>2021-04-29T12:59:08Z</time>
      </trkpt>
      <trkpt lat="44.91429" lon="3.92615">
        <ele>951</ele>
        <time>2021-04-29T12:59:09Z</time>
      </trkpt>
      <trkpt lat="44.91432" lon="3.9261">
        <ele>952</ele>
        <time>2021-04-29T12:59:10Z</time>
      </trkpt>
      <trkpt lat="44.91436" lon="3.92605">
        <ele>952</ele>
        <time>2021-04-29T12:59:11Z</time>
      </trkpt>
      <trkpt lat="44.9144" lon="3.92601">
        <ele>952</ele>
        <time>2021-04-29T12:59:12Z</time>
      </trkpt>
      <trkpt lat="44.91443" lon="3.92597">
        <ele>952</ele>
        <time>2021-04-29T12:59:13Z</time>
      </trkpt>
      <trkpt lat="44.91447" lon="3.92593">
        <ele>952</ele>
        <time>2021-04-29T12:59:14Z</time>
      </trkpt>
      <trkpt lat="44.9145" lon="3.92589">
        <ele>952</ele>
        <time>2021-04-29T12:59:15Z</time>
      </trkpt>
      <trkpt lat="44.91454" lon="3.92585">
        <ele>952</ele>
        <time>2021-04-29T12:59:16Z</time>
      </trkpt>
      <trkpt lat="44.91457" lon="3.9258">
        <ele>953</ele>
        <time>2021-04-29T12:59:17Z</time>
      </trkpt>
      <trkpt lat="44.9146" lon="3.92575">
        <ele>953</ele>
        <time>2021-04-29T12:59:18Z</time>
      </trkpt>
      <trkpt lat="44.91463" lon="3.92571">
        <ele>953</ele>
        <time>2021-04-29T12:59:19Z</time>
      </trkpt>
      <trkpt lat="44.91465" lon="3.92566">
        <ele>953</ele>
        <time>2021-04-29T12:59:20Z</time>
      </trkpt>
      <trkpt lat="44.91466" lon="3.9256">
        <ele>953</ele>
        <time>2021-04-29T12:59:21Z</time>
      </trkpt>
      <trkpt lat="44.91466" lon="3.92554">
        <ele>953</ele>
        <time>2021-04-29T12:59:22Z</time>
      </trkpt>
      <trkpt lat="44.91465" lon="3.92541">
        <ele>954</ele>
        <time>2021-04-29T12:59:23Z</time>
      </trkpt>
      <trkpt lat="44.91464" lon="3.92534">
        <ele>954</ele>
        <time>2021-04-29T12:59:25Z</time>
      </trkpt>
      <trkpt lat="44.91463" lon="3.92527">
        <ele>955</ele>
        <time>2021-04-29T12:59:26Z</time>
      </trkpt>
      <trkpt lat="44.91461" lon="3.92519">
        <ele>955</ele>
        <time>2021-04-29T12:59:27Z</time>
      </trkpt>
      <trkpt lat="44.9146" lon="3.92511">
        <ele>955</ele>
        <time>2021-04-29T12:59:28Z</time>
      </trkpt>
      <trkpt lat="44.91458" lon="3.92504">
        <ele>955</ele>
        <time>2021-04-29T12:59:29Z</time>
      </trkpt>
      <trkpt lat="44.91456" lon="3.92496">
        <ele>954</ele>
        <time>2021-04-29T12:59:30Z</time>
      </trkpt>
      <trkpt lat="44.91455" lon="3.92488">
        <ele>954</ele>
        <time>2021-04-29T12:59:31Z</time>
      </trkpt>
      <trkpt lat="44.91455" lon="3.92481">
        <ele>954</ele>
        <time>2021-04-29T12:59:32Z</time>
      </trkpt>
      <trkpt lat="44.91454" lon="3.92474">
        <ele>954</ele>
        <time>2021-04-29T12:59:33Z</time>
      </trkpt>
      <trkpt lat="44.91453" lon="3.92467">
        <ele>954</ele>
        <time>2021-04-29T12:59:34Z</time>
      </trkpt>
      <trkpt lat="44.91451" lon="3.9246">
        <ele>953</ele>
        <time>2021-04-29T12:59:35Z</time>
      </trkpt>
      <trkpt lat="44.91449" lon="3.92454">
        <ele>953</ele>
        <time>2021-04-29T12:59:36Z</time>
      </trkpt>
      <trkpt lat="44.91445" lon="3.92449">
        <ele>953</ele>
        <time>2021-04-29T12:59:37Z</time>
      </trkpt>
      <trkpt lat="44.91443" lon="3.92446">
        <ele>953</ele>
        <time>2021-04-29T12:59:38Z</time>
      </trkpt>
      <trkpt lat="44.91442" lon="3.92441">
        <ele>953</ele>
        <time>2021-04-29T12:59:39Z</time>
      </trkpt>
      <trkpt lat="44.91443" lon="3.92436">
        <ele>953</ele>
        <time>2021-04-29T12:59:40Z</time>
      </trkpt>
      <trkpt lat="44.91446" lon="3.92432">
        <ele>952</ele>
        <time>2021-04-29T12:59:41Z</time>
      </trkpt>
      <trkpt lat="44.91455" lon="3.92422">
        <ele>952</ele>
        <time>2021-04-29T12:59:42Z</time>
      </trkpt>
      <trkpt lat="44.9146" lon="3.92417">
        <ele>952</ele>
        <time>2021-04-29T12:59:44Z</time>
      </trkpt>
      <trkpt lat="44.91464" lon="3.92411">
        <ele>951</ele>
        <time>2021-04-29T12:59:45Z</time>
      </trkpt>
      <trkpt lat="44.91468" lon="3.92405">
        <ele>951</ele>
        <time>2021-04-29T12:59:46Z</time>
      </trkpt>
      <trkpt lat="44.91472" lon="3.92398">
        <ele>950</ele>
        <time>2021-04-29T12:59:47Z</time>
      </trkpt>
      <trkpt lat="44.91475" lon="3.92391">
        <ele>950</ele>
        <time>2021-04-29T12:59:48Z</time>
      </trkpt>
      <trkpt lat="44.91479" lon="3.92383">
        <ele>949</ele>
        <time>2021-04-29T12:59:49Z</time>
      </trkpt>
      <trkpt lat="44.91483" lon="3.92376">
        <ele>949</ele>
        <time>2021-04-29T12:59:50Z</time>
      </trkpt>
      <trkpt lat="44.91487" lon="3.9237">
        <ele>948</ele>
        <time>2021-04-29T12:59:51Z</time>
      </trkpt>
      <trkpt lat="44.91492" lon="3.92363">
        <ele>947</ele>
        <time>2021-04-29T12:59:52Z</time>
      </trkpt>
      <trkpt lat="44.91496" lon="3.92356">
        <ele>946</ele>
        <time>2021-04-29T12:59:53Z</time>
      </trkpt>
      <trkpt lat="44.91499" lon="3.92348">
        <ele>946</ele>
        <time>2021-04-29T12:59:54Z</time>
      </trkpt>
      <trkpt lat="44.91502" lon="3.92339">
        <ele>945</ele>
        <time>2021-04-29T12:59:55Z</time>
      </trkpt>
      <trkpt lat="44.91506" lon="3.92331">
        <ele>944</ele>
        <time>2021-04-29T12:59:56Z</time>
      </trkpt>
      <trkpt lat="44.9151" lon="3.92322">
        <ele>943</ele>
        <time>2021-04-29T12:59:57Z</time>
      </trkpt>
      <trkpt lat="44.91514" lon="3.92313">
        <ele>943</ele>
        <time>2021-04-29T12:59:58Z</time>
      </trkpt>
      <trkpt lat="44.91517" lon="3.92304">
        <ele>942</ele>
        <time>2021-04-29T12:59:59Z</time>
      </trkpt>
      <trkpt lat="44.9152" lon="3.92296">
        <ele>942</ele>
        <time>2021-04-29T13:00:00Z</time>
      </trkpt>
      <trkpt lat="44.91526" lon="3.92288">
        <ele>941</ele>
        <time>2021-04-29T13:00:01Z</time>
      </trkpt>
      <trkpt lat="44.91529" lon="3.92286">
        <ele>940</ele>
        <time>2021-04-29T13:00:03Z</time>
      </trkpt>
      <trkpt lat="44.91532" lon="3.92284">
        <ele>940</ele>
        <time>2021-04-29T13:00:04Z</time>
      </trkpt>
      <trkpt lat="44.91534" lon="3.92283">
        <ele>939</ele>
        <time>2021-04-29T13:00:05Z</time>
      </trkpt>
      <trkpt lat="44.91537" lon="3.92282">
        <ele>939</ele>
        <time>2021-04-29T13:00:06Z</time>
      </trkpt>
      <trkpt lat="44.9154" lon="3.92282">
        <ele>939</ele>
        <time>2021-04-29T13:00:07Z</time>
      </trkpt>
      <trkpt lat="44.91544" lon="3.92282">
        <ele>939</ele>
        <time>2021-04-29T13:00:08Z</time>
      </trkpt>
      <trkpt lat="44.9155" lon="3.92281">
        <ele>938</ele>
        <time>2021-04-29T13:00:09Z</time>
      </trkpt>
      <trkpt lat="44.91555" lon="3.92281">
        <ele>938</ele>
        <time>2021-04-29T13:00:11Z</time>
      </trkpt>
      <trkpt lat="44.91559" lon="3.92282">
        <ele>938</ele>
        <time>2021-04-29T13:00:12Z</time>
      </trkpt>
      <trkpt lat="44.91563" lon="3.92283">
        <ele>938</ele>
        <time>2021-04-29T13:00:13Z</time>
      </trkpt>
      <trkpt lat="44.91568" lon="3.92284">
        <ele>938</ele>
        <time>2021-04-29T13:00:14Z</time>
      </trkpt>
      <trkpt lat="44.91572" lon="3.92284">
        <ele>938</ele>
        <time>2021-04-29T13:00:15Z</time>
      </trkpt>
      <trkpt lat="44.91577" lon="3.92284">
        <ele>938</ele>
        <time>2021-04-29T13:00:16Z</time>
      </trkpt>
      <trkpt lat="44.91582" lon="3.92283">
        <ele>937</ele>
        <time>2021-04-29T13:00:17Z</time>
      </trkpt>
      <trkpt lat="44.91586" lon="3.92282">
        <ele>937</ele>
        <time>2021-04-29T13:00:18Z</time>
      </trkpt>
      <trkpt lat="44.91591" lon="3.92283">
        <ele>937</ele>
        <time>2021-04-29T13:00:19Z</time>
      </trkpt>
      <trkpt lat="44.91596" lon="3.92283">
        <ele>937</ele>
        <time>2021-04-29T13:00:20Z</time>
      </trkpt>
      <trkpt lat="44.91608" lon="3.92282">
        <ele>936</ele>
        <time>2021-04-29T13:00:22Z</time>
      </trkpt>
      <trkpt lat="44.91613" lon="3.92282">
        <ele>936</ele>
        <time>2021-04-29T13:00:23Z</time>
      </trkpt>
      <trkpt lat="44.91623" lon="3.92283">
        <ele>935</ele>
        <time>2021-04-29T13:00:25Z</time>
      </trkpt>
      <trkpt lat="44.91628" lon="3.92283">
        <ele>935</ele>
        <time>2021-04-29T13:00:26Z</time>
      </trkpt>
      <trkpt lat="44.91632" lon="3.92281">
        <ele>935</ele>
        <time>2021-04-29T13:00:27Z</time>
      </trkpt>
      <trkpt lat="44.91635" lon="3.92276">
        <ele>935</ele>
        <time>2021-04-29T13:00:28Z</time>
      </trkpt>
      <trkpt lat="44.91642" lon="3.92269">
        <ele>934</ele>
        <time>2021-04-29T13:00:30Z</time>
      </trkpt>
      <trkpt lat="44.91646" lon="3.92265">
        <ele>933</ele>
        <time>2021-04-29T13:00:31Z</time>
      </trkpt>
      <trkpt lat="44.9165" lon="3.92261">
        <ele>932</ele>
        <time>2021-04-29T13:00:32Z</time>
      </trkpt>
      <trkpt lat="44.91654" lon="3.92258">
        <ele>932</ele>
        <time>2021-04-29T13:00:33Z</time>
      </trkpt>
      <trkpt lat="44.91657" lon="3.92254">
        <ele>932</ele>
        <time>2021-04-29T13:00:34Z</time>
      </trkpt>
      <trkpt lat="44.9166" lon="3.92251">
        <ele>931</ele>
        <time>2021-04-29T13:00:35Z</time>
      </trkpt>
      <trkpt lat="44.91662" lon="3.92248">
        <ele>931</ele>
        <time>2021-04-29T13:00:36Z</time>
      </trkpt>
      <trkpt lat="44.91666" lon="3.92245">
        <ele>931</ele>
        <time>2021-04-29T13:00:37Z</time>
      </trkpt>
      <trkpt lat="44.91669" lon="3.92244">
        <ele>930</ele>
        <time>2021-04-29T13:00:38Z</time>
      </trkpt>
      <trkpt lat="44.91675" lon="3.92241">
        <ele>930</ele>
        <time>2021-04-29T13:00:39Z</time>
      </trkpt>
      <trkpt lat="44.91679" lon="3.92238">
        <ele>930</ele>
        <time>2021-04-29T13:00:41Z</time>
      </trkpt>
      <trkpt lat="44.91682" lon="3.92236">
        <ele>930</ele>
        <time>2021-04-29T13:00:42Z</time>
      </trkpt>
      <trkpt lat="44.91685" lon="3.92234">
        <ele>929</ele>
        <time>2021-04-29T13:00:43Z</time>
      </trkpt>
      <trkpt lat="44.91688" lon="3.92232">
        <ele>929</ele>
        <time>2021-04-29T13:00:44Z</time>
      </trkpt>
      <trkpt lat="44.91692" lon="3.92232">
        <ele>929</ele>
        <time>2021-04-29T13:00:45Z</time>
      </trkpt>
      <trkpt lat="44.91695" lon="3.92231">
        <ele>928</ele>
        <time>2021-04-29T13:00:46Z</time>
      </trkpt>
      <trkpt lat="44.91698" lon="3.9223">
        <ele>928</ele>
        <time>2021-04-29T13:00:47Z</time>
      </trkpt>
      <trkpt lat="44.917" lon="3.9223">
        <ele>928</ele>
        <time>2021-04-29T13:00:48Z</time>
      </trkpt>
      <trkpt lat="44.91702" lon="3.9223">
        <ele>928</ele>
        <time>2021-04-29T13:00:49Z</time>
      </trkpt>
      <trkpt lat="44.91704" lon="3.92228">
        <ele>928</ele>
        <time>2021-04-29T13:00:50Z</time>
      </trkpt>
      <trkpt lat="44.91707" lon="3.92227">
        <ele>927</ele>
        <time>2021-04-29T13:00:51Z</time>
      </trkpt>
      <trkpt lat="44.91711" lon="3.92227">
        <ele>927</ele>
        <time>2021-04-29T13:00:52Z</time>
      </trkpt>
      <trkpt lat="44.91714" lon="3.92226">
        <ele>927</ele>
        <time>2021-04-29T13:00:53Z</time>
      </trkpt>
      <trkpt lat="44.91723" lon="3.92224">
        <ele>926</ele>
        <time>2021-04-29T13:00:56Z</time>
      </trkpt>
      <trkpt lat="44.9173" lon="3.92218">
        <ele>926</ele>
        <time>2021-04-29T13:00:58Z</time>
      </trkpt>
      <trkpt lat="44.9174" lon="3.92211">
        <ele>925</ele>
        <time>2021-04-29T13:01:02Z</time>
      </trkpt>
      <trkpt lat="44.91752" lon="3.92207">
        <ele>924</ele>
        <time>2021-04-29T13:01:05Z</time>
      </trkpt>
      <trkpt lat="44.91763" lon="3.922">
        <ele>922</ele>
        <time>2021-04-29T13:01:08Z</time>
      </trkpt>
      <trkpt lat="44.91773" lon="3.92194">
        <ele>921</ele>
        <time>2021-04-29T13:01:12Z</time>
      </trkpt>
      <trkpt lat="44.91784" lon="3.92197">
        <ele>919</ele>
        <time>2021-04-29T13:01:17Z</time>
      </trkpt>
      <trkpt lat="44.91793" lon="3.92204">
        <ele>918</ele>
        <time>2021-04-29T13:01:23Z</time>
      </trkpt>
      <trkpt lat="44.91802" lon="3.9221">
        <ele>916</ele>
        <time>2021-04-29T13:01:28Z</time>
      </trkpt>
      <trkpt lat="44.91809" lon="3.92221">
        <ele>915</ele>
        <time>2021-04-29T13:01:31Z</time>
      </trkpt>
      <trkpt lat="44.91816" lon="3.92225">
        <ele>915</ele>
        <time>2021-04-29T13:01:36Z</time>
      </trkpt>
      <trkpt lat="44.91817" lon="3.92227">
        <ele>914</ele>
        <time>2021-04-29T13:01:43Z</time>
      </trkpt>
      <trkpt lat="44.91819" lon="3.92228">
        <ele>914</ele>
        <time>2021-04-29T13:01:46Z</time>
      </trkpt>
      <trkpt lat="44.91821" lon="3.92229">
        <ele>913</ele>
        <time>2021-04-29T13:01:50Z</time>
      </trkpt>
      <trkpt lat="44.91822" lon="3.9223">
        <ele>912</ele>
        <time>2021-04-29T13:01:54Z</time>
      </trkpt>
      <trkpt lat="44.91824" lon="3.9223">
        <ele>910</ele>
        <time>2021-04-29T13:02:05Z</time>
      </trkpt>
      <trkpt lat="44.91825" lon="3.92228">
        <ele>910</ele>
        <time>2021-04-29T13:02:06Z</time>
      </trkpt>
      <trkpt lat="44.91827" lon="3.92224">
        <ele>910</ele>
        <time>2021-04-29T13:02:08Z</time>
      </trkpt>
      <trkpt lat="44.91828" lon="3.92221">
        <ele>910</ele>
        <time>2021-04-29T13:02:09Z</time>
      </trkpt>
      <trkpt lat="44.91829" lon="3.92219">
        <ele>910</ele>
        <time>2021-04-29T13:02:10Z</time>
      </trkpt>
      <trkpt lat="44.91831" lon="3.92217">
        <ele>909</ele>
        <time>2021-04-29T13:02:11Z</time>
      </trkpt>
      <trkpt lat="44.91833" lon="3.92216">
        <ele>909</ele>
        <time>2021-04-29T13:02:12Z</time>
      </trkpt>
      <trkpt lat="44.91836" lon="3.92214">
        <ele>909</ele>
        <time>2021-04-29T13:02:14Z</time>
      </trkpt>
      <trkpt lat="44.91838" lon="3.92213">
        <ele>909</ele>
        <time>2021-04-29T13:02:15Z</time>
      </trkpt>
      <trkpt lat="44.91841" lon="3.92211">
        <ele>909</ele>
        <time>2021-04-29T13:02:16Z</time>
      </trkpt>
      <trkpt lat="44.91844" lon="3.92209">
        <ele>908</ele>
        <time>2021-04-29T13:02:17Z</time>
      </trkpt>
      <trkpt lat="44.91847" lon="3.92207">
        <ele>908</ele>
        <time>2021-04-29T13:02:18Z</time>
      </trkpt>
      <trkpt lat="44.91849" lon="3.92204">
        <ele>908</ele>
        <time>2021-04-29T13:02:19Z</time>
      </trkpt>
      <trkpt lat="44.91852" lon="3.922">
        <ele>908</ele>
        <time>2021-04-29T13:02:20Z</time>
      </trkpt>
      <trkpt lat="44.91854" lon="3.92197">
        <ele>907</ele>
        <time>2021-04-29T13:02:21Z</time>
      </trkpt>
      <trkpt lat="44.91855" lon="3.92194">
        <ele>907</ele>
        <time>2021-04-29T13:02:22Z</time>
      </trkpt>
      <trkpt lat="44.91857" lon="3.92189">
        <ele>907</ele>
        <time>2021-04-29T13:02:23Z</time>
      </trkpt>
      <trkpt lat="44.91861" lon="3.92182">
        <ele>907</ele>
        <time>2021-04-29T13:02:25Z</time>
      </trkpt>
      <trkpt lat="44.91863" lon="3.92178">
        <ele>906</ele>
        <time>2021-04-29T13:02:27Z</time>
      </trkpt>
      <trkpt lat="44.91866" lon="3.92174">
        <ele>906</ele>
        <time>2021-04-29T13:02:28Z</time>
      </trkpt>
      <trkpt lat="44.91869" lon="3.9217">
        <ele>906</ele>
        <time>2021-04-29T13:02:29Z</time>
      </trkpt>
      <trkpt lat="44.91872" lon="3.92167">
        <ele>905</ele>
        <time>2021-04-29T13:02:30Z</time>
      </trkpt>
      <trkpt lat="44.91876" lon="3.92165">
        <ele>905</ele>
        <time>2021-04-29T13:02:31Z</time>
      </trkpt>
      <trkpt lat="44.9188" lon="3.92164">
        <ele>905</ele>
        <time>2021-04-29T13:02:32Z</time>
      </trkpt>
      <trkpt lat="44.91885" lon="3.92164">
        <ele>905</ele>
        <time>2021-04-29T13:02:33Z</time>
      </trkpt>
      <trkpt lat="44.91889" lon="3.92163">
        <ele>905</ele>
        <time>2021-04-29T13:02:34Z</time>
      </trkpt>
      <trkpt lat="44.91892" lon="3.92162">
        <ele>905</ele>
        <time>2021-04-29T13:02:35Z</time>
      </trkpt>
      <trkpt lat="44.91897" lon="3.92162">
        <ele>905</ele>
        <time>2021-04-29T13:02:36Z</time>
      </trkpt>
      <trkpt lat="44.91901" lon="3.92161">
        <ele>905</ele>
        <time>2021-04-29T13:02:37Z</time>
      </trkpt>
      <trkpt lat="44.91906" lon="3.92161">
        <ele>905</ele>
        <time>2021-04-29T13:02:38Z</time>
      </trkpt>
      <trkpt lat="44.91911" lon="3.92161">
        <ele>905</ele>
        <time>2021-04-29T13:02:39Z</time>
      </trkpt>
      <trkpt lat="44.91916" lon="3.92161">
        <ele>905</ele>
        <time>2021-04-29T13:02:40Z</time>
      </trkpt>
      <trkpt lat="44.91921" lon="3.92161">
        <ele>905</ele>
        <time>2021-04-29T13:02:41Z</time>
      </trkpt>
      <trkpt lat="44.91925" lon="3.92159">
        <ele>905</ele>
        <time>2021-04-29T13:02:42Z</time>
      </trkpt>
      <trkpt lat="44.91929" lon="3.92156">
        <ele>905</ele>
        <time>2021-04-29T13:02:43Z</time>
      </trkpt>
      <trkpt lat="44.91936" lon="3.92153">
        <ele>905</ele>
        <time>2021-04-29T13:02:44Z</time>
      </trkpt>
      <trkpt lat="44.91939" lon="3.92152">
        <ele>904</ele>
        <time>2021-04-29T13:02:46Z</time>
      </trkpt>
      <trkpt lat="44.9195" lon="3.9215">
        <ele>904</ele>
        <time>2021-04-29T13:02:49Z</time>
      </trkpt>
      <trkpt lat="44.91956" lon="3.9215">
        <ele>904</ele>
        <time>2021-04-29T13:02:50Z</time>
      </trkpt>
      <trkpt lat="44.91961" lon="3.92149">
        <ele>904</ele>
        <time>2021-04-29T13:02:51Z</time>
      </trkpt>
      <trkpt lat="44.91965" lon="3.92149">
        <ele>905</ele>
        <time>2021-04-29T13:02:52Z</time>
      </trkpt>
      <trkpt lat="44.91969" lon="3.92149">
        <ele>905</ele>
        <time>2021-04-29T13:02:53Z</time>
      </trkpt>
      <trkpt lat="44.91981" lon="3.92143">
        <ele>904</ele>
        <time>2021-04-29T13:02:56Z</time>
      </trkpt>
      <trkpt lat="44.91986" lon="3.92141">
        <ele>904</ele>
        <time>2021-04-29T13:02:57Z</time>
      </trkpt>
      <trkpt lat="44.91991" lon="3.92139">
        <ele>903</ele>
        <time>2021-04-29T13:02:58Z</time>
      </trkpt>
      <trkpt lat="44.91996" lon="3.92136">
        <ele>903</ele>
        <time>2021-04-29T13:02:59Z</time>
      </trkpt>
      <trkpt lat="44.92001" lon="3.92134">
        <ele>902</ele>
        <time>2021-04-29T13:03:00Z</time>
      </trkpt>
      <trkpt lat="44.92006" lon="3.92132">
        <ele>902</ele>
        <time>2021-04-29T13:03:01Z</time>
      </trkpt>
      <trkpt lat="44.9201" lon="3.92132">
        <ele>901</ele>
        <time>2021-04-29T13:03:02Z</time>
      </trkpt>
      <trkpt lat="44.92021" lon="3.92131">
        <ele>901</ele>
        <time>2021-04-29T13:03:03Z</time>
      </trkpt>
      <trkpt lat="44.92026" lon="3.92129">
        <ele>901</ele>
        <time>2021-04-29T13:03:05Z</time>
      </trkpt>
      <trkpt lat="44.92031" lon="3.92127">
        <ele>901</ele>
        <time>2021-04-29T13:03:06Z</time>
      </trkpt>
      <trkpt lat="44.92036" lon="3.92124">
        <ele>900</ele>
        <time>2021-04-29T13:03:07Z</time>
      </trkpt>
      <trkpt lat="44.92041" lon="3.92121">
        <ele>900</ele>
        <time>2021-04-29T13:03:08Z</time>
      </trkpt>
      <trkpt lat="44.92046" lon="3.92117">
        <ele>900</ele>
        <time>2021-04-29T13:03:09Z</time>
      </trkpt>
      <trkpt lat="44.92051" lon="3.92114">
        <ele>900</ele>
        <time>2021-04-29T13:03:10Z</time>
      </trkpt>
      <trkpt lat="44.92057" lon="3.92112">
        <ele>900</ele>
        <time>2021-04-29T13:03:11Z</time>
      </trkpt>
      <trkpt lat="44.92062" lon="3.92112">
        <ele>900</ele>
        <time>2021-04-29T13:03:12Z</time>
      </trkpt>
      <trkpt lat="44.92066" lon="3.92112">
        <ele>900</ele>
        <time>2021-04-29T13:03:13Z</time>
      </trkpt>
      <trkpt lat="44.9207" lon="3.92112">
        <ele>900</ele>
        <time>2021-04-29T13:03:14Z</time>
      </trkpt>
      <trkpt lat="44.92074" lon="3.92112">
        <ele>901</ele>
        <time>2021-04-29T13:03:15Z</time>
      </trkpt>
      <trkpt lat="44.92077" lon="3.92113">
        <ele>901</ele>
        <time>2021-04-29T13:03:16Z</time>
      </trkpt>
      <trkpt lat="44.9208" lon="3.92113">
        <ele>901</ele>
        <time>2021-04-29T13:03:17Z</time>
      </trkpt>
      <trkpt lat="44.92083" lon="3.92112">
        <ele>901</ele>
        <time>2021-04-29T13:03:18Z</time>
      </trkpt>
      <trkpt lat="44.92085" lon="3.92111">
        <ele>901</ele>
        <time>2021-04-29T13:03:19Z</time>
      </trkpt>
      <trkpt lat="44.92088" lon="3.9211">
        <ele>902</ele>
        <time>2021-04-29T13:03:20Z</time>
      </trkpt>
      <trkpt lat="44.9209" lon="3.92109">
        <ele>902</ele>
        <time>2021-04-29T13:03:21Z</time>
      </trkpt>
      <trkpt lat="44.92094" lon="3.92105">
        <ele>902</ele>
        <time>2021-04-29T13:03:22Z</time>
      </trkpt>
      <trkpt lat="44.92097" lon="3.92103">
        <ele>903</ele>
        <time>2021-04-29T13:03:24Z</time>
      </trkpt>
      <trkpt lat="44.921" lon="3.92101">
        <ele>904</ele>
        <time>2021-04-29T13:03:25Z</time>
      </trkpt>
      <trkpt lat="44.92102" lon="3.921">
        <ele>904</ele>
        <time>2021-04-29T13:03:26Z</time>
      </trkpt>
      <trkpt lat="44.92105" lon="3.92099">
        <ele>904</ele>
        <time>2021-04-29T13:03:27Z</time>
      </trkpt>
      <trkpt lat="44.92107" lon="3.92097">
        <ele>904</ele>
        <time>2021-04-29T13:03:28Z</time>
      </trkpt>
      <trkpt lat="44.9211" lon="3.92096">
        <ele>904</ele>
        <time>2021-04-29T13:03:29Z</time>
      </trkpt>
      <trkpt lat="44.92112" lon="3.92095">
        <ele>904</ele>
        <time>2021-04-29T13:03:30Z</time>
      </trkpt>
      <trkpt lat="44.92114" lon="3.92093">
        <ele>905</ele>
        <time>2021-04-29T13:03:31Z</time>
      </trkpt>
      <trkpt lat="44.92117" lon="3.92091">
        <ele>905</ele>
        <time>2021-04-29T13:03:32Z</time>
      </trkpt>
      <trkpt lat="44.9212" lon="3.92088">
        <ele>906</ele>
        <time>2021-04-29T13:03:33Z</time>
      </trkpt>
      <trkpt lat="44.92124" lon="3.92085">
        <ele>906</ele>
        <time>2021-04-29T13:03:34Z</time>
      </trkpt>
      <trkpt lat="44.92128" lon="3.92082">
        <ele>906</ele>
        <time>2021-04-29T13:03:35Z</time>
      </trkpt>
      <trkpt lat="44.92132" lon="3.92079">
        <ele>907</ele>
        <time>2021-04-29T13:03:36Z</time>
      </trkpt>
      <trkpt lat="44.92137" lon="3.92077">
        <ele>907</ele>
        <time>2021-04-29T13:03:37Z</time>
      </trkpt>
      <trkpt lat="44.92142" lon="3.92075">
        <ele>907</ele>
        <time>2021-04-29T13:03:38Z</time>
      </trkpt>
      <trkpt lat="44.92146" lon="3.92072">
        <ele>907</ele>
        <time>2021-04-29T13:03:39Z</time>
      </trkpt>
      <trkpt lat="44.92151" lon="3.92069">
        <ele>908</ele>
        <time>2021-04-29T13:03:40Z</time>
      </trkpt>
      <trkpt lat="44.9216" lon="3.92063">
        <ele>908</ele>
        <time>2021-04-29T13:03:41Z</time>
      </trkpt>
      <trkpt lat="44.92164" lon="3.9206">
        <ele>908</ele>
        <time>2021-04-29T13:03:43Z</time>
      </trkpt>
      <trkpt lat="44.92169" lon="3.92058">
        <ele>909</ele>
        <time>2021-04-29T13:03:44Z</time>
      </trkpt>
      <trkpt lat="44.92173" lon="3.92057">
        <ele>909</ele>
        <time>2021-04-29T13:03:45Z</time>
      </trkpt>
      <trkpt lat="44.92176" lon="3.92056">
        <ele>910</ele>
        <time>2021-04-29T13:03:46Z</time>
      </trkpt>
      <trkpt lat="44.92179" lon="3.92056">
        <ele>911</ele>
        <time>2021-04-29T13:03:47Z</time>
      </trkpt>
      <trkpt lat="44.92182" lon="3.92057">
        <ele>911</ele>
        <time>2021-04-29T13:03:48Z</time>
      </trkpt>
      <trkpt lat="44.92185" lon="3.92057">
        <ele>911</ele>
        <time>2021-04-29T13:03:49Z</time>
      </trkpt>
      <trkpt lat="44.92187" lon="3.92058">
        <ele>911</ele>
        <time>2021-04-29T13:03:50Z</time>
      </trkpt>
      <trkpt lat="44.92189" lon="3.92058">
        <ele>912</ele>
        <time>2021-04-29T13:03:51Z</time>
      </trkpt>
      <trkpt lat="44.92192" lon="3.92058">
        <ele>912</ele>
        <time>2021-04-29T13:03:52Z</time>
      </trkpt>
      <trkpt lat="44.92194" lon="3.92058">
        <ele>912</ele>
        <time>2021-04-29T13:03:53Z</time>
      </trkpt>
      <trkpt lat="44.92197" lon="3.92058">
        <ele>912</ele>
        <time>2021-04-29T13:03:54Z</time>
      </trkpt>
      <trkpt lat="44.92199" lon="3.92058">
        <ele>912</ele>
        <time>2021-04-29T13:03:55Z</time>
      </trkpt>
      <trkpt lat="44.92202" lon="3.92057">
        <ele>912</ele>
        <time>2021-04-29T13:03:56Z</time>
      </trkpt>
      <trkpt lat="44.92206" lon="3.92057">
        <ele>912</ele>
        <time>2021-04-29T13:03:57Z</time>
      </trkpt>
      <trkpt lat="44.92209" lon="3.92056">
        <ele>913</ele>
        <time>2021-04-29T13:03:58Z</time>
      </trkpt>
      <trkpt lat="44.92212" lon="3.92056">
        <ele>913</ele>
        <time>2021-04-29T13:03:59Z</time>
      </trkpt>
      <trkpt lat="44.92219" lon="3.92055">
        <ele>913</ele>
        <time>2021-04-29T13:04:00Z</time>
      </trkpt>
      <trkpt lat="44.92222" lon="3.92055">
        <ele>914</ele>
        <time>2021-04-29T13:04:02Z</time>
      </trkpt>
      <trkpt lat="44.92225" lon="3.92055">
        <ele>915</ele>
        <time>2021-04-29T13:04:03Z</time>
      </trkpt>
      <trkpt lat="44.92228" lon="3.92054">
        <ele>915</ele>
        <time>2021-04-29T13:04:04Z</time>
      </trkpt>
      <trkpt lat="44.92231" lon="3.92054">
        <ele>915</ele>
        <time>2021-04-29T13:04:05Z</time>
      </trkpt>
      <trkpt lat="44.92234" lon="3.92054">
        <ele>915</ele>
        <time>2021-04-29T13:04:06Z</time>
      </trkpt>
      <trkpt lat="44.92238" lon="3.92054">
        <ele>916</ele>
        <time>2021-04-29T13:04:07Z</time>
      </trkpt>
      <trkpt lat="44.92241" lon="3.92054">
        <ele>916</ele>
        <time>2021-04-29T13:04:08Z</time>
      </trkpt>
      <trkpt lat="44.92245" lon="3.92055">
        <ele>916</ele>
        <time>2021-04-29T13:04:09Z</time>
      </trkpt>
      <trkpt lat="44.92249" lon="3.92056">
        <ele>916</ele>
        <time>2021-04-29T13:04:10Z</time>
      </trkpt>
      <trkpt lat="44.92253" lon="3.92057">
        <ele>916</ele>
        <time>2021-04-29T13:04:11Z</time>
      </trkpt>
      <trkpt lat="44.92257" lon="3.92058">
        <ele>917</ele>
        <time>2021-04-29T13:04:12Z</time>
      </trkpt>
      <trkpt lat="44.92262" lon="3.9206">
        <ele>917</ele>
        <time>2021-04-29T13:04:13Z</time>
      </trkpt>
      <trkpt lat="44.92267" lon="3.92061">
        <ele>917</ele>
        <time>2021-04-29T13:04:14Z</time>
      </trkpt>
      <trkpt lat="44.92271" lon="3.92062">
        <ele>917</ele>
        <time>2021-04-29T13:04:15Z</time>
      </trkpt>
      <trkpt lat="44.92276" lon="3.92064">
        <ele>917</ele>
        <time>2021-04-29T13:04:16Z</time>
      </trkpt>
      <trkpt lat="44.9228" lon="3.92066">
        <ele>917</ele>
        <time>2021-04-29T13:04:17Z</time>
      </trkpt>
      <trkpt lat="44.92284" lon="3.92068">
        <ele>917</ele>
        <time>2021-04-29T13:04:18Z</time>
      </trkpt>
      <trkpt lat="44.92293" lon="3.92074">
        <ele>917</ele>
        <time>2021-04-29T13:04:19Z</time>
      </trkpt>
      <trkpt lat="44.92297" lon="3.92077">
        <ele>917</ele>
        <time>2021-04-29T13:04:21Z</time>
      </trkpt>
      <trkpt lat="44.92301" lon="3.9208">
        <ele>917</ele>
        <time>2021-04-29T13:04:22Z</time>
      </trkpt>
      <trkpt lat="44.92305" lon="3.92084">
        <ele>917</ele>
        <time>2021-04-29T13:04:23Z</time>
      </trkpt>
      <trkpt lat="44.92307" lon="3.92087">
        <ele>917</ele>
        <time>2021-04-29T13:04:24Z</time>
      </trkpt>
      <trkpt lat="44.9231" lon="3.92091">
        <ele>918</ele>
        <time>2021-04-29T13:04:25Z</time>
      </trkpt>
      <trkpt lat="44.92311" lon="3.92093">
        <ele>918</ele>
        <time>2021-04-29T13:04:26Z</time>
      </trkpt>
      <trkpt lat="44.92313" lon="3.92095">
        <ele>918</ele>
        <time>2021-04-29T13:04:27Z</time>
      </trkpt>
      <trkpt lat="44.9232" lon="3.92083">
        <ele>919</ele>
        <time>2021-04-29T13:15:51Z</time>
      </trkpt>
      <trkpt lat="44.92324" lon="3.92081">
        <ele>919</ele>
        <time>2021-04-29T13:15:52Z</time>
      </trkpt>
      <trkpt lat="44.92327" lon="3.92079">
        <ele>919</ele>
        <time>2021-04-29T13:15:54Z</time>
      </trkpt>
      <trkpt lat="44.9233" lon="3.92078">
        <ele>919</ele>
        <time>2021-04-29T13:15:55Z</time>
      </trkpt>
      <trkpt lat="44.92332" lon="3.92077">
        <ele>919</ele>
        <time>2021-04-29T13:15:56Z</time>
      </trkpt>
      <trkpt lat="44.92334" lon="3.92076">
        <ele>919</ele>
        <time>2021-04-29T13:15:57Z</time>
      </trkpt>
      <trkpt lat="44.92336" lon="3.92073">
        <ele>919</ele>
        <time>2021-04-29T13:15:58Z</time>
      </trkpt>
      <trkpt lat="44.92336" lon="3.92069">
        <ele>918</ele>
        <time>2021-04-29T13:15:59Z</time>
      </trkpt>
      <trkpt lat="44.92336" lon="3.92063">
        <ele>917</ele>
        <time>2021-04-29T13:16:00Z</time>
      </trkpt>
      <trkpt lat="44.92336" lon="3.92055">
        <ele>917</ele>
        <time>2021-04-29T13:16:01Z</time>
      </trkpt>
      <trkpt lat="44.92334" lon="3.92047">
        <ele>916</ele>
        <time>2021-04-29T13:16:02Z</time>
      </trkpt>
      <trkpt lat="44.92331" lon="3.92038">
        <ele>916</ele>
        <time>2021-04-29T13:16:03Z</time>
      </trkpt>
      <trkpt lat="44.92328" lon="3.92029">
        <ele>915</ele>
        <time>2021-04-29T13:16:04Z</time>
      </trkpt>
      <trkpt lat="44.92323" lon="3.92019">
        <ele>915</ele>
        <time>2021-04-29T13:16:05Z</time>
      </trkpt>
      <trkpt lat="44.92318" lon="3.92009">
        <ele>915</ele>
        <time>2021-04-29T13:16:06Z</time>
      </trkpt>
      <trkpt lat="44.92313" lon="3.92">
        <ele>914</ele>
        <time>2021-04-29T13:16:07Z</time>
      </trkpt>
      <trkpt lat="44.92308" lon="3.91991">
        <ele>912</ele>
        <time>2021-04-29T13:16:08Z</time>
      </trkpt>
      <trkpt lat="44.92304" lon="3.91981">
        <ele>910</ele>
        <time>2021-04-29T13:16:09Z</time>
      </trkpt>
      <trkpt lat="44.92303" lon="3.9197">
        <ele>909</ele>
        <time>2021-04-29T13:16:10Z</time>
      </trkpt>
      <trkpt lat="44.92307" lon="3.91946">
        <ele>907</ele>
        <time>2021-04-29T13:16:11Z</time>
      </trkpt>
      <trkpt lat="44.9231" lon="3.91933">
        <ele>904</ele>
        <time>2021-04-29T13:16:13Z</time>
      </trkpt>
      <trkpt lat="44.9231" lon="3.91921">
        <ele>903</ele>
        <time>2021-04-29T13:16:14Z</time>
      </trkpt>
      <trkpt lat="44.92311" lon="3.91911">
        <ele>903</ele>
        <time>2021-04-29T13:16:15Z</time>
      </trkpt>
      <trkpt lat="44.9231" lon="3.91903">
        <ele>902</ele>
        <time>2021-04-29T13:16:16Z</time>
      </trkpt>
      <trkpt lat="44.9231" lon="3.91896">
        <ele>901</ele>
        <time>2021-04-29T13:16:17Z</time>
      </trkpt>
      <trkpt lat="44.9231" lon="3.91891">
        <ele>900</ele>
        <time>2021-04-29T13:16:18Z</time>
      </trkpt>
      <trkpt lat="44.9231" lon="3.91886">
        <ele>900</ele>
        <time>2021-04-29T13:16:19Z</time>
      </trkpt>
      <trkpt lat="44.92308" lon="3.91881">
        <ele>899</ele>
        <time>2021-04-29T13:16:20Z</time>
      </trkpt>
      <trkpt lat="44.92307" lon="3.91878">
        <ele>899</ele>
        <time>2021-04-29T13:16:21Z</time>
      </trkpt>
      <trkpt lat="44.92305" lon="3.91878">
        <ele>898</ele>
        <time>2021-04-29T13:16:22Z</time>
      </trkpt>
      <trkpt lat="44.92302" lon="3.91882">
        <ele>898</ele>
        <time>2021-04-29T13:16:23Z</time>
      </trkpt>
      <trkpt lat="44.923" lon="3.91887">
        <ele>897</ele>
        <time>2021-04-29T13:16:24Z</time>
      </trkpt>
      <trkpt lat="44.92297" lon="3.91893">
        <ele>897</ele>
        <time>2021-04-29T13:16:25Z</time>
      </trkpt>
      <trkpt lat="44.92293" lon="3.919">
        <ele>896</ele>
        <time>2021-04-29T13:16:26Z</time>
      </trkpt>
      <trkpt lat="44.92289" lon="3.91906">
        <ele>896</ele>
        <time>2021-04-29T13:16:27Z</time>
      </trkpt>
      <trkpt lat="44.92284" lon="3.91911">
        <ele>896</ele>
        <time>2021-04-29T13:16:28Z</time>
      </trkpt>
      <trkpt lat="44.92279" lon="3.91915">
        <ele>896</ele>
        <time>2021-04-29T13:16:29Z</time>
      </trkpt>
      <trkpt lat="44.92271" lon="3.91917">
        <ele>895</ele>
        <time>2021-04-29T13:16:30Z</time>
      </trkpt>
      <trkpt lat="44.92268" lon="3.91916">
        <ele>895</ele>
        <time>2021-04-29T13:16:32Z</time>
      </trkpt>
      <trkpt lat="44.92265" lon="3.91916">
        <ele>895</ele>
        <time>2021-04-29T13:16:33Z</time>
      </trkpt>
      <trkpt lat="44.92262" lon="3.91916">
        <ele>895</ele>
        <time>2021-04-29T13:16:34Z</time>
      </trkpt>
      <trkpt lat="44.9226" lon="3.91916">
        <ele>895</ele>
        <time>2021-04-29T13:16:35Z</time>
      </trkpt>
      <trkpt lat="44.92256" lon="3.91914">
        <ele>894</ele>
        <time>2021-04-29T13:16:36Z</time>
      </trkpt>
      <trkpt lat="44.92253" lon="3.91913">
        <ele>894</ele>
        <time>2021-04-29T13:16:37Z</time>
      </trkpt>
      <trkpt lat="44.92249" lon="3.9191">
        <ele>894</ele>
        <time>2021-04-29T13:16:38Z</time>
      </trkpt>
      <trkpt lat="44.92244" lon="3.91907">
        <ele>894</ele>
        <time>2021-04-29T13:16:39Z</time>
      </trkpt>
      <trkpt lat="44.92239" lon="3.91904">
        <ele>894</ele>
        <time>2021-04-29T13:16:40Z</time>
      </trkpt>
      <trkpt lat="44.92234" lon="3.919">
        <ele>893</ele>
        <time>2021-04-29T13:16:41Z</time>
      </trkpt>
      <trkpt lat="44.9223" lon="3.91897">
        <ele>893</ele>
        <time>2021-04-29T13:16:42Z</time>
      </trkpt>
      <trkpt lat="44.92225" lon="3.91894">
        <ele>893</ele>
        <time>2021-04-29T13:16:43Z</time>
      </trkpt>
      <trkpt lat="44.92219" lon="3.91894">
        <ele>893</ele>
        <time>2021-04-29T13:16:44Z</time>
      </trkpt>
      <trkpt lat="44.92214" lon="3.91894">
        <ele>892</ele>
        <time>2021-04-29T13:16:45Z</time>
      </trkpt>
      <trkpt lat="44.92209" lon="3.91895">
        <ele>892</ele>
        <time>2021-04-29T13:16:46Z</time>
      </trkpt>
      <trkpt lat="44.92204" lon="3.91895">
        <ele>892</ele>
        <time>2021-04-29T13:16:47Z</time>
      </trkpt>
      <trkpt lat="44.92199" lon="3.91896">
        <ele>891</ele>
        <time>2021-04-29T13:16:48Z</time>
      </trkpt>
      <trkpt lat="44.92194" lon="3.91897">
        <ele>891</ele>
        <time>2021-04-29T13:16:49Z</time>
      </trkpt>
      <trkpt lat="44.9219" lon="3.91897">
        <ele>891</ele>
        <time>2021-04-29T13:16:50Z</time>
      </trkpt>
      <trkpt lat="44.92186" lon="3.91896">
        <ele>890</ele>
        <time>2021-04-29T13:16:51Z</time>
      </trkpt>
      <trkpt lat="44.92183" lon="3.91896">
        <ele>889</ele>
        <time>2021-04-29T13:16:52Z</time>
      </trkpt>
      <trkpt lat="44.92179" lon="3.91897">
        <ele>888</ele>
        <time>2021-04-29T13:16:53Z</time>
      </trkpt>
      <trkpt lat="44.92175" lon="3.91898">
        <ele>887</ele>
        <time>2021-04-29T13:16:54Z</time>
      </trkpt>
      <trkpt lat="44.92169" lon="3.919">
        <ele>886</ele>
        <time>2021-04-29T13:16:55Z</time>
      </trkpt>
      <trkpt lat="44.92166" lon="3.91901">
        <ele>885</ele>
        <time>2021-04-29T13:16:56Z</time>
      </trkpt>
      <trkpt lat="44.92165" lon="3.91905">
        <ele>883</ele>
        <time>2021-04-29T13:17:01Z</time>
      </trkpt>
      <trkpt lat="44.92162" lon="3.91907">
        <ele>878</ele>
        <time>2021-04-29T13:17:06Z</time>
      </trkpt>
      <trkpt lat="44.9216" lon="3.91907">
        <ele>878</ele>
        <time>2021-04-29T13:17:07Z</time>
      </trkpt>
      <trkpt lat="44.92153" lon="3.9191">
        <ele>878</ele>
        <time>2021-04-29T13:17:08Z</time>
      </trkpt>
      <trkpt lat="44.9215" lon="3.91911">
        <ele>877</ele>
        <time>2021-04-29T13:17:10Z</time>
      </trkpt>
      <trkpt lat="44.92146" lon="3.91912">
        <ele>876</ele>
        <time>2021-04-29T13:17:11Z</time>
      </trkpt>
      <trkpt lat="44.92143" lon="3.91914">
        <ele>876</ele>
        <time>2021-04-29T13:17:12Z</time>
      </trkpt>
      <trkpt lat="44.92139" lon="3.91919">
        <ele>876</ele>
        <time>2021-04-29T13:17:13Z</time>
      </trkpt>
      <trkpt lat="44.92135" lon="3.91923">
        <ele>875</ele>
        <time>2021-04-29T13:17:14Z</time>
      </trkpt>
      <trkpt lat="44.92131" lon="3.91928">
        <ele>874</ele>
        <time>2021-04-29T13:17:15Z</time>
      </trkpt>
      <trkpt lat="44.92126" lon="3.91935">
        <ele>874</ele>
        <time>2021-04-29T13:17:16Z</time>
      </trkpt>
      <trkpt lat="44.92121" lon="3.91939">
        <ele>873</ele>
        <time>2021-04-29T13:17:17Z</time>
      </trkpt>
      <trkpt lat="44.92117" lon="3.91942">
        <ele>873</ele>
        <time>2021-04-29T13:17:18Z</time>
      </trkpt>
      <trkpt lat="44.92112" lon="3.91945">
        <ele>873</ele>
        <time>2021-04-29T13:17:19Z</time>
      </trkpt>
      <trkpt lat="44.92107" lon="3.91948">
        <ele>872</ele>
        <time>2021-04-29T13:17:20Z</time>
      </trkpt>
      <trkpt lat="44.92103" lon="3.9195">
        <ele>872</ele>
        <time>2021-04-29T13:17:21Z</time>
      </trkpt>
      <trkpt lat="44.92098" lon="3.91953">
        <ele>872</ele>
        <time>2021-04-29T13:17:22Z</time>
      </trkpt>
      <trkpt lat="44.92092" lon="3.91954">
        <ele>872</ele>
        <time>2021-04-29T13:17:23Z</time>
      </trkpt>
      <trkpt lat="44.92083" lon="3.91957">
        <ele>871</ele>
        <time>2021-04-29T13:17:25Z</time>
      </trkpt>
      <trkpt lat="44.92075" lon="3.91959">
        <ele>870</ele>
        <time>2021-04-29T13:17:30Z</time>
      </trkpt>
      <trkpt lat="44.92071" lon="3.91959">
        <ele>868</ele>
        <time>2021-04-29T13:17:55Z</time>
      </trkpt>
      <trkpt lat="44.92059" lon="3.91959">
        <ele>867</ele>
        <time>2021-04-29T13:17:59Z</time>
      </trkpt>
      <trkpt lat="44.92055" lon="3.9196">
        <ele>867</ele>
        <time>2021-04-29T13:18:00Z</time>
      </trkpt>
      <trkpt lat="44.92052" lon="3.91961">
        <ele>866</ele>
        <time>2021-04-29T13:18:01Z</time>
      </trkpt>
      <trkpt lat="44.92049" lon="3.91961">
        <ele>866</ele>
        <time>2021-04-29T13:18:02Z</time>
      </trkpt>
      <trkpt lat="44.92047" lon="3.91959">
        <ele>865</ele>
        <time>2021-04-29T13:18:03Z</time>
      </trkpt>
      <trkpt lat="44.92035" lon="3.91962">
        <ele>857</ele>
        <time>2021-04-29T13:18:15Z</time>
      </trkpt>
      <trkpt lat="44.92032" lon="3.91964">
        <ele>856</ele>
        <time>2021-04-29T13:18:17Z</time>
      </trkpt>
      <trkpt lat="44.9203" lon="3.91966">
        <ele>856</ele>
        <time>2021-04-29T13:18:18Z</time>
      </trkpt>
      <trkpt lat="44.92028" lon="3.91967">
        <ele>856</ele>
        <time>2021-04-29T13:18:19Z</time>
      </trkpt>
      <trkpt lat="44.92019" lon="3.91962">
        <ele>855</ele>
        <time>2021-04-29T13:18:21Z</time>
      </trkpt>
      <trkpt lat="44.92014" lon="3.91961">
        <ele>855</ele>
        <time>2021-04-29T13:18:22Z</time>
      </trkpt>
      <trkpt lat="44.92009" lon="3.91961">
        <ele>854</ele>
        <time>2021-04-29T13:18:23Z</time>
      </trkpt>
      <trkpt lat="44.92004" lon="3.91962">
        <ele>853</ele>
        <time>2021-04-29T13:18:24Z</time>
      </trkpt>
      <trkpt lat="44.91999" lon="3.91964">
        <ele>853</ele>
        <time>2021-04-29T13:18:25Z</time>
      </trkpt>
      <trkpt lat="44.91995" lon="3.91964">
        <ele>853</ele>
        <time>2021-04-29T13:18:26Z</time>
      </trkpt>
      <trkpt lat="44.91991" lon="3.91963">
        <ele>852</ele>
        <time>2021-04-29T13:18:27Z</time>
      </trkpt>
      <trkpt lat="44.91979" lon="3.91964">
        <ele>851</ele>
        <time>2021-04-29T13:18:30Z</time>
      </trkpt>
      <trkpt lat="44.91969" lon="3.91964">
        <ele>850</ele>
        <time>2021-04-29T13:18:33Z</time>
      </trkpt>
      <trkpt lat="44.91959" lon="3.91966">
        <ele>850</ele>
        <time>2021-04-29T13:18:34Z</time>
      </trkpt>
      <trkpt lat="44.91948" lon="3.91966">
        <ele>849</ele>
        <time>2021-04-29T13:18:37Z</time>
      </trkpt>
      <trkpt lat="44.91937" lon="3.91965">
        <ele>849</ele>
        <time>2021-04-29T13:18:39Z</time>
      </trkpt>
      <trkpt lat="44.91927" lon="3.91961">
        <ele>848</ele>
        <time>2021-04-29T13:18:41Z</time>
      </trkpt>
      <trkpt lat="44.91918" lon="3.91959">
        <ele>847</ele>
        <time>2021-04-29T13:18:43Z</time>
      </trkpt>
      <trkpt lat="44.91908" lon="3.91956">
        <ele>847</ele>
        <time>2021-04-29T13:18:45Z</time>
      </trkpt>
      <trkpt lat="44.91899" lon="3.91953">
        <ele>846</ele>
        <time>2021-04-29T13:18:47Z</time>
      </trkpt>
      <trkpt lat="44.91888" lon="3.91948">
        <ele>845</ele>
        <time>2021-04-29T13:18:49Z</time>
      </trkpt>
      <trkpt lat="44.91874" lon="3.91943">
        <ele>845</ele>
        <time>2021-04-29T13:18:51Z</time>
      </trkpt>
      <trkpt lat="44.9186" lon="3.91945">
        <ele>844</ele>
        <time>2021-04-29T13:18:53Z</time>
      </trkpt>
      <trkpt lat="44.91848" lon="3.91949">
        <ele>843</ele>
        <time>2021-04-29T13:18:55Z</time>
      </trkpt>
      <trkpt lat="44.91835" lon="3.9195">
        <ele>841</ele>
        <time>2021-04-29T13:18:57Z</time>
      </trkpt>
      <trkpt lat="44.91822" lon="3.91948">
        <ele>839</ele>
        <time>2021-04-29T13:18:59Z</time>
      </trkpt>
      <trkpt lat="44.91812" lon="3.91948">
        <ele>837</ele>
        <time>2021-04-29T13:19:01Z</time>
      </trkpt>
      <trkpt lat="44.91802" lon="3.91955">
        <ele>833</ele>
        <time>2021-04-29T13:19:04Z</time>
      </trkpt>
      <trkpt lat="44.91791" lon="3.91942">
        <ele>831</ele>
        <time>2021-04-29T13:19:07Z</time>
      </trkpt>
      <trkpt lat="44.91785" lon="3.91927">
        <ele>829</ele>
        <time>2021-04-29T13:19:09Z</time>
      </trkpt>
      <trkpt lat="44.91774" lon="3.91911">
        <ele>826</ele>
        <time>2021-04-29T13:19:11Z</time>
      </trkpt>
      <trkpt lat="44.91766" lon="3.91899">
        <ele>825</ele>
        <time>2021-04-29T13:19:12Z</time>
      </trkpt>
      <trkpt lat="44.91756" lon="3.91888">
        <ele>821</ele>
        <time>2021-04-29T13:19:16Z</time>
      </trkpt>
      <trkpt lat="44.91746" lon="3.91882">
        <ele>819</ele>
        <time>2021-04-29T13:19:18Z</time>
      </trkpt>
      <trkpt lat="44.91739" lon="3.91874">
        <ele>817</ele>
        <time>2021-04-29T13:19:20Z</time>
      </trkpt>
      <trkpt lat="44.91735" lon="3.91862">
        <ele>811</ele>
        <time>2021-04-29T13:19:24Z</time>
      </trkpt>
      <trkpt lat="44.91736" lon="3.91858">
        <ele>807</ele>
        <time>2021-04-29T13:19:31Z</time>
      </trkpt>
      <trkpt lat="44.91738" lon="3.9186">
        <ele>799</ele>
        <time>2021-04-29T13:19:57Z</time>
      </trkpt>
      <trkpt lat="44.91738" lon="3.9186">
        <ele>799</ele>
        <time>2021-04-29T13:20:01Z</time>
      </trkpt>
      <trkpt lat="44.91738" lon="3.91858">
        <ele>799</ele>
        <time>2021-04-29T13:20:17Z</time>
      </trkpt>
      <trkpt lat="44.91738" lon="3.91858">
        <ele>799</ele>
        <time>2021-04-29T13:20:18Z</time>
      </trkpt>
      <trkpt lat="44.91742" lon="3.91857">
        <ele>795</ele>
        <time>2021-04-29T13:20:51Z</time>
      </trkpt>
      <trkpt lat="44.91748" lon="3.91855">
        <ele>794</ele>
        <time>2021-04-29T13:20:52Z</time>
      </trkpt>
      <trkpt lat="44.91752" lon="3.91855">
        <ele>794</ele>
        <time>2021-04-29T13:20:54Z</time>
      </trkpt>
      <trkpt lat="44.91755" lon="3.91855">
        <ele>794</ele>
        <time>2021-04-29T13:20:55Z</time>
      </trkpt>
      <trkpt lat="44.91756" lon="3.91854">
        <ele>791</ele>
        <time>2021-04-29T13:21:00Z</time>
      </trkpt>
      <trkpt lat="44.91759" lon="3.91856">
        <ele>788</ele>
        <time>2021-04-29T13:23:15Z</time>
      </trkpt>
      <trkpt lat="44.91761" lon="3.91854">
        <ele>787</ele>
        <time>2021-04-29T13:23:27Z</time>
      </trkpt>
      <trkpt lat="44.91761" lon="3.91853">
        <ele>787</ele>
        <time>2021-04-29T13:23:30Z</time>
      </trkpt>
      <trkpt lat="44.9176" lon="3.91855">
        <ele>784</ele>
        <time>2021-04-29T13:25:11Z</time>
      </trkpt>
      <trkpt lat="44.91765" lon="3.9186">
        <ele>781</ele>
        <time>2021-04-29T13:25:49Z</time>
      </trkpt>
      <trkpt lat="44.91767" lon="3.91859">
        <ele>781</ele>
        <time>2021-04-29T13:25:50Z</time>
      </trkpt>
      <trkpt lat="44.91769" lon="3.91857">
        <ele>781</ele>
        <time>2021-04-29T13:25:54Z</time>
      </trkpt>
      <trkpt lat="44.91772" lon="3.91856">
        <ele>780</ele>
        <time>2021-04-29T13:25:56Z</time>
      </trkpt>
      <trkpt lat="44.91775" lon="3.91855">
        <ele>780</ele>
        <time>2021-04-29T13:25:58Z</time>
      </trkpt>
      <trkpt lat="44.91778" lon="3.91855">
        <ele>780</ele>
        <time>2021-04-29T13:25:59Z</time>
      </trkpt>
      <trkpt lat="44.91781" lon="3.91856">
        <ele>780</ele>
        <time>2021-04-29T13:26:01Z</time>
      </trkpt>
      <trkpt lat="44.91783" lon="3.91857">
        <ele>780</ele>
        <time>2021-04-29T13:26:02Z</time>
      </trkpt>
      <trkpt lat="44.91785" lon="3.91857">
        <ele>779</ele>
        <time>2021-04-29T13:26:03Z</time>
      </trkpt>
      <trkpt lat="44.91787" lon="3.91857">
        <ele>779</ele>
        <time>2021-04-29T13:26:04Z</time>
      </trkpt>
      <trkpt lat="44.91789" lon="3.91856">
        <ele>779</ele>
        <time>2021-04-29T13:26:05Z</time>
      </trkpt>
      <trkpt lat="44.91791" lon="3.91854">
        <ele>779</ele>
        <time>2021-04-29T13:26:06Z</time>
      </trkpt>
      <trkpt lat="44.91794" lon="3.91852">
        <ele>779</ele>
        <time>2021-04-29T13:26:07Z</time>
      </trkpt>
      <trkpt lat="44.91796" lon="3.9185">
        <ele>778</ele>
        <time>2021-04-29T13:26:08Z</time>
      </trkpt>
      <trkpt lat="44.91799" lon="3.91849">
        <ele>778</ele>
        <time>2021-04-29T13:26:09Z</time>
      </trkpt>
      <trkpt lat="44.91801" lon="3.91847">
        <ele>778</ele>
        <time>2021-04-29T13:26:10Z</time>
      </trkpt>
      <trkpt lat="44.91803" lon="3.91844">
        <ele>778</ele>
        <time>2021-04-29T13:26:11Z</time>
      </trkpt>
      <trkpt lat="44.91805" lon="3.91842">
        <ele>778</ele>
        <time>2021-04-29T13:26:12Z</time>
      </trkpt>
      <trkpt lat="44.91807" lon="3.9184">
        <ele>777</ele>
        <time>2021-04-29T13:26:13Z</time>
      </trkpt>
      <trkpt lat="44.9181" lon="3.91836">
        <ele>777</ele>
        <time>2021-04-29T13:26:15Z</time>
      </trkpt>
      <trkpt lat="44.91812" lon="3.91834">
        <ele>776</ele>
        <time>2021-04-29T13:26:16Z</time>
      </trkpt>
      <trkpt lat="44.91814" lon="3.91833">
        <ele>776</ele>
        <time>2021-04-29T13:26:17Z</time>
      </trkpt>
      <trkpt lat="44.91817" lon="3.91832">
        <ele>776</ele>
        <time>2021-04-29T13:26:18Z</time>
      </trkpt>
      <trkpt lat="44.9182" lon="3.91831">
        <ele>776</ele>
        <time>2021-04-29T13:26:19Z</time>
      </trkpt>
      <trkpt lat="44.91823" lon="3.91831">
        <ele>776</ele>
        <time>2021-04-29T13:26:20Z</time>
      </trkpt>
      <trkpt lat="44.91826" lon="3.91831">
        <ele>775</ele>
        <time>2021-04-29T13:26:21Z</time>
      </trkpt>
      <trkpt lat="44.91828" lon="3.91831">
        <ele>775</ele>
        <time>2021-04-29T13:26:22Z</time>
      </trkpt>
      <trkpt lat="44.91832" lon="3.91832">
        <ele>775</ele>
        <time>2021-04-29T13:26:24Z</time>
      </trkpt>
      <trkpt lat="44.91834" lon="3.91832">
        <ele>775</ele>
        <time>2021-04-29T13:26:25Z</time>
      </trkpt>
      <trkpt lat="44.91844" lon="3.9183">
        <ele>775</ele>
        <time>2021-04-29T13:26:28Z</time>
      </trkpt>
      <trkpt lat="44.91854" lon="3.91827">
        <ele>774</ele>
        <time>2021-04-29T13:26:33Z</time>
      </trkpt>
      <trkpt lat="44.91858" lon="3.91826">
        <ele>774</ele>
        <time>2021-04-29T13:26:35Z</time>
      </trkpt>
      <trkpt lat="44.9186" lon="3.91825">
        <ele>774</ele>
        <time>2021-04-29T13:26:36Z</time>
      </trkpt>
      <trkpt lat="44.91868" lon="3.91824">
        <ele>774</ele>
        <time>2021-04-29T13:26:39Z</time>
      </trkpt>
      <trkpt lat="44.91872" lon="3.91824">
        <ele>774</ele>
        <time>2021-04-29T13:26:41Z</time>
      </trkpt>
      <trkpt lat="44.91876" lon="3.91824">
        <ele>774</ele>
        <time>2021-04-29T13:26:43Z</time>
      </trkpt>
      <trkpt lat="44.91884" lon="3.91829">
        <ele>774</ele>
        <time>2021-04-29T13:29:06Z</time>
      </trkpt>
      <trkpt lat="44.91885" lon="3.91829">
        <ele>772</ele>
        <time>2021-04-29T13:45:13Z</time>
      </trkpt>
      <trkpt lat="44.91887" lon="3.9183">
        <ele>771</ele>
        <time>2021-04-29T13:45:16Z</time>
      </trkpt>
      <trkpt lat="44.91892" lon="3.9183">
        <ele>770</ele>
        <time>2021-04-29T13:45:31Z</time>
      </trkpt>
      <trkpt lat="44.91895" lon="3.91829">
        <ele>770</ele>
        <time>2021-04-29T13:45:32Z</time>
      </trkpt>
      <trkpt lat="44.91898" lon="3.91828">
        <ele>769</ele>
        <time>2021-04-29T13:45:33Z</time>
      </trkpt>
      <trkpt lat="44.91902" lon="3.91828">
        <ele>769</ele>
        <time>2021-04-29T13:45:34Z</time>
      </trkpt>
      <trkpt lat="44.91906" lon="3.91828">
        <ele>768</ele>
        <time>2021-04-29T13:45:35Z</time>
      </trkpt>
      <trkpt lat="44.91909" lon="3.91828">
        <ele>768</ele>
        <time>2021-04-29T13:45:36Z</time>
      </trkpt>
      <trkpt lat="44.91911" lon="3.91829">
        <ele>768</ele>
        <time>2021-04-29T13:45:37Z</time>
      </trkpt>
      <trkpt lat="44.91914" lon="3.91829">
        <ele>768</ele>
        <time>2021-04-29T13:45:38Z</time>
      </trkpt>
      <trkpt lat="44.91916" lon="3.91829">
        <ele>768</ele>
        <time>2021-04-29T13:45:39Z</time>
      </trkpt>
      <trkpt lat="44.91918" lon="3.9183">
        <ele>768</ele>
        <time>2021-04-29T13:45:40Z</time>
      </trkpt>
      <trkpt lat="44.9192" lon="3.9183">
        <ele>768</ele>
        <time>2021-04-29T13:45:41Z</time>
      </trkpt>
      <trkpt lat="44.91923" lon="3.91829">
        <ele>768</ele>
        <time>2021-04-29T13:45:42Z</time>
      </trkpt>
      <trkpt lat="44.91926" lon="3.91829">
        <ele>768</ele>
        <time>2021-04-29T13:45:43Z</time>
      </trkpt>
      <trkpt lat="44.91933" lon="3.91827">
        <ele>768</ele>
        <time>2021-04-29T13:45:45Z</time>
      </trkpt>
      <trkpt lat="44.91936" lon="3.91826">
        <ele>767</ele>
        <time>2021-04-29T13:45:46Z</time>
      </trkpt>
      <trkpt lat="44.91939" lon="3.91825">
        <ele>767</ele>
        <time>2021-04-29T13:45:47Z</time>
      </trkpt>
      <trkpt lat="44.91942" lon="3.91824">
        <ele>767</ele>
        <time>2021-04-29T13:45:48Z</time>
      </trkpt>
      <trkpt lat="44.91944" lon="3.91823">
        <ele>767</ele>
        <time>2021-04-29T13:45:49Z</time>
      </trkpt>
      <trkpt lat="44.91947" lon="3.91823">
        <ele>767</ele>
        <time>2021-04-29T13:45:50Z</time>
      </trkpt>
      <trkpt lat="44.91953" lon="3.91822">
        <ele>767</ele>
        <time>2021-04-29T13:45:51Z</time>
      </trkpt>
      <trkpt lat="44.91958" lon="3.91819">
        <ele>767</ele>
        <time>2021-04-29T13:45:53Z</time>
      </trkpt>
      <trkpt lat="44.91962" lon="3.91814">
        <ele>767</ele>
        <time>2021-04-29T13:45:54Z</time>
      </trkpt>
      <trkpt lat="44.91966" lon="3.91808">
        <ele>767</ele>
        <time>2021-04-29T13:45:55Z</time>
      </trkpt>
      <trkpt lat="44.91972" lon="3.91794">
        <ele>767</ele>
        <time>2021-04-29T13:45:57Z</time>
      </trkpt>
      <trkpt lat="44.91978" lon="3.9178">
        <ele>766</ele>
        <time>2021-04-29T13:45:59Z</time>
      </trkpt>
      <trkpt lat="44.91983" lon="3.91765">
        <ele>765</ele>
        <time>2021-04-29T13:46:01Z</time>
      </trkpt>
      <trkpt lat="44.91991" lon="3.91754">
        <ele>764</ele>
        <time>2021-04-29T13:46:03Z</time>
      </trkpt>
      <trkpt lat="44.91994" lon="3.91748">
        <ele>764</ele>
        <time>2021-04-29T13:46:04Z</time>
      </trkpt>
      <trkpt lat="44.92001" lon="3.91737">
        <ele>763</ele>
        <time>2021-04-29T13:46:06Z</time>
      </trkpt>
      <trkpt lat="44.92002" lon="3.91734">
        <ele>762</ele>
        <time>2021-04-29T13:46:07Z</time>
      </trkpt>
      <trkpt lat="44.92002" lon="3.91732">
        <ele>761</ele>
        <time>2021-04-29T13:46:14Z</time>
      </trkpt>
      <trkpt lat="44.92001" lon="3.91736">
        <ele>758</ele>
        <time>2021-04-29T13:46:47Z</time>
      </trkpt>
      <trkpt lat="44.92002" lon="3.91739">
        <ele>756</ele>
        <time>2021-04-29T13:46:52Z</time>
      </trkpt>
      <trkpt lat="44.92004" lon="3.91729">
        <ele>755</ele>
        <time>2021-04-29T13:47:01Z</time>
      </trkpt>
      <trkpt lat="44.92008" lon="3.91722">
        <ele>755</ele>
        <time>2021-04-29T13:47:02Z</time>
      </trkpt>
      <trkpt lat="44.92009" lon="3.91717">
        <ele>755</ele>
        <time>2021-04-29T13:47:04Z</time>
      </trkpt>
      <trkpt lat="44.9201" lon="3.91711">
        <ele>755</ele>
        <time>2021-04-29T13:47:05Z</time>
      </trkpt>
      <trkpt lat="44.92012" lon="3.91706">
        <ele>755</ele>
        <time>2021-04-29T13:47:06Z</time>
      </trkpt>
      <trkpt lat="44.92014" lon="3.91701">
        <ele>754</ele>
        <time>2021-04-29T13:47:07Z</time>
      </trkpt>
      <trkpt lat="44.92017" lon="3.91696">
        <ele>754</ele>
        <time>2021-04-29T13:47:08Z</time>
      </trkpt>
      <trkpt lat="44.92021" lon="3.91691">
        <ele>754</ele>
        <time>2021-04-29T13:47:09Z</time>
      </trkpt>
      <trkpt lat="44.92026" lon="3.91687">
        <ele>753</ele>
        <time>2021-04-29T13:47:10Z</time>
      </trkpt>
      <trkpt lat="44.92031" lon="3.91682">
        <ele>753</ele>
        <time>2021-04-29T13:47:11Z</time>
      </trkpt>
      <trkpt lat="44.92036" lon="3.91678">
        <ele>753</ele>
        <time>2021-04-29T13:47:12Z</time>
      </trkpt>
      <trkpt lat="44.9204" lon="3.91673">
        <ele>753</ele>
        <time>2021-04-29T13:47:13Z</time>
      </trkpt>
      <trkpt lat="44.92045" lon="3.91668">
        <ele>753</ele>
        <time>2021-04-29T13:47:14Z</time>
      </trkpt>
      <trkpt lat="44.92048" lon="3.91665">
        <ele>752</ele>
        <time>2021-04-29T13:47:15Z</time>
      </trkpt>
      <trkpt lat="44.92051" lon="3.9166">
        <ele>752</ele>
        <time>2021-04-29T13:47:16Z</time>
      </trkpt>
      <trkpt lat="44.92053" lon="3.91655">
        <ele>752</ele>
        <time>2021-04-29T13:47:17Z</time>
      </trkpt>
      <trkpt lat="44.92055" lon="3.9165">
        <ele>751</ele>
        <time>2021-04-29T13:47:18Z</time>
      </trkpt>
      <trkpt lat="44.92058" lon="3.91644">
        <ele>751</ele>
        <time>2021-04-29T13:47:19Z</time>
      </trkpt>
      <trkpt lat="44.92061" lon="3.91639">
        <ele>751</ele>
        <time>2021-04-29T13:47:20Z</time>
      </trkpt>
      <trkpt lat="44.92065" lon="3.91635">
        <ele>751</ele>
        <time>2021-04-29T13:47:21Z</time>
      </trkpt>
      <trkpt lat="44.92069" lon="3.91631">
        <ele>751</ele>
        <time>2021-04-29T13:47:22Z</time>
      </trkpt>
      <trkpt lat="44.92074" lon="3.9162">
        <ele>750</ele>
        <time>2021-04-29T13:47:23Z</time>
      </trkpt>
      <trkpt lat="44.92076" lon="3.91615">
        <ele>750</ele>
        <time>2021-04-29T13:47:25Z</time>
      </trkpt>
      <trkpt lat="44.92078" lon="3.9161">
        <ele>750</ele>
        <time>2021-04-29T13:47:26Z</time>
      </trkpt>
      <trkpt lat="44.92079" lon="3.91605">
        <ele>750</ele>
        <time>2021-04-29T13:47:27Z</time>
      </trkpt>
      <trkpt lat="44.92081" lon="3.91602">
        <ele>750</ele>
        <time>2021-04-29T13:47:28Z</time>
      </trkpt>
      <trkpt lat="44.92083" lon="3.91598">
        <ele>750</ele>
        <time>2021-04-29T13:47:29Z</time>
      </trkpt>
      <trkpt lat="44.92084" lon="3.91596">
        <ele>750</ele>
        <time>2021-04-29T13:47:30Z</time>
      </trkpt>
      <trkpt lat="44.92085" lon="3.91593">
        <ele>750</ele>
        <time>2021-04-29T13:47:32Z</time>
      </trkpt>
      <trkpt lat="44.92087" lon="3.91594">
        <ele>750</ele>
        <time>2021-04-29T13:47:39Z</time>
      </trkpt>
      <trkpt lat="44.92089" lon="3.91591">
        <ele>750</ele>
        <time>2021-04-29T13:50:36Z</time>
      </trkpt>
      <trkpt lat="44.9209" lon="3.91587">
        <ele>752</ele>
        <time>2021-04-29T14:04:18Z</time>
      </trkpt>
      <trkpt lat="44.92092" lon="3.91583">
        <ele>752</ele>
        <time>2021-04-29T14:04:19Z</time>
      </trkpt>
      <trkpt lat="44.92093" lon="3.9158">
        <ele>752</ele>
        <time>2021-04-29T14:04:21Z</time>
      </trkpt>
      <trkpt lat="44.92095" lon="3.91577">
        <ele>752</ele>
        <time>2021-04-29T14:04:22Z</time>
      </trkpt>
      <trkpt lat="44.92097" lon="3.91574">
        <ele>752</ele>
        <time>2021-04-29T14:04:23Z</time>
      </trkpt>
      <trkpt lat="44.92099" lon="3.91571">
        <ele>752</ele>
        <time>2021-04-29T14:04:24Z</time>
      </trkpt>
      <trkpt lat="44.92101" lon="3.91567">
        <ele>751</ele>
        <time>2021-04-29T14:04:25Z</time>
      </trkpt>
      <trkpt lat="44.92103" lon="3.91563">
        <ele>751</ele>
        <time>2021-04-29T14:04:26Z</time>
      </trkpt>
      <trkpt lat="44.92105" lon="3.91558">
        <ele>751</ele>
        <time>2021-04-29T14:04:27Z</time>
      </trkpt>
      <trkpt lat="44.92107" lon="3.91555">
        <ele>751</ele>
        <time>2021-04-29T14:04:28Z</time>
      </trkpt>
      <trkpt lat="44.9211" lon="3.91551">
        <ele>751</ele>
        <time>2021-04-29T14:04:29Z</time>
      </trkpt>
      <trkpt lat="44.92112" lon="3.91548">
        <ele>751</ele>
        <time>2021-04-29T14:04:30Z</time>
      </trkpt>
      <trkpt lat="44.92114" lon="3.91545">
        <ele>751</ele>
        <time>2021-04-29T14:04:31Z</time>
      </trkpt>
      <trkpt lat="44.92117" lon="3.91543">
        <ele>751</ele>
        <time>2021-04-29T14:04:32Z</time>
      </trkpt>
      <trkpt lat="44.92119" lon="3.9154">
        <ele>751</ele>
        <time>2021-04-29T14:04:33Z</time>
      </trkpt>
      <trkpt lat="44.92122" lon="3.91538">
        <ele>750</ele>
        <time>2021-04-29T14:04:34Z</time>
      </trkpt>
      <trkpt lat="44.92124" lon="3.91534">
        <ele>751</ele>
        <time>2021-04-29T14:04:35Z</time>
      </trkpt>
      <trkpt lat="44.92127" lon="3.9153">
        <ele>750</ele>
        <time>2021-04-29T14:04:36Z</time>
      </trkpt>
      <trkpt lat="44.9213" lon="3.91527">
        <ele>751</ele>
        <time>2021-04-29T14:04:37Z</time>
      </trkpt>
      <trkpt lat="44.92135" lon="3.9152">
        <ele>751</ele>
        <time>2021-04-29T14:04:38Z</time>
      </trkpt>
      <trkpt lat="44.92137" lon="3.91517">
        <ele>751</ele>
        <time>2021-04-29T14:04:40Z</time>
      </trkpt>
      <trkpt lat="44.92139" lon="3.91514">
        <ele>751</ele>
        <time>2021-04-29T14:04:41Z</time>
      </trkpt>
      <trkpt lat="44.92141" lon="3.91511">
        <ele>751</ele>
        <time>2021-04-29T14:04:42Z</time>
      </trkpt>
      <trkpt lat="44.92143" lon="3.91508">
        <ele>751</ele>
        <time>2021-04-29T14:04:43Z</time>
      </trkpt>
      <trkpt lat="44.92145" lon="3.91505">
        <ele>751</ele>
        <time>2021-04-29T14:04:44Z</time>
      </trkpt>
      <trkpt lat="44.92147" lon="3.91503">
        <ele>751</ele>
        <time>2021-04-29T14:04:45Z</time>
      </trkpt>
      <trkpt lat="44.92149" lon="3.915">
        <ele>751</ele>
        <time>2021-04-29T14:04:46Z</time>
      </trkpt>
      <trkpt lat="44.92152" lon="3.91497">
        <ele>751</ele>
        <time>2021-04-29T14:04:47Z</time>
      </trkpt>
      <trkpt lat="44.92155" lon="3.91494">
        <ele>751</ele>
        <time>2021-04-29T14:04:48Z</time>
      </trkpt>
      <trkpt lat="44.92157" lon="3.9149">
        <ele>751</ele>
        <time>2021-04-29T14:04:49Z</time>
      </trkpt>
      <trkpt lat="44.9216" lon="3.91487">
        <ele>751</ele>
        <time>2021-04-29T14:04:50Z</time>
      </trkpt>
      <trkpt lat="44.92162" lon="3.91484">
        <ele>751</ele>
        <time>2021-04-29T14:04:51Z</time>
      </trkpt>
      <trkpt lat="44.92165" lon="3.91481">
        <ele>751</ele>
        <time>2021-04-29T14:04:52Z</time>
      </trkpt>
      <trkpt lat="44.92168" lon="3.91478">
        <ele>751</ele>
        <time>2021-04-29T14:04:53Z</time>
      </trkpt>
      <trkpt lat="44.9217" lon="3.91475">
        <ele>751</ele>
        <time>2021-04-29T14:04:54Z</time>
      </trkpt>
      <trkpt lat="44.92172" lon="3.91471">
        <ele>751</ele>
        <time>2021-04-29T14:04:55Z</time>
      </trkpt>
      <trkpt lat="44.92174" lon="3.91468">
        <ele>752</ele>
        <time>2021-04-29T14:04:56Z</time>
      </trkpt>
      <trkpt lat="44.92176" lon="3.91466">
        <ele>751</ele>
        <time>2021-04-29T14:04:57Z</time>
      </trkpt>
      <trkpt lat="44.92177" lon="3.91463">
        <ele>751</ele>
        <time>2021-04-29T14:04:58Z</time>
      </trkpt>
      <trkpt lat="44.92179" lon="3.9146">
        <ele>751</ele>
        <time>2021-04-29T14:04:59Z</time>
      </trkpt>
      <trkpt lat="44.9218" lon="3.91456">
        <ele>751</ele>
        <time>2021-04-29T14:05:00Z</time>
      </trkpt>
      <trkpt lat="44.92181" lon="3.91452">
        <ele>751</ele>
        <time>2021-04-29T14:05:01Z</time>
      </trkpt>
      <trkpt lat="44.92182" lon="3.91449">
        <ele>752</ele>
        <time>2021-04-29T14:05:02Z</time>
      </trkpt>
      <trkpt lat="44.92183" lon="3.91446">
        <ele>752</ele>
        <time>2021-04-29T14:05:03Z</time>
      </trkpt>
      <trkpt lat="44.92184" lon="3.91442">
        <ele>752</ele>
        <time>2021-04-29T14:05:04Z</time>
      </trkpt>
      <trkpt lat="44.92186" lon="3.91438">
        <ele>752</ele>
        <time>2021-04-29T14:05:05Z</time>
      </trkpt>
      <trkpt lat="44.92187" lon="3.91435">
        <ele>752</ele>
        <time>2021-04-29T14:05:06Z</time>
      </trkpt>
      <trkpt lat="44.92188" lon="3.91432">
        <ele>752</ele>
        <time>2021-04-29T14:05:07Z</time>
      </trkpt>
      <trkpt lat="44.9219" lon="3.91427">
        <ele>752</ele>
        <time>2021-04-29T14:05:08Z</time>
      </trkpt>
      <trkpt lat="44.92192" lon="3.91422">
        <ele>752</ele>
        <time>2021-04-29T14:05:09Z</time>
      </trkpt>
      <trkpt lat="44.92193" lon="3.91417">
        <ele>752</ele>
        <time>2021-04-29T14:05:10Z</time>
      </trkpt>
      <trkpt lat="44.92194" lon="3.91414">
        <ele>752</ele>
        <time>2021-04-29T14:05:11Z</time>
      </trkpt>
      <trkpt lat="44.92195" lon="3.91411">
        <ele>752</ele>
        <time>2021-04-29T14:05:12Z</time>
      </trkpt>
      <trkpt lat="44.92196" lon="3.91408">
        <ele>752</ele>
        <time>2021-04-29T14:05:13Z</time>
      </trkpt>
      <trkpt lat="44.92198" lon="3.91406">
        <ele>753</ele>
        <time>2021-04-29T14:05:14Z</time>
      </trkpt>
      <trkpt lat="44.92199" lon="3.91402">
        <ele>753</ele>
        <time>2021-04-29T14:05:15Z</time>
      </trkpt>
      <trkpt lat="44.92199" lon="3.91398">
        <ele>753</ele>
        <time>2021-04-29T14:05:16Z</time>
      </trkpt>
      <trkpt lat="44.922" lon="3.91394">
        <ele>753</ele>
        <time>2021-04-29T14:05:17Z</time>
      </trkpt>
      <trkpt lat="44.92201" lon="3.9139">
        <ele>753</ele>
        <time>2021-04-29T14:05:18Z</time>
      </trkpt>
      <trkpt lat="44.92202" lon="3.91387">
        <ele>753</ele>
        <time>2021-04-29T14:05:19Z</time>
      </trkpt>
      <trkpt lat="44.92202" lon="3.91384">
        <ele>753</ele>
        <time>2021-04-29T14:05:20Z</time>
      </trkpt>
      <trkpt lat="44.92203" lon="3.91381">
        <ele>754</ele>
        <time>2021-04-29T14:05:21Z</time>
      </trkpt>
      <trkpt lat="44.92204" lon="3.91377">
        <ele>754</ele>
        <time>2021-04-29T14:05:22Z</time>
      </trkpt>
      <trkpt lat="44.92206" lon="3.91374">
        <ele>754</ele>
        <time>2021-04-29T14:05:23Z</time>
      </trkpt>
      <trkpt lat="44.92207" lon="3.91371">
        <ele>754</ele>
        <time>2021-04-29T14:05:24Z</time>
      </trkpt>
      <trkpt lat="44.92208" lon="3.91367">
        <ele>754</ele>
        <time>2021-04-29T14:05:25Z</time>
      </trkpt>
      <trkpt lat="44.92209" lon="3.91363">
        <ele>754</ele>
        <time>2021-04-29T14:05:26Z</time>
      </trkpt>
      <trkpt lat="44.9221" lon="3.91359">
        <ele>754</ele>
        <time>2021-04-29T14:05:27Z</time>
      </trkpt>
      <trkpt lat="44.92212" lon="3.91356">
        <ele>754</ele>
        <time>2021-04-29T14:05:28Z</time>
      </trkpt>
      <trkpt lat="44.92213" lon="3.91352">
        <ele>754</ele>
        <time>2021-04-29T14:05:29Z</time>
      </trkpt>
      <trkpt lat="44.92215" lon="3.91348">
        <ele>754</ele>
        <time>2021-04-29T14:05:30Z</time>
      </trkpt>
      <trkpt lat="44.92216" lon="3.91345">
        <ele>754</ele>
        <time>2021-04-29T14:05:31Z</time>
      </trkpt>
      <trkpt lat="44.92218" lon="3.91341">
        <ele>754</ele>
        <time>2021-04-29T14:05:32Z</time>
      </trkpt>
      <trkpt lat="44.92219" lon="3.91337">
        <ele>754</ele>
        <time>2021-04-29T14:05:33Z</time>
      </trkpt>
      <trkpt lat="44.9222" lon="3.91334">
        <ele>755</ele>
        <time>2021-04-29T14:05:34Z</time>
      </trkpt>
      <trkpt lat="44.92224" lon="3.91326">
        <ele>755</ele>
        <time>2021-04-29T14:05:35Z</time>
      </trkpt>
      <trkpt lat="44.92225" lon="3.91322">
        <ele>755</ele>
        <time>2021-04-29T14:05:37Z</time>
      </trkpt>
      <trkpt lat="44.92228" lon="3.91313">
        <ele>755</ele>
        <time>2021-04-29T14:05:39Z</time>
      </trkpt>
      <trkpt lat="44.9223" lon="3.91308">
        <ele>755</ele>
        <time>2021-04-29T14:05:40Z</time>
      </trkpt>
      <trkpt lat="44.92232" lon="3.91304">
        <ele>755</ele>
        <time>2021-04-29T14:05:41Z</time>
      </trkpt>
      <trkpt lat="44.92233" lon="3.91299">
        <ele>755</ele>
        <time>2021-04-29T14:05:42Z</time>
      </trkpt>
      <trkpt lat="44.92235" lon="3.91295">
        <ele>755</ele>
        <time>2021-04-29T14:05:43Z</time>
      </trkpt>
      <trkpt lat="44.92236" lon="3.91291">
        <ele>755</ele>
        <time>2021-04-29T14:05:44Z</time>
      </trkpt>
      <trkpt lat="44.92237" lon="3.91287">
        <ele>756</ele>
        <time>2021-04-29T14:05:45Z</time>
      </trkpt>
      <trkpt lat="44.92238" lon="3.91284">
        <ele>756</ele>
        <time>2021-04-29T14:05:46Z</time>
      </trkpt>
      <trkpt lat="44.92239" lon="3.9128">
        <ele>756</ele>
        <time>2021-04-29T14:05:47Z</time>
      </trkpt>
      <trkpt lat="44.9224" lon="3.91275">
        <ele>756</ele>
        <time>2021-04-29T14:05:48Z</time>
      </trkpt>
      <trkpt lat="44.92241" lon="3.9127">
        <ele>756</ele>
        <time>2021-04-29T14:05:49Z</time>
      </trkpt>
      <trkpt lat="44.92242" lon="3.91265">
        <ele>757</ele>
        <time>2021-04-29T14:05:50Z</time>
      </trkpt>
      <trkpt lat="44.92243" lon="3.9126">
        <ele>757</ele>
        <time>2021-04-29T14:05:51Z</time>
      </trkpt>
      <trkpt lat="44.92244" lon="3.91256">
        <ele>757</ele>
        <time>2021-04-29T14:05:52Z</time>
      </trkpt>
      <trkpt lat="44.92244" lon="3.91252">
        <ele>757</ele>
        <time>2021-04-29T14:05:53Z</time>
      </trkpt>
      <trkpt lat="44.92246" lon="3.91242">
        <ele>758</ele>
        <time>2021-04-29T14:05:54Z</time>
      </trkpt>
      <trkpt lat="44.92248" lon="3.91237">
        <ele>758</ele>
        <time>2021-04-29T14:05:56Z</time>
      </trkpt>
      <trkpt lat="44.9225" lon="3.91233">
        <ele>758</ele>
        <time>2021-04-29T14:05:57Z</time>
      </trkpt>
      <trkpt lat="44.92252" lon="3.91228">
        <ele>758</ele>
        <time>2021-04-29T14:05:58Z</time>
      </trkpt>
      <trkpt lat="44.92254" lon="3.91225">
        <ele>759</ele>
        <time>2021-04-29T14:05:59Z</time>
      </trkpt>
      <trkpt lat="44.92257" lon="3.91221">
        <ele>759</ele>
        <time>2021-04-29T14:06:00Z</time>
      </trkpt>
      <trkpt lat="44.92259" lon="3.91219">
        <ele>759</ele>
        <time>2021-04-29T14:06:01Z</time>
      </trkpt>
      <trkpt lat="44.92261" lon="3.91216">
        <ele>759</ele>
        <time>2021-04-29T14:06:02Z</time>
      </trkpt>
      <trkpt lat="44.92263" lon="3.91213">
        <ele>760</ele>
        <time>2021-04-29T14:06:03Z</time>
      </trkpt>
      <trkpt lat="44.92266" lon="3.91211">
        <ele>760</ele>
        <time>2021-04-29T14:06:04Z</time>
      </trkpt>
      <trkpt lat="44.92268" lon="3.91208">
        <ele>760</ele>
        <time>2021-04-29T14:06:05Z</time>
      </trkpt>
      <trkpt lat="44.9227" lon="3.91206">
        <ele>760</ele>
        <time>2021-04-29T14:06:06Z</time>
      </trkpt>
      <trkpt lat="44.92272" lon="3.91203">
        <ele>761</ele>
        <time>2021-04-29T14:06:07Z</time>
      </trkpt>
      <trkpt lat="44.92273" lon="3.912">
        <ele>761</ele>
        <time>2021-04-29T14:06:08Z</time>
      </trkpt>
      <trkpt lat="44.92278" lon="3.91193">
        <ele>761</ele>
        <time>2021-04-29T14:06:10Z</time>
      </trkpt>
      <trkpt lat="44.9228" lon="3.9119">
        <ele>762</ele>
        <time>2021-04-29T14:06:11Z</time>
      </trkpt>
      <trkpt lat="44.92283" lon="3.91184">
        <ele>762</ele>
        <time>2021-04-29T14:06:13Z</time>
      </trkpt>
      <trkpt lat="44.92284" lon="3.91179">
        <ele>763</ele>
        <time>2021-04-29T14:06:15Z</time>
      </trkpt>
      <trkpt lat="44.92285" lon="3.91176">
        <ele>764</ele>
        <time>2021-04-29T14:06:16Z</time>
      </trkpt>
      <trkpt lat="44.92287" lon="3.91173">
        <ele>764</ele>
        <time>2021-04-29T14:06:17Z</time>
      </trkpt>
      <trkpt lat="44.92288" lon="3.91171">
        <ele>765</ele>
        <time>2021-04-29T14:06:18Z</time>
      </trkpt>
      <trkpt lat="44.9229" lon="3.91168">
        <ele>765</ele>
        <time>2021-04-29T14:06:19Z</time>
      </trkpt>
      <trkpt lat="44.92292" lon="3.91166">
        <ele>765</ele>
        <time>2021-04-29T14:06:20Z</time>
      </trkpt>
      <trkpt lat="44.92295" lon="3.91162">
        <ele>766</ele>
        <time>2021-04-29T14:06:22Z</time>
      </trkpt>
      <trkpt lat="44.92298" lon="3.91156">
        <ele>766</ele>
        <time>2021-04-29T14:06:24Z</time>
      </trkpt>
      <trkpt lat="44.92298" lon="3.91153">
        <ele>767</ele>
        <time>2021-04-29T14:06:25Z</time>
      </trkpt>
      <trkpt lat="44.92298" lon="3.91146">
        <ele>768</ele>
        <time>2021-04-29T14:06:27Z</time>
      </trkpt>
      <trkpt lat="44.92296" lon="3.91131">
        <ele>769</ele>
        <time>2021-04-29T14:06:31Z</time>
      </trkpt>
      <trkpt lat="44.92295" lon="3.91122">
        <ele>770</ele>
        <time>2021-04-29T14:06:32Z</time>
      </trkpt>
      <trkpt lat="44.92294" lon="3.91118">
        <ele>771</ele>
        <time>2021-04-29T14:06:34Z</time>
      </trkpt>
      <trkpt lat="44.92293" lon="3.91114">
        <ele>771</ele>
        <time>2021-04-29T14:06:35Z</time>
      </trkpt>
      <trkpt lat="44.92293" lon="3.9111">
        <ele>771</ele>
        <time>2021-04-29T14:06:36Z</time>
      </trkpt>
      <trkpt lat="44.92292" lon="3.91106">
        <ele>772</ele>
        <time>2021-04-29T14:06:37Z</time>
      </trkpt>
      <trkpt lat="44.92292" lon="3.91103">
        <ele>772</ele>
        <time>2021-04-29T14:06:38Z</time>
      </trkpt>
      <trkpt lat="44.92291" lon="3.911">
        <ele>772</ele>
        <time>2021-04-29T14:06:39Z</time>
      </trkpt>
      <trkpt lat="44.92291" lon="3.91096">
        <ele>773</ele>
        <time>2021-04-29T14:06:41Z</time>
      </trkpt>
      <trkpt lat="44.9229" lon="3.91093">
        <ele>773</ele>
        <time>2021-04-29T14:06:42Z</time>
      </trkpt>
      <trkpt lat="44.92289" lon="3.91089">
        <ele>774</ele>
        <time>2021-04-29T14:06:43Z</time>
      </trkpt>
      <trkpt lat="44.92285" lon="3.91082">
        <ele>774</ele>
        <time>2021-04-29T14:06:44Z</time>
      </trkpt>
      <trkpt lat="44.92282" lon="3.91075">
        <ele>774</ele>
        <time>2021-04-29T14:06:45Z</time>
      </trkpt>
      <trkpt lat="44.9228" lon="3.91067">
        <ele>774</ele>
        <time>2021-04-29T14:06:46Z</time>
      </trkpt>
      <trkpt lat="44.92277" lon="3.91059">
        <ele>774</ele>
        <time>2021-04-29T14:06:47Z</time>
      </trkpt>
      <trkpt lat="44.92273" lon="3.91051">
        <ele>774</ele>
        <time>2021-04-29T14:06:48Z</time>
      </trkpt>
      <trkpt lat="44.92271" lon="3.91042">
        <ele>774</ele>
        <time>2021-04-29T14:06:49Z</time>
      </trkpt>
      <trkpt lat="44.92268" lon="3.91034">
        <ele>774</ele>
        <time>2021-04-29T14:06:50Z</time>
      </trkpt>
      <trkpt lat="44.92262" lon="3.91017">
        <ele>774</ele>
        <time>2021-04-29T14:06:51Z</time>
      </trkpt>
      <trkpt lat="44.92259" lon="3.91009">
        <ele>774</ele>
        <time>2021-04-29T14:06:53Z</time>
      </trkpt>
      <trkpt lat="44.92258" lon="3.91001">
        <ele>774</ele>
        <time>2021-04-29T14:06:54Z</time>
      </trkpt>
      <trkpt lat="44.92257" lon="3.90994">
        <ele>774</ele>
        <time>2021-04-29T14:06:55Z</time>
      </trkpt>
      <trkpt lat="44.92258" lon="3.90988">
        <ele>774</ele>
        <time>2021-04-29T14:06:56Z</time>
      </trkpt>
      <trkpt lat="44.92258" lon="3.90983">
        <ele>774</ele>
        <time>2021-04-29T14:06:57Z</time>
      </trkpt>
      <trkpt lat="44.92259" lon="3.90979">
        <ele>774</ele>
        <time>2021-04-29T14:06:58Z</time>
      </trkpt>
      <trkpt lat="44.92259" lon="3.90974">
        <ele>775</ele>
        <time>2021-04-29T14:06:59Z</time>
      </trkpt>
      <trkpt lat="44.92259" lon="3.90968">
        <ele>774</ele>
        <time>2021-04-29T14:07:00Z</time>
      </trkpt>
      <trkpt lat="44.9226" lon="3.90962">
        <ele>774</ele>
        <time>2021-04-29T14:07:01Z</time>
      </trkpt>
      <trkpt lat="44.92261" lon="3.90957">
        <ele>774</ele>
        <time>2021-04-29T14:07:02Z</time>
      </trkpt>
      <trkpt lat="44.92263" lon="3.90951">
        <ele>774</ele>
        <time>2021-04-29T14:07:03Z</time>
      </trkpt>
      <trkpt lat="44.92265" lon="3.90946">
        <ele>774</ele>
        <time>2021-04-29T14:07:04Z</time>
      </trkpt>
      <trkpt lat="44.92267" lon="3.90941">
        <ele>774</ele>
        <time>2021-04-29T14:07:05Z</time>
      </trkpt>
      <trkpt lat="44.9227" lon="3.90937">
        <ele>774</ele>
        <time>2021-04-29T14:07:06Z</time>
      </trkpt>
      <trkpt lat="44.92272" lon="3.90932">
        <ele>775</ele>
        <time>2021-04-29T14:07:07Z</time>
      </trkpt>
      <trkpt lat="44.92274" lon="3.90929">
        <ele>775</ele>
        <time>2021-04-29T14:07:08Z</time>
      </trkpt>
      <trkpt lat="44.92276" lon="3.90925">
        <ele>775</ele>
        <time>2021-04-29T14:07:09Z</time>
      </trkpt>
      <trkpt lat="44.92277" lon="3.90921">
        <ele>775</ele>
        <time>2021-04-29T14:07:10Z</time>
      </trkpt>
      <trkpt lat="44.92278" lon="3.90917">
        <ele>775</ele>
        <time>2021-04-29T14:07:11Z</time>
      </trkpt>
      <trkpt lat="44.9228" lon="3.90914">
        <ele>775</ele>
        <time>2021-04-29T14:07:12Z</time>
      </trkpt>
      <trkpt lat="44.92281" lon="3.90911">
        <ele>775</ele>
        <time>2021-04-29T14:07:13Z</time>
      </trkpt>
      <trkpt lat="44.92283" lon="3.90908">
        <ele>776</ele>
        <time>2021-04-29T14:07:14Z</time>
      </trkpt>
      <trkpt lat="44.92285" lon="3.90905">
        <ele>776</ele>
        <time>2021-04-29T14:07:15Z</time>
      </trkpt>
      <trkpt lat="44.92286" lon="3.90903">
        <ele>776</ele>
        <time>2021-04-29T14:07:16Z</time>
      </trkpt>
      <trkpt lat="44.92287" lon="3.909">
        <ele>776</ele>
        <time>2021-04-29T14:07:17Z</time>
      </trkpt>
      <trkpt lat="44.92288" lon="3.90897">
        <ele>776</ele>
        <time>2021-04-29T14:07:18Z</time>
      </trkpt>
      <trkpt lat="44.92289" lon="3.90894">
        <ele>776</ele>
        <time>2021-04-29T14:07:19Z</time>
      </trkpt>
      <trkpt lat="44.9229" lon="3.90892">
        <ele>776</ele>
        <time>2021-04-29T14:07:21Z</time>
      </trkpt>
      <trkpt lat="44.92293" lon="3.9089">
        <ele>776</ele>
        <time>2021-04-29T14:07:26Z</time>
      </trkpt>
      <trkpt lat="44.92294" lon="3.90889">
        <ele>777</ele>
        <time>2021-04-29T14:07:29Z</time>
      </trkpt>
      <trkpt lat="44.92295" lon="3.90889">
        <ele>777</ele>
        <time>2021-04-29T14:07:32Z</time>
      </trkpt>
      <trkpt lat="44.92296" lon="3.90887">
        <ele>777</ele>
        <time>2021-04-29T14:07:34Z</time>
      </trkpt>
      <trkpt lat="44.92298" lon="3.90886">
        <ele>778</ele>
        <time>2021-04-29T14:07:39Z</time>
      </trkpt>
      <trkpt lat="44.92302" lon="3.90885">
        <ele>779</ele>
        <time>2021-04-29T14:08:18Z</time>
      </trkpt>
      <trkpt lat="44.92305" lon="3.90885">
        <ele>780</ele>
        <time>2021-04-29T14:08:19Z</time>
      </trkpt>
      <trkpt lat="44.92307" lon="3.90884">
        <ele>780</ele>
        <time>2021-04-29T14:08:21Z</time>
      </trkpt>
      <trkpt lat="44.9231" lon="3.90883">
        <ele>780</ele>
        <time>2021-04-29T14:08:22Z</time>
      </trkpt>
      <trkpt lat="44.92311" lon="3.90883">
        <ele>780</ele>
        <time>2021-04-29T14:08:23Z</time>
      </trkpt>
      <trkpt lat="44.92313" lon="3.90882">
        <ele>780</ele>
        <time>2021-04-29T14:08:24Z</time>
      </trkpt>
      <trkpt lat="44.92315" lon="3.9088">
        <ele>780</ele>
        <time>2021-04-29T14:08:25Z</time>
      </trkpt>
      <trkpt lat="44.92318" lon="3.90878">
        <ele>779</ele>
        <time>2021-04-29T14:08:26Z</time>
      </trkpt>
      <trkpt lat="44.92321" lon="3.90877">
        <ele>779</ele>
        <time>2021-04-29T14:08:27Z</time>
      </trkpt>
      <trkpt lat="44.92324" lon="3.90875">
        <ele>779</ele>
        <time>2021-04-29T14:08:28Z</time>
      </trkpt>
      <trkpt lat="44.92328" lon="3.90873">
        <ele>779</ele>
        <time>2021-04-29T14:08:29Z</time>
      </trkpt>
      <trkpt lat="44.92333" lon="3.90872">
        <ele>779</ele>
        <time>2021-04-29T14:08:30Z</time>
      </trkpt>
      <trkpt lat="44.92337" lon="3.9087">
        <ele>779</ele>
        <time>2021-04-29T14:08:31Z</time>
      </trkpt>
      <trkpt lat="44.92342" lon="3.9087">
        <ele>779</ele>
        <time>2021-04-29T14:08:32Z</time>
      </trkpt>
      <trkpt lat="44.92348" lon="3.9087">
        <ele>779</ele>
        <time>2021-04-29T14:08:33Z</time>
      </trkpt>
      <trkpt lat="44.92352" lon="3.90869">
        <ele>779</ele>
        <time>2021-04-29T14:08:34Z</time>
      </trkpt>
      <trkpt lat="44.92356" lon="3.90869">
        <ele>779</ele>
        <time>2021-04-29T14:08:35Z</time>
      </trkpt>
      <trkpt lat="44.92359" lon="3.90869">
        <ele>779</ele>
        <time>2021-04-29T14:08:36Z</time>
      </trkpt>
      <trkpt lat="44.92369" lon="3.90869">
        <ele>779</ele>
        <time>2021-04-29T14:08:40Z</time>
      </trkpt>
      <trkpt lat="44.9238" lon="3.90869">
        <ele>779</ele>
        <time>2021-04-29T14:08:43Z</time>
      </trkpt>
      <trkpt lat="44.9239" lon="3.90865">
        <ele>778</ele>
        <time>2021-04-29T14:08:46Z</time>
      </trkpt>
      <trkpt lat="44.92399" lon="3.90858">
        <ele>778</ele>
        <time>2021-04-29T14:08:48Z</time>
      </trkpt>
      <trkpt lat="44.9241" lon="3.9085">
        <ele>778</ele>
        <time>2021-04-29T14:08:51Z</time>
      </trkpt>
      <trkpt lat="44.92417" lon="3.90845">
        <ele>778</ele>
        <time>2021-04-29T14:08:56Z</time>
      </trkpt>
      <trkpt lat="44.92419" lon="3.90843">
        <ele>778</ele>
        <time>2021-04-29T14:08:59Z</time>
      </trkpt>
      <trkpt lat="44.92421" lon="3.90843">
        <ele>778</ele>
        <time>2021-04-29T14:09:02Z</time>
      </trkpt>
      <trkpt lat="44.92433" lon="3.90836">
        <ele>779</ele>
        <time>2021-04-29T14:10:04Z</time>
      </trkpt>
      <trkpt lat="44.92437" lon="3.90831">
        <ele>779</ele>
        <time>2021-04-29T14:10:12Z</time>
      </trkpt>
      <trkpt lat="44.92439" lon="3.90829">
        <ele>778</ele>
        <time>2021-04-29T14:10:13Z</time>
      </trkpt>
      <trkpt lat="44.92441" lon="3.90828">
        <ele>778</ele>
        <time>2021-04-29T14:10:15Z</time>
      </trkpt>
      <trkpt lat="44.92444" lon="3.90828">
        <ele>778</ele>
        <time>2021-04-29T14:10:17Z</time>
      </trkpt>
      <trkpt lat="44.9245" lon="3.90827">
        <ele>778</ele>
        <time>2021-04-29T14:10:20Z</time>
      </trkpt>
      <trkpt lat="44.92459" lon="3.90821">
        <ele>778</ele>
        <time>2021-04-29T14:10:24Z</time>
      </trkpt>
      <trkpt lat="44.92462" lon="3.90819">
        <ele>778</ele>
        <time>2021-04-29T14:10:25Z</time>
      </trkpt>
      <trkpt lat="44.92465" lon="3.90818">
        <ele>778</ele>
        <time>2021-04-29T14:10:26Z</time>
      </trkpt>
      <trkpt lat="44.92468" lon="3.90816">
        <ele>778</ele>
        <time>2021-04-29T14:10:27Z</time>
      </trkpt>
      <trkpt lat="44.92471" lon="3.90814">
        <ele>778</ele>
        <time>2021-04-29T14:10:28Z</time>
      </trkpt>
      <trkpt lat="44.92474" lon="3.90811">
        <ele>778</ele>
        <time>2021-04-29T14:10:29Z</time>
      </trkpt>
      <trkpt lat="44.92478" lon="3.90808">
        <ele>778</ele>
        <time>2021-04-29T14:10:30Z</time>
      </trkpt>
      <trkpt lat="44.92481" lon="3.90804">
        <ele>778</ele>
        <time>2021-04-29T14:10:31Z</time>
      </trkpt>
      <trkpt lat="44.92487" lon="3.90795">
        <ele>778</ele>
        <time>2021-04-29T14:10:32Z</time>
      </trkpt>
      <trkpt lat="44.9249" lon="3.90791">
        <ele>778</ele>
        <time>2021-04-29T14:10:34Z</time>
      </trkpt>
      <trkpt lat="44.92492" lon="3.90786">
        <ele>778</ele>
        <time>2021-04-29T14:10:35Z</time>
      </trkpt>
      <trkpt lat="44.92495" lon="3.9078">
        <ele>778</ele>
        <time>2021-04-29T14:10:36Z</time>
      </trkpt>
      <trkpt lat="44.92499" lon="3.90774">
        <ele>778</ele>
        <time>2021-04-29T14:10:37Z</time>
      </trkpt>
      <trkpt lat="44.92504" lon="3.90769">
        <ele>777</ele>
        <time>2021-04-29T14:10:38Z</time>
      </trkpt>
      <trkpt lat="44.92509" lon="3.90763">
        <ele>777</ele>
        <time>2021-04-29T14:10:39Z</time>
      </trkpt>
      <trkpt lat="44.92514" lon="3.90758">
        <ele>777</ele>
        <time>2021-04-29T14:10:40Z</time>
      </trkpt>
      <trkpt lat="44.92523" lon="3.90751">
        <ele>777</ele>
        <time>2021-04-29T14:10:42Z</time>
      </trkpt>
      <trkpt lat="44.92534" lon="3.90745">
        <ele>777</ele>
        <time>2021-04-29T14:10:45Z</time>
      </trkpt>
      <trkpt lat="44.92544" lon="3.90744">
        <ele>777</ele>
        <time>2021-04-29T14:10:47Z</time>
      </trkpt>
      <trkpt lat="44.92548" lon="3.90745">
        <ele>777</ele>
        <time>2021-04-29T14:10:48Z</time>
      </trkpt>
      <trkpt lat="44.92551" lon="3.90747">
        <ele>777</ele>
        <time>2021-04-29T14:10:49Z</time>
      </trkpt>
      <trkpt lat="44.92553" lon="3.90749">
        <ele>777</ele>
        <time>2021-04-29T14:10:50Z</time>
      </trkpt>
      <trkpt lat="44.92555" lon="3.9075">
        <ele>777</ele>
        <time>2021-04-29T14:10:51Z</time>
      </trkpt>
      <trkpt lat="44.92558" lon="3.90751">
        <ele>777</ele>
        <time>2021-04-29T14:10:52Z</time>
      </trkpt>
      <trkpt lat="44.9256" lon="3.90751">
        <ele>777</ele>
        <time>2021-04-29T14:10:53Z</time>
      </trkpt>
      <trkpt lat="44.92562" lon="3.90752">
        <ele>777</ele>
        <time>2021-04-29T14:10:54Z</time>
      </trkpt>
      <trkpt lat="44.92563" lon="3.90754">
        <ele>777</ele>
        <time>2021-04-29T14:10:55Z</time>
      </trkpt>
      <trkpt lat="44.92566" lon="3.90755">
        <ele>777</ele>
        <time>2021-04-29T14:10:56Z</time>
      </trkpt>
      <trkpt lat="44.92568" lon="3.90758">
        <ele>777</ele>
        <time>2021-04-29T14:10:57Z</time>
      </trkpt>
      <trkpt lat="44.92571" lon="3.9076">
        <ele>777</ele>
        <time>2021-04-29T14:10:58Z</time>
      </trkpt>
      <trkpt lat="44.92573" lon="3.90762">
        <ele>777</ele>
        <time>2021-04-29T14:10:59Z</time>
      </trkpt>
      <trkpt lat="44.92576" lon="3.90764">
        <ele>777</ele>
        <time>2021-04-29T14:11:00Z</time>
      </trkpt>
      <trkpt lat="44.92579" lon="3.90765">
        <ele>777</ele>
        <time>2021-04-29T14:11:01Z</time>
      </trkpt>
      <trkpt lat="44.92581" lon="3.90765">
        <ele>777</ele>
        <time>2021-04-29T14:11:02Z</time>
      </trkpt>
      <trkpt lat="44.92586" lon="3.90763">
        <ele>779</ele>
        <time>2021-04-29T14:11:50Z</time>
      </trkpt>
      <trkpt lat="44.92589" lon="3.90762">
        <ele>779</ele>
        <time>2021-04-29T14:11:51Z</time>
      </trkpt>
      <trkpt lat="44.92593" lon="3.90761">
        <ele>779</ele>
        <time>2021-04-29T14:11:53Z</time>
      </trkpt>
      <trkpt lat="44.92596" lon="3.90759">
        <ele>779</ele>
        <time>2021-04-29T14:11:54Z</time>
      </trkpt>
      <trkpt lat="44.92599" lon="3.90757">
        <ele>779</ele>
        <time>2021-04-29T14:11:55Z</time>
      </trkpt>
      <trkpt lat="44.92602" lon="3.90753">
        <ele>779</ele>
        <time>2021-04-29T14:11:56Z</time>
      </trkpt>
      <trkpt lat="44.92606" lon="3.90751">
        <ele>779</ele>
        <time>2021-04-29T14:11:57Z</time>
      </trkpt>
      <trkpt lat="44.9261" lon="3.90751">
        <ele>779</ele>
        <time>2021-04-29T14:11:58Z</time>
      </trkpt>
      <trkpt lat="44.92613" lon="3.9075">
        <ele>779</ele>
        <time>2021-04-29T14:11:59Z</time>
      </trkpt>
      <trkpt lat="44.92625" lon="3.90751">
        <ele>779</ele>
        <time>2021-04-29T14:12:02Z</time>
      </trkpt>
      <trkpt lat="44.92634" lon="3.90753">
        <ele>779</ele>
        <time>2021-04-29T14:12:04Z</time>
      </trkpt>
      <trkpt lat="44.92639" lon="3.90753">
        <ele>779</ele>
        <time>2021-04-29T14:12:05Z</time>
      </trkpt>
      <trkpt lat="44.92644" lon="3.90753">
        <ele>779</ele>
        <time>2021-04-29T14:12:06Z</time>
      </trkpt>
      <trkpt lat="44.92649" lon="3.90752">
        <ele>779</ele>
        <time>2021-04-29T14:12:07Z</time>
      </trkpt>
      <trkpt lat="44.92653" lon="3.90753">
        <ele>779</ele>
        <time>2021-04-29T14:12:08Z</time>
      </trkpt>
      <trkpt lat="44.92658" lon="3.90755">
        <ele>778</ele>
        <time>2021-04-29T14:12:09Z</time>
      </trkpt>
      <trkpt lat="44.92662" lon="3.90758">
        <ele>778</ele>
        <time>2021-04-29T14:12:10Z</time>
      </trkpt>
      <trkpt lat="44.92672" lon="3.90761">
        <ele>778</ele>
        <time>2021-04-29T14:12:12Z</time>
      </trkpt>
      <trkpt lat="44.92678" lon="3.90761">
        <ele>778</ele>
        <time>2021-04-29T14:12:13Z</time>
      </trkpt>
      <trkpt lat="44.92685" lon="3.90762">
        <ele>778</ele>
        <time>2021-04-29T14:12:14Z</time>
      </trkpt>
      <trkpt lat="44.92692" lon="3.90761">
        <ele>778</ele>
        <time>2021-04-29T14:12:15Z</time>
      </trkpt>
      <trkpt lat="44.92698" lon="3.90761">
        <ele>778</ele>
        <time>2021-04-29T14:12:16Z</time>
      </trkpt>
      <trkpt lat="44.92707" lon="3.90761">
        <ele>778</ele>
        <time>2021-04-29T14:12:18Z</time>
      </trkpt>
      <trkpt lat="44.92717" lon="3.90763">
        <ele>777</ele>
        <time>2021-04-29T14:12:21Z</time>
      </trkpt>
      <trkpt lat="44.92719" lon="3.90765">
        <ele>777</ele>
        <time>2021-04-29T14:12:22Z</time>
      </trkpt>
      <trkpt lat="44.92722" lon="3.90766">
        <ele>777</ele>
        <time>2021-04-29T14:12:23Z</time>
      </trkpt>
      <trkpt lat="44.92725" lon="3.90768">
        <ele>777</ele>
        <time>2021-04-29T14:12:24Z</time>
      </trkpt>
      <trkpt lat="44.92728" lon="3.90769">
        <ele>777</ele>
        <time>2021-04-29T14:12:25Z</time>
      </trkpt>
      <trkpt lat="44.92731" lon="3.90772">
        <ele>777</ele>
        <time>2021-04-29T14:12:26Z</time>
      </trkpt>
      <trkpt lat="44.92734" lon="3.90775">
        <ele>777</ele>
        <time>2021-04-29T14:12:27Z</time>
      </trkpt>
      <trkpt lat="44.92738" lon="3.90777">
        <ele>777</ele>
        <time>2021-04-29T14:12:28Z</time>
      </trkpt>
      <trkpt lat="44.92744" lon="3.90782">
        <ele>777</ele>
        <time>2021-04-29T14:12:29Z</time>
      </trkpt>
      <trkpt lat="44.92747" lon="3.90785">
        <ele>777</ele>
        <time>2021-04-29T14:12:31Z</time>
      </trkpt>
      <trkpt lat="44.92751" lon="3.90788">
        <ele>777</ele>
        <time>2021-04-29T14:12:32Z</time>
      </trkpt>
      <trkpt lat="44.92753" lon="3.90791">
        <ele>778</ele>
        <time>2021-04-29T14:12:33Z</time>
      </trkpt>
      <trkpt lat="44.92756" lon="3.90793">
        <ele>778</ele>
        <time>2021-04-29T14:12:34Z</time>
      </trkpt>
      <trkpt lat="44.92759" lon="3.90795">
        <ele>778</ele>
        <time>2021-04-29T14:12:35Z</time>
      </trkpt>
      <trkpt lat="44.92762" lon="3.90797">
        <ele>778</ele>
        <time>2021-04-29T14:12:36Z</time>
      </trkpt>
      <trkpt lat="44.92765" lon="3.908">
        <ele>778</ele>
        <time>2021-04-29T14:12:37Z</time>
      </trkpt>
      <trkpt lat="44.92768" lon="3.90802">
        <ele>778</ele>
        <time>2021-04-29T14:12:38Z</time>
      </trkpt>
      <trkpt lat="44.9277" lon="3.90804">
        <ele>778</ele>
        <time>2021-04-29T14:12:39Z</time>
      </trkpt>
      <trkpt lat="44.92773" lon="3.90805">
        <ele>778</ele>
        <time>2021-04-29T14:12:40Z</time>
      </trkpt>
      <trkpt lat="44.92776" lon="3.90807">
        <ele>778</ele>
        <time>2021-04-29T14:12:41Z</time>
      </trkpt>
      <trkpt lat="44.92778" lon="3.90809">
        <ele>778</ele>
        <time>2021-04-29T14:12:42Z</time>
      </trkpt>
      <trkpt lat="44.92781" lon="3.90811">
        <ele>778</ele>
        <time>2021-04-29T14:12:43Z</time>
      </trkpt>
      <trkpt lat="44.92783" lon="3.90814">
        <ele>778</ele>
        <time>2021-04-29T14:12:44Z</time>
      </trkpt>
      <trkpt lat="44.92786" lon="3.90816">
        <ele>779</ele>
        <time>2021-04-29T14:12:45Z</time>
      </trkpt>
      <trkpt lat="44.92788" lon="3.90819">
        <ele>779</ele>
        <time>2021-04-29T14:12:46Z</time>
      </trkpt>
      <trkpt lat="44.9279" lon="3.90822">
        <ele>779</ele>
        <time>2021-04-29T14:12:47Z</time>
      </trkpt>
      <trkpt lat="44.92793" lon="3.90825">
        <ele>779</ele>
        <time>2021-04-29T14:12:48Z</time>
      </trkpt>
      <trkpt lat="44.92795" lon="3.90828">
        <ele>779</ele>
        <time>2021-04-29T14:12:49Z</time>
      </trkpt>
      <trkpt lat="44.92798" lon="3.90831">
        <ele>779</ele>
        <time>2021-04-29T14:12:50Z</time>
      </trkpt>
      <trkpt lat="44.92801" lon="3.90834">
        <ele>779</ele>
        <time>2021-04-29T14:12:51Z</time>
      </trkpt>
      <trkpt lat="44.92804" lon="3.90836">
        <ele>780</ele>
        <time>2021-04-29T14:12:52Z</time>
      </trkpt>
      <trkpt lat="44.92806" lon="3.90839">
        <ele>780</ele>
        <time>2021-04-29T14:12:53Z</time>
      </trkpt>
      <trkpt lat="44.92809" lon="3.90842">
        <ele>780</ele>
        <time>2021-04-29T14:12:54Z</time>
      </trkpt>
      <trkpt lat="44.92812" lon="3.90845">
        <ele>780</ele>
        <time>2021-04-29T14:12:55Z</time>
      </trkpt>
      <trkpt lat="44.92814" lon="3.90848">
        <ele>780</ele>
        <time>2021-04-29T14:12:56Z</time>
      </trkpt>
      <trkpt lat="44.92817" lon="3.90852">
        <ele>780</ele>
        <time>2021-04-29T14:12:57Z</time>
      </trkpt>
      <trkpt lat="44.92819" lon="3.90856">
        <ele>781</ele>
        <time>2021-04-29T14:12:58Z</time>
      </trkpt>
      <trkpt lat="44.92821" lon="3.9086">
        <ele>781</ele>
        <time>2021-04-29T14:12:59Z</time>
      </trkpt>
      <trkpt lat="44.92824" lon="3.90864">
        <ele>781</ele>
        <time>2021-04-29T14:13:00Z</time>
      </trkpt>
      <trkpt lat="44.92826" lon="3.90868">
        <ele>781</ele>
        <time>2021-04-29T14:13:01Z</time>
      </trkpt>
      <trkpt lat="44.92829" lon="3.90872">
        <ele>781</ele>
        <time>2021-04-29T14:13:02Z</time>
      </trkpt>
      <trkpt lat="44.92831" lon="3.90876">
        <ele>781</ele>
        <time>2021-04-29T14:13:03Z</time>
      </trkpt>
      <trkpt lat="44.92833" lon="3.9088">
        <ele>782</ele>
        <time>2021-04-29T14:13:04Z</time>
      </trkpt>
      <trkpt lat="44.92835" lon="3.90883">
        <ele>782</ele>
        <time>2021-04-29T14:13:05Z</time>
      </trkpt>
      <trkpt lat="44.92837" lon="3.90886">
        <ele>782</ele>
        <time>2021-04-29T14:13:06Z</time>
      </trkpt>
      <trkpt lat="44.92842" lon="3.90889">
        <ele>782</ele>
        <time>2021-04-29T14:13:07Z</time>
      </trkpt>
      <trkpt lat="44.92845" lon="3.90893">
        <ele>782</ele>
        <time>2021-04-29T14:13:09Z</time>
      </trkpt>
      <trkpt lat="44.92848" lon="3.90896">
        <ele>783</ele>
        <time>2021-04-29T14:13:10Z</time>
      </trkpt>
      <trkpt lat="44.9285" lon="3.90899">
        <ele>783</ele>
        <time>2021-04-29T14:13:11Z</time>
      </trkpt>
      <trkpt lat="44.92853" lon="3.90903">
        <ele>783</ele>
        <time>2021-04-29T14:13:12Z</time>
      </trkpt>
      <trkpt lat="44.92855" lon="3.90906">
        <ele>783</ele>
        <time>2021-04-29T14:13:13Z</time>
      </trkpt>
      <trkpt lat="44.92857" lon="3.9091">
        <ele>783</ele>
        <time>2021-04-29T14:13:14Z</time>
      </trkpt>
      <trkpt lat="44.92859" lon="3.90914">
        <ele>783</ele>
        <time>2021-04-29T14:13:15Z</time>
      </trkpt>
      <trkpt lat="44.92861" lon="3.90918">
        <ele>784</ele>
        <time>2021-04-29T14:13:16Z</time>
      </trkpt>
      <trkpt lat="44.92863" lon="3.90922">
        <ele>784</ele>
        <time>2021-04-29T14:13:17Z</time>
      </trkpt>
      <trkpt lat="44.92864" lon="3.90926">
        <ele>784</ele>
        <time>2021-04-29T14:13:18Z</time>
      </trkpt>
      <trkpt lat="44.92866" lon="3.9093">
        <ele>784</ele>
        <time>2021-04-29T14:13:19Z</time>
      </trkpt>
      <trkpt lat="44.92868" lon="3.90933">
        <ele>784</ele>
        <time>2021-04-29T14:13:20Z</time>
      </trkpt>
      <trkpt lat="44.9287" lon="3.90937">
        <ele>785</ele>
        <time>2021-04-29T14:13:21Z</time>
      </trkpt>
      <trkpt lat="44.92871" lon="3.90941">
        <ele>785</ele>
        <time>2021-04-29T14:13:22Z</time>
      </trkpt>
      <trkpt lat="44.92872" lon="3.90945">
        <ele>785</ele>
        <time>2021-04-29T14:13:23Z</time>
      </trkpt>
      <trkpt lat="44.92873" lon="3.90949">
        <ele>785</ele>
        <time>2021-04-29T14:13:24Z</time>
      </trkpt>
      <trkpt lat="44.92875" lon="3.90953">
        <ele>786</ele>
        <time>2021-04-29T14:13:25Z</time>
      </trkpt>
      <trkpt lat="44.92878" lon="3.9096">
        <ele>786</ele>
        <time>2021-04-29T14:13:26Z</time>
      </trkpt>
      <trkpt lat="44.92879" lon="3.90964">
        <ele>786</ele>
        <time>2021-04-29T14:13:28Z</time>
      </trkpt>
      <trkpt lat="44.92881" lon="3.90966">
        <ele>787</ele>
        <time>2021-04-29T14:13:29Z</time>
      </trkpt>
      <trkpt lat="44.92882" lon="3.90969">
        <ele>787</ele>
        <time>2021-04-29T14:13:30Z</time>
      </trkpt>
      <trkpt lat="44.92884" lon="3.90973">
        <ele>787</ele>
        <time>2021-04-29T14:13:31Z</time>
      </trkpt>
      <trkpt lat="44.92886" lon="3.90976">
        <ele>787</ele>
        <time>2021-04-29T14:13:32Z</time>
      </trkpt>
      <trkpt lat="44.92888" lon="3.90979">
        <ele>787</ele>
        <time>2021-04-29T14:13:33Z</time>
      </trkpt>
      <trkpt lat="44.9289" lon="3.90982">
        <ele>788</ele>
        <time>2021-04-29T14:13:34Z</time>
      </trkpt>
      <trkpt lat="44.92892" lon="3.90986">
        <ele>788</ele>
        <time>2021-04-29T14:13:35Z</time>
      </trkpt>
      <trkpt lat="44.92894" lon="3.9099">
        <ele>788</ele>
        <time>2021-04-29T14:13:36Z</time>
      </trkpt>
      <trkpt lat="44.92898" lon="3.90997">
        <ele>788</ele>
        <time>2021-04-29T14:13:38Z</time>
      </trkpt>
      <trkpt lat="44.929" lon="3.91">
        <ele>789</ele>
        <time>2021-04-29T14:13:39Z</time>
      </trkpt>
      <trkpt lat="44.92902" lon="3.91004">
        <ele>789</ele>
        <time>2021-04-29T14:13:40Z</time>
      </trkpt>
      <trkpt lat="44.92904" lon="3.91006">
        <ele>789</ele>
        <time>2021-04-29T14:13:41Z</time>
      </trkpt>
      <trkpt lat="44.92907" lon="3.91009">
        <ele>789</ele>
        <time>2021-04-29T14:13:42Z</time>
      </trkpt>
      <trkpt lat="44.92909" lon="3.91011">
        <ele>789</ele>
        <time>2021-04-29T14:13:43Z</time>
      </trkpt>
      <trkpt lat="44.9292" lon="3.91016">
        <ele>790</ele>
        <time>2021-04-29T14:13:47Z</time>
      </trkpt>
      <trkpt lat="44.92926" lon="3.91018">
        <ele>790</ele>
        <time>2021-04-29T14:13:49Z</time>
      </trkpt>
      <trkpt lat="44.92929" lon="3.91019">
        <ele>790</ele>
        <time>2021-04-29T14:13:50Z</time>
      </trkpt>
      <trkpt lat="44.92932" lon="3.91022">
        <ele>791</ele>
        <time>2021-04-29T14:13:51Z</time>
      </trkpt>
      <trkpt lat="44.92935" lon="3.91024">
        <ele>791</ele>
        <time>2021-04-29T14:13:52Z</time>
      </trkpt>
      <trkpt lat="44.92937" lon="3.91027">
        <ele>791</ele>
        <time>2021-04-29T14:13:53Z</time>
      </trkpt>
      <trkpt lat="44.92939" lon="3.91029">
        <ele>791</ele>
        <time>2021-04-29T14:13:54Z</time>
      </trkpt>
      <trkpt lat="44.92941" lon="3.91031">
        <ele>791</ele>
        <time>2021-04-29T14:13:55Z</time>
      </trkpt>
      <trkpt lat="44.92943" lon="3.91032">
        <ele>792</ele>
        <time>2021-04-29T14:13:56Z</time>
      </trkpt>
      <trkpt lat="44.92945" lon="3.91034">
        <ele>792</ele>
        <time>2021-04-29T14:13:57Z</time>
      </trkpt>
      <trkpt lat="44.92948" lon="3.91036">
        <ele>792</ele>
        <time>2021-04-29T14:13:58Z</time>
      </trkpt>
      <trkpt lat="44.92951" lon="3.91038">
        <ele>792</ele>
        <time>2021-04-29T14:13:59Z</time>
      </trkpt>
      <trkpt lat="44.92954" lon="3.9104">
        <ele>792</ele>
        <time>2021-04-29T14:14:00Z</time>
      </trkpt>
      <trkpt lat="44.92957" lon="3.91041">
        <ele>792</ele>
        <time>2021-04-29T14:14:01Z</time>
      </trkpt>
      <trkpt lat="44.92961" lon="3.91043">
        <ele>792</ele>
        <time>2021-04-29T14:14:02Z</time>
      </trkpt>
      <trkpt lat="44.92965" lon="3.91045">
        <ele>793</ele>
        <time>2021-04-29T14:14:03Z</time>
      </trkpt>
      <trkpt lat="44.92974" lon="3.91049">
        <ele>793</ele>
        <time>2021-04-29T14:14:04Z</time>
      </trkpt>
      <trkpt lat="44.92977" lon="3.9105">
        <ele>793</ele>
        <time>2021-04-29T14:14:06Z</time>
      </trkpt>
      <trkpt lat="44.92982" lon="3.91052">
        <ele>793</ele>
        <time>2021-04-29T14:14:07Z</time>
      </trkpt>
      <trkpt lat="44.92986" lon="3.91052">
        <ele>793</ele>
        <time>2021-04-29T14:14:08Z</time>
      </trkpt>
      <trkpt lat="44.9299" lon="3.91053">
        <ele>793</ele>
        <time>2021-04-29T14:14:09Z</time>
      </trkpt>
      <trkpt lat="44.92994" lon="3.91053">
        <ele>793</ele>
        <time>2021-04-29T14:14:10Z</time>
      </trkpt>
      <trkpt lat="44.92999" lon="3.91053">
        <ele>794</ele>
        <time>2021-04-29T14:14:11Z</time>
      </trkpt>
      <trkpt lat="44.93004" lon="3.91052">
        <ele>794</ele>
        <time>2021-04-29T14:14:12Z</time>
      </trkpt>
      <trkpt lat="44.93008" lon="3.91052">
        <ele>794</ele>
        <time>2021-04-29T14:14:13Z</time>
      </trkpt>
      <trkpt lat="44.93012" lon="3.91052">
        <ele>794</ele>
        <time>2021-04-29T14:14:14Z</time>
      </trkpt>
      <trkpt lat="44.93016" lon="3.91053">
        <ele>795</ele>
        <time>2021-04-29T14:14:15Z</time>
      </trkpt>
      <trkpt lat="44.9302" lon="3.91054">
        <ele>795</ele>
        <time>2021-04-29T14:14:16Z</time>
      </trkpt>
      <trkpt lat="44.93024" lon="3.91054">
        <ele>795</ele>
        <time>2021-04-29T14:14:17Z</time>
      </trkpt>
      <trkpt lat="44.93028" lon="3.91055">
        <ele>795</ele>
        <time>2021-04-29T14:14:18Z</time>
      </trkpt>
      <trkpt lat="44.93032" lon="3.91056">
        <ele>795</ele>
        <time>2021-04-29T14:14:19Z</time>
      </trkpt>
      <trkpt lat="44.9304" lon="3.91059">
        <ele>796</ele>
        <time>2021-04-29T14:14:21Z</time>
      </trkpt>
      <trkpt lat="44.93044" lon="3.91061">
        <ele>796</ele>
        <time>2021-04-29T14:14:22Z</time>
      </trkpt>
      <trkpt lat="44.93052" lon="3.91063">
        <ele>796</ele>
        <time>2021-04-29T14:14:23Z</time>
      </trkpt>
      <trkpt lat="44.93064" lon="3.91066">
        <ele>797</ele>
        <time>2021-04-29T14:14:27Z</time>
      </trkpt>
      <trkpt lat="44.93068" lon="3.91067">
        <ele>798</ele>
        <time>2021-04-29T14:14:28Z</time>
      </trkpt>
      <trkpt lat="44.93072" lon="3.91069">
        <ele>798</ele>
        <time>2021-04-29T14:14:29Z</time>
      </trkpt>
      <trkpt lat="44.93076" lon="3.91069">
        <ele>798</ele>
        <time>2021-04-29T14:14:30Z</time>
      </trkpt>
      <trkpt lat="44.9308" lon="3.91069">
        <ele>799</ele>
        <time>2021-04-29T14:14:31Z</time>
      </trkpt>
      <trkpt lat="44.93085" lon="3.9107">
        <ele>799</ele>
        <time>2021-04-29T14:14:32Z</time>
      </trkpt>
      <trkpt lat="44.93089" lon="3.91072">
        <ele>799</ele>
        <time>2021-04-29T14:14:33Z</time>
      </trkpt>
      <trkpt lat="44.93093" lon="3.91074">
        <ele>799</ele>
        <time>2021-04-29T14:14:34Z</time>
      </trkpt>
      <trkpt lat="44.93096" lon="3.91076">
        <ele>800</ele>
        <time>2021-04-29T14:14:35Z</time>
      </trkpt>
      <trkpt lat="44.931" lon="3.91079">
        <ele>800</ele>
        <time>2021-04-29T14:14:36Z</time>
      </trkpt>
      <trkpt lat="44.93104" lon="3.91083">
        <ele>800</ele>
        <time>2021-04-29T14:14:37Z</time>
      </trkpt>
      <trkpt lat="44.93108" lon="3.91087">
        <ele>800</ele>
        <time>2021-04-29T14:14:38Z</time>
      </trkpt>
      <trkpt lat="44.93111" lon="3.9109">
        <ele>800</ele>
        <time>2021-04-29T14:14:39Z</time>
      </trkpt>
      <trkpt lat="44.93114" lon="3.91094">
        <ele>801</ele>
        <time>2021-04-29T14:14:40Z</time>
      </trkpt>
      <trkpt lat="44.93116" lon="3.91098">
        <ele>801</ele>
        <time>2021-04-29T14:14:41Z</time>
      </trkpt>
      <trkpt lat="44.93119" lon="3.91101">
        <ele>801</ele>
        <time>2021-04-29T14:14:42Z</time>
      </trkpt>
      <trkpt lat="44.93121" lon="3.91105">
        <ele>801</ele>
        <time>2021-04-29T14:14:43Z</time>
      </trkpt>
      <trkpt lat="44.93124" lon="3.91108">
        <ele>801</ele>
        <time>2021-04-29T14:14:44Z</time>
      </trkpt>
      <trkpt lat="44.93127" lon="3.91111">
        <ele>802</ele>
        <time>2021-04-29T14:14:45Z</time>
      </trkpt>
      <trkpt lat="44.9313" lon="3.91114">
        <ele>802</ele>
        <time>2021-04-29T14:14:46Z</time>
      </trkpt>
      <trkpt lat="44.93133" lon="3.91116">
        <ele>802</ele>
        <time>2021-04-29T14:14:47Z</time>
      </trkpt>
      <trkpt lat="44.93136" lon="3.91119">
        <ele>802</ele>
        <time>2021-04-29T14:14:48Z</time>
      </trkpt>
      <trkpt lat="44.93139" lon="3.91122">
        <ele>802</ele>
        <time>2021-04-29T14:14:49Z</time>
      </trkpt>
      <trkpt lat="44.93142" lon="3.91125">
        <ele>803</ele>
        <time>2021-04-29T14:14:50Z</time>
      </trkpt>
      <trkpt lat="44.93145" lon="3.91127">
        <ele>803</ele>
        <time>2021-04-29T14:14:51Z</time>
      </trkpt>
      <trkpt lat="44.93147" lon="3.9113">
        <ele>803</ele>
        <time>2021-04-29T14:14:52Z</time>
      </trkpt>
      <trkpt lat="44.9315" lon="3.91133">
        <ele>803</ele>
        <time>2021-04-29T14:14:53Z</time>
      </trkpt>
      <trkpt lat="44.93152" lon="3.91136">
        <ele>803</ele>
        <time>2021-04-29T14:14:54Z</time>
      </trkpt>
      <trkpt lat="44.93153" lon="3.91138">
        <ele>803</ele>
        <time>2021-04-29T14:14:55Z</time>
      </trkpt>
      <trkpt lat="44.93155" lon="3.91141">
        <ele>803</ele>
        <time>2021-04-29T14:14:56Z</time>
      </trkpt>
      <trkpt lat="44.93156" lon="3.91143">
        <ele>803</ele>
        <time>2021-04-29T14:14:57Z</time>
      </trkpt>
      <trkpt lat="44.93158" lon="3.91146">
        <ele>804</ele>
        <time>2021-04-29T14:14:58Z</time>
      </trkpt>
      <trkpt lat="44.9316" lon="3.91148">
        <ele>804</ele>
        <time>2021-04-29T14:14:59Z</time>
      </trkpt>
      <trkpt lat="44.93161" lon="3.91151">
        <ele>804</ele>
        <time>2021-04-29T14:15:00Z</time>
      </trkpt>
      <trkpt lat="44.93165" lon="3.91156">
        <ele>804</ele>
        <time>2021-04-29T14:15:01Z</time>
      </trkpt>
      <trkpt lat="44.93167" lon="3.91158">
        <ele>804</ele>
        <time>2021-04-29T14:15:03Z</time>
      </trkpt>
      <trkpt lat="44.93169" lon="3.9116">
        <ele>804</ele>
        <time>2021-04-29T14:15:04Z</time>
      </trkpt>
      <trkpt lat="44.93171" lon="3.91162">
        <ele>804</ele>
        <time>2021-04-29T14:15:05Z</time>
      </trkpt>
      <trkpt lat="44.93173" lon="3.91163">
        <ele>805</ele>
        <time>2021-04-29T14:15:06Z</time>
      </trkpt>
      <trkpt lat="44.93176" lon="3.91164">
        <ele>805</ele>
        <time>2021-04-29T14:15:07Z</time>
      </trkpt>
      <trkpt lat="44.93178" lon="3.91165">
        <ele>805</ele>
        <time>2021-04-29T14:15:08Z</time>
      </trkpt>
      <trkpt lat="44.93181" lon="3.91165">
        <ele>805</ele>
        <time>2021-04-29T14:15:09Z</time>
      </trkpt>
      <trkpt lat="44.93184" lon="3.91165">
        <ele>805</ele>
        <time>2021-04-29T14:15:10Z</time>
      </trkpt>
      <trkpt lat="44.93188" lon="3.91165">
        <ele>806</ele>
        <time>2021-04-29T14:15:11Z</time>
      </trkpt>
      <trkpt lat="44.93191" lon="3.91164">
        <ele>806</ele>
        <time>2021-04-29T14:15:12Z</time>
      </trkpt>
      <trkpt lat="44.93194" lon="3.91163">
        <ele>806</ele>
        <time>2021-04-29T14:15:13Z</time>
      </trkpt>
      <trkpt lat="44.93198" lon="3.91162">
        <ele>806</ele>
        <time>2021-04-29T14:15:14Z</time>
      </trkpt>
      <trkpt lat="44.93205" lon="3.91161">
        <ele>806</ele>
        <time>2021-04-29T14:15:15Z</time>
      </trkpt>
      <trkpt lat="44.93208" lon="3.9116">
        <ele>807</ele>
        <time>2021-04-29T14:15:17Z</time>
      </trkpt>
      <trkpt lat="44.9321" lon="3.9116">
        <ele>807</ele>
        <time>2021-04-29T14:15:18Z</time>
      </trkpt>
      <trkpt lat="44.93213" lon="3.91159">
        <ele>807</ele>
        <time>2021-04-29T14:15:19Z</time>
      </trkpt>
      <trkpt lat="44.93219" lon="3.9116">
        <ele>807</ele>
        <time>2021-04-29T14:15:20Z</time>
      </trkpt>
      <trkpt lat="44.93222" lon="3.91161">
        <ele>807</ele>
        <time>2021-04-29T14:15:22Z</time>
      </trkpt>
      <trkpt lat="44.93225" lon="3.91162">
        <ele>808</ele>
        <time>2021-04-29T14:15:23Z</time>
      </trkpt>
      <trkpt lat="44.93228" lon="3.91164">
        <ele>808</ele>
        <time>2021-04-29T14:15:24Z</time>
      </trkpt>
      <trkpt lat="44.93231" lon="3.91165">
        <ele>808</ele>
        <time>2021-04-29T14:15:25Z</time>
      </trkpt>
      <trkpt lat="44.93234" lon="3.91166">
        <ele>808</ele>
        <time>2021-04-29T14:15:26Z</time>
      </trkpt>
      <trkpt lat="44.93237" lon="3.91166">
        <ele>808</ele>
        <time>2021-04-29T14:15:27Z</time>
      </trkpt>
      <trkpt lat="44.9324" lon="3.91167">
        <ele>808</ele>
        <time>2021-04-29T14:15:28Z</time>
      </trkpt>
      <trkpt lat="44.93243" lon="3.91167">
        <ele>808</ele>
        <time>2021-04-29T14:15:29Z</time>
      </trkpt>
      <trkpt lat="44.93247" lon="3.91167">
        <ele>809</ele>
        <time>2021-04-29T14:15:30Z</time>
      </trkpt>
      <trkpt lat="44.9325" lon="3.91168">
        <ele>809</ele>
        <time>2021-04-29T14:15:31Z</time>
      </trkpt>
      <trkpt lat="44.93253" lon="3.91169">
        <ele>809</ele>
        <time>2021-04-29T14:15:32Z</time>
      </trkpt>
      <trkpt lat="44.93256" lon="3.91169">
        <ele>810</ele>
        <time>2021-04-29T14:15:33Z</time>
      </trkpt>
      <trkpt lat="44.93265" lon="3.9117">
        <ele>810</ele>
        <time>2021-04-29T14:15:35Z</time>
      </trkpt>
      <trkpt lat="44.93268" lon="3.9117">
        <ele>810</ele>
        <time>2021-04-29T14:15:36Z</time>
      </trkpt>
      <trkpt lat="44.93272" lon="3.9117">
        <ele>811</ele>
        <time>2021-04-29T14:15:37Z</time>
      </trkpt>
      <trkpt lat="44.93276" lon="3.91169">
        <ele>811</ele>
        <time>2021-04-29T14:15:38Z</time>
      </trkpt>
      <trkpt lat="44.93283" lon="3.91169">
        <ele>811</ele>
        <time>2021-04-29T14:15:39Z</time>
      </trkpt>
      <trkpt lat="44.93289" lon="3.91168">
        <ele>812</ele>
        <time>2021-04-29T14:15:42Z</time>
      </trkpt>
      <trkpt lat="44.93293" lon="3.91168">
        <ele>812</ele>
        <time>2021-04-29T14:15:43Z</time>
      </trkpt>
      <trkpt lat="44.93297" lon="3.91168">
        <ele>812</ele>
        <time>2021-04-29T14:15:44Z</time>
      </trkpt>
      <trkpt lat="44.93302" lon="3.91168">
        <ele>812</ele>
        <time>2021-04-29T14:15:45Z</time>
      </trkpt>
      <trkpt lat="44.93305" lon="3.91169">
        <ele>813</ele>
        <time>2021-04-29T14:15:46Z</time>
      </trkpt>
      <trkpt lat="44.93308" lon="3.91171">
        <ele>813</ele>
        <time>2021-04-29T14:15:47Z</time>
      </trkpt>
      <trkpt lat="44.93312" lon="3.91173">
        <ele>813</ele>
        <time>2021-04-29T14:15:48Z</time>
      </trkpt>
      <trkpt lat="44.93316" lon="3.91175">
        <ele>813</ele>
        <time>2021-04-29T14:15:49Z</time>
      </trkpt>
      <trkpt lat="44.93326" lon="3.91178">
        <ele>814</ele>
        <time>2021-04-29T14:15:52Z</time>
      </trkpt>
      <trkpt lat="44.93333" lon="3.91181">
        <ele>814</ele>
        <time>2021-04-29T14:15:54Z</time>
      </trkpt>
      <trkpt lat="44.93336" lon="3.91183">
        <ele>815</ele>
        <time>2021-04-29T14:15:55Z</time>
      </trkpt>
      <trkpt lat="44.93339" lon="3.91184">
        <ele>815</ele>
        <time>2021-04-29T14:15:56Z</time>
      </trkpt>
      <trkpt lat="44.93342" lon="3.91185">
        <ele>815</ele>
        <time>2021-04-29T14:15:57Z</time>
      </trkpt>
      <trkpt lat="44.93352" lon="3.9119">
        <ele>817</ele>
        <time>2021-04-29T14:16:01Z</time>
      </trkpt>
      <trkpt lat="44.93359" lon="3.91192">
        <ele>818</ele>
        <time>2021-04-29T14:16:03Z</time>
      </trkpt>
      <trkpt lat="44.93362" lon="3.91192">
        <ele>818</ele>
        <time>2021-04-29T14:16:04Z</time>
      </trkpt>
      <trkpt lat="44.93366" lon="3.91192">
        <ele>818</ele>
        <time>2021-04-29T14:16:05Z</time>
      </trkpt>
      <trkpt lat="44.9337" lon="3.91193">
        <ele>819</ele>
        <time>2021-04-29T14:16:06Z</time>
      </trkpt>
      <trkpt lat="44.93376" lon="3.91193">
        <ele>820</ele>
        <time>2021-04-29T14:16:08Z</time>
      </trkpt>
      <trkpt lat="44.93379" lon="3.91194">
        <ele>820</ele>
        <time>2021-04-29T14:16:09Z</time>
      </trkpt>
      <trkpt lat="44.93382" lon="3.91196">
        <ele>820</ele>
        <time>2021-04-29T14:16:10Z</time>
      </trkpt>
      <trkpt lat="44.93385" lon="3.91197">
        <ele>821</ele>
        <time>2021-04-29T14:16:11Z</time>
      </trkpt>
      <trkpt lat="44.93388" lon="3.91199">
        <ele>821</ele>
        <time>2021-04-29T14:16:12Z</time>
      </trkpt>
      <trkpt lat="44.93392" lon="3.91199">
        <ele>821</ele>
        <time>2021-04-29T14:16:13Z</time>
      </trkpt>
      <trkpt lat="44.93395" lon="3.912">
        <ele>821</ele>
        <time>2021-04-29T14:16:14Z</time>
      </trkpt>
      <trkpt lat="44.93398" lon="3.91201">
        <ele>822</ele>
        <time>2021-04-29T14:16:15Z</time>
      </trkpt>
      <trkpt lat="44.93407" lon="3.91202">
        <ele>822</ele>
        <time>2021-04-29T14:16:17Z</time>
      </trkpt>
      <trkpt lat="44.93417" lon="3.91205">
        <ele>823</ele>
        <time>2021-04-29T14:16:21Z</time>
      </trkpt>
      <trkpt lat="44.93429" lon="3.91205">
        <ele>825</ele>
        <time>2021-04-29T14:16:24Z</time>
      </trkpt>
      <trkpt lat="44.93439" lon="3.91205">
        <ele>826</ele>
        <time>2021-04-29T14:16:27Z</time>
      </trkpt>
      <trkpt lat="44.93442" lon="3.91206">
        <ele>826</ele>
        <time>2021-04-29T14:16:28Z</time>
      </trkpt>
      <trkpt lat="44.93448" lon="3.91206">
        <ele>827</ele>
        <time>2021-04-29T14:16:30Z</time>
      </trkpt>
      <trkpt lat="44.93457" lon="3.91206">
        <ele>828</ele>
        <time>2021-04-29T14:16:33Z</time>
      </trkpt>
      <trkpt lat="44.93459" lon="3.91206">
        <ele>829</ele>
        <time>2021-04-29T14:16:34Z</time>
      </trkpt>
      <trkpt lat="44.93462" lon="3.91205">
        <ele>829</ele>
        <time>2021-04-29T14:16:35Z</time>
      </trkpt>
      <trkpt lat="44.93465" lon="3.91204">
        <ele>830</ele>
        <time>2021-04-29T14:16:36Z</time>
      </trkpt>
      <trkpt lat="44.9347" lon="3.91202">
        <ele>831</ele>
        <time>2021-04-29T14:16:38Z</time>
      </trkpt>
      <trkpt lat="44.93473" lon="3.91202">
        <ele>832</ele>
        <time>2021-04-29T14:16:39Z</time>
      </trkpt>
      <trkpt lat="44.93477" lon="3.91202">
        <ele>832</ele>
        <time>2021-04-29T14:16:40Z</time>
      </trkpt>
      <trkpt lat="44.93479" lon="3.912">
        <ele>833</ele>
        <time>2021-04-29T14:16:41Z</time>
      </trkpt>
      <trkpt lat="44.93482" lon="3.91199">
        <ele>834</ele>
        <time>2021-04-29T14:16:42Z</time>
      </trkpt>
      <trkpt lat="44.93486" lon="3.91199">
        <ele>835</ele>
        <time>2021-04-29T14:16:43Z</time>
      </trkpt>
      <trkpt lat="44.93489" lon="3.91198">
        <ele>835</ele>
        <time>2021-04-29T14:16:44Z</time>
      </trkpt>
      <trkpt lat="44.93492" lon="3.91197">
        <ele>836</ele>
        <time>2021-04-29T14:16:45Z</time>
      </trkpt>
      <trkpt lat="44.93495" lon="3.91196">
        <ele>836</ele>
        <time>2021-04-29T14:16:46Z</time>
      </trkpt>
      <trkpt lat="44.93498" lon="3.91195">
        <ele>837</ele>
        <time>2021-04-29T14:16:47Z</time>
      </trkpt>
      <trkpt lat="44.93501" lon="3.91195">
        <ele>837</ele>
        <time>2021-04-29T14:16:48Z</time>
      </trkpt>
      <trkpt lat="44.93504" lon="3.91196">
        <ele>838</ele>
        <time>2021-04-29T14:16:49Z</time>
      </trkpt>
      <trkpt lat="44.93508" lon="3.91198">
        <ele>838</ele>
        <time>2021-04-29T14:16:50Z</time>
      </trkpt>
      <trkpt lat="44.93511" lon="3.91201">
        <ele>838</ele>
        <time>2021-04-29T14:16:51Z</time>
      </trkpt>
      <trkpt lat="44.93514" lon="3.91203">
        <ele>839</ele>
        <time>2021-04-29T14:16:52Z</time>
      </trkpt>
      <trkpt lat="44.93517" lon="3.91204">
        <ele>839</ele>
        <time>2021-04-29T14:16:53Z</time>
      </trkpt>
      <trkpt lat="44.9352" lon="3.91206">
        <ele>840</ele>
        <time>2021-04-29T14:16:54Z</time>
      </trkpt>
      <trkpt lat="44.93526" lon="3.91206">
        <ele>840</ele>
        <time>2021-04-29T14:16:55Z</time>
      </trkpt>
      <trkpt lat="44.93529" lon="3.91207">
        <ele>841</ele>
        <time>2021-04-29T14:16:57Z</time>
      </trkpt>
      <trkpt lat="44.93532" lon="3.91207">
        <ele>842</ele>
        <time>2021-04-29T14:16:58Z</time>
      </trkpt>
      <trkpt lat="44.93535" lon="3.91206">
        <ele>842</ele>
        <time>2021-04-29T14:16:59Z</time>
      </trkpt>
      <trkpt lat="44.93538" lon="3.91207">
        <ele>843</ele>
        <time>2021-04-29T14:17:00Z</time>
      </trkpt>
      <trkpt lat="44.9354" lon="3.91207">
        <ele>843</ele>
        <time>2021-04-29T14:17:01Z</time>
      </trkpt>
      <trkpt lat="44.93543" lon="3.91208">
        <ele>843</ele>
        <time>2021-04-29T14:17:02Z</time>
      </trkpt>
      <trkpt lat="44.93546" lon="3.91209">
        <ele>844</ele>
        <time>2021-04-29T14:17:03Z</time>
      </trkpt>
      <trkpt lat="44.93549" lon="3.9121">
        <ele>844</ele>
        <time>2021-04-29T14:17:04Z</time>
      </trkpt>
      <trkpt lat="44.93551" lon="3.91211">
        <ele>845</ele>
        <time>2021-04-29T14:17:05Z</time>
      </trkpt>
      <trkpt lat="44.93554" lon="3.91212">
        <ele>845</ele>
        <time>2021-04-29T14:17:06Z</time>
      </trkpt>
      <trkpt lat="44.93556" lon="3.91212">
        <ele>845</ele>
        <time>2021-04-29T14:17:07Z</time>
      </trkpt>
      <trkpt lat="44.93559" lon="3.91211">
        <ele>846</ele>
        <time>2021-04-29T14:17:08Z</time>
      </trkpt>
      <trkpt lat="44.93562" lon="3.91211">
        <ele>846</ele>
        <time>2021-04-29T14:17:09Z</time>
      </trkpt>
      <trkpt lat="44.93565" lon="3.91211">
        <ele>846</ele>
        <time>2021-04-29T14:17:10Z</time>
      </trkpt>
      <trkpt lat="44.93568" lon="3.91211">
        <ele>847</ele>
        <time>2021-04-29T14:17:11Z</time>
      </trkpt>
      <trkpt lat="44.93571" lon="3.91212">
        <ele>847</ele>
        <time>2021-04-29T14:17:12Z</time>
      </trkpt>
      <trkpt lat="44.93574" lon="3.91213">
        <ele>847</ele>
        <time>2021-04-29T14:17:13Z</time>
      </trkpt>
      <trkpt lat="44.9358" lon="3.91215">
        <ele>848</ele>
        <time>2021-04-29T14:17:14Z</time>
      </trkpt>
      <trkpt lat="44.93583" lon="3.91217">
        <ele>849</ele>
        <time>2021-04-29T14:17:16Z</time>
      </trkpt>
      <trkpt lat="44.93586" lon="3.91219">
        <ele>849</ele>
        <time>2021-04-29T14:17:17Z</time>
      </trkpt>
      <trkpt lat="44.93589" lon="3.91222">
        <ele>849</ele>
        <time>2021-04-29T14:17:18Z</time>
      </trkpt>
      <trkpt lat="44.93592" lon="3.91226">
        <ele>850</ele>
        <time>2021-04-29T14:17:19Z</time>
      </trkpt>
      <trkpt lat="44.93596" lon="3.91229">
        <ele>850</ele>
        <time>2021-04-29T14:17:20Z</time>
      </trkpt>
      <trkpt lat="44.93599" lon="3.91232">
        <ele>850</ele>
        <time>2021-04-29T14:17:21Z</time>
      </trkpt>
      <trkpt lat="44.93601" lon="3.91235">
        <ele>850</ele>
        <time>2021-04-29T14:17:22Z</time>
      </trkpt>
      <trkpt lat="44.93604" lon="3.91244">
        <ele>850</ele>
        <time>2021-04-29T14:17:23Z</time>
      </trkpt>
      <trkpt lat="44.93605" lon="3.91249">
        <ele>851</ele>
        <time>2021-04-29T14:17:24Z</time>
      </trkpt>
      <trkpt lat="44.93607" lon="3.91255">
        <ele>851</ele>
        <time>2021-04-29T14:17:26Z</time>
      </trkpt>
      <trkpt lat="44.93608" lon="3.91261">
        <ele>851</ele>
        <time>2021-04-29T14:17:27Z</time>
      </trkpt>
      <trkpt lat="44.9361" lon="3.91266">
        <ele>851</ele>
        <time>2021-04-29T14:17:28Z</time>
      </trkpt>
      <trkpt lat="44.93616" lon="3.91278">
        <ele>851</ele>
        <time>2021-04-29T14:17:30Z</time>
      </trkpt>
      <trkpt lat="44.9362" lon="3.91295">
        <ele>852</ele>
        <time>2021-04-29T14:17:32Z</time>
      </trkpt>
      <trkpt lat="44.93621" lon="3.91314">
        <ele>852</ele>
        <time>2021-04-29T14:17:33Z</time>
      </trkpt>
      <trkpt lat="44.93622" lon="3.91334">
        <ele>852</ele>
        <time>2021-04-29T14:17:36Z</time>
      </trkpt>
      <trkpt lat="44.93622" lon="3.91351">
        <ele>853</ele>
        <time>2021-04-29T14:17:38Z</time>
      </trkpt>
      <trkpt lat="44.93621" lon="3.91368">
        <ele>853</ele>
        <time>2021-04-29T14:17:40Z</time>
      </trkpt>
      <trkpt lat="44.93622" lon="3.91385">
        <ele>854</ele>
        <time>2021-04-29T14:17:42Z</time>
      </trkpt>
      <trkpt lat="44.93626" lon="3.91405">
        <ele>854</ele>
        <time>2021-04-29T14:17:44Z</time>
      </trkpt>
      <trkpt lat="44.93632" lon="3.91426">
        <ele>853</ele>
        <time>2021-04-29T14:17:46Z</time>
      </trkpt>
      <trkpt lat="44.93637" lon="3.91448">
        <ele>853</ele>
        <time>2021-04-29T14:17:48Z</time>
      </trkpt>
      <trkpt lat="44.93638" lon="3.91461">
        <ele>853</ele>
        <time>2021-04-29T14:17:49Z</time>
      </trkpt>
      <trkpt lat="44.93639" lon="3.91474">
        <ele>852</ele>
        <time>2021-04-29T14:17:50Z</time>
      </trkpt>
      <trkpt lat="44.9364" lon="3.91488">
        <ele>852</ele>
        <time>2021-04-29T14:17:51Z</time>
      </trkpt>
      <trkpt lat="44.93641" lon="3.91501">
        <ele>852</ele>
        <time>2021-04-29T14:17:52Z</time>
      </trkpt>
      <trkpt lat="44.93645" lon="3.91522">
        <ele>851</ele>
        <time>2021-04-29T14:17:54Z</time>
      </trkpt>
      <trkpt lat="44.93649" lon="3.91544">
        <ele>849</ele>
        <time>2021-04-29T14:17:56Z</time>
      </trkpt>
      <trkpt lat="44.93653" lon="3.9157">
        <ele>848</ele>
        <time>2021-04-29T14:17:58Z</time>
      </trkpt>
      <trkpt lat="44.93654" lon="3.91584">
        <ele>847</ele>
        <time>2021-04-29T14:17:59Z</time>
      </trkpt>
      <trkpt lat="44.93654" lon="3.91598">
        <ele>846</ele>
        <time>2021-04-29T14:18:00Z</time>
      </trkpt>
      <trkpt lat="44.9365" lon="3.91611">
        <ele>845</ele>
        <time>2021-04-29T14:18:01Z</time>
      </trkpt>
      <trkpt lat="44.93647" lon="3.91624">
        <ele>844</ele>
        <time>2021-04-29T14:18:02Z</time>
      </trkpt>
      <trkpt lat="44.93645" lon="3.91636">
        <ele>843</ele>
        <time>2021-04-29T14:18:03Z</time>
      </trkpt>
      <trkpt lat="44.93641" lon="3.91654">
        <ele>843</ele>
        <time>2021-04-29T14:18:05Z</time>
      </trkpt>
      <trkpt lat="44.93646" lon="3.91666">
        <ele>841</ele>
        <time>2021-04-29T14:18:09Z</time>
      </trkpt>
      <trkpt lat="44.93657" lon="3.91667">
        <ele>840</ele>
        <time>2021-04-29T14:18:13Z</time>
      </trkpt>
      <trkpt lat="44.93666" lon="3.91669">
        <ele>838</ele>
        <time>2021-04-29T14:18:16Z</time>
      </trkpt>
      <trkpt lat="44.93675" lon="3.91671">
        <ele>837</ele>
        <time>2021-04-29T14:18:20Z</time>
      </trkpt>
      <trkpt lat="44.93687" lon="3.91672">
        <ele>835</ele>
        <time>2021-04-29T14:18:25Z</time>
      </trkpt>
      <trkpt lat="44.93698" lon="3.91674">
        <ele>833</ele>
        <time>2021-04-29T14:18:29Z</time>
      </trkpt>
      <trkpt lat="44.93707" lon="3.91676">
        <ele>832</ele>
        <time>2021-04-29T14:18:32Z</time>
      </trkpt>
      <trkpt lat="44.93714" lon="3.91677">
        <ele>831</ele>
        <time>2021-04-29T14:18:35Z</time>
      </trkpt>
      <trkpt lat="44.93717" lon="3.91677">
        <ele>831</ele>
        <time>2021-04-29T14:18:36Z</time>
      </trkpt>
      <trkpt lat="44.9372" lon="3.91678">
        <ele>830</ele>
        <time>2021-04-29T14:18:37Z</time>
      </trkpt>
      <trkpt lat="44.93723" lon="3.9168">
        <ele>829</ele>
        <time>2021-04-29T14:18:38Z</time>
      </trkpt>
      <trkpt lat="44.93727" lon="3.9168">
        <ele>828</ele>
        <time>2021-04-29T14:18:39Z</time>
      </trkpt>
      <trkpt lat="44.93731" lon="3.9168">
        <ele>828</ele>
        <time>2021-04-29T14:18:40Z</time>
      </trkpt>
      <trkpt lat="44.93735" lon="3.91679">
        <ele>827</ele>
        <time>2021-04-29T14:18:41Z</time>
      </trkpt>
      <trkpt lat="44.9374" lon="3.9168">
        <ele>827</ele>
        <time>2021-04-29T14:18:42Z</time>
      </trkpt>
      <trkpt lat="44.9375" lon="3.9168">
        <ele>826</ele>
        <time>2021-04-29T14:18:44Z</time>
      </trkpt>
      <trkpt lat="44.93759" lon="3.91677">
        <ele>824</ele>
        <time>2021-04-29T14:18:46Z</time>
      </trkpt>
      <trkpt lat="44.9377" lon="3.91674">
        <ele>822</ele>
        <time>2021-04-29T14:18:48Z</time>
      </trkpt>
      <trkpt lat="44.9378" lon="3.91676">
        <ele>821</ele>
        <time>2021-04-29T14:18:49Z</time>
      </trkpt>
      <trkpt lat="44.93792" lon="3.91679">
        <ele>817</ele>
        <time>2021-04-29T14:18:53Z</time>
      </trkpt>
      <trkpt lat="44.93803" lon="3.9168">
        <ele>814</ele>
        <time>2021-04-29T14:18:56Z</time>
      </trkpt>
      <trkpt lat="44.93814" lon="3.91685">
        <ele>811</ele>
        <time>2021-04-29T14:18:59Z</time>
      </trkpt>
      <trkpt lat="44.93821" lon="3.91699">
        <ele>808</ele>
        <time>2021-04-29T14:19:02Z</time>
      </trkpt>
      <trkpt lat="44.93821" lon="3.91703">
        <ele>807</ele>
        <time>2021-04-29T14:19:03Z</time>
      </trkpt>
      <trkpt lat="44.93821" lon="3.91707">
        <ele>806</ele>
        <time>2021-04-29T14:19:04Z</time>
      </trkpt>
      <trkpt lat="44.9382" lon="3.9171">
        <ele>806</ele>
        <time>2021-04-29T14:19:05Z</time>
      </trkpt>
      <trkpt lat="44.93819" lon="3.91713">
        <ele>805</ele>
        <time>2021-04-29T14:19:06Z</time>
      </trkpt>
      <trkpt lat="44.93819" lon="3.91717">
        <ele>805</ele>
        <time>2021-04-29T14:19:07Z</time>
      </trkpt>
      <trkpt lat="44.93817" lon="3.91723">
        <ele>804</ele>
        <time>2021-04-29T14:19:08Z</time>
      </trkpt>
      <trkpt lat="44.93816" lon="3.91727">
        <ele>802</ele>
        <time>2021-04-29T14:19:11Z</time>
      </trkpt>
      <trkpt lat="44.93816" lon="3.91728">
        <ele>801</ele>
        <time>2021-04-29T14:19:15Z</time>
      </trkpt>
      <trkpt lat="44.93818" lon="3.91729">
        <ele>785</ele>
        <time>2021-04-29T14:26:12Z</time>
      </trkpt>
      <trkpt lat="44.93817" lon="3.91737">
        <ele>785</ele>
        <time>2021-04-29T14:26:13Z</time>
      </trkpt>
      <trkpt lat="44.93817" lon="3.91741">
        <ele>785</ele>
        <time>2021-04-29T14:26:15Z</time>
      </trkpt>
      <trkpt lat="44.93817" lon="3.91746">
        <ele>785</ele>
        <time>2021-04-29T14:26:16Z</time>
      </trkpt>
      <trkpt lat="44.93818" lon="3.9175">
        <ele>785</ele>
        <time>2021-04-29T14:26:17Z</time>
      </trkpt>
      <trkpt lat="44.93818" lon="3.91755">
        <ele>785</ele>
        <time>2021-04-29T14:26:18Z</time>
      </trkpt>
      <trkpt lat="44.93819" lon="3.9176">
        <ele>785</ele>
        <time>2021-04-29T14:26:19Z</time>
      </trkpt>
      <trkpt lat="44.93819" lon="3.91766">
        <ele>785</ele>
        <time>2021-04-29T14:26:20Z</time>
      </trkpt>
      <trkpt lat="44.93819" lon="3.91771">
        <ele>785</ele>
        <time>2021-04-29T14:26:21Z</time>
      </trkpt>
      <trkpt lat="44.93819" lon="3.91778">
        <ele>785</ele>
        <time>2021-04-29T14:26:22Z</time>
      </trkpt>
      <trkpt lat="44.93819" lon="3.91784">
        <ele>785</ele>
        <time>2021-04-29T14:26:23Z</time>
      </trkpt>
      <trkpt lat="44.93819" lon="3.9179">
        <ele>785</ele>
        <time>2021-04-29T14:26:24Z</time>
      </trkpt>
      <trkpt lat="44.93818" lon="3.91796">
        <ele>785</ele>
        <time>2021-04-29T14:26:25Z</time>
      </trkpt>
      <trkpt lat="44.93817" lon="3.91802">
        <ele>785</ele>
        <time>2021-04-29T14:26:26Z</time>
      </trkpt>
      <trkpt lat="44.93815" lon="3.91808">
        <ele>785</ele>
        <time>2021-04-29T14:26:27Z</time>
      </trkpt>
      <trkpt lat="44.93814" lon="3.91814">
        <ele>785</ele>
        <time>2021-04-29T14:26:28Z</time>
      </trkpt>
      <trkpt lat="44.93811" lon="3.91819">
        <ele>785</ele>
        <time>2021-04-29T14:26:29Z</time>
      </trkpt>
      <trkpt lat="44.93809" lon="3.91824">
        <ele>785</ele>
        <time>2021-04-29T14:26:30Z</time>
      </trkpt>
      <trkpt lat="44.93806" lon="3.91828">
        <ele>785</ele>
        <time>2021-04-29T14:26:31Z</time>
      </trkpt>
      <trkpt lat="44.93799" lon="3.91837">
        <ele>785</ele>
        <time>2021-04-29T14:26:32Z</time>
      </trkpt>
      <trkpt lat="44.93796" lon="3.91841">
        <ele>785</ele>
        <time>2021-04-29T14:26:34Z</time>
      </trkpt>
      <trkpt lat="44.93792" lon="3.91844">
        <ele>785</ele>
        <time>2021-04-29T14:26:35Z</time>
      </trkpt>
      <trkpt lat="44.93784" lon="3.9185">
        <ele>785</ele>
        <time>2021-04-29T14:26:36Z</time>
      </trkpt>
      <trkpt lat="44.9378" lon="3.91853">
        <ele>784</ele>
        <time>2021-04-29T14:26:38Z</time>
      </trkpt>
      <trkpt lat="44.93775" lon="3.91856">
        <ele>784</ele>
        <time>2021-04-29T14:26:39Z</time>
      </trkpt>
      <trkpt lat="44.93771" lon="3.91859">
        <ele>784</ele>
        <time>2021-04-29T14:26:40Z</time>
      </trkpt>
      <trkpt lat="44.93766" lon="3.91863">
        <ele>784</ele>
        <time>2021-04-29T14:26:41Z</time>
      </trkpt>
      <trkpt lat="44.93761" lon="3.91866">
        <ele>784</ele>
        <time>2021-04-29T14:26:42Z</time>
      </trkpt>
      <trkpt lat="44.93756" lon="3.91869">
        <ele>783</ele>
        <time>2021-04-29T14:26:43Z</time>
      </trkpt>
      <trkpt lat="44.93751" lon="3.91871">
        <ele>783</ele>
        <time>2021-04-29T14:26:44Z</time>
      </trkpt>
      <trkpt lat="44.93745" lon="3.91873">
        <ele>783</ele>
        <time>2021-04-29T14:26:45Z</time>
      </trkpt>
      <trkpt lat="44.9374" lon="3.91875">
        <ele>783</ele>
        <time>2021-04-29T14:26:46Z</time>
      </trkpt>
      <trkpt lat="44.93734" lon="3.91875">
        <ele>783</ele>
        <time>2021-04-29T14:26:47Z</time>
      </trkpt>
      <trkpt lat="44.93728" lon="3.91875">
        <ele>782</ele>
        <time>2021-04-29T14:26:48Z</time>
      </trkpt>
      <trkpt lat="44.93723" lon="3.91875">
        <ele>782</ele>
        <time>2021-04-29T14:26:49Z</time>
      </trkpt>
      <trkpt lat="44.93717" lon="3.91876">
        <ele>782</ele>
        <time>2021-04-29T14:26:50Z</time>
      </trkpt>
      <trkpt lat="44.93712" lon="3.91878">
        <ele>782</ele>
        <time>2021-04-29T14:26:51Z</time>
      </trkpt>
      <trkpt lat="44.93706" lon="3.91881">
        <ele>782</ele>
        <time>2021-04-29T14:26:52Z</time>
      </trkpt>
      <trkpt lat="44.937" lon="3.91885">
        <ele>781</ele>
        <time>2021-04-29T14:26:53Z</time>
      </trkpt>
      <trkpt lat="44.93694" lon="3.91891">
        <ele>781</ele>
        <time>2021-04-29T14:26:54Z</time>
      </trkpt>
      <trkpt lat="44.93689" lon="3.91897">
        <ele>781</ele>
        <time>2021-04-29T14:26:55Z</time>
      </trkpt>
      <trkpt lat="44.93683" lon="3.91903">
        <ele>781</ele>
        <time>2021-04-29T14:26:56Z</time>
      </trkpt>
      <trkpt lat="44.93678" lon="3.9191">
        <ele>781</ele>
        <time>2021-04-29T14:26:57Z</time>
      </trkpt>
      <trkpt lat="44.93673" lon="3.91918">
        <ele>781</ele>
        <time>2021-04-29T14:26:58Z</time>
      </trkpt>
      <trkpt lat="44.93669" lon="3.91927">
        <ele>780</ele>
        <time>2021-04-29T14:26:59Z</time>
      </trkpt>
      <trkpt lat="44.93664" lon="3.91936">
        <ele>780</ele>
        <time>2021-04-29T14:27:00Z</time>
      </trkpt>
      <trkpt lat="44.93661" lon="3.91946">
        <ele>779</ele>
        <time>2021-04-29T14:27:01Z</time>
      </trkpt>
      <trkpt lat="44.93657" lon="3.91956">
        <ele>779</ele>
        <time>2021-04-29T14:27:02Z</time>
      </trkpt>
      <trkpt lat="44.93653" lon="3.91966">
        <ele>778</ele>
        <time>2021-04-29T14:27:03Z</time>
      </trkpt>
      <trkpt lat="44.93649" lon="3.91976">
        <ele>778</ele>
        <time>2021-04-29T14:27:04Z</time>
      </trkpt>
      <trkpt lat="44.93644" lon="3.91986">
        <ele>778</ele>
        <time>2021-04-29T14:27:05Z</time>
      </trkpt>
      <trkpt lat="44.93639" lon="3.91996">
        <ele>777</ele>
        <time>2021-04-29T14:27:06Z</time>
      </trkpt>
      <trkpt lat="44.93633" lon="3.92006">
        <ele>777</ele>
        <time>2021-04-29T14:27:07Z</time>
      </trkpt>
      <trkpt lat="44.93627" lon="3.92015">
        <ele>776</ele>
        <time>2021-04-29T14:27:08Z</time>
      </trkpt>
      <trkpt lat="44.93618" lon="3.92022">
        <ele>776</ele>
        <time>2021-04-29T14:27:09Z</time>
      </trkpt>
      <trkpt lat="44.93603" lon="3.92038">
        <ele>775</ele>
        <time>2021-04-29T14:27:10Z</time>
      </trkpt>
      <trkpt lat="44.93595" lon="3.92048">
        <ele>775</ele>
        <time>2021-04-29T14:27:12Z</time>
      </trkpt>
      <trkpt lat="44.93587" lon="3.92059">
        <ele>774</ele>
        <time>2021-04-29T14:27:13Z</time>
      </trkpt>
      <trkpt lat="44.93578" lon="3.92071">
        <ele>774</ele>
        <time>2021-04-29T14:27:14Z</time>
      </trkpt>
      <trkpt lat="44.9357" lon="3.92082">
        <ele>773</ele>
        <time>2021-04-29T14:27:15Z</time>
      </trkpt>
      <trkpt lat="44.93565" lon="3.92092">
        <ele>773</ele>
        <time>2021-04-29T14:27:16Z</time>
      </trkpt>
      <trkpt lat="44.93563" lon="3.921">
        <ele>773</ele>
        <time>2021-04-29T14:27:17Z</time>
      </trkpt>
      <trkpt lat="44.93564" lon="3.92109">
        <ele>773</ele>
        <time>2021-04-29T14:27:18Z</time>
      </trkpt>
      <trkpt lat="44.93568" lon="3.92115">
        <ele>773</ele>
        <time>2021-04-29T14:27:19Z</time>
      </trkpt>
      <trkpt lat="44.93574" lon="3.92118">
        <ele>773</ele>
        <time>2021-04-29T14:27:20Z</time>
      </trkpt>
      <trkpt lat="44.93585" lon="3.92116">
        <ele>773</ele>
        <time>2021-04-29T14:27:22Z</time>
      </trkpt>
      <trkpt lat="44.93595" lon="3.92109">
        <ele>772</ele>
        <time>2021-04-29T14:27:24Z</time>
      </trkpt>
      <trkpt lat="44.93605" lon="3.92103">
        <ele>772</ele>
        <time>2021-04-29T14:27:26Z</time>
      </trkpt>
      <trkpt lat="44.93611" lon="3.92102">
        <ele>771</ele>
        <time>2021-04-29T14:27:27Z</time>
      </trkpt>
      <trkpt lat="44.9362" lon="3.92098">
        <ele>771</ele>
        <time>2021-04-29T14:27:29Z</time>
      </trkpt>
      <trkpt lat="44.9363" lon="3.92093">
        <ele>770</ele>
        <time>2021-04-29T14:27:31Z</time>
      </trkpt>
      <trkpt lat="44.93635" lon="3.92091">
        <ele>769</ele>
        <time>2021-04-29T14:27:32Z</time>
      </trkpt>
      <trkpt lat="44.93641" lon="3.92089">
        <ele>769</ele>
        <time>2021-04-29T14:27:33Z</time>
      </trkpt>
      <trkpt lat="44.93647" lon="3.92088">
        <ele>769</ele>
        <time>2021-04-29T14:27:34Z</time>
      </trkpt>
      <trkpt lat="44.93652" lon="3.92086">
        <ele>769</ele>
        <time>2021-04-29T14:27:35Z</time>
      </trkpt>
      <trkpt lat="44.93657" lon="3.92084">
        <ele>769</ele>
        <time>2021-04-29T14:27:36Z</time>
      </trkpt>
      <trkpt lat="44.93663" lon="3.92083">
        <ele>768</ele>
        <time>2021-04-29T14:27:37Z</time>
      </trkpt>
      <trkpt lat="44.93668" lon="3.92083">
        <ele>768</ele>
        <time>2021-04-29T14:27:38Z</time>
      </trkpt>
      <trkpt lat="44.93673" lon="3.92083">
        <ele>768</ele>
        <time>2021-04-29T14:27:39Z</time>
      </trkpt>
      <trkpt lat="44.93679" lon="3.92084">
        <ele>768</ele>
        <time>2021-04-29T14:27:40Z</time>
      </trkpt>
      <trkpt lat="44.93684" lon="3.92084">
        <ele>768</ele>
        <time>2021-04-29T14:27:41Z</time>
      </trkpt>
      <trkpt lat="44.93688" lon="3.92085">
        <ele>768</ele>
        <time>2021-04-29T14:27:42Z</time>
      </trkpt>
      <trkpt lat="44.93693" lon="3.92084">
        <ele>768</ele>
        <time>2021-04-29T14:27:43Z</time>
      </trkpt>
      <trkpt lat="44.93698" lon="3.92083">
        <ele>768</ele>
        <time>2021-04-29T14:27:44Z</time>
      </trkpt>
      <trkpt lat="44.93703" lon="3.92082">
        <ele>768</ele>
        <time>2021-04-29T14:27:45Z</time>
      </trkpt>
      <trkpt lat="44.93707" lon="3.92081">
        <ele>768</ele>
        <time>2021-04-29T14:27:46Z</time>
      </trkpt>
      <trkpt lat="44.93712" lon="3.92081">
        <ele>768</ele>
        <time>2021-04-29T14:27:47Z</time>
      </trkpt>
      <trkpt lat="44.9372" lon="3.92085">
        <ele>768</ele>
        <time>2021-04-29T14:27:48Z</time>
      </trkpt>
      <trkpt lat="44.93723" lon="3.92089">
        <ele>769</ele>
        <time>2021-04-29T14:27:50Z</time>
      </trkpt>
      <trkpt lat="44.93726" lon="3.92095">
        <ele>769</ele>
        <time>2021-04-29T14:27:51Z</time>
      </trkpt>
      <trkpt lat="44.93728" lon="3.921">
        <ele>769</ele>
        <time>2021-04-29T14:27:52Z</time>
      </trkpt>
      <trkpt lat="44.93729" lon="3.92106">
        <ele>769</ele>
        <time>2021-04-29T14:27:53Z</time>
      </trkpt>
      <trkpt lat="44.93732" lon="3.92112">
        <ele>770</ele>
        <time>2021-04-29T14:27:54Z</time>
      </trkpt>
      <trkpt lat="44.93735" lon="3.92117">
        <ele>770</ele>
        <time>2021-04-29T14:27:55Z</time>
      </trkpt>
      <trkpt lat="44.93738" lon="3.92122">
        <ele>770</ele>
        <time>2021-04-29T14:27:56Z</time>
      </trkpt>
      <trkpt lat="44.93742" lon="3.92127">
        <ele>769</ele>
        <time>2021-04-29T14:27:57Z</time>
      </trkpt>
      <trkpt lat="44.93746" lon="3.92132">
        <ele>769</ele>
        <time>2021-04-29T14:27:58Z</time>
      </trkpt>
      <trkpt lat="44.93751" lon="3.92137">
        <ele>769</ele>
        <time>2021-04-29T14:27:59Z</time>
      </trkpt>
      <trkpt lat="44.93756" lon="3.92141">
        <ele>769</ele>
        <time>2021-04-29T14:28:00Z</time>
      </trkpt>
      <trkpt lat="44.93761" lon="3.92145">
        <ele>769</ele>
        <time>2021-04-29T14:28:01Z</time>
      </trkpt>
      <trkpt lat="44.93765" lon="3.92149">
        <ele>769</ele>
        <time>2021-04-29T14:28:02Z</time>
      </trkpt>
      <trkpt lat="44.93771" lon="3.92154">
        <ele>769</ele>
        <time>2021-04-29T14:28:03Z</time>
      </trkpt>
      <trkpt lat="44.93776" lon="3.92159">
        <ele>769</ele>
        <time>2021-04-29T14:28:04Z</time>
      </trkpt>
      <trkpt lat="44.93782" lon="3.92165">
        <ele>769</ele>
        <time>2021-04-29T14:28:05Z</time>
      </trkpt>
      <trkpt lat="44.93787" lon="3.92171">
        <ele>769</ele>
        <time>2021-04-29T14:28:06Z</time>
      </trkpt>
      <trkpt lat="44.93798" lon="3.92182">
        <ele>769</ele>
        <time>2021-04-29T14:28:07Z</time>
      </trkpt>
      <trkpt lat="44.93803" lon="3.92187">
        <ele>769</ele>
        <time>2021-04-29T14:28:09Z</time>
      </trkpt>
      <trkpt lat="44.93809" lon="3.92193">
        <ele>770</ele>
        <time>2021-04-29T14:28:10Z</time>
      </trkpt>
      <trkpt lat="44.93814" lon="3.92198">
        <ele>770</ele>
        <time>2021-04-29T14:28:11Z</time>
      </trkpt>
      <trkpt lat="44.93819" lon="3.92204">
        <ele>770</ele>
        <time>2021-04-29T14:28:12Z</time>
      </trkpt>
      <trkpt lat="44.93825" lon="3.92213">
        <ele>770</ele>
        <time>2021-04-29T14:28:13Z</time>
      </trkpt>
      <trkpt lat="44.93829" lon="3.92223">
        <ele>770</ele>
        <time>2021-04-29T14:28:14Z</time>
      </trkpt>
      <trkpt lat="44.93832" lon="3.92234">
        <ele>769</ele>
        <time>2021-04-29T14:28:15Z</time>
      </trkpt>
      <trkpt lat="44.93834" lon="3.92246">
        <ele>769</ele>
        <time>2021-04-29T14:28:16Z</time>
      </trkpt>
      <trkpt lat="44.93837" lon="3.92257">
        <ele>768</ele>
        <time>2021-04-29T14:28:17Z</time>
      </trkpt>
      <trkpt lat="44.9384" lon="3.92269">
        <ele>768</ele>
        <time>2021-04-29T14:28:18Z</time>
      </trkpt>
      <trkpt lat="44.93843" lon="3.9228">
        <ele>767</ele>
        <time>2021-04-29T14:28:19Z</time>
      </trkpt>
      <trkpt lat="44.93846" lon="3.92291">
        <ele>767</ele>
        <time>2021-04-29T14:28:20Z</time>
      </trkpt>
      <trkpt lat="44.93849" lon="3.92301">
        <ele>767</ele>
        <time>2021-04-29T14:28:21Z</time>
      </trkpt>
      <trkpt lat="44.93852" lon="3.92311">
        <ele>766</ele>
        <time>2021-04-29T14:28:22Z</time>
      </trkpt>
      <trkpt lat="44.93856" lon="3.92319">
        <ele>766</ele>
        <time>2021-04-29T14:28:23Z</time>
      </trkpt>
      <trkpt lat="44.9386" lon="3.92327">
        <ele>765</ele>
        <time>2021-04-29T14:28:24Z</time>
      </trkpt>
      <trkpt lat="44.93864" lon="3.92333">
        <ele>765</ele>
        <time>2021-04-29T14:28:25Z</time>
      </trkpt>
      <trkpt lat="44.93871" lon="3.92342">
        <ele>764</ele>
        <time>2021-04-29T14:28:26Z</time>
      </trkpt>
      <trkpt lat="44.93873" lon="3.92344">
        <ele>764</ele>
        <time>2021-04-29T14:28:28Z</time>
      </trkpt>
      <trkpt lat="44.93879" lon="3.92345">
        <ele>765</ele>
        <time>2021-04-29T14:28:40Z</time>
      </trkpt>
      <trkpt lat="44.93886" lon="3.92349">
        <ele>764</ele>
        <time>2021-04-29T14:28:41Z</time>
      </trkpt>
      <trkpt lat="44.9389" lon="3.92351">
        <ele>764</ele>
        <time>2021-04-29T14:28:43Z</time>
      </trkpt>
      <trkpt lat="44.93893" lon="3.92352">
        <ele>764</ele>
        <time>2021-04-29T14:28:44Z</time>
      </trkpt>
      <trkpt lat="44.93898" lon="3.92354">
        <ele>764</ele>
        <time>2021-04-29T14:28:45Z</time>
      </trkpt>
      <trkpt lat="44.93903" lon="3.92354">
        <ele>764</ele>
        <time>2021-04-29T14:28:46Z</time>
      </trkpt>
      <trkpt lat="44.93909" lon="3.92354">
        <ele>763</ele>
        <time>2021-04-29T14:28:47Z</time>
      </trkpt>
      <trkpt lat="44.93915" lon="3.92354">
        <ele>763</ele>
        <time>2021-04-29T14:28:48Z</time>
      </trkpt>
      <trkpt lat="44.93921" lon="3.92353">
        <ele>763</ele>
        <time>2021-04-29T14:28:49Z</time>
      </trkpt>
      <trkpt lat="44.93927" lon="3.92353">
        <ele>762</ele>
        <time>2021-04-29T14:28:50Z</time>
      </trkpt>
      <trkpt lat="44.93932" lon="3.92353">
        <ele>762</ele>
        <time>2021-04-29T14:28:51Z</time>
      </trkpt>
      <trkpt lat="44.93938" lon="3.92353">
        <ele>762</ele>
        <time>2021-04-29T14:28:52Z</time>
      </trkpt>
      <trkpt lat="44.93944" lon="3.92353">
        <ele>763</ele>
        <time>2021-04-29T14:28:53Z</time>
      </trkpt>
      <trkpt lat="44.93949" lon="3.92355">
        <ele>762</ele>
        <time>2021-04-29T14:28:54Z</time>
      </trkpt>
      <trkpt lat="44.93954" lon="3.92357">
        <ele>762</ele>
        <time>2021-04-29T14:28:55Z</time>
      </trkpt>
      <trkpt lat="44.93959" lon="3.92359">
        <ele>762</ele>
        <time>2021-04-29T14:28:56Z</time>
      </trkpt>
      <trkpt lat="44.93964" lon="3.92362">
        <ele>762</ele>
        <time>2021-04-29T14:28:57Z</time>
      </trkpt>
      <trkpt lat="44.93968" lon="3.92365">
        <ele>762</ele>
        <time>2021-04-29T14:28:58Z</time>
      </trkpt>
      <trkpt lat="44.93973" lon="3.92367">
        <ele>762</ele>
        <time>2021-04-29T14:28:59Z</time>
      </trkpt>
      <trkpt lat="44.93982" lon="3.92373">
        <ele>762</ele>
        <time>2021-04-29T14:29:00Z</time>
      </trkpt>
      <trkpt lat="44.93986" lon="3.92375">
        <ele>762</ele>
        <time>2021-04-29T14:29:02Z</time>
      </trkpt>
      <trkpt lat="44.93991" lon="3.92378">
        <ele>762</ele>
        <time>2021-04-29T14:29:03Z</time>
      </trkpt>
      <trkpt lat="44.93996" lon="3.92381">
        <ele>762</ele>
        <time>2021-04-29T14:29:04Z</time>
      </trkpt>
      <trkpt lat="44.94" lon="3.92384">
        <ele>762</ele>
        <time>2021-04-29T14:29:05Z</time>
      </trkpt>
      <trkpt lat="44.94005" lon="3.92387">
        <ele>762</ele>
        <time>2021-04-29T14:29:06Z</time>
      </trkpt>
      <trkpt lat="44.94009" lon="3.92389">
        <ele>762</ele>
        <time>2021-04-29T14:29:07Z</time>
      </trkpt>
      <trkpt lat="44.94015" lon="3.92392">
        <ele>762</ele>
        <time>2021-04-29T14:29:08Z</time>
      </trkpt>
      <trkpt lat="44.9402" lon="3.92393">
        <ele>762</ele>
        <time>2021-04-29T14:29:09Z</time>
      </trkpt>
      <trkpt lat="44.94025" lon="3.92395">
        <ele>762</ele>
        <time>2021-04-29T14:29:10Z</time>
      </trkpt>
      <trkpt lat="44.94031" lon="3.92396">
        <ele>762</ele>
        <time>2021-04-29T14:29:11Z</time>
      </trkpt>
      <trkpt lat="44.94036" lon="3.92396">
        <ele>762</ele>
        <time>2021-04-29T14:29:12Z</time>
      </trkpt>
      <trkpt lat="44.94041" lon="3.92396">
        <ele>762</ele>
        <time>2021-04-29T14:29:13Z</time>
      </trkpt>
      <trkpt lat="44.94047" lon="3.92396">
        <ele>762</ele>
        <time>2021-04-29T14:29:14Z</time>
      </trkpt>
      <trkpt lat="44.94052" lon="3.92397">
        <ele>762</ele>
        <time>2021-04-29T14:29:15Z</time>
      </trkpt>
      <trkpt lat="44.94058" lon="3.92399">
        <ele>762</ele>
        <time>2021-04-29T14:29:16Z</time>
      </trkpt>
      <trkpt lat="44.94063" lon="3.92402">
        <ele>762</ele>
        <time>2021-04-29T14:29:17Z</time>
      </trkpt>
      <trkpt lat="44.94068" lon="3.92406">
        <ele>763</ele>
        <time>2021-04-29T14:29:18Z</time>
      </trkpt>
      <trkpt lat="44.94077" lon="3.92418">
        <ele>763</ele>
        <time>2021-04-29T14:29:19Z</time>
      </trkpt>
      <trkpt lat="44.94081" lon="3.92424">
        <ele>763</ele>
        <time>2021-04-29T14:29:21Z</time>
      </trkpt>
      <trkpt lat="44.94085" lon="3.9243">
        <ele>763</ele>
        <time>2021-04-29T14:29:22Z</time>
      </trkpt>
      <trkpt lat="44.94088" lon="3.92436">
        <ele>763</ele>
        <time>2021-04-29T14:29:23Z</time>
      </trkpt>
      <trkpt lat="44.94092" lon="3.92442">
        <ele>763</ele>
        <time>2021-04-29T14:29:24Z</time>
      </trkpt>
      <trkpt lat="44.94095" lon="3.92448">
        <ele>763</ele>
        <time>2021-04-29T14:29:25Z</time>
      </trkpt>
      <trkpt lat="44.94099" lon="3.92454">
        <ele>763</ele>
        <time>2021-04-29T14:29:26Z</time>
      </trkpt>
      <trkpt lat="44.94102" lon="3.92459">
        <ele>763</ele>
        <time>2021-04-29T14:29:27Z</time>
      </trkpt>
      <trkpt lat="44.94106" lon="3.92464">
        <ele>763</ele>
        <time>2021-04-29T14:29:28Z</time>
      </trkpt>
      <trkpt lat="44.9411" lon="3.92468">
        <ele>764</ele>
        <time>2021-04-29T14:29:29Z</time>
      </trkpt>
      <trkpt lat="44.94114" lon="3.92471">
        <ele>764</ele>
        <time>2021-04-29T14:29:30Z</time>
      </trkpt>
      <trkpt lat="44.94118" lon="3.92474">
        <ele>764</ele>
        <time>2021-04-29T14:29:31Z</time>
      </trkpt>
      <trkpt lat="44.94123" lon="3.92476">
        <ele>764</ele>
        <time>2021-04-29T14:29:32Z</time>
      </trkpt>
      <trkpt lat="44.94128" lon="3.92478">
        <ele>764</ele>
        <time>2021-04-29T14:29:33Z</time>
      </trkpt>
      <trkpt lat="44.94133" lon="3.9248">
        <ele>765</ele>
        <time>2021-04-29T14:29:34Z</time>
      </trkpt>
      <trkpt lat="44.94138" lon="3.92482">
        <ele>765</ele>
        <time>2021-04-29T14:29:35Z</time>
      </trkpt>
      <trkpt lat="44.94143" lon="3.92484">
        <ele>765</ele>
        <time>2021-04-29T14:29:36Z</time>
      </trkpt>
      <trkpt lat="44.94148" lon="3.92485">
        <ele>765</ele>
        <time>2021-04-29T14:29:37Z</time>
      </trkpt>
      <trkpt lat="44.94158" lon="3.92487">
        <ele>765</ele>
        <time>2021-04-29T14:29:38Z</time>
      </trkpt>
      <trkpt lat="44.94164" lon="3.92488">
        <ele>766</ele>
        <time>2021-04-29T14:29:40Z</time>
      </trkpt>
      <trkpt lat="44.9417" lon="3.92489">
        <ele>766</ele>
        <time>2021-04-29T14:29:41Z</time>
      </trkpt>
      <trkpt lat="44.94176" lon="3.92488">
        <ele>767</ele>
        <time>2021-04-29T14:29:42Z</time>
      </trkpt>
      <trkpt lat="44.94181" lon="3.92487">
        <ele>767</ele>
        <time>2021-04-29T14:29:43Z</time>
      </trkpt>
      <trkpt lat="44.94186" lon="3.92485">
        <ele>767</ele>
        <time>2021-04-29T14:29:44Z</time>
      </trkpt>
      <trkpt lat="44.94192" lon="3.92484">
        <ele>767</ele>
        <time>2021-04-29T14:29:45Z</time>
      </trkpt>
      <trkpt lat="44.94197" lon="3.92482">
        <ele>768</ele>
        <time>2021-04-29T14:29:46Z</time>
      </trkpt>
      <trkpt lat="44.94202" lon="3.9248">
        <ele>768</ele>
        <time>2021-04-29T14:29:47Z</time>
      </trkpt>
      <trkpt lat="44.94207" lon="3.92479">
        <ele>768</ele>
        <time>2021-04-29T14:29:48Z</time>
      </trkpt>
      <trkpt lat="44.94213" lon="3.92477">
        <ele>769</ele>
        <time>2021-04-29T14:29:49Z</time>
      </trkpt>
      <trkpt lat="44.94217" lon="3.92476">
        <ele>769</ele>
        <time>2021-04-29T14:29:50Z</time>
      </trkpt>
      <trkpt lat="44.94222" lon="3.92474">
        <ele>769</ele>
        <time>2021-04-29T14:29:51Z</time>
      </trkpt>
      <trkpt lat="44.94228" lon="3.92473">
        <ele>770</ele>
        <time>2021-04-29T14:29:52Z</time>
      </trkpt>
      <trkpt lat="44.94233" lon="3.92472">
        <ele>770</ele>
        <time>2021-04-29T14:29:53Z</time>
      </trkpt>
      <trkpt lat="44.94238" lon="3.9247">
        <ele>770</ele>
        <time>2021-04-29T14:29:54Z</time>
      </trkpt>
      <trkpt lat="44.94243" lon="3.92468">
        <ele>771</ele>
        <time>2021-04-29T14:29:55Z</time>
      </trkpt>
      <trkpt lat="44.94247" lon="3.92467">
        <ele>771</ele>
        <time>2021-04-29T14:29:56Z</time>
      </trkpt>
      <trkpt lat="44.94256" lon="3.92463">
        <ele>771</ele>
        <time>2021-04-29T14:29:57Z</time>
      </trkpt>
      <trkpt lat="44.9426" lon="3.92461">
        <ele>772</ele>
        <time>2021-04-29T14:29:59Z</time>
      </trkpt>
      <trkpt lat="44.94264" lon="3.92459">
        <ele>772</ele>
        <time>2021-04-29T14:30:00Z</time>
      </trkpt>
      <trkpt lat="44.94268" lon="3.92458">
        <ele>773</ele>
        <time>2021-04-29T14:30:01Z</time>
      </trkpt>
      <trkpt lat="44.94273" lon="3.92456">
        <ele>774</ele>
        <time>2021-04-29T14:30:02Z</time>
      </trkpt>
      <trkpt lat="44.94277" lon="3.92455">
        <ele>774</ele>
        <time>2021-04-29T14:30:03Z</time>
      </trkpt>
      <trkpt lat="44.94281" lon="3.92455">
        <ele>774</ele>
        <time>2021-04-29T14:30:04Z</time>
      </trkpt>
      <trkpt lat="44.94286" lon="3.92456">
        <ele>775</ele>
        <time>2021-04-29T14:30:05Z</time>
      </trkpt>
      <trkpt lat="44.9429" lon="3.92458">
        <ele>775</ele>
        <time>2021-04-29T14:30:06Z</time>
      </trkpt>
      <trkpt lat="44.94294" lon="3.92461">
        <ele>775</ele>
        <time>2021-04-29T14:30:07Z</time>
      </trkpt>
      <trkpt lat="44.94298" lon="3.92464">
        <ele>775</ele>
        <time>2021-04-29T14:30:08Z</time>
      </trkpt>
      <trkpt lat="44.94302" lon="3.92466">
        <ele>775</ele>
        <time>2021-04-29T14:30:09Z</time>
      </trkpt>
      <trkpt lat="44.94306" lon="3.92468">
        <ele>776</ele>
        <time>2021-04-29T14:30:10Z</time>
      </trkpt>
      <trkpt lat="44.9431" lon="3.9247">
        <ele>776</ele>
        <time>2021-04-29T14:30:11Z</time>
      </trkpt>
      <trkpt lat="44.94314" lon="3.92471">
        <ele>776</ele>
        <time>2021-04-29T14:30:12Z</time>
      </trkpt>
      <trkpt lat="44.94317" lon="3.92473">
        <ele>777</ele>
        <time>2021-04-29T14:30:13Z</time>
      </trkpt>
      <trkpt lat="44.9432" lon="3.92476">
        <ele>777</ele>
        <time>2021-04-29T14:30:14Z</time>
      </trkpt>
      <trkpt lat="44.94322" lon="3.92481">
        <ele>777</ele>
        <time>2021-04-29T14:30:15Z</time>
      </trkpt>
      <trkpt lat="44.94321" lon="3.92492">
        <ele>778</ele>
        <time>2021-04-29T14:30:16Z</time>
      </trkpt>
      <trkpt lat="44.9432" lon="3.92498">
        <ele>778</ele>
        <time>2021-04-29T14:30:18Z</time>
      </trkpt>
      <trkpt lat="44.94319" lon="3.92503">
        <ele>779</ele>
        <time>2021-04-29T14:30:19Z</time>
      </trkpt>
      <trkpt lat="44.9432" lon="3.92508">
        <ele>779</ele>
        <time>2021-04-29T14:30:20Z</time>
      </trkpt>
      <trkpt lat="44.94321" lon="3.92512">
        <ele>779</ele>
        <time>2021-04-29T14:30:21Z</time>
      </trkpt>
      <trkpt lat="44.94322" lon="3.92517">
        <ele>780</ele>
        <time>2021-04-29T14:30:22Z</time>
      </trkpt>
      <trkpt lat="44.94324" lon="3.92521">
        <ele>780</ele>
        <time>2021-04-29T14:30:23Z</time>
      </trkpt>
      <trkpt lat="44.94326" lon="3.92526">
        <ele>780</ele>
        <time>2021-04-29T14:30:24Z</time>
      </trkpt>
      <trkpt lat="44.94327" lon="3.92531">
        <ele>781</ele>
        <time>2021-04-29T14:30:25Z</time>
      </trkpt>
      <trkpt lat="44.9433" lon="3.92536">
        <ele>781</ele>
        <time>2021-04-29T14:30:26Z</time>
      </trkpt>
      <trkpt lat="44.94332" lon="3.9254">
        <ele>781</ele>
        <time>2021-04-29T14:30:27Z</time>
      </trkpt>
      <trkpt lat="44.94335" lon="3.92544">
        <ele>781</ele>
        <time>2021-04-29T14:30:28Z</time>
      </trkpt>
      <trkpt lat="44.94339" lon="3.92546">
        <ele>781</ele>
        <time>2021-04-29T14:30:29Z</time>
      </trkpt>
      <trkpt lat="44.94342" lon="3.92549">
        <ele>781</ele>
        <time>2021-04-29T14:30:30Z</time>
      </trkpt>
      <trkpt lat="44.94346" lon="3.92552">
        <ele>782</ele>
        <time>2021-04-29T14:30:31Z</time>
      </trkpt>
      <trkpt lat="44.9435" lon="3.92554">
        <ele>782</ele>
        <time>2021-04-29T14:30:32Z</time>
      </trkpt>
      <trkpt lat="44.94353" lon="3.92557">
        <ele>782</ele>
        <time>2021-04-29T14:30:33Z</time>
      </trkpt>
      <trkpt lat="44.94357" lon="3.9256">
        <ele>782</ele>
        <time>2021-04-29T14:30:34Z</time>
      </trkpt>
      <trkpt lat="44.94361" lon="3.92563">
        <ele>782</ele>
        <time>2021-04-29T14:30:35Z</time>
      </trkpt>
      <trkpt lat="44.94365" lon="3.92566">
        <ele>782</ele>
        <time>2021-04-29T14:30:36Z</time>
      </trkpt>
      <trkpt lat="44.9437" lon="3.9257">
        <ele>782</ele>
        <time>2021-04-29T14:30:37Z</time>
      </trkpt>
      <trkpt lat="44.94374" lon="3.92573">
        <ele>782</ele>
        <time>2021-04-29T14:30:38Z</time>
      </trkpt>
      <trkpt lat="44.94379" lon="3.92576">
        <ele>782</ele>
        <time>2021-04-29T14:30:39Z</time>
      </trkpt>
      <trkpt lat="44.94383" lon="3.92579">
        <ele>782</ele>
        <time>2021-04-29T14:30:40Z</time>
      </trkpt>
      <trkpt lat="44.94388" lon="3.92582">
        <ele>781</ele>
        <time>2021-04-29T14:30:41Z</time>
      </trkpt>
      <trkpt lat="44.94394" lon="3.92583">
        <ele>781</ele>
        <time>2021-04-29T14:30:42Z</time>
      </trkpt>
      <trkpt lat="44.944" lon="3.92585">
        <ele>781</ele>
        <time>2021-04-29T14:30:43Z</time>
      </trkpt>
      <trkpt lat="44.94406" lon="3.92587">
        <ele>780</ele>
        <time>2021-04-29T14:30:44Z</time>
      </trkpt>
      <trkpt lat="44.94412" lon="3.92589">
        <ele>780</ele>
        <time>2021-04-29T14:30:45Z</time>
      </trkpt>
      <trkpt lat="44.94418" lon="3.9259">
        <ele>780</ele>
        <time>2021-04-29T14:30:46Z</time>
      </trkpt>
      <trkpt lat="44.94423" lon="3.92591">
        <ele>780</ele>
        <time>2021-04-29T14:30:47Z</time>
      </trkpt>
      <trkpt lat="44.94429" lon="3.92593">
        <ele>779</ele>
        <time>2021-04-29T14:30:48Z</time>
      </trkpt>
      <trkpt lat="44.94435" lon="3.92595">
        <ele>779</ele>
        <time>2021-04-29T14:30:49Z</time>
      </trkpt>
      <trkpt lat="44.9444" lon="3.92597">
        <ele>779</ele>
        <time>2021-04-29T14:30:50Z</time>
      </trkpt>
      <trkpt lat="44.94445" lon="3.92601">
        <ele>779</ele>
        <time>2021-04-29T14:30:51Z</time>
      </trkpt>
      <trkpt lat="44.9445" lon="3.92605">
        <ele>779</ele>
        <time>2021-04-29T14:30:52Z</time>
      </trkpt>
      <trkpt lat="44.94456" lon="3.92608">
        <ele>778</ele>
        <time>2021-04-29T14:30:53Z</time>
      </trkpt>
      <trkpt lat="44.94462" lon="3.92612">
        <ele>777</ele>
        <time>2021-04-29T14:30:54Z</time>
      </trkpt>
      <trkpt lat="44.94468" lon="3.92615">
        <ele>776</ele>
        <time>2021-04-29T14:30:55Z</time>
      </trkpt>
      <trkpt lat="44.94475" lon="3.92618">
        <ele>775</ele>
        <time>2021-04-29T14:30:56Z</time>
      </trkpt>
      <trkpt lat="44.94482" lon="3.92621">
        <ele>774</ele>
        <time>2021-04-29T14:30:57Z</time>
      </trkpt>
      <trkpt lat="44.9449" lon="3.92624">
        <ele>773</ele>
        <time>2021-04-29T14:30:58Z</time>
      </trkpt>
      <trkpt lat="44.94498" lon="3.92626">
        <ele>771</ele>
        <time>2021-04-29T14:30:59Z</time>
      </trkpt>
      <trkpt lat="44.94507" lon="3.92625">
        <ele>770</ele>
        <time>2021-04-29T14:31:00Z</time>
      </trkpt>
      <trkpt lat="44.94515" lon="3.92625">
        <ele>769</ele>
        <time>2021-04-29T14:31:01Z</time>
      </trkpt>
      <trkpt lat="44.94523" lon="3.92624">
        <ele>768</ele>
        <time>2021-04-29T14:31:02Z</time>
      </trkpt>
      <trkpt lat="44.9453" lon="3.92624">
        <ele>767</ele>
        <time>2021-04-29T14:31:03Z</time>
      </trkpt>
      <trkpt lat="44.94536" lon="3.92626">
        <ele>766</ele>
        <time>2021-04-29T14:31:04Z</time>
      </trkpt>
      <trkpt lat="44.9454" lon="3.92631">
        <ele>766</ele>
        <time>2021-04-29T14:31:05Z</time>
      </trkpt>
      <trkpt lat="44.94543" lon="3.92639">
        <ele>765</ele>
        <time>2021-04-29T14:31:06Z</time>
      </trkpt>
      <trkpt lat="44.94544" lon="3.92648">
        <ele>765</ele>
        <time>2021-04-29T14:31:07Z</time>
      </trkpt>
      <trkpt lat="44.94544" lon="3.92658">
        <ele>765</ele>
        <time>2021-04-29T14:31:08Z</time>
      </trkpt>
      <trkpt lat="44.94545" lon="3.92666">
        <ele>765</ele>
        <time>2021-04-29T14:31:09Z</time>
      </trkpt>
      <trkpt lat="44.94547" lon="3.92674">
        <ele>764</ele>
        <time>2021-04-29T14:31:10Z</time>
      </trkpt>
      <trkpt lat="44.9455" lon="3.9268">
        <ele>764</ele>
        <time>2021-04-29T14:31:11Z</time>
      </trkpt>
      <trkpt lat="44.94553" lon="3.92685">
        <ele>764</ele>
        <time>2021-04-29T14:31:12Z</time>
      </trkpt>
      <trkpt lat="44.94563" lon="3.92691">
        <ele>764</ele>
        <time>2021-04-29T14:31:13Z</time>
      </trkpt>
      <trkpt lat="44.94568" lon="3.92692">
        <ele>764</ele>
        <time>2021-04-29T14:31:15Z</time>
      </trkpt>
      <trkpt lat="44.94573" lon="3.92694">
        <ele>764</ele>
        <time>2021-04-29T14:31:16Z</time>
      </trkpt>
      <trkpt lat="44.94577" lon="3.92696">
        <ele>764</ele>
        <time>2021-04-29T14:31:17Z</time>
      </trkpt>
      <trkpt lat="44.94582" lon="3.92697">
        <ele>764</ele>
        <time>2021-04-29T14:31:18Z</time>
      </trkpt>
      <trkpt lat="44.94586" lon="3.92697">
        <ele>764</ele>
        <time>2021-04-29T14:31:19Z</time>
      </trkpt>
      <trkpt lat="44.9459" lon="3.92697">
        <ele>764</ele>
        <time>2021-04-29T14:31:20Z</time>
      </trkpt>
      <trkpt lat="44.94595" lon="3.92697">
        <ele>764</ele>
        <time>2021-04-29T14:31:21Z</time>
      </trkpt>
      <trkpt lat="44.94599" lon="3.92696">
        <ele>764</ele>
        <time>2021-04-29T14:31:22Z</time>
      </trkpt>
      <trkpt lat="44.94602" lon="3.92695">
        <ele>764</ele>
        <time>2021-04-29T14:31:23Z</time>
      </trkpt>
      <trkpt lat="44.94606" lon="3.92693">
        <ele>764</ele>
        <time>2021-04-29T14:31:24Z</time>
      </trkpt>
      <trkpt lat="44.9461" lon="3.92689">
        <ele>764</ele>
        <time>2021-04-29T14:31:25Z</time>
      </trkpt>
      <trkpt lat="44.94615" lon="3.92686">
        <ele>764</ele>
        <time>2021-04-29T14:31:26Z</time>
      </trkpt>
      <trkpt lat="44.94619" lon="3.92683">
        <ele>764</ele>
        <time>2021-04-29T14:31:27Z</time>
      </trkpt>
      <trkpt lat="44.94624" lon="3.92681">
        <ele>764</ele>
        <time>2021-04-29T14:31:28Z</time>
      </trkpt>
      <trkpt lat="44.94628" lon="3.92679">
        <ele>764</ele>
        <time>2021-04-29T14:31:29Z</time>
      </trkpt>
      <trkpt lat="44.94632" lon="3.92677">
        <ele>764</ele>
        <time>2021-04-29T14:31:30Z</time>
      </trkpt>
      <trkpt lat="44.94637" lon="3.92676">
        <ele>764</ele>
        <time>2021-04-29T14:31:31Z</time>
      </trkpt>
      <trkpt lat="44.94648" lon="3.92678">
        <ele>764</ele>
        <time>2021-04-29T14:31:32Z</time>
      </trkpt>
      <trkpt lat="44.94653" lon="3.92679">
        <ele>764</ele>
        <time>2021-04-29T14:31:34Z</time>
      </trkpt>
      <trkpt lat="44.94658" lon="3.92681">
        <ele>764</ele>
        <time>2021-04-29T14:31:35Z</time>
      </trkpt>
      <trkpt lat="44.94664" lon="3.92683">
        <ele>764</ele>
        <time>2021-04-29T14:31:36Z</time>
      </trkpt>
      <trkpt lat="44.94669" lon="3.92684">
        <ele>764</ele>
        <time>2021-04-29T14:31:37Z</time>
      </trkpt>
      <trkpt lat="44.94675" lon="3.92684">
        <ele>764</ele>
        <time>2021-04-29T14:31:38Z</time>
      </trkpt>
      <trkpt lat="44.94681" lon="3.92686">
        <ele>764</ele>
        <time>2021-04-29T14:31:39Z</time>
      </trkpt>
      <trkpt lat="44.94687" lon="3.92688">
        <ele>764</ele>
        <time>2021-04-29T14:31:40Z</time>
      </trkpt>
      <trkpt lat="44.94693" lon="3.9269">
        <ele>764</ele>
        <time>2021-04-29T14:31:41Z</time>
      </trkpt>
      <trkpt lat="44.94699" lon="3.92692">
        <ele>764</ele>
        <time>2021-04-29T14:31:42Z</time>
      </trkpt>
      <trkpt lat="44.94704" lon="3.92694">
        <ele>763</ele>
        <time>2021-04-29T14:31:43Z</time>
      </trkpt>
      <trkpt lat="44.94708" lon="3.92696">
        <ele>763</ele>
        <time>2021-04-29T14:31:44Z</time>
      </trkpt>
      <trkpt lat="44.94712" lon="3.92699">
        <ele>763</ele>
        <time>2021-04-29T14:31:45Z</time>
      </trkpt>
      <trkpt lat="44.94716" lon="3.92702">
        <ele>763</ele>
        <time>2021-04-29T14:31:46Z</time>
      </trkpt>
      <trkpt lat="44.94721" lon="3.92707">
        <ele>762</ele>
        <time>2021-04-29T14:31:47Z</time>
      </trkpt>
      <trkpt lat="44.94726" lon="3.92711">
        <ele>762</ele>
        <time>2021-04-29T14:31:48Z</time>
      </trkpt>
      <trkpt lat="44.94731" lon="3.92716">
        <ele>762</ele>
        <time>2021-04-29T14:31:49Z</time>
      </trkpt>
      <trkpt lat="44.94736" lon="3.92721">
        <ele>762</ele>
        <time>2021-04-29T14:31:50Z</time>
      </trkpt>
      <trkpt lat="44.94745" lon="3.92732">
        <ele>762</ele>
        <time>2021-04-29T14:31:51Z</time>
      </trkpt>
      <trkpt lat="44.9475" lon="3.92739">
        <ele>762</ele>
        <time>2021-04-29T14:31:53Z</time>
      </trkpt>
      <trkpt lat="44.94755" lon="3.92745">
        <ele>762</ele>
        <time>2021-04-29T14:31:54Z</time>
      </trkpt>
      <trkpt lat="44.9476" lon="3.92749">
        <ele>761</ele>
        <time>2021-04-29T14:31:55Z</time>
      </trkpt>
      <trkpt lat="44.94765" lon="3.92754">
        <ele>761</ele>
        <time>2021-04-29T14:31:56Z</time>
      </trkpt>
      <trkpt lat="44.9477" lon="3.92758">
        <ele>761</ele>
        <time>2021-04-29T14:31:57Z</time>
      </trkpt>
      <trkpt lat="44.94775" lon="3.92762">
        <ele>761</ele>
        <time>2021-04-29T14:31:58Z</time>
      </trkpt>
      <trkpt lat="44.9478" lon="3.92766">
        <ele>761</ele>
        <time>2021-04-29T14:31:59Z</time>
      </trkpt>
      <trkpt lat="44.94786" lon="3.9277">
        <ele>760</ele>
        <time>2021-04-29T14:32:00Z</time>
      </trkpt>
      <trkpt lat="44.94792" lon="3.92773">
        <ele>760</ele>
        <time>2021-04-29T14:32:01Z</time>
      </trkpt>
      <trkpt lat="44.94798" lon="3.92777">
        <ele>760</ele>
        <time>2021-04-29T14:32:02Z</time>
      </trkpt>
      <trkpt lat="44.94804" lon="3.9278">
        <ele>759</ele>
        <time>2021-04-29T14:32:03Z</time>
      </trkpt>
      <trkpt lat="44.9481" lon="3.92783">
        <ele>759</ele>
        <time>2021-04-29T14:32:04Z</time>
      </trkpt>
      <trkpt lat="44.94816" lon="3.92785">
        <ele>759</ele>
        <time>2021-04-29T14:32:05Z</time>
      </trkpt>
      <trkpt lat="44.94822" lon="3.92788">
        <ele>759</ele>
        <time>2021-04-29T14:32:06Z</time>
      </trkpt>
      <trkpt lat="44.94829" lon="3.9279">
        <ele>758</ele>
        <time>2021-04-29T14:32:07Z</time>
      </trkpt>
      <trkpt lat="44.94835" lon="3.92793">
        <ele>758</ele>
        <time>2021-04-29T14:32:08Z</time>
      </trkpt>
      <trkpt lat="44.94842" lon="3.92796">
        <ele>758</ele>
        <time>2021-04-29T14:32:09Z</time>
      </trkpt>
      <trkpt lat="44.94848" lon="3.92798">
        <ele>758</ele>
        <time>2021-04-29T14:32:10Z</time>
      </trkpt>
      <trkpt lat="44.94855" lon="3.92801">
        <ele>757</ele>
        <time>2021-04-29T14:32:11Z</time>
      </trkpt>
      <trkpt lat="44.94861" lon="3.92803">
        <ele>757</ele>
        <time>2021-04-29T14:32:12Z</time>
      </trkpt>
      <trkpt lat="44.94868" lon="3.92805">
        <ele>756</ele>
        <time>2021-04-29T14:32:13Z</time>
      </trkpt>
      <trkpt lat="44.94874" lon="3.92806">
        <ele>756</ele>
        <time>2021-04-29T14:32:14Z</time>
      </trkpt>
      <trkpt lat="44.94881" lon="3.92808">
        <ele>756</ele>
        <time>2021-04-29T14:32:15Z</time>
      </trkpt>
      <trkpt lat="44.94887" lon="3.9281">
        <ele>755</ele>
        <time>2021-04-29T14:32:16Z</time>
      </trkpt>
      <trkpt lat="44.94893" lon="3.92812">
        <ele>755</ele>
        <time>2021-04-29T14:32:17Z</time>
      </trkpt>
      <trkpt lat="44.94899" lon="3.92814">
        <ele>755</ele>
        <time>2021-04-29T14:32:18Z</time>
      </trkpt>
      <trkpt lat="44.94904" lon="3.92815">
        <ele>755</ele>
        <time>2021-04-29T14:32:19Z</time>
      </trkpt>
      <trkpt lat="44.94907" lon="3.92817">
        <ele>754</ele>
        <time>2021-04-29T14:32:20Z</time>
      </trkpt>
      <trkpt lat="44.9491" lon="3.92817">
        <ele>754</ele>
        <time>2021-04-29T14:32:22Z</time>
      </trkpt>
      <trkpt lat="44.94914" lon="3.92818">
        <ele>754</ele>
        <time>2021-04-29T14:32:23Z</time>
      </trkpt>
      <trkpt lat="44.94916" lon="3.9282">
        <ele>754</ele>
        <time>2021-04-29T14:32:25Z</time>
      </trkpt>
      <trkpt lat="44.9492" lon="3.92822">
        <ele>754</ele>
        <time>2021-04-29T14:32:26Z</time>
      </trkpt>
      <trkpt lat="44.94923" lon="3.92823">
        <ele>753</ele>
        <time>2021-04-29T14:32:27Z</time>
      </trkpt>
      <trkpt lat="44.94927" lon="3.92825">
        <ele>753</ele>
        <time>2021-04-29T14:32:28Z</time>
      </trkpt>
      <trkpt lat="44.94934" lon="3.92829">
        <ele>753</ele>
        <time>2021-04-29T14:32:29Z</time>
      </trkpt>
      <trkpt lat="44.94938" lon="3.9283">
        <ele>753</ele>
        <time>2021-04-29T14:32:31Z</time>
      </trkpt>
      <trkpt lat="44.94942" lon="3.92831">
        <ele>753</ele>
        <time>2021-04-29T14:32:32Z</time>
      </trkpt>
      <trkpt lat="44.94946" lon="3.92833">
        <ele>753</ele>
        <time>2021-04-29T14:32:33Z</time>
      </trkpt>
      <trkpt lat="44.9495" lon="3.92834">
        <ele>753</ele>
        <time>2021-04-29T14:32:34Z</time>
      </trkpt>
      <trkpt lat="44.94954" lon="3.92835">
        <ele>753</ele>
        <time>2021-04-29T14:32:35Z</time>
      </trkpt>
      <trkpt lat="44.94958" lon="3.92837">
        <ele>753</ele>
        <time>2021-04-29T14:32:36Z</time>
      </trkpt>
      <trkpt lat="44.94961" lon="3.92839">
        <ele>753</ele>
        <time>2021-04-29T14:32:37Z</time>
      </trkpt>
      <trkpt lat="44.94964" lon="3.9284">
        <ele>753</ele>
        <time>2021-04-29T14:32:38Z</time>
      </trkpt>
      <trkpt lat="44.94968" lon="3.92842">
        <ele>753</ele>
        <time>2021-04-29T14:32:39Z</time>
      </trkpt>
      <trkpt lat="44.94971" lon="3.92844">
        <ele>753</ele>
        <time>2021-04-29T14:32:40Z</time>
      </trkpt>
      <trkpt lat="44.94974" lon="3.92847">
        <ele>753</ele>
        <time>2021-04-29T14:32:41Z</time>
      </trkpt>
      <trkpt lat="44.94978" lon="3.92849">
        <ele>753</ele>
        <time>2021-04-29T14:32:42Z</time>
      </trkpt>
      <trkpt lat="44.94982" lon="3.92851">
        <ele>752</ele>
        <time>2021-04-29T14:32:43Z</time>
      </trkpt>
      <trkpt lat="44.94985" lon="3.92853">
        <ele>752</ele>
        <time>2021-04-29T14:32:44Z</time>
      </trkpt>
      <trkpt lat="44.94989" lon="3.92856">
        <ele>752</ele>
        <time>2021-04-29T14:32:45Z</time>
      </trkpt>
      <trkpt lat="44.94993" lon="3.92858">
        <ele>752</ele>
        <time>2021-04-29T14:32:46Z</time>
      </trkpt>
      <trkpt lat="44.94998" lon="3.92861">
        <ele>752</ele>
        <time>2021-04-29T14:32:47Z</time>
      </trkpt>
      <trkpt lat="44.95008" lon="3.92868">
        <ele>752</ele>
        <time>2021-04-29T14:32:48Z</time>
      </trkpt>
      <trkpt lat="44.95014" lon="3.92871">
        <ele>752</ele>
        <time>2021-04-29T14:32:50Z</time>
      </trkpt>
      <trkpt lat="44.9502" lon="3.92874">
        <ele>752</ele>
        <time>2021-04-29T14:32:51Z</time>
      </trkpt>
      <trkpt lat="44.95026" lon="3.92877">
        <ele>751</ele>
        <time>2021-04-29T14:32:52Z</time>
      </trkpt>
      <trkpt lat="44.9503" lon="3.9288">
        <ele>751</ele>
        <time>2021-04-29T14:32:53Z</time>
      </trkpt>
      <trkpt lat="44.95032" lon="3.92883">
        <ele>750</ele>
        <time>2021-04-29T14:32:54Z</time>
      </trkpt>
      <trkpt lat="44.95034" lon="3.92887">
        <ele>750</ele>
        <time>2021-04-29T14:32:55Z</time>
      </trkpt>
      <trkpt lat="44.95035" lon="3.92889">
        <ele>750</ele>
        <time>2021-04-29T14:32:56Z</time>
      </trkpt>
      <trkpt lat="44.95036" lon="3.92892">
        <ele>750</ele>
        <time>2021-04-29T14:32:57Z</time>
      </trkpt>
      <trkpt lat="44.95036" lon="3.92895">
        <ele>749</ele>
        <time>2021-04-29T14:32:58Z</time>
      </trkpt>
      <trkpt lat="44.95036" lon="3.92897">
        <ele>749</ele>
        <time>2021-04-29T14:32:59Z</time>
      </trkpt>
      <trkpt lat="44.95037" lon="3.92901">
        <ele>749</ele>
        <time>2021-04-29T14:33:01Z</time>
      </trkpt>
      <trkpt lat="44.95037" lon="3.92901">
        <ele>749</ele>
        <time>2021-04-29T14:33:05Z</time>
      </trkpt>
      <trkpt lat="44.95038" lon="3.92906">
        <ele>748</ele>
        <time>2021-04-29T14:34:16Z</time>
      </trkpt>
      <trkpt lat="44.9504" lon="3.92916">
        <ele>748</ele>
        <time>2021-04-29T14:34:17Z</time>
      </trkpt>
      <trkpt lat="44.9504" lon="3.92922">
        <ele>747</ele>
        <time>2021-04-29T14:34:19Z</time>
      </trkpt>
      <trkpt lat="44.95041" lon="3.92929">
        <ele>747</ele>
        <time>2021-04-29T14:34:20Z</time>
      </trkpt>
      <trkpt lat="44.95042" lon="3.92935">
        <ele>747</ele>
        <time>2021-04-29T14:34:21Z</time>
      </trkpt>
      <trkpt lat="44.95042" lon="3.92942">
        <ele>747</ele>
        <time>2021-04-29T14:34:22Z</time>
      </trkpt>
      <trkpt lat="44.95043" lon="3.9295">
        <ele>747</ele>
        <time>2021-04-29T14:34:23Z</time>
      </trkpt>
      <trkpt lat="44.95044" lon="3.92957">
        <ele>746</ele>
        <time>2021-04-29T14:34:24Z</time>
      </trkpt>
      <trkpt lat="44.95044" lon="3.92965">
        <ele>746</ele>
        <time>2021-04-29T14:34:25Z</time>
      </trkpt>
      <trkpt lat="44.95044" lon="3.92972">
        <ele>746</ele>
        <time>2021-04-29T14:34:26Z</time>
      </trkpt>
      <trkpt lat="44.95044" lon="3.92981">
        <ele>746</ele>
        <time>2021-04-29T14:34:27Z</time>
      </trkpt>
      <trkpt lat="44.95042" lon="3.92989">
        <ele>746</ele>
        <time>2021-04-29T14:34:28Z</time>
      </trkpt>
      <trkpt lat="44.95041" lon="3.92998">
        <ele>745</ele>
        <time>2021-04-29T14:34:29Z</time>
      </trkpt>
      <trkpt lat="44.95038" lon="3.93007">
        <ele>745</ele>
        <time>2021-04-29T14:34:30Z</time>
      </trkpt>
      <trkpt lat="44.95036" lon="3.93016">
        <ele>745</ele>
        <time>2021-04-29T14:34:31Z</time>
      </trkpt>
      <trkpt lat="44.95034" lon="3.93025">
        <ele>745</ele>
        <time>2021-04-29T14:34:32Z</time>
      </trkpt>
      <trkpt lat="44.95033" lon="3.93034">
        <ele>745</ele>
        <time>2021-04-29T14:34:33Z</time>
      </trkpt>
      <trkpt lat="44.95031" lon="3.93042">
        <ele>745</ele>
        <time>2021-04-29T14:34:34Z</time>
      </trkpt>
      <trkpt lat="44.9503" lon="3.93051">
        <ele>744</ele>
        <time>2021-04-29T14:34:35Z</time>
      </trkpt>
      <trkpt lat="44.95029" lon="3.93066">
        <ele>744</ele>
        <time>2021-04-29T14:34:36Z</time>
      </trkpt>
      <trkpt lat="44.95029" lon="3.93074">
        <ele>744</ele>
        <time>2021-04-29T14:34:38Z</time>
      </trkpt>
      <trkpt lat="44.9503" lon="3.93082">
        <ele>744</ele>
        <time>2021-04-29T14:34:39Z</time>
      </trkpt>
      <trkpt lat="44.95031" lon="3.93089">
        <ele>743</ele>
        <time>2021-04-29T14:34:40Z</time>
      </trkpt>
      <trkpt lat="44.95032" lon="3.93097">
        <ele>743</ele>
        <time>2021-04-29T14:34:41Z</time>
      </trkpt>
      <trkpt lat="44.95034" lon="3.93104">
        <ele>743</ele>
        <time>2021-04-29T14:34:42Z</time>
      </trkpt>
      <trkpt lat="44.95037" lon="3.93111">
        <ele>743</ele>
        <time>2021-04-29T14:34:43Z</time>
      </trkpt>
      <trkpt lat="44.9504" lon="3.93119">
        <ele>743</ele>
        <time>2021-04-29T14:34:44Z</time>
      </trkpt>
      <trkpt lat="44.95043" lon="3.93126">
        <ele>743</ele>
        <time>2021-04-29T14:34:45Z</time>
      </trkpt>
      <trkpt lat="44.95046" lon="3.93133">
        <ele>742</ele>
        <time>2021-04-29T14:34:46Z</time>
      </trkpt>
      <trkpt lat="44.95049" lon="3.93139">
        <ele>742</ele>
        <time>2021-04-29T14:34:47Z</time>
      </trkpt>
      <trkpt lat="44.95053" lon="3.93146">
        <ele>742</ele>
        <time>2021-04-29T14:34:48Z</time>
      </trkpt>
      <trkpt lat="44.95057" lon="3.93152">
        <ele>742</ele>
        <time>2021-04-29T14:34:49Z</time>
      </trkpt>
      <trkpt lat="44.95061" lon="3.93158">
        <ele>742</ele>
        <time>2021-04-29T14:34:50Z</time>
      </trkpt>
      <trkpt lat="44.95064" lon="3.93165">
        <ele>742</ele>
        <time>2021-04-29T14:34:51Z</time>
      </trkpt>
      <trkpt lat="44.95068" lon="3.93171">
        <ele>741</ele>
        <time>2021-04-29T14:34:52Z</time>
      </trkpt>
      <trkpt lat="44.95071" lon="3.93178">
        <ele>741</ele>
        <time>2021-04-29T14:34:53Z</time>
      </trkpt>
      <trkpt lat="44.95074" lon="3.93185">
        <ele>741</ele>
        <time>2021-04-29T14:34:54Z</time>
      </trkpt>
      <trkpt lat="44.95077" lon="3.93201">
        <ele>740</ele>
        <time>2021-04-29T14:34:55Z</time>
      </trkpt>
      <trkpt lat="44.95078" lon="3.93208">
        <ele>740</ele>
        <time>2021-04-29T14:34:57Z</time>
      </trkpt>
      <trkpt lat="44.95078" lon="3.93216">
        <ele>740</ele>
        <time>2021-04-29T14:34:58Z</time>
      </trkpt>
      <trkpt lat="44.95079" lon="3.93223">
        <ele>740</ele>
        <time>2021-04-29T14:34:59Z</time>
      </trkpt>
      <trkpt lat="44.95079" lon="3.9323">
        <ele>739</ele>
        <time>2021-04-29T14:35:00Z</time>
      </trkpt>
      <trkpt lat="44.95079" lon="3.93235">
        <ele>739</ele>
        <time>2021-04-29T14:35:01Z</time>
      </trkpt>
      <trkpt lat="44.95078" lon="3.93238">
        <ele>739</ele>
        <time>2021-04-29T14:35:02Z</time>
      </trkpt>
      <trkpt lat="44.95078" lon="3.93242">
        <ele>739</ele>
        <time>2021-04-29T14:35:03Z</time>
      </trkpt>
      <trkpt lat="44.95078" lon="3.93246">
        <ele>738</ele>
        <time>2021-04-29T14:35:04Z</time>
      </trkpt>
      <trkpt lat="44.95078" lon="3.9325">
        <ele>738</ele>
        <time>2021-04-29T14:35:05Z</time>
      </trkpt>
      <trkpt lat="44.95078" lon="3.93254">
        <ele>738</ele>
        <time>2021-04-29T14:35:06Z</time>
      </trkpt>
      <trkpt lat="44.95078" lon="3.93257">
        <ele>738</ele>
        <time>2021-04-29T14:35:07Z</time>
      </trkpt>
      <trkpt lat="44.95078" lon="3.9326">
        <ele>738</ele>
        <time>2021-04-29T14:35:08Z</time>
      </trkpt>
      <trkpt lat="44.95078" lon="3.93264">
        <ele>738</ele>
        <time>2021-04-29T14:35:09Z</time>
      </trkpt>
      <trkpt lat="44.95078" lon="3.93269">
        <ele>738</ele>
        <time>2021-04-29T14:35:10Z</time>
      </trkpt>
      <trkpt lat="44.95078" lon="3.93274">
        <ele>737</ele>
        <time>2021-04-29T14:35:11Z</time>
      </trkpt>
      <trkpt lat="44.95078" lon="3.9328">
        <ele>737</ele>
        <time>2021-04-29T14:35:12Z</time>
      </trkpt>
      <trkpt lat="44.95078" lon="3.93285">
        <ele>737</ele>
        <time>2021-04-29T14:35:13Z</time>
      </trkpt>
      <trkpt lat="44.95077" lon="3.93296">
        <ele>737</ele>
        <time>2021-04-29T14:35:14Z</time>
      </trkpt>
      <trkpt lat="44.95077" lon="3.93302">
        <ele>737</ele>
        <time>2021-04-29T14:35:16Z</time>
      </trkpt>
      <trkpt lat="44.95077" lon="3.93308">
        <ele>737</ele>
        <time>2021-04-29T14:35:17Z</time>
      </trkpt>
      <trkpt lat="44.95077" lon="3.93314">
        <ele>737</ele>
        <time>2021-04-29T14:35:18Z</time>
      </trkpt>
      <trkpt lat="44.95077" lon="3.93319">
        <ele>737</ele>
        <time>2021-04-29T14:35:19Z</time>
      </trkpt>
      <trkpt lat="44.95077" lon="3.93324">
        <ele>737</ele>
        <time>2021-04-29T14:35:20Z</time>
      </trkpt>
      <trkpt lat="44.95077" lon="3.9333">
        <ele>737</ele>
        <time>2021-04-29T14:35:21Z</time>
      </trkpt>
      <trkpt lat="44.95077" lon="3.93335">
        <ele>737</ele>
        <time>2021-04-29T14:35:22Z</time>
      </trkpt>
      <trkpt lat="44.95076" lon="3.93341">
        <ele>737</ele>
        <time>2021-04-29T14:35:23Z</time>
      </trkpt>
      <trkpt lat="44.95076" lon="3.93347">
        <ele>736</ele>
        <time>2021-04-29T14:35:24Z</time>
      </trkpt>
      <trkpt lat="44.95075" lon="3.93353">
        <ele>736</ele>
        <time>2021-04-29T14:35:25Z</time>
      </trkpt>
      <trkpt lat="44.95075" lon="3.9336">
        <ele>736</ele>
        <time>2021-04-29T14:35:26Z</time>
      </trkpt>
      <trkpt lat="44.95075" lon="3.93366">
        <ele>736</ele>
        <time>2021-04-29T14:35:27Z</time>
      </trkpt>
      <trkpt lat="44.95076" lon="3.93374">
        <ele>736</ele>
        <time>2021-04-29T14:35:28Z</time>
      </trkpt>
      <trkpt lat="44.95079" lon="3.93381">
        <ele>736</ele>
        <time>2021-04-29T14:35:29Z</time>
      </trkpt>
      <trkpt lat="44.95082" lon="3.93387">
        <ele>735</ele>
        <time>2021-04-29T14:35:30Z</time>
      </trkpt>
      <trkpt lat="44.95085" lon="3.93393">
        <ele>735</ele>
        <time>2021-04-29T14:35:31Z</time>
      </trkpt>
      <trkpt lat="44.95088" lon="3.93398">
        <ele>735</ele>
        <time>2021-04-29T14:35:32Z</time>
      </trkpt>
      <trkpt lat="44.95099" lon="3.93399">
        <ele>735</ele>
        <time>2021-04-29T14:35:33Z</time>
      </trkpt>
      <trkpt lat="44.95104" lon="3.93396">
        <ele>734</ele>
        <time>2021-04-29T14:35:35Z</time>
      </trkpt>
      <trkpt lat="44.9511" lon="3.93393">
        <ele>733</ele>
        <time>2021-04-29T14:35:36Z</time>
      </trkpt>
      <trkpt lat="44.95115" lon="3.93391">
        <ele>733</ele>
        <time>2021-04-29T14:35:37Z</time>
      </trkpt>
      <trkpt lat="44.95121" lon="3.93389">
        <ele>733</ele>
        <time>2021-04-29T14:35:38Z</time>
      </trkpt>
      <trkpt lat="44.95126" lon="3.93387">
        <ele>733</ele>
        <time>2021-04-29T14:35:39Z</time>
      </trkpt>
      <trkpt lat="44.95131" lon="3.93384">
        <ele>733</ele>
        <time>2021-04-29T14:35:40Z</time>
      </trkpt>
      <trkpt lat="44.95135" lon="3.93381">
        <ele>732</ele>
        <time>2021-04-29T14:35:41Z</time>
      </trkpt>
      <trkpt lat="44.9514" lon="3.93377">
        <ele>732</ele>
        <time>2021-04-29T14:35:42Z</time>
      </trkpt>
      <trkpt lat="44.95143" lon="3.93373">
        <ele>732</ele>
        <time>2021-04-29T14:35:43Z</time>
      </trkpt>
      <trkpt lat="44.95146" lon="3.93368">
        <ele>732</ele>
        <time>2021-04-29T14:35:44Z</time>
      </trkpt>
      <trkpt lat="44.95149" lon="3.93364">
        <ele>732</ele>
        <time>2021-04-29T14:35:45Z</time>
      </trkpt>
      <trkpt lat="44.95152" lon="3.93359">
        <ele>732</ele>
        <time>2021-04-29T14:35:46Z</time>
      </trkpt>
      <trkpt lat="44.95156" lon="3.93355">
        <ele>731</ele>
        <time>2021-04-29T14:35:47Z</time>
      </trkpt>
      <trkpt lat="44.9516" lon="3.93352">
        <ele>731</ele>
        <time>2021-04-29T14:35:48Z</time>
      </trkpt>
      <trkpt lat="44.95164" lon="3.93351">
        <ele>731</ele>
        <time>2021-04-29T14:35:49Z</time>
      </trkpt>
      <trkpt lat="44.95169" lon="3.93352">
        <ele>731</ele>
        <time>2021-04-29T14:35:50Z</time>
      </trkpt>
      <trkpt lat="44.95174" lon="3.93355">
        <ele>731</ele>
        <time>2021-04-29T14:35:51Z</time>
      </trkpt>
      <trkpt lat="44.95184" lon="3.9336">
        <ele>731</ele>
        <time>2021-04-29T14:35:52Z</time>
      </trkpt>
      <trkpt lat="44.9519" lon="3.93363">
        <ele>730</ele>
        <time>2021-04-29T14:35:54Z</time>
      </trkpt>
      <trkpt lat="44.95196" lon="3.93365">
        <ele>730</ele>
        <time>2021-04-29T14:35:55Z</time>
      </trkpt>
      <trkpt lat="44.95201" lon="3.93367">
        <ele>729</ele>
        <time>2021-04-29T14:35:56Z</time>
      </trkpt>
      <trkpt lat="44.95206" lon="3.93368">
        <ele>727</ele>
        <time>2021-04-29T14:35:57Z</time>
      </trkpt>
      <trkpt lat="44.95209" lon="3.93369">
        <ele>726</ele>
        <time>2021-04-29T14:35:58Z</time>
      </trkpt>
      <trkpt lat="44.95212" lon="3.93371">
        <ele>725</ele>
        <time>2021-04-29T14:35:59Z</time>
      </trkpt>
      <trkpt lat="44.95213" lon="3.93373">
        <ele>725</ele>
        <time>2021-04-29T14:36:00Z</time>
      </trkpt>
      <trkpt lat="44.95214" lon="3.93376">
        <ele>724</ele>
        <time>2021-04-29T14:36:01Z</time>
      </trkpt>
      <trkpt lat="44.95213" lon="3.93378">
        <ele>724</ele>
        <time>2021-04-29T14:36:02Z</time>
      </trkpt>
      <trkpt lat="44.95212" lon="3.93381">
        <ele>723</ele>
        <time>2021-04-29T14:36:03Z</time>
      </trkpt>
      <trkpt lat="44.95211" lon="3.93384">
        <ele>723</ele>
        <time>2021-04-29T14:36:04Z</time>
      </trkpt>
      <trkpt lat="44.95209" lon="3.93386">
        <ele>723</ele>
        <time>2021-04-29T14:36:05Z</time>
      </trkpt>
      <trkpt lat="44.95207" lon="3.9339">
        <ele>722</ele>
        <time>2021-04-29T14:36:06Z</time>
      </trkpt>
      <trkpt lat="44.95204" lon="3.93393">
        <ele>722</ele>
        <time>2021-04-29T14:36:07Z</time>
      </trkpt>
      <trkpt lat="44.95202" lon="3.93397">
        <ele>722</ele>
        <time>2021-04-29T14:36:08Z</time>
      </trkpt>
      <trkpt lat="44.95198" lon="3.93401">
        <ele>722</ele>
        <time>2021-04-29T14:36:09Z</time>
      </trkpt>
      <trkpt lat="44.95195" lon="3.93404">
        <ele>721</ele>
        <time>2021-04-29T14:36:10Z</time>
      </trkpt>
      <trkpt lat="44.95191" lon="3.93408">
        <ele>721</ele>
        <time>2021-04-29T14:36:11Z</time>
      </trkpt>
      <trkpt lat="44.95187" lon="3.93412">
        <ele>721</ele>
        <time>2021-04-29T14:36:12Z</time>
      </trkpt>
      <trkpt lat="44.95183" lon="3.93415">
        <ele>721</ele>
        <time>2021-04-29T14:36:13Z</time>
      </trkpt>
      <trkpt lat="44.95179" lon="3.9342">
        <ele>720</ele>
        <time>2021-04-29T14:36:14Z</time>
      </trkpt>
      <trkpt lat="44.95175" lon="3.93425">
        <ele>720</ele>
        <time>2021-04-29T14:36:15Z</time>
      </trkpt>
      <trkpt lat="44.95171" lon="3.9343">
        <ele>720</ele>
        <time>2021-04-29T14:36:16Z</time>
      </trkpt>
      <trkpt lat="44.95168" lon="3.93436">
        <ele>720</ele>
        <time>2021-04-29T14:36:17Z</time>
      </trkpt>
      <trkpt lat="44.95165" lon="3.93441">
        <ele>720</ele>
        <time>2021-04-29T14:36:18Z</time>
      </trkpt>
      <trkpt lat="44.95162" lon="3.93448">
        <ele>719</ele>
        <time>2021-04-29T14:36:19Z</time>
      </trkpt>
      <trkpt lat="44.9516" lon="3.93454">
        <ele>719</ele>
        <time>2021-04-29T14:36:20Z</time>
      </trkpt>
      <trkpt lat="44.95157" lon="3.9346">
        <ele>719</ele>
        <time>2021-04-29T14:36:21Z</time>
      </trkpt>
      <trkpt lat="44.95155" lon="3.93467">
        <ele>719</ele>
        <time>2021-04-29T14:36:22Z</time>
      </trkpt>
      <trkpt lat="44.95153" lon="3.93474">
        <ele>718</ele>
        <time>2021-04-29T14:36:23Z</time>
      </trkpt>
      <trkpt lat="44.95152" lon="3.93481">
        <ele>718</ele>
        <time>2021-04-29T14:36:24Z</time>
      </trkpt>
      <trkpt lat="44.95151" lon="3.93488">
        <ele>717</ele>
        <time>2021-04-29T14:36:25Z</time>
      </trkpt>
      <trkpt lat="44.9515" lon="3.93495">
        <ele>717</ele>
        <time>2021-04-29T14:36:26Z</time>
      </trkpt>
      <trkpt lat="44.9515" lon="3.93503">
        <ele>717</ele>
        <time>2021-04-29T14:36:27Z</time>
      </trkpt>
      <trkpt lat="44.95151" lon="3.9351">
        <ele>716</ele>
        <time>2021-04-29T14:36:28Z</time>
      </trkpt>
      <trkpt lat="44.95152" lon="3.93517">
        <ele>716</ele>
        <time>2021-04-29T14:36:29Z</time>
      </trkpt>
      <trkpt lat="44.95153" lon="3.93525">
        <ele>716</ele>
        <time>2021-04-29T14:36:30Z</time>
      </trkpt>
      <trkpt lat="44.95156" lon="3.93531">
        <ele>716</ele>
        <time>2021-04-29T14:36:31Z</time>
      </trkpt>
      <trkpt lat="44.95159" lon="3.93537">
        <ele>715</ele>
        <time>2021-04-29T14:36:32Z</time>
      </trkpt>
      <trkpt lat="44.95163" lon="3.93542">
        <ele>715</ele>
        <time>2021-04-29T14:36:33Z</time>
      </trkpt>
      <trkpt lat="44.95167" lon="3.93547">
        <ele>715</ele>
        <time>2021-04-29T14:36:34Z</time>
      </trkpt>
      <trkpt lat="44.95172" lon="3.93551">
        <ele>714</ele>
        <time>2021-04-29T14:36:35Z</time>
      </trkpt>
      <trkpt lat="44.95177" lon="3.93555">
        <ele>714</ele>
        <time>2021-04-29T14:36:36Z</time>
      </trkpt>
      <trkpt lat="44.95182" lon="3.93559">
        <ele>713</ele>
        <time>2021-04-29T14:36:37Z</time>
      </trkpt>
      <trkpt lat="44.95187" lon="3.93563">
        <ele>713</ele>
        <time>2021-04-29T14:36:38Z</time>
      </trkpt>
      <trkpt lat="44.95192" lon="3.93566">
        <ele>713</ele>
        <time>2021-04-29T14:36:39Z</time>
      </trkpt>
      <trkpt lat="44.95197" lon="3.9357">
        <ele>712</ele>
        <time>2021-04-29T14:36:40Z</time>
      </trkpt>
      <trkpt lat="44.95202" lon="3.93574">
        <ele>712</ele>
        <time>2021-04-29T14:36:41Z</time>
      </trkpt>
      <trkpt lat="44.95207" lon="3.93578">
        <ele>712</ele>
        <time>2021-04-29T14:36:42Z</time>
      </trkpt>
      <trkpt lat="44.95212" lon="3.93582">
        <ele>712</ele>
        <time>2021-04-29T14:36:43Z</time>
      </trkpt>
      <trkpt lat="44.95217" lon="3.93586">
        <ele>711</ele>
        <time>2021-04-29T14:36:44Z</time>
      </trkpt>
      <trkpt lat="44.95222" lon="3.9359">
        <ele>711</ele>
        <time>2021-04-29T14:36:45Z</time>
      </trkpt>
      <trkpt lat="44.95227" lon="3.93593">
        <ele>711</ele>
        <time>2021-04-29T14:36:46Z</time>
      </trkpt>
      <trkpt lat="44.95232" lon="3.93597">
        <ele>711</ele>
        <time>2021-04-29T14:36:47Z</time>
      </trkpt>
      <trkpt lat="44.95237" lon="3.936">
        <ele>711</ele>
        <time>2021-04-29T14:36:48Z</time>
      </trkpt>
      <trkpt lat="44.95247" lon="3.93608">
        <ele>711</ele>
        <time>2021-04-29T14:36:49Z</time>
      </trkpt>
      <trkpt lat="44.95251" lon="3.93611">
        <ele>711</ele>
        <time>2021-04-29T14:36:51Z</time>
      </trkpt>
      <trkpt lat="44.95256" lon="3.93615">
        <ele>711</ele>
        <time>2021-04-29T14:36:52Z</time>
      </trkpt>
      <trkpt lat="44.9526" lon="3.93618">
        <ele>711</ele>
        <time>2021-04-29T14:36:53Z</time>
      </trkpt>
      <trkpt lat="44.95265" lon="3.93622">
        <ele>710</ele>
        <time>2021-04-29T14:36:54Z</time>
      </trkpt>
      <trkpt lat="44.95269" lon="3.93626">
        <ele>710</ele>
        <time>2021-04-29T14:36:55Z</time>
      </trkpt>
      <trkpt lat="44.95274" lon="3.93629">
        <ele>710</ele>
        <time>2021-04-29T14:36:56Z</time>
      </trkpt>
      <trkpt lat="44.95278" lon="3.93632">
        <ele>711</ele>
        <time>2021-04-29T14:36:57Z</time>
      </trkpt>
      <trkpt lat="44.95283" lon="3.93633">
        <ele>711</ele>
        <time>2021-04-29T14:36:58Z</time>
      </trkpt>
      <trkpt lat="44.95287" lon="3.93634">
        <ele>710</ele>
        <time>2021-04-29T14:36:59Z</time>
      </trkpt>
      <trkpt lat="44.95291" lon="3.93634">
        <ele>711</ele>
        <time>2021-04-29T14:37:00Z</time>
      </trkpt>
      <trkpt lat="44.95294" lon="3.93633">
        <ele>711</ele>
        <time>2021-04-29T14:37:01Z</time>
      </trkpt>
      <trkpt lat="44.95297" lon="3.93631">
        <ele>711</ele>
        <time>2021-04-29T14:37:02Z</time>
      </trkpt>
      <trkpt lat="44.953" lon="3.9363">
        <ele>711</ele>
        <time>2021-04-29T14:37:03Z</time>
      </trkpt>
      <trkpt lat="44.95302" lon="3.93629">
        <ele>711</ele>
        <time>2021-04-29T14:37:04Z</time>
      </trkpt>
      <trkpt lat="44.95304" lon="3.93627">
        <ele>711</ele>
        <time>2021-04-29T14:37:07Z</time>
      </trkpt>
      <trkpt lat="44.95306" lon="3.93626">
        <ele>711</ele>
        <time>2021-04-29T14:37:12Z</time>
      </trkpt>
      <trkpt lat="44.95308" lon="3.93624">
        <ele>711</ele>
        <time>2021-04-29T14:37:13Z</time>
      </trkpt>
      <trkpt lat="44.9531" lon="3.93622">
        <ele>712</ele>
        <time>2021-04-29T14:37:14Z</time>
      </trkpt>
      <trkpt lat="44.95313" lon="3.9362">
        <ele>712</ele>
        <time>2021-04-29T14:37:15Z</time>
      </trkpt>
      <trkpt lat="44.95315" lon="3.93618">
        <ele>712</ele>
        <time>2021-04-29T14:37:16Z</time>
      </trkpt>
      <trkpt lat="44.95318" lon="3.93616">
        <ele>712</ele>
        <time>2021-04-29T14:37:17Z</time>
      </trkpt>
      <trkpt lat="44.95321" lon="3.93614">
        <ele>712</ele>
        <time>2021-04-29T14:37:18Z</time>
      </trkpt>
      <trkpt lat="44.95324" lon="3.93612">
        <ele>712</ele>
        <time>2021-04-29T14:37:19Z</time>
      </trkpt>
      <trkpt lat="44.95327" lon="3.9361">
        <ele>712</ele>
        <time>2021-04-29T14:37:20Z</time>
      </trkpt>
      <trkpt lat="44.95331" lon="3.93608">
        <ele>713</ele>
        <time>2021-04-29T14:37:21Z</time>
      </trkpt>
      <trkpt lat="44.95334" lon="3.93607">
        <ele>713</ele>
        <time>2021-04-29T14:37:22Z</time>
      </trkpt>
      <trkpt lat="44.95337" lon="3.93605">
        <ele>713</ele>
        <time>2021-04-29T14:37:23Z</time>
      </trkpt>
      <trkpt lat="44.95341" lon="3.93603">
        <ele>713</ele>
        <time>2021-04-29T14:37:24Z</time>
      </trkpt>
      <trkpt lat="44.95344" lon="3.93602">
        <ele>713</ele>
        <time>2021-04-29T14:37:25Z</time>
      </trkpt>
      <trkpt lat="44.95348" lon="3.936">
        <ele>714</ele>
        <time>2021-04-29T14:37:26Z</time>
      </trkpt>
      <trkpt lat="44.95351" lon="3.93598">
        <ele>714</ele>
        <time>2021-04-29T14:37:27Z</time>
      </trkpt>
      <trkpt lat="44.95355" lon="3.93597">
        <ele>714</ele>
        <time>2021-04-29T14:37:28Z</time>
      </trkpt>
      <trkpt lat="44.95359" lon="3.93595">
        <ele>714</ele>
        <time>2021-04-29T14:37:29Z</time>
      </trkpt>
      <trkpt lat="44.95363" lon="3.93594">
        <ele>715</ele>
        <time>2021-04-29T14:37:30Z</time>
      </trkpt>
      <trkpt lat="44.95366" lon="3.93592">
        <ele>715</ele>
        <time>2021-04-29T14:37:31Z</time>
      </trkpt>
      <trkpt lat="44.9537" lon="3.9359">
        <ele>715</ele>
        <time>2021-04-29T14:37:32Z</time>
      </trkpt>
      <trkpt lat="44.95374" lon="3.93588">
        <ele>715</ele>
        <time>2021-04-29T14:37:33Z</time>
      </trkpt>
      <trkpt lat="44.95378" lon="3.93587">
        <ele>716</ele>
        <time>2021-04-29T14:37:34Z</time>
      </trkpt>
      <trkpt lat="44.95381" lon="3.93585">
        <ele>716</ele>
        <time>2021-04-29T14:37:35Z</time>
      </trkpt>
      <trkpt lat="44.95385" lon="3.93584">
        <ele>716</ele>
        <time>2021-04-29T14:37:36Z</time>
      </trkpt>
      <trkpt lat="44.95389" lon="3.93583">
        <ele>716</ele>
        <time>2021-04-29T14:37:37Z</time>
      </trkpt>
      <trkpt lat="44.95393" lon="3.93582">
        <ele>717</ele>
        <time>2021-04-29T14:37:38Z</time>
      </trkpt>
      <trkpt lat="44.95397" lon="3.93582">
        <ele>717</ele>
        <time>2021-04-29T14:37:39Z</time>
      </trkpt>
      <trkpt lat="44.95401" lon="3.93583">
        <ele>717</ele>
        <time>2021-04-29T14:37:40Z</time>
      </trkpt>
      <trkpt lat="44.95405" lon="3.93584">
        <ele>717</ele>
        <time>2021-04-29T14:37:41Z</time>
      </trkpt>
      <trkpt lat="44.95409" lon="3.93585">
        <ele>718</ele>
        <time>2021-04-29T14:37:42Z</time>
      </trkpt>
      <trkpt lat="44.95413" lon="3.93586">
        <ele>718</ele>
        <time>2021-04-29T14:37:43Z</time>
      </trkpt>
      <trkpt lat="44.95417" lon="3.93587">
        <ele>718</ele>
        <time>2021-04-29T14:37:44Z</time>
      </trkpt>
      <trkpt lat="44.95421" lon="3.93589">
        <ele>719</ele>
        <time>2021-04-29T14:37:45Z</time>
      </trkpt>
      <trkpt lat="44.95424" lon="3.9359">
        <ele>719</ele>
        <time>2021-04-29T14:37:46Z</time>
      </trkpt>
      <trkpt lat="44.95428" lon="3.93592">
        <ele>719</ele>
        <time>2021-04-29T14:37:47Z</time>
      </trkpt>
      <trkpt lat="44.95432" lon="3.93593">
        <ele>719</ele>
        <time>2021-04-29T14:37:48Z</time>
      </trkpt>
      <trkpt lat="44.95436" lon="3.93595">
        <ele>720</ele>
        <time>2021-04-29T14:37:49Z</time>
      </trkpt>
      <trkpt lat="44.9544" lon="3.93596">
        <ele>720</ele>
        <time>2021-04-29T14:37:50Z</time>
      </trkpt>
      <trkpt lat="44.95444" lon="3.93597">
        <ele>720</ele>
        <time>2021-04-29T14:37:51Z</time>
      </trkpt>
      <trkpt lat="44.95448" lon="3.93599">
        <ele>720</ele>
        <time>2021-04-29T14:37:52Z</time>
      </trkpt>
      <trkpt lat="44.95452" lon="3.936">
        <ele>720</ele>
        <time>2021-04-29T14:37:53Z</time>
      </trkpt>
      <trkpt lat="44.95456" lon="3.93601">
        <ele>721</ele>
        <time>2021-04-29T14:37:54Z</time>
      </trkpt>
      <trkpt lat="44.9546" lon="3.93603">
        <ele>721</ele>
        <time>2021-04-29T14:37:55Z</time>
      </trkpt>
      <trkpt lat="44.95464" lon="3.93604">
        <ele>721</ele>
        <time>2021-04-29T14:37:56Z</time>
      </trkpt>
      <trkpt lat="44.95468" lon="3.93606">
        <ele>722</ele>
        <time>2021-04-29T14:37:57Z</time>
      </trkpt>
      <trkpt lat="44.95472" lon="3.93607">
        <ele>722</ele>
        <time>2021-04-29T14:37:58Z</time>
      </trkpt>
      <trkpt lat="44.95476" lon="3.93608">
        <ele>722</ele>
        <time>2021-04-29T14:37:59Z</time>
      </trkpt>
      <trkpt lat="44.9548" lon="3.93609">
        <ele>722</ele>
        <time>2021-04-29T14:38:00Z</time>
      </trkpt>
      <trkpt lat="44.95485" lon="3.9361">
        <ele>722</ele>
        <time>2021-04-29T14:38:01Z</time>
      </trkpt>
      <trkpt lat="44.95489" lon="3.93611">
        <ele>722</ele>
        <time>2021-04-29T14:38:02Z</time>
      </trkpt>
      <trkpt lat="44.95493" lon="3.93612">
        <ele>723</ele>
        <time>2021-04-29T14:38:03Z</time>
      </trkpt>
      <trkpt lat="44.95497" lon="3.93612">
        <ele>723</ele>
        <time>2021-04-29T14:38:04Z</time>
      </trkpt>
      <trkpt lat="44.95506" lon="3.93612">
        <ele>723</ele>
        <time>2021-04-29T14:38:05Z</time>
      </trkpt>
      <trkpt lat="44.95511" lon="3.93611">
        <ele>724</ele>
        <time>2021-04-29T14:38:07Z</time>
      </trkpt>
      <trkpt lat="44.95515" lon="3.9361">
        <ele>724</ele>
        <time>2021-04-29T14:38:08Z</time>
      </trkpt>
      <trkpt lat="44.9552" lon="3.93609">
        <ele>725</ele>
        <time>2021-04-29T14:38:09Z</time>
      </trkpt>
      <trkpt lat="44.95524" lon="3.93607">
        <ele>725</ele>
        <time>2021-04-29T14:38:10Z</time>
      </trkpt>
      <trkpt lat="44.95528" lon="3.93605">
        <ele>726</ele>
        <time>2021-04-29T14:38:11Z</time>
      </trkpt>
      <trkpt lat="44.95532" lon="3.93604">
        <ele>726</ele>
        <time>2021-04-29T14:38:12Z</time>
      </trkpt>
      <trkpt lat="44.95536" lon="3.93602">
        <ele>726</ele>
        <time>2021-04-29T14:38:13Z</time>
      </trkpt>
      <trkpt lat="44.9554" lon="3.936">
        <ele>727</ele>
        <time>2021-04-29T14:38:14Z</time>
      </trkpt>
      <trkpt lat="44.95545" lon="3.936">
        <ele>727</ele>
        <time>2021-04-29T14:38:15Z</time>
      </trkpt>
      <trkpt lat="44.95549" lon="3.936">
        <ele>727</ele>
        <time>2021-04-29T14:38:16Z</time>
      </trkpt>
      <trkpt lat="44.95553" lon="3.936">
        <ele>728</ele>
        <time>2021-04-29T14:38:17Z</time>
      </trkpt>
      <trkpt lat="44.95556" lon="3.93603">
        <ele>728</ele>
        <time>2021-04-29T14:38:18Z</time>
      </trkpt>
      <trkpt lat="44.95558" lon="3.93607">
        <ele>728</ele>
        <time>2021-04-29T14:38:19Z</time>
      </trkpt>
      <trkpt lat="44.95559" lon="3.93611">
        <ele>728</ele>
        <time>2021-04-29T14:38:20Z</time>
      </trkpt>
      <trkpt lat="44.9556" lon="3.93614">
        <ele>728</ele>
        <time>2021-04-29T14:38:21Z</time>
      </trkpt>
      <trkpt lat="44.95562" lon="3.93618">
        <ele>728</ele>
        <time>2021-04-29T14:38:22Z</time>
      </trkpt>
      <trkpt lat="44.95563" lon="3.93621">
        <ele>729</ele>
        <time>2021-04-29T14:38:23Z</time>
      </trkpt>
      <trkpt lat="44.95564" lon="3.93625">
        <ele>729</ele>
        <time>2021-04-29T14:38:24Z</time>
      </trkpt>
      <trkpt lat="44.95564" lon="3.93629">
        <ele>729</ele>
        <time>2021-04-29T14:38:25Z</time>
      </trkpt>
      <trkpt lat="44.95565" lon="3.93633">
        <ele>729</ele>
        <time>2021-04-29T14:38:26Z</time>
      </trkpt>
      <trkpt lat="44.95565" lon="3.93638">
        <ele>729</ele>
        <time>2021-04-29T14:38:27Z</time>
      </trkpt>
      <trkpt lat="44.95565" lon="3.93643">
        <ele>730</ele>
        <time>2021-04-29T14:38:28Z</time>
      </trkpt>
      <trkpt lat="44.95564" lon="3.93647">
        <ele>730</ele>
        <time>2021-04-29T14:38:29Z</time>
      </trkpt>
      <trkpt lat="44.95564" lon="3.93653">
        <ele>730</ele>
        <time>2021-04-29T14:38:30Z</time>
      </trkpt>
      <trkpt lat="44.95564" lon="3.93658">
        <ele>730</ele>
        <time>2021-04-29T14:38:31Z</time>
      </trkpt>
      <trkpt lat="44.95564" lon="3.93663">
        <ele>731</ele>
        <time>2021-04-29T14:38:32Z</time>
      </trkpt>
      <trkpt lat="44.95564" lon="3.93668">
        <ele>731</ele>
        <time>2021-04-29T14:38:33Z</time>
      </trkpt>
      <trkpt lat="44.95564" lon="3.93673">
        <ele>731</ele>
        <time>2021-04-29T14:38:34Z</time>
      </trkpt>
      <trkpt lat="44.95564" lon="3.93678">
        <ele>731</ele>
        <time>2021-04-29T14:38:35Z</time>
      </trkpt>
      <trkpt lat="44.95564" lon="3.93684">
        <ele>732</ele>
        <time>2021-04-29T14:38:36Z</time>
      </trkpt>
      <trkpt lat="44.95564" lon="3.93689">
        <ele>732</ele>
        <time>2021-04-29T14:38:37Z</time>
      </trkpt>
      <trkpt lat="44.95565" lon="3.93694">
        <ele>732</ele>
        <time>2021-04-29T14:38:38Z</time>
      </trkpt>
      <trkpt lat="44.95565" lon="3.93699">
        <ele>732</ele>
        <time>2021-04-29T14:38:39Z</time>
      </trkpt>
      <trkpt lat="44.95566" lon="3.93704">
        <ele>733</ele>
        <time>2021-04-29T14:38:40Z</time>
      </trkpt>
      <trkpt lat="44.95567" lon="3.93708">
        <ele>733</ele>
        <time>2021-04-29T14:38:41Z</time>
      </trkpt>
      <trkpt lat="44.95568" lon="3.93711">
        <ele>733</ele>
        <time>2021-04-29T14:38:42Z</time>
      </trkpt>
      <trkpt lat="44.95569" lon="3.93714">
        <ele>734</ele>
        <time>2021-04-29T14:38:43Z</time>
      </trkpt>
      <trkpt lat="44.95571" lon="3.93716">
        <ele>734</ele>
        <time>2021-04-29T14:38:44Z</time>
      </trkpt>
      <trkpt lat="44.95573" lon="3.93716">
        <ele>734</ele>
        <time>2021-04-29T14:38:45Z</time>
      </trkpt>
      <trkpt lat="44.95576" lon="3.93715">
        <ele>734</ele>
        <time>2021-04-29T14:38:46Z</time>
      </trkpt>
      <trkpt lat="44.95579" lon="3.93713">
        <ele>734</ele>
        <time>2021-04-29T14:38:47Z</time>
      </trkpt>
      <trkpt lat="44.95583" lon="3.93712">
        <ele>734</ele>
        <time>2021-04-29T14:38:48Z</time>
      </trkpt>
      <trkpt lat="44.95588" lon="3.9371">
        <ele>734</ele>
        <time>2021-04-29T14:38:49Z</time>
      </trkpt>
      <trkpt lat="44.95592" lon="3.93708">
        <ele>734</ele>
        <time>2021-04-29T14:38:50Z</time>
      </trkpt>
      <trkpt lat="44.95597" lon="3.93706">
        <ele>734</ele>
        <time>2021-04-29T14:38:51Z</time>
      </trkpt>
      <trkpt lat="44.95601" lon="3.93704">
        <ele>734</ele>
        <time>2021-04-29T14:38:52Z</time>
      </trkpt>
      <trkpt lat="44.95605" lon="3.93702">
        <ele>735</ele>
        <time>2021-04-29T14:38:53Z</time>
      </trkpt>
      <trkpt lat="44.9561" lon="3.937">
        <ele>735</ele>
        <time>2021-04-29T14:38:54Z</time>
      </trkpt>
      <trkpt lat="44.95614" lon="3.93699">
        <ele>735</ele>
        <time>2021-04-29T14:38:55Z</time>
      </trkpt>
      <trkpt lat="44.95617" lon="3.93698">
        <ele>735</ele>
        <time>2021-04-29T14:38:56Z</time>
      </trkpt>
      <trkpt lat="44.95621" lon="3.93697">
        <ele>735</ele>
        <time>2021-04-29T14:38:57Z</time>
      </trkpt>
      <trkpt lat="44.95625" lon="3.93696">
        <ele>735</ele>
        <time>2021-04-29T14:38:58Z</time>
      </trkpt>
      <trkpt lat="44.95628" lon="3.93694">
        <ele>735</ele>
        <time>2021-04-29T14:38:59Z</time>
      </trkpt>
      <trkpt lat="44.95631" lon="3.93693">
        <ele>736</ele>
        <time>2021-04-29T14:39:00Z</time>
      </trkpt>
      <trkpt lat="44.95634" lon="3.93692">
        <ele>736</ele>
        <time>2021-04-29T14:39:01Z</time>
      </trkpt>
      <trkpt lat="44.95639" lon="3.93692">
        <ele>736</ele>
        <time>2021-04-29T14:39:02Z</time>
      </trkpt>
      <trkpt lat="44.95641" lon="3.93693">
        <ele>736</ele>
        <time>2021-04-29T14:39:04Z</time>
      </trkpt>
      <trkpt lat="44.95644" lon="3.93693">
        <ele>737</ele>
        <time>2021-04-29T14:39:05Z</time>
      </trkpt>
      <trkpt lat="44.95647" lon="3.93693">
        <ele>737</ele>
        <time>2021-04-29T14:39:06Z</time>
      </trkpt>
      <trkpt lat="44.9565" lon="3.93693">
        <ele>737</ele>
        <time>2021-04-29T14:39:07Z</time>
      </trkpt>
      <trkpt lat="44.95653" lon="3.93693">
        <ele>737</ele>
        <time>2021-04-29T14:39:08Z</time>
      </trkpt>
      <trkpt lat="44.95656" lon="3.93692">
        <ele>738</ele>
        <time>2021-04-29T14:39:09Z</time>
      </trkpt>
      <trkpt lat="44.95659" lon="3.93692">
        <ele>738</ele>
        <time>2021-04-29T14:39:10Z</time>
      </trkpt>
      <trkpt lat="44.95662" lon="3.93692">
        <ele>738</ele>
        <time>2021-04-29T14:39:11Z</time>
      </trkpt>
      <trkpt lat="44.95664" lon="3.9369">
        <ele>739</ele>
        <time>2021-04-29T14:39:12Z</time>
      </trkpt>
      <trkpt lat="44.95668" lon="3.93689">
        <ele>739</ele>
        <time>2021-04-29T14:39:13Z</time>
      </trkpt>
      <trkpt lat="44.95671" lon="3.93687">
        <ele>739</ele>
        <time>2021-04-29T14:39:14Z</time>
      </trkpt>
      <trkpt lat="44.95674" lon="3.93686">
        <ele>740</ele>
        <time>2021-04-29T14:39:15Z</time>
      </trkpt>
      <trkpt lat="44.95678" lon="3.93684">
        <ele>740</ele>
        <time>2021-04-29T14:39:16Z</time>
      </trkpt>
      <trkpt lat="44.95681" lon="3.93682">
        <ele>740</ele>
        <time>2021-04-29T14:39:17Z</time>
      </trkpt>
      <trkpt lat="44.95685" lon="3.93681">
        <ele>740</ele>
        <time>2021-04-29T14:39:18Z</time>
      </trkpt>
      <trkpt lat="44.95688" lon="3.93678">
        <ele>740</ele>
        <time>2021-04-29T14:39:19Z</time>
      </trkpt>
      <trkpt lat="44.95692" lon="3.93676">
        <ele>741</ele>
        <time>2021-04-29T14:39:20Z</time>
      </trkpt>
      <trkpt lat="44.95695" lon="3.93673">
        <ele>741</ele>
        <time>2021-04-29T14:39:21Z</time>
      </trkpt>
      <trkpt lat="44.95699" lon="3.93671">
        <ele>741</ele>
        <time>2021-04-29T14:39:22Z</time>
      </trkpt>
      <trkpt lat="44.95702" lon="3.93669">
        <ele>741</ele>
        <time>2021-04-29T14:39:23Z</time>
      </trkpt>
      <trkpt lat="44.95706" lon="3.93668">
        <ele>742</ele>
        <time>2021-04-29T14:39:24Z</time>
      </trkpt>
      <trkpt lat="44.9571" lon="3.93667">
        <ele>742</ele>
        <time>2021-04-29T14:39:25Z</time>
      </trkpt>
      <trkpt lat="44.95714" lon="3.93667">
        <ele>742</ele>
        <time>2021-04-29T14:39:26Z</time>
      </trkpt>
      <trkpt lat="44.95717" lon="3.93667">
        <ele>743</ele>
        <time>2021-04-29T14:39:27Z</time>
      </trkpt>
      <trkpt lat="44.95721" lon="3.93666">
        <ele>743</ele>
        <time>2021-04-29T14:39:28Z</time>
      </trkpt>
      <trkpt lat="44.95725" lon="3.93665">
        <ele>743</ele>
        <time>2021-04-29T14:39:29Z</time>
      </trkpt>
      <trkpt lat="44.95728" lon="3.93664">
        <ele>743</ele>
        <time>2021-04-29T14:39:30Z</time>
      </trkpt>
      <trkpt lat="44.95731" lon="3.93661">
        <ele>743</ele>
        <time>2021-04-29T14:39:31Z</time>
      </trkpt>
      <trkpt lat="44.95734" lon="3.93658">
        <ele>744</ele>
        <time>2021-04-29T14:39:32Z</time>
      </trkpt>
      <trkpt lat="44.95737" lon="3.93654">
        <ele>744</ele>
        <time>2021-04-29T14:39:33Z</time>
      </trkpt>
      <trkpt lat="44.95739" lon="3.93651">
        <ele>744</ele>
        <time>2021-04-29T14:39:34Z</time>
      </trkpt>
      <trkpt lat="44.95742" lon="3.93647">
        <ele>744</ele>
        <time>2021-04-29T14:39:35Z</time>
      </trkpt>
      <trkpt lat="44.95744" lon="3.93643">
        <ele>744</ele>
        <time>2021-04-29T14:39:36Z</time>
      </trkpt>
      <trkpt lat="44.95747" lon="3.9364">
        <ele>745</ele>
        <time>2021-04-29T14:39:37Z</time>
      </trkpt>
      <trkpt lat="44.95749" lon="3.93636">
        <ele>745</ele>
        <time>2021-04-29T14:39:38Z</time>
      </trkpt>
      <trkpt lat="44.95751" lon="3.93632">
        <ele>745</ele>
        <time>2021-04-29T14:39:39Z</time>
      </trkpt>
      <trkpt lat="44.95755" lon="3.93625">
        <ele>746</ele>
        <time>2021-04-29T14:39:40Z</time>
      </trkpt>
      <trkpt lat="44.95757" lon="3.93621">
        <ele>746</ele>
        <time>2021-04-29T14:39:42Z</time>
      </trkpt>
      <trkpt lat="44.9576" lon="3.93618">
        <ele>746</ele>
        <time>2021-04-29T14:39:43Z</time>
      </trkpt>
      <trkpt lat="44.95762" lon="3.93615">
        <ele>747</ele>
        <time>2021-04-29T14:39:44Z</time>
      </trkpt>
      <trkpt lat="44.95764" lon="3.93612">
        <ele>747</ele>
        <time>2021-04-29T14:39:45Z</time>
      </trkpt>
      <trkpt lat="44.95767" lon="3.93608">
        <ele>747</ele>
        <time>2021-04-29T14:39:46Z</time>
      </trkpt>
      <trkpt lat="44.95769" lon="3.93604">
        <ele>748</ele>
        <time>2021-04-29T14:39:47Z</time>
      </trkpt>
      <trkpt lat="44.95772" lon="3.93601">
        <ele>748</ele>
        <time>2021-04-29T14:39:48Z</time>
      </trkpt>
      <trkpt lat="44.95774" lon="3.93597">
        <ele>748</ele>
        <time>2021-04-29T14:39:49Z</time>
      </trkpt>
      <trkpt lat="44.95777" lon="3.93594">
        <ele>748</ele>
        <time>2021-04-29T14:39:50Z</time>
      </trkpt>
      <trkpt lat="44.95779" lon="3.93591">
        <ele>748</ele>
        <time>2021-04-29T14:39:51Z</time>
      </trkpt>
      <trkpt lat="44.95782" lon="3.93587">
        <ele>749</ele>
        <time>2021-04-29T14:39:52Z</time>
      </trkpt>
      <trkpt lat="44.95788" lon="3.9358">
        <ele>749</ele>
        <time>2021-04-29T14:39:53Z</time>
      </trkpt>
      <trkpt lat="44.95791" lon="3.93577">
        <ele>749</ele>
        <time>2021-04-29T14:39:55Z</time>
      </trkpt>
      <trkpt lat="44.95794" lon="3.93573">
        <ele>749</ele>
        <time>2021-04-29T14:39:56Z</time>
      </trkpt>
      <trkpt lat="44.95797" lon="3.9357">
        <ele>750</ele>
        <time>2021-04-29T14:39:57Z</time>
      </trkpt>
      <trkpt lat="44.95799" lon="3.93566">
        <ele>750</ele>
        <time>2021-04-29T14:39:58Z</time>
      </trkpt>
      <trkpt lat="44.95805" lon="3.93558">
        <ele>750</ele>
        <time>2021-04-29T14:39:59Z</time>
      </trkpt>
      <trkpt lat="44.95808" lon="3.93554">
        <ele>751</ele>
        <time>2021-04-29T14:40:01Z</time>
      </trkpt>
      <trkpt lat="44.95811" lon="3.93551">
        <ele>751</ele>
        <time>2021-04-29T14:40:02Z</time>
      </trkpt>
      <trkpt lat="44.95815" lon="3.93549">
        <ele>752</ele>
        <time>2021-04-29T14:40:03Z</time>
      </trkpt>
      <trkpt lat="44.95818" lon="3.93547">
        <ele>752</ele>
        <time>2021-04-29T14:40:04Z</time>
      </trkpt>
      <trkpt lat="44.95821" lon="3.93547">
        <ele>753</ele>
        <time>2021-04-29T14:40:05Z</time>
      </trkpt>
      <trkpt lat="44.95824" lon="3.93548">
        <ele>753</ele>
        <time>2021-04-29T14:40:06Z</time>
      </trkpt>
      <trkpt lat="44.95826" lon="3.9355">
        <ele>753</ele>
        <time>2021-04-29T14:40:07Z</time>
      </trkpt>
      <trkpt lat="44.95828" lon="3.93552">
        <ele>753</ele>
        <time>2021-04-29T14:40:08Z</time>
      </trkpt>
      <trkpt lat="44.9583" lon="3.93554">
        <ele>754</ele>
        <time>2021-04-29T14:40:09Z</time>
      </trkpt>
      <trkpt lat="44.95833" lon="3.93556">
        <ele>754</ele>
        <time>2021-04-29T14:40:10Z</time>
      </trkpt>
      <trkpt lat="44.95836" lon="3.93557">
        <ele>754</ele>
        <time>2021-04-29T14:40:11Z</time>
      </trkpt>
      <trkpt lat="44.95839" lon="3.93557">
        <ele>755</ele>
        <time>2021-04-29T14:40:12Z</time>
      </trkpt>
      <trkpt lat="44.95843" lon="3.93556">
        <ele>755</ele>
        <time>2021-04-29T14:40:13Z</time>
      </trkpt>
      <trkpt lat="44.95846" lon="3.93555">
        <ele>756</ele>
        <time>2021-04-29T14:40:14Z</time>
      </trkpt>
      <trkpt lat="44.9585" lon="3.93554">
        <ele>756</ele>
        <time>2021-04-29T14:40:15Z</time>
      </trkpt>
      <trkpt lat="44.95853" lon="3.93552">
        <ele>756</ele>
        <time>2021-04-29T14:40:16Z</time>
      </trkpt>
      <trkpt lat="44.95856" lon="3.93549">
        <ele>757</ele>
        <time>2021-04-29T14:40:17Z</time>
      </trkpt>
      <trkpt lat="44.95859" lon="3.93546">
        <ele>757</ele>
        <time>2021-04-29T14:40:18Z</time>
      </trkpt>
      <trkpt lat="44.95863" lon="3.93544">
        <ele>757</ele>
        <time>2021-04-29T14:40:19Z</time>
      </trkpt>
      <trkpt lat="44.95866" lon="3.93541">
        <ele>758</ele>
        <time>2021-04-29T14:40:20Z</time>
      </trkpt>
      <trkpt lat="44.9587" lon="3.93539">
        <ele>758</ele>
        <time>2021-04-29T14:40:21Z</time>
      </trkpt>
      <trkpt lat="44.95873" lon="3.93536">
        <ele>758</ele>
        <time>2021-04-29T14:40:22Z</time>
      </trkpt>
      <trkpt lat="44.95876" lon="3.93534">
        <ele>758</ele>
        <time>2021-04-29T14:40:23Z</time>
      </trkpt>
      <trkpt lat="44.9588" lon="3.93532">
        <ele>759</ele>
        <time>2021-04-29T14:40:24Z</time>
      </trkpt>
      <trkpt lat="44.95883" lon="3.93529">
        <ele>759</ele>
        <time>2021-04-29T14:40:25Z</time>
      </trkpt>
      <trkpt lat="44.95886" lon="3.93527">
        <ele>760</ele>
        <time>2021-04-29T14:40:26Z</time>
      </trkpt>
      <trkpt lat="44.9589" lon="3.93525">
        <ele>760</ele>
        <time>2021-04-29T14:40:27Z</time>
      </trkpt>
      <trkpt lat="44.95893" lon="3.93523">
        <ele>760</ele>
        <time>2021-04-29T14:40:28Z</time>
      </trkpt>
      <trkpt lat="44.95897" lon="3.93522">
        <ele>760</ele>
        <time>2021-04-29T14:40:29Z</time>
      </trkpt>
      <trkpt lat="44.959" lon="3.9352">
        <ele>761</ele>
        <time>2021-04-29T14:40:30Z</time>
      </trkpt>
      <trkpt lat="44.95904" lon="3.9352">
        <ele>761</ele>
        <time>2021-04-29T14:40:31Z</time>
      </trkpt>
      <trkpt lat="44.95907" lon="3.93521">
        <ele>761</ele>
        <time>2021-04-29T14:40:32Z</time>
      </trkpt>
      <trkpt lat="44.95911" lon="3.93522">
        <ele>761</ele>
        <time>2021-04-29T14:40:33Z</time>
      </trkpt>
      <trkpt lat="44.95915" lon="3.93523">
        <ele>762</ele>
        <time>2021-04-29T14:40:34Z</time>
      </trkpt>
      <trkpt lat="44.95918" lon="3.93525">
        <ele>762</ele>
        <time>2021-04-29T14:40:35Z</time>
      </trkpt>
      <trkpt lat="44.95922" lon="3.93527">
        <ele>763</ele>
        <time>2021-04-29T14:40:36Z</time>
      </trkpt>
      <trkpt lat="44.95929" lon="3.93531">
        <ele>763</ele>
        <time>2021-04-29T14:40:37Z</time>
      </trkpt>
      <trkpt lat="44.95932" lon="3.93532">
        <ele>763</ele>
        <time>2021-04-29T14:40:39Z</time>
      </trkpt>
      <trkpt lat="44.95936" lon="3.93534">
        <ele>764</ele>
        <time>2021-04-29T14:40:40Z</time>
      </trkpt>
      <trkpt lat="44.9594" lon="3.93536">
        <ele>764</ele>
        <time>2021-04-29T14:40:41Z</time>
      </trkpt>
      <trkpt lat="44.95944" lon="3.93537">
        <ele>765</ele>
        <time>2021-04-29T14:40:42Z</time>
      </trkpt>
      <trkpt lat="44.95947" lon="3.93539">
        <ele>766</ele>
        <time>2021-04-29T14:40:43Z</time>
      </trkpt>
      <trkpt lat="44.95951" lon="3.93541">
        <ele>766</ele>
        <time>2021-04-29T14:40:44Z</time>
      </trkpt>
      <trkpt lat="44.95955" lon="3.93543">
        <ele>767</ele>
        <time>2021-04-29T14:40:45Z</time>
      </trkpt>
      <trkpt lat="44.95958" lon="3.93545">
        <ele>767</ele>
        <time>2021-04-29T14:40:46Z</time>
      </trkpt>
      <trkpt lat="44.95961" lon="3.93546">
        <ele>768</ele>
        <time>2021-04-29T14:40:47Z</time>
      </trkpt>
      <trkpt lat="44.95964" lon="3.93547">
        <ele>768</ele>
        <time>2021-04-29T14:40:48Z</time>
      </trkpt>
      <trkpt lat="44.95967" lon="3.93547">
        <ele>768</ele>
        <time>2021-04-29T14:40:49Z</time>
      </trkpt>
      <trkpt lat="44.95969" lon="3.93545">
        <ele>769</ele>
        <time>2021-04-29T14:40:50Z</time>
      </trkpt>
      <trkpt lat="44.95972" lon="3.93543">
        <ele>769</ele>
        <time>2021-04-29T14:40:51Z</time>
      </trkpt>
      <trkpt lat="44.95975" lon="3.9354">
        <ele>769</ele>
        <time>2021-04-29T14:40:52Z</time>
      </trkpt>
      <trkpt lat="44.95978" lon="3.93536">
        <ele>769</ele>
        <time>2021-04-29T14:40:53Z</time>
      </trkpt>
      <trkpt lat="44.9598" lon="3.93533">
        <ele>770</ele>
        <time>2021-04-29T14:40:54Z</time>
      </trkpt>
      <trkpt lat="44.95983" lon="3.93529">
        <ele>770</ele>
        <time>2021-04-29T14:40:55Z</time>
      </trkpt>
      <trkpt lat="44.95987" lon="3.93521">
        <ele>770</ele>
        <time>2021-04-29T14:40:56Z</time>
      </trkpt>
      <trkpt lat="44.9599" lon="3.93518">
        <ele>771</ele>
        <time>2021-04-29T14:40:58Z</time>
      </trkpt>
      <trkpt lat="44.95992" lon="3.93516">
        <ele>771</ele>
        <time>2021-04-29T14:40:59Z</time>
      </trkpt>
      <trkpt lat="44.95995" lon="3.93514">
        <ele>771</ele>
        <time>2021-04-29T14:41:00Z</time>
      </trkpt>
      <trkpt lat="44.95997" lon="3.93512">
        <ele>771</ele>
        <time>2021-04-29T14:41:01Z</time>
      </trkpt>
      <trkpt lat="44.96" lon="3.93509">
        <ele>771</ele>
        <time>2021-04-29T14:41:02Z</time>
      </trkpt>
      <trkpt lat="44.96002" lon="3.93506">
        <ele>772</ele>
        <time>2021-04-29T14:41:03Z</time>
      </trkpt>
      <trkpt lat="44.96005" lon="3.93502">
        <ele>772</ele>
        <time>2021-04-29T14:41:04Z</time>
      </trkpt>
      <trkpt lat="44.96008" lon="3.93498">
        <ele>772</ele>
        <time>2021-04-29T14:41:05Z</time>
      </trkpt>
      <trkpt lat="44.9601" lon="3.93494">
        <ele>773</ele>
        <time>2021-04-29T14:41:06Z</time>
      </trkpt>
      <trkpt lat="44.96013" lon="3.93489">
        <ele>773</ele>
        <time>2021-04-29T14:41:07Z</time>
      </trkpt>
      <trkpt lat="44.96016" lon="3.93484">
        <ele>773</ele>
        <time>2021-04-29T14:41:08Z</time>
      </trkpt>
      <trkpt lat="44.96019" lon="3.93479">
        <ele>773</ele>
        <time>2021-04-29T14:41:09Z</time>
      </trkpt>
      <trkpt lat="44.96022" lon="3.93474">
        <ele>773</ele>
        <time>2021-04-29T14:41:10Z</time>
      </trkpt>
      <trkpt lat="44.96025" lon="3.93469">
        <ele>773</ele>
        <time>2021-04-29T14:41:11Z</time>
      </trkpt>
      <trkpt lat="44.96028" lon="3.93464">
        <ele>773</ele>
        <time>2021-04-29T14:41:12Z</time>
      </trkpt>
      <trkpt lat="44.96031" lon="3.93459">
        <ele>773</ele>
        <time>2021-04-29T14:41:13Z</time>
      </trkpt>
      <trkpt lat="44.96035" lon="3.93453">
        <ele>773</ele>
        <time>2021-04-29T14:41:14Z</time>
      </trkpt>
      <trkpt lat="44.96038" lon="3.93447">
        <ele>773</ele>
        <time>2021-04-29T14:41:15Z</time>
      </trkpt>
      <trkpt lat="44.9604" lon="3.93441">
        <ele>773</ele>
        <time>2021-04-29T14:41:16Z</time>
      </trkpt>
      <trkpt lat="44.96043" lon="3.93435">
        <ele>773</ele>
        <time>2021-04-29T14:41:17Z</time>
      </trkpt>
      <trkpt lat="44.96045" lon="3.93428">
        <ele>774</ele>
        <time>2021-04-29T14:41:18Z</time>
      </trkpt>
      <trkpt lat="44.96048" lon="3.93421">
        <ele>774</ele>
        <time>2021-04-29T14:41:19Z</time>
      </trkpt>
      <trkpt lat="44.9605" lon="3.93414">
        <ele>774</ele>
        <time>2021-04-29T14:41:20Z</time>
      </trkpt>
      <trkpt lat="44.96053" lon="3.93408">
        <ele>773</ele>
        <time>2021-04-29T14:41:21Z</time>
      </trkpt>
      <trkpt lat="44.96056" lon="3.93401">
        <ele>773</ele>
        <time>2021-04-29T14:41:22Z</time>
      </trkpt>
      <trkpt lat="44.96059" lon="3.93394">
        <ele>772</ele>
        <time>2021-04-29T14:41:23Z</time>
      </trkpt>
      <trkpt lat="44.96062" lon="3.93387">
        <ele>772</ele>
        <time>2021-04-29T14:41:24Z</time>
      </trkpt>
      <trkpt lat="44.96065" lon="3.9338">
        <ele>772</ele>
        <time>2021-04-29T14:41:25Z</time>
      </trkpt>
      <trkpt lat="44.96068" lon="3.93372">
        <ele>772</ele>
        <time>2021-04-29T14:41:26Z</time>
      </trkpt>
      <trkpt lat="44.96072" lon="3.93365">
        <ele>772</ele>
        <time>2021-04-29T14:41:27Z</time>
      </trkpt>
      <trkpt lat="44.96076" lon="3.93358">
        <ele>771</ele>
        <time>2021-04-29T14:41:28Z</time>
      </trkpt>
      <trkpt lat="44.96079" lon="3.9335">
        <ele>771</ele>
        <time>2021-04-29T14:41:29Z</time>
      </trkpt>
      <trkpt lat="44.96083" lon="3.93342">
        <ele>770</ele>
        <time>2021-04-29T14:41:30Z</time>
      </trkpt>
      <trkpt lat="44.96087" lon="3.93334">
        <ele>770</ele>
        <time>2021-04-29T14:41:31Z</time>
      </trkpt>
      <trkpt lat="44.96091" lon="3.93326">
        <ele>769</ele>
        <time>2021-04-29T14:41:32Z</time>
      </trkpt>
      <trkpt lat="44.96094" lon="3.93318">
        <ele>769</ele>
        <time>2021-04-29T14:41:33Z</time>
      </trkpt>
      <trkpt lat="44.961" lon="3.933">
        <ele>768</ele>
        <time>2021-04-29T14:41:34Z</time>
      </trkpt>
      <trkpt lat="44.96102" lon="3.9329">
        <ele>767</ele>
        <time>2021-04-29T14:41:36Z</time>
      </trkpt>
      <trkpt lat="44.96103" lon="3.9328">
        <ele>767</ele>
        <time>2021-04-29T14:41:37Z</time>
      </trkpt>
      <trkpt lat="44.96104" lon="3.93271">
        <ele>767</ele>
        <time>2021-04-29T14:41:38Z</time>
      </trkpt>
      <trkpt lat="44.96104" lon="3.93261">
        <ele>767</ele>
        <time>2021-04-29T14:41:39Z</time>
      </trkpt>
      <trkpt lat="44.96104" lon="3.93251">
        <ele>767</ele>
        <time>2021-04-29T14:41:40Z</time>
      </trkpt>
      <trkpt lat="44.96105" lon="3.93242">
        <ele>767</ele>
        <time>2021-04-29T14:41:41Z</time>
      </trkpt>
      <trkpt lat="44.96104" lon="3.93232">
        <ele>767</ele>
        <time>2021-04-29T14:41:42Z</time>
      </trkpt>
      <trkpt lat="44.96104" lon="3.93223">
        <ele>767</ele>
        <time>2021-04-29T14:41:43Z</time>
      </trkpt>
      <trkpt lat="44.96104" lon="3.93214">
        <ele>766</ele>
        <time>2021-04-29T14:41:44Z</time>
      </trkpt>
      <trkpt lat="44.96104" lon="3.93206">
        <ele>766</ele>
        <time>2021-04-29T14:41:45Z</time>
      </trkpt>
      <trkpt lat="44.96103" lon="3.93197">
        <ele>766</ele>
        <time>2021-04-29T14:41:46Z</time>
      </trkpt>
      <trkpt lat="44.96103" lon="3.93189">
        <ele>766</ele>
        <time>2021-04-29T14:41:47Z</time>
      </trkpt>
      <trkpt lat="44.96102" lon="3.93181">
        <ele>766</ele>
        <time>2021-04-29T14:41:48Z</time>
      </trkpt>
      <trkpt lat="44.961" lon="3.93173">
        <ele>766</ele>
        <time>2021-04-29T14:41:49Z</time>
      </trkpt>
      <trkpt lat="44.96099" lon="3.93166">
        <ele>766</ele>
        <time>2021-04-29T14:41:50Z</time>
      </trkpt>
      <trkpt lat="44.96097" lon="3.93161">
        <ele>766</ele>
        <time>2021-04-29T14:41:51Z</time>
      </trkpt>
      <trkpt lat="44.96095" lon="3.93156">
        <ele>766</ele>
        <time>2021-04-29T14:41:52Z</time>
      </trkpt>
      <trkpt lat="44.9609" lon="3.93148">
        <ele>765</ele>
        <time>2021-04-29T14:41:53Z</time>
      </trkpt>
      <trkpt lat="44.96087" lon="3.93145">
        <ele>765</ele>
        <time>2021-04-29T14:41:55Z</time>
      </trkpt>
      <trkpt lat="44.96083" lon="3.93141">
        <ele>765</ele>
        <time>2021-04-29T14:41:56Z</time>
      </trkpt>
      <trkpt lat="44.9608" lon="3.93138">
        <ele>765</ele>
        <time>2021-04-29T14:41:57Z</time>
      </trkpt>
      <trkpt lat="44.96076" lon="3.93136">
        <ele>765</ele>
        <time>2021-04-29T14:41:58Z</time>
      </trkpt>
      <trkpt lat="44.96072" lon="3.93134">
        <ele>765</ele>
        <time>2021-04-29T14:41:59Z</time>
      </trkpt>
      <trkpt lat="44.96067" lon="3.93131">
        <ele>765</ele>
        <time>2021-04-29T14:42:00Z</time>
      </trkpt>
      <trkpt lat="44.96063" lon="3.93129">
        <ele>765</ele>
        <time>2021-04-29T14:42:01Z</time>
      </trkpt>
      <trkpt lat="44.96059" lon="3.93126">
        <ele>765</ele>
        <time>2021-04-29T14:42:02Z</time>
      </trkpt>
      <trkpt lat="44.96055" lon="3.93124">
        <ele>765</ele>
        <time>2021-04-29T14:42:03Z</time>
      </trkpt>
      <trkpt lat="44.9605" lon="3.93121">
        <ele>765</ele>
        <time>2021-04-29T14:42:04Z</time>
      </trkpt>
      <trkpt lat="44.96045" lon="3.93118">
        <ele>765</ele>
        <time>2021-04-29T14:42:05Z</time>
      </trkpt>
      <trkpt lat="44.9604" lon="3.93115">
        <ele>765</ele>
        <time>2021-04-29T14:42:06Z</time>
      </trkpt>
      <trkpt lat="44.96035" lon="3.93111">
        <ele>765</ele>
        <time>2021-04-29T14:42:07Z</time>
      </trkpt>
      <trkpt lat="44.9603" lon="3.93107">
        <ele>764</ele>
        <time>2021-04-29T14:42:08Z</time>
      </trkpt>
      <trkpt lat="44.96025" lon="3.93102">
        <ele>764</ele>
        <time>2021-04-29T14:42:09Z</time>
      </trkpt>
      <trkpt lat="44.96021" lon="3.93096">
        <ele>764</ele>
        <time>2021-04-29T14:42:10Z</time>
      </trkpt>
      <trkpt lat="44.96018" lon="3.93089">
        <ele>764</ele>
        <time>2021-04-29T14:42:11Z</time>
      </trkpt>
      <trkpt lat="44.96015" lon="3.93081">
        <ele>764</ele>
        <time>2021-04-29T14:42:12Z</time>
      </trkpt>
      <trkpt lat="44.96013" lon="3.93073">
        <ele>764</ele>
        <time>2021-04-29T14:42:13Z</time>
      </trkpt>
      <trkpt lat="44.96011" lon="3.93065">
        <ele>763</ele>
        <time>2021-04-29T14:42:14Z</time>
      </trkpt>
      <trkpt lat="44.9601" lon="3.93056">
        <ele>763</ele>
        <time>2021-04-29T14:42:15Z</time>
      </trkpt>
      <trkpt lat="44.96008" lon="3.93047">
        <ele>763</ele>
        <time>2021-04-29T14:42:16Z</time>
      </trkpt>
      <trkpt lat="44.96007" lon="3.93037">
        <ele>762</ele>
        <time>2021-04-29T14:42:17Z</time>
      </trkpt>
      <trkpt lat="44.96006" lon="3.93028">
        <ele>762</ele>
        <time>2021-04-29T14:42:18Z</time>
      </trkpt>
      <trkpt lat="44.96004" lon="3.93018">
        <ele>761</ele>
        <time>2021-04-29T14:42:19Z</time>
      </trkpt>
      <trkpt lat="44.96003" lon="3.93009">
        <ele>761</ele>
        <time>2021-04-29T14:42:20Z</time>
      </trkpt>
      <trkpt lat="44.96002" lon="3.92999">
        <ele>761</ele>
        <time>2021-04-29T14:42:21Z</time>
      </trkpt>
      <trkpt lat="44.96002" lon="3.92989">
        <ele>761</ele>
        <time>2021-04-29T14:42:22Z</time>
      </trkpt>
      <trkpt lat="44.96002" lon="3.92979">
        <ele>760</ele>
        <time>2021-04-29T14:42:23Z</time>
      </trkpt>
      <trkpt lat="44.96004" lon="3.92969">
        <ele>760</ele>
        <time>2021-04-29T14:42:24Z</time>
      </trkpt>
      <trkpt lat="44.96005" lon="3.92959">
        <ele>760</ele>
        <time>2021-04-29T14:42:25Z</time>
      </trkpt>
      <trkpt lat="44.96007" lon="3.92949">
        <ele>760</ele>
        <time>2021-04-29T14:42:26Z</time>
      </trkpt>
      <trkpt lat="44.96009" lon="3.92939">
        <ele>759</ele>
        <time>2021-04-29T14:42:27Z</time>
      </trkpt>
      <trkpt lat="44.96011" lon="3.92929">
        <ele>759</ele>
        <time>2021-04-29T14:42:28Z</time>
      </trkpt>
      <trkpt lat="44.96013" lon="3.92919">
        <ele>759</ele>
        <time>2021-04-29T14:42:29Z</time>
      </trkpt>
      <trkpt lat="44.96015" lon="3.9291">
        <ele>758</ele>
        <time>2021-04-29T14:42:30Z</time>
      </trkpt>
      <trkpt lat="44.96019" lon="3.92891">
        <ele>758</ele>
        <time>2021-04-29T14:42:31Z</time>
      </trkpt>
      <trkpt lat="44.96021" lon="3.92882">
        <ele>757</ele>
        <time>2021-04-29T14:42:33Z</time>
      </trkpt>
      <trkpt lat="44.96022" lon="3.92873">
        <ele>757</ele>
        <time>2021-04-29T14:42:34Z</time>
      </trkpt>
      <trkpt lat="44.96025" lon="3.92864">
        <ele>756</ele>
        <time>2021-04-29T14:42:35Z</time>
      </trkpt>
      <trkpt lat="44.96028" lon="3.92855">
        <ele>756</ele>
        <time>2021-04-29T14:42:36Z</time>
      </trkpt>
      <trkpt lat="44.96031" lon="3.92846">
        <ele>756</ele>
        <time>2021-04-29T14:42:37Z</time>
      </trkpt>
      <trkpt lat="44.96036" lon="3.92839">
        <ele>755</ele>
        <time>2021-04-29T14:42:38Z</time>
      </trkpt>
      <trkpt lat="44.96041" lon="3.92833">
        <ele>755</ele>
        <time>2021-04-29T14:42:39Z</time>
      </trkpt>
      <trkpt lat="44.96047" lon="3.92827">
        <ele>755</ele>
        <time>2021-04-29T14:42:40Z</time>
      </trkpt>
      <trkpt lat="44.96054" lon="3.92823">
        <ele>754</ele>
        <time>2021-04-29T14:42:41Z</time>
      </trkpt>
      <trkpt lat="44.9606" lon="3.92818">
        <ele>754</ele>
        <time>2021-04-29T14:42:42Z</time>
      </trkpt>
      <trkpt lat="44.96067" lon="3.92814">
        <ele>754</ele>
        <time>2021-04-29T14:42:43Z</time>
      </trkpt>
      <trkpt lat="44.96074" lon="3.9281">
        <ele>754</ele>
        <time>2021-04-29T14:42:44Z</time>
      </trkpt>
      <trkpt lat="44.9608" lon="3.92806">
        <ele>753</ele>
        <time>2021-04-29T14:42:45Z</time>
      </trkpt>
      <trkpt lat="44.96086" lon="3.92801">
        <ele>753</ele>
        <time>2021-04-29T14:42:46Z</time>
      </trkpt>
      <trkpt lat="44.96092" lon="3.92795">
        <ele>753</ele>
        <time>2021-04-29T14:42:47Z</time>
      </trkpt>
      <trkpt lat="44.96097" lon="3.92788">
        <ele>753</ele>
        <time>2021-04-29T14:42:48Z</time>
      </trkpt>
      <trkpt lat="44.96101" lon="3.92781">
        <ele>753</ele>
        <time>2021-04-29T14:42:49Z</time>
      </trkpt>
      <trkpt lat="44.96106" lon="3.92775">
        <ele>752</ele>
        <time>2021-04-29T14:42:50Z</time>
      </trkpt>
      <trkpt lat="44.96111" lon="3.92768">
        <ele>752</ele>
        <time>2021-04-29T14:42:51Z</time>
      </trkpt>
      <trkpt lat="44.96117" lon="3.92762">
        <ele>752</ele>
        <time>2021-04-29T14:42:52Z</time>
      </trkpt>
      <trkpt lat="44.96123" lon="3.92758">
        <ele>752</ele>
        <time>2021-04-29T14:42:53Z</time>
      </trkpt>
      <trkpt lat="44.96129" lon="3.92754">
        <ele>751</ele>
        <time>2021-04-29T14:42:54Z</time>
      </trkpt>
      <trkpt lat="44.96137" lon="3.92754">
        <ele>751</ele>
        <time>2021-04-29T14:42:55Z</time>
      </trkpt>
      <trkpt lat="44.96144" lon="3.92755">
        <ele>751</ele>
        <time>2021-04-29T14:42:56Z</time>
      </trkpt>
      <trkpt lat="44.96151" lon="3.92758">
        <ele>751</ele>
        <time>2021-04-29T14:42:57Z</time>
      </trkpt>
      <trkpt lat="44.96158" lon="3.92762">
        <ele>751</ele>
        <time>2021-04-29T14:42:58Z</time>
      </trkpt>
      <trkpt lat="44.96165" lon="3.92767">
        <ele>751</ele>
        <time>2021-04-29T14:42:59Z</time>
      </trkpt>
      <trkpt lat="44.96171" lon="3.92773">
        <ele>751</ele>
        <time>2021-04-29T14:43:00Z</time>
      </trkpt>
      <trkpt lat="44.96178" lon="3.92779">
        <ele>750</ele>
        <time>2021-04-29T14:43:01Z</time>
      </trkpt>
      <trkpt lat="44.96184" lon="3.92785">
        <ele>750</ele>
        <time>2021-04-29T14:43:02Z</time>
      </trkpt>
      <trkpt lat="44.96189" lon="3.92792">
        <ele>750</ele>
        <time>2021-04-29T14:43:03Z</time>
      </trkpt>
      <trkpt lat="44.96194" lon="3.92801">
        <ele>750</ele>
        <time>2021-04-29T14:43:04Z</time>
      </trkpt>
      <trkpt lat="44.96198" lon="3.9281">
        <ele>749</ele>
        <time>2021-04-29T14:43:05Z</time>
      </trkpt>
      <trkpt lat="44.96201" lon="3.9282">
        <ele>749</ele>
        <time>2021-04-29T14:43:06Z</time>
      </trkpt>
      <trkpt lat="44.96204" lon="3.9283">
        <ele>749</ele>
        <time>2021-04-29T14:43:07Z</time>
      </trkpt>
      <trkpt lat="44.96208" lon="3.9284">
        <ele>748</ele>
        <time>2021-04-29T14:43:08Z</time>
      </trkpt>
      <trkpt lat="44.9622" lon="3.92855">
        <ele>748</ele>
        <time>2021-04-29T14:43:09Z</time>
      </trkpt>
      <trkpt lat="44.96228" lon="3.92857">
        <ele>747</ele>
        <time>2021-04-29T14:43:11Z</time>
      </trkpt>
      <trkpt lat="44.96236" lon="3.92858">
        <ele>746</ele>
        <time>2021-04-29T14:43:12Z</time>
      </trkpt>
      <trkpt lat="44.96244" lon="3.92858">
        <ele>746</ele>
        <time>2021-04-29T14:43:13Z</time>
      </trkpt>
      <trkpt lat="44.96252" lon="3.92858">
        <ele>745</ele>
        <time>2021-04-29T14:43:14Z</time>
      </trkpt>
      <trkpt lat="44.9626" lon="3.92858">
        <ele>745</ele>
        <time>2021-04-29T14:43:15Z</time>
      </trkpt>
      <trkpt lat="44.96269" lon="3.92859">
        <ele>743</ele>
        <time>2021-04-29T14:43:16Z</time>
      </trkpt>
      <trkpt lat="44.96277" lon="3.92861">
        <ele>743</ele>
        <time>2021-04-29T14:43:17Z</time>
      </trkpt>
      <trkpt lat="44.96285" lon="3.92864">
        <ele>742</ele>
        <time>2021-04-29T14:43:18Z</time>
      </trkpt>
      <trkpt lat="44.96294" lon="3.92867">
        <ele>741</ele>
        <time>2021-04-29T14:43:19Z</time>
      </trkpt>
      <trkpt lat="44.96303" lon="3.92869">
        <ele>740</ele>
        <time>2021-04-29T14:43:20Z</time>
      </trkpt>
      <trkpt lat="44.96311" lon="3.92868">
        <ele>740</ele>
        <time>2021-04-29T14:43:21Z</time>
      </trkpt>
      <trkpt lat="44.96319" lon="3.92862">
        <ele>739</ele>
        <time>2021-04-29T14:43:22Z</time>
      </trkpt>
      <trkpt lat="44.96326" lon="3.92853">
        <ele>737</ele>
        <time>2021-04-29T14:43:23Z</time>
      </trkpt>
      <trkpt lat="44.96331" lon="3.92842">
        <ele>736</ele>
        <time>2021-04-29T14:43:24Z</time>
      </trkpt>
      <trkpt lat="44.96331" lon="3.9283">
        <ele>736</ele>
        <time>2021-04-29T14:43:25Z</time>
      </trkpt>
      <trkpt lat="44.96329" lon="3.92819">
        <ele>736</ele>
        <time>2021-04-29T14:43:26Z</time>
      </trkpt>
      <trkpt lat="44.96326" lon="3.92807">
        <ele>735</ele>
        <time>2021-04-29T14:43:27Z</time>
      </trkpt>
      <trkpt lat="44.96316" lon="3.92786">
        <ele>734</ele>
        <time>2021-04-29T14:43:28Z</time>
      </trkpt>
      <trkpt lat="44.96312" lon="3.92774">
        <ele>733</ele>
        <time>2021-04-29T14:43:30Z</time>
      </trkpt>
      <trkpt lat="44.96309" lon="3.92762">
        <ele>732</ele>
        <time>2021-04-29T14:43:31Z</time>
      </trkpt>
      <trkpt lat="44.96308" lon="3.92748">
        <ele>731</ele>
        <time>2021-04-29T14:43:32Z</time>
      </trkpt>
      <trkpt lat="44.9631" lon="3.92736">
        <ele>731</ele>
        <time>2021-04-29T14:43:33Z</time>
      </trkpt>
      <trkpt lat="44.96313" lon="3.92723">
        <ele>730</ele>
        <time>2021-04-29T14:43:34Z</time>
      </trkpt>
      <trkpt lat="44.96317" lon="3.92712">
        <ele>730</ele>
        <time>2021-04-29T14:43:35Z</time>
      </trkpt>
      <trkpt lat="44.96322" lon="3.927">
        <ele>729</ele>
        <time>2021-04-29T14:43:36Z</time>
      </trkpt>
      <trkpt lat="44.96326" lon="3.92688">
        <ele>729</ele>
        <time>2021-04-29T14:43:37Z</time>
      </trkpt>
      <trkpt lat="44.96333" lon="3.92664">
        <ele>728</ele>
        <time>2021-04-29T14:43:38Z</time>
      </trkpt>
      <trkpt lat="44.96336" lon="3.92653">
        <ele>728</ele>
        <time>2021-04-29T14:43:40Z</time>
      </trkpt>
      <trkpt lat="44.96337" lon="3.92641">
        <ele>728</ele>
        <time>2021-04-29T14:43:41Z</time>
      </trkpt>
      <trkpt lat="44.96337" lon="3.9263">
        <ele>727</ele>
        <time>2021-04-29T14:43:42Z</time>
      </trkpt>
      <trkpt lat="44.96337" lon="3.9262">
        <ele>727</ele>
        <time>2021-04-29T14:43:43Z</time>
      </trkpt>
      <trkpt lat="44.96337" lon="3.92609">
        <ele>727</ele>
        <time>2021-04-29T14:43:44Z</time>
      </trkpt>
      <trkpt lat="44.96337" lon="3.92597">
        <ele>726</ele>
        <time>2021-04-29T14:43:45Z</time>
      </trkpt>
      <trkpt lat="44.96338" lon="3.92584">
        <ele>725</ele>
        <time>2021-04-29T14:43:46Z</time>
      </trkpt>
      <trkpt lat="44.9634" lon="3.9256">
        <ele>724</ele>
        <time>2021-04-29T14:43:47Z</time>
      </trkpt>
      <trkpt lat="44.96342" lon="3.92547">
        <ele>723</ele>
        <time>2021-04-29T14:43:49Z</time>
      </trkpt>
      <trkpt lat="44.96344" lon="3.92535">
        <ele>723</ele>
        <time>2021-04-29T14:43:50Z</time>
      </trkpt>
      <trkpt lat="44.96347" lon="3.92522">
        <ele>722</ele>
        <time>2021-04-29T14:43:51Z</time>
      </trkpt>
      <trkpt lat="44.96351" lon="3.92511">
        <ele>722</ele>
        <time>2021-04-29T14:43:52Z</time>
      </trkpt>
      <trkpt lat="44.96354" lon="3.92499">
        <ele>722</ele>
        <time>2021-04-29T14:43:53Z</time>
      </trkpt>
      <trkpt lat="44.96363" lon="3.92477">
        <ele>721</ele>
        <time>2021-04-29T14:43:55Z</time>
      </trkpt>
      <trkpt lat="44.96367" lon="3.92465">
        <ele>720</ele>
        <time>2021-04-29T14:43:56Z</time>
      </trkpt>
      <trkpt lat="44.96371" lon="3.92454">
        <ele>720</ele>
        <time>2021-04-29T14:43:57Z</time>
      </trkpt>
      <trkpt lat="44.96377" lon="3.92444">
        <ele>719</ele>
        <time>2021-04-29T14:43:58Z</time>
      </trkpt>
      <trkpt lat="44.96384" lon="3.92434">
        <ele>718</ele>
        <time>2021-04-29T14:43:59Z</time>
      </trkpt>
      <trkpt lat="44.96389" lon="3.92424">
        <ele>717</ele>
        <time>2021-04-29T14:44:00Z</time>
      </trkpt>
      <trkpt lat="44.96395" lon="3.92413">
        <ele>716</ele>
        <time>2021-04-29T14:44:01Z</time>
      </trkpt>
      <trkpt lat="44.96401" lon="3.92404">
        <ele>715</ele>
        <time>2021-04-29T14:44:02Z</time>
      </trkpt>
      <trkpt lat="44.96407" lon="3.92395">
        <ele>714</ele>
        <time>2021-04-29T14:44:03Z</time>
      </trkpt>
      <trkpt lat="44.96413" lon="3.92386">
        <ele>714</ele>
        <time>2021-04-29T14:44:04Z</time>
      </trkpt>
      <trkpt lat="44.9642" lon="3.92378">
        <ele>713</ele>
        <time>2021-04-29T14:44:05Z</time>
      </trkpt>
      <trkpt lat="44.96427" lon="3.92371">
        <ele>713</ele>
        <time>2021-04-29T14:44:06Z</time>
      </trkpt>
      <trkpt lat="44.96435" lon="3.92365">
        <ele>712</ele>
        <time>2021-04-29T14:44:07Z</time>
      </trkpt>
      <trkpt lat="44.96442" lon="3.92359">
        <ele>712</ele>
        <time>2021-04-29T14:44:08Z</time>
      </trkpt>
      <trkpt lat="44.96449" lon="3.92353">
        <ele>712</ele>
        <time>2021-04-29T14:44:09Z</time>
      </trkpt>
      <trkpt lat="44.96456" lon="3.92347">
        <ele>712</ele>
        <time>2021-04-29T14:44:10Z</time>
      </trkpt>
      <trkpt lat="44.96463" lon="3.9234">
        <ele>712</ele>
        <time>2021-04-29T14:44:11Z</time>
      </trkpt>
      <trkpt lat="44.9647" lon="3.92333">
        <ele>711</ele>
        <time>2021-04-29T14:44:12Z</time>
      </trkpt>
      <trkpt lat="44.96477" lon="3.92326">
        <ele>710</ele>
        <time>2021-04-29T14:44:13Z</time>
      </trkpt>
      <trkpt lat="44.96483" lon="3.92319">
        <ele>710</ele>
        <time>2021-04-29T14:44:14Z</time>
      </trkpt>
      <trkpt lat="44.9649" lon="3.92312">
        <ele>710</ele>
        <time>2021-04-29T14:44:15Z</time>
      </trkpt>
      <trkpt lat="44.96497" lon="3.92306">
        <ele>710</ele>
        <time>2021-04-29T14:44:16Z</time>
      </trkpt>
      <trkpt lat="44.96503" lon="3.923">
        <ele>709</ele>
        <time>2021-04-29T14:44:17Z</time>
      </trkpt>
      <trkpt lat="44.9651" lon="3.92295">
        <ele>709</ele>
        <time>2021-04-29T14:44:18Z</time>
      </trkpt>
      <trkpt lat="44.96516" lon="3.9229">
        <ele>709</ele>
        <time>2021-04-29T14:44:19Z</time>
      </trkpt>
      <trkpt lat="44.96523" lon="3.92285">
        <ele>708</ele>
        <time>2021-04-29T14:44:20Z</time>
      </trkpt>
      <trkpt lat="44.9653" lon="3.92281">
        <ele>708</ele>
        <time>2021-04-29T14:44:21Z</time>
      </trkpt>
      <trkpt lat="44.96536" lon="3.92276">
        <ele>706</ele>
        <time>2021-04-29T14:44:22Z</time>
      </trkpt>
      <trkpt lat="44.96543" lon="3.9227">
        <ele>706</ele>
        <time>2021-04-29T14:44:23Z</time>
      </trkpt>
      <trkpt lat="44.9655" lon="3.92265">
        <ele>705</ele>
        <time>2021-04-29T14:44:24Z</time>
      </trkpt>
      <trkpt lat="44.96556" lon="3.92258">
        <ele>705</ele>
        <time>2021-04-29T14:44:25Z</time>
      </trkpt>
      <trkpt lat="44.96561" lon="3.92249">
        <ele>703</ele>
        <time>2021-04-29T14:44:26Z</time>
      </trkpt>
      <trkpt lat="44.96567" lon="3.9223">
        <ele>701</ele>
        <time>2021-04-29T14:44:28Z</time>
      </trkpt>
      <trkpt lat="44.96568" lon="3.92219">
        <ele>701</ele>
        <time>2021-04-29T14:44:29Z</time>
      </trkpt>
      <trkpt lat="44.96569" lon="3.92209">
        <ele>700</ele>
        <time>2021-04-29T14:44:30Z</time>
      </trkpt>
      <trkpt lat="44.9657" lon="3.922">
        <ele>700</ele>
        <time>2021-04-29T14:44:31Z</time>
      </trkpt>
      <trkpt lat="44.96571" lon="3.92191">
        <ele>699</ele>
        <time>2021-04-29T14:44:32Z</time>
      </trkpt>
      <trkpt lat="44.96572" lon="3.92183">
        <ele>699</ele>
        <time>2021-04-29T14:44:33Z</time>
      </trkpt>
      <trkpt lat="44.96573" lon="3.92175">
        <ele>698</ele>
        <time>2021-04-29T14:44:34Z</time>
      </trkpt>
      <trkpt lat="44.96574" lon="3.92167">
        <ele>698</ele>
        <time>2021-04-29T14:44:35Z</time>
      </trkpt>
      <trkpt lat="44.96575" lon="3.92159">
        <ele>698</ele>
        <time>2021-04-29T14:44:36Z</time>
      </trkpt>
      <trkpt lat="44.96575" lon="3.92151">
        <ele>697</ele>
        <time>2021-04-29T14:44:37Z</time>
      </trkpt>
      <trkpt lat="44.96576" lon="3.92143">
        <ele>697</ele>
        <time>2021-04-29T14:44:38Z</time>
      </trkpt>
      <trkpt lat="44.96577" lon="3.92135">
        <ele>697</ele>
        <time>2021-04-29T14:44:39Z</time>
      </trkpt>
      <trkpt lat="44.96578" lon="3.92126">
        <ele>696</ele>
        <time>2021-04-29T14:44:40Z</time>
      </trkpt>
      <trkpt lat="44.96579" lon="3.92118">
        <ele>696</ele>
        <time>2021-04-29T14:44:41Z</time>
      </trkpt>
      <trkpt lat="44.96579" lon="3.9211">
        <ele>696</ele>
        <time>2021-04-29T14:44:42Z</time>
      </trkpt>
      <trkpt lat="44.9658" lon="3.92103">
        <ele>696</ele>
        <time>2021-04-29T14:44:43Z</time>
      </trkpt>
      <trkpt lat="44.96581" lon="3.92089">
        <ele>696</ele>
        <time>2021-04-29T14:44:44Z</time>
      </trkpt>
      <trkpt lat="44.96582" lon="3.92082">
        <ele>696</ele>
        <time>2021-04-29T14:44:46Z</time>
      </trkpt>
      <trkpt lat="44.96583" lon="3.92076">
        <ele>696</ele>
        <time>2021-04-29T14:44:47Z</time>
      </trkpt>
      <trkpt lat="44.96583" lon="3.9207">
        <ele>696</ele>
        <time>2021-04-29T14:44:48Z</time>
      </trkpt>
      <trkpt lat="44.96582" lon="3.92066">
        <ele>696</ele>
        <time>2021-04-29T14:44:49Z</time>
      </trkpt>
      <trkpt lat="44.96579" lon="3.92064">
        <ele>695</ele>
        <time>2021-04-29T14:44:50Z</time>
      </trkpt>
      <trkpt lat="44.96577" lon="3.92064">
        <ele>695</ele>
        <time>2021-04-29T14:44:51Z</time>
      </trkpt>
      <trkpt lat="44.96574" lon="3.92064">
        <ele>695</ele>
        <time>2021-04-29T14:44:52Z</time>
      </trkpt>
      <trkpt lat="44.96571" lon="3.92065">
        <ele>695</ele>
        <time>2021-04-29T14:44:53Z</time>
      </trkpt>
      <trkpt lat="44.96568" lon="3.92064">
        <ele>695</ele>
        <time>2021-04-29T14:44:54Z</time>
      </trkpt>
      <trkpt lat="44.96564" lon="3.92064">
        <ele>695</ele>
        <time>2021-04-29T14:44:55Z</time>
      </trkpt>
      <trkpt lat="44.9656" lon="3.92063">
        <ele>695</ele>
        <time>2021-04-29T14:44:56Z</time>
      </trkpt>
      <trkpt lat="44.96556" lon="3.92063">
        <ele>695</ele>
        <time>2021-04-29T14:44:57Z</time>
      </trkpt>
      <trkpt lat="44.96551" lon="3.92063">
        <ele>695</ele>
        <time>2021-04-29T14:44:58Z</time>
      </trkpt>
      <trkpt lat="44.96547" lon="3.92062">
        <ele>695</ele>
        <time>2021-04-29T14:44:59Z</time>
      </trkpt>
      <trkpt lat="44.96542" lon="3.92062">
        <ele>694</ele>
        <time>2021-04-29T14:45:00Z</time>
      </trkpt>
      <trkpt lat="44.96538" lon="3.92062">
        <ele>694</ele>
        <time>2021-04-29T14:45:01Z</time>
      </trkpt>
      <trkpt lat="44.96533" lon="3.92061">
        <ele>694</ele>
        <time>2021-04-29T14:45:02Z</time>
      </trkpt>
      <trkpt lat="44.96522" lon="3.92061">
        <ele>694</ele>
        <time>2021-04-29T14:45:03Z</time>
      </trkpt>
      <trkpt lat="44.96517" lon="3.92061">
        <ele>694</ele>
        <time>2021-04-29T14:45:05Z</time>
      </trkpt>
      <trkpt lat="44.96512" lon="3.9206">
        <ele>694</ele>
        <time>2021-04-29T14:45:06Z</time>
      </trkpt>
      <trkpt lat="44.96507" lon="3.92059">
        <ele>694</ele>
        <time>2021-04-29T14:45:07Z</time>
      </trkpt>
      <trkpt lat="44.96502" lon="3.92059">
        <ele>694</ele>
        <time>2021-04-29T14:45:08Z</time>
      </trkpt>
      <trkpt lat="44.96497" lon="3.92058">
        <ele>694</ele>
        <time>2021-04-29T14:45:09Z</time>
      </trkpt>
      <trkpt lat="44.96492" lon="3.92058">
        <ele>694</ele>
        <time>2021-04-29T14:45:10Z</time>
      </trkpt>
      <trkpt lat="44.96487" lon="3.92057">
        <ele>694</ele>
        <time>2021-04-29T14:45:11Z</time>
      </trkpt>
      <trkpt lat="44.96482" lon="3.92057">
        <ele>694</ele>
        <time>2021-04-29T14:45:12Z</time>
      </trkpt>
      <trkpt lat="44.96477" lon="3.92056">
        <ele>694</ele>
        <time>2021-04-29T14:45:13Z</time>
      </trkpt>
      <trkpt lat="44.96472" lon="3.92054">
        <ele>694</ele>
        <time>2021-04-29T14:45:14Z</time>
      </trkpt>
      <trkpt lat="44.96467" lon="3.92052">
        <ele>694</ele>
        <time>2021-04-29T14:45:15Z</time>
      </trkpt>
      <trkpt lat="44.96462" lon="3.9205">
        <ele>694</ele>
        <time>2021-04-29T14:45:16Z</time>
      </trkpt>
      <trkpt lat="44.96457" lon="3.92048">
        <ele>694</ele>
        <time>2021-04-29T14:45:17Z</time>
      </trkpt>
      <trkpt lat="44.96451" lon="3.92047">
        <ele>694</ele>
        <time>2021-04-29T14:45:18Z</time>
      </trkpt>
      <trkpt lat="44.96446" lon="3.92046">
        <ele>694</ele>
        <time>2021-04-29T14:45:19Z</time>
      </trkpt>
      <trkpt lat="44.9644" lon="3.92045">
        <ele>694</ele>
        <time>2021-04-29T14:45:20Z</time>
      </trkpt>
      <trkpt lat="44.96435" lon="3.92044">
        <ele>694</ele>
        <time>2021-04-29T14:45:21Z</time>
      </trkpt>
      <trkpt lat="44.96423" lon="3.92044">
        <ele>694</ele>
        <time>2021-04-29T14:45:22Z</time>
      </trkpt>
      <trkpt lat="44.96417" lon="3.92044">
        <ele>694</ele>
        <time>2021-04-29T14:45:24Z</time>
      </trkpt>
      <trkpt lat="44.9641" lon="3.92043">
        <ele>694</ele>
        <time>2021-04-29T14:45:25Z</time>
      </trkpt>
      <trkpt lat="44.96404" lon="3.92042">
        <ele>694</ele>
        <time>2021-04-29T14:45:26Z</time>
      </trkpt>
      <trkpt lat="44.96398" lon="3.92041">
        <ele>694</ele>
        <time>2021-04-29T14:45:27Z</time>
      </trkpt>
      <trkpt lat="44.96391" lon="3.9204">
        <ele>694</ele>
        <time>2021-04-29T14:45:28Z</time>
      </trkpt>
      <trkpt lat="44.96385" lon="3.92039">
        <ele>693</ele>
        <time>2021-04-29T14:45:29Z</time>
      </trkpt>
      <trkpt lat="44.96379" lon="3.92038">
        <ele>693</ele>
        <time>2021-04-29T14:45:30Z</time>
      </trkpt>
      <trkpt lat="44.96372" lon="3.92036">
        <ele>693</ele>
        <time>2021-04-29T14:45:31Z</time>
      </trkpt>
      <trkpt lat="44.96366" lon="3.92035">
        <ele>693</ele>
        <time>2021-04-29T14:45:32Z</time>
      </trkpt>
      <trkpt lat="44.9636" lon="3.92033">
        <ele>693</ele>
        <time>2021-04-29T14:45:33Z</time>
      </trkpt>
      <trkpt lat="44.96354" lon="3.92031">
        <ele>693</ele>
        <time>2021-04-29T14:45:34Z</time>
      </trkpt>
      <trkpt lat="44.96349" lon="3.92028">
        <ele>693</ele>
        <time>2021-04-29T14:45:35Z</time>
      </trkpt>
      <trkpt lat="44.96343" lon="3.92026">
        <ele>692</ele>
        <time>2021-04-29T14:45:36Z</time>
      </trkpt>
      <trkpt lat="44.96337" lon="3.92024">
        <ele>692</ele>
        <time>2021-04-29T14:45:37Z</time>
      </trkpt>
      <trkpt lat="44.96326" lon="3.9202">
        <ele>692</ele>
        <time>2021-04-29T14:45:38Z</time>
      </trkpt>
      <trkpt lat="44.9632" lon="3.92018">
        <ele>692</ele>
        <time>2021-04-29T14:45:40Z</time>
      </trkpt>
      <trkpt lat="44.96309" lon="3.92017">
        <ele>692</ele>
        <time>2021-04-29T14:45:41Z</time>
      </trkpt>
      <trkpt lat="44.96304" lon="3.92017">
        <ele>691</ele>
        <time>2021-04-29T14:45:43Z</time>
      </trkpt>
      <trkpt lat="44.96299" lon="3.92017">
        <ele>691</ele>
        <time>2021-04-29T14:45:44Z</time>
      </trkpt>
      <trkpt lat="44.96294" lon="3.92017">
        <ele>691</ele>
        <time>2021-04-29T14:45:45Z</time>
      </trkpt>
      <trkpt lat="44.9629" lon="3.92017">
        <ele>691</ele>
        <time>2021-04-29T14:45:46Z</time>
      </trkpt>
      <trkpt lat="44.96285" lon="3.92017">
        <ele>691</ele>
        <time>2021-04-29T14:45:47Z</time>
      </trkpt>
      <trkpt lat="44.9628" lon="3.92017">
        <ele>691</ele>
        <time>2021-04-29T14:45:48Z</time>
      </trkpt>
      <trkpt lat="44.96276" lon="3.92018">
        <ele>691</ele>
        <time>2021-04-29T14:45:49Z</time>
      </trkpt>
      <trkpt lat="44.96271" lon="3.92019">
        <ele>691</ele>
        <time>2021-04-29T14:45:50Z</time>
      </trkpt>
      <trkpt lat="44.96266" lon="3.92021">
        <ele>691</ele>
        <time>2021-04-29T14:45:51Z</time>
      </trkpt>
      <trkpt lat="44.96262" lon="3.92024">
        <ele>691</ele>
        <time>2021-04-29T14:45:52Z</time>
      </trkpt>
      <trkpt lat="44.96257" lon="3.92026">
        <ele>691</ele>
        <time>2021-04-29T14:45:53Z</time>
      </trkpt>
      <trkpt lat="44.96252" lon="3.92028">
        <ele>691</ele>
        <time>2021-04-29T14:45:54Z</time>
      </trkpt>
      <trkpt lat="44.96248" lon="3.9203">
        <ele>691</ele>
        <time>2021-04-29T14:45:55Z</time>
      </trkpt>
      <trkpt lat="44.96243" lon="3.92032">
        <ele>691</ele>
        <time>2021-04-29T14:45:56Z</time>
      </trkpt>
      <trkpt lat="44.96238" lon="3.92033">
        <ele>691</ele>
        <time>2021-04-29T14:45:57Z</time>
      </trkpt>
      <trkpt lat="44.96233" lon="3.92035">
        <ele>691</ele>
        <time>2021-04-29T14:45:58Z</time>
      </trkpt>
      <trkpt lat="44.96228" lon="3.92036">
        <ele>691</ele>
        <time>2021-04-29T14:45:59Z</time>
      </trkpt>
      <trkpt lat="44.96223" lon="3.92038">
        <ele>691</ele>
        <time>2021-04-29T14:46:00Z</time>
      </trkpt>
      <trkpt lat="44.96218" lon="3.92039">
        <ele>691</ele>
        <time>2021-04-29T14:46:01Z</time>
      </trkpt>
      <trkpt lat="44.96213" lon="3.92041">
        <ele>691</ele>
        <time>2021-04-29T14:46:02Z</time>
      </trkpt>
      <trkpt lat="44.96208" lon="3.92043">
        <ele>691</ele>
        <time>2021-04-29T14:46:03Z</time>
      </trkpt>
      <trkpt lat="44.96204" lon="3.92046">
        <ele>691</ele>
        <time>2021-04-29T14:46:04Z</time>
      </trkpt>
      <trkpt lat="44.96199" lon="3.92048">
        <ele>691</ele>
        <time>2021-04-29T14:46:05Z</time>
      </trkpt>
      <trkpt lat="44.96194" lon="3.92051">
        <ele>691</ele>
        <time>2021-04-29T14:46:06Z</time>
      </trkpt>
      <trkpt lat="44.9619" lon="3.92054">
        <ele>691</ele>
        <time>2021-04-29T14:46:07Z</time>
      </trkpt>
      <trkpt lat="44.96185" lon="3.92057">
        <ele>691</ele>
        <time>2021-04-29T14:46:08Z</time>
      </trkpt>
      <trkpt lat="44.9618" lon="3.9206">
        <ele>691</ele>
        <time>2021-04-29T14:46:09Z</time>
      </trkpt>
      <trkpt lat="44.96176" lon="3.92062">
        <ele>691</ele>
        <time>2021-04-29T14:46:10Z</time>
      </trkpt>
      <trkpt lat="44.96171" lon="3.92065">
        <ele>691</ele>
        <time>2021-04-29T14:46:11Z</time>
      </trkpt>
      <trkpt lat="44.96166" lon="3.92066">
        <ele>691</ele>
        <time>2021-04-29T14:46:12Z</time>
      </trkpt>
      <trkpt lat="44.96161" lon="3.92068">
        <ele>691</ele>
        <time>2021-04-29T14:46:13Z</time>
      </trkpt>
      <trkpt lat="44.96156" lon="3.9207">
        <ele>691</ele>
        <time>2021-04-29T14:46:14Z</time>
      </trkpt>
      <trkpt lat="44.96152" lon="3.92071">
        <ele>691</ele>
        <time>2021-04-29T14:46:15Z</time>
      </trkpt>
      <trkpt lat="44.96147" lon="3.92073">
        <ele>691</ele>
        <time>2021-04-29T14:46:16Z</time>
      </trkpt>
      <trkpt lat="44.96143" lon="3.92076">
        <ele>691</ele>
        <time>2021-04-29T14:46:17Z</time>
      </trkpt>
      <trkpt lat="44.96139" lon="3.9208">
        <ele>691</ele>
        <time>2021-04-29T14:46:18Z</time>
      </trkpt>
      <trkpt lat="44.96136" lon="3.92084">
        <ele>691</ele>
        <time>2021-04-29T14:46:19Z</time>
      </trkpt>
      <trkpt lat="44.96132" lon="3.92088">
        <ele>691</ele>
        <time>2021-04-29T14:46:20Z</time>
      </trkpt>
      <trkpt lat="44.96129" lon="3.92092">
        <ele>691</ele>
        <time>2021-04-29T14:46:21Z</time>
      </trkpt>
      <trkpt lat="44.96125" lon="3.92096">
        <ele>691</ele>
        <time>2021-04-29T14:46:22Z</time>
      </trkpt>
      <trkpt lat="44.96121" lon="3.921">
        <ele>691</ele>
        <time>2021-04-29T14:46:23Z</time>
      </trkpt>
      <trkpt lat="44.96117" lon="3.92104">
        <ele>691</ele>
        <time>2021-04-29T14:46:24Z</time>
      </trkpt>
      <trkpt lat="44.96113" lon="3.92108">
        <ele>691</ele>
        <time>2021-04-29T14:46:25Z</time>
      </trkpt>
      <trkpt lat="44.96109" lon="3.92112">
        <ele>691</ele>
        <time>2021-04-29T14:46:26Z</time>
      </trkpt>
      <trkpt lat="44.96105" lon="3.92117">
        <ele>691</ele>
        <time>2021-04-29T14:46:27Z</time>
      </trkpt>
      <trkpt lat="44.96102" lon="3.92122">
        <ele>691</ele>
        <time>2021-04-29T14:46:28Z</time>
      </trkpt>
      <trkpt lat="44.96098" lon="3.92127">
        <ele>691</ele>
        <time>2021-04-29T14:46:29Z</time>
      </trkpt>
      <trkpt lat="44.96095" lon="3.92132">
        <ele>691</ele>
        <time>2021-04-29T14:46:30Z</time>
      </trkpt>
      <trkpt lat="44.96091" lon="3.92137">
        <ele>691</ele>
        <time>2021-04-29T14:46:31Z</time>
      </trkpt>
      <trkpt lat="44.96086" lon="3.92142">
        <ele>691</ele>
        <time>2021-04-29T14:46:32Z</time>
      </trkpt>
      <trkpt lat="44.96082" lon="3.92147">
        <ele>691</ele>
        <time>2021-04-29T14:46:33Z</time>
      </trkpt>
      <trkpt lat="44.96077" lon="3.92152">
        <ele>691</ele>
        <time>2021-04-29T14:46:34Z</time>
      </trkpt>
      <trkpt lat="44.96073" lon="3.92157">
        <ele>691</ele>
        <time>2021-04-29T14:46:35Z</time>
      </trkpt>
      <trkpt lat="44.96068" lon="3.92163">
        <ele>691</ele>
        <time>2021-04-29T14:46:36Z</time>
      </trkpt>
      <trkpt lat="44.96064" lon="3.92169">
        <ele>691</ele>
        <time>2021-04-29T14:46:37Z</time>
      </trkpt>
      <trkpt lat="44.96061" lon="3.92175">
        <ele>692</ele>
        <time>2021-04-29T14:46:38Z</time>
      </trkpt>
      <trkpt lat="44.96057" lon="3.92181">
        <ele>692</ele>
        <time>2021-04-29T14:46:39Z</time>
      </trkpt>
      <trkpt lat="44.96052" lon="3.92187">
        <ele>692</ele>
        <time>2021-04-29T14:46:40Z</time>
      </trkpt>
      <trkpt lat="44.96048" lon="3.92192">
        <ele>692</ele>
        <time>2021-04-29T14:46:41Z</time>
      </trkpt>
      <trkpt lat="44.96044" lon="3.92198">
        <ele>692</ele>
        <time>2021-04-29T14:46:42Z</time>
      </trkpt>
      <trkpt lat="44.96039" lon="3.92204">
        <ele>692</ele>
        <time>2021-04-29T14:46:43Z</time>
      </trkpt>
      <trkpt lat="44.96035" lon="3.92209">
        <ele>692</ele>
        <time>2021-04-29T14:46:44Z</time>
      </trkpt>
      <trkpt lat="44.9603" lon="3.92214">
        <ele>692</ele>
        <time>2021-04-29T14:46:45Z</time>
      </trkpt>
      <trkpt lat="44.96026" lon="3.92219">
        <ele>692</ele>
        <time>2021-04-29T14:46:46Z</time>
      </trkpt>
      <trkpt lat="44.96021" lon="3.92224">
        <ele>692</ele>
        <time>2021-04-29T14:46:47Z</time>
      </trkpt>
      <trkpt lat="44.96017" lon="3.92229">
        <ele>692</ele>
        <time>2021-04-29T14:46:48Z</time>
      </trkpt>
      <trkpt lat="44.96012" lon="3.92234">
        <ele>692</ele>
        <time>2021-04-29T14:46:49Z</time>
      </trkpt>
      <trkpt lat="44.96007" lon="3.9224">
        <ele>692</ele>
        <time>2021-04-29T14:46:50Z</time>
      </trkpt>
      <trkpt lat="44.96002" lon="3.92245">
        <ele>692</ele>
        <time>2021-04-29T14:46:51Z</time>
      </trkpt>
      <trkpt lat="44.95998" lon="3.9225">
        <ele>692</ele>
        <time>2021-04-29T14:46:52Z</time>
      </trkpt>
      <trkpt lat="44.95993" lon="3.92255">
        <ele>693</ele>
        <time>2021-04-29T14:46:53Z</time>
      </trkpt>
      <trkpt lat="44.95988" lon="3.9226">
        <ele>693</ele>
        <time>2021-04-29T14:46:54Z</time>
      </trkpt>
      <trkpt lat="44.95984" lon="3.92265">
        <ele>693</ele>
        <time>2021-04-29T14:46:55Z</time>
      </trkpt>
      <trkpt lat="44.9598" lon="3.92271">
        <ele>693</ele>
        <time>2021-04-29T14:46:56Z</time>
      </trkpt>
      <trkpt lat="44.95976" lon="3.92276">
        <ele>693</ele>
        <time>2021-04-29T14:46:57Z</time>
      </trkpt>
      <trkpt lat="44.95972" lon="3.92282">
        <ele>693</ele>
        <time>2021-04-29T14:46:58Z</time>
      </trkpt>
      <trkpt lat="44.95969" lon="3.92287">
        <ele>693</ele>
        <time>2021-04-29T14:46:59Z</time>
      </trkpt>
      <trkpt lat="44.95966" lon="3.92292">
        <ele>693</ele>
        <time>2021-04-29T14:47:00Z</time>
      </trkpt>
      <trkpt lat="44.95961" lon="3.92298">
        <ele>693</ele>
        <time>2021-04-29T14:47:01Z</time>
      </trkpt>
      <trkpt lat="44.95957" lon="3.92303">
        <ele>693</ele>
        <time>2021-04-29T14:47:02Z</time>
      </trkpt>
      <trkpt lat="44.95952" lon="3.92309">
        <ele>694</ele>
        <time>2021-04-29T14:47:03Z</time>
      </trkpt>
      <trkpt lat="44.95948" lon="3.92314">
        <ele>694</ele>
        <time>2021-04-29T14:47:04Z</time>
      </trkpt>
      <trkpt lat="44.95943" lon="3.9232">
        <ele>694</ele>
        <time>2021-04-29T14:47:05Z</time>
      </trkpt>
      <trkpt lat="44.95939" lon="3.92327">
        <ele>694</ele>
        <time>2021-04-29T14:47:06Z</time>
      </trkpt>
      <trkpt lat="44.95935" lon="3.92333">
        <ele>694</ele>
        <time>2021-04-29T14:47:07Z</time>
      </trkpt>
      <trkpt lat="44.95931" lon="3.92339">
        <ele>694</ele>
        <time>2021-04-29T14:47:08Z</time>
      </trkpt>
      <trkpt lat="44.95927" lon="3.92346">
        <ele>694</ele>
        <time>2021-04-29T14:47:09Z</time>
      </trkpt>
      <trkpt lat="44.95923" lon="3.92352">
        <ele>694</ele>
        <time>2021-04-29T14:47:10Z</time>
      </trkpt>
      <trkpt lat="44.95919" lon="3.92359">
        <ele>694</ele>
        <time>2021-04-29T14:47:11Z</time>
      </trkpt>
      <trkpt lat="44.95915" lon="3.92366">
        <ele>694</ele>
        <time>2021-04-29T14:47:12Z</time>
      </trkpt>
      <trkpt lat="44.95912" lon="3.92372">
        <ele>694</ele>
        <time>2021-04-29T14:47:13Z</time>
      </trkpt>
      <trkpt lat="44.95908" lon="3.92379">
        <ele>694</ele>
        <time>2021-04-29T14:47:14Z</time>
      </trkpt>
      <trkpt lat="44.95905" lon="3.92385">
        <ele>694</ele>
        <time>2021-04-29T14:47:15Z</time>
      </trkpt>
      <trkpt lat="44.95898" lon="3.92398">
        <ele>695</ele>
        <time>2021-04-29T14:47:16Z</time>
      </trkpt>
      <trkpt lat="44.95895" lon="3.92405">
        <ele>694</ele>
        <time>2021-04-29T14:47:18Z</time>
      </trkpt>
      <trkpt lat="44.95892" lon="3.92412">
        <ele>694</ele>
        <time>2021-04-29T14:47:19Z</time>
      </trkpt>
      <trkpt lat="44.95889" lon="3.92418">
        <ele>694</ele>
        <time>2021-04-29T14:47:20Z</time>
      </trkpt>
      <trkpt lat="44.95885" lon="3.92424">
        <ele>695</ele>
        <time>2021-04-29T14:47:21Z</time>
      </trkpt>
      <trkpt lat="44.95881" lon="3.9243">
        <ele>695</ele>
        <time>2021-04-29T14:47:22Z</time>
      </trkpt>
      <trkpt lat="44.95873" lon="3.92441">
        <ele>695</ele>
        <time>2021-04-29T14:47:23Z</time>
      </trkpt>
      <trkpt lat="44.95869" lon="3.92446">
        <ele>694</ele>
        <time>2021-04-29T14:47:25Z</time>
      </trkpt>
      <trkpt lat="44.95866" lon="3.92451">
        <ele>694</ele>
        <time>2021-04-29T14:47:26Z</time>
      </trkpt>
      <trkpt lat="44.95862" lon="3.92456">
        <ele>694</ele>
        <time>2021-04-29T14:47:27Z</time>
      </trkpt>
      <trkpt lat="44.95859" lon="3.92461">
        <ele>694</ele>
        <time>2021-04-29T14:47:28Z</time>
      </trkpt>
      <trkpt lat="44.95857" lon="3.92466">
        <ele>694</ele>
        <time>2021-04-29T14:47:29Z</time>
      </trkpt>
      <trkpt lat="44.95855" lon="3.92471">
        <ele>694</ele>
        <time>2021-04-29T14:47:30Z</time>
      </trkpt>
      <trkpt lat="44.95853" lon="3.92476">
        <ele>694</ele>
        <time>2021-04-29T14:47:31Z</time>
      </trkpt>
      <trkpt lat="44.95851" lon="3.9248">
        <ele>693</ele>
        <time>2021-04-29T14:47:32Z</time>
      </trkpt>
      <trkpt lat="44.95848" lon="3.92483">
        <ele>693</ele>
        <time>2021-04-29T14:47:33Z</time>
      </trkpt>
      <trkpt lat="44.95845" lon="3.92484">
        <ele>693</ele>
        <time>2021-04-29T14:47:34Z</time>
      </trkpt>
      <trkpt lat="44.95837" lon="3.92483">
        <ele>693</ele>
        <time>2021-04-29T14:47:35Z</time>
      </trkpt>
      <trkpt lat="44.95833" lon="3.92481">
        <ele>693</ele>
        <time>2021-04-29T14:47:37Z</time>
      </trkpt>
      <trkpt lat="44.95829" lon="3.9248">
        <ele>693</ele>
        <time>2021-04-29T14:47:38Z</time>
      </trkpt>
      <trkpt lat="44.95826" lon="3.92479">
        <ele>693</ele>
        <time>2021-04-29T14:47:39Z</time>
      </trkpt>
      <trkpt lat="44.95823" lon="3.92477">
        <ele>693</ele>
        <time>2021-04-29T14:47:40Z</time>
      </trkpt>
      <trkpt lat="44.95819" lon="3.92475">
        <ele>693</ele>
        <time>2021-04-29T14:47:41Z</time>
      </trkpt>
      <trkpt lat="44.95816" lon="3.92473">
        <ele>693</ele>
        <time>2021-04-29T14:47:42Z</time>
      </trkpt>
      <trkpt lat="44.95812" lon="3.92471">
        <ele>693</ele>
        <time>2021-04-29T14:47:43Z</time>
      </trkpt>
      <trkpt lat="44.95809" lon="3.92469">
        <ele>693</ele>
        <time>2021-04-29T14:47:44Z</time>
      </trkpt>
      <trkpt lat="44.95806" lon="3.92467">
        <ele>693</ele>
        <time>2021-04-29T14:47:45Z</time>
      </trkpt>
      <trkpt lat="44.95803" lon="3.92465">
        <ele>693</ele>
        <time>2021-04-29T14:47:46Z</time>
      </trkpt>
      <trkpt lat="44.958" lon="3.92462">
        <ele>693</ele>
        <time>2021-04-29T14:47:47Z</time>
      </trkpt>
      <trkpt lat="44.95798" lon="3.92459">
        <ele>693</ele>
        <time>2021-04-29T14:47:48Z</time>
      </trkpt>
      <trkpt lat="44.95795" lon="3.92456">
        <ele>693</ele>
        <time>2021-04-29T14:47:49Z</time>
      </trkpt>
      <trkpt lat="44.95792" lon="3.92453">
        <ele>693</ele>
        <time>2021-04-29T14:47:50Z</time>
      </trkpt>
      <trkpt lat="44.9579" lon="3.9245">
        <ele>693</ele>
        <time>2021-04-29T14:47:51Z</time>
      </trkpt>
      <trkpt lat="44.95786" lon="3.92447">
        <ele>693</ele>
        <time>2021-04-29T14:47:52Z</time>
      </trkpt>
      <trkpt lat="44.95783" lon="3.92443">
        <ele>693</ele>
        <time>2021-04-29T14:47:53Z</time>
      </trkpt>
      <trkpt lat="44.95781" lon="3.9244">
        <ele>693</ele>
        <time>2021-04-29T14:47:54Z</time>
      </trkpt>
      <trkpt lat="44.95778" lon="3.92437">
        <ele>693</ele>
        <time>2021-04-29T14:47:55Z</time>
      </trkpt>
      <trkpt lat="44.95775" lon="3.92434">
        <ele>693</ele>
        <time>2021-04-29T14:47:56Z</time>
      </trkpt>
      <trkpt lat="44.95772" lon="3.92431">
        <ele>693</ele>
        <time>2021-04-29T14:47:57Z</time>
      </trkpt>
      <trkpt lat="44.95769" lon="3.92428">
        <ele>693</ele>
        <time>2021-04-29T14:47:58Z</time>
      </trkpt>
      <trkpt lat="44.95766" lon="3.92425">
        <ele>693</ele>
        <time>2021-04-29T14:47:59Z</time>
      </trkpt>
      <trkpt lat="44.95762" lon="3.92422">
        <ele>693</ele>
        <time>2021-04-29T14:48:00Z</time>
      </trkpt>
      <trkpt lat="44.9576" lon="3.92418">
        <ele>693</ele>
        <time>2021-04-29T14:48:01Z</time>
      </trkpt>
      <trkpt lat="44.95757" lon="3.92415">
        <ele>693</ele>
        <time>2021-04-29T14:48:02Z</time>
      </trkpt>
      <trkpt lat="44.95755" lon="3.92412">
        <ele>694</ele>
        <time>2021-04-29T14:48:03Z</time>
      </trkpt>
      <trkpt lat="44.95752" lon="3.92408">
        <ele>694</ele>
        <time>2021-04-29T14:48:04Z</time>
      </trkpt>
      <trkpt lat="44.95749" lon="3.92405">
        <ele>694</ele>
        <time>2021-04-29T14:48:05Z</time>
      </trkpt>
      <trkpt lat="44.95746" lon="3.92401">
        <ele>694</ele>
        <time>2021-04-29T14:48:06Z</time>
      </trkpt>
      <trkpt lat="44.95744" lon="3.92398">
        <ele>694</ele>
        <time>2021-04-29T14:48:07Z</time>
      </trkpt>
      <trkpt lat="44.95741" lon="3.92396">
        <ele>694</ele>
        <time>2021-04-29T14:48:08Z</time>
      </trkpt>
      <trkpt lat="44.95738" lon="3.92393">
        <ele>695</ele>
        <time>2021-04-29T14:48:09Z</time>
      </trkpt>
      <trkpt lat="44.95736" lon="3.9239">
        <ele>695</ele>
        <time>2021-04-29T14:48:10Z</time>
      </trkpt>
      <trkpt lat="44.95734" lon="3.92387">
        <ele>695</ele>
        <time>2021-04-29T14:48:11Z</time>
      </trkpt>
      <trkpt lat="44.95731" lon="3.92383">
        <ele>696</ele>
        <time>2021-04-29T14:48:12Z</time>
      </trkpt>
      <trkpt lat="44.95729" lon="3.9238">
        <ele>696</ele>
        <time>2021-04-29T14:48:13Z</time>
      </trkpt>
      <trkpt lat="44.95726" lon="3.92377">
        <ele>696</ele>
        <time>2021-04-29T14:48:14Z</time>
      </trkpt>
      <trkpt lat="44.95724" lon="3.92374">
        <ele>696</ele>
        <time>2021-04-29T14:48:15Z</time>
      </trkpt>
      <trkpt lat="44.95721" lon="3.9237">
        <ele>696</ele>
        <time>2021-04-29T14:48:16Z</time>
      </trkpt>
      <trkpt lat="44.9572" lon="3.92366">
        <ele>696</ele>
        <time>2021-04-29T14:48:17Z</time>
      </trkpt>
      <trkpt lat="44.95718" lon="3.92361">
        <ele>696</ele>
        <time>2021-04-29T14:48:18Z</time>
      </trkpt>
      <trkpt lat="44.95717" lon="3.92357">
        <ele>697</ele>
        <time>2021-04-29T14:48:19Z</time>
      </trkpt>
      <trkpt lat="44.95717" lon="3.92353">
        <ele>697</ele>
        <time>2021-04-29T14:48:20Z</time>
      </trkpt>
      <trkpt lat="44.95716" lon="3.92349">
        <ele>697</ele>
        <time>2021-04-29T14:48:21Z</time>
      </trkpt>
      <trkpt lat="44.95716" lon="3.92346">
        <ele>697</ele>
        <time>2021-04-29T14:48:22Z</time>
      </trkpt>
      <trkpt lat="44.95715" lon="3.92342">
        <ele>697</ele>
        <time>2021-04-29T14:48:23Z</time>
      </trkpt>
      <trkpt lat="44.95715" lon="3.92338">
        <ele>697</ele>
        <time>2021-04-29T14:48:24Z</time>
      </trkpt>
      <trkpt lat="44.95715" lon="3.92334">
        <ele>698</ele>
        <time>2021-04-29T14:48:25Z</time>
      </trkpt>
      <trkpt lat="44.95715" lon="3.9233">
        <ele>698</ele>
        <time>2021-04-29T14:48:26Z</time>
      </trkpt>
      <trkpt lat="44.95714" lon="3.92327">
        <ele>698</ele>
        <time>2021-04-29T14:48:27Z</time>
      </trkpt>
      <trkpt lat="44.95714" lon="3.92323">
        <ele>698</ele>
        <time>2021-04-29T14:48:28Z</time>
      </trkpt>
      <trkpt lat="44.95714" lon="3.9232">
        <ele>699</ele>
        <time>2021-04-29T14:48:29Z</time>
      </trkpt>
      <trkpt lat="44.95714" lon="3.92317">
        <ele>699</ele>
        <time>2021-04-29T14:48:30Z</time>
      </trkpt>
      <trkpt lat="44.95714" lon="3.92313">
        <ele>700</ele>
        <time>2021-04-29T14:48:31Z</time>
      </trkpt>
      <trkpt lat="44.95713" lon="3.9231">
        <ele>700</ele>
        <time>2021-04-29T14:48:32Z</time>
      </trkpt>
      <trkpt lat="44.95714" lon="3.92307">
        <ele>700</ele>
        <time>2021-04-29T14:48:33Z</time>
      </trkpt>
      <trkpt lat="44.95714" lon="3.92303">
        <ele>700</ele>
        <time>2021-04-29T14:48:34Z</time>
      </trkpt>
      <trkpt lat="44.95714" lon="3.923">
        <ele>700</ele>
        <time>2021-04-29T14:48:35Z</time>
      </trkpt>
      <trkpt lat="44.95713" lon="3.92297">
        <ele>700</ele>
        <time>2021-04-29T14:48:36Z</time>
      </trkpt>
      <trkpt lat="44.95713" lon="3.92294">
        <ele>701</ele>
        <time>2021-04-29T14:48:37Z</time>
      </trkpt>
      <trkpt lat="44.95713" lon="3.92291">
        <ele>701</ele>
        <time>2021-04-29T14:48:38Z</time>
      </trkpt>
      <trkpt lat="44.95714" lon="3.92288">
        <ele>701</ele>
        <time>2021-04-29T14:48:39Z</time>
      </trkpt>
      <trkpt lat="44.95714" lon="3.92285">
        <ele>701</ele>
        <time>2021-04-29T14:48:40Z</time>
      </trkpt>
      <trkpt lat="44.95714" lon="3.92282">
        <ele>702</ele>
        <time>2021-04-29T14:48:41Z</time>
      </trkpt>
      <trkpt lat="44.95714" lon="3.92279">
        <ele>702</ele>
        <time>2021-04-29T14:48:42Z</time>
      </trkpt>
      <trkpt lat="44.95713" lon="3.92276">
        <ele>702</ele>
        <time>2021-04-29T14:48:43Z</time>
      </trkpt>
      <trkpt lat="44.95713" lon="3.92272">
        <ele>702</ele>
        <time>2021-04-29T14:48:44Z</time>
      </trkpt>
      <trkpt lat="44.95713" lon="3.92269">
        <ele>702</ele>
        <time>2021-04-29T14:48:45Z</time>
      </trkpt>
      <trkpt lat="44.95712" lon="3.92265">
        <ele>703</ele>
        <time>2021-04-29T14:48:46Z</time>
      </trkpt>
      <trkpt lat="44.95713" lon="3.92262">
        <ele>703</ele>
        <time>2021-04-29T14:48:47Z</time>
      </trkpt>
      <trkpt lat="44.95713" lon="3.92259">
        <ele>703</ele>
        <time>2021-04-29T14:48:48Z</time>
      </trkpt>
      <trkpt lat="44.95715" lon="3.92256">
        <ele>703</ele>
        <time>2021-04-29T14:48:49Z</time>
      </trkpt>
      <trkpt lat="44.95717" lon="3.92255">
        <ele>703</ele>
        <time>2021-04-29T14:48:50Z</time>
      </trkpt>
      <trkpt lat="44.9572" lon="3.92258">
        <ele>704</ele>
        <time>2021-04-29T14:48:51Z</time>
      </trkpt>
      <trkpt lat="44.95721" lon="3.9226">
        <ele>705</ele>
        <time>2021-04-29T14:48:53Z</time>
      </trkpt>
      <trkpt lat="44.95722" lon="3.92262">
        <ele>705</ele>
        <time>2021-04-29T14:48:54Z</time>
      </trkpt>
      <trkpt lat="44.95724" lon="3.92264">
        <ele>706</ele>
        <time>2021-04-29T14:48:55Z</time>
      </trkpt>
      <trkpt lat="44.95725" lon="3.92265">
        <ele>706</ele>
        <time>2021-04-29T14:48:56Z</time>
      </trkpt>
      <trkpt lat="44.95728" lon="3.92268">
        <ele>707</ele>
        <time>2021-04-29T14:48:58Z</time>
      </trkpt>
      <trkpt lat="44.9573" lon="3.92271">
        <ele>708</ele>
        <time>2021-04-29T14:48:59Z</time>
      </trkpt>
      <trkpt lat="44.95732" lon="3.92273">
        <ele>708</ele>
        <time>2021-04-29T14:49:01Z</time>
      </trkpt>
      <trkpt lat="44.95734" lon="3.92275">
        <ele>708</ele>
        <time>2021-04-29T14:49:02Z</time>
      </trkpt>
      <trkpt lat="44.95736" lon="3.92276">
        <ele>709</ele>
        <time>2021-04-29T14:49:03Z</time>
      </trkpt>
      <trkpt lat="44.95738" lon="3.92278">
        <ele>709</ele>
        <time>2021-04-29T14:49:04Z</time>
      </trkpt>
      <trkpt lat="44.9574" lon="3.92279">
        <ele>710</ele>
        <time>2021-04-29T14:49:05Z</time>
      </trkpt>
      <trkpt lat="44.95742" lon="3.92281">
        <ele>710</ele>
        <time>2021-04-29T14:49:06Z</time>
      </trkpt>
      <trkpt lat="44.95744" lon="3.92281">
        <ele>710</ele>
        <time>2021-04-29T14:49:07Z</time>
      </trkpt>
      <trkpt lat="44.95746" lon="3.92281">
        <ele>711</ele>
        <time>2021-04-29T14:49:08Z</time>
      </trkpt>
      <trkpt lat="44.95748" lon="3.9228">
        <ele>711</ele>
        <time>2021-04-29T14:49:09Z</time>
      </trkpt>
      <trkpt lat="44.9575" lon="3.92278">
        <ele>712</ele>
        <time>2021-04-29T14:49:10Z</time>
      </trkpt>
      <trkpt lat="44.95751" lon="3.92274">
        <ele>712</ele>
        <time>2021-04-29T14:49:12Z</time>
      </trkpt>
      <trkpt lat="44.9575" lon="3.92271">
        <ele>713</ele>
        <time>2021-04-29T14:49:14Z</time>
      </trkpt>
      <trkpt lat="44.95748" lon="3.92269">
        <ele>713</ele>
        <time>2021-04-29T14:49:15Z</time>
      </trkpt>
      <trkpt lat="44.95747" lon="3.92265">
        <ele>714</ele>
        <time>2021-04-29T14:49:17Z</time>
      </trkpt>
      <trkpt lat="44.95746" lon="3.92262">
        <ele>714</ele>
        <time>2021-04-29T14:49:18Z</time>
      </trkpt>
      <trkpt lat="44.95745" lon="3.9226">
        <ele>715</ele>
        <time>2021-04-29T14:49:19Z</time>
      </trkpt>
      <trkpt lat="44.95744" lon="3.92257">
        <ele>715</ele>
        <time>2021-04-29T14:49:20Z</time>
      </trkpt>
      <trkpt lat="44.95743" lon="3.92255">
        <ele>716</ele>
        <time>2021-04-29T14:49:21Z</time>
      </trkpt>
      <trkpt lat="44.95742" lon="3.92252">
        <ele>716</ele>
        <time>2021-04-29T14:49:22Z</time>
      </trkpt>
      <trkpt lat="44.95741" lon="3.9225">
        <ele>717</ele>
        <time>2021-04-29T14:49:23Z</time>
      </trkpt>
      <trkpt lat="44.95741" lon="3.92247">
        <ele>717</ele>
        <time>2021-04-29T14:49:24Z</time>
      </trkpt>
      <trkpt lat="44.9574" lon="3.92244">
        <ele>718</ele>
        <time>2021-04-29T14:49:25Z</time>
      </trkpt>
      <trkpt lat="44.9574" lon="3.92241">
        <ele>718</ele>
        <time>2021-04-29T14:49:26Z</time>
      </trkpt>
      <trkpt lat="44.95739" lon="3.92236">
        <ele>719</ele>
        <time>2021-04-29T14:49:28Z</time>
      </trkpt>
      <trkpt lat="44.95739" lon="3.92234">
        <ele>719</ele>
        <time>2021-04-29T14:49:29Z</time>
      </trkpt>
      <trkpt lat="44.95738" lon="3.9223">
        <ele>720</ele>
        <time>2021-04-29T14:49:30Z</time>
      </trkpt>
      <trkpt lat="44.95737" lon="3.92228">
        <ele>720</ele>
        <time>2021-04-29T14:49:31Z</time>
      </trkpt>
      <trkpt lat="44.95737" lon="3.92225">
        <ele>721</ele>
        <time>2021-04-29T14:49:32Z</time>
      </trkpt>
      <trkpt lat="44.95737" lon="3.92222">
        <ele>721</ele>
        <time>2021-04-29T14:49:33Z</time>
      </trkpt>
      <trkpt lat="44.95737" lon="3.92219">
        <ele>722</ele>
        <time>2021-04-29T14:49:34Z</time>
      </trkpt>
      <trkpt lat="44.95737" lon="3.92217">
        <ele>722</ele>
        <time>2021-04-29T14:49:35Z</time>
      </trkpt>
      <trkpt lat="44.95737" lon="3.92214">
        <ele>723</ele>
        <time>2021-04-29T14:49:36Z</time>
      </trkpt>
      <trkpt lat="44.95736" lon="3.92211">
        <ele>723</ele>
        <time>2021-04-29T14:49:37Z</time>
      </trkpt>
      <trkpt lat="44.95736" lon="3.92208">
        <ele>723</ele>
        <time>2021-04-29T14:49:38Z</time>
      </trkpt>
      <trkpt lat="44.95736" lon="3.92205">
        <ele>724</ele>
        <time>2021-04-29T14:49:39Z</time>
      </trkpt>
      <trkpt lat="44.95735" lon="3.92202">
        <ele>724</ele>
        <time>2021-04-29T14:49:40Z</time>
      </trkpt>
      <trkpt lat="44.95734" lon="3.92199">
        <ele>725</ele>
        <time>2021-04-29T14:49:41Z</time>
      </trkpt>
      <trkpt lat="44.95732" lon="3.92197">
        <ele>726</ele>
        <time>2021-04-29T14:49:42Z</time>
      </trkpt>
      <trkpt lat="44.95731" lon="3.92194">
        <ele>726</ele>
        <time>2021-04-29T14:49:43Z</time>
      </trkpt>
      <trkpt lat="44.9573" lon="3.92192">
        <ele>727</ele>
        <time>2021-04-29T14:49:44Z</time>
      </trkpt>
      <trkpt lat="44.95728" lon="3.92188">
        <ele>727</ele>
        <time>2021-04-29T14:49:46Z</time>
      </trkpt>
      <trkpt lat="44.95725" lon="3.92185">
        <ele>729</ele>
        <time>2021-04-29T14:49:48Z</time>
      </trkpt>
      <trkpt lat="44.95722" lon="3.92182">
        <ele>730</ele>
        <time>2021-04-29T14:49:50Z</time>
      </trkpt>
      <trkpt lat="44.9572" lon="3.92181">
        <ele>730</ele>
        <time>2021-04-29T14:49:51Z</time>
      </trkpt>
      <trkpt lat="44.95718" lon="3.92178">
        <ele>731</ele>
        <time>2021-04-29T14:49:52Z</time>
      </trkpt>
      <trkpt lat="44.95716" lon="3.92175">
        <ele>731</ele>
        <time>2021-04-29T14:49:53Z</time>
      </trkpt>
      <trkpt lat="44.95715" lon="3.92173">
        <ele>731</ele>
        <time>2021-04-29T14:49:54Z</time>
      </trkpt>
      <trkpt lat="44.95713" lon="3.92172">
        <ele>732</ele>
        <time>2021-04-29T14:49:55Z</time>
      </trkpt>
      <trkpt lat="44.95712" lon="3.9217">
        <ele>732</ele>
        <time>2021-04-29T14:49:56Z</time>
      </trkpt>
      <trkpt lat="44.95711" lon="3.92168">
        <ele>732</ele>
        <time>2021-04-29T14:49:57Z</time>
      </trkpt>
      <trkpt lat="44.95709" lon="3.92166">
        <ele>733</ele>
        <time>2021-04-29T14:49:58Z</time>
      </trkpt>
      <trkpt lat="44.95708" lon="3.92164">
        <ele>733</ele>
        <time>2021-04-29T14:49:59Z</time>
      </trkpt>
      <trkpt lat="44.95707" lon="3.92162">
        <ele>734</ele>
        <time>2021-04-29T14:50:00Z</time>
      </trkpt>
      <trkpt lat="44.95707" lon="3.92158">
        <ele>735</ele>
        <time>2021-04-29T14:50:02Z</time>
      </trkpt>
      <trkpt lat="44.95708" lon="3.92156">
        <ele>735</ele>
        <time>2021-04-29T14:50:04Z</time>
      </trkpt>
      <trkpt lat="44.9571" lon="3.92154">
        <ele>736</ele>
        <time>2021-04-29T14:50:06Z</time>
      </trkpt>
      <trkpt lat="44.95713" lon="3.92153">
        <ele>737</ele>
        <time>2021-04-29T14:50:08Z</time>
      </trkpt>
      <trkpt lat="44.95715" lon="3.92153">
        <ele>737</ele>
        <time>2021-04-29T14:50:09Z</time>
      </trkpt>
      <trkpt lat="44.95718" lon="3.92152">
        <ele>738</ele>
        <time>2021-04-29T14:50:11Z</time>
      </trkpt>
      <trkpt lat="44.95721" lon="3.92153">
        <ele>738</ele>
        <time>2021-04-29T14:50:13Z</time>
      </trkpt>
      <trkpt lat="44.95723" lon="3.92154">
        <ele>738</ele>
        <time>2021-04-29T14:50:14Z</time>
      </trkpt>
      <trkpt lat="44.95725" lon="3.92155">
        <ele>739</ele>
        <time>2021-04-29T14:50:15Z</time>
      </trkpt>
      <trkpt lat="44.95727" lon="3.92156">
        <ele>739</ele>
        <time>2021-04-29T14:50:16Z</time>
      </trkpt>
      <trkpt lat="44.95729" lon="3.92156">
        <ele>739</ele>
        <time>2021-04-29T14:50:17Z</time>
      </trkpt>
      <trkpt lat="44.95731" lon="3.9216">
        <ele>739</ele>
        <time>2021-04-29T14:50:19Z</time>
      </trkpt>
      <trkpt lat="44.95731" lon="3.92163">
        <ele>739</ele>
        <time>2021-04-29T14:50:20Z</time>
      </trkpt>
      <trkpt lat="44.95731" lon="3.92165">
        <ele>740</ele>
        <time>2021-04-29T14:50:26Z</time>
      </trkpt>
      <trkpt lat="44.95738" lon="3.92156">
        <ele>742</ele>
        <time>2021-04-29T14:50:37Z</time>
      </trkpt>
      <trkpt lat="44.9574" lon="3.92156">
        <ele>742</ele>
        <time>2021-04-29T14:50:38Z</time>
      </trkpt>
      <trkpt lat="44.95742" lon="3.92155">
        <ele>742</ele>
        <time>2021-04-29T14:50:39Z</time>
      </trkpt>
      <trkpt lat="44.95744" lon="3.92154">
        <ele>742</ele>
        <time>2021-04-29T14:50:40Z</time>
      </trkpt>
      <trkpt lat="44.95746" lon="3.92153">
        <ele>742</ele>
        <time>2021-04-29T14:50:41Z</time>
      </trkpt>
      <trkpt lat="44.95747" lon="3.92152">
        <ele>742</ele>
        <time>2021-04-29T14:50:42Z</time>
      </trkpt>
      <trkpt lat="44.9575" lon="3.92149">
        <ele>743</ele>
        <time>2021-04-29T14:50:44Z</time>
      </trkpt>
      <trkpt lat="44.95751" lon="3.92147">
        <ele>743</ele>
        <time>2021-04-29T14:50:45Z</time>
      </trkpt>
      <trkpt lat="44.95752" lon="3.92145">
        <ele>743</ele>
        <time>2021-04-29T14:50:46Z</time>
      </trkpt>
      <trkpt lat="44.95753" lon="3.92143">
        <ele>743</ele>
        <time>2021-04-29T14:50:47Z</time>
      </trkpt>
      <trkpt lat="44.95755" lon="3.9214">
        <ele>743</ele>
        <time>2021-04-29T14:50:48Z</time>
      </trkpt>
      <trkpt lat="44.95756" lon="3.92138">
        <ele>744</ele>
        <time>2021-04-29T14:50:49Z</time>
      </trkpt>
      <trkpt lat="44.95758" lon="3.92135">
        <ele>744</ele>
        <time>2021-04-29T14:50:50Z</time>
      </trkpt>
      <trkpt lat="44.95759" lon="3.92132">
        <ele>744</ele>
        <time>2021-04-29T14:50:51Z</time>
      </trkpt>
      <trkpt lat="44.95759" lon="3.9213">
        <ele>744</ele>
        <time>2021-04-29T14:50:52Z</time>
      </trkpt>
      <trkpt lat="44.9576" lon="3.92127">
        <ele>744</ele>
        <time>2021-04-29T14:50:53Z</time>
      </trkpt>
      <trkpt lat="44.9576" lon="3.92124">
        <ele>745</ele>
        <time>2021-04-29T14:50:54Z</time>
      </trkpt>
      <trkpt lat="44.95761" lon="3.92121">
        <ele>745</ele>
        <time>2021-04-29T14:50:55Z</time>
      </trkpt>
      <trkpt lat="44.95761" lon="3.92118">
        <ele>745</ele>
        <time>2021-04-29T14:50:56Z</time>
      </trkpt>
      <trkpt lat="44.95762" lon="3.92116">
        <ele>746</ele>
        <time>2021-04-29T14:50:57Z</time>
      </trkpt>
      <trkpt lat="44.95763" lon="3.92113">
        <ele>746</ele>
        <time>2021-04-29T14:50:58Z</time>
      </trkpt>
      <trkpt lat="44.95764" lon="3.9211">
        <ele>746</ele>
        <time>2021-04-29T14:50:59Z</time>
      </trkpt>
      <trkpt lat="44.95765" lon="3.92107">
        <ele>746</ele>
        <time>2021-04-29T14:51:00Z</time>
      </trkpt>
      <trkpt lat="44.95766" lon="3.92103">
        <ele>747</ele>
        <time>2021-04-29T14:51:01Z</time>
      </trkpt>
      <trkpt lat="44.95766" lon="3.921">
        <ele>747</ele>
        <time>2021-04-29T14:51:02Z</time>
      </trkpt>
      <trkpt lat="44.95767" lon="3.92096">
        <ele>747</ele>
        <time>2021-04-29T14:51:03Z</time>
      </trkpt>
      <trkpt lat="44.95767" lon="3.92091">
        <ele>747</ele>
        <time>2021-04-29T14:51:04Z</time>
      </trkpt>
      <trkpt lat="44.95767" lon="3.92087">
        <ele>748</ele>
        <time>2021-04-29T14:51:05Z</time>
      </trkpt>
      <trkpt lat="44.95767" lon="3.92084">
        <ele>748</ele>
        <time>2021-04-29T14:51:06Z</time>
      </trkpt>
      <trkpt lat="44.95767" lon="3.9208">
        <ele>748</ele>
        <time>2021-04-29T14:51:07Z</time>
      </trkpt>
      <trkpt lat="44.95766" lon="3.92077">
        <ele>748</ele>
        <time>2021-04-29T14:51:08Z</time>
      </trkpt>
      <trkpt lat="44.95765" lon="3.92073">
        <ele>748</ele>
        <time>2021-04-29T14:51:09Z</time>
      </trkpt>
      <trkpt lat="44.95765" lon="3.92069">
        <ele>748</ele>
        <time>2021-04-29T14:51:10Z</time>
      </trkpt>
      <trkpt lat="44.95763" lon="3.92065">
        <ele>749</ele>
        <time>2021-04-29T14:51:11Z</time>
      </trkpt>
      <trkpt lat="44.95762" lon="3.92061">
        <ele>749</ele>
        <time>2021-04-29T14:51:12Z</time>
      </trkpt>
      <trkpt lat="44.95761" lon="3.92057">
        <ele>749</ele>
        <time>2021-04-29T14:51:13Z</time>
      </trkpt>
      <trkpt lat="44.9576" lon="3.92054">
        <ele>749</ele>
        <time>2021-04-29T14:51:14Z</time>
      </trkpt>
      <trkpt lat="44.95759" lon="3.92049">
        <ele>750</ele>
        <time>2021-04-29T14:51:15Z</time>
      </trkpt>
      <trkpt lat="44.95756" lon="3.92041">
        <ele>750</ele>
        <time>2021-04-29T14:51:16Z</time>
      </trkpt>
      <trkpt lat="44.95755" lon="3.92037">
        <ele>750</ele>
        <time>2021-04-29T14:51:18Z</time>
      </trkpt>
      <trkpt lat="44.95754" lon="3.92033">
        <ele>750</ele>
        <time>2021-04-29T14:51:19Z</time>
      </trkpt>
      <trkpt lat="44.95752" lon="3.92029">
        <ele>751</ele>
        <time>2021-04-29T14:51:20Z</time>
      </trkpt>
      <trkpt lat="44.9575" lon="3.92025">
        <ele>751</ele>
        <time>2021-04-29T14:51:21Z</time>
      </trkpt>
      <trkpt lat="44.95748" lon="3.92021">
        <ele>751</ele>
        <time>2021-04-29T14:51:22Z</time>
      </trkpt>
      <trkpt lat="44.95747" lon="3.92017">
        <ele>751</ele>
        <time>2021-04-29T14:51:23Z</time>
      </trkpt>
      <trkpt lat="44.95745" lon="3.92013">
        <ele>751</ele>
        <time>2021-04-29T14:51:24Z</time>
      </trkpt>
      <trkpt lat="44.95744" lon="3.92009">
        <ele>751</ele>
        <time>2021-04-29T14:51:25Z</time>
      </trkpt>
      <trkpt lat="44.95743" lon="3.92005">
        <ele>752</ele>
        <time>2021-04-29T14:51:26Z</time>
      </trkpt>
      <trkpt lat="44.95743" lon="3.92001">
        <ele>752</ele>
        <time>2021-04-29T14:51:27Z</time>
      </trkpt>
      <trkpt lat="44.95742" lon="3.91997">
        <ele>752</ele>
        <time>2021-04-29T14:51:28Z</time>
      </trkpt>
      <trkpt lat="44.95741" lon="3.91992">
        <ele>752</ele>
        <time>2021-04-29T14:51:29Z</time>
      </trkpt>
      <trkpt lat="44.9574" lon="3.91988">
        <ele>752</ele>
        <time>2021-04-29T14:51:30Z</time>
      </trkpt>
      <trkpt lat="44.95739" lon="3.91983">
        <ele>752</ele>
        <time>2021-04-29T14:51:31Z</time>
      </trkpt>
      <trkpt lat="44.95737" lon="3.91979">
        <ele>752</ele>
        <time>2021-04-29T14:51:32Z</time>
      </trkpt>
      <trkpt lat="44.95736" lon="3.91974">
        <ele>752</ele>
        <time>2021-04-29T14:51:33Z</time>
      </trkpt>
      <trkpt lat="44.95735" lon="3.91969">
        <ele>752</ele>
        <time>2021-04-29T14:51:34Z</time>
      </trkpt>
      <trkpt lat="44.95733" lon="3.91958">
        <ele>752</ele>
        <time>2021-04-29T14:51:35Z</time>
      </trkpt>
      <trkpt lat="44.95733" lon="3.91952">
        <ele>752</ele>
        <time>2021-04-29T14:51:37Z</time>
      </trkpt>
      <trkpt lat="44.95733" lon="3.91946">
        <ele>752</ele>
        <time>2021-04-29T14:51:38Z</time>
      </trkpt>
      <trkpt lat="44.95733" lon="3.9194">
        <ele>752</ele>
        <time>2021-04-29T14:51:39Z</time>
      </trkpt>
      <trkpt lat="44.95733" lon="3.91934">
        <ele>753</ele>
        <time>2021-04-29T14:51:40Z</time>
      </trkpt>
      <trkpt lat="44.95733" lon="3.91928">
        <ele>753</ele>
        <time>2021-04-29T14:51:41Z</time>
      </trkpt>
      <trkpt lat="44.95733" lon="3.91922">
        <ele>753</ele>
        <time>2021-04-29T14:51:42Z</time>
      </trkpt>
      <trkpt lat="44.95733" lon="3.91916">
        <ele>753</ele>
        <time>2021-04-29T14:51:43Z</time>
      </trkpt>
      <trkpt lat="44.95732" lon="3.9191">
        <ele>753</ele>
        <time>2021-04-29T14:51:44Z</time>
      </trkpt>
      <trkpt lat="44.95732" lon="3.91904">
        <ele>753</ele>
        <time>2021-04-29T14:51:45Z</time>
      </trkpt>
      <trkpt lat="44.95732" lon="3.91899">
        <ele>753</ele>
        <time>2021-04-29T14:51:46Z</time>
      </trkpt>
      <trkpt lat="44.95731" lon="3.91892">
        <ele>753</ele>
        <time>2021-04-29T14:51:47Z</time>
      </trkpt>
      <trkpt lat="44.95731" lon="3.91886">
        <ele>753</ele>
        <time>2021-04-29T14:51:48Z</time>
      </trkpt>
      <trkpt lat="44.9573" lon="3.9188">
        <ele>753</ele>
        <time>2021-04-29T14:51:49Z</time>
      </trkpt>
      <trkpt lat="44.9573" lon="3.91873">
        <ele>754</ele>
        <time>2021-04-29T14:51:50Z</time>
      </trkpt>
      <trkpt lat="44.95729" lon="3.91867">
        <ele>754</ele>
        <time>2021-04-29T14:51:51Z</time>
      </trkpt>
      <trkpt lat="44.95729" lon="3.9186">
        <ele>754</ele>
        <time>2021-04-29T14:51:52Z</time>
      </trkpt>
      <trkpt lat="44.95728" lon="3.91854">
        <ele>754</ele>
        <time>2021-04-29T14:51:53Z</time>
      </trkpt>
      <trkpt lat="44.95727" lon="3.91847">
        <ele>754</ele>
        <time>2021-04-29T14:51:54Z</time>
      </trkpt>
      <trkpt lat="44.95725" lon="3.91841">
        <ele>754</ele>
        <time>2021-04-29T14:51:55Z</time>
      </trkpt>
      <trkpt lat="44.95724" lon="3.91834">
        <ele>754</ele>
        <time>2021-04-29T14:51:56Z</time>
      </trkpt>
      <trkpt lat="44.95722" lon="3.91828">
        <ele>754</ele>
        <time>2021-04-29T14:51:57Z</time>
      </trkpt>
      <trkpt lat="44.9572" lon="3.91821">
        <ele>754</ele>
        <time>2021-04-29T14:51:58Z</time>
      </trkpt>
      <trkpt lat="44.95718" lon="3.91815">
        <ele>754</ele>
        <time>2021-04-29T14:51:59Z</time>
      </trkpt>
      <trkpt lat="44.95717" lon="3.91808">
        <ele>754</ele>
        <time>2021-04-29T14:52:00Z</time>
      </trkpt>
      <trkpt lat="44.95715" lon="3.91801">
        <ele>754</ele>
        <time>2021-04-29T14:52:01Z</time>
      </trkpt>
      <trkpt lat="44.95713" lon="3.91794">
        <ele>754</ele>
        <time>2021-04-29T14:52:02Z</time>
      </trkpt>
      <trkpt lat="44.95712" lon="3.91788">
        <ele>754</ele>
        <time>2021-04-29T14:52:03Z</time>
      </trkpt>
      <trkpt lat="44.95711" lon="3.91781">
        <ele>754</ele>
        <time>2021-04-29T14:52:04Z</time>
      </trkpt>
      <trkpt lat="44.95711" lon="3.91774">
        <ele>754</ele>
        <time>2021-04-29T14:52:05Z</time>
      </trkpt>
      <trkpt lat="44.9571" lon="3.91767">
        <ele>754</ele>
        <time>2021-04-29T14:52:06Z</time>
      </trkpt>
      <trkpt lat="44.9571" lon="3.9176">
        <ele>754</ele>
        <time>2021-04-29T14:52:07Z</time>
      </trkpt>
      <trkpt lat="44.95709" lon="3.91753">
        <ele>754</ele>
        <time>2021-04-29T14:52:08Z</time>
      </trkpt>
      <trkpt lat="44.95709" lon="3.91746">
        <ele>754</ele>
        <time>2021-04-29T14:52:09Z</time>
      </trkpt>
      <trkpt lat="44.95709" lon="3.91739">
        <ele>755</ele>
        <time>2021-04-29T14:52:10Z</time>
      </trkpt>
      <trkpt lat="44.95708" lon="3.91732">
        <ele>755</ele>
        <time>2021-04-29T14:52:11Z</time>
      </trkpt>
      <trkpt lat="44.95708" lon="3.91725">
        <ele>755</ele>
        <time>2021-04-29T14:52:12Z</time>
      </trkpt>
      <trkpt lat="44.95707" lon="3.91711">
        <ele>755</ele>
        <time>2021-04-29T14:52:13Z</time>
      </trkpt>
      <trkpt lat="44.95707" lon="3.91704">
        <ele>755</ele>
        <time>2021-04-29T14:52:15Z</time>
      </trkpt>
      <trkpt lat="44.95707" lon="3.91696">
        <ele>755</ele>
        <time>2021-04-29T14:52:16Z</time>
      </trkpt>
      <trkpt lat="44.95707" lon="3.91689">
        <ele>755</ele>
        <time>2021-04-29T14:52:17Z</time>
      </trkpt>
      <trkpt lat="44.95708" lon="3.91682">
        <ele>755</ele>
        <time>2021-04-29T14:52:18Z</time>
      </trkpt>
      <trkpt lat="44.95708" lon="3.91675">
        <ele>755</ele>
        <time>2021-04-29T14:52:19Z</time>
      </trkpt>
      <trkpt lat="44.95708" lon="3.91668">
        <ele>755</ele>
        <time>2021-04-29T14:52:20Z</time>
      </trkpt>
      <trkpt lat="44.95709" lon="3.91661">
        <ele>755</ele>
        <time>2021-04-29T14:52:21Z</time>
      </trkpt>
      <trkpt lat="44.9571" lon="3.91653">
        <ele>755</ele>
        <time>2021-04-29T14:52:22Z</time>
      </trkpt>
      <trkpt lat="44.95711" lon="3.91646">
        <ele>755</ele>
        <time>2021-04-29T14:52:23Z</time>
      </trkpt>
      <trkpt lat="44.95713" lon="3.91639">
        <ele>755</ele>
        <time>2021-04-29T14:52:24Z</time>
      </trkpt>
      <trkpt lat="44.95714" lon="3.91633">
        <ele>754</ele>
        <time>2021-04-29T14:52:25Z</time>
      </trkpt>
      <trkpt lat="44.95716" lon="3.91626">
        <ele>754</ele>
        <time>2021-04-29T14:52:26Z</time>
      </trkpt>
      <trkpt lat="44.95718" lon="3.91619">
        <ele>754</ele>
        <time>2021-04-29T14:52:27Z</time>
      </trkpt>
      <trkpt lat="44.9572" lon="3.91612">
        <ele>754</ele>
        <time>2021-04-29T14:52:28Z</time>
      </trkpt>
      <trkpt lat="44.95722" lon="3.91606">
        <ele>754</ele>
        <time>2021-04-29T14:52:29Z</time>
      </trkpt>
      <trkpt lat="44.95724" lon="3.91599">
        <ele>754</ele>
        <time>2021-04-29T14:52:30Z</time>
      </trkpt>
      <trkpt lat="44.95726" lon="3.91592">
        <ele>754</ele>
        <time>2021-04-29T14:52:31Z</time>
      </trkpt>
      <trkpt lat="44.95729" lon="3.91577">
        <ele>754</ele>
        <time>2021-04-29T14:52:32Z</time>
      </trkpt>
      <trkpt lat="44.95729" lon="3.91569">
        <ele>754</ele>
        <time>2021-04-29T14:52:34Z</time>
      </trkpt>
      <trkpt lat="44.9573" lon="3.91562">
        <ele>754</ele>
        <time>2021-04-29T14:52:35Z</time>
      </trkpt>
      <trkpt lat="44.9573" lon="3.91555">
        <ele>754</ele>
        <time>2021-04-29T14:52:36Z</time>
      </trkpt>
      <trkpt lat="44.95731" lon="3.91547">
        <ele>754</ele>
        <time>2021-04-29T14:52:37Z</time>
      </trkpt>
      <trkpt lat="44.95732" lon="3.9154">
        <ele>754</ele>
        <time>2021-04-29T14:52:38Z</time>
      </trkpt>
      <trkpt lat="44.95732" lon="3.91532">
        <ele>754</ele>
        <time>2021-04-29T14:52:39Z</time>
      </trkpt>
      <trkpt lat="44.95732" lon="3.91525">
        <ele>754</ele>
        <time>2021-04-29T14:52:40Z</time>
      </trkpt>
      <trkpt lat="44.95731" lon="3.91517">
        <ele>754</ele>
        <time>2021-04-29T14:52:41Z</time>
      </trkpt>
      <trkpt lat="44.95731" lon="3.9151">
        <ele>754</ele>
        <time>2021-04-29T14:52:42Z</time>
      </trkpt>
      <trkpt lat="44.95732" lon="3.91502">
        <ele>754</ele>
        <time>2021-04-29T14:52:43Z</time>
      </trkpt>
      <trkpt lat="44.95733" lon="3.91495">
        <ele>755</ele>
        <time>2021-04-29T14:52:44Z</time>
      </trkpt>
      <trkpt lat="44.95734" lon="3.91487">
        <ele>755</ele>
        <time>2021-04-29T14:52:45Z</time>
      </trkpt>
      <trkpt lat="44.95736" lon="3.9148">
        <ele>755</ele>
        <time>2021-04-29T14:52:46Z</time>
      </trkpt>
      <trkpt lat="44.95738" lon="3.91473">
        <ele>755</ele>
        <time>2021-04-29T14:52:47Z</time>
      </trkpt>
      <trkpt lat="44.9574" lon="3.91465">
        <ele>755</ele>
        <time>2021-04-29T14:52:48Z</time>
      </trkpt>
      <trkpt lat="44.95742" lon="3.91458">
        <ele>755</ele>
        <time>2021-04-29T14:52:49Z</time>
      </trkpt>
      <trkpt lat="44.95744" lon="3.9145">
        <ele>755</ele>
        <time>2021-04-29T14:52:50Z</time>
      </trkpt>
      <trkpt lat="44.95747" lon="3.91435">
        <ele>755</ele>
        <time>2021-04-29T14:52:51Z</time>
      </trkpt>
      <trkpt lat="44.95749" lon="3.91427">
        <ele>755</ele>
        <time>2021-04-29T14:52:53Z</time>
      </trkpt>
      <trkpt lat="44.9575" lon="3.9142">
        <ele>755</ele>
        <time>2021-04-29T14:52:54Z</time>
      </trkpt>
      <trkpt lat="44.95751" lon="3.91413">
        <ele>755</ele>
        <time>2021-04-29T14:52:55Z</time>
      </trkpt>
      <trkpt lat="44.95753" lon="3.91406">
        <ele>755</ele>
        <time>2021-04-29T14:52:56Z</time>
      </trkpt>
      <trkpt lat="44.95755" lon="3.914">
        <ele>755</ele>
        <time>2021-04-29T14:52:57Z</time>
      </trkpt>
      <trkpt lat="44.95757" lon="3.91395">
        <ele>755</ele>
        <time>2021-04-29T14:52:58Z</time>
      </trkpt>
      <trkpt lat="44.9576" lon="3.9139">
        <ele>755</ele>
        <time>2021-04-29T14:52:59Z</time>
      </trkpt>
      <trkpt lat="44.95763" lon="3.91386">
        <ele>755</ele>
        <time>2021-04-29T14:53:00Z</time>
      </trkpt>
      <trkpt lat="44.95766" lon="3.91382">
        <ele>755</ele>
        <time>2021-04-29T14:53:01Z</time>
      </trkpt>
      <trkpt lat="44.9577" lon="3.91378">
        <ele>755</ele>
        <time>2021-04-29T14:53:02Z</time>
      </trkpt>
      <trkpt lat="44.95774" lon="3.91374">
        <ele>755</ele>
        <time>2021-04-29T14:53:03Z</time>
      </trkpt>
      <trkpt lat="44.95778" lon="3.9137">
        <ele>755</ele>
        <time>2021-04-29T14:53:04Z</time>
      </trkpt>
      <trkpt lat="44.95782" lon="3.91365">
        <ele>755</ele>
        <time>2021-04-29T14:53:05Z</time>
      </trkpt>
      <trkpt lat="44.95786" lon="3.9136">
        <ele>755</ele>
        <time>2021-04-29T14:53:06Z</time>
      </trkpt>
      <trkpt lat="44.9579" lon="3.91355">
        <ele>755</ele>
        <time>2021-04-29T14:53:07Z</time>
      </trkpt>
      <trkpt lat="44.95794" lon="3.9135">
        <ele>755</ele>
        <time>2021-04-29T14:53:08Z</time>
      </trkpt>
      <trkpt lat="44.95798" lon="3.91346">
        <ele>756</ele>
        <time>2021-04-29T14:53:09Z</time>
      </trkpt>
      <trkpt lat="44.95805" lon="3.91336">
        <ele>756</ele>
        <time>2021-04-29T14:53:10Z</time>
      </trkpt>
      <trkpt lat="44.95809" lon="3.91331">
        <ele>756</ele>
        <time>2021-04-29T14:53:12Z</time>
      </trkpt>
      <trkpt lat="44.95812" lon="3.91326">
        <ele>756</ele>
        <time>2021-04-29T14:53:13Z</time>
      </trkpt>
      <trkpt lat="44.95815" lon="3.91321">
        <ele>756</ele>
        <time>2021-04-29T14:53:14Z</time>
      </trkpt>
      <trkpt lat="44.95818" lon="3.91315">
        <ele>756</ele>
        <time>2021-04-29T14:53:15Z</time>
      </trkpt>
      <trkpt lat="44.95821" lon="3.9131">
        <ele>756</ele>
        <time>2021-04-29T14:53:16Z</time>
      </trkpt>
      <trkpt lat="44.95824" lon="3.91305">
        <ele>756</ele>
        <time>2021-04-29T14:53:17Z</time>
      </trkpt>
      <trkpt lat="44.95826" lon="3.913">
        <ele>756</ele>
        <time>2021-04-29T14:53:18Z</time>
      </trkpt>
      <trkpt lat="44.95829" lon="3.91294">
        <ele>756</ele>
        <time>2021-04-29T14:53:19Z</time>
      </trkpt>
      <trkpt lat="44.95831" lon="3.91289">
        <ele>756</ele>
        <time>2021-04-29T14:53:20Z</time>
      </trkpt>
      <trkpt lat="44.95833" lon="3.91283">
        <ele>756</ele>
        <time>2021-04-29T14:53:21Z</time>
      </trkpt>
      <trkpt lat="44.95835" lon="3.91278">
        <ele>756</ele>
        <time>2021-04-29T14:53:22Z</time>
      </trkpt>
      <trkpt lat="44.95837" lon="3.91272">
        <ele>757</ele>
        <time>2021-04-29T14:53:23Z</time>
      </trkpt>
      <trkpt lat="44.9584" lon="3.91267">
        <ele>757</ele>
        <time>2021-04-29T14:53:24Z</time>
      </trkpt>
      <trkpt lat="44.95842" lon="3.91261">
        <ele>757</ele>
        <time>2021-04-29T14:53:25Z</time>
      </trkpt>
      <trkpt lat="44.95844" lon="3.91256">
        <ele>757</ele>
        <time>2021-04-29T14:53:26Z</time>
      </trkpt>
      <trkpt lat="44.95846" lon="3.9125">
        <ele>757</ele>
        <time>2021-04-29T14:53:27Z</time>
      </trkpt>
      <trkpt lat="44.95848" lon="3.91245">
        <ele>757</ele>
        <time>2021-04-29T14:53:28Z</time>
      </trkpt>
      <trkpt lat="44.95853" lon="3.91235">
        <ele>757</ele>
        <time>2021-04-29T14:53:29Z</time>
      </trkpt>
      <trkpt lat="44.95855" lon="3.9123">
        <ele>757</ele>
        <time>2021-04-29T14:53:31Z</time>
      </trkpt>
      <trkpt lat="44.95858" lon="3.91226">
        <ele>757</ele>
        <time>2021-04-29T14:53:32Z</time>
      </trkpt>
      <trkpt lat="44.95861" lon="3.91222">
        <ele>757</ele>
        <time>2021-04-29T14:53:33Z</time>
      </trkpt>
      <trkpt lat="44.95864" lon="3.91219">
        <ele>758</ele>
        <time>2021-04-29T14:53:34Z</time>
      </trkpt>
      <trkpt lat="44.95868" lon="3.91216">
        <ele>758</ele>
        <time>2021-04-29T14:53:35Z</time>
      </trkpt>
      <trkpt lat="44.95871" lon="3.91214">
        <ele>758</ele>
        <time>2021-04-29T14:53:36Z</time>
      </trkpt>
      <trkpt lat="44.95875" lon="3.91211">
        <ele>758</ele>
        <time>2021-04-29T14:53:37Z</time>
      </trkpt>
      <trkpt lat="44.95879" lon="3.91209">
        <ele>758</ele>
        <time>2021-04-29T14:53:38Z</time>
      </trkpt>
      <trkpt lat="44.95882" lon="3.91208">
        <ele>758</ele>
        <time>2021-04-29T14:53:39Z</time>
      </trkpt>
      <trkpt lat="44.95886" lon="3.91206">
        <ele>759</ele>
        <time>2021-04-29T14:53:40Z</time>
      </trkpt>
      <trkpt lat="44.9589" lon="3.91204">
        <ele>759</ele>
        <time>2021-04-29T14:53:41Z</time>
      </trkpt>
      <trkpt lat="44.95893" lon="3.91201">
        <ele>759</ele>
        <time>2021-04-29T14:53:42Z</time>
      </trkpt>
      <trkpt lat="44.95897" lon="3.91199">
        <ele>759</ele>
        <time>2021-04-29T14:53:43Z</time>
      </trkpt>
      <trkpt lat="44.959" lon="3.91196">
        <ele>759</ele>
        <time>2021-04-29T14:53:44Z</time>
      </trkpt>
      <trkpt lat="44.95904" lon="3.91193">
        <ele>760</ele>
        <time>2021-04-29T14:53:45Z</time>
      </trkpt>
      <trkpt lat="44.95907" lon="3.91189">
        <ele>760</ele>
        <time>2021-04-29T14:53:46Z</time>
      </trkpt>
      <trkpt lat="44.95911" lon="3.91185">
        <ele>760</ele>
        <time>2021-04-29T14:53:47Z</time>
      </trkpt>
      <trkpt lat="44.95917" lon="3.91177">
        <ele>761</ele>
        <time>2021-04-29T14:53:48Z</time>
      </trkpt>
      <trkpt lat="44.95921" lon="3.91174">
        <ele>761</ele>
        <time>2021-04-29T14:53:50Z</time>
      </trkpt>
      <trkpt lat="44.95924" lon="3.9117">
        <ele>761</ele>
        <time>2021-04-29T14:53:51Z</time>
      </trkpt>
      <trkpt lat="44.95927" lon="3.91166">
        <ele>762</ele>
        <time>2021-04-29T14:53:52Z</time>
      </trkpt>
      <trkpt lat="44.9593" lon="3.91162">
        <ele>762</ele>
        <time>2021-04-29T14:53:53Z</time>
      </trkpt>
      <trkpt lat="44.95934" lon="3.91159">
        <ele>762</ele>
        <time>2021-04-29T14:53:54Z</time>
      </trkpt>
      <trkpt lat="44.95937" lon="3.91155">
        <ele>762</ele>
        <time>2021-04-29T14:53:55Z</time>
      </trkpt>
      <trkpt lat="44.9594" lon="3.91152">
        <ele>763</ele>
        <time>2021-04-29T14:53:56Z</time>
      </trkpt>
      <trkpt lat="44.95944" lon="3.91148">
        <ele>763</ele>
        <time>2021-04-29T14:53:57Z</time>
      </trkpt>
      <trkpt lat="44.95947" lon="3.91145">
        <ele>763</ele>
        <time>2021-04-29T14:53:58Z</time>
      </trkpt>
      <trkpt lat="44.9595" lon="3.91142">
        <ele>764</ele>
        <time>2021-04-29T14:53:59Z</time>
      </trkpt>
      <trkpt lat="44.95954" lon="3.91139">
        <ele>764</ele>
        <time>2021-04-29T14:54:00Z</time>
      </trkpt>
      <trkpt lat="44.95957" lon="3.91136">
        <ele>764</ele>
        <time>2021-04-29T14:54:01Z</time>
      </trkpt>
      <trkpt lat="44.95961" lon="3.91133">
        <ele>764</ele>
        <time>2021-04-29T14:54:02Z</time>
      </trkpt>
      <trkpt lat="44.95965" lon="3.9113">
        <ele>764</ele>
        <time>2021-04-29T14:54:03Z</time>
      </trkpt>
      <trkpt lat="44.95969" lon="3.91127">
        <ele>765</ele>
        <time>2021-04-29T14:54:04Z</time>
      </trkpt>
      <trkpt lat="44.95972" lon="3.91124">
        <ele>765</ele>
        <time>2021-04-29T14:54:05Z</time>
      </trkpt>
      <trkpt lat="44.95976" lon="3.91122">
        <ele>765</ele>
        <time>2021-04-29T14:54:06Z</time>
      </trkpt>
      <trkpt lat="44.95983" lon="3.91117">
        <ele>765</ele>
        <time>2021-04-29T14:54:07Z</time>
      </trkpt>
      <trkpt lat="44.95987" lon="3.91115">
        <ele>766</ele>
        <time>2021-04-29T14:54:09Z</time>
      </trkpt>
      <trkpt lat="44.95991" lon="3.91113">
        <ele>767</ele>
        <time>2021-04-29T14:54:10Z</time>
      </trkpt>
      <trkpt lat="44.95994" lon="3.91111">
        <ele>767</ele>
        <time>2021-04-29T14:54:11Z</time>
      </trkpt>
      <trkpt lat="44.95998" lon="3.91109">
        <ele>768</ele>
        <time>2021-04-29T14:54:12Z</time>
      </trkpt>
      <trkpt lat="44.96001" lon="3.91108">
        <ele>768</ele>
        <time>2021-04-29T14:54:13Z</time>
      </trkpt>
      <trkpt lat="44.96005" lon="3.91106">
        <ele>769</ele>
        <time>2021-04-29T14:54:14Z</time>
      </trkpt>
      <trkpt lat="44.96009" lon="3.91104">
        <ele>769</ele>
        <time>2021-04-29T14:54:15Z</time>
      </trkpt>
      <trkpt lat="44.96012" lon="3.91102">
        <ele>769</ele>
        <time>2021-04-29T14:54:16Z</time>
      </trkpt>
      <trkpt lat="44.96015" lon="3.911">
        <ele>770</ele>
        <time>2021-04-29T14:54:17Z</time>
      </trkpt>
      <trkpt lat="44.96018" lon="3.91098">
        <ele>770</ele>
        <time>2021-04-29T14:54:18Z</time>
      </trkpt>
      <trkpt lat="44.96021" lon="3.91096">
        <ele>770</ele>
        <time>2021-04-29T14:54:19Z</time>
      </trkpt>
      <trkpt lat="44.96023" lon="3.91094">
        <ele>771</ele>
        <time>2021-04-29T14:54:20Z</time>
      </trkpt>
      <trkpt lat="44.96025" lon="3.91093">
        <ele>771</ele>
        <time>2021-04-29T14:54:21Z</time>
      </trkpt>
      <trkpt lat="44.96027" lon="3.91091">
        <ele>771</ele>
        <time>2021-04-29T14:54:22Z</time>
      </trkpt>
      <trkpt lat="44.96029" lon="3.91089">
        <ele>771</ele>
        <time>2021-04-29T14:54:23Z</time>
      </trkpt>
      <trkpt lat="44.96031" lon="3.91086">
        <ele>772</ele>
        <time>2021-04-29T14:54:24Z</time>
      </trkpt>
      <trkpt lat="44.96034" lon="3.91083">
        <ele>772</ele>
        <time>2021-04-29T14:54:25Z</time>
      </trkpt>
      <trkpt lat="44.96036" lon="3.9108">
        <ele>772</ele>
        <time>2021-04-29T14:54:26Z</time>
      </trkpt>
      <trkpt lat="44.96038" lon="3.91077">
        <ele>772</ele>
        <time>2021-04-29T14:54:27Z</time>
      </trkpt>
      <trkpt lat="44.96039" lon="3.91073">
        <ele>772</ele>
        <time>2021-04-29T14:54:28Z</time>
      </trkpt>
      <trkpt lat="44.9604" lon="3.91069">
        <ele>773</ele>
        <time>2021-04-29T14:54:29Z</time>
      </trkpt>
      <trkpt lat="44.96042" lon="3.91065">
        <ele>773</ele>
        <time>2021-04-29T14:54:30Z</time>
      </trkpt>
      <trkpt lat="44.96043" lon="3.91062">
        <ele>773</ele>
        <time>2021-04-29T14:54:31Z</time>
      </trkpt>
      <trkpt lat="44.96045" lon="3.91059">
        <ele>773</ele>
        <time>2021-04-29T14:54:32Z</time>
      </trkpt>
      <trkpt lat="44.96048" lon="3.91057">
        <ele>773</ele>
        <time>2021-04-29T14:54:33Z</time>
      </trkpt>
      <trkpt lat="44.96051" lon="3.91055">
        <ele>773</ele>
        <time>2021-04-29T14:54:34Z</time>
      </trkpt>
      <trkpt lat="44.96053" lon="3.91053">
        <ele>773</ele>
        <time>2021-04-29T14:54:35Z</time>
      </trkpt>
      <trkpt lat="44.96056" lon="3.91051">
        <ele>774</ele>
        <time>2021-04-29T14:54:36Z</time>
      </trkpt>
      <trkpt lat="44.96059" lon="3.9105">
        <ele>774</ele>
        <time>2021-04-29T14:54:37Z</time>
      </trkpt>
      <trkpt lat="44.96061" lon="3.91048">
        <ele>774</ele>
        <time>2021-04-29T14:54:38Z</time>
      </trkpt>
      <trkpt lat="44.96064" lon="3.91046">
        <ele>774</ele>
        <time>2021-04-29T14:54:39Z</time>
      </trkpt>
      <trkpt lat="44.96067" lon="3.91045">
        <ele>774</ele>
        <time>2021-04-29T14:54:40Z</time>
      </trkpt>
      <trkpt lat="44.96069" lon="3.91044">
        <ele>774</ele>
        <time>2021-04-29T14:54:41Z</time>
      </trkpt>
      <trkpt lat="44.96071" lon="3.91043">
        <ele>774</ele>
        <time>2021-04-29T14:54:42Z</time>
      </trkpt>
      <trkpt lat="44.96073" lon="3.91042">
        <ele>774</ele>
        <time>2021-04-29T14:54:43Z</time>
      </trkpt>
      <trkpt lat="44.96076" lon="3.91041">
        <ele>775</ele>
        <time>2021-04-29T14:54:44Z</time>
      </trkpt>
      <trkpt lat="44.9608" lon="3.91039">
        <ele>775</ele>
        <time>2021-04-29T14:54:45Z</time>
      </trkpt>
      <trkpt lat="44.96083" lon="3.91039">
        <ele>775</ele>
        <time>2021-04-29T14:54:47Z</time>
      </trkpt>
      <trkpt lat="44.96085" lon="3.9104">
        <ele>775</ele>
        <time>2021-04-29T14:54:48Z</time>
      </trkpt>
      <trkpt lat="44.96088" lon="3.91042">
        <ele>775</ele>
        <time>2021-04-29T14:54:49Z</time>
      </trkpt>
      <trkpt lat="44.96092" lon="3.91044">
        <ele>776</ele>
        <time>2021-04-29T14:54:50Z</time>
      </trkpt>
      <trkpt lat="44.96096" lon="3.91046">
        <ele>776</ele>
        <time>2021-04-29T14:54:51Z</time>
      </trkpt>
      <trkpt lat="44.961" lon="3.91048">
        <ele>776</ele>
        <time>2021-04-29T14:54:52Z</time>
      </trkpt>
      <trkpt lat="44.9611" lon="3.91057">
        <ele>776</ele>
        <time>2021-04-29T14:54:53Z</time>
      </trkpt>
      <trkpt lat="44.96115" lon="3.91062">
        <ele>776</ele>
        <time>2021-04-29T14:54:55Z</time>
      </trkpt>
      <trkpt lat="44.9612" lon="3.91069">
        <ele>776</ele>
        <time>2021-04-29T14:54:56Z</time>
      </trkpt>
      <trkpt lat="44.96126" lon="3.91075">
        <ele>776</ele>
        <time>2021-04-29T14:54:57Z</time>
      </trkpt>
      <trkpt lat="44.96133" lon="3.9108">
        <ele>776</ele>
        <time>2021-04-29T14:54:58Z</time>
      </trkpt>
      <trkpt lat="44.9614" lon="3.91083">
        <ele>776</ele>
        <time>2021-04-29T14:54:59Z</time>
      </trkpt>
      <trkpt lat="44.96147" lon="3.91085">
        <ele>776</ele>
        <time>2021-04-29T14:55:00Z</time>
      </trkpt>
      <trkpt lat="44.96153" lon="3.91087">
        <ele>776</ele>
        <time>2021-04-29T14:55:01Z</time>
      </trkpt>
      <trkpt lat="44.96159" lon="3.91089">
        <ele>776</ele>
        <time>2021-04-29T14:55:02Z</time>
      </trkpt>
      <trkpt lat="44.96165" lon="3.91091">
        <ele>776</ele>
        <time>2021-04-29T14:55:03Z</time>
      </trkpt>
      <trkpt lat="44.96178" lon="3.91096">
        <ele>776</ele>
        <time>2021-04-29T14:55:04Z</time>
      </trkpt>
      <trkpt lat="44.96185" lon="3.91099">
        <ele>776</ele>
        <time>2021-04-29T14:55:06Z</time>
      </trkpt>
      <trkpt lat="44.96192" lon="3.91103">
        <ele>775</ele>
        <time>2021-04-29T14:55:07Z</time>
      </trkpt>
      <trkpt lat="44.962" lon="3.91107">
        <ele>775</ele>
        <time>2021-04-29T14:55:08Z</time>
      </trkpt>
      <trkpt lat="44.96207" lon="3.91111">
        <ele>775</ele>
        <time>2021-04-29T14:55:09Z</time>
      </trkpt>
      <trkpt lat="44.96215" lon="3.91115">
        <ele>774</ele>
        <time>2021-04-29T14:55:10Z</time>
      </trkpt>
      <trkpt lat="44.96223" lon="3.91119">
        <ele>774</ele>
        <time>2021-04-29T14:55:11Z</time>
      </trkpt>
      <trkpt lat="44.96231" lon="3.91123">
        <ele>774</ele>
        <time>2021-04-29T14:55:12Z</time>
      </trkpt>
      <trkpt lat="44.9624" lon="3.91127">
        <ele>773</ele>
        <time>2021-04-29T14:55:13Z</time>
      </trkpt>
      <trkpt lat="44.96248" lon="3.91131">
        <ele>772</ele>
        <time>2021-04-29T14:55:14Z</time>
      </trkpt>
      <trkpt lat="44.96257" lon="3.91135">
        <ele>772</ele>
        <time>2021-04-29T14:55:15Z</time>
      </trkpt>
      <trkpt lat="44.96267" lon="3.91139">
        <ele>771</ele>
        <time>2021-04-29T14:55:16Z</time>
      </trkpt>
      <trkpt lat="44.96276" lon="3.91143">
        <ele>771</ele>
        <time>2021-04-29T14:55:17Z</time>
      </trkpt>
      <trkpt lat="44.96286" lon="3.91146">
        <ele>770</ele>
        <time>2021-04-29T14:55:18Z</time>
      </trkpt>
      <trkpt lat="44.96296" lon="3.91149">
        <ele>770</ele>
        <time>2021-04-29T14:55:19Z</time>
      </trkpt>
      <trkpt lat="44.96306" lon="3.91153">
        <ele>769</ele>
        <time>2021-04-29T14:55:20Z</time>
      </trkpt>
      <trkpt lat="44.96316" lon="3.91156">
        <ele>768</ele>
        <time>2021-04-29T14:55:21Z</time>
      </trkpt>
      <trkpt lat="44.96326" lon="3.91161">
        <ele>768</ele>
        <time>2021-04-29T14:55:22Z</time>
      </trkpt>
      <trkpt lat="44.96346" lon="3.9117">
        <ele>767</ele>
        <time>2021-04-29T14:55:23Z</time>
      </trkpt>
      <trkpt lat="44.96356" lon="3.91176">
        <ele>766</ele>
        <time>2021-04-29T14:55:25Z</time>
      </trkpt>
      <trkpt lat="44.96365" lon="3.91181">
        <ele>765</ele>
        <time>2021-04-29T14:55:26Z</time>
      </trkpt>
      <trkpt lat="44.96375" lon="3.91187">
        <ele>765</ele>
        <time>2021-04-29T14:55:27Z</time>
      </trkpt>
      <trkpt lat="44.96385" lon="3.91192">
        <ele>764</ele>
        <time>2021-04-29T14:55:28Z</time>
      </trkpt>
      <trkpt lat="44.96394" lon="3.91199">
        <ele>764</ele>
        <time>2021-04-29T14:55:29Z</time>
      </trkpt>
      <trkpt lat="44.96403" lon="3.91206">
        <ele>763</ele>
        <time>2021-04-29T14:55:30Z</time>
      </trkpt>
      <trkpt lat="44.96412" lon="3.91214">
        <ele>763</ele>
        <time>2021-04-29T14:55:31Z</time>
      </trkpt>
      <trkpt lat="44.96421" lon="3.91221">
        <ele>762</ele>
        <time>2021-04-29T14:55:32Z</time>
      </trkpt>
      <trkpt lat="44.9643" lon="3.91228">
        <ele>761</ele>
        <time>2021-04-29T14:55:33Z</time>
      </trkpt>
      <trkpt lat="44.96439" lon="3.91236">
        <ele>760</ele>
        <time>2021-04-29T14:55:34Z</time>
      </trkpt>
      <trkpt lat="44.96447" lon="3.91243">
        <ele>760</ele>
        <time>2021-04-29T14:55:35Z</time>
      </trkpt>
      <trkpt lat="44.96456" lon="3.91251">
        <ele>759</ele>
        <time>2021-04-29T14:55:36Z</time>
      </trkpt>
      <trkpt lat="44.96464" lon="3.91258">
        <ele>758</ele>
        <time>2021-04-29T14:55:37Z</time>
      </trkpt>
      <trkpt lat="44.96473" lon="3.91265">
        <ele>757</ele>
        <time>2021-04-29T14:55:38Z</time>
      </trkpt>
      <trkpt lat="44.96481" lon="3.91272">
        <ele>756</ele>
        <time>2021-04-29T14:55:39Z</time>
      </trkpt>
      <trkpt lat="44.96489" lon="3.91278">
        <ele>756</ele>
        <time>2021-04-29T14:55:40Z</time>
      </trkpt>
      <trkpt lat="44.96498" lon="3.91284">
        <ele>755</ele>
        <time>2021-04-29T14:55:41Z</time>
      </trkpt>
      <trkpt lat="44.96514" lon="3.91293">
        <ele>755</ele>
        <time>2021-04-29T14:55:42Z</time>
      </trkpt>
      <trkpt lat="44.96523" lon="3.91297">
        <ele>754</ele>
        <time>2021-04-29T14:55:44Z</time>
      </trkpt>
      <trkpt lat="44.96532" lon="3.913">
        <ele>753</ele>
        <time>2021-04-29T14:55:45Z</time>
      </trkpt>
      <trkpt lat="44.9654" lon="3.91303">
        <ele>752</ele>
        <time>2021-04-29T14:55:46Z</time>
      </trkpt>
      <trkpt lat="44.96556" lon="3.91307">
        <ele>752</ele>
        <time>2021-04-29T14:55:47Z</time>
      </trkpt>
      <trkpt lat="44.96563" lon="3.91307">
        <ele>752</ele>
        <time>2021-04-29T14:55:49Z</time>
      </trkpt>
      <trkpt lat="44.9657" lon="3.91308">
        <ele>751</ele>
        <time>2021-04-29T14:55:50Z</time>
      </trkpt>
      <trkpt lat="44.96576" lon="3.91309">
        <ele>751</ele>
        <time>2021-04-29T14:55:51Z</time>
      </trkpt>
      <trkpt lat="44.96582" lon="3.91309">
        <ele>751</ele>
        <time>2021-04-29T14:55:52Z</time>
      </trkpt>
      <trkpt lat="44.96587" lon="3.91309">
        <ele>751</ele>
        <time>2021-04-29T14:55:53Z</time>
      </trkpt>
      <trkpt lat="44.96593" lon="3.9131">
        <ele>751</ele>
        <time>2021-04-29T14:55:54Z</time>
      </trkpt>
      <trkpt lat="44.96599" lon="3.91311">
        <ele>750</ele>
        <time>2021-04-29T14:55:55Z</time>
      </trkpt>
      <trkpt lat="44.96605" lon="3.91312">
        <ele>750</ele>
        <time>2021-04-29T14:55:56Z</time>
      </trkpt>
      <trkpt lat="44.96611" lon="3.91312">
        <ele>750</ele>
        <time>2021-04-29T14:55:57Z</time>
      </trkpt>
      <trkpt lat="44.96616" lon="3.91313">
        <ele>750</ele>
        <time>2021-04-29T14:55:58Z</time>
      </trkpt>
      <trkpt lat="44.96621" lon="3.91315">
        <ele>750</ele>
        <time>2021-04-29T14:55:59Z</time>
      </trkpt>
      <trkpt lat="44.96627" lon="3.91317">
        <ele>750</ele>
        <time>2021-04-29T14:56:00Z</time>
      </trkpt>
      <trkpt lat="44.96632" lon="3.91318">
        <ele>750</ele>
        <time>2021-04-29T14:56:01Z</time>
      </trkpt>
      <trkpt lat="44.96638" lon="3.9132">
        <ele>750</ele>
        <time>2021-04-29T14:56:02Z</time>
      </trkpt>
      <trkpt lat="44.96643" lon="3.91322">
        <ele>750</ele>
        <time>2021-04-29T14:56:03Z</time>
      </trkpt>
      <trkpt lat="44.96649" lon="3.91323">
        <ele>750</ele>
        <time>2021-04-29T14:56:04Z</time>
      </trkpt>
      <trkpt lat="44.96654" lon="3.91325">
        <ele>750</ele>
        <time>2021-04-29T14:56:05Z</time>
      </trkpt>
      <trkpt lat="44.9666" lon="3.91327">
        <ele>750</ele>
        <time>2021-04-29T14:56:06Z</time>
      </trkpt>
      <trkpt lat="44.96665" lon="3.91328">
        <ele>750</ele>
        <time>2021-04-29T14:56:07Z</time>
      </trkpt>
      <trkpt lat="44.96671" lon="3.9133">
        <ele>750</ele>
        <time>2021-04-29T14:56:08Z</time>
      </trkpt>
      <trkpt lat="44.96676" lon="3.91332">
        <ele>749</ele>
        <time>2021-04-29T14:56:09Z</time>
      </trkpt>
      <trkpt lat="44.96681" lon="3.91332">
        <ele>749</ele>
        <time>2021-04-29T14:56:10Z</time>
      </trkpt>
      <trkpt lat="44.96687" lon="3.91332">
        <ele>749</ele>
        <time>2021-04-29T14:56:11Z</time>
      </trkpt>
      <trkpt lat="44.96692" lon="3.91333">
        <ele>749</ele>
        <time>2021-04-29T14:56:12Z</time>
      </trkpt>
      <trkpt lat="44.96698" lon="3.91333">
        <ele>749</ele>
        <time>2021-04-29T14:56:13Z</time>
      </trkpt>
      <trkpt lat="44.96703" lon="3.91333">
        <ele>749</ele>
        <time>2021-04-29T14:56:14Z</time>
      </trkpt>
      <trkpt lat="44.96709" lon="3.91333">
        <ele>749</ele>
        <time>2021-04-29T14:56:15Z</time>
      </trkpt>
      <trkpt lat="44.96714" lon="3.91333">
        <ele>749</ele>
        <time>2021-04-29T14:56:16Z</time>
      </trkpt>
      <trkpt lat="44.9672" lon="3.91333">
        <ele>749</ele>
        <time>2021-04-29T14:56:17Z</time>
      </trkpt>
      <trkpt lat="44.96726" lon="3.91334">
        <ele>749</ele>
        <time>2021-04-29T14:56:18Z</time>
      </trkpt>
      <trkpt lat="44.96731" lon="3.91334">
        <ele>749</ele>
        <time>2021-04-29T14:56:19Z</time>
      </trkpt>
      <trkpt lat="44.96742" lon="3.91335">
        <ele>749</ele>
        <time>2021-04-29T14:56:20Z</time>
      </trkpt>
      <trkpt lat="44.96747" lon="3.91336">
        <ele>748</ele>
        <time>2021-04-29T14:56:22Z</time>
      </trkpt>
      <trkpt lat="44.96753" lon="3.91338">
        <ele>748</ele>
        <time>2021-04-29T14:56:23Z</time>
      </trkpt>
      <trkpt lat="44.96759" lon="3.91339">
        <ele>748</ele>
        <time>2021-04-29T14:56:24Z</time>
      </trkpt>
      <trkpt lat="44.96764" lon="3.91341">
        <ele>748</ele>
        <time>2021-04-29T14:56:25Z</time>
      </trkpt>
      <trkpt lat="44.9677" lon="3.91342">
        <ele>748</ele>
        <time>2021-04-29T14:56:26Z</time>
      </trkpt>
      <trkpt lat="44.96776" lon="3.91344">
        <ele>748</ele>
        <time>2021-04-29T14:56:27Z</time>
      </trkpt>
      <trkpt lat="44.96781" lon="3.91344">
        <ele>748</ele>
        <time>2021-04-29T14:56:28Z</time>
      </trkpt>
      <trkpt lat="44.96787" lon="3.91343">
        <ele>748</ele>
        <time>2021-04-29T14:56:29Z</time>
      </trkpt>
      <trkpt lat="44.96793" lon="3.91342">
        <ele>748</ele>
        <time>2021-04-29T14:56:30Z</time>
      </trkpt>
      <trkpt lat="44.96799" lon="3.91339">
        <ele>748</ele>
        <time>2021-04-29T14:56:31Z</time>
      </trkpt>
      <trkpt lat="44.96805" lon="3.91336">
        <ele>748</ele>
        <time>2021-04-29T14:56:32Z</time>
      </trkpt>
      <trkpt lat="44.96811" lon="3.91333">
        <ele>748</ele>
        <time>2021-04-29T14:56:33Z</time>
      </trkpt>
      <trkpt lat="44.96816" lon="3.91329">
        <ele>748</ele>
        <time>2021-04-29T14:56:34Z</time>
      </trkpt>
      <trkpt lat="44.96821" lon="3.91325">
        <ele>748</ele>
        <time>2021-04-29T14:56:35Z</time>
      </trkpt>
      <trkpt lat="44.96826" lon="3.91321">
        <ele>748</ele>
        <time>2021-04-29T14:56:36Z</time>
      </trkpt>
      <trkpt lat="44.96832" lon="3.91318">
        <ele>748</ele>
        <time>2021-04-29T14:56:37Z</time>
      </trkpt>
      <trkpt lat="44.96837" lon="3.91316">
        <ele>748</ele>
        <time>2021-04-29T14:56:38Z</time>
      </trkpt>
      <trkpt lat="44.96847" lon="3.91313">
        <ele>749</ele>
        <time>2021-04-29T14:56:39Z</time>
      </trkpt>
      <trkpt lat="44.96852" lon="3.91313">
        <ele>749</ele>
        <time>2021-04-29T14:56:41Z</time>
      </trkpt>
      <trkpt lat="44.96857" lon="3.91313">
        <ele>749</ele>
        <time>2021-04-29T14:56:42Z</time>
      </trkpt>
      <trkpt lat="44.96862" lon="3.91314">
        <ele>749</ele>
        <time>2021-04-29T14:56:43Z</time>
      </trkpt>
      <trkpt lat="44.96868" lon="3.91314">
        <ele>749</ele>
        <time>2021-04-29T14:56:44Z</time>
      </trkpt>
      <trkpt lat="44.96873" lon="3.91315">
        <ele>749</ele>
        <time>2021-04-29T14:56:45Z</time>
      </trkpt>
      <trkpt lat="44.96878" lon="3.91316">
        <ele>749</ele>
        <time>2021-04-29T14:56:46Z</time>
      </trkpt>
      <trkpt lat="44.96883" lon="3.91316">
        <ele>749</ele>
        <time>2021-04-29T14:56:47Z</time>
      </trkpt>
      <trkpt lat="44.96888" lon="3.91315">
        <ele>749</ele>
        <time>2021-04-29T14:56:48Z</time>
      </trkpt>
      <trkpt lat="44.96893" lon="3.91315">
        <ele>749</ele>
        <time>2021-04-29T14:56:49Z</time>
      </trkpt>
      <trkpt lat="44.96898" lon="3.91313">
        <ele>749</ele>
        <time>2021-04-29T14:56:50Z</time>
      </trkpt>
      <trkpt lat="44.96903" lon="3.91311">
        <ele>748</ele>
        <time>2021-04-29T14:56:51Z</time>
      </trkpt>
      <trkpt lat="44.96908" lon="3.9131">
        <ele>748</ele>
        <time>2021-04-29T14:56:52Z</time>
      </trkpt>
      <trkpt lat="44.96912" lon="3.91307">
        <ele>748</ele>
        <time>2021-04-29T14:56:53Z</time>
      </trkpt>
      <trkpt lat="44.96916" lon="3.91305">
        <ele>748</ele>
        <time>2021-04-29T14:56:54Z</time>
      </trkpt>
      <trkpt lat="44.9692" lon="3.91302">
        <ele>748</ele>
        <time>2021-04-29T14:56:55Z</time>
      </trkpt>
      <trkpt lat="44.96924" lon="3.913">
        <ele>748</ele>
        <time>2021-04-29T14:56:56Z</time>
      </trkpt>
      <trkpt lat="44.96929" lon="3.91296">
        <ele>749</ele>
        <time>2021-04-29T14:56:57Z</time>
      </trkpt>
      <trkpt lat="44.96934" lon="3.91293">
        <ele>749</ele>
        <time>2021-04-29T14:56:58Z</time>
      </trkpt>
      <trkpt lat="44.96945" lon="3.91283">
        <ele>749</ele>
        <time>2021-04-29T14:56:59Z</time>
      </trkpt>
      <trkpt lat="44.9695" lon="3.91277">
        <ele>749</ele>
        <time>2021-04-29T14:57:01Z</time>
      </trkpt>
      <trkpt lat="44.96955" lon="3.9127">
        <ele>749</ele>
        <time>2021-04-29T14:57:02Z</time>
      </trkpt>
      <trkpt lat="44.96958" lon="3.91262">
        <ele>749</ele>
        <time>2021-04-29T14:57:03Z</time>
      </trkpt>
      <trkpt lat="44.96962" lon="3.91254">
        <ele>749</ele>
        <time>2021-04-29T14:57:04Z</time>
      </trkpt>
      <trkpt lat="44.96965" lon="3.91247">
        <ele>750</ele>
        <time>2021-04-29T14:57:05Z</time>
      </trkpt>
      <trkpt lat="44.96969" lon="3.91239">
        <ele>750</ele>
        <time>2021-04-29T14:57:06Z</time>
      </trkpt>
      <trkpt lat="44.96972" lon="3.91232">
        <ele>750</ele>
        <time>2021-04-29T14:57:07Z</time>
      </trkpt>
      <trkpt lat="44.96975" lon="3.91227">
        <ele>750</ele>
        <time>2021-04-29T14:57:08Z</time>
      </trkpt>
      <trkpt lat="44.96978" lon="3.91222">
        <ele>750</ele>
        <time>2021-04-29T14:57:09Z</time>
      </trkpt>
      <trkpt lat="44.96982" lon="3.91217">
        <ele>751</ele>
        <time>2021-04-29T14:57:10Z</time>
      </trkpt>
      <trkpt lat="44.96985" lon="3.91211">
        <ele>751</ele>
        <time>2021-04-29T14:57:11Z</time>
      </trkpt>
      <trkpt lat="44.96993" lon="3.91199">
        <ele>751</ele>
        <time>2021-04-29T14:57:13Z</time>
      </trkpt>
      <trkpt lat="44.97003" lon="3.91187">
        <ele>752</ele>
        <time>2021-04-29T14:57:15Z</time>
      </trkpt>
      <trkpt lat="44.97008" lon="3.91183">
        <ele>752</ele>
        <time>2021-04-29T14:57:16Z</time>
      </trkpt>
      <trkpt lat="44.97018" lon="3.91176">
        <ele>752</ele>
        <time>2021-04-29T14:57:17Z</time>
      </trkpt>
      <trkpt lat="44.97029" lon="3.91168">
        <ele>752</ele>
        <time>2021-04-29T14:57:20Z</time>
      </trkpt>
      <trkpt lat="44.9704" lon="3.9116">
        <ele>753</ele>
        <time>2021-04-29T14:57:22Z</time>
      </trkpt>
      <trkpt lat="44.97051" lon="3.9115">
        <ele>753</ele>
        <time>2021-04-29T14:57:24Z</time>
      </trkpt>
      <trkpt lat="44.9706" lon="3.91142">
        <ele>753</ele>
        <time>2021-04-29T14:57:26Z</time>
      </trkpt>
      <trkpt lat="44.97069" lon="3.91131">
        <ele>753</ele>
        <time>2021-04-29T14:57:28Z</time>
      </trkpt>
      <trkpt lat="44.97077" lon="3.91118">
        <ele>753</ele>
        <time>2021-04-29T14:57:30Z</time>
      </trkpt>
      <trkpt lat="44.9708" lon="3.91112">
        <ele>754</ele>
        <time>2021-04-29T14:57:31Z</time>
      </trkpt>
      <trkpt lat="44.97089" lon="3.911">
        <ele>754</ele>
        <time>2021-04-29T14:57:33Z</time>
      </trkpt>
      <trkpt lat="44.97095" lon="3.91093">
        <ele>754</ele>
        <time>2021-04-29T14:57:34Z</time>
      </trkpt>
      <trkpt lat="44.971" lon="3.91087">
        <ele>754</ele>
        <time>2021-04-29T14:57:35Z</time>
      </trkpt>
      <trkpt lat="44.97109" lon="3.91074">
        <ele>755</ele>
        <time>2021-04-29T14:57:36Z</time>
      </trkpt>
      <trkpt lat="44.97114" lon="3.91069">
        <ele>755</ele>
        <time>2021-04-29T14:57:38Z</time>
      </trkpt>
      <trkpt lat="44.97119" lon="3.91064">
        <ele>755</ele>
        <time>2021-04-29T14:57:39Z</time>
      </trkpt>
      <trkpt lat="44.97123" lon="3.9106">
        <ele>756</ele>
        <time>2021-04-29T14:57:40Z</time>
      </trkpt>
      <trkpt lat="44.97127" lon="3.91055">
        <ele>756</ele>
        <time>2021-04-29T14:57:41Z</time>
      </trkpt>
      <trkpt lat="44.97131" lon="3.9105">
        <ele>756</ele>
        <time>2021-04-29T14:57:42Z</time>
      </trkpt>
      <trkpt lat="44.97136" lon="3.91045">
        <ele>756</ele>
        <time>2021-04-29T14:57:43Z</time>
      </trkpt>
      <trkpt lat="44.9714" lon="3.9104">
        <ele>757</ele>
        <time>2021-04-29T14:57:44Z</time>
      </trkpt>
      <trkpt lat="44.97145" lon="3.91036">
        <ele>757</ele>
        <time>2021-04-29T14:57:45Z</time>
      </trkpt>
      <trkpt lat="44.97155" lon="3.91029">
        <ele>757</ele>
        <time>2021-04-29T14:57:47Z</time>
      </trkpt>
      <trkpt lat="44.97165" lon="3.91021">
        <ele>757</ele>
        <time>2021-04-29T14:57:49Z</time>
      </trkpt>
      <trkpt lat="44.97176" lon="3.91012">
        <ele>757</ele>
        <time>2021-04-29T14:57:51Z</time>
      </trkpt>
      <trkpt lat="44.97182" lon="3.91009">
        <ele>757</ele>
        <time>2021-04-29T14:57:52Z</time>
      </trkpt>
      <trkpt lat="44.97193" lon="3.91004">
        <ele>757</ele>
        <time>2021-04-29T14:57:54Z</time>
      </trkpt>
      <trkpt lat="44.97205" lon="3.90999">
        <ele>756</ele>
        <time>2021-04-29T14:57:55Z</time>
      </trkpt>
      <trkpt lat="44.97213" lon="3.90991">
        <ele>756</ele>
        <time>2021-04-29T14:57:58Z</time>
      </trkpt>
      <trkpt lat="44.9722" lon="3.90982">
        <ele>756</ele>
        <time>2021-04-29T14:58:00Z</time>
      </trkpt>
      <trkpt lat="44.97226" lon="3.9097">
        <ele>756</ele>
        <time>2021-04-29T14:58:02Z</time>
      </trkpt>
      <trkpt lat="44.97227" lon="3.90964">
        <ele>756</ele>
        <time>2021-04-29T14:58:03Z</time>
      </trkpt>
      <trkpt lat="44.97228" lon="3.90956">
        <ele>756</ele>
        <time>2021-04-29T14:58:04Z</time>
      </trkpt>
      <trkpt lat="44.97229" lon="3.9094">
        <ele>755</ele>
        <time>2021-04-29T14:58:06Z</time>
      </trkpt>
      <trkpt lat="44.97226" lon="3.90921">
        <ele>755</ele>
        <time>2021-04-29T14:58:08Z</time>
      </trkpt>
      <trkpt lat="44.97222" lon="3.90902">
        <ele>754</ele>
        <time>2021-04-29T14:58:10Z</time>
      </trkpt>
      <trkpt lat="44.97221" lon="3.90876">
        <ele>753</ele>
        <time>2021-04-29T14:58:12Z</time>
      </trkpt>
      <trkpt lat="44.97219" lon="3.90863">
        <ele>753</ele>
        <time>2021-04-29T14:58:13Z</time>
      </trkpt>
      <trkpt lat="44.97216" lon="3.90851">
        <ele>752</ele>
        <time>2021-04-29T14:58:14Z</time>
      </trkpt>
      <trkpt lat="44.97208" lon="3.90832">
        <ele>752</ele>
        <time>2021-04-29T14:58:16Z</time>
      </trkpt>
      <trkpt lat="44.97197" lon="3.90818">
        <ele>751</ele>
        <time>2021-04-29T14:58:18Z</time>
      </trkpt>
      <trkpt lat="44.97193" lon="3.90811">
        <ele>750</ele>
        <time>2021-04-29T14:58:19Z</time>
      </trkpt>
      <trkpt lat="44.97187" lon="3.90795">
        <ele>750</ele>
        <time>2021-04-29T14:58:21Z</time>
      </trkpt>
      <trkpt lat="44.9718" lon="3.9078">
        <ele>750</ele>
        <time>2021-04-29T14:58:23Z</time>
      </trkpt>
      <trkpt lat="44.97174" lon="3.90766">
        <ele>749</ele>
        <time>2021-04-29T14:58:25Z</time>
      </trkpt>
      <trkpt lat="44.97168" lon="3.90753">
        <ele>749</ele>
        <time>2021-04-29T14:58:27Z</time>
      </trkpt>
      <trkpt lat="44.97161" lon="3.90737">
        <ele>748</ele>
        <time>2021-04-29T14:58:29Z</time>
      </trkpt>
      <trkpt lat="44.97155" lon="3.90723">
        <ele>748</ele>
        <time>2021-04-29T14:58:31Z</time>
      </trkpt>
      <trkpt lat="44.9715" lon="3.90709">
        <ele>748</ele>
        <time>2021-04-29T14:58:33Z</time>
      </trkpt>
      <trkpt lat="44.97145" lon="3.90695">
        <ele>748</ele>
        <time>2021-04-29T14:58:35Z</time>
      </trkpt>
      <trkpt lat="44.97139" lon="3.9068">
        <ele>747</ele>
        <time>2021-04-29T14:58:37Z</time>
      </trkpt>
      <trkpt lat="44.97135" lon="3.90666">
        <ele>747</ele>
        <time>2021-04-29T14:58:39Z</time>
      </trkpt>
      <trkpt lat="44.97132" lon="3.90651">
        <ele>746</ele>
        <time>2021-04-29T14:58:41Z</time>
      </trkpt>
      <trkpt lat="44.97126" lon="3.90633">
        <ele>746</ele>
        <time>2021-04-29T14:58:43Z</time>
      </trkpt>
      <trkpt lat="44.97121" lon="3.90623">
        <ele>745</ele>
        <time>2021-04-29T14:58:44Z</time>
      </trkpt>
      <trkpt lat="44.97116" lon="3.90613">
        <ele>744</ele>
        <time>2021-04-29T14:58:45Z</time>
      </trkpt>
      <trkpt lat="44.9711" lon="3.90604">
        <ele>744</ele>
        <time>2021-04-29T14:58:46Z</time>
      </trkpt>
      <trkpt lat="44.97103" lon="3.90597">
        <ele>743</ele>
        <time>2021-04-29T14:58:47Z</time>
      </trkpt>
      <trkpt lat="44.97097" lon="3.9059">
        <ele>743</ele>
        <time>2021-04-29T14:58:48Z</time>
      </trkpt>
      <trkpt lat="44.97092" lon="3.90583">
        <ele>743</ele>
        <time>2021-04-29T14:58:49Z</time>
      </trkpt>
      <trkpt lat="44.97087" lon="3.90576">
        <ele>743</ele>
        <time>2021-04-29T14:58:50Z</time>
      </trkpt>
      <trkpt lat="44.97083" lon="3.90568">
        <ele>742</ele>
        <time>2021-04-29T14:58:51Z</time>
      </trkpt>
      <trkpt lat="44.97074" lon="3.90556">
        <ele>742</ele>
        <time>2021-04-29T14:58:52Z</time>
      </trkpt>
      <trkpt lat="44.9707" lon="3.90551">
        <ele>741</ele>
        <time>2021-04-29T14:58:54Z</time>
      </trkpt>
      <trkpt lat="44.97066" lon="3.90546">
        <ele>741</ele>
        <time>2021-04-29T14:58:55Z</time>
      </trkpt>
      <trkpt lat="44.97062" lon="3.9053">
        <ele>741</ele>
        <time>2021-04-29T14:58:57Z</time>
      </trkpt>
      <trkpt lat="44.9706" lon="3.90518">
        <ele>741</ele>
        <time>2021-04-29T14:58:59Z</time>
      </trkpt>
      <trkpt lat="44.97057" lon="3.90502">
        <ele>740</ele>
        <time>2021-04-29T14:59:02Z</time>
      </trkpt>
      <trkpt lat="44.97057" lon="3.90499">
        <ele>740</ele>
        <time>2021-04-29T14:59:04Z</time>
      </trkpt>
      <trkpt lat="44.97058" lon="3.90502">
        <ele>740</ele>
        <time>2021-04-29T14:59:08Z</time>
      </trkpt>
      <trkpt lat="44.97058" lon="3.90506">
        <ele>740</ele>
        <time>2021-04-29T14:59:10Z</time>
      </trkpt>
      <trkpt lat="44.97058" lon="3.90509">
        <ele>740</ele>
        <time>2021-04-29T14:59:11Z</time>
      </trkpt>
      <trkpt lat="44.97057" lon="3.90512">
        <ele>740</ele>
        <time>2021-04-29T14:59:14Z</time>
      </trkpt>
      <trkpt lat="44.97056" lon="3.9051">
        <ele>741</ele>
        <time>2021-04-29T14:59:18Z</time>
      </trkpt>
      <trkpt lat="44.97052" lon="3.90508">
        <ele>745</ele>
        <time>2021-04-29T15:00:27Z</time>
      </trkpt>
      <trkpt lat="44.97051" lon="3.90503">
        <ele>745</ele>
        <time>2021-04-29T15:00:28Z</time>
      </trkpt>
      <trkpt lat="44.9705" lon="3.905">
        <ele>745</ele>
        <time>2021-04-29T15:00:30Z</time>
      </trkpt>
      <trkpt lat="44.97049" lon="3.90496">
        <ele>745</ele>
        <time>2021-04-29T15:00:31Z</time>
      </trkpt>
      <trkpt lat="44.97048" lon="3.90492">
        <ele>745</ele>
        <time>2021-04-29T15:00:32Z</time>
      </trkpt>
      <trkpt lat="44.97045" lon="3.90479">
        <ele>744</ele>
        <time>2021-04-29T15:00:35Z</time>
      </trkpt>
      <trkpt lat="44.97042" lon="3.90464">
        <ele>744</ele>
        <time>2021-04-29T15:00:38Z</time>
      </trkpt>
      <trkpt lat="44.9704" lon="3.90449">
        <ele>744</ele>
        <time>2021-04-29T15:00:41Z</time>
      </trkpt>
      <trkpt lat="44.97037" lon="3.90432">
        <ele>744</ele>
        <time>2021-04-29T15:00:44Z</time>
      </trkpt>
      <trkpt lat="44.97035" lon="3.9042">
        <ele>744</ele>
        <time>2021-04-29T15:00:47Z</time>
      </trkpt>
      <trkpt lat="44.97032" lon="3.90408">
        <ele>744</ele>
        <time>2021-04-29T15:00:50Z</time>
      </trkpt>
      <trkpt lat="44.9703" lon="3.90395">
        <ele>744</ele>
        <time>2021-04-29T15:00:53Z</time>
      </trkpt>
      <trkpt lat="44.97027" lon="3.90383">
        <ele>744</ele>
        <time>2021-04-29T15:00:56Z</time>
      </trkpt>
      <trkpt lat="44.97025" lon="3.90374">
        <ele>744</ele>
        <time>2021-04-29T15:00:58Z</time>
      </trkpt>
      <trkpt lat="44.97023" lon="3.90371">
        <ele>744</ele>
        <time>2021-04-29T15:00:59Z</time>
      </trkpt>
      <trkpt lat="44.97021" lon="3.90368">
        <ele>744</ele>
        <time>2021-04-29T15:01:00Z</time>
      </trkpt>
      <trkpt lat="44.97019" lon="3.90366">
        <ele>745</ele>
        <time>2021-04-29T15:01:01Z</time>
      </trkpt>
      <trkpt lat="44.97017" lon="3.90363">
        <ele>745</ele>
        <time>2021-04-29T15:01:02Z</time>
      </trkpt>
      <trkpt lat="44.97014" lon="3.90361">
        <ele>745</ele>
        <time>2021-04-29T15:01:03Z</time>
      </trkpt>
      <trkpt lat="44.97011" lon="3.9036">
        <ele>745</ele>
        <time>2021-04-29T15:01:04Z</time>
      </trkpt>
      <trkpt lat="44.97009" lon="3.90358">
        <ele>745</ele>
        <time>2021-04-29T15:01:05Z</time>
      </trkpt>
      <trkpt lat="44.97004" lon="3.90355">
        <ele>746</ele>
        <time>2021-04-29T15:01:06Z</time>
      </trkpt>
      <trkpt lat="44.97001" lon="3.90353">
        <ele>746</ele>
        <time>2021-04-29T15:01:08Z</time>
      </trkpt>
      <trkpt lat="44.96998" lon="3.90352">
        <ele>746</ele>
        <time>2021-04-29T15:01:09Z</time>
      </trkpt>
      <trkpt lat="44.96995" lon="3.90351">
        <ele>747</ele>
        <time>2021-04-29T15:01:10Z</time>
      </trkpt>
      <trkpt lat="44.96993" lon="3.90349">
        <ele>747</ele>
        <time>2021-04-29T15:01:11Z</time>
      </trkpt>
      <trkpt lat="44.96987" lon="3.90347">
        <ele>747</ele>
        <time>2021-04-29T15:01:12Z</time>
      </trkpt>
      <trkpt lat="44.96985" lon="3.90345">
        <ele>748</ele>
        <time>2021-04-29T15:01:14Z</time>
      </trkpt>
      <trkpt lat="44.96976" lon="3.90341">
        <ele>748</ele>
        <time>2021-04-29T15:01:17Z</time>
      </trkpt>
      <trkpt lat="44.96967" lon="3.90337">
        <ele>748</ele>
        <time>2021-04-29T15:01:20Z</time>
      </trkpt>
      <trkpt lat="44.9696" lon="3.90332">
        <ele>748</ele>
        <time>2021-04-29T15:01:22Z</time>
      </trkpt>
      <trkpt lat="44.96953" lon="3.90329">
        <ele>749</ele>
        <time>2021-04-29T15:01:24Z</time>
      </trkpt>
      <trkpt lat="44.96949" lon="3.90328">
        <ele>749</ele>
        <time>2021-04-29T15:01:25Z</time>
      </trkpt>
      <trkpt lat="44.96941" lon="3.90324">
        <ele>750</ele>
        <time>2021-04-29T15:01:27Z</time>
      </trkpt>
      <trkpt lat="44.96937" lon="3.90322">
        <ele>750</ele>
        <time>2021-04-29T15:01:28Z</time>
      </trkpt>
      <trkpt lat="44.96932" lon="3.90319">
        <ele>750</ele>
        <time>2021-04-29T15:01:29Z</time>
      </trkpt>
      <trkpt lat="44.96927" lon="3.90317">
        <ele>750</ele>
        <time>2021-04-29T15:01:30Z</time>
      </trkpt>
      <trkpt lat="44.96922" lon="3.90314">
        <ele>750</ele>
        <time>2021-04-29T15:01:31Z</time>
      </trkpt>
      <trkpt lat="44.96917" lon="3.90311">
        <ele>750</ele>
        <time>2021-04-29T15:01:32Z</time>
      </trkpt>
      <trkpt lat="44.96913" lon="3.90307">
        <ele>751</ele>
        <time>2021-04-29T15:01:33Z</time>
      </trkpt>
      <trkpt lat="44.9691" lon="3.90304">
        <ele>751</ele>
        <time>2021-04-29T15:01:34Z</time>
      </trkpt>
      <trkpt lat="44.96906" lon="3.903">
        <ele>751</ele>
        <time>2021-04-29T15:01:35Z</time>
      </trkpt>
      <trkpt lat="44.96903" lon="3.90297">
        <ele>751</ele>
        <time>2021-04-29T15:01:36Z</time>
      </trkpt>
      <trkpt lat="44.96899" lon="3.90294">
        <ele>751</ele>
        <time>2021-04-29T15:01:37Z</time>
      </trkpt>
      <trkpt lat="44.96895" lon="3.90293">
        <ele>752</ele>
        <time>2021-04-29T15:01:38Z</time>
      </trkpt>
      <trkpt lat="44.96891" lon="3.90293">
        <ele>752</ele>
        <time>2021-04-29T15:01:39Z</time>
      </trkpt>
      <trkpt lat="44.96887" lon="3.90294">
        <ele>752</ele>
        <time>2021-04-29T15:01:40Z</time>
      </trkpt>
      <trkpt lat="44.96883" lon="3.90296">
        <ele>752</ele>
        <time>2021-04-29T15:01:41Z</time>
      </trkpt>
      <trkpt lat="44.9688" lon="3.90297">
        <ele>753</ele>
        <time>2021-04-29T15:01:42Z</time>
      </trkpt>
      <trkpt lat="44.96876" lon="3.90296">
        <ele>753</ele>
        <time>2021-04-29T15:01:43Z</time>
      </trkpt>
      <trkpt lat="44.96872" lon="3.90296">
        <ele>753</ele>
        <time>2021-04-29T15:01:44Z</time>
      </trkpt>
      <trkpt lat="44.96868" lon="3.90295">
        <ele>753</ele>
        <time>2021-04-29T15:01:45Z</time>
      </trkpt>
      <trkpt lat="44.96865" lon="3.90294">
        <ele>753</ele>
        <time>2021-04-29T15:01:46Z</time>
      </trkpt>
      <trkpt lat="44.96862" lon="3.90294">
        <ele>752</ele>
        <time>2021-04-29T15:01:47Z</time>
      </trkpt>
      <trkpt lat="44.9686" lon="3.90293">
        <ele>752</ele>
        <time>2021-04-29T15:01:48Z</time>
      </trkpt>
      <trkpt lat="44.96858" lon="3.90292">
        <ele>752</ele>
        <time>2021-04-29T15:01:49Z</time>
      </trkpt>
      <trkpt lat="44.96855" lon="3.9029">
        <ele>752</ele>
        <time>2021-04-29T15:01:51Z</time>
      </trkpt>
      <trkpt lat="44.96852" lon="3.9029">
        <ele>753</ele>
        <time>2021-04-29T15:01:53Z</time>
      </trkpt>
      <trkpt lat="44.96849" lon="3.9029">
        <ele>753</ele>
        <time>2021-04-29T15:01:55Z</time>
      </trkpt>
      <trkpt lat="44.96846" lon="3.90291">
        <ele>753</ele>
        <time>2021-04-29T15:01:57Z</time>
      </trkpt>
      <trkpt lat="44.96844" lon="3.90293">
        <ele>753</ele>
        <time>2021-04-29T15:01:59Z</time>
      </trkpt>
      <trkpt lat="44.96841" lon="3.90293">
        <ele>753</ele>
        <time>2021-04-29T15:02:01Z</time>
      </trkpt>
      <trkpt lat="44.96837" lon="3.90294">
        <ele>754</ele>
        <time>2021-04-29T15:02:03Z</time>
      </trkpt>
      <trkpt lat="44.96835" lon="3.90293">
        <ele>754</ele>
        <time>2021-04-29T15:02:05Z</time>
      </trkpt>
      <trkpt lat="44.96834" lon="3.90291">
        <ele>754</ele>
        <time>2021-04-29T15:02:06Z</time>
      </trkpt>
      <trkpt lat="44.96835" lon="3.90278">
        <ele>755</ele>
        <time>2021-04-29T15:02:12Z</time>
      </trkpt>
      <trkpt lat="44.96836" lon="3.90273">
        <ele>757</ele>
        <time>2021-04-29T15:02:21Z</time>
      </trkpt>
      <trkpt lat="44.96838" lon="3.90268">
        <ele>757</ele>
        <time>2021-04-29T15:02:22Z</time>
      </trkpt>
      <trkpt lat="44.96839" lon="3.90265">
        <ele>757</ele>
        <time>2021-04-29T15:02:24Z</time>
      </trkpt>
      <trkpt lat="44.9684" lon="3.90262">
        <ele>758</ele>
        <time>2021-04-29T15:02:25Z</time>
      </trkpt>
      <trkpt lat="44.96844" lon="3.90253">
        <ele>758</ele>
        <time>2021-04-29T15:02:27Z</time>
      </trkpt>
      <trkpt lat="44.96847" lon="3.90249">
        <ele>758</ele>
        <time>2021-04-29T15:02:28Z</time>
      </trkpt>
      <trkpt lat="44.96854" lon="3.9024">
        <ele>758</ele>
        <time>2021-04-29T15:02:30Z</time>
      </trkpt>
      <trkpt lat="44.96862" lon="3.9023">
        <ele>758</ele>
        <time>2021-04-29T15:02:32Z</time>
      </trkpt>
      <trkpt lat="44.96868" lon="3.90219">
        <ele>758</ele>
        <time>2021-04-29T15:02:34Z</time>
      </trkpt>
      <trkpt lat="44.96871" lon="3.90206">
        <ele>758</ele>
        <time>2021-04-29T15:02:36Z</time>
      </trkpt>
      <trkpt lat="44.96873" lon="3.90196">
        <ele>758</ele>
        <time>2021-04-29T15:02:38Z</time>
      </trkpt>
      <trkpt lat="44.96873" lon="3.90191">
        <ele>758</ele>
        <time>2021-04-29T15:02:39Z</time>
      </trkpt>
      <trkpt lat="44.96873" lon="3.90186">
        <ele>758</ele>
        <time>2021-04-29T15:02:40Z</time>
      </trkpt>
      <trkpt lat="44.96873" lon="3.90181">
        <ele>758</ele>
        <time>2021-04-29T15:02:41Z</time>
      </trkpt>
      <trkpt lat="44.96872" lon="3.90163">
        <ele>758</ele>
        <time>2021-04-29T15:02:44Z</time>
      </trkpt>
      <trkpt lat="44.96869" lon="3.9015">
        <ele>758</ele>
        <time>2021-04-29T15:02:46Z</time>
      </trkpt>
      <trkpt lat="44.96866" lon="3.90135">
        <ele>758</ele>
        <time>2021-04-29T15:02:48Z</time>
      </trkpt>
      <trkpt lat="44.96867" lon="3.90119">
        <ele>758</ele>
        <time>2021-04-29T15:02:50Z</time>
      </trkpt>
      <trkpt lat="44.9687" lon="3.90111">
        <ele>758</ele>
        <time>2021-04-29T15:02:51Z</time>
      </trkpt>
      <trkpt lat="44.96872" lon="3.90104">
        <ele>759</ele>
        <time>2021-04-29T15:02:52Z</time>
      </trkpt>
      <trkpt lat="44.96873" lon="3.90098">
        <ele>759</ele>
        <time>2021-04-29T15:02:53Z</time>
      </trkpt>
      <trkpt lat="44.96874" lon="3.90091">
        <ele>759</ele>
        <time>2021-04-29T15:02:54Z</time>
      </trkpt>
      <trkpt lat="44.96874" lon="3.90084">
        <ele>759</ele>
        <time>2021-04-29T15:02:55Z</time>
      </trkpt>
      <trkpt lat="44.96874" lon="3.90078">
        <ele>759</ele>
        <time>2021-04-29T15:02:56Z</time>
      </trkpt>
      <trkpt lat="44.96874" lon="3.90073">
        <ele>759</ele>
        <time>2021-04-29T15:02:57Z</time>
      </trkpt>
      <trkpt lat="44.96873" lon="3.90067">
        <ele>759</ele>
        <time>2021-04-29T15:02:58Z</time>
      </trkpt>
      <trkpt lat="44.96872" lon="3.90062">
        <ele>759</ele>
        <time>2021-04-29T15:02:59Z</time>
      </trkpt>
      <trkpt lat="44.96872" lon="3.90056">
        <ele>759</ele>
        <time>2021-04-29T15:03:00Z</time>
      </trkpt>
      <trkpt lat="44.96871" lon="3.90039">
        <ele>760</ele>
        <time>2021-04-29T15:03:03Z</time>
      </trkpt>
      <trkpt lat="44.9687" lon="3.90026">
        <ele>760</ele>
        <time>2021-04-29T15:03:05Z</time>
      </trkpt>
      <trkpt lat="44.96869" lon="3.9002">
        <ele>760</ele>
        <time>2021-04-29T15:03:06Z</time>
      </trkpt>
      <trkpt lat="44.96868" lon="3.90014">
        <ele>760</ele>
        <time>2021-04-29T15:03:07Z</time>
      </trkpt>
      <trkpt lat="44.96867" lon="3.90009">
        <ele>761</ele>
        <time>2021-04-29T15:03:08Z</time>
      </trkpt>
      <trkpt lat="44.96867" lon="3.90002">
        <ele>761</ele>
        <time>2021-04-29T15:03:09Z</time>
      </trkpt>
      <trkpt lat="44.96868" lon="3.89994">
        <ele>761</ele>
        <time>2021-04-29T15:03:10Z</time>
      </trkpt>
      <trkpt lat="44.96868" lon="3.89987">
        <ele>761</ele>
        <time>2021-04-29T15:03:11Z</time>
      </trkpt>
      <trkpt lat="44.96868" lon="3.89978">
        <ele>761</ele>
        <time>2021-04-29T15:03:12Z</time>
      </trkpt>
      <trkpt lat="44.96868" lon="3.89971">
        <ele>761</ele>
        <time>2021-04-29T15:03:13Z</time>
      </trkpt>
      <trkpt lat="44.96866" lon="3.89958">
        <ele>761</ele>
        <time>2021-04-29T15:03:15Z</time>
      </trkpt>
      <trkpt lat="44.96866" lon="3.89944">
        <ele>762</ele>
        <time>2021-04-29T15:03:17Z</time>
      </trkpt>
      <trkpt lat="44.96864" lon="3.89927">
        <ele>762</ele>
        <time>2021-04-29T15:03:19Z</time>
      </trkpt>
      <trkpt lat="44.96859" lon="3.89914">
        <ele>763</ele>
        <time>2021-04-29T15:03:23Z</time>
      </trkpt>
      <trkpt lat="44.96855" lon="3.89898">
        <ele>764</ele>
        <time>2021-04-29T15:03:27Z</time>
      </trkpt>
      <trkpt lat="44.96852" lon="3.89885">
        <ele>765</ele>
        <time>2021-04-29T15:03:30Z</time>
      </trkpt>
      <trkpt lat="44.9685" lon="3.89868">
        <ele>765</ele>
        <time>2021-04-29T15:03:33Z</time>
      </trkpt>
      <trkpt lat="44.96848" lon="3.89853">
        <ele>766</ele>
        <time>2021-04-29T15:03:36Z</time>
      </trkpt>
      <trkpt lat="44.96847" lon="3.89838">
        <ele>767</ele>
        <time>2021-04-29T15:03:39Z</time>
      </trkpt>
      <trkpt lat="44.96848" lon="3.89824">
        <ele>768</ele>
        <time>2021-04-29T15:03:42Z</time>
      </trkpt>
      <trkpt lat="44.96848" lon="3.8981">
        <ele>768</ele>
        <time>2021-04-29T15:03:45Z</time>
      </trkpt>
      <trkpt lat="44.96848" lon="3.89804">
        <ele>768</ele>
        <time>2021-04-29T15:03:46Z</time>
      </trkpt>
      <trkpt lat="44.96848" lon="3.89798">
        <ele>768</ele>
        <time>2021-04-29T15:03:47Z</time>
      </trkpt>
      <trkpt lat="44.96847" lon="3.89793">
        <ele>768</ele>
        <time>2021-04-29T15:03:48Z</time>
      </trkpt>
      <trkpt lat="44.96846" lon="3.89787">
        <ele>768</ele>
        <time>2021-04-29T15:03:49Z</time>
      </trkpt>
      <trkpt lat="44.96846" lon="3.89782">
        <ele>768</ele>
        <time>2021-04-29T15:03:50Z</time>
      </trkpt>
      <trkpt lat="44.96846" lon="3.89769">
        <ele>768</ele>
        <time>2021-04-29T15:03:52Z</time>
      </trkpt>
      <trkpt lat="44.96845" lon="3.89753">
        <ele>768</ele>
        <time>2021-04-29T15:03:54Z</time>
      </trkpt>
      <trkpt lat="44.96845" lon="3.89737">
        <ele>768</ele>
        <time>2021-04-29T15:03:56Z</time>
      </trkpt>
      <trkpt lat="44.96847" lon="3.89724">
        <ele>768</ele>
        <time>2021-04-29T15:03:57Z</time>
      </trkpt>
      <trkpt lat="44.96847" lon="3.89718">
        <ele>768</ele>
        <time>2021-04-29T15:03:59Z</time>
      </trkpt>
      <trkpt lat="44.96847" lon="3.89713">
        <ele>768</ele>
        <time>2021-04-29T15:04:00Z</time>
      </trkpt>
      <trkpt lat="44.96846" lon="3.89707">
        <ele>768</ele>
        <time>2021-04-29T15:04:01Z</time>
      </trkpt>
      <trkpt lat="44.96846" lon="3.89702">
        <ele>768</ele>
        <time>2021-04-29T15:04:02Z</time>
      </trkpt>
      <trkpt lat="44.96844" lon="3.89696">
        <ele>768</ele>
        <time>2021-04-29T15:04:03Z</time>
      </trkpt>
      <trkpt lat="44.96842" lon="3.8969">
        <ele>769</ele>
        <time>2021-04-29T15:04:04Z</time>
      </trkpt>
      <trkpt lat="44.9684" lon="3.89684">
        <ele>769</ele>
        <time>2021-04-29T15:04:05Z</time>
      </trkpt>
      <trkpt lat="44.96838" lon="3.89678">
        <ele>769</ele>
        <time>2021-04-29T15:04:06Z</time>
      </trkpt>
      <trkpt lat="44.96835" lon="3.89672">
        <ele>769</ele>
        <time>2021-04-29T15:04:07Z</time>
      </trkpt>
      <trkpt lat="44.96832" lon="3.89667">
        <ele>769</ele>
        <time>2021-04-29T15:04:08Z</time>
      </trkpt>
      <trkpt lat="44.96829" lon="3.89662">
        <ele>769</ele>
        <time>2021-04-29T15:04:09Z</time>
      </trkpt>
      <trkpt lat="44.96826" lon="3.89657">
        <ele>769</ele>
        <time>2021-04-29T15:04:10Z</time>
      </trkpt>
      <trkpt lat="44.96824" lon="3.89651">
        <ele>769</ele>
        <time>2021-04-29T15:04:11Z</time>
      </trkpt>
      <trkpt lat="44.96819" lon="3.89642">
        <ele>769</ele>
        <time>2021-04-29T15:04:13Z</time>
      </trkpt>
      <trkpt lat="44.96813" lon="3.89626">
        <ele>770</ele>
        <time>2021-04-29T15:04:16Z</time>
      </trkpt>
      <trkpt lat="44.96813" lon="3.89622">
        <ele>770</ele>
        <time>2021-04-29T15:04:18Z</time>
      </trkpt>
      <trkpt lat="44.96812" lon="3.89618">
        <ele>770</ele>
        <time>2021-04-29T15:04:19Z</time>
      </trkpt>
      <trkpt lat="44.96811" lon="3.89613">
        <ele>770</ele>
        <time>2021-04-29T15:04:20Z</time>
      </trkpt>
      <trkpt lat="44.9681" lon="3.89609">
        <ele>770</ele>
        <time>2021-04-29T15:04:21Z</time>
      </trkpt>
      <trkpt lat="44.96809" lon="3.89605">
        <ele>770</ele>
        <time>2021-04-29T15:04:22Z</time>
      </trkpt>
      <trkpt lat="44.96807" lon="3.89593">
        <ele>771</ele>
        <time>2021-04-29T15:04:25Z</time>
      </trkpt>
      <trkpt lat="44.96805" lon="3.89582">
        <ele>771</ele>
        <time>2021-04-29T15:04:27Z</time>
      </trkpt>
      <trkpt lat="44.96804" lon="3.89577">
        <ele>771</ele>
        <time>2021-04-29T15:04:28Z</time>
      </trkpt>
      <trkpt lat="44.96803" lon="3.89572">
        <ele>772</ele>
        <time>2021-04-29T15:04:29Z</time>
      </trkpt>
      <trkpt lat="44.96802" lon="3.89567">
        <ele>772</ele>
        <time>2021-04-29T15:04:30Z</time>
      </trkpt>
      <trkpt lat="44.96801" lon="3.89563">
        <ele>772</ele>
        <time>2021-04-29T15:04:31Z</time>
      </trkpt>
      <trkpt lat="44.96799" lon="3.89559">
        <ele>773</ele>
        <time>2021-04-29T15:04:32Z</time>
      </trkpt>
      <trkpt lat="44.96798" lon="3.89556">
        <ele>773</ele>
        <time>2021-04-29T15:04:33Z</time>
      </trkpt>
      <trkpt lat="44.96797" lon="3.89551">
        <ele>773</ele>
        <time>2021-04-29T15:04:34Z</time>
      </trkpt>
      <trkpt lat="44.96795" lon="3.89543">
        <ele>773</ele>
        <time>2021-04-29T15:04:35Z</time>
      </trkpt>
      <trkpt lat="44.96794" lon="3.89538">
        <ele>774</ele>
        <time>2021-04-29T15:04:37Z</time>
      </trkpt>
      <trkpt lat="44.96793" lon="3.89534">
        <ele>774</ele>
        <time>2021-04-29T15:04:38Z</time>
      </trkpt>
      <trkpt lat="44.96793" lon="3.89529">
        <ele>775</ele>
        <time>2021-04-29T15:04:39Z</time>
      </trkpt>
      <trkpt lat="44.96793" lon="3.89524">
        <ele>775</ele>
        <time>2021-04-29T15:04:40Z</time>
      </trkpt>
      <trkpt lat="44.96793" lon="3.89518">
        <ele>776</ele>
        <time>2021-04-29T15:04:41Z</time>
      </trkpt>
      <trkpt lat="44.96793" lon="3.89514">
        <ele>776</ele>
        <time>2021-04-29T15:04:42Z</time>
      </trkpt>
      <trkpt lat="44.96793" lon="3.8951">
        <ele>777</ele>
        <time>2021-04-29T15:04:43Z</time>
      </trkpt>
      <trkpt lat="44.96793" lon="3.89505">
        <ele>777</ele>
        <time>2021-04-29T15:04:44Z</time>
      </trkpt>
      <trkpt lat="44.96793" lon="3.895">
        <ele>777</ele>
        <time>2021-04-29T15:04:45Z</time>
      </trkpt>
      <trkpt lat="44.96792" lon="3.89496">
        <ele>777</ele>
        <time>2021-04-29T15:04:46Z</time>
      </trkpt>
      <trkpt lat="44.96791" lon="3.89492">
        <ele>778</ele>
        <time>2021-04-29T15:04:47Z</time>
      </trkpt>
      <trkpt lat="44.9679" lon="3.89486">
        <ele>778</ele>
        <time>2021-04-29T15:04:48Z</time>
      </trkpt>
      <trkpt lat="44.96789" lon="3.89481">
        <ele>778</ele>
        <time>2021-04-29T15:04:49Z</time>
      </trkpt>
      <trkpt lat="44.96789" lon="3.89475">
        <ele>779</ele>
        <time>2021-04-29T15:04:50Z</time>
      </trkpt>
      <trkpt lat="44.96789" lon="3.8947">
        <ele>779</ele>
        <time>2021-04-29T15:04:51Z</time>
      </trkpt>
      <trkpt lat="44.96789" lon="3.89466">
        <ele>779</ele>
        <time>2021-04-29T15:04:52Z</time>
      </trkpt>
      <trkpt lat="44.9679" lon="3.89462">
        <ele>780</ele>
        <time>2021-04-29T15:04:53Z</time>
      </trkpt>
      <trkpt lat="44.96789" lon="3.89455">
        <ele>780</ele>
        <time>2021-04-29T15:04:54Z</time>
      </trkpt>
      <trkpt lat="44.9679" lon="3.89449">
        <ele>781</ele>
        <time>2021-04-29T15:04:56Z</time>
      </trkpt>
      <trkpt lat="44.9679" lon="3.89444">
        <ele>781</ele>
        <time>2021-04-29T15:04:57Z</time>
      </trkpt>
      <trkpt lat="44.96792" lon="3.89439">
        <ele>781</ele>
        <time>2021-04-29T15:04:58Z</time>
      </trkpt>
      <trkpt lat="44.96793" lon="3.89434">
        <ele>782</ele>
        <time>2021-04-29T15:04:59Z</time>
      </trkpt>
      <trkpt lat="44.96794" lon="3.8943">
        <ele>782</ele>
        <time>2021-04-29T15:05:00Z</time>
      </trkpt>
      <trkpt lat="44.96795" lon="3.89426">
        <ele>783</ele>
        <time>2021-04-29T15:05:01Z</time>
      </trkpt>
      <trkpt lat="44.96795" lon="3.89422">
        <ele>783</ele>
        <time>2021-04-29T15:05:02Z</time>
      </trkpt>
      <trkpt lat="44.96796" lon="3.89418">
        <ele>783</ele>
        <time>2021-04-29T15:05:03Z</time>
      </trkpt>
      <trkpt lat="44.96796" lon="3.89412">
        <ele>783</ele>
        <time>2021-04-29T15:05:04Z</time>
      </trkpt>
      <trkpt lat="44.96796" lon="3.89407">
        <ele>784</ele>
        <time>2021-04-29T15:05:05Z</time>
      </trkpt>
      <trkpt lat="44.96795" lon="3.89403">
        <ele>784</ele>
        <time>2021-04-29T15:05:06Z</time>
      </trkpt>
      <trkpt lat="44.96795" lon="3.89399">
        <ele>784</ele>
        <time>2021-04-29T15:05:07Z</time>
      </trkpt>
      <trkpt lat="44.96794" lon="3.89395">
        <ele>784</ele>
        <time>2021-04-29T15:05:08Z</time>
      </trkpt>
      <trkpt lat="44.96794" lon="3.89391">
        <ele>785</ele>
        <time>2021-04-29T15:05:09Z</time>
      </trkpt>
      <trkpt lat="44.96793" lon="3.89386">
        <ele>785</ele>
        <time>2021-04-29T15:05:10Z</time>
      </trkpt>
      <trkpt lat="44.96793" lon="3.89382">
        <ele>785</ele>
        <time>2021-04-29T15:05:11Z</time>
      </trkpt>
      <trkpt lat="44.96792" lon="3.89378">
        <ele>785</ele>
        <time>2021-04-29T15:05:12Z</time>
      </trkpt>
      <trkpt lat="44.9679" lon="3.89369">
        <ele>785</ele>
        <time>2021-04-29T15:05:13Z</time>
      </trkpt>
      <trkpt lat="44.9679" lon="3.89366">
        <ele>786</ele>
        <time>2021-04-29T15:05:15Z</time>
      </trkpt>
      <trkpt lat="44.96787" lon="3.89356">
        <ele>787</ele>
        <time>2021-04-29T15:05:17Z</time>
      </trkpt>
      <trkpt lat="44.96786" lon="3.89351">
        <ele>787</ele>
        <time>2021-04-29T15:05:18Z</time>
      </trkpt>
      <trkpt lat="44.96785" lon="3.89346">
        <ele>788</ele>
        <time>2021-04-29T15:05:19Z</time>
      </trkpt>
      <trkpt lat="44.96784" lon="3.89342">
        <ele>788</ele>
        <time>2021-04-29T15:05:20Z</time>
      </trkpt>
      <trkpt lat="44.96783" lon="3.89338">
        <ele>788</ele>
        <time>2021-04-29T15:05:21Z</time>
      </trkpt>
      <trkpt lat="44.96782" lon="3.89334">
        <ele>788</ele>
        <time>2021-04-29T15:05:22Z</time>
      </trkpt>
      <trkpt lat="44.96781" lon="3.89331">
        <ele>789</ele>
        <time>2021-04-29T15:05:23Z</time>
      </trkpt>
      <trkpt lat="44.9678" lon="3.89328">
        <ele>789</ele>
        <time>2021-04-29T15:05:25Z</time>
      </trkpt>
      <trkpt lat="44.96779" lon="3.89325">
        <ele>790</ele>
        <time>2021-04-29T15:05:26Z</time>
      </trkpt>
      <trkpt lat="44.96777" lon="3.89322">
        <ele>790</ele>
        <time>2021-04-29T15:05:27Z</time>
      </trkpt>
      <trkpt lat="44.96776" lon="3.89319">
        <ele>790</ele>
        <time>2021-04-29T15:05:28Z</time>
      </trkpt>
      <trkpt lat="44.96774" lon="3.89315">
        <ele>791</ele>
        <time>2021-04-29T15:05:29Z</time>
      </trkpt>
      <trkpt lat="44.96772" lon="3.89312">
        <ele>791</ele>
        <time>2021-04-29T15:05:30Z</time>
      </trkpt>
      <trkpt lat="44.96771" lon="3.8931">
        <ele>791</ele>
        <time>2021-04-29T15:05:31Z</time>
      </trkpt>
      <trkpt lat="44.96768" lon="3.89304">
        <ele>792</ele>
        <time>2021-04-29T15:05:32Z</time>
      </trkpt>
      <trkpt lat="44.96766" lon="3.89301">
        <ele>792</ele>
        <time>2021-04-29T15:05:34Z</time>
      </trkpt>
      <trkpt lat="44.96764" lon="3.89298">
        <ele>793</ele>
        <time>2021-04-29T15:05:35Z</time>
      </trkpt>
      <trkpt lat="44.96763" lon="3.89295">
        <ele>793</ele>
        <time>2021-04-29T15:05:36Z</time>
      </trkpt>
      <trkpt lat="44.96761" lon="3.89292">
        <ele>793</ele>
        <time>2021-04-29T15:05:37Z</time>
      </trkpt>
      <trkpt lat="44.96758" lon="3.89287">
        <ele>794</ele>
        <time>2021-04-29T15:05:38Z</time>
      </trkpt>
      <trkpt lat="44.96756" lon="3.89284">
        <ele>794</ele>
        <time>2021-04-29T15:05:40Z</time>
      </trkpt>
      <trkpt lat="44.96753" lon="3.89278">
        <ele>795</ele>
        <time>2021-04-29T15:05:41Z</time>
      </trkpt>
      <trkpt lat="44.96751" lon="3.89275">
        <ele>795</ele>
        <time>2021-04-29T15:05:43Z</time>
      </trkpt>
      <trkpt lat="44.9675" lon="3.89272">
        <ele>796</ele>
        <time>2021-04-29T15:05:44Z</time>
      </trkpt>
      <trkpt lat="44.96748" lon="3.89269">
        <ele>796</ele>
        <time>2021-04-29T15:05:45Z</time>
      </trkpt>
      <trkpt lat="44.96748" lon="3.89267">
        <ele>796</ele>
        <time>2021-04-29T15:05:46Z</time>
      </trkpt>
      <trkpt lat="44.96749" lon="3.89264">
        <ele>797</ele>
        <time>2021-04-29T15:05:48Z</time>
      </trkpt>
      <trkpt lat="44.96751" lon="3.89263">
        <ele>797</ele>
        <time>2021-04-29T15:05:49Z</time>
      </trkpt>
      <trkpt lat="44.96755" lon="3.89263">
        <ele>797</ele>
        <time>2021-04-29T15:05:50Z</time>
      </trkpt>
      <trkpt lat="44.96765" lon="3.89264">
        <ele>797</ele>
        <time>2021-04-29T15:05:51Z</time>
      </trkpt>
      <trkpt lat="44.96778" lon="3.89265">
        <ele>797</ele>
        <time>2021-04-29T15:05:54Z</time>
      </trkpt>
      <trkpt lat="44.96789" lon="3.89276">
        <ele>797</ele>
        <time>2021-04-29T15:05:56Z</time>
      </trkpt>
      <trkpt lat="44.96794" lon="3.89284">
        <ele>797</ele>
        <time>2021-04-29T15:05:57Z</time>
      </trkpt>
      <trkpt lat="44.96802" lon="3.89296">
        <ele>797</ele>
        <time>2021-04-29T15:05:59Z</time>
      </trkpt>
      <trkpt lat="44.96813" lon="3.893">
        <ele>796</ele>
        <time>2021-04-29T15:06:01Z</time>
      </trkpt>
      <trkpt lat="44.96828" lon="3.89305">
        <ele>796</ele>
        <time>2021-04-29T15:06:03Z</time>
      </trkpt>
      <trkpt lat="44.96844" lon="3.89308">
        <ele>795</ele>
        <time>2021-04-29T15:06:05Z</time>
      </trkpt>
      <trkpt lat="44.96855" lon="3.89304">
        <ele>794</ele>
        <time>2021-04-29T15:06:07Z</time>
      </trkpt>
      <trkpt lat="44.96863" lon="3.89293">
        <ele>793</ele>
        <time>2021-04-29T15:06:09Z</time>
      </trkpt>
      <trkpt lat="44.96872" lon="3.8928">
        <ele>793</ele>
        <time>2021-04-29T15:06:10Z</time>
      </trkpt>
      <trkpt lat="44.96883" lon="3.89265">
        <ele>792</ele>
        <time>2021-04-29T15:06:13Z</time>
      </trkpt>
      <trkpt lat="44.9689" lon="3.89253">
        <ele>791</ele>
        <time>2021-04-29T15:06:15Z</time>
      </trkpt>
      <trkpt lat="44.96891" lon="3.89239">
        <ele>790</ele>
        <time>2021-04-29T15:06:18Z</time>
      </trkpt>
      <trkpt lat="44.96891" lon="3.89236">
        <ele>789</ele>
        <time>2021-04-29T15:06:19Z</time>
      </trkpt>
      <trkpt lat="44.96894" lon="3.89222">
        <ele>787</ele>
        <time>2021-04-29T15:06:24Z</time>
      </trkpt>
      <trkpt lat="44.96899" lon="3.89214">
        <ele>785</ele>
        <time>2021-04-29T15:06:26Z</time>
      </trkpt>
      <trkpt lat="44.96904" lon="3.89211">
        <ele>785</ele>
        <time>2021-04-29T15:06:27Z</time>
      </trkpt>
      <trkpt lat="44.96909" lon="3.89209">
        <ele>785</ele>
        <time>2021-04-29T15:06:28Z</time>
      </trkpt>
      <trkpt lat="44.96914" lon="3.89208">
        <ele>784</ele>
        <time>2021-04-29T15:06:29Z</time>
      </trkpt>
      <trkpt lat="44.96919" lon="3.89206">
        <ele>784</ele>
        <time>2021-04-29T15:06:30Z</time>
      </trkpt>
      <trkpt lat="44.96922" lon="3.89204">
        <ele>784</ele>
        <time>2021-04-29T15:06:31Z</time>
      </trkpt>
      <trkpt lat="44.96925" lon="3.89202">
        <ele>784</ele>
        <time>2021-04-29T15:06:32Z</time>
      </trkpt>
      <trkpt lat="44.96928" lon="3.892">
        <ele>783</ele>
        <time>2021-04-29T15:06:33Z</time>
      </trkpt>
      <trkpt lat="44.96931" lon="3.8919">
        <ele>782</ele>
        <time>2021-04-29T15:06:36Z</time>
      </trkpt>
      <trkpt lat="44.96931" lon="3.89185">
        <ele>781</ele>
        <time>2021-04-29T15:06:37Z</time>
      </trkpt>
      <trkpt lat="44.9693" lon="3.8918">
        <ele>781</ele>
        <time>2021-04-29T15:06:38Z</time>
      </trkpt>
      <trkpt lat="44.9693" lon="3.89174">
        <ele>780</ele>
        <time>2021-04-29T15:06:39Z</time>
      </trkpt>
      <trkpt lat="44.96928" lon="3.89169">
        <ele>780</ele>
        <time>2021-04-29T15:06:40Z</time>
      </trkpt>
      <trkpt lat="44.96928" lon="3.89164">
        <ele>779</ele>
        <time>2021-04-29T15:06:41Z</time>
      </trkpt>
      <trkpt lat="44.96927" lon="3.8916">
        <ele>779</ele>
        <time>2021-04-29T15:06:42Z</time>
      </trkpt>
      <trkpt lat="44.96926" lon="3.89155">
        <ele>779</ele>
        <time>2021-04-29T15:06:43Z</time>
      </trkpt>
      <trkpt lat="44.96925" lon="3.8915">
        <ele>779</ele>
        <time>2021-04-29T15:06:44Z</time>
      </trkpt>
      <trkpt lat="44.96923" lon="3.89136">
        <ele>777</ele>
        <time>2021-04-29T15:06:46Z</time>
      </trkpt>
      <trkpt lat="44.96923" lon="3.89129">
        <ele>777</ele>
        <time>2021-04-29T15:06:47Z</time>
      </trkpt>
      <trkpt lat="44.9692" lon="3.89116">
        <ele>777</ele>
        <time>2021-04-29T15:06:48Z</time>
      </trkpt>
      <trkpt lat="44.96919" lon="3.89111">
        <ele>776</ele>
        <time>2021-04-29T15:06:50Z</time>
      </trkpt>
      <trkpt lat="44.96917" lon="3.89107">
        <ele>776</ele>
        <time>2021-04-29T15:06:51Z</time>
      </trkpt>
      <trkpt lat="44.96914" lon="3.89103">
        <ele>776</ele>
        <time>2021-04-29T15:06:52Z</time>
      </trkpt>
      <trkpt lat="44.96912" lon="3.89099">
        <ele>776</ele>
        <time>2021-04-29T15:06:53Z</time>
      </trkpt>
      <trkpt lat="44.96909" lon="3.89093">
        <ele>776</ele>
        <time>2021-04-29T15:06:54Z</time>
      </trkpt>
      <trkpt lat="44.96907" lon="3.89088">
        <ele>776</ele>
        <time>2021-04-29T15:06:55Z</time>
      </trkpt>
      <trkpt lat="44.96906" lon="3.89084">
        <ele>776</ele>
        <time>2021-04-29T15:06:56Z</time>
      </trkpt>
      <trkpt lat="44.96905" lon="3.89079">
        <ele>776</ele>
        <time>2021-04-29T15:06:57Z</time>
      </trkpt>
      <trkpt lat="44.96905" lon="3.89074">
        <ele>776</ele>
        <time>2021-04-29T15:06:58Z</time>
      </trkpt>
      <trkpt lat="44.96906" lon="3.8907">
        <ele>776</ele>
        <time>2021-04-29T15:06:59Z</time>
      </trkpt>
      <trkpt lat="44.96908" lon="3.89066">
        <ele>776</ele>
        <time>2021-04-29T15:07:00Z</time>
      </trkpt>
      <trkpt lat="44.9691" lon="3.89063">
        <ele>776</ele>
        <time>2021-04-29T15:07:01Z</time>
      </trkpt>
      <trkpt lat="44.96913" lon="3.89061">
        <ele>775</ele>
        <time>2021-04-29T15:07:02Z</time>
      </trkpt>
      <trkpt lat="44.96915" lon="3.8906">
        <ele>775</ele>
        <time>2021-04-29T15:07:03Z</time>
      </trkpt>
      <trkpt lat="44.96918" lon="3.8906">
        <ele>775</ele>
        <time>2021-04-29T15:07:04Z</time>
      </trkpt>
      <trkpt lat="44.96921" lon="3.89059">
        <ele>775</ele>
        <time>2021-04-29T15:07:05Z</time>
      </trkpt>
      <trkpt lat="44.96923" lon="3.89058">
        <ele>775</ele>
        <time>2021-04-29T15:07:06Z</time>
      </trkpt>
      <trkpt lat="44.96927" lon="3.89054">
        <ele>775</ele>
        <time>2021-04-29T15:07:07Z</time>
      </trkpt>
      <trkpt lat="44.96929" lon="3.89052">
        <ele>775</ele>
        <time>2021-04-29T15:07:09Z</time>
      </trkpt>
      <trkpt lat="44.96931" lon="3.89049">
        <ele>775</ele>
        <time>2021-04-29T15:07:11Z</time>
      </trkpt>
      <trkpt lat="44.96933" lon="3.89047">
        <ele>775</ele>
        <time>2021-04-29T15:07:12Z</time>
      </trkpt>
      <trkpt lat="44.96934" lon="3.89044">
        <ele>775</ele>
        <time>2021-04-29T15:07:13Z</time>
      </trkpt>
      <trkpt lat="44.96936" lon="3.89041">
        <ele>776</ele>
        <time>2021-04-29T15:07:14Z</time>
      </trkpt>
      <trkpt lat="44.96938" lon="3.89039">
        <ele>776</ele>
        <time>2021-04-29T15:07:15Z</time>
      </trkpt>
      <trkpt lat="44.9694" lon="3.89036">
        <ele>776</ele>
        <time>2021-04-29T15:07:16Z</time>
      </trkpt>
      <trkpt lat="44.96942" lon="3.89033">
        <ele>776</ele>
        <time>2021-04-29T15:07:17Z</time>
      </trkpt>
      <trkpt lat="44.96943" lon="3.8903">
        <ele>776</ele>
        <time>2021-04-29T15:07:18Z</time>
      </trkpt>
      <trkpt lat="44.96945" lon="3.89028">
        <ele>776</ele>
        <time>2021-04-29T15:07:19Z</time>
      </trkpt>
      <trkpt lat="44.96947" lon="3.89025">
        <ele>776</ele>
        <time>2021-04-29T15:07:20Z</time>
      </trkpt>
      <trkpt lat="44.96949" lon="3.89022">
        <ele>777</ele>
        <time>2021-04-29T15:07:21Z</time>
      </trkpt>
      <trkpt lat="44.9695" lon="3.89018">
        <ele>777</ele>
        <time>2021-04-29T15:07:22Z</time>
      </trkpt>
      <trkpt lat="44.96951" lon="3.89014">
        <ele>777</ele>
        <time>2021-04-29T15:07:23Z</time>
      </trkpt>
      <trkpt lat="44.96953" lon="3.8901">
        <ele>777</ele>
        <time>2021-04-29T15:07:24Z</time>
      </trkpt>
      <trkpt lat="44.96954" lon="3.89006">
        <ele>777</ele>
        <time>2021-04-29T15:07:25Z</time>
      </trkpt>
      <trkpt lat="44.96957" lon="3.88998">
        <ele>777</ele>
        <time>2021-04-29T15:07:26Z</time>
      </trkpt>
      <trkpt lat="44.96958" lon="3.88995">
        <ele>778</ele>
        <time>2021-04-29T15:07:28Z</time>
      </trkpt>
      <trkpt lat="44.96959" lon="3.88991">
        <ele>778</ele>
        <time>2021-04-29T15:07:29Z</time>
      </trkpt>
      <trkpt lat="44.96961" lon="3.88988">
        <ele>778</ele>
        <time>2021-04-29T15:07:30Z</time>
      </trkpt>
      <trkpt lat="44.96962" lon="3.88984">
        <ele>778</ele>
        <time>2021-04-29T15:07:31Z</time>
      </trkpt>
      <trkpt lat="44.96964" lon="3.88981">
        <ele>778</ele>
        <time>2021-04-29T15:07:32Z</time>
      </trkpt>
      <trkpt lat="44.96965" lon="3.88978">
        <ele>778</ele>
        <time>2021-04-29T15:07:33Z</time>
      </trkpt>
      <trkpt lat="44.96967" lon="3.88974">
        <ele>778</ele>
        <time>2021-04-29T15:07:34Z</time>
      </trkpt>
      <trkpt lat="44.96969" lon="3.88971">
        <ele>779</ele>
        <time>2021-04-29T15:07:35Z</time>
      </trkpt>
      <trkpt lat="44.96971" lon="3.88967">
        <ele>779</ele>
        <time>2021-04-29T15:07:36Z</time>
      </trkpt>
      <trkpt lat="44.96972" lon="3.88964">
        <ele>779</ele>
        <time>2021-04-29T15:07:37Z</time>
      </trkpt>
      <trkpt lat="44.96974" lon="3.8896">
        <ele>779</ele>
        <time>2021-04-29T15:07:38Z</time>
      </trkpt>
      <trkpt lat="44.96975" lon="3.88956">
        <ele>779</ele>
        <time>2021-04-29T15:07:39Z</time>
      </trkpt>
      <trkpt lat="44.96977" lon="3.88953">
        <ele>779</ele>
        <time>2021-04-29T15:07:40Z</time>
      </trkpt>
      <trkpt lat="44.96979" lon="3.8895">
        <ele>779</ele>
        <time>2021-04-29T15:07:41Z</time>
      </trkpt>
      <trkpt lat="44.96981" lon="3.88947">
        <ele>779</ele>
        <time>2021-04-29T15:07:42Z</time>
      </trkpt>
      <trkpt lat="44.96983" lon="3.88945">
        <ele>779</ele>
        <time>2021-04-29T15:07:43Z</time>
      </trkpt>
      <trkpt lat="44.96985" lon="3.88942">
        <ele>779</ele>
        <time>2021-04-29T15:07:44Z</time>
      </trkpt>
      <trkpt lat="44.96988" lon="3.8894">
        <ele>780</ele>
        <time>2021-04-29T15:07:45Z</time>
      </trkpt>
      <trkpt lat="44.96991" lon="3.88939">
        <ele>780</ele>
        <time>2021-04-29T15:07:46Z</time>
      </trkpt>
      <trkpt lat="44.96993" lon="3.88937">
        <ele>780</ele>
        <time>2021-04-29T15:07:47Z</time>
      </trkpt>
      <trkpt lat="44.96996" lon="3.88935">
        <ele>780</ele>
        <time>2021-04-29T15:07:48Z</time>
      </trkpt>
      <trkpt lat="44.96998" lon="3.88933">
        <ele>780</ele>
        <time>2021-04-29T15:07:49Z</time>
      </trkpt>
      <trkpt lat="44.96999" lon="3.88929">
        <ele>780</ele>
        <time>2021-04-29T15:07:50Z</time>
      </trkpt>
      <trkpt lat="44.97001" lon="3.88922">
        <ele>780</ele>
        <time>2021-04-29T15:07:51Z</time>
      </trkpt>
      <trkpt lat="44.97001" lon="3.8892">
        <ele>780</ele>
        <time>2021-04-29T15:07:53Z</time>
      </trkpt>
      <trkpt lat="44.97003" lon="3.88918">
        <ele>780</ele>
        <time>2021-04-29T15:07:54Z</time>
      </trkpt>
      <trkpt lat="44.97005" lon="3.88916">
        <ele>780</ele>
        <time>2021-04-29T15:07:55Z</time>
      </trkpt>
      <trkpt lat="44.97008" lon="3.88916">
        <ele>780</ele>
        <time>2021-04-29T15:07:56Z</time>
      </trkpt>
      <trkpt lat="44.9701" lon="3.88915">
        <ele>781</ele>
        <time>2021-04-29T15:07:57Z</time>
      </trkpt>
      <trkpt lat="44.97013" lon="3.88915">
        <ele>781</ele>
        <time>2021-04-29T15:07:58Z</time>
      </trkpt>
      <trkpt lat="44.97015" lon="3.88915">
        <ele>781</ele>
        <time>2021-04-29T15:07:59Z</time>
      </trkpt>
      <trkpt lat="44.97018" lon="3.88914">
        <ele>781</ele>
        <time>2021-04-29T15:08:00Z</time>
      </trkpt>
      <trkpt lat="44.97021" lon="3.88914">
        <ele>781</ele>
        <time>2021-04-29T15:08:01Z</time>
      </trkpt>
      <trkpt lat="44.97024" lon="3.88913">
        <ele>781</ele>
        <time>2021-04-29T15:08:02Z</time>
      </trkpt>
      <trkpt lat="44.97027" lon="3.88913">
        <ele>781</ele>
        <time>2021-04-29T15:08:03Z</time>
      </trkpt>
      <trkpt lat="44.97033" lon="3.88912">
        <ele>782</ele>
        <time>2021-04-29T15:08:04Z</time>
      </trkpt>
      <trkpt lat="44.97036" lon="3.88911">
        <ele>782</ele>
        <time>2021-04-29T15:08:06Z</time>
      </trkpt>
      <trkpt lat="44.9704" lon="3.88911">
        <ele>782</ele>
        <time>2021-04-29T15:08:07Z</time>
      </trkpt>
      <trkpt lat="44.97043" lon="3.88912">
        <ele>782</ele>
        <time>2021-04-29T15:08:08Z</time>
      </trkpt>
      <trkpt lat="44.97047" lon="3.88912">
        <ele>782</ele>
        <time>2021-04-29T15:08:09Z</time>
      </trkpt>
      <trkpt lat="44.97051" lon="3.88912">
        <ele>782</ele>
        <time>2021-04-29T15:08:10Z</time>
      </trkpt>
      <trkpt lat="44.97054" lon="3.88912">
        <ele>783</ele>
        <time>2021-04-29T15:08:11Z</time>
      </trkpt>
      <trkpt lat="44.97058" lon="3.88912">
        <ele>783</ele>
        <time>2021-04-29T15:08:12Z</time>
      </trkpt>
      <trkpt lat="44.97061" lon="3.88912">
        <ele>783</ele>
        <time>2021-04-29T15:08:13Z</time>
      </trkpt>
      <trkpt lat="44.97065" lon="3.88912">
        <ele>783</ele>
        <time>2021-04-29T15:08:14Z</time>
      </trkpt>
      <trkpt lat="44.97068" lon="3.88912">
        <ele>784</ele>
        <time>2021-04-29T15:08:15Z</time>
      </trkpt>
      <trkpt lat="44.97072" lon="3.88911">
        <ele>784</ele>
        <time>2021-04-29T15:08:16Z</time>
      </trkpt>
      <trkpt lat="44.97075" lon="3.88911">
        <ele>784</ele>
        <time>2021-04-29T15:08:17Z</time>
      </trkpt>
      <trkpt lat="44.97078" lon="3.88911">
        <ele>784</ele>
        <time>2021-04-29T15:08:18Z</time>
      </trkpt>
      <trkpt lat="44.97082" lon="3.88911">
        <ele>785</ele>
        <time>2021-04-29T15:08:19Z</time>
      </trkpt>
      <trkpt lat="44.97085" lon="3.8891">
        <ele>785</ele>
        <time>2021-04-29T15:08:20Z</time>
      </trkpt>
      <trkpt lat="44.97089" lon="3.8891">
        <ele>785</ele>
        <time>2021-04-29T15:08:21Z</time>
      </trkpt>
      <trkpt lat="44.97092" lon="3.8891">
        <ele>785</ele>
        <time>2021-04-29T15:08:22Z</time>
      </trkpt>
      <trkpt lat="44.97096" lon="3.88909">
        <ele>785</ele>
        <time>2021-04-29T15:08:23Z</time>
      </trkpt>
      <trkpt lat="44.97099" lon="3.88909">
        <ele>785</ele>
        <time>2021-04-29T15:08:24Z</time>
      </trkpt>
      <trkpt lat="44.97102" lon="3.8891">
        <ele>786</ele>
        <time>2021-04-29T15:08:25Z</time>
      </trkpt>
      <trkpt lat="44.97106" lon="3.88911">
        <ele>786</ele>
        <time>2021-04-29T15:08:26Z</time>
      </trkpt>
      <trkpt lat="44.97109" lon="3.88912">
        <ele>786</ele>
        <time>2021-04-29T15:08:27Z</time>
      </trkpt>
      <trkpt lat="44.97112" lon="3.88914">
        <ele>786</ele>
        <time>2021-04-29T15:08:28Z</time>
      </trkpt>
      <trkpt lat="44.97116" lon="3.88915">
        <ele>787</ele>
        <time>2021-04-29T15:08:29Z</time>
      </trkpt>
      <trkpt lat="44.97119" lon="3.88916">
        <ele>787</ele>
        <time>2021-04-29T15:08:30Z</time>
      </trkpt>
      <trkpt lat="44.97123" lon="3.88917">
        <ele>787</ele>
        <time>2021-04-29T15:08:31Z</time>
      </trkpt>
      <trkpt lat="44.97126" lon="3.88916">
        <ele>788</ele>
        <time>2021-04-29T15:08:32Z</time>
      </trkpt>
      <trkpt lat="44.97128" lon="3.88915">
        <ele>788</ele>
        <time>2021-04-29T15:08:33Z</time>
      </trkpt>
      <trkpt lat="44.9713" lon="3.88914">
        <ele>788</ele>
        <time>2021-04-29T15:08:34Z</time>
      </trkpt>
      <trkpt lat="44.97131" lon="3.88911">
        <ele>788</ele>
        <time>2021-04-29T15:08:35Z</time>
      </trkpt>
      <trkpt lat="44.97131" lon="3.88908">
        <ele>788</ele>
        <time>2021-04-29T15:08:36Z</time>
      </trkpt>
      <trkpt lat="44.9713" lon="3.88905">
        <ele>788</ele>
        <time>2021-04-29T15:08:37Z</time>
      </trkpt>
      <trkpt lat="44.97128" lon="3.88903">
        <ele>789</ele>
        <time>2021-04-29T15:08:38Z</time>
      </trkpt>
      <trkpt lat="44.97125" lon="3.88902">
        <ele>789</ele>
        <time>2021-04-29T15:08:39Z</time>
      </trkpt>
      <trkpt lat="44.97122" lon="3.88901">
        <ele>789</ele>
        <time>2021-04-29T15:08:40Z</time>
      </trkpt>
      <trkpt lat="44.97119" lon="3.889">
        <ele>790</ele>
        <time>2021-04-29T15:08:41Z</time>
      </trkpt>
      <trkpt lat="44.97111" lon="3.88898">
        <ele>790</ele>
        <time>2021-04-29T15:08:42Z</time>
      </trkpt>
      <trkpt lat="44.97108" lon="3.88897">
        <ele>790</ele>
        <time>2021-04-29T15:08:44Z</time>
      </trkpt>
      <trkpt lat="44.97104" lon="3.88896">
        <ele>790</ele>
        <time>2021-04-29T15:08:45Z</time>
      </trkpt>
      <trkpt lat="44.971" lon="3.88895">
        <ele>791</ele>
        <time>2021-04-29T15:08:46Z</time>
      </trkpt>
      <trkpt lat="44.97096" lon="3.88893">
        <ele>791</ele>
        <time>2021-04-29T15:08:47Z</time>
      </trkpt>
      <trkpt lat="44.97092" lon="3.88892">
        <ele>791</ele>
        <time>2021-04-29T15:08:48Z</time>
      </trkpt>
      <trkpt lat="44.97088" lon="3.8889">
        <ele>791</ele>
        <time>2021-04-29T15:08:49Z</time>
      </trkpt>
      <trkpt lat="44.97084" lon="3.88889">
        <ele>791</ele>
        <time>2021-04-29T15:08:50Z</time>
      </trkpt>
      <trkpt lat="44.9708" lon="3.88888">
        <ele>791</ele>
        <time>2021-04-29T15:08:51Z</time>
      </trkpt>
      <trkpt lat="44.97076" lon="3.88887">
        <ele>792</ele>
        <time>2021-04-29T15:08:52Z</time>
      </trkpt>
      <trkpt lat="44.97072" lon="3.88885">
        <ele>792</ele>
        <time>2021-04-29T15:08:53Z</time>
      </trkpt>
      <trkpt lat="44.97068" lon="3.88884">
        <ele>792</ele>
        <time>2021-04-29T15:08:54Z</time>
      </trkpt>
      <trkpt lat="44.97064" lon="3.88882">
        <ele>792</ele>
        <time>2021-04-29T15:08:55Z</time>
      </trkpt>
      <trkpt lat="44.9706" lon="3.88881">
        <ele>792</ele>
        <time>2021-04-29T15:08:56Z</time>
      </trkpt>
      <trkpt lat="44.97057" lon="3.8888">
        <ele>793</ele>
        <time>2021-04-29T15:08:57Z</time>
      </trkpt>
      <trkpt lat="44.97054" lon="3.88879">
        <ele>793</ele>
        <time>2021-04-29T15:08:58Z</time>
      </trkpt>
      <trkpt lat="44.97051" lon="3.88877">
        <ele>793</ele>
        <time>2021-04-29T15:08:59Z</time>
      </trkpt>
      <trkpt lat="44.97049" lon="3.88877">
        <ele>793</ele>
        <time>2021-04-29T15:09:00Z</time>
      </trkpt>
      <trkpt lat="44.97044" lon="3.88876">
        <ele>794</ele>
        <time>2021-04-29T15:09:01Z</time>
      </trkpt>
      <trkpt lat="44.97044" lon="3.88872">
        <ele>794</ele>
        <time>2021-04-29T15:09:04Z</time>
      </trkpt>
      <trkpt lat="44.97046" lon="3.88871">
        <ele>795</ele>
        <time>2021-04-29T15:09:05Z</time>
      </trkpt>
      <trkpt lat="44.97049" lon="3.88871">
        <ele>795</ele>
        <time>2021-04-29T15:09:06Z</time>
      </trkpt>
      <trkpt lat="44.97052" lon="3.88871">
        <ele>795</ele>
        <time>2021-04-29T15:09:07Z</time>
      </trkpt>
      <trkpt lat="44.97055" lon="3.88872">
        <ele>795</ele>
        <time>2021-04-29T15:09:08Z</time>
      </trkpt>
      <trkpt lat="44.97058" lon="3.88872">
        <ele>795</ele>
        <time>2021-04-29T15:09:09Z</time>
      </trkpt>
      <trkpt lat="44.97061" lon="3.88872">
        <ele>795</ele>
        <time>2021-04-29T15:09:10Z</time>
      </trkpt>
      <trkpt lat="44.97063" lon="3.88872">
        <ele>795</ele>
        <time>2021-04-29T15:09:11Z</time>
      </trkpt>
      <trkpt lat="44.97066" lon="3.88873">
        <ele>796</ele>
        <time>2021-04-29T15:09:12Z</time>
      </trkpt>
      <trkpt lat="44.97069" lon="3.88873">
        <ele>796</ele>
        <time>2021-04-29T15:09:13Z</time>
      </trkpt>
      <trkpt lat="44.97071" lon="3.88873">
        <ele>796</ele>
        <time>2021-04-29T15:09:14Z</time>
      </trkpt>
      <trkpt lat="44.97074" lon="3.88872">
        <ele>796</ele>
        <time>2021-04-29T15:09:15Z</time>
      </trkpt>
      <trkpt lat="44.97076" lon="3.88871">
        <ele>797</ele>
        <time>2021-04-29T15:09:16Z</time>
      </trkpt>
      <trkpt lat="44.97078" lon="3.88871">
        <ele>797</ele>
        <time>2021-04-29T15:09:17Z</time>
      </trkpt>
      <trkpt lat="44.97081" lon="3.88871">
        <ele>797</ele>
        <time>2021-04-29T15:09:18Z</time>
      </trkpt>
      <trkpt lat="44.97084" lon="3.88871">
        <ele>797</ele>
        <time>2021-04-29T15:09:19Z</time>
      </trkpt>
      <trkpt lat="44.97089" lon="3.8887">
        <ele>797</ele>
        <time>2021-04-29T15:09:20Z</time>
      </trkpt>
      <trkpt lat="44.97091" lon="3.88869">
        <ele>798</ele>
        <time>2021-04-29T15:09:22Z</time>
      </trkpt>
      <trkpt lat="44.97093" lon="3.88869">
        <ele>798</ele>
        <time>2021-04-29T15:09:23Z</time>
      </trkpt>
      <trkpt lat="44.97096" lon="3.88869">
        <ele>799</ele>
        <time>2021-04-29T15:09:24Z</time>
      </trkpt>
      <trkpt lat="44.97098" lon="3.88868">
        <ele>799</ele>
        <time>2021-04-29T15:09:25Z</time>
      </trkpt>
      <trkpt lat="44.971" lon="3.88868">
        <ele>799</ele>
        <time>2021-04-29T15:09:26Z</time>
      </trkpt>
      <trkpt lat="44.97103" lon="3.88867">
        <ele>800</ele>
        <time>2021-04-29T15:09:27Z</time>
      </trkpt>
      <trkpt lat="44.97105" lon="3.88867">
        <ele>800</ele>
        <time>2021-04-29T15:09:28Z</time>
      </trkpt>
      <trkpt lat="44.97108" lon="3.88867">
        <ele>800</ele>
        <time>2021-04-29T15:09:29Z</time>
      </trkpt>
      <trkpt lat="44.9711" lon="3.88867">
        <ele>801</ele>
        <time>2021-04-29T15:09:30Z</time>
      </trkpt>
      <trkpt lat="44.97112" lon="3.88867">
        <ele>801</ele>
        <time>2021-04-29T15:09:31Z</time>
      </trkpt>
      <trkpt lat="44.97114" lon="3.88867">
        <ele>802</ele>
        <time>2021-04-29T15:09:32Z</time>
      </trkpt>
      <trkpt lat="44.97117" lon="3.88867">
        <ele>802</ele>
        <time>2021-04-29T15:09:33Z</time>
      </trkpt>
      <trkpt lat="44.97119" lon="3.88868">
        <ele>802</ele>
        <time>2021-04-29T15:09:34Z</time>
      </trkpt>
      <trkpt lat="44.97121" lon="3.88868">
        <ele>803</ele>
        <time>2021-04-29T15:09:35Z</time>
      </trkpt>
      <trkpt lat="44.97124" lon="3.88868">
        <ele>803</ele>
        <time>2021-04-29T15:09:36Z</time>
      </trkpt>
      <trkpt lat="44.97127" lon="3.88868">
        <ele>804</ele>
        <time>2021-04-29T15:09:37Z</time>
      </trkpt>
      <trkpt lat="44.9713" lon="3.88869">
        <ele>804</ele>
        <time>2021-04-29T15:09:38Z</time>
      </trkpt>
      <trkpt lat="44.97136" lon="3.88869">
        <ele>805</ele>
        <time>2021-04-29T15:09:39Z</time>
      </trkpt>
      <trkpt lat="44.97139" lon="3.88869">
        <ele>806</ele>
        <time>2021-04-29T15:09:41Z</time>
      </trkpt>
      <trkpt lat="44.97141" lon="3.88868">
        <ele>806</ele>
        <time>2021-04-29T15:09:42Z</time>
      </trkpt>
      <trkpt lat="44.97144" lon="3.88866">
        <ele>807</ele>
        <time>2021-04-29T15:09:43Z</time>
      </trkpt>
      <trkpt lat="44.97147" lon="3.88864">
        <ele>807</ele>
        <time>2021-04-29T15:09:44Z</time>
      </trkpt>
      <trkpt lat="44.97149" lon="3.88861">
        <ele>807</ele>
        <time>2021-04-29T15:09:45Z</time>
      </trkpt>
      <trkpt lat="44.9715" lon="3.88858">
        <ele>808</ele>
        <time>2021-04-29T15:09:46Z</time>
      </trkpt>
      <trkpt lat="44.9715" lon="3.88854">
        <ele>809</ele>
        <time>2021-04-29T15:09:47Z</time>
      </trkpt>
      <trkpt lat="44.97149" lon="3.88851">
        <ele>810</ele>
        <time>2021-04-29T15:09:48Z</time>
      </trkpt>
      <trkpt lat="44.97147" lon="3.88848">
        <ele>810</ele>
        <time>2021-04-29T15:09:49Z</time>
      </trkpt>
      <trkpt lat="44.97142" lon="3.88844">
        <ele>811</ele>
        <time>2021-04-29T15:09:50Z</time>
      </trkpt>
      <trkpt lat="44.9714" lon="3.88841">
        <ele>812</ele>
        <time>2021-04-29T15:09:52Z</time>
      </trkpt>
      <trkpt lat="44.97137" lon="3.88839">
        <ele>812</ele>
        <time>2021-04-29T15:09:53Z</time>
      </trkpt>
      <trkpt lat="44.97135" lon="3.88837">
        <ele>812</ele>
        <time>2021-04-29T15:09:54Z</time>
      </trkpt>
      <trkpt lat="44.97133" lon="3.88835">
        <ele>813</ele>
        <time>2021-04-29T15:09:55Z</time>
      </trkpt>
      <trkpt lat="44.9713" lon="3.88832">
        <ele>814</ele>
        <time>2021-04-29T15:09:56Z</time>
      </trkpt>
      <trkpt lat="44.97128" lon="3.8883">
        <ele>814</ele>
        <time>2021-04-29T15:09:57Z</time>
      </trkpt>
      <trkpt lat="44.97125" lon="3.88828">
        <ele>814</ele>
        <time>2021-04-29T15:09:58Z</time>
      </trkpt>
      <trkpt lat="44.9712" lon="3.88824">
        <ele>814</ele>
        <time>2021-04-29T15:09:59Z</time>
      </trkpt>
      <trkpt lat="44.97117" lon="3.88822">
        <ele>816</ele>
        <time>2021-04-29T15:10:01Z</time>
      </trkpt>
      <trkpt lat="44.97114" lon="3.8882">
        <ele>816</ele>
        <time>2021-04-29T15:10:02Z</time>
      </trkpt>
      <trkpt lat="44.97112" lon="3.88818">
        <ele>816</ele>
        <time>2021-04-29T15:10:03Z</time>
      </trkpt>
      <trkpt lat="44.97109" lon="3.88816">
        <ele>817</ele>
        <time>2021-04-29T15:10:04Z</time>
      </trkpt>
      <trkpt lat="44.97107" lon="3.88814">
        <ele>817</ele>
        <time>2021-04-29T15:10:05Z</time>
      </trkpt>
      <trkpt lat="44.97104" lon="3.88812">
        <ele>817</ele>
        <time>2021-04-29T15:10:06Z</time>
      </trkpt>
    </trkseg>
  </trk>
</gpx>